<?xml version="1.0" encoding="UTF-8" standalone="no" ?>
<gpx xmlns="http://www.topografix.com/GPX/1/1" xmlns:xsi="http://www.w3.org/2001/XMLSchema-instance" xsi:schemaLocation="http://www.topografix.com/GPX/1/1 http://www.topografix.com/GPX/1/1/gpx.xsd" version="1.1" creator="VisuGPX - https://www.visugpx.com">
  <metadata>
    <name>2018-01-05 Bike ride-Georges de Reneins O</name>
    <desc><![CDATA[2018-01-05 Bike ride-Georges de Reneins O]]></desc>
  </metadata>
  <wpt lat="45.92454" lon="4.73712">
    <ele>174</ele>
    <name><![CDATA[2018-01-05 10:42 (Start)]]></name>
  </wpt>
  <wpt lat="45.92463" lon="4.73711">
    <ele>174</ele>
    <name><![CDATA[2018-01-05 10:42 (End)]]></name>
    <desc><![CDATA[Created by Google My Tracks on Android  Name: 2018-01-05 10:42 Activity type: biking Description: - Total distance: 46.46 km (28.9 mi) Total time: 2:37:13 Moving time: 2:27:00 Average speed: 17.73 km/h (11.0 mi/h) Average moving speed: 18.96 km/h (11.8 mi/h) Max speed: 48.17 km/h (29.9 mi/h) Average pace: 3:23 min/km (5:27 min/mi) Average moving pace: 3:10 min/km (5:06 min/mi) Fastest pace: 1:15 min/km (2:00 min/mi) Max elevation: 278 m (912 ft) Min elevation: 209 m (686 ft) Elevation gain: 588 m (1929 ft) Max grade: 33 % Min grade: -29 % Recorded: 05/01/2018 10:42]]></desc>
  </wpt>
  <trk>
    <name><![CDATA[2018-01-05 10:42]]></name>
    <trkseg>
      <trkpt lat="45.92454" lon="4.73712">
        <ele>174</ele>
        <time>2018-01-05T09:42:48.889Z</time>
      </trkpt>
      <trkpt lat="45.92467" lon="4.73713">
        <ele>174</ele>
        <time>2018-01-05T09:42:49.074Z</time>
      </trkpt>
      <trkpt lat="45.92459" lon="4.7372">
        <ele>174</ele>
        <time>2018-01-05T09:42:50.076Z</time>
      </trkpt>
      <trkpt lat="45.92455" lon="4.73719">
        <ele>174</ele>
        <time>2018-01-05T09:42:51Z</time>
      </trkpt>
      <trkpt lat="45.92463" lon="4.73716">
        <ele>174</ele>
        <time>2018-01-05T09:43:25Z</time>
      </trkpt>
      <trkpt lat="45.92464" lon="4.73714">
        <ele>174</ele>
        <time>2018-01-05T09:43:26Z</time>
      </trkpt>
      <trkpt lat="45.92466" lon="4.73703">
        <ele>174</ele>
        <time>2018-01-05T09:43:29Z</time>
      </trkpt>
      <trkpt lat="45.92466" lon="4.73699">
        <ele>174</ele>
        <time>2018-01-05T09:43:30Z</time>
      </trkpt>
      <trkpt lat="45.92467" lon="4.73689">
        <ele>174</ele>
        <time>2018-01-05T09:43:32Z</time>
      </trkpt>
      <trkpt lat="45.92468" lon="4.73683">
        <ele>174</ele>
        <time>2018-01-05T09:43:33Z</time>
      </trkpt>
      <trkpt lat="45.9247" lon="4.73672">
        <ele>174</ele>
        <time>2018-01-05T09:43:35Z</time>
      </trkpt>
      <trkpt lat="45.92471" lon="4.73667">
        <ele>174</ele>
        <time>2018-01-05T09:43:36Z</time>
      </trkpt>
      <trkpt lat="45.92473" lon="4.73656">
        <ele>174</ele>
        <time>2018-01-05T09:43:38Z</time>
      </trkpt>
      <trkpt lat="45.92475" lon="4.73651">
        <ele>174</ele>
        <time>2018-01-05T09:43:39Z</time>
      </trkpt>
      <trkpt lat="45.9248" lon="4.73644">
        <ele>174</ele>
        <time>2018-01-05T09:43:41Z</time>
      </trkpt>
      <trkpt lat="45.92484" lon="4.73641">
        <ele>174</ele>
        <time>2018-01-05T09:43:42Z</time>
      </trkpt>
      <trkpt lat="45.92492" lon="4.7364">
        <ele>174</ele>
        <time>2018-01-05T09:43:44Z</time>
      </trkpt>
      <trkpt lat="45.92496" lon="4.7364">
        <ele>174</ele>
        <time>2018-01-05T09:43:45Z</time>
      </trkpt>
      <trkpt lat="45.92501" lon="4.7364">
        <ele>174</ele>
        <time>2018-01-05T09:43:46Z</time>
      </trkpt>
      <trkpt lat="45.92505" lon="4.73641">
        <ele>174</ele>
        <time>2018-01-05T09:43:47Z</time>
      </trkpt>
      <trkpt lat="45.9251" lon="4.73641">
        <ele>174</ele>
        <time>2018-01-05T09:43:48Z</time>
      </trkpt>
      <trkpt lat="45.92514" lon="4.73641">
        <ele>174</ele>
        <time>2018-01-05T09:43:49Z</time>
      </trkpt>
      <trkpt lat="45.92523" lon="4.7364">
        <ele>173</ele>
        <time>2018-01-05T09:43:51Z</time>
      </trkpt>
      <trkpt lat="45.92529" lon="4.73639">
        <ele>173</ele>
        <time>2018-01-05T09:43:52Z</time>
      </trkpt>
      <trkpt lat="45.92534" lon="4.73638">
        <ele>173</ele>
        <time>2018-01-05T09:43:53Z</time>
      </trkpt>
      <trkpt lat="45.9254" lon="4.73637">
        <ele>173</ele>
        <time>2018-01-05T09:43:54Z</time>
      </trkpt>
      <trkpt lat="45.92548" lon="4.73635">
        <ele>173</ele>
        <time>2018-01-05T09:43:56Z</time>
      </trkpt>
      <trkpt lat="45.92553" lon="4.73633">
        <ele>173</ele>
        <time>2018-01-05T09:43:57Z</time>
      </trkpt>
      <trkpt lat="45.92561" lon="4.73631">
        <ele>173</ele>
        <time>2018-01-05T09:43:59Z</time>
      </trkpt>
      <trkpt lat="45.92566" lon="4.73631">
        <ele>173</ele>
        <time>2018-01-05T09:44:00Z</time>
      </trkpt>
      <trkpt lat="45.9257" lon="4.7363">
        <ele>173</ele>
        <time>2018-01-05T09:44:01Z</time>
      </trkpt>
      <trkpt lat="45.92575" lon="4.73629">
        <ele>173</ele>
        <time>2018-01-05T09:44:02Z</time>
      </trkpt>
      <trkpt lat="45.9258" lon="4.73627">
        <ele>173</ele>
        <time>2018-01-05T09:44:03Z</time>
      </trkpt>
      <trkpt lat="45.92584" lon="4.73626">
        <ele>172</ele>
        <time>2018-01-05T09:44:04Z</time>
      </trkpt>
      <trkpt lat="45.9259" lon="4.73626">
        <ele>172</ele>
        <time>2018-01-05T09:44:05Z</time>
      </trkpt>
      <trkpt lat="45.92596" lon="4.73625">
        <ele>173</ele>
        <time>2018-01-05T09:44:06Z</time>
      </trkpt>
      <trkpt lat="45.92601" lon="4.73625">
        <ele>173</ele>
        <time>2018-01-05T09:44:07Z</time>
      </trkpt>
      <trkpt lat="45.92607" lon="4.73625">
        <ele>173</ele>
        <time>2018-01-05T09:44:08Z</time>
      </trkpt>
      <trkpt lat="45.92613" lon="4.73625">
        <ele>173</ele>
        <time>2018-01-05T09:44:09Z</time>
      </trkpt>
      <trkpt lat="45.92617" lon="4.7363">
        <ele>173</ele>
        <time>2018-01-05T09:44:10Z</time>
      </trkpt>
      <trkpt lat="45.92621" lon="4.73633">
        <ele>173</ele>
        <time>2018-01-05T09:44:11Z</time>
      </trkpt>
      <trkpt lat="45.92624" lon="4.73636">
        <ele>173</ele>
        <time>2018-01-05T09:44:12Z</time>
      </trkpt>
      <trkpt lat="45.92626" lon="4.73643">
        <ele>173</ele>
        <time>2018-01-05T09:44:13Z</time>
      </trkpt>
      <trkpt lat="45.92628" lon="4.73651">
        <ele>173</ele>
        <time>2018-01-05T09:44:14Z</time>
      </trkpt>
      <trkpt lat="45.92632" lon="4.73662">
        <ele>173</ele>
        <time>2018-01-05T09:44:16Z</time>
      </trkpt>
      <trkpt lat="45.92635" lon="4.73668">
        <ele>173</ele>
        <time>2018-01-05T09:44:17Z</time>
      </trkpt>
      <trkpt lat="45.92638" lon="4.73673">
        <ele>173</ele>
        <time>2018-01-05T09:44:18Z</time>
      </trkpt>
      <trkpt lat="45.92641" lon="4.73679">
        <ele>173</ele>
        <time>2018-01-05T09:44:19Z</time>
      </trkpt>
      <trkpt lat="45.92645" lon="4.73684">
        <ele>173</ele>
        <time>2018-01-05T09:44:20Z</time>
      </trkpt>
      <trkpt lat="45.92649" lon="4.73688">
        <ele>173</ele>
        <time>2018-01-05T09:44:21Z</time>
      </trkpt>
      <trkpt lat="45.92653" lon="4.73693">
        <ele>173</ele>
        <time>2018-01-05T09:44:22Z</time>
      </trkpt>
      <trkpt lat="45.92658" lon="4.73697">
        <ele>173</ele>
        <time>2018-01-05T09:44:23Z</time>
      </trkpt>
      <trkpt lat="45.92662" lon="4.73701">
        <ele>173</ele>
        <time>2018-01-05T09:44:24Z</time>
      </trkpt>
      <trkpt lat="45.92668" lon="4.73703">
        <ele>174</ele>
        <time>2018-01-05T09:44:25Z</time>
      </trkpt>
      <trkpt lat="45.92674" lon="4.73706">
        <ele>174</ele>
        <time>2018-01-05T09:44:26Z</time>
      </trkpt>
      <trkpt lat="45.92679" lon="4.73707">
        <ele>173</ele>
        <time>2018-01-05T09:44:27Z</time>
      </trkpt>
      <trkpt lat="45.92685" lon="4.73709">
        <ele>173</ele>
        <time>2018-01-05T09:44:28Z</time>
      </trkpt>
      <trkpt lat="45.92691" lon="4.7371">
        <ele>173</ele>
        <time>2018-01-05T09:44:29Z</time>
      </trkpt>
      <trkpt lat="45.92697" lon="4.73712">
        <ele>173</ele>
        <time>2018-01-05T09:44:30Z</time>
      </trkpt>
      <trkpt lat="45.92702" lon="4.73713">
        <ele>173</ele>
        <time>2018-01-05T09:44:31Z</time>
      </trkpt>
      <trkpt lat="45.92707" lon="4.73714">
        <ele>173</ele>
        <time>2018-01-05T09:44:32Z</time>
      </trkpt>
      <trkpt lat="45.92712" lon="4.73716">
        <ele>173</ele>
        <time>2018-01-05T09:44:33Z</time>
      </trkpt>
      <trkpt lat="45.92718" lon="4.73717">
        <ele>173</ele>
        <time>2018-01-05T09:44:34Z</time>
      </trkpt>
      <trkpt lat="45.92723" lon="4.73717">
        <ele>173</ele>
        <time>2018-01-05T09:44:35Z</time>
      </trkpt>
      <trkpt lat="45.92732" lon="4.7372">
        <ele>173</ele>
        <time>2018-01-05T09:44:37Z</time>
      </trkpt>
      <trkpt lat="45.92738" lon="4.7372">
        <ele>173</ele>
        <time>2018-01-05T09:44:38Z</time>
      </trkpt>
      <trkpt lat="45.92745" lon="4.73723">
        <ele>173</ele>
        <time>2018-01-05T09:44:40Z</time>
      </trkpt>
      <trkpt lat="45.92749" lon="4.73724">
        <ele>173</ele>
        <time>2018-01-05T09:44:41Z</time>
      </trkpt>
      <trkpt lat="45.92757" lon="4.73727">
        <ele>172</ele>
        <time>2018-01-05T09:44:43Z</time>
      </trkpt>
      <trkpt lat="45.92761" lon="4.73729">
        <ele>172</ele>
        <time>2018-01-05T09:44:44Z</time>
      </trkpt>
      <trkpt lat="45.92768" lon="4.73734">
        <ele>172</ele>
        <time>2018-01-05T09:44:46Z</time>
      </trkpt>
      <trkpt lat="45.92773" lon="4.73735">
        <ele>172</ele>
        <time>2018-01-05T09:44:47Z</time>
      </trkpt>
      <trkpt lat="45.92777" lon="4.73731">
        <ele>172</ele>
        <time>2018-01-05T09:44:48Z</time>
      </trkpt>
      <trkpt lat="45.92781" lon="4.73728">
        <ele>172</ele>
        <time>2018-01-05T09:44:49Z</time>
      </trkpt>
      <trkpt lat="45.92783" lon="4.73721">
        <ele>172</ele>
        <time>2018-01-05T09:44:50Z</time>
      </trkpt>
      <trkpt lat="45.92785" lon="4.73715">
        <ele>172</ele>
        <time>2018-01-05T09:44:51Z</time>
      </trkpt>
      <trkpt lat="45.92788" lon="4.73707">
        <ele>172</ele>
        <time>2018-01-05T09:44:52Z</time>
      </trkpt>
      <trkpt lat="45.9279" lon="4.737">
        <ele>172</ele>
        <time>2018-01-05T09:44:53Z</time>
      </trkpt>
      <trkpt lat="45.92791" lon="4.73693">
        <ele>172</ele>
        <time>2018-01-05T09:44:54Z</time>
      </trkpt>
      <trkpt lat="45.92793" lon="4.73686">
        <ele>172</ele>
        <time>2018-01-05T09:44:55Z</time>
      </trkpt>
      <trkpt lat="45.92795" lon="4.73679">
        <ele>172</ele>
        <time>2018-01-05T09:44:56Z</time>
      </trkpt>
      <trkpt lat="45.92795" lon="4.7367">
        <ele>172</ele>
        <time>2018-01-05T09:44:57Z</time>
      </trkpt>
      <trkpt lat="45.92796" lon="4.73663">
        <ele>172</ele>
        <time>2018-01-05T09:44:58Z</time>
      </trkpt>
      <trkpt lat="45.92797" lon="4.73655">
        <ele>172</ele>
        <time>2018-01-05T09:44:59Z</time>
      </trkpt>
      <trkpt lat="45.92801" lon="4.73645">
        <ele>172</ele>
        <time>2018-01-05T09:45:01Z</time>
      </trkpt>
      <trkpt lat="45.92803" lon="4.73641">
        <ele>172</ele>
        <time>2018-01-05T09:45:02Z</time>
      </trkpt>
      <trkpt lat="45.92811" lon="4.73635">
        <ele>172</ele>
        <time>2018-01-05T09:45:06Z</time>
      </trkpt>
      <trkpt lat="45.92812" lon="4.73634">
        <ele>172</ele>
        <time>2018-01-05T09:45:07Z</time>
      </trkpt>
      <trkpt lat="45.92819" lon="4.73628">
        <ele>172</ele>
        <time>2018-01-05T09:45:10Z</time>
      </trkpt>
      <trkpt lat="45.92821" lon="4.73623">
        <ele>172</ele>
        <time>2018-01-05T09:45:11Z</time>
      </trkpt>
      <trkpt lat="45.92822" lon="4.73612">
        <ele>171</ele>
        <time>2018-01-05T09:45:13Z</time>
      </trkpt>
      <trkpt lat="45.92822" lon="4.73605">
        <ele>171</ele>
        <time>2018-01-05T09:45:14Z</time>
      </trkpt>
      <trkpt lat="45.92822" lon="4.73598">
        <ele>171</ele>
        <time>2018-01-05T09:45:15Z</time>
      </trkpt>
      <trkpt lat="45.92823" lon="4.73591">
        <ele>171</ele>
        <time>2018-01-05T09:45:16Z</time>
      </trkpt>
      <trkpt lat="45.92823" lon="4.73585">
        <ele>171</ele>
        <time>2018-01-05T09:45:17Z</time>
      </trkpt>
      <trkpt lat="45.92822" lon="4.73578">
        <ele>171</ele>
        <time>2018-01-05T09:45:18Z</time>
      </trkpt>
      <trkpt lat="45.92821" lon="4.73572">
        <ele>171</ele>
        <time>2018-01-05T09:45:19Z</time>
      </trkpt>
      <trkpt lat="45.92822" lon="4.73565">
        <ele>171</ele>
        <time>2018-01-05T09:45:20Z</time>
      </trkpt>
      <trkpt lat="45.92822" lon="4.73558">
        <ele>171</ele>
        <time>2018-01-05T09:45:21Z</time>
      </trkpt>
      <trkpt lat="45.92823" lon="4.7355">
        <ele>171</ele>
        <time>2018-01-05T09:45:22Z</time>
      </trkpt>
      <trkpt lat="45.92825" lon="4.73542">
        <ele>171</ele>
        <time>2018-01-05T09:45:23Z</time>
      </trkpt>
      <trkpt lat="45.92825" lon="4.73533">
        <ele>172</ele>
        <time>2018-01-05T09:45:24Z</time>
      </trkpt>
      <trkpt lat="45.92825" lon="4.73526">
        <ele>172</ele>
        <time>2018-01-05T09:45:25Z</time>
      </trkpt>
      <trkpt lat="45.92826" lon="4.73519">
        <ele>172</ele>
        <time>2018-01-05T09:45:26Z</time>
      </trkpt>
      <trkpt lat="45.92827" lon="4.73512">
        <ele>172</ele>
        <time>2018-01-05T09:45:27Z</time>
      </trkpt>
      <trkpt lat="45.92827" lon="4.73505">
        <ele>172</ele>
        <time>2018-01-05T09:45:28Z</time>
      </trkpt>
      <trkpt lat="45.92828" lon="4.73498">
        <ele>172</ele>
        <time>2018-01-05T09:45:29Z</time>
      </trkpt>
      <trkpt lat="45.92829" lon="4.7349">
        <ele>172</ele>
        <time>2018-01-05T09:45:30Z</time>
      </trkpt>
      <trkpt lat="45.9283" lon="4.73482">
        <ele>172</ele>
        <time>2018-01-05T09:45:31Z</time>
      </trkpt>
      <trkpt lat="45.92831" lon="4.73474">
        <ele>172</ele>
        <time>2018-01-05T09:45:32Z</time>
      </trkpt>
      <trkpt lat="45.92833" lon="4.73465">
        <ele>172</ele>
        <time>2018-01-05T09:45:33Z</time>
      </trkpt>
      <trkpt lat="45.92834" lon="4.73457">
        <ele>172</ele>
        <time>2018-01-05T09:45:34Z</time>
      </trkpt>
      <trkpt lat="45.92836" lon="4.73449">
        <ele>172</ele>
        <time>2018-01-05T09:45:35Z</time>
      </trkpt>
      <trkpt lat="45.92837" lon="4.73441">
        <ele>172</ele>
        <time>2018-01-05T09:45:36Z</time>
      </trkpt>
      <trkpt lat="45.92837" lon="4.73432">
        <ele>172</ele>
        <time>2018-01-05T09:45:37Z</time>
      </trkpt>
      <trkpt lat="45.92838" lon="4.73424">
        <ele>172</ele>
        <time>2018-01-05T09:45:38Z</time>
      </trkpt>
      <trkpt lat="45.92839" lon="4.73416">
        <ele>172</ele>
        <time>2018-01-05T09:45:39Z</time>
      </trkpt>
      <trkpt lat="45.92839" lon="4.73405">
        <ele>172</ele>
        <time>2018-01-05T09:45:40Z</time>
      </trkpt>
      <trkpt lat="45.92841" lon="4.73397">
        <ele>172</ele>
        <time>2018-01-05T09:45:41Z</time>
      </trkpt>
      <trkpt lat="45.92842" lon="4.73388">
        <ele>172</ele>
        <time>2018-01-05T09:45:42Z</time>
      </trkpt>
      <trkpt lat="45.92844" lon="4.7338">
        <ele>172</ele>
        <time>2018-01-05T09:45:43Z</time>
      </trkpt>
      <trkpt lat="45.92846" lon="4.73371">
        <ele>171</ele>
        <time>2018-01-05T09:45:44Z</time>
      </trkpt>
      <trkpt lat="45.92847" lon="4.73362">
        <ele>171</ele>
        <time>2018-01-05T09:45:45Z</time>
      </trkpt>
      <trkpt lat="45.92848" lon="4.73352">
        <ele>171</ele>
        <time>2018-01-05T09:45:46Z</time>
      </trkpt>
      <trkpt lat="45.92849" lon="4.73343">
        <ele>171</ele>
        <time>2018-01-05T09:45:47Z</time>
      </trkpt>
      <trkpt lat="45.9285" lon="4.73334">
        <ele>171</ele>
        <time>2018-01-05T09:45:48Z</time>
      </trkpt>
      <trkpt lat="45.92851" lon="4.73325">
        <ele>171</ele>
        <time>2018-01-05T09:45:49Z</time>
      </trkpt>
      <trkpt lat="45.92852" lon="4.73316">
        <ele>171</ele>
        <time>2018-01-05T09:45:50Z</time>
      </trkpt>
      <trkpt lat="45.92853" lon="4.73308">
        <ele>171</ele>
        <time>2018-01-05T09:45:51Z</time>
      </trkpt>
      <trkpt lat="45.92854" lon="4.73299">
        <ele>171</ele>
        <time>2018-01-05T09:45:52Z</time>
      </trkpt>
      <trkpt lat="45.92855" lon="4.7329">
        <ele>171</ele>
        <time>2018-01-05T09:45:53Z</time>
      </trkpt>
      <trkpt lat="45.92856" lon="4.73282">
        <ele>171</ele>
        <time>2018-01-05T09:45:54Z</time>
      </trkpt>
      <trkpt lat="45.92857" lon="4.73274">
        <ele>171</ele>
        <time>2018-01-05T09:45:55Z</time>
      </trkpt>
      <trkpt lat="45.92858" lon="4.73265">
        <ele>171</ele>
        <time>2018-01-05T09:45:56Z</time>
      </trkpt>
      <trkpt lat="45.92859" lon="4.73256">
        <ele>171</ele>
        <time>2018-01-05T09:45:57Z</time>
      </trkpt>
      <trkpt lat="45.92861" lon="4.73248">
        <ele>171</ele>
        <time>2018-01-05T09:45:58Z</time>
      </trkpt>
      <trkpt lat="45.92861" lon="4.73239">
        <ele>171</ele>
        <time>2018-01-05T09:45:59Z</time>
      </trkpt>
      <trkpt lat="45.92863" lon="4.7323">
        <ele>171</ele>
        <time>2018-01-05T09:46:00Z</time>
      </trkpt>
      <trkpt lat="45.92863" lon="4.73221">
        <ele>171</ele>
        <time>2018-01-05T09:46:01Z</time>
      </trkpt>
      <trkpt lat="45.92865" lon="4.73211">
        <ele>171</ele>
        <time>2018-01-05T09:46:02Z</time>
      </trkpt>
      <trkpt lat="45.92867" lon="4.732">
        <ele>171</ele>
        <time>2018-01-05T09:46:03Z</time>
      </trkpt>
      <trkpt lat="45.92868" lon="4.73191">
        <ele>171</ele>
        <time>2018-01-05T09:46:04Z</time>
      </trkpt>
      <trkpt lat="45.92869" lon="4.73182">
        <ele>171</ele>
        <time>2018-01-05T09:46:05Z</time>
      </trkpt>
      <trkpt lat="45.9287" lon="4.73174">
        <ele>171</ele>
        <time>2018-01-05T09:46:06Z</time>
      </trkpt>
      <trkpt lat="45.92871" lon="4.73165">
        <ele>171</ele>
        <time>2018-01-05T09:46:07Z</time>
      </trkpt>
      <trkpt lat="45.92872" lon="4.73155">
        <ele>171</ele>
        <time>2018-01-05T09:46:08Z</time>
      </trkpt>
      <trkpt lat="45.92873" lon="4.73145">
        <ele>171</ele>
        <time>2018-01-05T09:46:09Z</time>
      </trkpt>
      <trkpt lat="45.92875" lon="4.73136">
        <ele>171</ele>
        <time>2018-01-05T09:46:10Z</time>
      </trkpt>
      <trkpt lat="45.92876" lon="4.73127">
        <ele>172</ele>
        <time>2018-01-05T09:46:11Z</time>
      </trkpt>
      <trkpt lat="45.92878" lon="4.7312">
        <ele>172</ele>
        <time>2018-01-05T09:46:12Z</time>
      </trkpt>
      <trkpt lat="45.92881" lon="4.73112">
        <ele>172</ele>
        <time>2018-01-05T09:46:13Z</time>
      </trkpt>
      <trkpt lat="45.92882" lon="4.73104">
        <ele>172</ele>
        <time>2018-01-05T09:46:14Z</time>
      </trkpt>
      <trkpt lat="45.92884" lon="4.73097">
        <ele>172</ele>
        <time>2018-01-05T09:46:15Z</time>
      </trkpt>
      <trkpt lat="45.92887" lon="4.73089">
        <ele>172</ele>
        <time>2018-01-05T09:46:16Z</time>
      </trkpt>
      <trkpt lat="45.9289" lon="4.7308">
        <ele>172</ele>
        <time>2018-01-05T09:46:17Z</time>
      </trkpt>
      <trkpt lat="45.92894" lon="4.73072">
        <ele>172</ele>
        <time>2018-01-05T09:46:18Z</time>
      </trkpt>
      <trkpt lat="45.92896" lon="4.73066">
        <ele>172</ele>
        <time>2018-01-05T09:46:19Z</time>
      </trkpt>
      <trkpt lat="45.92899" lon="4.73059">
        <ele>172</ele>
        <time>2018-01-05T09:46:20Z</time>
      </trkpt>
      <trkpt lat="45.92904" lon="4.73052">
        <ele>172</ele>
        <time>2018-01-05T09:46:21Z</time>
      </trkpt>
      <trkpt lat="45.92908" lon="4.73045">
        <ele>172</ele>
        <time>2018-01-05T09:46:22Z</time>
      </trkpt>
      <trkpt lat="45.92913" lon="4.7304">
        <ele>172</ele>
        <time>2018-01-05T09:46:23Z</time>
      </trkpt>
      <trkpt lat="45.92917" lon="4.73033">
        <ele>172</ele>
        <time>2018-01-05T09:46:24Z</time>
      </trkpt>
      <trkpt lat="45.92921" lon="4.73026">
        <ele>171</ele>
        <time>2018-01-05T09:46:25Z</time>
      </trkpt>
      <trkpt lat="45.92925" lon="4.7302">
        <ele>171</ele>
        <time>2018-01-05T09:46:26Z</time>
      </trkpt>
      <trkpt lat="45.9293" lon="4.73014">
        <ele>171</ele>
        <time>2018-01-05T09:46:27Z</time>
      </trkpt>
      <trkpt lat="45.92935" lon="4.73008">
        <ele>171</ele>
        <time>2018-01-05T09:46:28Z</time>
      </trkpt>
      <trkpt lat="45.9294" lon="4.73002">
        <ele>171</ele>
        <time>2018-01-05T09:46:29Z</time>
      </trkpt>
      <trkpt lat="45.92945" lon="4.72998">
        <ele>171</ele>
        <time>2018-01-05T09:46:30Z</time>
      </trkpt>
      <trkpt lat="45.92949" lon="4.72992">
        <ele>171</ele>
        <time>2018-01-05T09:46:31Z</time>
      </trkpt>
      <trkpt lat="45.92954" lon="4.72988">
        <ele>171</ele>
        <time>2018-01-05T09:46:32Z</time>
      </trkpt>
      <trkpt lat="45.92958" lon="4.72983">
        <ele>171</ele>
        <time>2018-01-05T09:46:33Z</time>
      </trkpt>
      <trkpt lat="45.92962" lon="4.72978">
        <ele>171</ele>
        <time>2018-01-05T09:46:34Z</time>
      </trkpt>
      <trkpt lat="45.92967" lon="4.72973">
        <ele>171</ele>
        <time>2018-01-05T09:46:35Z</time>
      </trkpt>
      <trkpt lat="45.92971" lon="4.72967">
        <ele>171</ele>
        <time>2018-01-05T09:46:36Z</time>
      </trkpt>
      <trkpt lat="45.92975" lon="4.72962">
        <ele>171</ele>
        <time>2018-01-05T09:46:37Z</time>
      </trkpt>
      <trkpt lat="45.9298" lon="4.72957">
        <ele>171</ele>
        <time>2018-01-05T09:46:38Z</time>
      </trkpt>
      <trkpt lat="45.92984" lon="4.72952">
        <ele>171</ele>
        <time>2018-01-05T09:46:39Z</time>
      </trkpt>
      <trkpt lat="45.92989" lon="4.72946">
        <ele>171</ele>
        <time>2018-01-05T09:46:40Z</time>
      </trkpt>
      <trkpt lat="45.92994" lon="4.72941">
        <ele>171</ele>
        <time>2018-01-05T09:46:41Z</time>
      </trkpt>
      <trkpt lat="45.92999" lon="4.72936">
        <ele>171</ele>
        <time>2018-01-05T09:46:42Z</time>
      </trkpt>
      <trkpt lat="45.93004" lon="4.7293">
        <ele>170</ele>
        <time>2018-01-05T09:46:43Z</time>
      </trkpt>
      <trkpt lat="45.93008" lon="4.72925">
        <ele>170</ele>
        <time>2018-01-05T09:46:44Z</time>
      </trkpt>
      <trkpt lat="45.93013" lon="4.72921">
        <ele>170</ele>
        <time>2018-01-05T09:46:45Z</time>
      </trkpt>
      <trkpt lat="45.93017" lon="4.72915">
        <ele>171</ele>
        <time>2018-01-05T09:46:46Z</time>
      </trkpt>
      <trkpt lat="45.93021" lon="4.72909">
        <ele>172</ele>
        <time>2018-01-05T09:46:47Z</time>
      </trkpt>
      <trkpt lat="45.93025" lon="4.72903">
        <ele>172</ele>
        <time>2018-01-05T09:46:48Z</time>
      </trkpt>
      <trkpt lat="45.93029" lon="4.72897">
        <ele>172</ele>
        <time>2018-01-05T09:46:49Z</time>
      </trkpt>
      <trkpt lat="45.93034" lon="4.72891">
        <ele>172</ele>
        <time>2018-01-05T09:46:50Z</time>
      </trkpt>
      <trkpt lat="45.93039" lon="4.72885">
        <ele>172</ele>
        <time>2018-01-05T09:46:51Z</time>
      </trkpt>
      <trkpt lat="45.93044" lon="4.7288">
        <ele>172</ele>
        <time>2018-01-05T09:46:52Z</time>
      </trkpt>
      <trkpt lat="45.93048" lon="4.72874">
        <ele>172</ele>
        <time>2018-01-05T09:46:53Z</time>
      </trkpt>
      <trkpt lat="45.93052" lon="4.72869">
        <ele>172</ele>
        <time>2018-01-05T09:46:54Z</time>
      </trkpt>
      <trkpt lat="45.93057" lon="4.72863">
        <ele>172</ele>
        <time>2018-01-05T09:46:55Z</time>
      </trkpt>
      <trkpt lat="45.93062" lon="4.72858">
        <ele>172</ele>
        <time>2018-01-05T09:46:56Z</time>
      </trkpt>
      <trkpt lat="45.93067" lon="4.72853">
        <ele>172</ele>
        <time>2018-01-05T09:46:57Z</time>
      </trkpt>
      <trkpt lat="45.93071" lon="4.72848">
        <ele>172</ele>
        <time>2018-01-05T09:46:58Z</time>
      </trkpt>
      <trkpt lat="45.93075" lon="4.72843">
        <ele>173</ele>
        <time>2018-01-05T09:46:59Z</time>
      </trkpt>
      <trkpt lat="45.93079" lon="4.72837">
        <ele>173</ele>
        <time>2018-01-05T09:47:00Z</time>
      </trkpt>
      <trkpt lat="45.93084" lon="4.72832">
        <ele>173</ele>
        <time>2018-01-05T09:47:01Z</time>
      </trkpt>
      <trkpt lat="45.93088" lon="4.72827">
        <ele>172</ele>
        <time>2018-01-05T09:47:02Z</time>
      </trkpt>
      <trkpt lat="45.93093" lon="4.72821">
        <ele>172</ele>
        <time>2018-01-05T09:47:03Z</time>
      </trkpt>
      <trkpt lat="45.93096" lon="4.72815">
        <ele>172</ele>
        <time>2018-01-05T09:47:04Z</time>
      </trkpt>
      <trkpt lat="45.93098" lon="4.72806">
        <ele>171</ele>
        <time>2018-01-05T09:47:06Z</time>
      </trkpt>
      <trkpt lat="45.93107" lon="4.72804">
        <ele>171</ele>
        <time>2018-01-05T09:47:07Z</time>
      </trkpt>
      <trkpt lat="45.93112" lon="4.728">
        <ele>171</ele>
        <time>2018-01-05T09:47:08Z</time>
      </trkpt>
      <trkpt lat="45.93116" lon="4.72796">
        <ele>171</ele>
        <time>2018-01-05T09:47:09Z</time>
      </trkpt>
      <trkpt lat="45.9312" lon="4.72791">
        <ele>171</ele>
        <time>2018-01-05T09:47:10Z</time>
      </trkpt>
      <trkpt lat="45.93125" lon="4.72786">
        <ele>171</ele>
        <time>2018-01-05T09:47:11Z</time>
      </trkpt>
      <trkpt lat="45.93129" lon="4.72779">
        <ele>171</ele>
        <time>2018-01-05T09:47:12Z</time>
      </trkpt>
      <trkpt lat="45.93135" lon="4.72775">
        <ele>171</ele>
        <time>2018-01-05T09:47:13Z</time>
      </trkpt>
      <trkpt lat="45.93139" lon="4.72769">
        <ele>171</ele>
        <time>2018-01-05T09:47:14Z</time>
      </trkpt>
      <trkpt lat="45.93144" lon="4.72763">
        <ele>171</ele>
        <time>2018-01-05T09:47:15Z</time>
      </trkpt>
      <trkpt lat="45.93149" lon="4.72759">
        <ele>170</ele>
        <time>2018-01-05T09:47:16Z</time>
      </trkpt>
      <trkpt lat="45.93153" lon="4.72753">
        <ele>170</ele>
        <time>2018-01-05T09:47:17Z</time>
      </trkpt>
      <trkpt lat="45.93157" lon="4.72748">
        <ele>170</ele>
        <time>2018-01-05T09:47:18Z</time>
      </trkpt>
      <trkpt lat="45.93161" lon="4.72743">
        <ele>170</ele>
        <time>2018-01-05T09:47:19Z</time>
      </trkpt>
      <trkpt lat="45.93165" lon="4.72738">
        <ele>170</ele>
        <time>2018-01-05T09:47:20Z</time>
      </trkpt>
      <trkpt lat="45.93169" lon="4.72732">
        <ele>170</ele>
        <time>2018-01-05T09:47:21Z</time>
      </trkpt>
      <trkpt lat="45.93173" lon="4.72727">
        <ele>170</ele>
        <time>2018-01-05T09:47:22Z</time>
      </trkpt>
      <trkpt lat="45.93177" lon="4.72722">
        <ele>170</ele>
        <time>2018-01-05T09:47:23Z</time>
      </trkpt>
      <trkpt lat="45.9318" lon="4.72718">
        <ele>169</ele>
        <time>2018-01-05T09:47:24Z</time>
      </trkpt>
      <trkpt lat="45.93184" lon="4.72713">
        <ele>169</ele>
        <time>2018-01-05T09:47:25Z</time>
      </trkpt>
      <trkpt lat="45.93188" lon="4.72708">
        <ele>169</ele>
        <time>2018-01-05T09:47:26Z</time>
      </trkpt>
      <trkpt lat="45.93192" lon="4.72703">
        <ele>169</ele>
        <time>2018-01-05T09:47:27Z</time>
      </trkpt>
      <trkpt lat="45.93196" lon="4.72698">
        <ele>169</ele>
        <time>2018-01-05T09:47:28Z</time>
      </trkpt>
      <trkpt lat="45.93201" lon="4.72693">
        <ele>169</ele>
        <time>2018-01-05T09:47:29Z</time>
      </trkpt>
      <trkpt lat="45.93204" lon="4.72689">
        <ele>169</ele>
        <time>2018-01-05T09:47:30Z</time>
      </trkpt>
      <trkpt lat="45.93208" lon="4.72683">
        <ele>169</ele>
        <time>2018-01-05T09:47:31Z</time>
      </trkpt>
      <trkpt lat="45.93213" lon="4.72678">
        <ele>169</ele>
        <time>2018-01-05T09:47:32Z</time>
      </trkpt>
      <trkpt lat="45.93217" lon="4.72673">
        <ele>169</ele>
        <time>2018-01-05T09:47:33Z</time>
      </trkpt>
      <trkpt lat="45.93222" lon="4.72667">
        <ele>169</ele>
        <time>2018-01-05T09:47:34Z</time>
      </trkpt>
      <trkpt lat="45.93227" lon="4.72662">
        <ele>170</ele>
        <time>2018-01-05T09:47:35Z</time>
      </trkpt>
      <trkpt lat="45.93232" lon="4.72658">
        <ele>169</ele>
        <time>2018-01-05T09:47:36Z</time>
      </trkpt>
      <trkpt lat="45.93236" lon="4.72652">
        <ele>169</ele>
        <time>2018-01-05T09:47:37Z</time>
      </trkpt>
      <trkpt lat="45.93241" lon="4.72647">
        <ele>170</ele>
        <time>2018-01-05T09:47:38Z</time>
      </trkpt>
      <trkpt lat="45.93247" lon="4.72641">
        <ele>170</ele>
        <time>2018-01-05T09:47:39Z</time>
      </trkpt>
      <trkpt lat="45.93252" lon="4.72636">
        <ele>170</ele>
        <time>2018-01-05T09:47:40Z</time>
      </trkpt>
      <trkpt lat="45.93258" lon="4.72632">
        <ele>170</ele>
        <time>2018-01-05T09:47:41Z</time>
      </trkpt>
      <trkpt lat="45.93262" lon="4.72627">
        <ele>170</ele>
        <time>2018-01-05T09:47:42Z</time>
      </trkpt>
      <trkpt lat="45.93266" lon="4.7262">
        <ele>170</ele>
        <time>2018-01-05T09:47:43Z</time>
      </trkpt>
      <trkpt lat="45.93269" lon="4.72614">
        <ele>170</ele>
        <time>2018-01-05T09:47:44Z</time>
      </trkpt>
      <trkpt lat="45.93273" lon="4.72608">
        <ele>170</ele>
        <time>2018-01-05T09:47:45Z</time>
      </trkpt>
      <trkpt lat="45.93277" lon="4.72603">
        <ele>170</ele>
        <time>2018-01-05T09:47:46Z</time>
      </trkpt>
      <trkpt lat="45.93282" lon="4.72598">
        <ele>170</ele>
        <time>2018-01-05T09:47:47Z</time>
      </trkpt>
      <trkpt lat="45.93285" lon="4.72593">
        <ele>170</ele>
        <time>2018-01-05T09:47:48Z</time>
      </trkpt>
      <trkpt lat="45.93291" lon="4.72588">
        <ele>170</ele>
        <time>2018-01-05T09:47:49Z</time>
      </trkpt>
      <trkpt lat="45.93296" lon="4.72583">
        <ele>171</ele>
        <time>2018-01-05T09:47:50Z</time>
      </trkpt>
      <trkpt lat="45.93301" lon="4.72577">
        <ele>171</ele>
        <time>2018-01-05T09:47:51Z</time>
      </trkpt>
      <trkpt lat="45.93305" lon="4.72572">
        <ele>171</ele>
        <time>2018-01-05T09:47:52Z</time>
      </trkpt>
      <trkpt lat="45.93308" lon="4.72566">
        <ele>171</ele>
        <time>2018-01-05T09:47:53Z</time>
      </trkpt>
      <trkpt lat="45.93312" lon="4.72562">
        <ele>171</ele>
        <time>2018-01-05T09:47:54Z</time>
      </trkpt>
      <trkpt lat="45.93316" lon="4.72556">
        <ele>172</ele>
        <time>2018-01-05T09:47:55Z</time>
      </trkpt>
      <trkpt lat="45.93321" lon="4.72552">
        <ele>172</ele>
        <time>2018-01-05T09:47:56Z</time>
      </trkpt>
      <trkpt lat="45.93326" lon="4.72547">
        <ele>172</ele>
        <time>2018-01-05T09:47:57Z</time>
      </trkpt>
      <trkpt lat="45.93331" lon="4.72543">
        <ele>172</ele>
        <time>2018-01-05T09:47:58Z</time>
      </trkpt>
      <trkpt lat="45.93335" lon="4.72538">
        <ele>171</ele>
        <time>2018-01-05T09:47:59Z</time>
      </trkpt>
      <trkpt lat="45.93339" lon="4.72534">
        <ele>172</ele>
        <time>2018-01-05T09:48:00Z</time>
      </trkpt>
      <trkpt lat="45.93344" lon="4.72529">
        <ele>172</ele>
        <time>2018-01-05T09:48:01Z</time>
      </trkpt>
      <trkpt lat="45.93348" lon="4.72524">
        <ele>172</ele>
        <time>2018-01-05T09:48:02Z</time>
      </trkpt>
      <trkpt lat="45.93352" lon="4.7252">
        <ele>172</ele>
        <time>2018-01-05T09:48:03Z</time>
      </trkpt>
      <trkpt lat="45.93357" lon="4.72513">
        <ele>172</ele>
        <time>2018-01-05T09:48:04Z</time>
      </trkpt>
      <trkpt lat="45.93361" lon="4.72508">
        <ele>172</ele>
        <time>2018-01-05T09:48:05Z</time>
      </trkpt>
      <trkpt lat="45.93366" lon="4.72503">
        <ele>172</ele>
        <time>2018-01-05T09:48:06Z</time>
      </trkpt>
      <trkpt lat="45.9337" lon="4.72498">
        <ele>173</ele>
        <time>2018-01-05T09:48:07Z</time>
      </trkpt>
      <trkpt lat="45.93376" lon="4.72494">
        <ele>173</ele>
        <time>2018-01-05T09:48:08Z</time>
      </trkpt>
      <trkpt lat="45.9338" lon="4.72488">
        <ele>173</ele>
        <time>2018-01-05T09:48:09Z</time>
      </trkpt>
      <trkpt lat="45.93384" lon="4.72483">
        <ele>173</ele>
        <time>2018-01-05T09:48:10Z</time>
      </trkpt>
      <trkpt lat="45.93388" lon="4.72478">
        <ele>173</ele>
        <time>2018-01-05T09:48:11Z</time>
      </trkpt>
      <trkpt lat="45.93392" lon="4.72474">
        <ele>173</ele>
        <time>2018-01-05T09:48:12Z</time>
      </trkpt>
      <trkpt lat="45.93396" lon="4.7247">
        <ele>173</ele>
        <time>2018-01-05T09:48:13Z</time>
      </trkpt>
      <trkpt lat="45.934" lon="4.72461">
        <ele>173</ele>
        <time>2018-01-05T09:48:15Z</time>
      </trkpt>
      <trkpt lat="45.93402" lon="4.72455">
        <ele>173</ele>
        <time>2018-01-05T09:48:16Z</time>
      </trkpt>
      <trkpt lat="45.93404" lon="4.72448">
        <ele>173</ele>
        <time>2018-01-05T09:48:17Z</time>
      </trkpt>
      <trkpt lat="45.93405" lon="4.72442">
        <ele>173</ele>
        <time>2018-01-05T09:48:18Z</time>
      </trkpt>
      <trkpt lat="45.93408" lon="4.72436">
        <ele>173</ele>
        <time>2018-01-05T09:48:19Z</time>
      </trkpt>
      <trkpt lat="45.93411" lon="4.72429">
        <ele>174</ele>
        <time>2018-01-05T09:48:20Z</time>
      </trkpt>
      <trkpt lat="45.93414" lon="4.72424">
        <ele>174</ele>
        <time>2018-01-05T09:48:21Z</time>
      </trkpt>
      <trkpt lat="45.93417" lon="4.72419">
        <ele>174</ele>
        <time>2018-01-05T09:48:22Z</time>
      </trkpt>
      <trkpt lat="45.93422" lon="4.72415">
        <ele>174</ele>
        <time>2018-01-05T09:48:23Z</time>
      </trkpt>
      <trkpt lat="45.93427" lon="4.72412">
        <ele>174</ele>
        <time>2018-01-05T09:48:24Z</time>
      </trkpt>
      <trkpt lat="45.93432" lon="4.7241">
        <ele>174</ele>
        <time>2018-01-05T09:48:25Z</time>
      </trkpt>
      <trkpt lat="45.93436" lon="4.72407">
        <ele>174</ele>
        <time>2018-01-05T09:48:26Z</time>
      </trkpt>
      <trkpt lat="45.93441" lon="4.72404">
        <ele>173</ele>
        <time>2018-01-05T09:48:27Z</time>
      </trkpt>
      <trkpt lat="45.93446" lon="4.724">
        <ele>173</ele>
        <time>2018-01-05T09:48:28Z</time>
      </trkpt>
      <trkpt lat="45.93452" lon="4.72397">
        <ele>173</ele>
        <time>2018-01-05T09:48:29Z</time>
      </trkpt>
      <trkpt lat="45.93458" lon="4.72393">
        <ele>173</ele>
        <time>2018-01-05T09:48:30Z</time>
      </trkpt>
      <trkpt lat="45.93463" lon="4.72389">
        <ele>173</ele>
        <time>2018-01-05T09:48:31Z</time>
      </trkpt>
      <trkpt lat="45.93468" lon="4.72383">
        <ele>173</ele>
        <time>2018-01-05T09:48:32Z</time>
      </trkpt>
      <trkpt lat="45.93472" lon="4.72377">
        <ele>173</ele>
        <time>2018-01-05T09:48:33Z</time>
      </trkpt>
      <trkpt lat="45.93478" lon="4.72371">
        <ele>173</ele>
        <time>2018-01-05T09:48:34Z</time>
      </trkpt>
      <trkpt lat="45.93482" lon="4.72366">
        <ele>173</ele>
        <time>2018-01-05T09:48:35Z</time>
      </trkpt>
      <trkpt lat="45.93485" lon="4.7236">
        <ele>173</ele>
        <time>2018-01-05T09:48:36Z</time>
      </trkpt>
      <trkpt lat="45.9349" lon="4.72354">
        <ele>173</ele>
        <time>2018-01-05T09:48:37Z</time>
      </trkpt>
      <trkpt lat="45.93493" lon="4.72349">
        <ele>173</ele>
        <time>2018-01-05T09:48:38Z</time>
      </trkpt>
      <trkpt lat="45.93498" lon="4.72342">
        <ele>173</ele>
        <time>2018-01-05T09:48:39Z</time>
      </trkpt>
      <trkpt lat="45.93502" lon="4.72336">
        <ele>173</ele>
        <time>2018-01-05T09:48:40Z</time>
      </trkpt>
      <trkpt lat="45.93507" lon="4.7233">
        <ele>173</ele>
        <time>2018-01-05T09:48:41Z</time>
      </trkpt>
      <trkpt lat="45.9351" lon="4.72324">
        <ele>173</ele>
        <time>2018-01-05T09:48:42Z</time>
      </trkpt>
      <trkpt lat="45.93515" lon="4.72318">
        <ele>173</ele>
        <time>2018-01-05T09:48:43Z</time>
      </trkpt>
      <trkpt lat="45.93519" lon="4.72313">
        <ele>173</ele>
        <time>2018-01-05T09:48:44Z</time>
      </trkpt>
      <trkpt lat="45.93522" lon="4.72308">
        <ele>173</ele>
        <time>2018-01-05T09:48:45Z</time>
      </trkpt>
      <trkpt lat="45.93526" lon="4.72303">
        <ele>173</ele>
        <time>2018-01-05T09:48:46Z</time>
      </trkpt>
      <trkpt lat="45.93531" lon="4.72294">
        <ele>172</ele>
        <time>2018-01-05T09:48:48Z</time>
      </trkpt>
      <trkpt lat="45.93533" lon="4.72289">
        <ele>172</ele>
        <time>2018-01-05T09:48:49Z</time>
      </trkpt>
      <trkpt lat="45.93536" lon="4.72282">
        <ele>172</ele>
        <time>2018-01-05T09:48:50Z</time>
      </trkpt>
      <trkpt lat="45.93538" lon="4.72277">
        <ele>172</ele>
        <time>2018-01-05T09:48:51Z</time>
      </trkpt>
      <trkpt lat="45.93542" lon="4.72266">
        <ele>172</ele>
        <time>2018-01-05T09:48:53Z</time>
      </trkpt>
      <trkpt lat="45.93545" lon="4.7226">
        <ele>172</ele>
        <time>2018-01-05T09:48:54Z</time>
      </trkpt>
      <trkpt lat="45.93547" lon="4.72254">
        <ele>172</ele>
        <time>2018-01-05T09:48:55Z</time>
      </trkpt>
      <trkpt lat="45.9355" lon="4.72248">
        <ele>172</ele>
        <time>2018-01-05T09:48:56Z</time>
      </trkpt>
      <trkpt lat="45.93552" lon="4.72242">
        <ele>172</ele>
        <time>2018-01-05T09:48:57Z</time>
      </trkpt>
      <trkpt lat="45.93554" lon="4.72236">
        <ele>173</ele>
        <time>2018-01-05T09:48:58Z</time>
      </trkpt>
      <trkpt lat="45.93557" lon="4.7223">
        <ele>173</ele>
        <time>2018-01-05T09:48:59Z</time>
      </trkpt>
      <trkpt lat="45.93561" lon="4.72223">
        <ele>173</ele>
        <time>2018-01-05T09:49:00Z</time>
      </trkpt>
      <trkpt lat="45.93565" lon="4.72217">
        <ele>173</ele>
        <time>2018-01-05T09:49:01Z</time>
      </trkpt>
      <trkpt lat="45.93569" lon="4.72212">
        <ele>173</ele>
        <time>2018-01-05T09:49:02Z</time>
      </trkpt>
      <trkpt lat="45.93574" lon="4.72206">
        <ele>173</ele>
        <time>2018-01-05T09:49:03Z</time>
      </trkpt>
      <trkpt lat="45.93577" lon="4.72202">
        <ele>173</ele>
        <time>2018-01-05T09:49:04Z</time>
      </trkpt>
      <trkpt lat="45.93582" lon="4.72198">
        <ele>173</ele>
        <time>2018-01-05T09:49:05Z</time>
      </trkpt>
      <trkpt lat="45.93587" lon="4.72195">
        <ele>173</ele>
        <time>2018-01-05T09:49:06Z</time>
      </trkpt>
      <trkpt lat="45.93592" lon="4.72191">
        <ele>173</ele>
        <time>2018-01-05T09:49:07Z</time>
      </trkpt>
      <trkpt lat="45.93597" lon="4.72187">
        <ele>173</ele>
        <time>2018-01-05T09:49:08Z</time>
      </trkpt>
      <trkpt lat="45.93601" lon="4.72184">
        <ele>173</ele>
        <time>2018-01-05T09:49:09Z</time>
      </trkpt>
      <trkpt lat="45.93605" lon="4.7218">
        <ele>173</ele>
        <time>2018-01-05T09:49:10Z</time>
      </trkpt>
      <trkpt lat="45.93611" lon="4.72174">
        <ele>173</ele>
        <time>2018-01-05T09:49:11Z</time>
      </trkpt>
      <trkpt lat="45.93615" lon="4.72171">
        <ele>173</ele>
        <time>2018-01-05T09:49:12Z</time>
      </trkpt>
      <trkpt lat="45.93618" lon="4.72171">
        <ele>173</ele>
        <time>2018-01-05T09:49:14Z</time>
      </trkpt>
      <trkpt lat="45.93625" lon="4.7216">
        <ele>173</ele>
        <time>2018-01-05T09:49:15Z</time>
      </trkpt>
      <trkpt lat="45.93631" lon="4.72154">
        <ele>173</ele>
        <time>2018-01-05T09:49:16Z</time>
      </trkpt>
      <trkpt lat="45.93635" lon="4.72147">
        <ele>173</ele>
        <time>2018-01-05T09:49:17Z</time>
      </trkpt>
      <trkpt lat="45.9364" lon="4.72141">
        <ele>173</ele>
        <time>2018-01-05T09:49:18Z</time>
      </trkpt>
      <trkpt lat="45.93645" lon="4.72136">
        <ele>173</ele>
        <time>2018-01-05T09:49:19Z</time>
      </trkpt>
      <trkpt lat="45.93649" lon="4.7213">
        <ele>173</ele>
        <time>2018-01-05T09:49:20Z</time>
      </trkpt>
      <trkpt lat="45.93649" lon="4.72124">
        <ele>173</ele>
        <time>2018-01-05T09:49:21Z</time>
      </trkpt>
      <trkpt lat="45.93651" lon="4.72117">
        <ele>173</ele>
        <time>2018-01-05T09:49:22Z</time>
      </trkpt>
      <trkpt lat="45.93654" lon="4.7211">
        <ele>173</ele>
        <time>2018-01-05T09:49:23Z</time>
      </trkpt>
      <trkpt lat="45.93658" lon="4.72103">
        <ele>173</ele>
        <time>2018-01-05T09:49:24Z</time>
      </trkpt>
      <trkpt lat="45.93662" lon="4.72095">
        <ele>173</ele>
        <time>2018-01-05T09:49:25Z</time>
      </trkpt>
      <trkpt lat="45.93665" lon="4.72088">
        <ele>172</ele>
        <time>2018-01-05T09:49:26Z</time>
      </trkpt>
      <trkpt lat="45.93669" lon="4.72083">
        <ele>172</ele>
        <time>2018-01-05T09:49:27Z</time>
      </trkpt>
      <trkpt lat="45.93673" lon="4.72076">
        <ele>172</ele>
        <time>2018-01-05T09:49:28Z</time>
      </trkpt>
      <trkpt lat="45.93679" lon="4.72069">
        <ele>172</ele>
        <time>2018-01-05T09:49:29Z</time>
      </trkpt>
      <trkpt lat="45.93683" lon="4.72063">
        <ele>172</ele>
        <time>2018-01-05T09:49:30Z</time>
      </trkpt>
      <trkpt lat="45.93687" lon="4.72055">
        <ele>172</ele>
        <time>2018-01-05T09:49:31Z</time>
      </trkpt>
      <trkpt lat="45.93693" lon="4.72049">
        <ele>172</ele>
        <time>2018-01-05T09:49:32Z</time>
      </trkpt>
      <trkpt lat="45.93695" lon="4.72042">
        <ele>173</ele>
        <time>2018-01-05T09:49:33Z</time>
      </trkpt>
      <trkpt lat="45.93699" lon="4.72035">
        <ele>172</ele>
        <time>2018-01-05T09:49:34Z</time>
      </trkpt>
      <trkpt lat="45.93702" lon="4.72028">
        <ele>172</ele>
        <time>2018-01-05T09:49:35Z</time>
      </trkpt>
      <trkpt lat="45.93707" lon="4.72022">
        <ele>172</ele>
        <time>2018-01-05T09:49:36Z</time>
      </trkpt>
      <trkpt lat="45.9371" lon="4.72015">
        <ele>172</ele>
        <time>2018-01-05T09:49:37Z</time>
      </trkpt>
      <trkpt lat="45.93714" lon="4.72009">
        <ele>172</ele>
        <time>2018-01-05T09:49:38Z</time>
      </trkpt>
      <trkpt lat="45.93717" lon="4.72002">
        <ele>172</ele>
        <time>2018-01-05T09:49:39Z</time>
      </trkpt>
      <trkpt lat="45.93722" lon="4.71993">
        <ele>172</ele>
        <time>2018-01-05T09:49:40Z</time>
      </trkpt>
      <trkpt lat="45.93725" lon="4.71987">
        <ele>172</ele>
        <time>2018-01-05T09:49:41Z</time>
      </trkpt>
      <trkpt lat="45.9373" lon="4.7198">
        <ele>172</ele>
        <time>2018-01-05T09:49:42Z</time>
      </trkpt>
      <trkpt lat="45.93734" lon="4.71973">
        <ele>172</ele>
        <time>2018-01-05T09:49:43Z</time>
      </trkpt>
      <trkpt lat="45.93739" lon="4.71967">
        <ele>172</ele>
        <time>2018-01-05T09:49:44Z</time>
      </trkpt>
      <trkpt lat="45.93742" lon="4.71963">
        <ele>172</ele>
        <time>2018-01-05T09:49:45Z</time>
      </trkpt>
      <trkpt lat="45.9375" lon="4.7196">
        <ele>172</ele>
        <time>2018-01-05T09:49:48Z</time>
      </trkpt>
      <trkpt lat="45.93752" lon="4.7196">
        <ele>171</ele>
        <time>2018-01-05T09:49:49Z</time>
      </trkpt>
      <trkpt lat="45.93759" lon="4.71955">
        <ele>171</ele>
        <time>2018-01-05T09:49:53Z</time>
      </trkpt>
      <trkpt lat="45.93762" lon="4.71953">
        <ele>171</ele>
        <time>2018-01-05T09:49:54Z</time>
      </trkpt>
      <trkpt lat="45.93766" lon="4.71946">
        <ele>171</ele>
        <time>2018-01-05T09:49:56Z</time>
      </trkpt>
      <trkpt lat="45.93769" lon="4.71943">
        <ele>171</ele>
        <time>2018-01-05T09:49:57Z</time>
      </trkpt>
      <trkpt lat="45.93773" lon="4.71936">
        <ele>171</ele>
        <time>2018-01-05T09:49:59Z</time>
      </trkpt>
      <trkpt lat="45.93776" lon="4.71932">
        <ele>171</ele>
        <time>2018-01-05T09:50:00Z</time>
      </trkpt>
      <trkpt lat="45.9378" lon="4.71923">
        <ele>171</ele>
        <time>2018-01-05T09:50:02Z</time>
      </trkpt>
      <trkpt lat="45.93782" lon="4.71917">
        <ele>171</ele>
        <time>2018-01-05T09:50:03Z</time>
      </trkpt>
      <trkpt lat="45.93785" lon="4.71908">
        <ele>171</ele>
        <time>2018-01-05T09:50:04Z</time>
      </trkpt>
      <trkpt lat="45.93788" lon="4.71902">
        <ele>171</ele>
        <time>2018-01-05T09:50:05Z</time>
      </trkpt>
      <trkpt lat="45.93788" lon="4.71895">
        <ele>172</ele>
        <time>2018-01-05T09:50:06Z</time>
      </trkpt>
      <trkpt lat="45.93789" lon="4.71889">
        <ele>172</ele>
        <time>2018-01-05T09:50:07Z</time>
      </trkpt>
      <trkpt lat="45.93792" lon="4.71882">
        <ele>172</ele>
        <time>2018-01-05T09:50:08Z</time>
      </trkpt>
      <trkpt lat="45.93795" lon="4.71877">
        <ele>172</ele>
        <time>2018-01-05T09:50:09Z</time>
      </trkpt>
      <trkpt lat="45.93801" lon="4.71869">
        <ele>172</ele>
        <time>2018-01-05T09:50:10Z</time>
      </trkpt>
      <trkpt lat="45.93804" lon="4.71862">
        <ele>172</ele>
        <time>2018-01-05T09:50:11Z</time>
      </trkpt>
      <trkpt lat="45.93807" lon="4.71856">
        <ele>172</ele>
        <time>2018-01-05T09:50:12Z</time>
      </trkpt>
      <trkpt lat="45.93809" lon="4.7185">
        <ele>172</ele>
        <time>2018-01-05T09:50:13Z</time>
      </trkpt>
      <trkpt lat="45.93813" lon="4.71844">
        <ele>172</ele>
        <time>2018-01-05T09:50:14Z</time>
      </trkpt>
      <trkpt lat="45.93817" lon="4.71836">
        <ele>172</ele>
        <time>2018-01-05T09:50:15Z</time>
      </trkpt>
      <trkpt lat="45.93822" lon="4.71826">
        <ele>173</ele>
        <time>2018-01-05T09:50:17Z</time>
      </trkpt>
      <trkpt lat="45.93827" lon="4.71819">
        <ele>173</ele>
        <time>2018-01-05T09:50:18Z</time>
      </trkpt>
      <trkpt lat="45.9383" lon="4.71813">
        <ele>173</ele>
        <time>2018-01-05T09:50:19Z</time>
      </trkpt>
      <trkpt lat="45.93834" lon="4.71807">
        <ele>172</ele>
        <time>2018-01-05T09:50:20Z</time>
      </trkpt>
      <trkpt lat="45.93837" lon="4.71799">
        <ele>173</ele>
        <time>2018-01-05T09:50:21Z</time>
      </trkpt>
      <trkpt lat="45.93841" lon="4.71792">
        <ele>173</ele>
        <time>2018-01-05T09:50:22Z</time>
      </trkpt>
      <trkpt lat="45.93845" lon="4.71787">
        <ele>173</ele>
        <time>2018-01-05T09:50:23Z</time>
      </trkpt>
      <trkpt lat="45.93849" lon="4.71781">
        <ele>173</ele>
        <time>2018-01-05T09:50:24Z</time>
      </trkpt>
      <trkpt lat="45.93853" lon="4.71776">
        <ele>173</ele>
        <time>2018-01-05T09:50:25Z</time>
      </trkpt>
      <trkpt lat="45.93857" lon="4.71769">
        <ele>173</ele>
        <time>2018-01-05T09:50:26Z</time>
      </trkpt>
      <trkpt lat="45.93862" lon="4.71764">
        <ele>173</ele>
        <time>2018-01-05T09:50:27Z</time>
      </trkpt>
      <trkpt lat="45.93866" lon="4.71759">
        <ele>173</ele>
        <time>2018-01-05T09:50:28Z</time>
      </trkpt>
      <trkpt lat="45.9387" lon="4.71752">
        <ele>173</ele>
        <time>2018-01-05T09:50:29Z</time>
      </trkpt>
      <trkpt lat="45.93874" lon="4.71746">
        <ele>174</ele>
        <time>2018-01-05T09:50:30Z</time>
      </trkpt>
      <trkpt lat="45.93878" lon="4.7174">
        <ele>174</ele>
        <time>2018-01-05T09:50:31Z</time>
      </trkpt>
      <trkpt lat="45.93882" lon="4.71735">
        <ele>174</ele>
        <time>2018-01-05T09:50:32Z</time>
      </trkpt>
      <trkpt lat="45.93888" lon="4.71729">
        <ele>174</ele>
        <time>2018-01-05T09:50:33Z</time>
      </trkpt>
      <trkpt lat="45.93892" lon="4.71724">
        <ele>174</ele>
        <time>2018-01-05T09:50:34Z</time>
      </trkpt>
      <trkpt lat="45.93897" lon="4.7172">
        <ele>174</ele>
        <time>2018-01-05T09:50:35Z</time>
      </trkpt>
      <trkpt lat="45.93901" lon="4.71715">
        <ele>174</ele>
        <time>2018-01-05T09:50:36Z</time>
      </trkpt>
      <trkpt lat="45.93905" lon="4.7171">
        <ele>174</ele>
        <time>2018-01-05T09:50:37Z</time>
      </trkpt>
      <trkpt lat="45.9391" lon="4.71704">
        <ele>174</ele>
        <time>2018-01-05T09:50:38Z</time>
      </trkpt>
      <trkpt lat="45.93914" lon="4.71701">
        <ele>174</ele>
        <time>2018-01-05T09:50:39Z</time>
      </trkpt>
      <trkpt lat="45.93918" lon="4.71698">
        <ele>174</ele>
        <time>2018-01-05T09:50:40Z</time>
      </trkpt>
      <trkpt lat="45.93923" lon="4.71696">
        <ele>174</ele>
        <time>2018-01-05T09:50:41Z</time>
      </trkpt>
      <trkpt lat="45.93929" lon="4.71694">
        <ele>174</ele>
        <time>2018-01-05T09:50:42Z</time>
      </trkpt>
      <trkpt lat="45.93934" lon="4.71692">
        <ele>175</ele>
        <time>2018-01-05T09:50:43Z</time>
      </trkpt>
      <trkpt lat="45.9394" lon="4.71689">
        <ele>175</ele>
        <time>2018-01-05T09:50:44Z</time>
      </trkpt>
      <trkpt lat="45.93945" lon="4.71686">
        <ele>175</ele>
        <time>2018-01-05T09:50:45Z</time>
      </trkpt>
      <trkpt lat="45.9395" lon="4.71684">
        <ele>175</ele>
        <time>2018-01-05T09:50:46Z</time>
      </trkpt>
      <trkpt lat="45.93955" lon="4.71682">
        <ele>175</ele>
        <time>2018-01-05T09:50:47Z</time>
      </trkpt>
      <trkpt lat="45.9396" lon="4.7168">
        <ele>175</ele>
        <time>2018-01-05T09:50:48Z</time>
      </trkpt>
      <trkpt lat="45.93966" lon="4.71678">
        <ele>175</ele>
        <time>2018-01-05T09:50:49Z</time>
      </trkpt>
      <trkpt lat="45.93974" lon="4.71677">
        <ele>175</ele>
        <time>2018-01-05T09:50:50Z</time>
      </trkpt>
      <trkpt lat="45.93979" lon="4.71676">
        <ele>176</ele>
        <time>2018-01-05T09:50:51Z</time>
      </trkpt>
      <trkpt lat="45.93982" lon="4.71672">
        <ele>176</ele>
        <time>2018-01-05T09:50:52Z</time>
      </trkpt>
      <trkpt lat="45.93987" lon="4.71668">
        <ele>176</ele>
        <time>2018-01-05T09:50:53Z</time>
      </trkpt>
      <trkpt lat="45.93991" lon="4.71667">
        <ele>176</ele>
        <time>2018-01-05T09:50:54Z</time>
      </trkpt>
      <trkpt lat="45.93998" lon="4.71672">
        <ele>176</ele>
        <time>2018-01-05T09:50:56Z</time>
      </trkpt>
      <trkpt lat="45.93999" lon="4.71676">
        <ele>176</ele>
        <time>2018-01-05T09:50:57Z</time>
      </trkpt>
      <trkpt lat="45.94004" lon="4.71678">
        <ele>176</ele>
        <time>2018-01-05T09:50:58Z</time>
      </trkpt>
      <trkpt lat="45.94009" lon="4.71678">
        <ele>176</ele>
        <time>2018-01-05T09:50:59Z</time>
      </trkpt>
      <trkpt lat="45.94013" lon="4.71677">
        <ele>176</ele>
        <time>2018-01-05T09:51:00Z</time>
      </trkpt>
      <trkpt lat="45.94017" lon="4.71672">
        <ele>176</ele>
        <time>2018-01-05T09:51:01Z</time>
      </trkpt>
      <trkpt lat="45.9402" lon="4.71666">
        <ele>176</ele>
        <time>2018-01-05T09:51:02Z</time>
      </trkpt>
      <trkpt lat="45.94024" lon="4.71659">
        <ele>175</ele>
        <time>2018-01-05T09:51:03Z</time>
      </trkpt>
      <trkpt lat="45.94028" lon="4.71653">
        <ele>175</ele>
        <time>2018-01-05T09:51:04Z</time>
      </trkpt>
      <trkpt lat="45.94033" lon="4.71649">
        <ele>175</ele>
        <time>2018-01-05T09:51:05Z</time>
      </trkpt>
      <trkpt lat="45.9404" lon="4.71646">
        <ele>175</ele>
        <time>2018-01-05T09:51:06Z</time>
      </trkpt>
      <trkpt lat="45.94045" lon="4.71644">
        <ele>175</ele>
        <time>2018-01-05T09:51:07Z</time>
      </trkpt>
      <trkpt lat="45.94052" lon="4.71641">
        <ele>175</ele>
        <time>2018-01-05T09:51:08Z</time>
      </trkpt>
      <trkpt lat="45.94058" lon="4.71638">
        <ele>174</ele>
        <time>2018-01-05T09:51:09Z</time>
      </trkpt>
      <trkpt lat="45.94065" lon="4.71636">
        <ele>174</ele>
        <time>2018-01-05T09:51:10Z</time>
      </trkpt>
      <trkpt lat="45.9407" lon="4.71634">
        <ele>174</ele>
        <time>2018-01-05T09:51:11Z</time>
      </trkpt>
      <trkpt lat="45.94076" lon="4.71631">
        <ele>174</ele>
        <time>2018-01-05T09:51:12Z</time>
      </trkpt>
      <trkpt lat="45.94081" lon="4.71629">
        <ele>174</ele>
        <time>2018-01-05T09:51:13Z</time>
      </trkpt>
      <trkpt lat="45.94088" lon="4.71626">
        <ele>173</ele>
        <time>2018-01-05T09:51:14Z</time>
      </trkpt>
      <trkpt lat="45.94093" lon="4.71624">
        <ele>173</ele>
        <time>2018-01-05T09:51:15Z</time>
      </trkpt>
      <trkpt lat="45.94099" lon="4.71623">
        <ele>173</ele>
        <time>2018-01-05T09:51:16Z</time>
      </trkpt>
      <trkpt lat="45.94106" lon="4.71619">
        <ele>173</ele>
        <time>2018-01-05T09:51:17Z</time>
      </trkpt>
      <trkpt lat="45.94112" lon="4.71618">
        <ele>173</ele>
        <time>2018-01-05T09:51:18Z</time>
      </trkpt>
      <trkpt lat="45.94119" lon="4.71616">
        <ele>173</ele>
        <time>2018-01-05T09:51:19Z</time>
      </trkpt>
      <trkpt lat="45.94125" lon="4.71614">
        <ele>173</ele>
        <time>2018-01-05T09:51:20Z</time>
      </trkpt>
      <trkpt lat="45.94131" lon="4.71613">
        <ele>173</ele>
        <time>2018-01-05T09:51:21Z</time>
      </trkpt>
      <trkpt lat="45.94137" lon="4.71609">
        <ele>173</ele>
        <time>2018-01-05T09:51:22Z</time>
      </trkpt>
      <trkpt lat="45.94143" lon="4.71606">
        <ele>173</ele>
        <time>2018-01-05T09:51:23Z</time>
      </trkpt>
      <trkpt lat="45.94149" lon="4.71603">
        <ele>173</ele>
        <time>2018-01-05T09:51:24Z</time>
      </trkpt>
      <trkpt lat="45.94156" lon="4.71601">
        <ele>173</ele>
        <time>2018-01-05T09:51:25Z</time>
      </trkpt>
      <trkpt lat="45.94162" lon="4.71599">
        <ele>173</ele>
        <time>2018-01-05T09:51:26Z</time>
      </trkpt>
      <trkpt lat="45.94166" lon="4.71596">
        <ele>173</ele>
        <time>2018-01-05T09:51:27Z</time>
      </trkpt>
      <trkpt lat="45.94172" lon="4.71593">
        <ele>174</ele>
        <time>2018-01-05T09:51:28Z</time>
      </trkpt>
      <trkpt lat="45.94176" lon="4.71592">
        <ele>173</ele>
        <time>2018-01-05T09:51:29Z</time>
      </trkpt>
      <trkpt lat="45.94181" lon="4.7159">
        <ele>173</ele>
        <time>2018-01-05T09:51:30Z</time>
      </trkpt>
      <trkpt lat="45.94186" lon="4.71589">
        <ele>173</ele>
        <time>2018-01-05T09:51:31Z</time>
      </trkpt>
      <trkpt lat="45.94191" lon="4.71588">
        <ele>173</ele>
        <time>2018-01-05T09:51:32Z</time>
      </trkpt>
      <trkpt lat="45.94196" lon="4.71587">
        <ele>173</ele>
        <time>2018-01-05T09:51:33Z</time>
      </trkpt>
      <trkpt lat="45.94202" lon="4.71585">
        <ele>173</ele>
        <time>2018-01-05T09:51:34Z</time>
      </trkpt>
      <trkpt lat="45.94207" lon="4.71584">
        <ele>173</ele>
        <time>2018-01-05T09:51:35Z</time>
      </trkpt>
      <trkpt lat="45.94211" lon="4.71581">
        <ele>174</ele>
        <time>2018-01-05T09:51:36Z</time>
      </trkpt>
      <trkpt lat="45.94216" lon="4.71579">
        <ele>174</ele>
        <time>2018-01-05T09:51:37Z</time>
      </trkpt>
      <trkpt lat="45.94222" lon="4.71577">
        <ele>174</ele>
        <time>2018-01-05T09:51:38Z</time>
      </trkpt>
      <trkpt lat="45.94227" lon="4.71576">
        <ele>174</ele>
        <time>2018-01-05T09:51:39Z</time>
      </trkpt>
      <trkpt lat="45.94232" lon="4.71574">
        <ele>174</ele>
        <time>2018-01-05T09:51:40Z</time>
      </trkpt>
      <trkpt lat="45.94237" lon="4.71572">
        <ele>174</ele>
        <time>2018-01-05T09:51:41Z</time>
      </trkpt>
      <trkpt lat="45.94242" lon="4.7157">
        <ele>174</ele>
        <time>2018-01-05T09:51:42Z</time>
      </trkpt>
      <trkpt lat="45.94246" lon="4.71567">
        <ele>174</ele>
        <time>2018-01-05T09:51:43Z</time>
      </trkpt>
      <trkpt lat="45.94252" lon="4.71566">
        <ele>175</ele>
        <time>2018-01-05T09:51:44Z</time>
      </trkpt>
      <trkpt lat="45.94257" lon="4.71564">
        <ele>175</ele>
        <time>2018-01-05T09:51:45Z</time>
      </trkpt>
      <trkpt lat="45.94262" lon="4.71561">
        <ele>175</ele>
        <time>2018-01-05T09:51:46Z</time>
      </trkpt>
      <trkpt lat="45.94268" lon="4.7156">
        <ele>175</ele>
        <time>2018-01-05T09:51:47Z</time>
      </trkpt>
      <trkpt lat="45.94273" lon="4.71557">
        <ele>175</ele>
        <time>2018-01-05T09:51:48Z</time>
      </trkpt>
      <trkpt lat="45.94278" lon="4.71556">
        <ele>175</ele>
        <time>2018-01-05T09:51:49Z</time>
      </trkpt>
      <trkpt lat="45.94283" lon="4.71553">
        <ele>175</ele>
        <time>2018-01-05T09:51:50Z</time>
      </trkpt>
      <trkpt lat="45.9429" lon="4.71553">
        <ele>175</ele>
        <time>2018-01-05T09:51:51Z</time>
      </trkpt>
      <trkpt lat="45.94295" lon="4.71549">
        <ele>175</ele>
        <time>2018-01-05T09:51:52Z</time>
      </trkpt>
      <trkpt lat="45.943" lon="4.71546">
        <ele>175</ele>
        <time>2018-01-05T09:51:53Z</time>
      </trkpt>
      <trkpt lat="45.94305" lon="4.71543">
        <ele>175</ele>
        <time>2018-01-05T09:51:54Z</time>
      </trkpt>
      <trkpt lat="45.94311" lon="4.71541">
        <ele>175</ele>
        <time>2018-01-05T09:51:55Z</time>
      </trkpt>
      <trkpt lat="45.94315" lon="4.7154">
        <ele>175</ele>
        <time>2018-01-05T09:51:56Z</time>
      </trkpt>
      <trkpt lat="45.9432" lon="4.71537">
        <ele>175</ele>
        <time>2018-01-05T09:51:57Z</time>
      </trkpt>
      <trkpt lat="45.94325" lon="4.71537">
        <ele>176</ele>
        <time>2018-01-05T09:51:58Z</time>
      </trkpt>
      <trkpt lat="45.9433" lon="4.71535">
        <ele>176</ele>
        <time>2018-01-05T09:51:59Z</time>
      </trkpt>
      <trkpt lat="45.94335" lon="4.71533">
        <ele>176</ele>
        <time>2018-01-05T09:52:00Z</time>
      </trkpt>
      <trkpt lat="45.9434" lon="4.7153">
        <ele>176</ele>
        <time>2018-01-05T09:52:01Z</time>
      </trkpt>
      <trkpt lat="45.94341" lon="4.71531">
        <ele>176</ele>
        <time>2018-01-05T09:52:02Z</time>
      </trkpt>
      <trkpt lat="45.94349" lon="4.71528">
        <ele>176</ele>
        <time>2018-01-05T09:52:03Z</time>
      </trkpt>
      <trkpt lat="45.94354" lon="4.71526">
        <ele>176</ele>
        <time>2018-01-05T09:52:04Z</time>
      </trkpt>
      <trkpt lat="45.94361" lon="4.71525">
        <ele>176</ele>
        <time>2018-01-05T09:52:05Z</time>
      </trkpt>
      <trkpt lat="45.94366" lon="4.71523">
        <ele>176</ele>
        <time>2018-01-05T09:52:06Z</time>
      </trkpt>
      <trkpt lat="45.94371" lon="4.71519">
        <ele>176</ele>
        <time>2018-01-05T09:52:07Z</time>
      </trkpt>
      <trkpt lat="45.94377" lon="4.71517">
        <ele>176</ele>
        <time>2018-01-05T09:52:08Z</time>
      </trkpt>
      <trkpt lat="45.94382" lon="4.71516">
        <ele>177</ele>
        <time>2018-01-05T09:52:09Z</time>
      </trkpt>
      <trkpt lat="45.94388" lon="4.71514">
        <ele>177</ele>
        <time>2018-01-05T09:52:10Z</time>
      </trkpt>
      <trkpt lat="45.94393" lon="4.71511">
        <ele>177</ele>
        <time>2018-01-05T09:52:11Z</time>
      </trkpt>
      <trkpt lat="45.94397" lon="4.7151">
        <ele>177</ele>
        <time>2018-01-05T09:52:12Z</time>
      </trkpt>
      <trkpt lat="45.94403" lon="4.71509">
        <ele>177</ele>
        <time>2018-01-05T09:52:13Z</time>
      </trkpt>
      <trkpt lat="45.94407" lon="4.71505">
        <ele>177</ele>
        <time>2018-01-05T09:52:14Z</time>
      </trkpt>
      <trkpt lat="45.94412" lon="4.71502">
        <ele>178</ele>
        <time>2018-01-05T09:52:15Z</time>
      </trkpt>
      <trkpt lat="45.94417" lon="4.715">
        <ele>178</ele>
        <time>2018-01-05T09:52:16Z</time>
      </trkpt>
      <trkpt lat="45.94422" lon="4.71497">
        <ele>178</ele>
        <time>2018-01-05T09:52:17Z</time>
      </trkpt>
      <trkpt lat="45.94427" lon="4.71493">
        <ele>178</ele>
        <time>2018-01-05T09:52:18Z</time>
      </trkpt>
      <trkpt lat="45.94432" lon="4.71491">
        <ele>178</ele>
        <time>2018-01-05T09:52:19Z</time>
      </trkpt>
      <trkpt lat="45.94437" lon="4.71488">
        <ele>178</ele>
        <time>2018-01-05T09:52:20Z</time>
      </trkpt>
      <trkpt lat="45.94443" lon="4.71486">
        <ele>179</ele>
        <time>2018-01-05T09:52:21Z</time>
      </trkpt>
      <trkpt lat="45.94448" lon="4.71486">
        <ele>179</ele>
        <time>2018-01-05T09:52:22Z</time>
      </trkpt>
      <trkpt lat="45.94453" lon="4.71484">
        <ele>179</ele>
        <time>2018-01-05T09:52:23Z</time>
      </trkpt>
      <trkpt lat="45.94457" lon="4.71483">
        <ele>179</ele>
        <time>2018-01-05T09:52:24Z</time>
      </trkpt>
      <trkpt lat="45.94462" lon="4.7148">
        <ele>179</ele>
        <time>2018-01-05T09:52:25Z</time>
      </trkpt>
      <trkpt lat="45.94467" lon="4.71478">
        <ele>179</ele>
        <time>2018-01-05T09:52:26Z</time>
      </trkpt>
      <trkpt lat="45.94472" lon="4.71476">
        <ele>179</ele>
        <time>2018-01-05T09:52:27Z</time>
      </trkpt>
      <trkpt lat="45.94478" lon="4.71475">
        <ele>179</ele>
        <time>2018-01-05T09:52:28Z</time>
      </trkpt>
      <trkpt lat="45.94484" lon="4.71472">
        <ele>179</ele>
        <time>2018-01-05T09:52:29Z</time>
      </trkpt>
      <trkpt lat="45.94489" lon="4.7147">
        <ele>179</ele>
        <time>2018-01-05T09:52:30Z</time>
      </trkpt>
      <trkpt lat="45.94496" lon="4.71469">
        <ele>179</ele>
        <time>2018-01-05T09:52:31Z</time>
      </trkpt>
      <trkpt lat="45.94501" lon="4.71467">
        <ele>179</ele>
        <time>2018-01-05T09:52:32Z</time>
      </trkpt>
      <trkpt lat="45.94507" lon="4.71465">
        <ele>179</ele>
        <time>2018-01-05T09:52:33Z</time>
      </trkpt>
      <trkpt lat="45.94511" lon="4.71463">
        <ele>180</ele>
        <time>2018-01-05T09:52:34Z</time>
      </trkpt>
      <trkpt lat="45.94516" lon="4.71461">
        <ele>180</ele>
        <time>2018-01-05T09:52:35Z</time>
      </trkpt>
      <trkpt lat="45.9452" lon="4.71459">
        <ele>180</ele>
        <time>2018-01-05T09:52:36Z</time>
      </trkpt>
      <trkpt lat="45.94526" lon="4.71457">
        <ele>180</ele>
        <time>2018-01-05T09:52:37Z</time>
      </trkpt>
      <trkpt lat="45.94531" lon="4.71455">
        <ele>180</ele>
        <time>2018-01-05T09:52:38Z</time>
      </trkpt>
      <trkpt lat="45.94537" lon="4.71453">
        <ele>180</ele>
        <time>2018-01-05T09:52:39Z</time>
      </trkpt>
      <trkpt lat="45.94542" lon="4.71452">
        <ele>180</ele>
        <time>2018-01-05T09:52:40Z</time>
      </trkpt>
      <trkpt lat="45.94546" lon="4.71451">
        <ele>180</ele>
        <time>2018-01-05T09:52:41Z</time>
      </trkpt>
      <trkpt lat="45.9455" lon="4.71449">
        <ele>180</ele>
        <time>2018-01-05T09:52:42Z</time>
      </trkpt>
      <trkpt lat="45.94555" lon="4.71448">
        <ele>181</ele>
        <time>2018-01-05T09:52:43Z</time>
      </trkpt>
      <trkpt lat="45.94564" lon="4.71446">
        <ele>181</ele>
        <time>2018-01-05T09:52:45Z</time>
      </trkpt>
      <trkpt lat="45.94568" lon="4.71444">
        <ele>181</ele>
        <time>2018-01-05T09:52:46Z</time>
      </trkpt>
      <trkpt lat="45.94576" lon="4.71443">
        <ele>181</ele>
        <time>2018-01-05T09:52:48Z</time>
      </trkpt>
      <trkpt lat="45.94581" lon="4.71442">
        <ele>182</ele>
        <time>2018-01-05T09:52:49Z</time>
      </trkpt>
      <trkpt lat="45.94589" lon="4.71441">
        <ele>182</ele>
        <time>2018-01-05T09:52:51Z</time>
      </trkpt>
      <trkpt lat="45.94594" lon="4.71441">
        <ele>182</ele>
        <time>2018-01-05T09:52:52Z</time>
      </trkpt>
      <trkpt lat="45.94599" lon="4.71441">
        <ele>182</ele>
        <time>2018-01-05T09:52:53Z</time>
      </trkpt>
      <trkpt lat="45.94604" lon="4.71441">
        <ele>182</ele>
        <time>2018-01-05T09:52:54Z</time>
      </trkpt>
      <trkpt lat="45.94613" lon="4.71442">
        <ele>181</ele>
        <time>2018-01-05T09:52:56Z</time>
      </trkpt>
      <trkpt lat="45.94617" lon="4.71443">
        <ele>181</ele>
        <time>2018-01-05T09:52:57Z</time>
      </trkpt>
      <trkpt lat="45.94621" lon="4.71443">
        <ele>181</ele>
        <time>2018-01-05T09:52:58Z</time>
      </trkpt>
      <trkpt lat="45.94626" lon="4.71443">
        <ele>181</ele>
        <time>2018-01-05T09:52:59Z</time>
      </trkpt>
      <trkpt lat="45.94631" lon="4.71444">
        <ele>181</ele>
        <time>2018-01-05T09:53:00Z</time>
      </trkpt>
      <trkpt lat="45.94636" lon="4.71444">
        <ele>181</ele>
        <time>2018-01-05T09:53:01Z</time>
      </trkpt>
      <trkpt lat="45.94641" lon="4.71445">
        <ele>181</ele>
        <time>2018-01-05T09:53:02Z</time>
      </trkpt>
      <trkpt lat="45.94646" lon="4.71446">
        <ele>181</ele>
        <time>2018-01-05T09:53:03Z</time>
      </trkpt>
      <trkpt lat="45.94655" lon="4.71446">
        <ele>181</ele>
        <time>2018-01-05T09:53:05Z</time>
      </trkpt>
      <trkpt lat="45.94659" lon="4.71446">
        <ele>181</ele>
        <time>2018-01-05T09:53:06Z</time>
      </trkpt>
      <trkpt lat="45.94668" lon="4.71447">
        <ele>182</ele>
        <time>2018-01-05T09:53:08Z</time>
      </trkpt>
      <trkpt lat="45.94673" lon="4.71447">
        <ele>182</ele>
        <time>2018-01-05T09:53:09Z</time>
      </trkpt>
      <trkpt lat="45.94678" lon="4.71448">
        <ele>182</ele>
        <time>2018-01-05T09:53:10Z</time>
      </trkpt>
      <trkpt lat="45.94682" lon="4.71448">
        <ele>182</ele>
        <time>2018-01-05T09:53:11Z</time>
      </trkpt>
      <trkpt lat="45.94687" lon="4.71449">
        <ele>182</ele>
        <time>2018-01-05T09:53:12Z</time>
      </trkpt>
      <trkpt lat="45.94692" lon="4.71449">
        <ele>182</ele>
        <time>2018-01-05T09:53:13Z</time>
      </trkpt>
      <trkpt lat="45.94696" lon="4.7145">
        <ele>182</ele>
        <time>2018-01-05T09:53:14Z</time>
      </trkpt>
      <trkpt lat="45.94702" lon="4.71451">
        <ele>182</ele>
        <time>2018-01-05T09:53:15Z</time>
      </trkpt>
      <trkpt lat="45.94707" lon="4.71451">
        <ele>182</ele>
        <time>2018-01-05T09:53:16Z</time>
      </trkpt>
      <trkpt lat="45.94712" lon="4.71452">
        <ele>182</ele>
        <time>2018-01-05T09:53:17Z</time>
      </trkpt>
      <trkpt lat="45.94717" lon="4.71452">
        <ele>182</ele>
        <time>2018-01-05T09:53:18Z</time>
      </trkpt>
      <trkpt lat="45.94723" lon="4.71454">
        <ele>182</ele>
        <time>2018-01-05T09:53:19Z</time>
      </trkpt>
      <trkpt lat="45.94727" lon="4.71454">
        <ele>182</ele>
        <time>2018-01-05T09:53:20Z</time>
      </trkpt>
      <trkpt lat="45.94733" lon="4.71455">
        <ele>182</ele>
        <time>2018-01-05T09:53:21Z</time>
      </trkpt>
      <trkpt lat="45.94737" lon="4.71455">
        <ele>182</ele>
        <time>2018-01-05T09:53:22Z</time>
      </trkpt>
      <trkpt lat="45.94743" lon="4.71456">
        <ele>182</ele>
        <time>2018-01-05T09:53:23Z</time>
      </trkpt>
      <trkpt lat="45.94749" lon="4.71456">
        <ele>182</ele>
        <time>2018-01-05T09:53:24Z</time>
      </trkpt>
      <trkpt lat="45.94755" lon="4.71456">
        <ele>183</ele>
        <time>2018-01-05T09:53:25Z</time>
      </trkpt>
      <trkpt lat="45.94761" lon="4.71456">
        <ele>183</ele>
        <time>2018-01-05T09:53:26Z</time>
      </trkpt>
      <trkpt lat="45.94766" lon="4.71456">
        <ele>183</ele>
        <time>2018-01-05T09:53:27Z</time>
      </trkpt>
      <trkpt lat="45.94771" lon="4.71457">
        <ele>183</ele>
        <time>2018-01-05T09:53:28Z</time>
      </trkpt>
      <trkpt lat="45.94775" lon="4.71457">
        <ele>183</ele>
        <time>2018-01-05T09:53:29Z</time>
      </trkpt>
      <trkpt lat="45.9478" lon="4.71457">
        <ele>183</ele>
        <time>2018-01-05T09:53:30Z</time>
      </trkpt>
      <trkpt lat="45.94786" lon="4.71456">
        <ele>183</ele>
        <time>2018-01-05T09:53:31Z</time>
      </trkpt>
      <trkpt lat="45.94791" lon="4.71457">
        <ele>183</ele>
        <time>2018-01-05T09:53:32Z</time>
      </trkpt>
      <trkpt lat="45.94797" lon="4.71457">
        <ele>183</ele>
        <time>2018-01-05T09:53:33Z</time>
      </trkpt>
      <trkpt lat="45.94802" lon="4.71459">
        <ele>183</ele>
        <time>2018-01-05T09:53:34Z</time>
      </trkpt>
      <trkpt lat="45.94808" lon="4.7146">
        <ele>183</ele>
        <time>2018-01-05T09:53:35Z</time>
      </trkpt>
      <trkpt lat="45.94815" lon="4.7146">
        <ele>183</ele>
        <time>2018-01-05T09:53:36Z</time>
      </trkpt>
      <trkpt lat="45.94821" lon="4.7146">
        <ele>183</ele>
        <time>2018-01-05T09:53:37Z</time>
      </trkpt>
      <trkpt lat="45.94827" lon="4.7146">
        <ele>183</ele>
        <time>2018-01-05T09:53:38Z</time>
      </trkpt>
      <trkpt lat="45.94833" lon="4.7146">
        <ele>183</ele>
        <time>2018-01-05T09:53:39Z</time>
      </trkpt>
      <trkpt lat="45.94837" lon="4.71462">
        <ele>183</ele>
        <time>2018-01-05T09:53:40Z</time>
      </trkpt>
      <trkpt lat="45.94843" lon="4.71462">
        <ele>183</ele>
        <time>2018-01-05T09:53:41Z</time>
      </trkpt>
      <trkpt lat="45.94849" lon="4.71463">
        <ele>183</ele>
        <time>2018-01-05T09:53:42Z</time>
      </trkpt>
      <trkpt lat="45.94854" lon="4.71463">
        <ele>183</ele>
        <time>2018-01-05T09:53:43Z</time>
      </trkpt>
      <trkpt lat="45.9486" lon="4.71464">
        <ele>183</ele>
        <time>2018-01-05T09:53:44Z</time>
      </trkpt>
      <trkpt lat="45.94866" lon="4.71466">
        <ele>183</ele>
        <time>2018-01-05T09:53:45Z</time>
      </trkpt>
      <trkpt lat="45.94871" lon="4.71466">
        <ele>183</ele>
        <time>2018-01-05T09:53:46Z</time>
      </trkpt>
      <trkpt lat="45.94877" lon="4.71466">
        <ele>183</ele>
        <time>2018-01-05T09:53:47Z</time>
      </trkpt>
      <trkpt lat="45.94885" lon="4.71467">
        <ele>183</ele>
        <time>2018-01-05T09:53:49Z</time>
      </trkpt>
      <trkpt lat="45.9489" lon="4.71467">
        <ele>183</ele>
        <time>2018-01-05T09:53:50Z</time>
      </trkpt>
      <trkpt lat="45.94893" lon="4.71467">
        <ele>183</ele>
        <time>2018-01-05T09:53:51Z</time>
      </trkpt>
      <trkpt lat="45.94902" lon="4.71468">
        <ele>183</ele>
        <time>2018-01-05T09:53:52Z</time>
      </trkpt>
      <trkpt lat="45.94907" lon="4.71468">
        <ele>183</ele>
        <time>2018-01-05T09:53:53Z</time>
      </trkpt>
      <trkpt lat="45.94912" lon="4.71468">
        <ele>183</ele>
        <time>2018-01-05T09:53:54Z</time>
      </trkpt>
      <trkpt lat="45.94916" lon="4.71468">
        <ele>183</ele>
        <time>2018-01-05T09:53:55Z</time>
      </trkpt>
      <trkpt lat="45.94921" lon="4.71469">
        <ele>183</ele>
        <time>2018-01-05T09:53:56Z</time>
      </trkpt>
      <trkpt lat="45.94926" lon="4.71468">
        <ele>183</ele>
        <time>2018-01-05T09:53:57Z</time>
      </trkpt>
      <trkpt lat="45.94931" lon="4.71468">
        <ele>183</ele>
        <time>2018-01-05T09:53:58Z</time>
      </trkpt>
      <trkpt lat="45.9494" lon="4.71467">
        <ele>183</ele>
        <time>2018-01-05T09:54:00Z</time>
      </trkpt>
      <trkpt lat="45.94944" lon="4.71468">
        <ele>183</ele>
        <time>2018-01-05T09:54:01Z</time>
      </trkpt>
      <trkpt lat="45.94951" lon="4.71472">
        <ele>183</ele>
        <time>2018-01-05T09:54:03Z</time>
      </trkpt>
      <trkpt lat="45.94954" lon="4.71476">
        <ele>183</ele>
        <time>2018-01-05T09:54:04Z</time>
      </trkpt>
      <trkpt lat="45.94958" lon="4.71479">
        <ele>183</ele>
        <time>2018-01-05T09:54:05Z</time>
      </trkpt>
      <trkpt lat="45.94962" lon="4.71482">
        <ele>183</ele>
        <time>2018-01-05T09:54:06Z</time>
      </trkpt>
      <trkpt lat="45.94967" lon="4.71486">
        <ele>182</ele>
        <time>2018-01-05T09:54:07Z</time>
      </trkpt>
      <trkpt lat="45.94972" lon="4.71487">
        <ele>182</ele>
        <time>2018-01-05T09:54:08Z</time>
      </trkpt>
      <trkpt lat="45.94977" lon="4.71486">
        <ele>182</ele>
        <time>2018-01-05T09:54:09Z</time>
      </trkpt>
      <trkpt lat="45.94982" lon="4.71485">
        <ele>182</ele>
        <time>2018-01-05T09:54:10Z</time>
      </trkpt>
      <trkpt lat="45.94987" lon="4.71482">
        <ele>182</ele>
        <time>2018-01-05T09:54:11Z</time>
      </trkpt>
      <trkpt lat="45.94992" lon="4.71479">
        <ele>182</ele>
        <time>2018-01-05T09:54:12Z</time>
      </trkpt>
      <trkpt lat="45.94998" lon="4.71477">
        <ele>182</ele>
        <time>2018-01-05T09:54:13Z</time>
      </trkpt>
      <trkpt lat="45.95003" lon="4.71476">
        <ele>181</ele>
        <time>2018-01-05T09:54:14Z</time>
      </trkpt>
      <trkpt lat="45.95009" lon="4.71477">
        <ele>181</ele>
        <time>2018-01-05T09:54:15Z</time>
      </trkpt>
      <trkpt lat="45.95015" lon="4.71478">
        <ele>181</ele>
        <time>2018-01-05T09:54:16Z</time>
      </trkpt>
      <trkpt lat="45.95021" lon="4.71478">
        <ele>181</ele>
        <time>2018-01-05T09:54:17Z</time>
      </trkpt>
      <trkpt lat="45.95028" lon="4.7148">
        <ele>181</ele>
        <time>2018-01-05T09:54:18Z</time>
      </trkpt>
      <trkpt lat="45.95035" lon="4.71481">
        <ele>181</ele>
        <time>2018-01-05T09:54:19Z</time>
      </trkpt>
      <trkpt lat="45.95042" lon="4.71481">
        <ele>181</ele>
        <time>2018-01-05T09:54:20Z</time>
      </trkpt>
      <trkpt lat="45.95049" lon="4.71482">
        <ele>181</ele>
        <time>2018-01-05T09:54:21Z</time>
      </trkpt>
      <trkpt lat="45.95056" lon="4.71482">
        <ele>181</ele>
        <time>2018-01-05T09:54:22Z</time>
      </trkpt>
      <trkpt lat="45.95064" lon="4.71482">
        <ele>181</ele>
        <time>2018-01-05T09:54:23Z</time>
      </trkpt>
      <trkpt lat="45.95072" lon="4.71482">
        <ele>180</ele>
        <time>2018-01-05T09:54:24Z</time>
      </trkpt>
      <trkpt lat="45.95079" lon="4.71481">
        <ele>180</ele>
        <time>2018-01-05T09:54:25Z</time>
      </trkpt>
      <trkpt lat="45.95088" lon="4.71481">
        <ele>179</ele>
        <time>2018-01-05T09:54:26Z</time>
      </trkpt>
      <trkpt lat="45.95096" lon="4.71482">
        <ele>179</ele>
        <time>2018-01-05T09:54:27Z</time>
      </trkpt>
      <trkpt lat="45.95104" lon="4.71482">
        <ele>179</ele>
        <time>2018-01-05T09:54:28Z</time>
      </trkpt>
      <trkpt lat="45.95113" lon="4.71481">
        <ele>179</ele>
        <time>2018-01-05T09:54:29Z</time>
      </trkpt>
      <trkpt lat="45.95122" lon="4.71481">
        <ele>178</ele>
        <time>2018-01-05T09:54:30Z</time>
      </trkpt>
      <trkpt lat="45.9513" lon="4.71481">
        <ele>178</ele>
        <time>2018-01-05T09:54:31Z</time>
      </trkpt>
      <trkpt lat="45.95139" lon="4.71481">
        <ele>178</ele>
        <time>2018-01-05T09:54:32Z</time>
      </trkpt>
      <trkpt lat="45.95147" lon="4.71482">
        <ele>178</ele>
        <time>2018-01-05T09:54:33Z</time>
      </trkpt>
      <trkpt lat="45.95155" lon="4.71483">
        <ele>178</ele>
        <time>2018-01-05T09:54:34Z</time>
      </trkpt>
      <trkpt lat="45.95163" lon="4.71483">
        <ele>178</ele>
        <time>2018-01-05T09:54:35Z</time>
      </trkpt>
      <trkpt lat="45.95171" lon="4.71483">
        <ele>177</ele>
        <time>2018-01-05T09:54:36Z</time>
      </trkpt>
      <trkpt lat="45.9518" lon="4.71484">
        <ele>177</ele>
        <time>2018-01-05T09:54:37Z</time>
      </trkpt>
      <trkpt lat="45.95188" lon="4.71484">
        <ele>177</ele>
        <time>2018-01-05T09:54:38Z</time>
      </trkpt>
      <trkpt lat="45.95196" lon="4.71485">
        <ele>177</ele>
        <time>2018-01-05T09:54:39Z</time>
      </trkpt>
      <trkpt lat="45.95205" lon="4.71486">
        <ele>177</ele>
        <time>2018-01-05T09:54:40Z</time>
      </trkpt>
      <trkpt lat="45.95213" lon="4.71486">
        <ele>177</ele>
        <time>2018-01-05T09:54:41Z</time>
      </trkpt>
      <trkpt lat="45.95221" lon="4.71487">
        <ele>177</ele>
        <time>2018-01-05T09:54:42Z</time>
      </trkpt>
      <trkpt lat="45.95228" lon="4.71487">
        <ele>177</ele>
        <time>2018-01-05T09:54:43Z</time>
      </trkpt>
      <trkpt lat="45.95237" lon="4.71488">
        <ele>177</ele>
        <time>2018-01-05T09:54:44Z</time>
      </trkpt>
      <trkpt lat="45.95244" lon="4.71489">
        <ele>177</ele>
        <time>2018-01-05T09:54:45Z</time>
      </trkpt>
      <trkpt lat="45.95252" lon="4.7149">
        <ele>177</ele>
        <time>2018-01-05T09:54:46Z</time>
      </trkpt>
      <trkpt lat="45.95259" lon="4.7149">
        <ele>176</ele>
        <time>2018-01-05T09:54:47Z</time>
      </trkpt>
      <trkpt lat="45.95267" lon="4.7149">
        <ele>176</ele>
        <time>2018-01-05T09:54:48Z</time>
      </trkpt>
      <trkpt lat="45.95275" lon="4.7149">
        <ele>176</ele>
        <time>2018-01-05T09:54:49Z</time>
      </trkpt>
      <trkpt lat="45.95282" lon="4.7149">
        <ele>176</ele>
        <time>2018-01-05T09:54:50Z</time>
      </trkpt>
      <trkpt lat="45.95289" lon="4.71492">
        <ele>176</ele>
        <time>2018-01-05T09:54:51Z</time>
      </trkpt>
      <trkpt lat="45.95297" lon="4.71492">
        <ele>176</ele>
        <time>2018-01-05T09:54:52Z</time>
      </trkpt>
      <trkpt lat="45.95303" lon="4.71491">
        <ele>175</ele>
        <time>2018-01-05T09:54:53Z</time>
      </trkpt>
      <trkpt lat="45.95311" lon="4.71493">
        <ele>175</ele>
        <time>2018-01-05T09:54:54Z</time>
      </trkpt>
      <trkpt lat="45.95318" lon="4.71493">
        <ele>175</ele>
        <time>2018-01-05T09:54:55Z</time>
      </trkpt>
      <trkpt lat="45.95325" lon="4.71492">
        <ele>175</ele>
        <time>2018-01-05T09:54:56Z</time>
      </trkpt>
      <trkpt lat="45.95332" lon="4.71492">
        <ele>174</ele>
        <time>2018-01-05T09:54:57Z</time>
      </trkpt>
      <trkpt lat="45.95338" lon="4.71493">
        <ele>174</ele>
        <time>2018-01-05T09:54:58Z</time>
      </trkpt>
      <trkpt lat="45.95344" lon="4.71494">
        <ele>174</ele>
        <time>2018-01-05T09:54:59Z</time>
      </trkpt>
      <trkpt lat="45.95352" lon="4.71495">
        <ele>175</ele>
        <time>2018-01-05T09:55:00Z</time>
      </trkpt>
      <trkpt lat="45.95357" lon="4.71496">
        <ele>175</ele>
        <time>2018-01-05T09:55:01Z</time>
      </trkpt>
      <trkpt lat="45.95365" lon="4.71496">
        <ele>175</ele>
        <time>2018-01-05T09:55:02Z</time>
      </trkpt>
      <trkpt lat="45.95371" lon="4.71498">
        <ele>175</ele>
        <time>2018-01-05T09:55:03Z</time>
      </trkpt>
      <trkpt lat="45.95378" lon="4.71499">
        <ele>175</ele>
        <time>2018-01-05T09:55:04Z</time>
      </trkpt>
      <trkpt lat="45.95385" lon="4.715">
        <ele>174</ele>
        <time>2018-01-05T09:55:05Z</time>
      </trkpt>
      <trkpt lat="45.95391" lon="4.71501">
        <ele>174</ele>
        <time>2018-01-05T09:55:06Z</time>
      </trkpt>
      <trkpt lat="45.95399" lon="4.71501">
        <ele>174</ele>
        <time>2018-01-05T09:55:07Z</time>
      </trkpt>
      <trkpt lat="45.95406" lon="4.71501">
        <ele>174</ele>
        <time>2018-01-05T09:55:08Z</time>
      </trkpt>
      <trkpt lat="45.95412" lon="4.71501">
        <ele>174</ele>
        <time>2018-01-05T09:55:09Z</time>
      </trkpt>
      <trkpt lat="45.95419" lon="4.71501">
        <ele>174</ele>
        <time>2018-01-05T09:55:10Z</time>
      </trkpt>
      <trkpt lat="45.95425" lon="4.71502">
        <ele>174</ele>
        <time>2018-01-05T09:55:11Z</time>
      </trkpt>
      <trkpt lat="45.95431" lon="4.71501">
        <ele>174</ele>
        <time>2018-01-05T09:55:12Z</time>
      </trkpt>
      <trkpt lat="45.95437" lon="4.71501">
        <ele>175</ele>
        <time>2018-01-05T09:55:13Z</time>
      </trkpt>
      <trkpt lat="45.95442" lon="4.71502">
        <ele>175</ele>
        <time>2018-01-05T09:55:14Z</time>
      </trkpt>
      <trkpt lat="45.95448" lon="4.71502">
        <ele>175</ele>
        <time>2018-01-05T09:55:15Z</time>
      </trkpt>
      <trkpt lat="45.95452" lon="4.71503">
        <ele>175</ele>
        <time>2018-01-05T09:55:16Z</time>
      </trkpt>
      <trkpt lat="45.95458" lon="4.71504">
        <ele>175</ele>
        <time>2018-01-05T09:55:17Z</time>
      </trkpt>
      <trkpt lat="45.95463" lon="4.71504">
        <ele>175</ele>
        <time>2018-01-05T09:55:18Z</time>
      </trkpt>
      <trkpt lat="45.95469" lon="4.71504">
        <ele>175</ele>
        <time>2018-01-05T09:55:19Z</time>
      </trkpt>
      <trkpt lat="45.95474" lon="4.71505">
        <ele>176</ele>
        <time>2018-01-05T09:55:20Z</time>
      </trkpt>
      <trkpt lat="45.9548" lon="4.71506">
        <ele>176</ele>
        <time>2018-01-05T09:55:21Z</time>
      </trkpt>
      <trkpt lat="45.95486" lon="4.71506">
        <ele>176</ele>
        <time>2018-01-05T09:55:22Z</time>
      </trkpt>
      <trkpt lat="45.95492" lon="4.71506">
        <ele>176</ele>
        <time>2018-01-05T09:55:23Z</time>
      </trkpt>
      <trkpt lat="45.95498" lon="4.71507">
        <ele>176</ele>
        <time>2018-01-05T09:55:24Z</time>
      </trkpt>
      <trkpt lat="45.95504" lon="4.71508">
        <ele>177</ele>
        <time>2018-01-05T09:55:25Z</time>
      </trkpt>
      <trkpt lat="45.9551" lon="4.71509">
        <ele>177</ele>
        <time>2018-01-05T09:55:26Z</time>
      </trkpt>
      <trkpt lat="45.95516" lon="4.71509">
        <ele>177</ele>
        <time>2018-01-05T09:55:27Z</time>
      </trkpt>
      <trkpt lat="45.95522" lon="4.71509">
        <ele>177</ele>
        <time>2018-01-05T09:55:28Z</time>
      </trkpt>
      <trkpt lat="45.95529" lon="4.7151">
        <ele>177</ele>
        <time>2018-01-05T09:55:29Z</time>
      </trkpt>
      <trkpt lat="45.95534" lon="4.7151">
        <ele>177</ele>
        <time>2018-01-05T09:55:30Z</time>
      </trkpt>
      <trkpt lat="45.9554" lon="4.71511">
        <ele>177</ele>
        <time>2018-01-05T09:55:31Z</time>
      </trkpt>
      <trkpt lat="45.95546" lon="4.71511">
        <ele>178</ele>
        <time>2018-01-05T09:55:32Z</time>
      </trkpt>
      <trkpt lat="45.95552" lon="4.71511">
        <ele>178</ele>
        <time>2018-01-05T09:55:33Z</time>
      </trkpt>
      <trkpt lat="45.95558" lon="4.71511">
        <ele>178</ele>
        <time>2018-01-05T09:55:34Z</time>
      </trkpt>
      <trkpt lat="45.95563" lon="4.71511">
        <ele>178</ele>
        <time>2018-01-05T09:55:35Z</time>
      </trkpt>
      <trkpt lat="45.95569" lon="4.71514">
        <ele>178</ele>
        <time>2018-01-05T09:55:36Z</time>
      </trkpt>
      <trkpt lat="45.95574" lon="4.71514">
        <ele>179</ele>
        <time>2018-01-05T09:55:37Z</time>
      </trkpt>
      <trkpt lat="45.9558" lon="4.71513">
        <ele>179</ele>
        <time>2018-01-05T09:55:38Z</time>
      </trkpt>
      <trkpt lat="45.95586" lon="4.71513">
        <ele>179</ele>
        <time>2018-01-05T09:55:39Z</time>
      </trkpt>
      <trkpt lat="45.95591" lon="4.71513">
        <ele>179</ele>
        <time>2018-01-05T09:55:40Z</time>
      </trkpt>
      <trkpt lat="45.95597" lon="4.71512">
        <ele>179</ele>
        <time>2018-01-05T09:55:41Z</time>
      </trkpt>
      <trkpt lat="45.95603" lon="4.71513">
        <ele>179</ele>
        <time>2018-01-05T09:55:42Z</time>
      </trkpt>
      <trkpt lat="45.95609" lon="4.71513">
        <ele>179</ele>
        <time>2018-01-05T09:55:43Z</time>
      </trkpt>
      <trkpt lat="45.95614" lon="4.71514">
        <ele>179</ele>
        <time>2018-01-05T09:55:44Z</time>
      </trkpt>
      <trkpt lat="45.95619" lon="4.71515">
        <ele>179</ele>
        <time>2018-01-05T09:55:45Z</time>
      </trkpt>
      <trkpt lat="45.95623" lon="4.71515">
        <ele>179</ele>
        <time>2018-01-05T09:55:46Z</time>
      </trkpt>
      <trkpt lat="45.95629" lon="4.71517">
        <ele>179</ele>
        <time>2018-01-05T09:55:47Z</time>
      </trkpt>
      <trkpt lat="45.95635" lon="4.71517">
        <ele>180</ele>
        <time>2018-01-05T09:55:48Z</time>
      </trkpt>
      <trkpt lat="45.95641" lon="4.71518">
        <ele>180</ele>
        <time>2018-01-05T09:55:49Z</time>
      </trkpt>
      <trkpt lat="45.95646" lon="4.71518">
        <ele>180</ele>
        <time>2018-01-05T09:55:50Z</time>
      </trkpt>
      <trkpt lat="45.95652" lon="4.71518">
        <ele>180</ele>
        <time>2018-01-05T09:55:51Z</time>
      </trkpt>
      <trkpt lat="45.95658" lon="4.71518">
        <ele>180</ele>
        <time>2018-01-05T09:55:52Z</time>
      </trkpt>
      <trkpt lat="45.95663" lon="4.71518">
        <ele>180</ele>
        <time>2018-01-05T09:55:53Z</time>
      </trkpt>
      <trkpt lat="45.95669" lon="4.71518">
        <ele>181</ele>
        <time>2018-01-05T09:55:54Z</time>
      </trkpt>
      <trkpt lat="45.95674" lon="4.71519">
        <ele>181</ele>
        <time>2018-01-05T09:55:55Z</time>
      </trkpt>
      <trkpt lat="45.95679" lon="4.71519">
        <ele>180</ele>
        <time>2018-01-05T09:55:56Z</time>
      </trkpt>
      <trkpt lat="45.95684" lon="4.7152">
        <ele>180</ele>
        <time>2018-01-05T09:55:57Z</time>
      </trkpt>
      <trkpt lat="45.95689" lon="4.7152">
        <ele>180</ele>
        <time>2018-01-05T09:55:58Z</time>
      </trkpt>
      <trkpt lat="45.95695" lon="4.7152">
        <ele>180</ele>
        <time>2018-01-05T09:55:59Z</time>
      </trkpt>
      <trkpt lat="45.957" lon="4.7152">
        <ele>180</ele>
        <time>2018-01-05T09:56:00Z</time>
      </trkpt>
      <trkpt lat="45.95705" lon="4.7152">
        <ele>180</ele>
        <time>2018-01-05T09:56:01Z</time>
      </trkpt>
      <trkpt lat="45.9571" lon="4.7152">
        <ele>180</ele>
        <time>2018-01-05T09:56:02Z</time>
      </trkpt>
      <trkpt lat="45.95716" lon="4.7152">
        <ele>180</ele>
        <time>2018-01-05T09:56:03Z</time>
      </trkpt>
      <trkpt lat="45.95722" lon="4.7152">
        <ele>180</ele>
        <time>2018-01-05T09:56:04Z</time>
      </trkpt>
      <trkpt lat="45.95728" lon="4.71521">
        <ele>180</ele>
        <time>2018-01-05T09:56:05Z</time>
      </trkpt>
      <trkpt lat="45.95733" lon="4.71522">
        <ele>180</ele>
        <time>2018-01-05T09:56:06Z</time>
      </trkpt>
      <trkpt lat="45.95738" lon="4.71522">
        <ele>180</ele>
        <time>2018-01-05T09:56:07Z</time>
      </trkpt>
      <trkpt lat="45.95744" lon="4.71522">
        <ele>180</ele>
        <time>2018-01-05T09:56:08Z</time>
      </trkpt>
      <trkpt lat="45.9575" lon="4.71523">
        <ele>180</ele>
        <time>2018-01-05T09:56:09Z</time>
      </trkpt>
      <trkpt lat="45.95756" lon="4.71524">
        <ele>181</ele>
        <time>2018-01-05T09:56:10Z</time>
      </trkpt>
      <trkpt lat="45.95761" lon="4.71523">
        <ele>181</ele>
        <time>2018-01-05T09:56:11Z</time>
      </trkpt>
      <trkpt lat="45.95768" lon="4.71524">
        <ele>181</ele>
        <time>2018-01-05T09:56:12Z</time>
      </trkpt>
      <trkpt lat="45.95773" lon="4.71525">
        <ele>181</ele>
        <time>2018-01-05T09:56:13Z</time>
      </trkpt>
      <trkpt lat="45.95779" lon="4.71526">
        <ele>181</ele>
        <time>2018-01-05T09:56:14Z</time>
      </trkpt>
      <trkpt lat="45.95785" lon="4.71526">
        <ele>181</ele>
        <time>2018-01-05T09:56:15Z</time>
      </trkpt>
      <trkpt lat="45.95791" lon="4.71526">
        <ele>181</ele>
        <time>2018-01-05T09:56:16Z</time>
      </trkpt>
      <trkpt lat="45.95797" lon="4.71527">
        <ele>181</ele>
        <time>2018-01-05T09:56:17Z</time>
      </trkpt>
      <trkpt lat="45.95802" lon="4.71528">
        <ele>181</ele>
        <time>2018-01-05T09:56:18Z</time>
      </trkpt>
      <trkpt lat="45.95807" lon="4.71529">
        <ele>181</ele>
        <time>2018-01-05T09:56:19Z</time>
      </trkpt>
      <trkpt lat="45.95813" lon="4.71529">
        <ele>181</ele>
        <time>2018-01-05T09:56:20Z</time>
      </trkpt>
      <trkpt lat="45.95818" lon="4.7153">
        <ele>181</ele>
        <time>2018-01-05T09:56:21Z</time>
      </trkpt>
      <trkpt lat="45.95824" lon="4.7153">
        <ele>181</ele>
        <time>2018-01-05T09:56:22Z</time>
      </trkpt>
      <trkpt lat="45.9583" lon="4.7153">
        <ele>181</ele>
        <time>2018-01-05T09:56:23Z</time>
      </trkpt>
      <trkpt lat="45.95835" lon="4.7153">
        <ele>182</ele>
        <time>2018-01-05T09:56:24Z</time>
      </trkpt>
      <trkpt lat="45.95841" lon="4.71531">
        <ele>182</ele>
        <time>2018-01-05T09:56:25Z</time>
      </trkpt>
      <trkpt lat="45.95846" lon="4.71531">
        <ele>182</ele>
        <time>2018-01-05T09:56:26Z</time>
      </trkpt>
      <trkpt lat="45.95851" lon="4.71531">
        <ele>182</ele>
        <time>2018-01-05T09:56:27Z</time>
      </trkpt>
      <trkpt lat="45.95855" lon="4.71532">
        <ele>182</ele>
        <time>2018-01-05T09:56:28Z</time>
      </trkpt>
      <trkpt lat="45.95861" lon="4.71532">
        <ele>182</ele>
        <time>2018-01-05T09:56:29Z</time>
      </trkpt>
      <trkpt lat="45.95866" lon="4.71532">
        <ele>182</ele>
        <time>2018-01-05T09:56:30Z</time>
      </trkpt>
      <trkpt lat="45.95872" lon="4.71532">
        <ele>182</ele>
        <time>2018-01-05T09:56:31Z</time>
      </trkpt>
      <trkpt lat="45.95877" lon="4.71532">
        <ele>182</ele>
        <time>2018-01-05T09:56:32Z</time>
      </trkpt>
      <trkpt lat="45.95883" lon="4.71533">
        <ele>182</ele>
        <time>2018-01-05T09:56:33Z</time>
      </trkpt>
      <trkpt lat="45.95888" lon="4.71532">
        <ele>182</ele>
        <time>2018-01-05T09:56:34Z</time>
      </trkpt>
      <trkpt lat="45.95894" lon="4.71532">
        <ele>182</ele>
        <time>2018-01-05T09:56:35Z</time>
      </trkpt>
      <trkpt lat="45.959" lon="4.71533">
        <ele>182</ele>
        <time>2018-01-05T09:56:36Z</time>
      </trkpt>
      <trkpt lat="45.95905" lon="4.71534">
        <ele>182</ele>
        <time>2018-01-05T09:56:37Z</time>
      </trkpt>
      <trkpt lat="45.9591" lon="4.71533">
        <ele>182</ele>
        <time>2018-01-05T09:56:38Z</time>
      </trkpt>
      <trkpt lat="45.95914" lon="4.71534">
        <ele>182</ele>
        <time>2018-01-05T09:56:39Z</time>
      </trkpt>
      <trkpt lat="45.9592" lon="4.71534">
        <ele>183</ele>
        <time>2018-01-05T09:56:40Z</time>
      </trkpt>
      <trkpt lat="45.95925" lon="4.71534">
        <ele>183</ele>
        <time>2018-01-05T09:56:41Z</time>
      </trkpt>
      <trkpt lat="45.9593" lon="4.71534">
        <ele>183</ele>
        <time>2018-01-05T09:56:42Z</time>
      </trkpt>
      <trkpt lat="45.95935" lon="4.71534">
        <ele>183</ele>
        <time>2018-01-05T09:56:43Z</time>
      </trkpt>
      <trkpt lat="45.9594" lon="4.71534">
        <ele>183</ele>
        <time>2018-01-05T09:56:44Z</time>
      </trkpt>
      <trkpt lat="45.95945" lon="4.71534">
        <ele>183</ele>
        <time>2018-01-05T09:56:45Z</time>
      </trkpt>
      <trkpt lat="45.9595" lon="4.71535">
        <ele>183</ele>
        <time>2018-01-05T09:56:46Z</time>
      </trkpt>
      <trkpt lat="45.95955" lon="4.71537">
        <ele>183</ele>
        <time>2018-01-05T09:56:47Z</time>
      </trkpt>
      <trkpt lat="45.9596" lon="4.71538">
        <ele>183</ele>
        <time>2018-01-05T09:56:48Z</time>
      </trkpt>
      <trkpt lat="45.95965" lon="4.7154">
        <ele>183</ele>
        <time>2018-01-05T09:56:49Z</time>
      </trkpt>
      <trkpt lat="45.95969" lon="4.71543">
        <ele>183</ele>
        <time>2018-01-05T09:56:50Z</time>
      </trkpt>
      <trkpt lat="45.95973" lon="4.71546">
        <ele>183</ele>
        <time>2018-01-05T09:56:51Z</time>
      </trkpt>
      <trkpt lat="45.95977" lon="4.71548">
        <ele>183</ele>
        <time>2018-01-05T09:56:52Z</time>
      </trkpt>
      <trkpt lat="45.95986" lon="4.71549">
        <ele>183</ele>
        <time>2018-01-05T09:56:54Z</time>
      </trkpt>
      <trkpt lat="45.9599" lon="4.71549">
        <ele>183</ele>
        <time>2018-01-05T09:56:55Z</time>
      </trkpt>
      <trkpt lat="45.95994" lon="4.71546">
        <ele>184</ele>
        <time>2018-01-05T09:56:56Z</time>
      </trkpt>
      <trkpt lat="45.95999" lon="4.71545">
        <ele>184</ele>
        <time>2018-01-05T09:56:57Z</time>
      </trkpt>
      <trkpt lat="45.96007" lon="4.71542">
        <ele>185</ele>
        <time>2018-01-05T09:56:59Z</time>
      </trkpt>
      <trkpt lat="45.96013" lon="4.71542">
        <ele>185</ele>
        <time>2018-01-05T09:57:00Z</time>
      </trkpt>
      <trkpt lat="45.96018" lon="4.71543">
        <ele>185</ele>
        <time>2018-01-05T09:57:01Z</time>
      </trkpt>
      <trkpt lat="45.96024" lon="4.71544">
        <ele>185</ele>
        <time>2018-01-05T09:57:02Z</time>
      </trkpt>
      <trkpt lat="45.9603" lon="4.71543">
        <ele>185</ele>
        <time>2018-01-05T09:57:03Z</time>
      </trkpt>
      <trkpt lat="45.96036" lon="4.71544">
        <ele>185</ele>
        <time>2018-01-05T09:57:04Z</time>
      </trkpt>
      <trkpt lat="45.96041" lon="4.71545">
        <ele>185</ele>
        <time>2018-01-05T09:57:05Z</time>
      </trkpt>
      <trkpt lat="45.96047" lon="4.71546">
        <ele>185</ele>
        <time>2018-01-05T09:57:06Z</time>
      </trkpt>
      <trkpt lat="45.96052" lon="4.71548">
        <ele>185</ele>
        <time>2018-01-05T09:57:07Z</time>
      </trkpt>
      <trkpt lat="45.96057" lon="4.71549">
        <ele>185</ele>
        <time>2018-01-05T09:57:08Z</time>
      </trkpt>
      <trkpt lat="45.96064" lon="4.7155">
        <ele>185</ele>
        <time>2018-01-05T09:57:09Z</time>
      </trkpt>
      <trkpt lat="45.9607" lon="4.71552">
        <ele>185</ele>
        <time>2018-01-05T09:57:10Z</time>
      </trkpt>
      <trkpt lat="45.96076" lon="4.71553">
        <ele>185</ele>
        <time>2018-01-05T09:57:11Z</time>
      </trkpt>
      <trkpt lat="45.96082" lon="4.71553">
        <ele>185</ele>
        <time>2018-01-05T09:57:12Z</time>
      </trkpt>
      <trkpt lat="45.96088" lon="4.71555">
        <ele>184</ele>
        <time>2018-01-05T09:57:13Z</time>
      </trkpt>
      <trkpt lat="45.96092" lon="4.71556">
        <ele>184</ele>
        <time>2018-01-05T09:57:14Z</time>
      </trkpt>
      <trkpt lat="45.96097" lon="4.71556">
        <ele>184</ele>
        <time>2018-01-05T09:57:15Z</time>
      </trkpt>
      <trkpt lat="45.96103" lon="4.71556">
        <ele>184</ele>
        <time>2018-01-05T09:57:16Z</time>
      </trkpt>
      <trkpt lat="45.9611" lon="4.71557">
        <ele>184</ele>
        <time>2018-01-05T09:57:17Z</time>
      </trkpt>
      <trkpt lat="45.96115" lon="4.71557">
        <ele>184</ele>
        <time>2018-01-05T09:57:18Z</time>
      </trkpt>
      <trkpt lat="45.96121" lon="4.71559">
        <ele>184</ele>
        <time>2018-01-05T09:57:19Z</time>
      </trkpt>
      <trkpt lat="45.96127" lon="4.7156">
        <ele>184</ele>
        <time>2018-01-05T09:57:20Z</time>
      </trkpt>
      <trkpt lat="45.96132" lon="4.71561">
        <ele>184</ele>
        <time>2018-01-05T09:57:21Z</time>
      </trkpt>
      <trkpt lat="45.96137" lon="4.71561">
        <ele>184</ele>
        <time>2018-01-05T09:57:22Z</time>
      </trkpt>
      <trkpt lat="45.96143" lon="4.71563">
        <ele>183</ele>
        <time>2018-01-05T09:57:23Z</time>
      </trkpt>
      <trkpt lat="45.96149" lon="4.71563">
        <ele>183</ele>
        <time>2018-01-05T09:57:24Z</time>
      </trkpt>
      <trkpt lat="45.96155" lon="4.71564">
        <ele>183</ele>
        <time>2018-01-05T09:57:25Z</time>
      </trkpt>
      <trkpt lat="45.96161" lon="4.71565">
        <ele>183</ele>
        <time>2018-01-05T09:57:26Z</time>
      </trkpt>
      <trkpt lat="45.96166" lon="4.71566">
        <ele>182</ele>
        <time>2018-01-05T09:57:27Z</time>
      </trkpt>
      <trkpt lat="45.96173" lon="4.71567">
        <ele>182</ele>
        <time>2018-01-05T09:57:28Z</time>
      </trkpt>
      <trkpt lat="45.96178" lon="4.71568">
        <ele>182</ele>
        <time>2018-01-05T09:57:29Z</time>
      </trkpt>
      <trkpt lat="45.96184" lon="4.71569">
        <ele>183</ele>
        <time>2018-01-05T09:57:30Z</time>
      </trkpt>
      <trkpt lat="45.96191" lon="4.71569">
        <ele>183</ele>
        <time>2018-01-05T09:57:31Z</time>
      </trkpt>
      <trkpt lat="45.96196" lon="4.71572">
        <ele>183</ele>
        <time>2018-01-05T09:57:32Z</time>
      </trkpt>
      <trkpt lat="45.96202" lon="4.71574">
        <ele>183</ele>
        <time>2018-01-05T09:57:33Z</time>
      </trkpt>
      <trkpt lat="45.96208" lon="4.71575">
        <ele>183</ele>
        <time>2018-01-05T09:57:34Z</time>
      </trkpt>
      <trkpt lat="45.96215" lon="4.71576">
        <ele>183</ele>
        <time>2018-01-05T09:57:35Z</time>
      </trkpt>
      <trkpt lat="45.96222" lon="4.71577">
        <ele>183</ele>
        <time>2018-01-05T09:57:36Z</time>
      </trkpt>
      <trkpt lat="45.9623" lon="4.71577">
        <ele>183</ele>
        <time>2018-01-05T09:57:37Z</time>
      </trkpt>
      <trkpt lat="45.96237" lon="4.71578">
        <ele>182</ele>
        <time>2018-01-05T09:57:38Z</time>
      </trkpt>
      <trkpt lat="45.96245" lon="4.71579">
        <ele>182</ele>
        <time>2018-01-05T09:57:39Z</time>
      </trkpt>
      <trkpt lat="45.96252" lon="4.71579">
        <ele>182</ele>
        <time>2018-01-05T09:57:40Z</time>
      </trkpt>
      <trkpt lat="45.96258" lon="4.71579">
        <ele>182</ele>
        <time>2018-01-05T09:57:41Z</time>
      </trkpt>
      <trkpt lat="45.96264" lon="4.7158">
        <ele>183</ele>
        <time>2018-01-05T09:57:42Z</time>
      </trkpt>
      <trkpt lat="45.96272" lon="4.71581">
        <ele>183</ele>
        <time>2018-01-05T09:57:43Z</time>
      </trkpt>
      <trkpt lat="45.96278" lon="4.71582">
        <ele>184</ele>
        <time>2018-01-05T09:57:44Z</time>
      </trkpt>
      <trkpt lat="45.96284" lon="4.71583">
        <ele>184</ele>
        <time>2018-01-05T09:57:45Z</time>
      </trkpt>
      <trkpt lat="45.96291" lon="4.71584">
        <ele>181</ele>
        <time>2018-01-05T09:57:46Z</time>
      </trkpt>
      <trkpt lat="45.96296" lon="4.71586">
        <ele>181</ele>
        <time>2018-01-05T09:57:47Z</time>
      </trkpt>
      <trkpt lat="45.96303" lon="4.71588">
        <ele>181</ele>
        <time>2018-01-05T09:57:48Z</time>
      </trkpt>
      <trkpt lat="45.96309" lon="4.71588">
        <ele>181</ele>
        <time>2018-01-05T09:57:49Z</time>
      </trkpt>
      <trkpt lat="45.96314" lon="4.71589">
        <ele>181</ele>
        <time>2018-01-05T09:57:50Z</time>
      </trkpt>
      <trkpt lat="45.9632" lon="4.7159">
        <ele>182</ele>
        <time>2018-01-05T09:57:51Z</time>
      </trkpt>
      <trkpt lat="45.96327" lon="4.7159">
        <ele>182</ele>
        <time>2018-01-05T09:57:52Z</time>
      </trkpt>
      <trkpt lat="45.96331" lon="4.71592">
        <ele>182</ele>
        <time>2018-01-05T09:57:53Z</time>
      </trkpt>
      <trkpt lat="45.96337" lon="4.71594">
        <ele>182</ele>
        <time>2018-01-05T09:57:54Z</time>
      </trkpt>
      <trkpt lat="45.96344" lon="4.71595">
        <ele>182</ele>
        <time>2018-01-05T09:57:55Z</time>
      </trkpt>
      <trkpt lat="45.9635" lon="4.71595">
        <ele>182</ele>
        <time>2018-01-05T09:57:56Z</time>
      </trkpt>
      <trkpt lat="45.96356" lon="4.71595">
        <ele>182</ele>
        <time>2018-01-05T09:57:57Z</time>
      </trkpt>
      <trkpt lat="45.96362" lon="4.71596">
        <ele>182</ele>
        <time>2018-01-05T09:57:58Z</time>
      </trkpt>
      <trkpt lat="45.96367" lon="4.71598">
        <ele>182</ele>
        <time>2018-01-05T09:57:59Z</time>
      </trkpt>
      <trkpt lat="45.96373" lon="4.71599">
        <ele>182</ele>
        <time>2018-01-05T09:58:00Z</time>
      </trkpt>
      <trkpt lat="45.96379" lon="4.71599">
        <ele>182</ele>
        <time>2018-01-05T09:58:01Z</time>
      </trkpt>
      <trkpt lat="45.96386" lon="4.716">
        <ele>182</ele>
        <time>2018-01-05T09:58:02Z</time>
      </trkpt>
      <trkpt lat="45.96392" lon="4.71601">
        <ele>183</ele>
        <time>2018-01-05T09:58:03Z</time>
      </trkpt>
      <trkpt lat="45.96399" lon="4.71603">
        <ele>183</ele>
        <time>2018-01-05T09:58:04Z</time>
      </trkpt>
      <trkpt lat="45.96406" lon="4.71604">
        <ele>183</ele>
        <time>2018-01-05T09:58:05Z</time>
      </trkpt>
      <trkpt lat="45.96413" lon="4.71606">
        <ele>183</ele>
        <time>2018-01-05T09:58:06Z</time>
      </trkpt>
      <trkpt lat="45.9642" lon="4.71607">
        <ele>183</ele>
        <time>2018-01-05T09:58:07Z</time>
      </trkpt>
      <trkpt lat="45.96427" lon="4.71607">
        <ele>183</ele>
        <time>2018-01-05T09:58:08Z</time>
      </trkpt>
      <trkpt lat="45.96433" lon="4.71608">
        <ele>183</ele>
        <time>2018-01-05T09:58:09Z</time>
      </trkpt>
      <trkpt lat="45.9644" lon="4.71609">
        <ele>183</ele>
        <time>2018-01-05T09:58:10Z</time>
      </trkpt>
      <trkpt lat="45.96447" lon="4.71609">
        <ele>183</ele>
        <time>2018-01-05T09:58:11Z</time>
      </trkpt>
      <trkpt lat="45.96454" lon="4.7161">
        <ele>183</ele>
        <time>2018-01-05T09:58:12Z</time>
      </trkpt>
      <trkpt lat="45.9646" lon="4.71612">
        <ele>183</ele>
        <time>2018-01-05T09:58:13Z</time>
      </trkpt>
      <trkpt lat="45.96466" lon="4.71613">
        <ele>183</ele>
        <time>2018-01-05T09:58:14Z</time>
      </trkpt>
      <trkpt lat="45.96471" lon="4.71614">
        <ele>183</ele>
        <time>2018-01-05T09:58:15Z</time>
      </trkpt>
      <trkpt lat="45.96477" lon="4.71615">
        <ele>183</ele>
        <time>2018-01-05T09:58:16Z</time>
      </trkpt>
      <trkpt lat="45.96483" lon="4.71617">
        <ele>183</ele>
        <time>2018-01-05T09:58:17Z</time>
      </trkpt>
      <trkpt lat="45.96489" lon="4.71618">
        <ele>183</ele>
        <time>2018-01-05T09:58:18Z</time>
      </trkpt>
      <trkpt lat="45.96494" lon="4.71619">
        <ele>183</ele>
        <time>2018-01-05T09:58:19Z</time>
      </trkpt>
      <trkpt lat="45.96499" lon="4.71619">
        <ele>183</ele>
        <time>2018-01-05T09:58:20Z</time>
      </trkpt>
      <trkpt lat="45.96504" lon="4.7162">
        <ele>184</ele>
        <time>2018-01-05T09:58:21Z</time>
      </trkpt>
      <trkpt lat="45.96508" lon="4.71622">
        <ele>184</ele>
        <time>2018-01-05T09:58:22Z</time>
      </trkpt>
      <trkpt lat="45.96514" lon="4.71627">
        <ele>184</ele>
        <time>2018-01-05T09:58:24Z</time>
      </trkpt>
      <trkpt lat="45.96517" lon="4.71631">
        <ele>184</ele>
        <time>2018-01-05T09:58:25Z</time>
      </trkpt>
      <trkpt lat="45.96524" lon="4.71639">
        <ele>183</ele>
        <time>2018-01-05T09:58:27Z</time>
      </trkpt>
      <trkpt lat="45.96529" lon="4.71642">
        <ele>183</ele>
        <time>2018-01-05T09:58:28Z</time>
      </trkpt>
      <trkpt lat="45.96534" lon="4.71642">
        <ele>184</ele>
        <time>2018-01-05T09:58:29Z</time>
      </trkpt>
      <trkpt lat="45.96539" lon="4.7164">
        <ele>184</ele>
        <time>2018-01-05T09:58:30Z</time>
      </trkpt>
      <trkpt lat="45.96543" lon="4.71634">
        <ele>184</ele>
        <time>2018-01-05T09:58:31Z</time>
      </trkpt>
      <trkpt lat="45.96548" lon="4.7163">
        <ele>184</ele>
        <time>2018-01-05T09:58:32Z</time>
      </trkpt>
      <trkpt lat="45.96553" lon="4.71627">
        <ele>184</ele>
        <time>2018-01-05T09:58:33Z</time>
      </trkpt>
      <trkpt lat="45.96559" lon="4.71625">
        <ele>185</ele>
        <time>2018-01-05T09:58:34Z</time>
      </trkpt>
      <trkpt lat="45.96565" lon="4.71625">
        <ele>185</ele>
        <time>2018-01-05T09:58:35Z</time>
      </trkpt>
      <trkpt lat="45.9657" lon="4.71625">
        <ele>185</ele>
        <time>2018-01-05T09:58:36Z</time>
      </trkpt>
      <trkpt lat="45.96577" lon="4.71626">
        <ele>185</ele>
        <time>2018-01-05T09:58:37Z</time>
      </trkpt>
      <trkpt lat="45.96582" lon="4.71627">
        <ele>185</ele>
        <time>2018-01-05T09:58:38Z</time>
      </trkpt>
      <trkpt lat="45.96588" lon="4.7163">
        <ele>187</ele>
        <time>2018-01-05T09:58:39Z</time>
      </trkpt>
      <trkpt lat="45.96594" lon="4.71632">
        <ele>187</ele>
        <time>2018-01-05T09:58:40Z</time>
      </trkpt>
      <trkpt lat="45.96599" lon="4.71633">
        <ele>187</ele>
        <time>2018-01-05T09:58:41Z</time>
      </trkpt>
      <trkpt lat="45.96605" lon="4.71634">
        <ele>187</ele>
        <time>2018-01-05T09:58:42Z</time>
      </trkpt>
      <trkpt lat="45.9661" lon="4.71635">
        <ele>187</ele>
        <time>2018-01-05T09:58:43Z</time>
      </trkpt>
      <trkpt lat="45.96615" lon="4.71635">
        <ele>187</ele>
        <time>2018-01-05T09:58:44Z</time>
      </trkpt>
      <trkpt lat="45.96619" lon="4.71636">
        <ele>187</ele>
        <time>2018-01-05T09:58:45Z</time>
      </trkpt>
      <trkpt lat="45.96625" lon="4.71636">
        <ele>187</ele>
        <time>2018-01-05T09:58:46Z</time>
      </trkpt>
      <trkpt lat="45.9663" lon="4.71637">
        <ele>187</ele>
        <time>2018-01-05T09:58:47Z</time>
      </trkpt>
      <trkpt lat="45.96634" lon="4.71638">
        <ele>188</ele>
        <time>2018-01-05T09:58:48Z</time>
      </trkpt>
      <trkpt lat="45.96643" lon="4.71638">
        <ele>188</ele>
        <time>2018-01-05T09:58:50Z</time>
      </trkpt>
      <trkpt lat="45.96647" lon="4.71639">
        <ele>188</ele>
        <time>2018-01-05T09:58:51Z</time>
      </trkpt>
      <trkpt lat="45.96653" lon="4.7164">
        <ele>188</ele>
        <time>2018-01-05T09:58:52Z</time>
      </trkpt>
      <trkpt lat="45.96657" lon="4.7164">
        <ele>188</ele>
        <time>2018-01-05T09:58:53Z</time>
      </trkpt>
      <trkpt lat="45.96662" lon="4.71641">
        <ele>188</ele>
        <time>2018-01-05T09:58:54Z</time>
      </trkpt>
      <trkpt lat="45.96667" lon="4.71642">
        <ele>189</ele>
        <time>2018-01-05T09:58:55Z</time>
      </trkpt>
      <trkpt lat="45.96672" lon="4.71643">
        <ele>189</ele>
        <time>2018-01-05T09:58:56Z</time>
      </trkpt>
      <trkpt lat="45.96677" lon="4.71643">
        <ele>189</ele>
        <time>2018-01-05T09:58:57Z</time>
      </trkpt>
      <trkpt lat="45.96683" lon="4.71645">
        <ele>189</ele>
        <time>2018-01-05T09:58:58Z</time>
      </trkpt>
      <trkpt lat="45.96689" lon="4.71646">
        <ele>189</ele>
        <time>2018-01-05T09:58:59Z</time>
      </trkpt>
      <trkpt lat="45.96695" lon="4.71648">
        <ele>190</ele>
        <time>2018-01-05T09:59:00Z</time>
      </trkpt>
      <trkpt lat="45.96702" lon="4.71648">
        <ele>190</ele>
        <time>2018-01-05T09:59:01Z</time>
      </trkpt>
      <trkpt lat="45.96707" lon="4.71649">
        <ele>190</ele>
        <time>2018-01-05T09:59:02Z</time>
      </trkpt>
      <trkpt lat="45.96713" lon="4.7165">
        <ele>190</ele>
        <time>2018-01-05T09:59:03Z</time>
      </trkpt>
      <trkpt lat="45.96719" lon="4.71651">
        <ele>190</ele>
        <time>2018-01-05T09:59:04Z</time>
      </trkpt>
      <trkpt lat="45.96725" lon="4.71652">
        <ele>190</ele>
        <time>2018-01-05T09:59:05Z</time>
      </trkpt>
      <trkpt lat="45.9673" lon="4.71651">
        <ele>190</ele>
        <time>2018-01-05T09:59:06Z</time>
      </trkpt>
      <trkpt lat="45.96735" lon="4.71652">
        <ele>190</ele>
        <time>2018-01-05T09:59:07Z</time>
      </trkpt>
      <trkpt lat="45.9674" lon="4.71653">
        <ele>190</ele>
        <time>2018-01-05T09:59:08Z</time>
      </trkpt>
      <trkpt lat="45.96745" lon="4.71653">
        <ele>190</ele>
        <time>2018-01-05T09:59:09Z</time>
      </trkpt>
      <trkpt lat="45.96751" lon="4.71654">
        <ele>191</ele>
        <time>2018-01-05T09:59:10Z</time>
      </trkpt>
      <trkpt lat="45.96755" lon="4.71654">
        <ele>191</ele>
        <time>2018-01-05T09:59:11Z</time>
      </trkpt>
      <trkpt lat="45.9676" lon="4.71657">
        <ele>191</ele>
        <time>2018-01-05T09:59:12Z</time>
      </trkpt>
      <trkpt lat="45.96765" lon="4.71658">
        <ele>191</ele>
        <time>2018-01-05T09:59:13Z</time>
      </trkpt>
      <trkpt lat="45.96771" lon="4.71659">
        <ele>191</ele>
        <time>2018-01-05T09:59:14Z</time>
      </trkpt>
      <trkpt lat="45.96777" lon="4.7166">
        <ele>192</ele>
        <time>2018-01-05T09:59:15Z</time>
      </trkpt>
      <trkpt lat="45.96783" lon="4.71661">
        <ele>192</ele>
        <time>2018-01-05T09:59:16Z</time>
      </trkpt>
      <trkpt lat="45.96788" lon="4.71661">
        <ele>192</ele>
        <time>2018-01-05T09:59:17Z</time>
      </trkpt>
      <trkpt lat="45.96793" lon="4.71662">
        <ele>192</ele>
        <time>2018-01-05T09:59:18Z</time>
      </trkpt>
      <trkpt lat="45.96798" lon="4.71663">
        <ele>192</ele>
        <time>2018-01-05T09:59:19Z</time>
      </trkpt>
      <trkpt lat="45.96803" lon="4.71664">
        <ele>192</ele>
        <time>2018-01-05T09:59:20Z</time>
      </trkpt>
      <trkpt lat="45.96808" lon="4.71664">
        <ele>193</ele>
        <time>2018-01-05T09:59:21Z</time>
      </trkpt>
      <trkpt lat="45.96813" lon="4.71664">
        <ele>193</ele>
        <time>2018-01-05T09:59:22Z</time>
      </trkpt>
      <trkpt lat="45.96817" lon="4.71666">
        <ele>192</ele>
        <time>2018-01-05T09:59:23Z</time>
      </trkpt>
      <trkpt lat="45.96823" lon="4.71667">
        <ele>190</ele>
        <time>2018-01-05T09:59:24Z</time>
      </trkpt>
      <trkpt lat="45.96828" lon="4.71669">
        <ele>191</ele>
        <time>2018-01-05T09:59:25Z</time>
      </trkpt>
      <trkpt lat="45.96834" lon="4.7167">
        <ele>192</ele>
        <time>2018-01-05T09:59:26Z</time>
      </trkpt>
      <trkpt lat="45.96838" lon="4.7167">
        <ele>191</ele>
        <time>2018-01-05T09:59:27Z</time>
      </trkpt>
      <trkpt lat="45.96845" lon="4.71672">
        <ele>191</ele>
        <time>2018-01-05T09:59:28Z</time>
      </trkpt>
      <trkpt lat="45.9685" lon="4.71672">
        <ele>191</ele>
        <time>2018-01-05T09:59:29Z</time>
      </trkpt>
      <trkpt lat="45.96855" lon="4.71673">
        <ele>190</ele>
        <time>2018-01-05T09:59:30Z</time>
      </trkpt>
      <trkpt lat="45.96861" lon="4.71674">
        <ele>190</ele>
        <time>2018-01-05T09:59:31Z</time>
      </trkpt>
      <trkpt lat="45.96866" lon="4.71674">
        <ele>190</ele>
        <time>2018-01-05T09:59:32Z</time>
      </trkpt>
      <trkpt lat="45.96871" lon="4.71675">
        <ele>190</ele>
        <time>2018-01-05T09:59:33Z</time>
      </trkpt>
      <trkpt lat="45.96877" lon="4.71675">
        <ele>190</ele>
        <time>2018-01-05T09:59:34Z</time>
      </trkpt>
      <trkpt lat="45.96882" lon="4.71676">
        <ele>191</ele>
        <time>2018-01-05T09:59:35Z</time>
      </trkpt>
      <trkpt lat="45.96887" lon="4.71676">
        <ele>191</ele>
        <time>2018-01-05T09:59:36Z</time>
      </trkpt>
      <trkpt lat="45.96891" lon="4.71676">
        <ele>191</ele>
        <time>2018-01-05T09:59:37Z</time>
      </trkpt>
      <trkpt lat="45.96896" lon="4.71677">
        <ele>191</ele>
        <time>2018-01-05T09:59:38Z</time>
      </trkpt>
      <trkpt lat="45.96901" lon="4.71677">
        <ele>192</ele>
        <time>2018-01-05T09:59:39Z</time>
      </trkpt>
      <trkpt lat="45.96906" lon="4.71677">
        <ele>192</ele>
        <time>2018-01-05T09:59:40Z</time>
      </trkpt>
      <trkpt lat="45.96912" lon="4.71677">
        <ele>193</ele>
        <time>2018-01-05T09:59:41Z</time>
      </trkpt>
      <trkpt lat="45.96917" lon="4.71677">
        <ele>193</ele>
        <time>2018-01-05T09:59:42Z</time>
      </trkpt>
      <trkpt lat="45.96921" lon="4.71677">
        <ele>193</ele>
        <time>2018-01-05T09:59:43Z</time>
      </trkpt>
      <trkpt lat="45.96927" lon="4.71679">
        <ele>193</ele>
        <time>2018-01-05T09:59:44Z</time>
      </trkpt>
      <trkpt lat="45.96932" lon="4.7168">
        <ele>192</ele>
        <time>2018-01-05T09:59:45Z</time>
      </trkpt>
      <trkpt lat="45.96938" lon="4.71681">
        <ele>192</ele>
        <time>2018-01-05T09:59:46Z</time>
      </trkpt>
      <trkpt lat="45.96945" lon="4.71682">
        <ele>192</ele>
        <time>2018-01-05T09:59:47Z</time>
      </trkpt>
      <trkpt lat="45.96951" lon="4.71683">
        <ele>192</ele>
        <time>2018-01-05T09:59:48Z</time>
      </trkpt>
      <trkpt lat="45.96958" lon="4.71684">
        <ele>192</ele>
        <time>2018-01-05T09:59:49Z</time>
      </trkpt>
      <trkpt lat="45.96963" lon="4.71683">
        <ele>192</ele>
        <time>2018-01-05T09:59:50Z</time>
      </trkpt>
      <trkpt lat="45.96969" lon="4.71684">
        <ele>192</ele>
        <time>2018-01-05T09:59:51Z</time>
      </trkpt>
      <trkpt lat="45.96974" lon="4.71685">
        <ele>192</ele>
        <time>2018-01-05T09:59:52Z</time>
      </trkpt>
      <trkpt lat="45.96979" lon="4.71687">
        <ele>192</ele>
        <time>2018-01-05T09:59:53Z</time>
      </trkpt>
      <trkpt lat="45.96984" lon="4.71687">
        <ele>192</ele>
        <time>2018-01-05T09:59:54Z</time>
      </trkpt>
      <trkpt lat="45.96989" lon="4.71688">
        <ele>192</ele>
        <time>2018-01-05T09:59:55Z</time>
      </trkpt>
      <trkpt lat="45.96994" lon="4.71689">
        <ele>192</ele>
        <time>2018-01-05T09:59:56Z</time>
      </trkpt>
      <trkpt lat="45.96998" lon="4.71689">
        <ele>192</ele>
        <time>2018-01-05T09:59:57Z</time>
      </trkpt>
      <trkpt lat="45.97006" lon="4.71691">
        <ele>193</ele>
        <time>2018-01-05T09:59:59Z</time>
      </trkpt>
      <trkpt lat="45.97011" lon="4.71691">
        <ele>193</ele>
        <time>2018-01-05T10:00:00Z</time>
      </trkpt>
      <trkpt lat="45.97017" lon="4.71691">
        <ele>192</ele>
        <time>2018-01-05T10:00:01Z</time>
      </trkpt>
      <trkpt lat="45.97022" lon="4.71692">
        <ele>192</ele>
        <time>2018-01-05T10:00:02Z</time>
      </trkpt>
      <trkpt lat="45.97027" lon="4.71693">
        <ele>192</ele>
        <time>2018-01-05T10:00:03Z</time>
      </trkpt>
      <trkpt lat="45.97033" lon="4.71693">
        <ele>192</ele>
        <time>2018-01-05T10:00:04Z</time>
      </trkpt>
      <trkpt lat="45.97038" lon="4.71694">
        <ele>192</ele>
        <time>2018-01-05T10:00:05Z</time>
      </trkpt>
      <trkpt lat="45.97043" lon="4.71694">
        <ele>192</ele>
        <time>2018-01-05T10:00:06Z</time>
      </trkpt>
      <trkpt lat="45.97049" lon="4.71693">
        <ele>193</ele>
        <time>2018-01-05T10:00:07Z</time>
      </trkpt>
      <trkpt lat="45.97054" lon="4.71694">
        <ele>193</ele>
        <time>2018-01-05T10:00:08Z</time>
      </trkpt>
      <trkpt lat="45.9706" lon="4.71694">
        <ele>193</ele>
        <time>2018-01-05T10:00:09Z</time>
      </trkpt>
      <trkpt lat="45.97065" lon="4.71695">
        <ele>193</ele>
        <time>2018-01-05T10:00:10Z</time>
      </trkpt>
      <trkpt lat="45.9707" lon="4.71697">
        <ele>193</ele>
        <time>2018-01-05T10:00:11Z</time>
      </trkpt>
      <trkpt lat="45.97076" lon="4.71698">
        <ele>193</ele>
        <time>2018-01-05T10:00:12Z</time>
      </trkpt>
      <trkpt lat="45.97083" lon="4.71699">
        <ele>193</ele>
        <time>2018-01-05T10:00:13Z</time>
      </trkpt>
      <trkpt lat="45.97087" lon="4.71699">
        <ele>194</ele>
        <time>2018-01-05T10:00:14Z</time>
      </trkpt>
      <trkpt lat="45.97093" lon="4.71699">
        <ele>194</ele>
        <time>2018-01-05T10:00:15Z</time>
      </trkpt>
      <trkpt lat="45.97098" lon="4.717">
        <ele>194</ele>
        <time>2018-01-05T10:00:16Z</time>
      </trkpt>
      <trkpt lat="45.97103" lon="4.71699">
        <ele>194</ele>
        <time>2018-01-05T10:00:17Z</time>
      </trkpt>
      <trkpt lat="45.97108" lon="4.71699">
        <ele>194</ele>
        <time>2018-01-05T10:00:18Z</time>
      </trkpt>
      <trkpt lat="45.97113" lon="4.71698">
        <ele>194</ele>
        <time>2018-01-05T10:00:19Z</time>
      </trkpt>
      <trkpt lat="45.9712" lon="4.71699">
        <ele>194</ele>
        <time>2018-01-05T10:00:20Z</time>
      </trkpt>
      <trkpt lat="45.97125" lon="4.717">
        <ele>194</ele>
        <time>2018-01-05T10:00:21Z</time>
      </trkpt>
      <trkpt lat="45.97131" lon="4.717">
        <ele>194</ele>
        <time>2018-01-05T10:00:22Z</time>
      </trkpt>
      <trkpt lat="45.97137" lon="4.717">
        <ele>194</ele>
        <time>2018-01-05T10:00:23Z</time>
      </trkpt>
      <trkpt lat="45.97142" lon="4.71701">
        <ele>195</ele>
        <time>2018-01-05T10:00:24Z</time>
      </trkpt>
      <trkpt lat="45.97147" lon="4.71702">
        <ele>195</ele>
        <time>2018-01-05T10:00:25Z</time>
      </trkpt>
      <trkpt lat="45.97153" lon="4.71703">
        <ele>195</ele>
        <time>2018-01-05T10:00:26Z</time>
      </trkpt>
      <trkpt lat="45.97158" lon="4.71703">
        <ele>195</ele>
        <time>2018-01-05T10:00:27Z</time>
      </trkpt>
      <trkpt lat="45.97164" lon="4.71703">
        <ele>195</ele>
        <time>2018-01-05T10:00:28Z</time>
      </trkpt>
      <trkpt lat="45.97169" lon="4.71703">
        <ele>196</ele>
        <time>2018-01-05T10:00:29Z</time>
      </trkpt>
      <trkpt lat="45.97175" lon="4.71703">
        <ele>196</ele>
        <time>2018-01-05T10:00:30Z</time>
      </trkpt>
      <trkpt lat="45.97181" lon="4.71704">
        <ele>196</ele>
        <time>2018-01-05T10:00:31Z</time>
      </trkpt>
      <trkpt lat="45.97186" lon="4.71704">
        <ele>196</ele>
        <time>2018-01-05T10:00:32Z</time>
      </trkpt>
      <trkpt lat="45.97192" lon="4.71704">
        <ele>196</ele>
        <time>2018-01-05T10:00:33Z</time>
      </trkpt>
      <trkpt lat="45.97197" lon="4.71705">
        <ele>196</ele>
        <time>2018-01-05T10:00:34Z</time>
      </trkpt>
      <trkpt lat="45.97203" lon="4.71704">
        <ele>196</ele>
        <time>2018-01-05T10:00:35Z</time>
      </trkpt>
      <trkpt lat="45.97209" lon="4.71705">
        <ele>196</ele>
        <time>2018-01-05T10:00:36Z</time>
      </trkpt>
      <trkpt lat="45.97215" lon="4.71705">
        <ele>196</ele>
        <time>2018-01-05T10:00:37Z</time>
      </trkpt>
      <trkpt lat="45.97221" lon="4.71705">
        <ele>196</ele>
        <time>2018-01-05T10:00:38Z</time>
      </trkpt>
      <trkpt lat="45.97227" lon="4.71705">
        <ele>197</ele>
        <time>2018-01-05T10:00:39Z</time>
      </trkpt>
      <trkpt lat="45.97232" lon="4.71706">
        <ele>197</ele>
        <time>2018-01-05T10:00:40Z</time>
      </trkpt>
      <trkpt lat="45.97237" lon="4.71706">
        <ele>197</ele>
        <time>2018-01-05T10:00:41Z</time>
      </trkpt>
      <trkpt lat="45.97243" lon="4.71708">
        <ele>197</ele>
        <time>2018-01-05T10:00:42Z</time>
      </trkpt>
      <trkpt lat="45.97248" lon="4.7171">
        <ele>196</ele>
        <time>2018-01-05T10:00:43Z</time>
      </trkpt>
      <trkpt lat="45.97254" lon="4.71711">
        <ele>196</ele>
        <time>2018-01-05T10:00:44Z</time>
      </trkpt>
      <trkpt lat="45.9726" lon="4.71712">
        <ele>196</ele>
        <time>2018-01-05T10:00:45Z</time>
      </trkpt>
      <trkpt lat="45.97266" lon="4.71714">
        <ele>196</ele>
        <time>2018-01-05T10:00:46Z</time>
      </trkpt>
      <trkpt lat="45.97272" lon="4.71715">
        <ele>196</ele>
        <time>2018-01-05T10:00:47Z</time>
      </trkpt>
      <trkpt lat="45.97278" lon="4.71716">
        <ele>196</ele>
        <time>2018-01-05T10:00:48Z</time>
      </trkpt>
      <trkpt lat="45.97283" lon="4.71718">
        <ele>196</ele>
        <time>2018-01-05T10:00:49Z</time>
      </trkpt>
      <trkpt lat="45.97287" lon="4.71722">
        <ele>196</ele>
        <time>2018-01-05T10:00:50Z</time>
      </trkpt>
      <trkpt lat="45.97293" lon="4.71726">
        <ele>196</ele>
        <time>2018-01-05T10:00:51Z</time>
      </trkpt>
      <trkpt lat="45.97296" lon="4.7173">
        <ele>196</ele>
        <time>2018-01-05T10:00:52Z</time>
      </trkpt>
      <trkpt lat="45.97301" lon="4.71735">
        <ele>196</ele>
        <time>2018-01-05T10:00:53Z</time>
      </trkpt>
      <trkpt lat="45.97305" lon="4.71737">
        <ele>196</ele>
        <time>2018-01-05T10:00:54Z</time>
      </trkpt>
      <trkpt lat="45.9731" lon="4.71737">
        <ele>195</ele>
        <time>2018-01-05T10:00:55Z</time>
      </trkpt>
      <trkpt lat="45.97316" lon="4.71736">
        <ele>195</ele>
        <time>2018-01-05T10:00:56Z</time>
      </trkpt>
      <trkpt lat="45.97321" lon="4.71732">
        <ele>195</ele>
        <time>2018-01-05T10:00:57Z</time>
      </trkpt>
      <trkpt lat="45.97325" lon="4.71727">
        <ele>195</ele>
        <time>2018-01-05T10:00:58Z</time>
      </trkpt>
      <trkpt lat="45.97329" lon="4.71722">
        <ele>196</ele>
        <time>2018-01-05T10:00:59Z</time>
      </trkpt>
      <trkpt lat="45.97335" lon="4.71718">
        <ele>195</ele>
        <time>2018-01-05T10:01:00Z</time>
      </trkpt>
      <trkpt lat="45.9734" lon="4.71716">
        <ele>195</ele>
        <time>2018-01-05T10:01:01Z</time>
      </trkpt>
      <trkpt lat="45.97344" lon="4.71717">
        <ele>195</ele>
        <time>2018-01-05T10:01:02Z</time>
      </trkpt>
      <trkpt lat="45.97349" lon="4.71718">
        <ele>195</ele>
        <time>2018-01-05T10:01:03Z</time>
      </trkpt>
      <trkpt lat="45.97355" lon="4.71718">
        <ele>195</ele>
        <time>2018-01-05T10:01:04Z</time>
      </trkpt>
      <trkpt lat="45.9736" lon="4.7172">
        <ele>195</ele>
        <time>2018-01-05T10:01:05Z</time>
      </trkpt>
      <trkpt lat="45.97365" lon="4.7172">
        <ele>195</ele>
        <time>2018-01-05T10:01:06Z</time>
      </trkpt>
      <trkpt lat="45.9737" lon="4.7172">
        <ele>195</ele>
        <time>2018-01-05T10:01:07Z</time>
      </trkpt>
      <trkpt lat="45.97375" lon="4.71721">
        <ele>195</ele>
        <time>2018-01-05T10:01:08Z</time>
      </trkpt>
      <trkpt lat="45.97381" lon="4.71721">
        <ele>195</ele>
        <time>2018-01-05T10:01:09Z</time>
      </trkpt>
      <trkpt lat="45.97386" lon="4.71721">
        <ele>195</ele>
        <time>2018-01-05T10:01:10Z</time>
      </trkpt>
      <trkpt lat="45.97392" lon="4.71722">
        <ele>195</ele>
        <time>2018-01-05T10:01:11Z</time>
      </trkpt>
      <trkpt lat="45.97397" lon="4.71721">
        <ele>195</ele>
        <time>2018-01-05T10:01:12Z</time>
      </trkpt>
      <trkpt lat="45.97403" lon="4.71722">
        <ele>195</ele>
        <time>2018-01-05T10:01:13Z</time>
      </trkpt>
      <trkpt lat="45.97407" lon="4.71723">
        <ele>195</ele>
        <time>2018-01-05T10:01:14Z</time>
      </trkpt>
      <trkpt lat="45.97412" lon="4.71723">
        <ele>195</ele>
        <time>2018-01-05T10:01:15Z</time>
      </trkpt>
      <trkpt lat="45.97417" lon="4.71724">
        <ele>196</ele>
        <time>2018-01-05T10:01:16Z</time>
      </trkpt>
      <trkpt lat="45.97423" lon="4.71724">
        <ele>196</ele>
        <time>2018-01-05T10:01:17Z</time>
      </trkpt>
      <trkpt lat="45.97428" lon="4.71725">
        <ele>196</ele>
        <time>2018-01-05T10:01:18Z</time>
      </trkpt>
      <trkpt lat="45.97433" lon="4.71724">
        <ele>196</ele>
        <time>2018-01-05T10:01:19Z</time>
      </trkpt>
      <trkpt lat="45.97439" lon="4.71725">
        <ele>196</ele>
        <time>2018-01-05T10:01:20Z</time>
      </trkpt>
      <trkpt lat="45.97444" lon="4.71725">
        <ele>196</ele>
        <time>2018-01-05T10:01:21Z</time>
      </trkpt>
      <trkpt lat="45.97449" lon="4.71726">
        <ele>196</ele>
        <time>2018-01-05T10:01:22Z</time>
      </trkpt>
      <trkpt lat="45.97454" lon="4.71727">
        <ele>197</ele>
        <time>2018-01-05T10:01:23Z</time>
      </trkpt>
      <trkpt lat="45.97458" lon="4.71727">
        <ele>197</ele>
        <time>2018-01-05T10:01:24Z</time>
      </trkpt>
      <trkpt lat="45.97463" lon="4.71728">
        <ele>197</ele>
        <time>2018-01-05T10:01:25Z</time>
      </trkpt>
      <trkpt lat="45.97468" lon="4.71728">
        <ele>197</ele>
        <time>2018-01-05T10:01:26Z</time>
      </trkpt>
      <trkpt lat="45.97473" lon="4.71728">
        <ele>197</ele>
        <time>2018-01-05T10:01:27Z</time>
      </trkpt>
      <trkpt lat="45.97479" lon="4.71728">
        <ele>197</ele>
        <time>2018-01-05T10:01:28Z</time>
      </trkpt>
      <trkpt lat="45.97484" lon="4.71729">
        <ele>197</ele>
        <time>2018-01-05T10:01:29Z</time>
      </trkpt>
      <trkpt lat="45.9749" lon="4.71729">
        <ele>197</ele>
        <time>2018-01-05T10:01:30Z</time>
      </trkpt>
      <trkpt lat="45.97494" lon="4.71729">
        <ele>197</ele>
        <time>2018-01-05T10:01:31Z</time>
      </trkpt>
      <trkpt lat="45.975" lon="4.7173">
        <ele>197</ele>
        <time>2018-01-05T10:01:32Z</time>
      </trkpt>
      <trkpt lat="45.97505" lon="4.7173">
        <ele>198</ele>
        <time>2018-01-05T10:01:33Z</time>
      </trkpt>
      <trkpt lat="45.9751" lon="4.71731">
        <ele>198</ele>
        <time>2018-01-05T10:01:34Z</time>
      </trkpt>
      <trkpt lat="45.97515" lon="4.71732">
        <ele>198</ele>
        <time>2018-01-05T10:01:35Z</time>
      </trkpt>
      <trkpt lat="45.97521" lon="4.71732">
        <ele>198</ele>
        <time>2018-01-05T10:01:36Z</time>
      </trkpt>
      <trkpt lat="45.97525" lon="4.71735">
        <ele>198</ele>
        <time>2018-01-05T10:01:37Z</time>
      </trkpt>
      <trkpt lat="45.97531" lon="4.71735">
        <ele>198</ele>
        <time>2018-01-05T10:01:38Z</time>
      </trkpt>
      <trkpt lat="45.97535" lon="4.71734">
        <ele>198</ele>
        <time>2018-01-05T10:01:39Z</time>
      </trkpt>
      <trkpt lat="45.97542" lon="4.71735">
        <ele>198</ele>
        <time>2018-01-05T10:01:40Z</time>
      </trkpt>
      <trkpt lat="45.97547" lon="4.71735">
        <ele>198</ele>
        <time>2018-01-05T10:01:41Z</time>
      </trkpt>
      <trkpt lat="45.97553" lon="4.71735">
        <ele>197</ele>
        <time>2018-01-05T10:01:42Z</time>
      </trkpt>
      <trkpt lat="45.97559" lon="4.71735">
        <ele>197</ele>
        <time>2018-01-05T10:01:43Z</time>
      </trkpt>
      <trkpt lat="45.97565" lon="4.71735">
        <ele>197</ele>
        <time>2018-01-05T10:01:44Z</time>
      </trkpt>
      <trkpt lat="45.9757" lon="4.71737">
        <ele>197</ele>
        <time>2018-01-05T10:01:45Z</time>
      </trkpt>
      <trkpt lat="45.97575" lon="4.71737">
        <ele>197</ele>
        <time>2018-01-05T10:01:46Z</time>
      </trkpt>
      <trkpt lat="45.9758" lon="4.71738">
        <ele>196</ele>
        <time>2018-01-05T10:01:47Z</time>
      </trkpt>
      <trkpt lat="45.97586" lon="4.71738">
        <ele>196</ele>
        <time>2018-01-05T10:01:48Z</time>
      </trkpt>
      <trkpt lat="45.97592" lon="4.71739">
        <ele>196</ele>
        <time>2018-01-05T10:01:49Z</time>
      </trkpt>
      <trkpt lat="45.97598" lon="4.71743">
        <ele>196</ele>
        <time>2018-01-05T10:01:50Z</time>
      </trkpt>
      <trkpt lat="45.97602" lon="4.71748">
        <ele>196</ele>
        <time>2018-01-05T10:01:51Z</time>
      </trkpt>
      <trkpt lat="45.97606" lon="4.71754">
        <ele>194</ele>
        <time>2018-01-05T10:01:52Z</time>
      </trkpt>
      <trkpt lat="45.97611" lon="4.7176">
        <ele>194</ele>
        <time>2018-01-05T10:01:53Z</time>
      </trkpt>
      <trkpt lat="45.97617" lon="4.71762">
        <ele>194</ele>
        <time>2018-01-05T10:01:54Z</time>
      </trkpt>
      <trkpt lat="45.97622" lon="4.71762">
        <ele>194</ele>
        <time>2018-01-05T10:01:55Z</time>
      </trkpt>
      <trkpt lat="45.97627" lon="4.71758">
        <ele>194</ele>
        <time>2018-01-05T10:01:56Z</time>
      </trkpt>
      <trkpt lat="45.97632" lon="4.71755">
        <ele>194</ele>
        <time>2018-01-05T10:01:57Z</time>
      </trkpt>
      <trkpt lat="45.97636" lon="4.7175">
        <ele>194</ele>
        <time>2018-01-05T10:01:58Z</time>
      </trkpt>
      <trkpt lat="45.97641" lon="4.71747">
        <ele>196</ele>
        <time>2018-01-05T10:01:59Z</time>
      </trkpt>
      <trkpt lat="45.97647" lon="4.71748">
        <ele>196</ele>
        <time>2018-01-05T10:02:00Z</time>
      </trkpt>
      <trkpt lat="45.97652" lon="4.71748">
        <ele>195</ele>
        <time>2018-01-05T10:02:01Z</time>
      </trkpt>
      <trkpt lat="45.97657" lon="4.71748">
        <ele>195</ele>
        <time>2018-01-05T10:02:02Z</time>
      </trkpt>
      <trkpt lat="45.97664" lon="4.71749">
        <ele>194</ele>
        <time>2018-01-05T10:02:03Z</time>
      </trkpt>
      <trkpt lat="45.9767" lon="4.71749">
        <ele>194</ele>
        <time>2018-01-05T10:02:04Z</time>
      </trkpt>
      <trkpt lat="45.97676" lon="4.71749">
        <ele>195</ele>
        <time>2018-01-05T10:02:05Z</time>
      </trkpt>
      <trkpt lat="45.97681" lon="4.71749">
        <ele>195</ele>
        <time>2018-01-05T10:02:06Z</time>
      </trkpt>
      <trkpt lat="45.97687" lon="4.7175">
        <ele>195</ele>
        <time>2018-01-05T10:02:07Z</time>
      </trkpt>
      <trkpt lat="45.97692" lon="4.7175">
        <ele>195</ele>
        <time>2018-01-05T10:02:08Z</time>
      </trkpt>
      <trkpt lat="45.97698" lon="4.71751">
        <ele>195</ele>
        <time>2018-01-05T10:02:09Z</time>
      </trkpt>
      <trkpt lat="45.97704" lon="4.71752">
        <ele>195</ele>
        <time>2018-01-05T10:02:10Z</time>
      </trkpt>
      <trkpt lat="45.9771" lon="4.71752">
        <ele>195</ele>
        <time>2018-01-05T10:02:11Z</time>
      </trkpt>
      <trkpt lat="45.97715" lon="4.71752">
        <ele>195</ele>
        <time>2018-01-05T10:02:12Z</time>
      </trkpt>
      <trkpt lat="45.97721" lon="4.71752">
        <ele>195</ele>
        <time>2018-01-05T10:02:13Z</time>
      </trkpt>
      <trkpt lat="45.97727" lon="4.71753">
        <ele>195</ele>
        <time>2018-01-05T10:02:14Z</time>
      </trkpt>
      <trkpt lat="45.97733" lon="4.71753">
        <ele>195</ele>
        <time>2018-01-05T10:02:15Z</time>
      </trkpt>
      <trkpt lat="45.97739" lon="4.71754">
        <ele>196</ele>
        <time>2018-01-05T10:02:16Z</time>
      </trkpt>
      <trkpt lat="45.97746" lon="4.71754">
        <ele>196</ele>
        <time>2018-01-05T10:02:17Z</time>
      </trkpt>
      <trkpt lat="45.97752" lon="4.71755">
        <ele>196</ele>
        <time>2018-01-05T10:02:18Z</time>
      </trkpt>
      <trkpt lat="45.97757" lon="4.71754">
        <ele>196</ele>
        <time>2018-01-05T10:02:19Z</time>
      </trkpt>
      <trkpt lat="45.97764" lon="4.71756">
        <ele>196</ele>
        <time>2018-01-05T10:02:20Z</time>
      </trkpt>
      <trkpt lat="45.97769" lon="4.71755">
        <ele>195</ele>
        <time>2018-01-05T10:02:21Z</time>
      </trkpt>
      <trkpt lat="45.97774" lon="4.71755">
        <ele>195</ele>
        <time>2018-01-05T10:02:22Z</time>
      </trkpt>
      <trkpt lat="45.97779" lon="4.71755">
        <ele>195</ele>
        <time>2018-01-05T10:02:23Z</time>
      </trkpt>
      <trkpt lat="45.97785" lon="4.71755">
        <ele>195</ele>
        <time>2018-01-05T10:02:24Z</time>
      </trkpt>
      <trkpt lat="45.9779" lon="4.71756">
        <ele>195</ele>
        <time>2018-01-05T10:02:25Z</time>
      </trkpt>
      <trkpt lat="45.97795" lon="4.71755">
        <ele>195</ele>
        <time>2018-01-05T10:02:26Z</time>
      </trkpt>
      <trkpt lat="45.978" lon="4.71756">
        <ele>195</ele>
        <time>2018-01-05T10:02:27Z</time>
      </trkpt>
      <trkpt lat="45.97807" lon="4.71756">
        <ele>195</ele>
        <time>2018-01-05T10:02:28Z</time>
      </trkpt>
      <trkpt lat="45.97812" lon="4.71756">
        <ele>195</ele>
        <time>2018-01-05T10:02:29Z</time>
      </trkpt>
      <trkpt lat="45.97819" lon="4.71756">
        <ele>195</ele>
        <time>2018-01-05T10:02:30Z</time>
      </trkpt>
      <trkpt lat="45.97824" lon="4.71757">
        <ele>195</ele>
        <time>2018-01-05T10:02:31Z</time>
      </trkpt>
      <trkpt lat="45.97829" lon="4.71757">
        <ele>195</ele>
        <time>2018-01-05T10:02:32Z</time>
      </trkpt>
      <trkpt lat="45.97834" lon="4.71756">
        <ele>195</ele>
        <time>2018-01-05T10:02:33Z</time>
      </trkpt>
      <trkpt lat="45.97839" lon="4.71757">
        <ele>195</ele>
        <time>2018-01-05T10:02:34Z</time>
      </trkpt>
      <trkpt lat="45.97844" lon="4.71758">
        <ele>195</ele>
        <time>2018-01-05T10:02:35Z</time>
      </trkpt>
      <trkpt lat="45.97851" lon="4.71762">
        <ele>195</ele>
        <time>2018-01-05T10:02:36Z</time>
      </trkpt>
      <trkpt lat="45.97854" lon="4.71767">
        <ele>195</ele>
        <time>2018-01-05T10:02:37Z</time>
      </trkpt>
      <trkpt lat="45.97858" lon="4.71772">
        <ele>194</ele>
        <time>2018-01-05T10:02:38Z</time>
      </trkpt>
      <trkpt lat="45.97863" lon="4.71777">
        <ele>194</ele>
        <time>2018-01-05T10:02:39Z</time>
      </trkpt>
      <trkpt lat="45.97866" lon="4.7178">
        <ele>194</ele>
        <time>2018-01-05T10:02:40Z</time>
      </trkpt>
      <trkpt lat="45.97872" lon="4.71781">
        <ele>194</ele>
        <time>2018-01-05T10:02:41Z</time>
      </trkpt>
      <trkpt lat="45.97878" lon="4.7178">
        <ele>194</ele>
        <time>2018-01-05T10:02:42Z</time>
      </trkpt>
      <trkpt lat="45.97884" lon="4.71781">
        <ele>194</ele>
        <time>2018-01-05T10:02:43Z</time>
      </trkpt>
      <trkpt lat="45.97889" lon="4.71776">
        <ele>194</ele>
        <time>2018-01-05T10:02:44Z</time>
      </trkpt>
      <trkpt lat="45.97892" lon="4.7177">
        <ele>194</ele>
        <time>2018-01-05T10:02:45Z</time>
      </trkpt>
      <trkpt lat="45.97895" lon="4.71763">
        <ele>195</ele>
        <time>2018-01-05T10:02:46Z</time>
      </trkpt>
      <trkpt lat="45.97897" lon="4.71756">
        <ele>195</ele>
        <time>2018-01-05T10:02:47Z</time>
      </trkpt>
      <trkpt lat="45.97899" lon="4.71749">
        <ele>195</ele>
        <time>2018-01-05T10:02:48Z</time>
      </trkpt>
      <trkpt lat="45.979" lon="4.71741">
        <ele>196</ele>
        <time>2018-01-05T10:02:49Z</time>
      </trkpt>
      <trkpt lat="45.979" lon="4.71733">
        <ele>196</ele>
        <time>2018-01-05T10:02:50Z</time>
      </trkpt>
      <trkpt lat="45.979" lon="4.71725">
        <ele>196</ele>
        <time>2018-01-05T10:02:51Z</time>
      </trkpt>
      <trkpt lat="45.97903" lon="4.71717">
        <ele>196</ele>
        <time>2018-01-05T10:02:52Z</time>
      </trkpt>
      <trkpt lat="45.97905" lon="4.7171">
        <ele>196</ele>
        <time>2018-01-05T10:02:53Z</time>
      </trkpt>
      <trkpt lat="45.97909" lon="4.71703">
        <ele>196</ele>
        <time>2018-01-05T10:02:54Z</time>
      </trkpt>
      <trkpt lat="45.97913" lon="4.71697">
        <ele>196</ele>
        <time>2018-01-05T10:02:55Z</time>
      </trkpt>
      <trkpt lat="45.97917" lon="4.71691">
        <ele>196</ele>
        <time>2018-01-05T10:02:56Z</time>
      </trkpt>
      <trkpt lat="45.97921" lon="4.7169">
        <ele>196</ele>
        <time>2018-01-05T10:02:57Z</time>
      </trkpt>
      <trkpt lat="45.97925" lon="4.71686">
        <ele>196</ele>
        <time>2018-01-05T10:02:58Z</time>
      </trkpt>
      <trkpt lat="45.9793" lon="4.71681">
        <ele>196</ele>
        <time>2018-01-05T10:02:59Z</time>
      </trkpt>
      <trkpt lat="45.97935" lon="4.71678">
        <ele>197</ele>
        <time>2018-01-05T10:03:00Z</time>
      </trkpt>
      <trkpt lat="45.97939" lon="4.71674">
        <ele>197</ele>
        <time>2018-01-05T10:03:01Z</time>
      </trkpt>
      <trkpt lat="45.97943" lon="4.71669">
        <ele>197</ele>
        <time>2018-01-05T10:03:02Z</time>
      </trkpt>
      <trkpt lat="45.97949" lon="4.71664">
        <ele>197</ele>
        <time>2018-01-05T10:03:03Z</time>
      </trkpt>
      <trkpt lat="45.97954" lon="4.71661">
        <ele>197</ele>
        <time>2018-01-05T10:03:04Z</time>
      </trkpt>
      <trkpt lat="45.97958" lon="4.71656">
        <ele>197</ele>
        <time>2018-01-05T10:03:05Z</time>
      </trkpt>
      <trkpt lat="45.97964" lon="4.71653">
        <ele>197</ele>
        <time>2018-01-05T10:03:06Z</time>
      </trkpt>
      <trkpt lat="45.97969" lon="4.7165">
        <ele>197</ele>
        <time>2018-01-05T10:03:07Z</time>
      </trkpt>
      <trkpt lat="45.97974" lon="4.71646">
        <ele>197</ele>
        <time>2018-01-05T10:03:08Z</time>
      </trkpt>
      <trkpt lat="45.97978" lon="4.71641">
        <ele>197</ele>
        <time>2018-01-05T10:03:09Z</time>
      </trkpt>
      <trkpt lat="45.97983" lon="4.71639">
        <ele>197</ele>
        <time>2018-01-05T10:03:10Z</time>
      </trkpt>
      <trkpt lat="45.97988" lon="4.71635">
        <ele>198</ele>
        <time>2018-01-05T10:03:11Z</time>
      </trkpt>
      <trkpt lat="45.97991" lon="4.71632">
        <ele>198</ele>
        <time>2018-01-05T10:03:12Z</time>
      </trkpt>
      <trkpt lat="45.97996" lon="4.71626">
        <ele>198</ele>
        <time>2018-01-05T10:03:13Z</time>
      </trkpt>
      <trkpt lat="45.98" lon="4.71626">
        <ele>198</ele>
        <time>2018-01-05T10:03:14Z</time>
      </trkpt>
      <trkpt lat="45.98005" lon="4.71624">
        <ele>198</ele>
        <time>2018-01-05T10:03:15Z</time>
      </trkpt>
      <trkpt lat="45.98009" lon="4.71621">
        <ele>198</ele>
        <time>2018-01-05T10:03:16Z</time>
      </trkpt>
      <trkpt lat="45.98014" lon="4.7162">
        <ele>198</ele>
        <time>2018-01-05T10:03:17Z</time>
      </trkpt>
      <trkpt lat="45.98019" lon="4.71617">
        <ele>198</ele>
        <time>2018-01-05T10:03:18Z</time>
      </trkpt>
      <trkpt lat="45.98025" lon="4.7161">
        <ele>198</ele>
        <time>2018-01-05T10:03:20Z</time>
      </trkpt>
      <trkpt lat="45.98029" lon="4.71607">
        <ele>198</ele>
        <time>2018-01-05T10:03:21Z</time>
      </trkpt>
      <trkpt lat="45.98036" lon="4.716">
        <ele>198</ele>
        <time>2018-01-05T10:03:23Z</time>
      </trkpt>
      <trkpt lat="45.98039" lon="4.71598">
        <ele>198</ele>
        <time>2018-01-05T10:03:24Z</time>
      </trkpt>
      <trkpt lat="45.98044" lon="4.71592">
        <ele>198</ele>
        <time>2018-01-05T10:03:26Z</time>
      </trkpt>
      <trkpt lat="45.98047" lon="4.71588">
        <ele>198</ele>
        <time>2018-01-05T10:03:27Z</time>
      </trkpt>
      <trkpt lat="45.98053" lon="4.71584">
        <ele>198</ele>
        <time>2018-01-05T10:03:29Z</time>
      </trkpt>
      <trkpt lat="45.98055" lon="4.71581">
        <ele>198</ele>
        <time>2018-01-05T10:03:30Z</time>
      </trkpt>
      <trkpt lat="45.98059" lon="4.71578">
        <ele>198</ele>
        <time>2018-01-05T10:03:31Z</time>
      </trkpt>
      <trkpt lat="45.98063" lon="4.71574">
        <ele>198</ele>
        <time>2018-01-05T10:03:32Z</time>
      </trkpt>
      <trkpt lat="45.98071" lon="4.71568">
        <ele>198</ele>
        <time>2018-01-05T10:03:34Z</time>
      </trkpt>
      <trkpt lat="45.98076" lon="4.71566">
        <ele>198</ele>
        <time>2018-01-05T10:03:35Z</time>
      </trkpt>
      <trkpt lat="45.98081" lon="4.71564">
        <ele>198</ele>
        <time>2018-01-05T10:03:36Z</time>
      </trkpt>
      <trkpt lat="45.98086" lon="4.7156">
        <ele>198</ele>
        <time>2018-01-05T10:03:37Z</time>
      </trkpt>
      <trkpt lat="45.98091" lon="4.71557">
        <ele>198</ele>
        <time>2018-01-05T10:03:38Z</time>
      </trkpt>
      <trkpt lat="45.98096" lon="4.71554">
        <ele>197</ele>
        <time>2018-01-05T10:03:39Z</time>
      </trkpt>
      <trkpt lat="45.98101" lon="4.7155">
        <ele>197</ele>
        <time>2018-01-05T10:03:40Z</time>
      </trkpt>
      <trkpt lat="45.98106" lon="4.71547">
        <ele>197</ele>
        <time>2018-01-05T10:03:41Z</time>
      </trkpt>
      <trkpt lat="45.98111" lon="4.71544">
        <ele>197</ele>
        <time>2018-01-05T10:03:42Z</time>
      </trkpt>
      <trkpt lat="45.98115" lon="4.71541">
        <ele>197</ele>
        <time>2018-01-05T10:03:43Z</time>
      </trkpt>
      <trkpt lat="45.98119" lon="4.71538">
        <ele>197</ele>
        <time>2018-01-05T10:03:44Z</time>
      </trkpt>
      <trkpt lat="45.98127" lon="4.71535">
        <ele>197</ele>
        <time>2018-01-05T10:03:45Z</time>
      </trkpt>
      <trkpt lat="45.98132" lon="4.71533">
        <ele>197</ele>
        <time>2018-01-05T10:03:46Z</time>
      </trkpt>
      <trkpt lat="45.98137" lon="4.7153">
        <ele>197</ele>
        <time>2018-01-05T10:03:47Z</time>
      </trkpt>
      <trkpt lat="45.98144" lon="4.71525">
        <ele>197</ele>
        <time>2018-01-05T10:03:49Z</time>
      </trkpt>
      <trkpt lat="45.98149" lon="4.71523">
        <ele>197</ele>
        <time>2018-01-05T10:03:50Z</time>
      </trkpt>
      <trkpt lat="45.98156" lon="4.71519">
        <ele>197</ele>
        <time>2018-01-05T10:03:52Z</time>
      </trkpt>
      <trkpt lat="45.98159" lon="4.71517">
        <ele>197</ele>
        <time>2018-01-05T10:03:53Z</time>
      </trkpt>
      <trkpt lat="45.98166" lon="4.71514">
        <ele>197</ele>
        <time>2018-01-05T10:03:55Z</time>
      </trkpt>
      <trkpt lat="45.98169" lon="4.71513">
        <ele>197</ele>
        <time>2018-01-05T10:03:56Z</time>
      </trkpt>
      <trkpt lat="45.98176" lon="4.71508">
        <ele>197</ele>
        <time>2018-01-05T10:03:58Z</time>
      </trkpt>
      <trkpt lat="45.9818" lon="4.71508">
        <ele>197</ele>
        <time>2018-01-05T10:03:59Z</time>
      </trkpt>
      <trkpt lat="45.98185" lon="4.71508">
        <ele>197</ele>
        <time>2018-01-05T10:04:00Z</time>
      </trkpt>
      <trkpt lat="45.9819" lon="4.71508">
        <ele>197</ele>
        <time>2018-01-05T10:04:01Z</time>
      </trkpt>
      <trkpt lat="45.98195" lon="4.71508">
        <ele>197</ele>
        <time>2018-01-05T10:04:02Z</time>
      </trkpt>
      <trkpt lat="45.98201" lon="4.71508">
        <ele>197</ele>
        <time>2018-01-05T10:04:03Z</time>
      </trkpt>
      <trkpt lat="45.98207" lon="4.71509">
        <ele>197</ele>
        <time>2018-01-05T10:04:04Z</time>
      </trkpt>
      <trkpt lat="45.98213" lon="4.71511">
        <ele>196</ele>
        <time>2018-01-05T10:04:05Z</time>
      </trkpt>
      <trkpt lat="45.98218" lon="4.71513">
        <ele>196</ele>
        <time>2018-01-05T10:04:06Z</time>
      </trkpt>
      <trkpt lat="45.98223" lon="4.71516">
        <ele>196</ele>
        <time>2018-01-05T10:04:07Z</time>
      </trkpt>
      <trkpt lat="45.98227" lon="4.71519">
        <ele>196</ele>
        <time>2018-01-05T10:04:08Z</time>
      </trkpt>
      <trkpt lat="45.98232" lon="4.71522">
        <ele>196</ele>
        <time>2018-01-05T10:04:09Z</time>
      </trkpt>
      <trkpt lat="45.98237" lon="4.71525">
        <ele>196</ele>
        <time>2018-01-05T10:04:10Z</time>
      </trkpt>
      <trkpt lat="45.98242" lon="4.71528">
        <ele>196</ele>
        <time>2018-01-05T10:04:11Z</time>
      </trkpt>
      <trkpt lat="45.98248" lon="4.71532">
        <ele>196</ele>
        <time>2018-01-05T10:04:12Z</time>
      </trkpt>
      <trkpt lat="45.98253" lon="4.71535">
        <ele>197</ele>
        <time>2018-01-05T10:04:13Z</time>
      </trkpt>
      <trkpt lat="45.98258" lon="4.71538">
        <ele>197</ele>
        <time>2018-01-05T10:04:14Z</time>
      </trkpt>
      <trkpt lat="45.98264" lon="4.71542">
        <ele>197</ele>
        <time>2018-01-05T10:04:15Z</time>
      </trkpt>
      <trkpt lat="45.9827" lon="4.71545">
        <ele>197</ele>
        <time>2018-01-05T10:04:16Z</time>
      </trkpt>
      <trkpt lat="45.98275" lon="4.71549">
        <ele>198</ele>
        <time>2018-01-05T10:04:17Z</time>
      </trkpt>
      <trkpt lat="45.98282" lon="4.71551">
        <ele>198</ele>
        <time>2018-01-05T10:04:18Z</time>
      </trkpt>
      <trkpt lat="45.98287" lon="4.71555">
        <ele>198</ele>
        <time>2018-01-05T10:04:19Z</time>
      </trkpt>
      <trkpt lat="45.98292" lon="4.71559">
        <ele>198</ele>
        <time>2018-01-05T10:04:20Z</time>
      </trkpt>
      <trkpt lat="45.98298" lon="4.71562">
        <ele>198</ele>
        <time>2018-01-05T10:04:21Z</time>
      </trkpt>
      <trkpt lat="45.98303" lon="4.71565">
        <ele>198</ele>
        <time>2018-01-05T10:04:22Z</time>
      </trkpt>
      <trkpt lat="45.98308" lon="4.71566">
        <ele>198</ele>
        <time>2018-01-05T10:04:23Z</time>
      </trkpt>
      <trkpt lat="45.98313" lon="4.71568">
        <ele>198</ele>
        <time>2018-01-05T10:04:24Z</time>
      </trkpt>
      <trkpt lat="45.98317" lon="4.71571">
        <ele>198</ele>
        <time>2018-01-05T10:04:25Z</time>
      </trkpt>
      <trkpt lat="45.98322" lon="4.71574">
        <ele>198</ele>
        <time>2018-01-05T10:04:26Z</time>
      </trkpt>
      <trkpt lat="45.98326" lon="4.71577">
        <ele>199</ele>
        <time>2018-01-05T10:04:27Z</time>
      </trkpt>
      <trkpt lat="45.98331" lon="4.71579">
        <ele>199</ele>
        <time>2018-01-05T10:04:28Z</time>
      </trkpt>
      <trkpt lat="45.98336" lon="4.71582">
        <ele>199</ele>
        <time>2018-01-05T10:04:29Z</time>
      </trkpt>
      <trkpt lat="45.98341" lon="4.71586">
        <ele>199</ele>
        <time>2018-01-05T10:04:30Z</time>
      </trkpt>
      <trkpt lat="45.98346" lon="4.71589">
        <ele>198</ele>
        <time>2018-01-05T10:04:31Z</time>
      </trkpt>
      <trkpt lat="45.98351" lon="4.71592">
        <ele>198</ele>
        <time>2018-01-05T10:04:32Z</time>
      </trkpt>
      <trkpt lat="45.98356" lon="4.71595">
        <ele>198</ele>
        <time>2018-01-05T10:04:33Z</time>
      </trkpt>
      <trkpt lat="45.98361" lon="4.71598">
        <ele>198</ele>
        <time>2018-01-05T10:04:34Z</time>
      </trkpt>
      <trkpt lat="45.98366" lon="4.71601">
        <ele>198</ele>
        <time>2018-01-05T10:04:35Z</time>
      </trkpt>
      <trkpt lat="45.98374" lon="4.71606">
        <ele>198</ele>
        <time>2018-01-05T10:04:37Z</time>
      </trkpt>
      <trkpt lat="45.98378" lon="4.71606">
        <ele>198</ele>
        <time>2018-01-05T10:04:38Z</time>
      </trkpt>
      <trkpt lat="45.98386" lon="4.71603">
        <ele>198</ele>
        <time>2018-01-05T10:04:47Z</time>
      </trkpt>
      <trkpt lat="45.98388" lon="4.71602">
        <ele>198</ele>
        <time>2018-01-05T10:04:48Z</time>
      </trkpt>
      <trkpt lat="45.98395" lon="4.71597">
        <ele>198</ele>
        <time>2018-01-05T10:04:52Z</time>
      </trkpt>
      <trkpt lat="45.98397" lon="4.71594">
        <ele>197</ele>
        <time>2018-01-05T10:04:53Z</time>
      </trkpt>
      <trkpt lat="45.98403" lon="4.71587">
        <ele>197</ele>
        <time>2018-01-05T10:04:55Z</time>
      </trkpt>
      <trkpt lat="45.98408" lon="4.71581">
        <ele>197</ele>
        <time>2018-01-05T10:04:56Z</time>
      </trkpt>
      <trkpt lat="45.98412" lon="4.71576">
        <ele>197</ele>
        <time>2018-01-05T10:04:57Z</time>
      </trkpt>
      <trkpt lat="45.98416" lon="4.7157">
        <ele>198</ele>
        <time>2018-01-05T10:04:58Z</time>
      </trkpt>
      <trkpt lat="45.98421" lon="4.71566">
        <ele>197</ele>
        <time>2018-01-05T10:04:59Z</time>
      </trkpt>
      <trkpt lat="45.98425" lon="4.71561">
        <ele>197</ele>
        <time>2018-01-05T10:05:00Z</time>
      </trkpt>
      <trkpt lat="45.9843" lon="4.71557">
        <ele>197</ele>
        <time>2018-01-05T10:05:01Z</time>
      </trkpt>
      <trkpt lat="45.98434" lon="4.71553">
        <ele>197</ele>
        <time>2018-01-05T10:05:02Z</time>
      </trkpt>
      <trkpt lat="45.98438" lon="4.71549">
        <ele>197</ele>
        <time>2018-01-05T10:05:03Z</time>
      </trkpt>
      <trkpt lat="45.98442" lon="4.71545">
        <ele>197</ele>
        <time>2018-01-05T10:05:04Z</time>
      </trkpt>
      <trkpt lat="45.98447" lon="4.71542">
        <ele>197</ele>
        <time>2018-01-05T10:05:05Z</time>
      </trkpt>
      <trkpt lat="45.98452" lon="4.71539">
        <ele>197</ele>
        <time>2018-01-05T10:05:06Z</time>
      </trkpt>
      <trkpt lat="45.98457" lon="4.71537">
        <ele>197</ele>
        <time>2018-01-05T10:05:07Z</time>
      </trkpt>
      <trkpt lat="45.98461" lon="4.71534">
        <ele>197</ele>
        <time>2018-01-05T10:05:08Z</time>
      </trkpt>
      <trkpt lat="45.98467" lon="4.71534">
        <ele>197</ele>
        <time>2018-01-05T10:05:09Z</time>
      </trkpt>
      <trkpt lat="45.98473" lon="4.71532">
        <ele>197</ele>
        <time>2018-01-05T10:05:10Z</time>
      </trkpt>
      <trkpt lat="45.9848" lon="4.71534">
        <ele>196</ele>
        <time>2018-01-05T10:05:11Z</time>
      </trkpt>
      <trkpt lat="45.98486" lon="4.71534">
        <ele>196</ele>
        <time>2018-01-05T10:05:12Z</time>
      </trkpt>
      <trkpt lat="45.98491" lon="4.71532">
        <ele>196</ele>
        <time>2018-01-05T10:05:13Z</time>
      </trkpt>
      <trkpt lat="45.98498" lon="4.71531">
        <ele>196</ele>
        <time>2018-01-05T10:05:14Z</time>
      </trkpt>
      <trkpt lat="45.98504" lon="4.7153">
        <ele>195</ele>
        <time>2018-01-05T10:05:15Z</time>
      </trkpt>
      <trkpt lat="45.9851" lon="4.71527">
        <ele>195</ele>
        <time>2018-01-05T10:05:16Z</time>
      </trkpt>
      <trkpt lat="45.98516" lon="4.71525">
        <ele>195</ele>
        <time>2018-01-05T10:05:17Z</time>
      </trkpt>
      <trkpt lat="45.98523" lon="4.71523">
        <ele>194</ele>
        <time>2018-01-05T10:05:18Z</time>
      </trkpt>
      <trkpt lat="45.98529" lon="4.71521">
        <ele>194</ele>
        <time>2018-01-05T10:05:19Z</time>
      </trkpt>
      <trkpt lat="45.98535" lon="4.71519">
        <ele>194</ele>
        <time>2018-01-05T10:05:20Z</time>
      </trkpt>
      <trkpt lat="45.98541" lon="4.71516">
        <ele>194</ele>
        <time>2018-01-05T10:05:21Z</time>
      </trkpt>
      <trkpt lat="45.98548" lon="4.71516">
        <ele>194</ele>
        <time>2018-01-05T10:05:22Z</time>
      </trkpt>
      <trkpt lat="45.98556" lon="4.71516">
        <ele>194</ele>
        <time>2018-01-05T10:05:23Z</time>
      </trkpt>
      <trkpt lat="45.98562" lon="4.71512">
        <ele>193</ele>
        <time>2018-01-05T10:05:24Z</time>
      </trkpt>
      <trkpt lat="45.98569" lon="4.71509">
        <ele>193</ele>
        <time>2018-01-05T10:05:25Z</time>
      </trkpt>
      <trkpt lat="45.98577" lon="4.71507">
        <ele>193</ele>
        <time>2018-01-05T10:05:26Z</time>
      </trkpt>
      <trkpt lat="45.98583" lon="4.71506">
        <ele>192</ele>
        <time>2018-01-05T10:05:27Z</time>
      </trkpt>
      <trkpt lat="45.9859" lon="4.71505">
        <ele>192</ele>
        <time>2018-01-05T10:05:28Z</time>
      </trkpt>
      <trkpt lat="45.98596" lon="4.71506">
        <ele>192</ele>
        <time>2018-01-05T10:05:29Z</time>
      </trkpt>
      <trkpt lat="45.98602" lon="4.71506">
        <ele>192</ele>
        <time>2018-01-05T10:05:30Z</time>
      </trkpt>
      <trkpt lat="45.98609" lon="4.71507">
        <ele>191</ele>
        <time>2018-01-05T10:05:31Z</time>
      </trkpt>
      <trkpt lat="45.98616" lon="4.71504">
        <ele>191</ele>
        <time>2018-01-05T10:05:32Z</time>
      </trkpt>
      <trkpt lat="45.98623" lon="4.71503">
        <ele>191</ele>
        <time>2018-01-05T10:05:33Z</time>
      </trkpt>
      <trkpt lat="45.98631" lon="4.71501">
        <ele>191</ele>
        <time>2018-01-05T10:05:34Z</time>
      </trkpt>
      <trkpt lat="45.98639" lon="4.71498">
        <ele>190</ele>
        <time>2018-01-05T10:05:35Z</time>
      </trkpt>
      <trkpt lat="45.98645" lon="4.71501">
        <ele>190</ele>
        <time>2018-01-05T10:05:36Z</time>
      </trkpt>
      <trkpt lat="45.9865" lon="4.71498">
        <ele>190</ele>
        <time>2018-01-05T10:05:37Z</time>
      </trkpt>
      <trkpt lat="45.98655" lon="4.71498">
        <ele>190</ele>
        <time>2018-01-05T10:05:38Z</time>
      </trkpt>
      <trkpt lat="45.98661" lon="4.71498">
        <ele>189</ele>
        <time>2018-01-05T10:05:40Z</time>
      </trkpt>
      <trkpt lat="45.98665" lon="4.71501">
        <ele>189</ele>
        <time>2018-01-05T10:05:41Z</time>
      </trkpt>
      <trkpt lat="45.98673" lon="4.71497">
        <ele>188</ele>
        <time>2018-01-05T10:05:58Z</time>
      </trkpt>
      <trkpt lat="45.98674" lon="4.71499">
        <ele>188</ele>
        <time>2018-01-05T10:05:59Z</time>
      </trkpt>
      <trkpt lat="45.98683" lon="4.71499">
        <ele>188</ele>
        <time>2018-01-05T10:06:01Z</time>
      </trkpt>
      <trkpt lat="45.98687" lon="4.715">
        <ele>188</ele>
        <time>2018-01-05T10:06:02Z</time>
      </trkpt>
      <trkpt lat="45.98693" lon="4.71503">
        <ele>188</ele>
        <time>2018-01-05T10:06:03Z</time>
      </trkpt>
      <trkpt lat="45.98699" lon="4.71505">
        <ele>187</ele>
        <time>2018-01-05T10:06:04Z</time>
      </trkpt>
      <trkpt lat="45.98705" lon="4.71506">
        <ele>187</ele>
        <time>2018-01-05T10:06:05Z</time>
      </trkpt>
      <trkpt lat="45.98711" lon="4.71505">
        <ele>187</ele>
        <time>2018-01-05T10:06:06Z</time>
      </trkpt>
      <trkpt lat="45.98717" lon="4.71505">
        <ele>187</ele>
        <time>2018-01-05T10:06:07Z</time>
      </trkpt>
      <trkpt lat="45.98723" lon="4.71504">
        <ele>186</ele>
        <time>2018-01-05T10:06:08Z</time>
      </trkpt>
      <trkpt lat="45.98729" lon="4.71504">
        <ele>186</ele>
        <time>2018-01-05T10:06:09Z</time>
      </trkpt>
      <trkpt lat="45.98735" lon="4.71504">
        <ele>186</ele>
        <time>2018-01-05T10:06:10Z</time>
      </trkpt>
      <trkpt lat="45.98741" lon="4.71505">
        <ele>185</ele>
        <time>2018-01-05T10:06:11Z</time>
      </trkpt>
      <trkpt lat="45.98746" lon="4.71504">
        <ele>185</ele>
        <time>2018-01-05T10:06:12Z</time>
      </trkpt>
      <trkpt lat="45.98753" lon="4.71505">
        <ele>184</ele>
        <time>2018-01-05T10:06:13Z</time>
      </trkpt>
      <trkpt lat="45.9876" lon="4.71506">
        <ele>184</ele>
        <time>2018-01-05T10:06:14Z</time>
      </trkpt>
      <trkpt lat="45.98766" lon="4.71506">
        <ele>184</ele>
        <time>2018-01-05T10:06:15Z</time>
      </trkpt>
      <trkpt lat="45.98772" lon="4.71506">
        <ele>184</ele>
        <time>2018-01-05T10:06:16Z</time>
      </trkpt>
      <trkpt lat="45.98779" lon="4.71505">
        <ele>184</ele>
        <time>2018-01-05T10:06:17Z</time>
      </trkpt>
      <trkpt lat="45.98784" lon="4.71505">
        <ele>184</ele>
        <time>2018-01-05T10:06:18Z</time>
      </trkpt>
      <trkpt lat="45.9879" lon="4.71505">
        <ele>184</ele>
        <time>2018-01-05T10:06:19Z</time>
      </trkpt>
      <trkpt lat="45.98795" lon="4.71506">
        <ele>184</ele>
        <time>2018-01-05T10:06:20Z</time>
      </trkpt>
      <trkpt lat="45.98801" lon="4.71506">
        <ele>184</ele>
        <time>2018-01-05T10:06:21Z</time>
      </trkpt>
      <trkpt lat="45.98806" lon="4.71506">
        <ele>184</ele>
        <time>2018-01-05T10:06:22Z</time>
      </trkpt>
      <trkpt lat="45.98812" lon="4.71505">
        <ele>184</ele>
        <time>2018-01-05T10:06:23Z</time>
      </trkpt>
      <trkpt lat="45.98816" lon="4.71504">
        <ele>184</ele>
        <time>2018-01-05T10:06:24Z</time>
      </trkpt>
      <trkpt lat="45.98824" lon="4.71504">
        <ele>184</ele>
        <time>2018-01-05T10:06:26Z</time>
      </trkpt>
      <trkpt lat="45.98828" lon="4.71503">
        <ele>184</ele>
        <time>2018-01-05T10:06:27Z</time>
      </trkpt>
      <trkpt lat="45.98833" lon="4.71503">
        <ele>184</ele>
        <time>2018-01-05T10:06:28Z</time>
      </trkpt>
      <trkpt lat="45.98838" lon="4.71504">
        <ele>184</ele>
        <time>2018-01-05T10:06:29Z</time>
      </trkpt>
      <trkpt lat="45.98845" lon="4.71503">
        <ele>184</ele>
        <time>2018-01-05T10:06:31Z</time>
      </trkpt>
      <trkpt lat="45.98849" lon="4.71503">
        <ele>184</ele>
        <time>2018-01-05T10:06:32Z</time>
      </trkpt>
      <trkpt lat="45.98856" lon="4.71504">
        <ele>185</ele>
        <time>2018-01-05T10:06:34Z</time>
      </trkpt>
      <trkpt lat="45.98859" lon="4.71505">
        <ele>185</ele>
        <time>2018-01-05T10:06:35Z</time>
      </trkpt>
      <trkpt lat="45.98867" lon="4.71509">
        <ele>185</ele>
        <time>2018-01-05T10:06:38Z</time>
      </trkpt>
      <trkpt lat="45.98869" lon="4.71509">
        <ele>185</ele>
        <time>2018-01-05T10:06:39Z</time>
      </trkpt>
      <trkpt lat="45.98878" lon="4.71509">
        <ele>185</ele>
        <time>2018-01-05T10:06:43Z</time>
      </trkpt>
      <trkpt lat="45.98879" lon="4.71509">
        <ele>185</ele>
        <time>2018-01-05T10:06:44Z</time>
      </trkpt>
      <trkpt lat="45.98887" lon="4.71511">
        <ele>185</ele>
        <time>2018-01-05T10:06:49Z</time>
      </trkpt>
      <trkpt lat="45.9889" lon="4.71512">
        <ele>185</ele>
        <time>2018-01-05T10:06:50Z</time>
      </trkpt>
      <trkpt lat="45.98898" lon="4.71513">
        <ele>185</ele>
        <time>2018-01-05T10:06:52Z</time>
      </trkpt>
      <trkpt lat="45.98901" lon="4.71514">
        <ele>185</ele>
        <time>2018-01-05T10:06:53Z</time>
      </trkpt>
      <trkpt lat="45.98907" lon="4.71514">
        <ele>185</ele>
        <time>2018-01-05T10:06:55Z</time>
      </trkpt>
      <trkpt lat="45.9891" lon="4.71515">
        <ele>185</ele>
        <time>2018-01-05T10:06:56Z</time>
      </trkpt>
      <trkpt lat="45.98919" lon="4.71517">
        <ele>186</ele>
        <time>2018-01-05T10:06:59Z</time>
      </trkpt>
      <trkpt lat="45.98921" lon="4.71519">
        <ele>186</ele>
        <time>2018-01-05T10:07:00Z</time>
      </trkpt>
      <trkpt lat="45.98927" lon="4.71521">
        <ele>186</ele>
        <time>2018-01-05T10:07:02Z</time>
      </trkpt>
      <trkpt lat="45.9893" lon="4.71522">
        <ele>186</ele>
        <time>2018-01-05T10:07:03Z</time>
      </trkpt>
      <trkpt lat="45.98937" lon="4.71522">
        <ele>186</ele>
        <time>2018-01-05T10:07:08Z</time>
      </trkpt>
      <trkpt lat="45.98939" lon="4.71521">
        <ele>186</ele>
        <time>2018-01-05T10:07:09Z</time>
      </trkpt>
      <trkpt lat="45.98948" lon="4.71521">
        <ele>186</ele>
        <time>2018-01-05T10:07:33Z</time>
      </trkpt>
      <trkpt lat="45.9895" lon="4.71521">
        <ele>186</ele>
        <time>2018-01-05T10:07:34Z</time>
      </trkpt>
      <trkpt lat="45.98956" lon="4.71522">
        <ele>186</ele>
        <time>2018-01-05T10:07:36Z</time>
      </trkpt>
      <trkpt lat="45.9896" lon="4.71523">
        <ele>186</ele>
        <time>2018-01-05T10:07:37Z</time>
      </trkpt>
      <trkpt lat="45.98968" lon="4.71522">
        <ele>186</ele>
        <time>2018-01-05T10:07:39Z</time>
      </trkpt>
      <trkpt lat="45.98972" lon="4.71521">
        <ele>186</ele>
        <time>2018-01-05T10:07:40Z</time>
      </trkpt>
      <trkpt lat="45.98977" lon="4.71521">
        <ele>186</ele>
        <time>2018-01-05T10:07:41Z</time>
      </trkpt>
      <trkpt lat="45.98982" lon="4.71521">
        <ele>186</ele>
        <time>2018-01-05T10:07:42Z</time>
      </trkpt>
      <trkpt lat="45.9899" lon="4.71521">
        <ele>186</ele>
        <time>2018-01-05T10:07:44Z</time>
      </trkpt>
      <trkpt lat="45.98995" lon="4.71521">
        <ele>186</ele>
        <time>2018-01-05T10:07:45Z</time>
      </trkpt>
      <trkpt lat="45.99004" lon="4.71521">
        <ele>188</ele>
        <time>2018-01-05T10:07:47Z</time>
      </trkpt>
      <trkpt lat="45.99008" lon="4.71522">
        <ele>188</ele>
        <time>2018-01-05T10:07:48Z</time>
      </trkpt>
      <trkpt lat="45.99013" lon="4.7152">
        <ele>188</ele>
        <time>2018-01-05T10:07:49Z</time>
      </trkpt>
      <trkpt lat="45.99018" lon="4.71521">
        <ele>188</ele>
        <time>2018-01-05T10:07:50Z</time>
      </trkpt>
      <trkpt lat="45.99025" lon="4.71519">
        <ele>188</ele>
        <time>2018-01-05T10:07:52Z</time>
      </trkpt>
      <trkpt lat="45.99029" lon="4.71519">
        <ele>188</ele>
        <time>2018-01-05T10:07:53Z</time>
      </trkpt>
      <trkpt lat="45.99037" lon="4.7152">
        <ele>188</ele>
        <time>2018-01-05T10:07:55Z</time>
      </trkpt>
      <trkpt lat="45.99042" lon="4.7152">
        <ele>189</ele>
        <time>2018-01-05T10:07:56Z</time>
      </trkpt>
      <trkpt lat="45.9905" lon="4.7152">
        <ele>189</ele>
        <time>2018-01-05T10:07:58Z</time>
      </trkpt>
      <trkpt lat="45.99054" lon="4.71521">
        <ele>189</ele>
        <time>2018-01-05T10:07:59Z</time>
      </trkpt>
      <trkpt lat="45.99062" lon="4.71521">
        <ele>189</ele>
        <time>2018-01-05T10:08:01Z</time>
      </trkpt>
      <trkpt lat="45.99066" lon="4.71522">
        <ele>189</ele>
        <time>2018-01-05T10:08:02Z</time>
      </trkpt>
      <trkpt lat="45.99074" lon="4.71523">
        <ele>189</ele>
        <time>2018-01-05T10:08:04Z</time>
      </trkpt>
      <trkpt lat="45.99078" lon="4.71524">
        <ele>189</ele>
        <time>2018-01-05T10:08:05Z</time>
      </trkpt>
      <trkpt lat="45.99083" lon="4.71525">
        <ele>189</ele>
        <time>2018-01-05T10:08:06Z</time>
      </trkpt>
      <trkpt lat="45.99088" lon="4.71525">
        <ele>191</ele>
        <time>2018-01-05T10:08:07Z</time>
      </trkpt>
      <trkpt lat="45.99092" lon="4.71526">
        <ele>191</ele>
        <time>2018-01-05T10:08:08Z</time>
      </trkpt>
      <trkpt lat="45.99097" lon="4.71526">
        <ele>191</ele>
        <time>2018-01-05T10:08:09Z</time>
      </trkpt>
      <trkpt lat="45.99106" lon="4.71527">
        <ele>191</ele>
        <time>2018-01-05T10:08:11Z</time>
      </trkpt>
      <trkpt lat="45.9911" lon="4.71528">
        <ele>191</ele>
        <time>2018-01-05T10:08:12Z</time>
      </trkpt>
      <trkpt lat="45.99118" lon="4.71529">
        <ele>192</ele>
        <time>2018-01-05T10:08:14Z</time>
      </trkpt>
      <trkpt lat="45.99122" lon="4.7153">
        <ele>192</ele>
        <time>2018-01-05T10:08:15Z</time>
      </trkpt>
      <trkpt lat="45.99129" lon="4.7153">
        <ele>192</ele>
        <time>2018-01-05T10:08:17Z</time>
      </trkpt>
      <trkpt lat="45.99133" lon="4.71531">
        <ele>192</ele>
        <time>2018-01-05T10:08:18Z</time>
      </trkpt>
      <trkpt lat="45.9914" lon="4.71531">
        <ele>192</ele>
        <time>2018-01-05T10:08:20Z</time>
      </trkpt>
      <trkpt lat="45.99142" lon="4.7153">
        <ele>192</ele>
        <time>2018-01-05T10:08:21Z</time>
      </trkpt>
      <trkpt lat="45.99149" lon="4.71527">
        <ele>192</ele>
        <time>2018-01-05T10:08:23Z</time>
      </trkpt>
      <trkpt lat="45.99153" lon="4.71525">
        <ele>192</ele>
        <time>2018-01-05T10:08:24Z</time>
      </trkpt>
      <trkpt lat="45.9916" lon="4.71523">
        <ele>192</ele>
        <time>2018-01-05T10:08:26Z</time>
      </trkpt>
      <trkpt lat="45.99163" lon="4.71522">
        <ele>192</ele>
        <time>2018-01-05T10:08:27Z</time>
      </trkpt>
      <trkpt lat="45.99171" lon="4.71522">
        <ele>194</ele>
        <time>2018-01-05T10:08:29Z</time>
      </trkpt>
      <trkpt lat="45.99176" lon="4.71521">
        <ele>194</ele>
        <time>2018-01-05T10:08:30Z</time>
      </trkpt>
      <trkpt lat="45.99184" lon="4.71521">
        <ele>194</ele>
        <time>2018-01-05T10:08:32Z</time>
      </trkpt>
      <trkpt lat="45.99189" lon="4.7152">
        <ele>195</ele>
        <time>2018-01-05T10:08:33Z</time>
      </trkpt>
      <trkpt lat="45.99196" lon="4.71519">
        <ele>195</ele>
        <time>2018-01-05T10:08:35Z</time>
      </trkpt>
      <trkpt lat="45.992" lon="4.71519">
        <ele>195</ele>
        <time>2018-01-05T10:08:36Z</time>
      </trkpt>
      <trkpt lat="45.99207" lon="4.71518">
        <ele>195</ele>
        <time>2018-01-05T10:08:38Z</time>
      </trkpt>
      <trkpt lat="45.99211" lon="4.71518">
        <ele>195</ele>
        <time>2018-01-05T10:08:39Z</time>
      </trkpt>
      <trkpt lat="45.99218" lon="4.71518">
        <ele>195</ele>
        <time>2018-01-05T10:08:41Z</time>
      </trkpt>
      <trkpt lat="45.99222" lon="4.71518">
        <ele>195</ele>
        <time>2018-01-05T10:08:42Z</time>
      </trkpt>
      <trkpt lat="45.9923" lon="4.71519">
        <ele>196</ele>
        <time>2018-01-05T10:08:44Z</time>
      </trkpt>
      <trkpt lat="45.99233" lon="4.71519">
        <ele>196</ele>
        <time>2018-01-05T10:08:45Z</time>
      </trkpt>
      <trkpt lat="45.9924" lon="4.71521">
        <ele>196</ele>
        <time>2018-01-05T10:08:47Z</time>
      </trkpt>
      <trkpt lat="45.99243" lon="4.71522">
        <ele>196</ele>
        <time>2018-01-05T10:08:48Z</time>
      </trkpt>
      <trkpt lat="45.99251" lon="4.71521">
        <ele>198</ele>
        <time>2018-01-05T10:08:52Z</time>
      </trkpt>
      <trkpt lat="45.99253" lon="4.71521">
        <ele>198</ele>
        <time>2018-01-05T10:08:53Z</time>
      </trkpt>
      <trkpt lat="45.99262" lon="4.71521">
        <ele>198</ele>
        <time>2018-01-05T10:08:57Z</time>
      </trkpt>
      <trkpt lat="45.99265" lon="4.71521">
        <ele>198</ele>
        <time>2018-01-05T10:08:58Z</time>
      </trkpt>
      <trkpt lat="45.99271" lon="4.71521">
        <ele>198</ele>
        <time>2018-01-05T10:09:00Z</time>
      </trkpt>
      <trkpt lat="45.99274" lon="4.71522">
        <ele>198</ele>
        <time>2018-01-05T10:09:01Z</time>
      </trkpt>
      <trkpt lat="45.99281" lon="4.71523">
        <ele>199</ele>
        <time>2018-01-05T10:09:03Z</time>
      </trkpt>
      <trkpt lat="45.99285" lon="4.71523">
        <ele>199</ele>
        <time>2018-01-05T10:09:04Z</time>
      </trkpt>
      <trkpt lat="45.99293" lon="4.71522">
        <ele>199</ele>
        <time>2018-01-05T10:09:06Z</time>
      </trkpt>
      <trkpt lat="45.99297" lon="4.71522">
        <ele>199</ele>
        <time>2018-01-05T10:09:07Z</time>
      </trkpt>
      <trkpt lat="45.99304" lon="4.71523">
        <ele>199</ele>
        <time>2018-01-05T10:09:09Z</time>
      </trkpt>
      <trkpt lat="45.99308" lon="4.71523">
        <ele>199</ele>
        <time>2018-01-05T10:09:10Z</time>
      </trkpt>
      <trkpt lat="45.99317" lon="4.71522">
        <ele>200</ele>
        <time>2018-01-05T10:09:12Z</time>
      </trkpt>
      <trkpt lat="45.99321" lon="4.71521">
        <ele>200</ele>
        <time>2018-01-05T10:09:13Z</time>
      </trkpt>
      <trkpt lat="45.99329" lon="4.71522">
        <ele>200</ele>
        <time>2018-01-05T10:09:15Z</time>
      </trkpt>
      <trkpt lat="45.99334" lon="4.71521">
        <ele>200</ele>
        <time>2018-01-05T10:09:16Z</time>
      </trkpt>
      <trkpt lat="45.99342" lon="4.71519">
        <ele>200</ele>
        <time>2018-01-05T10:09:18Z</time>
      </trkpt>
      <trkpt lat="45.99346" lon="4.71519">
        <ele>200</ele>
        <time>2018-01-05T10:09:19Z</time>
      </trkpt>
      <trkpt lat="45.99351" lon="4.71519">
        <ele>200</ele>
        <time>2018-01-05T10:09:20Z</time>
      </trkpt>
      <trkpt lat="45.99355" lon="4.71519">
        <ele>200</ele>
        <time>2018-01-05T10:09:21Z</time>
      </trkpt>
      <trkpt lat="45.99364" lon="4.7152">
        <ele>200</ele>
        <time>2018-01-05T10:09:23Z</time>
      </trkpt>
      <trkpt lat="45.99368" lon="4.7152">
        <ele>200</ele>
        <time>2018-01-05T10:09:24Z</time>
      </trkpt>
      <trkpt lat="45.99375" lon="4.71519">
        <ele>200</ele>
        <time>2018-01-05T10:09:26Z</time>
      </trkpt>
      <trkpt lat="45.99378" lon="4.71519">
        <ele>200</ele>
        <time>2018-01-05T10:09:27Z</time>
      </trkpt>
      <trkpt lat="45.99386" lon="4.71519">
        <ele>200</ele>
        <time>2018-01-05T10:09:29Z</time>
      </trkpt>
      <trkpt lat="45.9939" lon="4.71519">
        <ele>200</ele>
        <time>2018-01-05T10:09:30Z</time>
      </trkpt>
      <trkpt lat="45.99394" lon="4.71518">
        <ele>200</ele>
        <time>2018-01-05T10:09:31Z</time>
      </trkpt>
      <trkpt lat="45.99399" lon="4.71517">
        <ele>200</ele>
        <time>2018-01-05T10:09:32Z</time>
      </trkpt>
      <trkpt lat="45.99404" lon="4.71517">
        <ele>200</ele>
        <time>2018-01-05T10:09:33Z</time>
      </trkpt>
      <trkpt lat="45.99408" lon="4.71515">
        <ele>200</ele>
        <time>2018-01-05T10:09:34Z</time>
      </trkpt>
      <trkpt lat="45.99417" lon="4.71514">
        <ele>199</ele>
        <time>2018-01-05T10:09:36Z</time>
      </trkpt>
      <trkpt lat="45.99421" lon="4.71515">
        <ele>199</ele>
        <time>2018-01-05T10:09:37Z</time>
      </trkpt>
      <trkpt lat="45.99429" lon="4.71516">
        <ele>199</ele>
        <time>2018-01-05T10:09:39Z</time>
      </trkpt>
      <trkpt lat="45.99433" lon="4.71516">
        <ele>199</ele>
        <time>2018-01-05T10:09:40Z</time>
      </trkpt>
      <trkpt lat="45.99437" lon="4.71517">
        <ele>199</ele>
        <time>2018-01-05T10:09:41Z</time>
      </trkpt>
      <trkpt lat="45.99444" lon="4.71515">
        <ele>199</ele>
        <time>2018-01-05T10:09:42Z</time>
      </trkpt>
      <trkpt lat="45.99449" lon="4.71515">
        <ele>199</ele>
        <time>2018-01-05T10:09:43Z</time>
      </trkpt>
      <trkpt lat="45.99453" lon="4.71515">
        <ele>199</ele>
        <time>2018-01-05T10:09:44Z</time>
      </trkpt>
      <trkpt lat="45.99458" lon="4.71515">
        <ele>199</ele>
        <time>2018-01-05T10:09:45Z</time>
      </trkpt>
      <trkpt lat="45.99463" lon="4.71515">
        <ele>199</ele>
        <time>2018-01-05T10:09:46Z</time>
      </trkpt>
      <trkpt lat="45.99467" lon="4.71515">
        <ele>199</ele>
        <time>2018-01-05T10:09:47Z</time>
      </trkpt>
      <trkpt lat="45.99472" lon="4.71514">
        <ele>199</ele>
        <time>2018-01-05T10:09:48Z</time>
      </trkpt>
      <trkpt lat="45.99477" lon="4.71514">
        <ele>199</ele>
        <time>2018-01-05T10:09:49Z</time>
      </trkpt>
      <trkpt lat="45.99482" lon="4.71514">
        <ele>199</ele>
        <time>2018-01-05T10:09:50Z</time>
      </trkpt>
      <trkpt lat="45.99489" lon="4.71513">
        <ele>199</ele>
        <time>2018-01-05T10:09:52Z</time>
      </trkpt>
      <trkpt lat="45.99495" lon="4.71513">
        <ele>199</ele>
        <time>2018-01-05T10:09:53Z</time>
      </trkpt>
      <trkpt lat="45.99503" lon="4.71513">
        <ele>199</ele>
        <time>2018-01-05T10:09:55Z</time>
      </trkpt>
      <trkpt lat="45.99508" lon="4.71513">
        <ele>199</ele>
        <time>2018-01-05T10:09:56Z</time>
      </trkpt>
      <trkpt lat="45.99514" lon="4.71513">
        <ele>199</ele>
        <time>2018-01-05T10:09:58Z</time>
      </trkpt>
      <trkpt lat="45.99518" lon="4.71513">
        <ele>198</ele>
        <time>2018-01-05T10:09:59Z</time>
      </trkpt>
      <trkpt lat="45.99527" lon="4.71513">
        <ele>198</ele>
        <time>2018-01-05T10:10:01Z</time>
      </trkpt>
      <trkpt lat="45.99532" lon="4.71512">
        <ele>198</ele>
        <time>2018-01-05T10:10:02Z</time>
      </trkpt>
      <trkpt lat="45.99536" lon="4.71513">
        <ele>198</ele>
        <time>2018-01-05T10:10:03Z</time>
      </trkpt>
      <trkpt lat="45.99541" lon="4.71513">
        <ele>198</ele>
        <time>2018-01-05T10:10:04Z</time>
      </trkpt>
      <trkpt lat="45.99545" lon="4.71512">
        <ele>198</ele>
        <time>2018-01-05T10:10:05Z</time>
      </trkpt>
      <trkpt lat="45.99551" lon="4.71511">
        <ele>198</ele>
        <time>2018-01-05T10:10:06Z</time>
      </trkpt>
      <trkpt lat="45.99558" lon="4.71511">
        <ele>198</ele>
        <time>2018-01-05T10:10:08Z</time>
      </trkpt>
      <trkpt lat="45.99562" lon="4.71512">
        <ele>197</ele>
        <time>2018-01-05T10:10:09Z</time>
      </trkpt>
      <trkpt lat="45.99571" lon="4.71512">
        <ele>197</ele>
        <time>2018-01-05T10:10:11Z</time>
      </trkpt>
      <trkpt lat="45.99575" lon="4.71512">
        <ele>197</ele>
        <time>2018-01-05T10:10:12Z</time>
      </trkpt>
      <trkpt lat="45.99579" lon="4.71516">
        <ele>197</ele>
        <time>2018-01-05T10:10:13Z</time>
      </trkpt>
      <trkpt lat="45.99585" lon="4.7152">
        <ele>197</ele>
        <time>2018-01-05T10:10:14Z</time>
      </trkpt>
      <trkpt lat="45.9959" lon="4.7153">
        <ele>197</ele>
        <time>2018-01-05T10:10:16Z</time>
      </trkpt>
      <trkpt lat="45.99593" lon="4.71534">
        <ele>197</ele>
        <time>2018-01-05T10:10:17Z</time>
      </trkpt>
      <trkpt lat="45.99602" lon="4.71536">
        <ele>198</ele>
        <time>2018-01-05T10:10:19Z</time>
      </trkpt>
      <trkpt lat="45.99607" lon="4.71534">
        <ele>198</ele>
        <time>2018-01-05T10:10:20Z</time>
      </trkpt>
      <trkpt lat="45.99614" lon="4.71527">
        <ele>197</ele>
        <time>2018-01-05T10:10:22Z</time>
      </trkpt>
      <trkpt lat="45.99615" lon="4.71521">
        <ele>197</ele>
        <time>2018-01-05T10:10:23Z</time>
      </trkpt>
      <trkpt lat="45.99614" lon="4.71508">
        <ele>197</ele>
        <time>2018-01-05T10:10:25Z</time>
      </trkpt>
      <trkpt lat="45.99614" lon="4.71501">
        <ele>197</ele>
        <time>2018-01-05T10:10:26Z</time>
      </trkpt>
      <trkpt lat="45.99614" lon="4.71494">
        <ele>197</ele>
        <time>2018-01-05T10:10:27Z</time>
      </trkpt>
      <trkpt lat="45.99614" lon="4.71487">
        <ele>197</ele>
        <time>2018-01-05T10:10:28Z</time>
      </trkpt>
      <trkpt lat="45.99619" lon="4.71477">
        <ele>197</ele>
        <time>2018-01-05T10:10:30Z</time>
      </trkpt>
      <trkpt lat="45.99623" lon="4.71471">
        <ele>197</ele>
        <time>2018-01-05T10:10:31Z</time>
      </trkpt>
      <trkpt lat="45.99626" lon="4.71466">
        <ele>197</ele>
        <time>2018-01-05T10:10:32Z</time>
      </trkpt>
      <trkpt lat="45.99628" lon="4.71459">
        <ele>197</ele>
        <time>2018-01-05T10:10:33Z</time>
      </trkpt>
      <trkpt lat="45.99632" lon="4.71453">
        <ele>197</ele>
        <time>2018-01-05T10:10:34Z</time>
      </trkpt>
      <trkpt lat="45.99636" lon="4.71447">
        <ele>197</ele>
        <time>2018-01-05T10:10:35Z</time>
      </trkpt>
      <trkpt lat="45.9964" lon="4.71442">
        <ele>197</ele>
        <time>2018-01-05T10:10:36Z</time>
      </trkpt>
      <trkpt lat="45.99644" lon="4.71437">
        <ele>197</ele>
        <time>2018-01-05T10:10:37Z</time>
      </trkpt>
      <trkpt lat="45.99646" lon="4.71431">
        <ele>197</ele>
        <time>2018-01-05T10:10:38Z</time>
      </trkpt>
      <trkpt lat="45.99649" lon="4.71424">
        <ele>197</ele>
        <time>2018-01-05T10:10:39Z</time>
      </trkpt>
      <trkpt lat="45.99652" lon="4.71418">
        <ele>198</ele>
        <time>2018-01-05T10:10:40Z</time>
      </trkpt>
      <trkpt lat="45.99655" lon="4.71412">
        <ele>198</ele>
        <time>2018-01-05T10:10:41Z</time>
      </trkpt>
      <trkpt lat="45.99657" lon="4.71406">
        <ele>198</ele>
        <time>2018-01-05T10:10:42Z</time>
      </trkpt>
      <trkpt lat="45.99659" lon="4.714">
        <ele>198</ele>
        <time>2018-01-05T10:10:43Z</time>
      </trkpt>
      <trkpt lat="45.99662" lon="4.71394">
        <ele>198</ele>
        <time>2018-01-05T10:10:44Z</time>
      </trkpt>
      <trkpt lat="45.99664" lon="4.71387">
        <ele>198</ele>
        <time>2018-01-05T10:10:45Z</time>
      </trkpt>
      <trkpt lat="45.99667" lon="4.71382">
        <ele>198</ele>
        <time>2018-01-05T10:10:46Z</time>
      </trkpt>
      <trkpt lat="45.99671" lon="4.71375">
        <ele>198</ele>
        <time>2018-01-05T10:10:47Z</time>
      </trkpt>
      <trkpt lat="45.99675" lon="4.7137">
        <ele>197</ele>
        <time>2018-01-05T10:10:48Z</time>
      </trkpt>
      <trkpt lat="45.99678" lon="4.71364">
        <ele>197</ele>
        <time>2018-01-05T10:10:49Z</time>
      </trkpt>
      <trkpt lat="45.99682" lon="4.71359">
        <ele>197</ele>
        <time>2018-01-05T10:10:50Z</time>
      </trkpt>
      <trkpt lat="45.99686" lon="4.71352">
        <ele>197</ele>
        <time>2018-01-05T10:10:51Z</time>
      </trkpt>
      <trkpt lat="45.99689" lon="4.71344">
        <ele>197</ele>
        <time>2018-01-05T10:10:52Z</time>
      </trkpt>
      <trkpt lat="45.99692" lon="4.71337">
        <ele>197</ele>
        <time>2018-01-05T10:10:53Z</time>
      </trkpt>
      <trkpt lat="45.99696" lon="4.71332">
        <ele>198</ele>
        <time>2018-01-05T10:10:54Z</time>
      </trkpt>
      <trkpt lat="45.99699" lon="4.71325">
        <ele>198</ele>
        <time>2018-01-05T10:10:55Z</time>
      </trkpt>
      <trkpt lat="45.99702" lon="4.71318">
        <ele>198</ele>
        <time>2018-01-05T10:10:56Z</time>
      </trkpt>
      <trkpt lat="45.99704" lon="4.71312">
        <ele>198</ele>
        <time>2018-01-05T10:10:57Z</time>
      </trkpt>
      <trkpt lat="45.99706" lon="4.71305">
        <ele>198</ele>
        <time>2018-01-05T10:10:58Z</time>
      </trkpt>
      <trkpt lat="45.99708" lon="4.71299">
        <ele>198</ele>
        <time>2018-01-05T10:10:59Z</time>
      </trkpt>
      <trkpt lat="45.9971" lon="4.71293">
        <ele>198</ele>
        <time>2018-01-05T10:11:00Z</time>
      </trkpt>
      <trkpt lat="45.99713" lon="4.71288">
        <ele>198</ele>
        <time>2018-01-05T10:11:01Z</time>
      </trkpt>
      <trkpt lat="45.99719" lon="4.71279">
        <ele>198</ele>
        <time>2018-01-05T10:11:03Z</time>
      </trkpt>
      <trkpt lat="45.99721" lon="4.71275">
        <ele>198</ele>
        <time>2018-01-05T10:11:04Z</time>
      </trkpt>
      <trkpt lat="45.99724" lon="4.71269">
        <ele>198</ele>
        <time>2018-01-05T10:11:05Z</time>
      </trkpt>
      <trkpt lat="45.99727" lon="4.71263">
        <ele>198</ele>
        <time>2018-01-05T10:11:06Z</time>
      </trkpt>
      <trkpt lat="45.9973" lon="4.71257">
        <ele>198</ele>
        <time>2018-01-05T10:11:07Z</time>
      </trkpt>
      <trkpt lat="45.99733" lon="4.71251">
        <ele>198</ele>
        <time>2018-01-05T10:11:08Z</time>
      </trkpt>
      <trkpt lat="45.99736" lon="4.71244">
        <ele>198</ele>
        <time>2018-01-05T10:11:09Z</time>
      </trkpt>
      <trkpt lat="45.99739" lon="4.71239">
        <ele>198</ele>
        <time>2018-01-05T10:11:10Z</time>
      </trkpt>
      <trkpt lat="45.99742" lon="4.71233">
        <ele>198</ele>
        <time>2018-01-05T10:11:11Z</time>
      </trkpt>
      <trkpt lat="45.99744" lon="4.71227">
        <ele>198</ele>
        <time>2018-01-05T10:11:12Z</time>
      </trkpt>
      <trkpt lat="45.99749" lon="4.71217">
        <ele>198</ele>
        <time>2018-01-05T10:11:14Z</time>
      </trkpt>
      <trkpt lat="45.99751" lon="4.71212">
        <ele>199</ele>
        <time>2018-01-05T10:11:15Z</time>
      </trkpt>
      <trkpt lat="45.99754" lon="4.71207">
        <ele>198</ele>
        <time>2018-01-05T10:11:16Z</time>
      </trkpt>
      <trkpt lat="45.99757" lon="4.71201">
        <ele>198</ele>
        <time>2018-01-05T10:11:17Z</time>
      </trkpt>
      <trkpt lat="45.99763" lon="4.7119">
        <ele>198</ele>
        <time>2018-01-05T10:11:19Z</time>
      </trkpt>
      <trkpt lat="45.99767" lon="4.71184">
        <ele>198</ele>
        <time>2018-01-05T10:11:20Z</time>
      </trkpt>
      <trkpt lat="45.99772" lon="4.71177">
        <ele>198</ele>
        <time>2018-01-05T10:11:22Z</time>
      </trkpt>
      <trkpt lat="45.99774" lon="4.71174">
        <ele>198</ele>
        <time>2018-01-05T10:11:23Z</time>
      </trkpt>
      <trkpt lat="45.99778" lon="4.71165">
        <ele>198</ele>
        <time>2018-01-05T10:11:25Z</time>
      </trkpt>
      <trkpt lat="45.99782" lon="4.71159">
        <ele>198</ele>
        <time>2018-01-05T10:11:26Z</time>
      </trkpt>
      <trkpt lat="45.99786" lon="4.71151">
        <ele>198</ele>
        <time>2018-01-05T10:11:28Z</time>
      </trkpt>
      <trkpt lat="45.99788" lon="4.71147">
        <ele>198</ele>
        <time>2018-01-05T10:11:29Z</time>
      </trkpt>
      <trkpt lat="45.99791" lon="4.71139">
        <ele>198</ele>
        <time>2018-01-05T10:11:31Z</time>
      </trkpt>
      <trkpt lat="45.99793" lon="4.71134">
        <ele>198</ele>
        <time>2018-01-05T10:11:32Z</time>
      </trkpt>
      <trkpt lat="45.99797" lon="4.71124">
        <ele>198</ele>
        <time>2018-01-05T10:11:34Z</time>
      </trkpt>
      <trkpt lat="45.99798" lon="4.71116">
        <ele>198</ele>
        <time>2018-01-05T10:11:35Z</time>
      </trkpt>
      <trkpt lat="45.99799" lon="4.71109">
        <ele>198</ele>
        <time>2018-01-05T10:11:36Z</time>
      </trkpt>
      <trkpt lat="45.998" lon="4.71102">
        <ele>198</ele>
        <time>2018-01-05T10:11:37Z</time>
      </trkpt>
      <trkpt lat="45.99802" lon="4.71095">
        <ele>198</ele>
        <time>2018-01-05T10:11:38Z</time>
      </trkpt>
      <trkpt lat="45.99804" lon="4.71087">
        <ele>198</ele>
        <time>2018-01-05T10:11:39Z</time>
      </trkpt>
      <trkpt lat="45.99806" lon="4.71081">
        <ele>199</ele>
        <time>2018-01-05T10:11:40Z</time>
      </trkpt>
      <trkpt lat="45.99808" lon="4.71074">
        <ele>199</ele>
        <time>2018-01-05T10:11:41Z</time>
      </trkpt>
      <trkpt lat="45.99809" lon="4.71066">
        <ele>199</ele>
        <time>2018-01-05T10:11:42Z</time>
      </trkpt>
      <trkpt lat="45.99812" lon="4.71057">
        <ele>199</ele>
        <time>2018-01-05T10:11:43Z</time>
      </trkpt>
      <trkpt lat="45.99814" lon="4.71045">
        <ele>199</ele>
        <time>2018-01-05T10:11:45Z</time>
      </trkpt>
      <trkpt lat="45.99814" lon="4.7104">
        <ele>199</ele>
        <time>2018-01-05T10:11:46Z</time>
      </trkpt>
      <trkpt lat="45.99817" lon="4.71031">
        <ele>199</ele>
        <time>2018-01-05T10:11:47Z</time>
      </trkpt>
      <trkpt lat="45.99822" lon="4.7102">
        <ele>199</ele>
        <time>2018-01-05T10:11:48Z</time>
      </trkpt>
      <trkpt lat="45.99823" lon="4.71013">
        <ele>200</ele>
        <time>2018-01-05T10:11:49Z</time>
      </trkpt>
      <trkpt lat="45.99826" lon="4.71005">
        <ele>200</ele>
        <time>2018-01-05T10:11:50Z</time>
      </trkpt>
      <trkpt lat="45.99827" lon="4.70998">
        <ele>200</ele>
        <time>2018-01-05T10:11:51Z</time>
      </trkpt>
      <trkpt lat="45.99826" lon="4.70989">
        <ele>200</ele>
        <time>2018-01-05T10:11:52Z</time>
      </trkpt>
      <trkpt lat="45.99828" lon="4.70983">
        <ele>200</ele>
        <time>2018-01-05T10:11:53Z</time>
      </trkpt>
      <trkpt lat="45.9983" lon="4.70977">
        <ele>200</ele>
        <time>2018-01-05T10:11:54Z</time>
      </trkpt>
      <trkpt lat="45.9983" lon="4.7097">
        <ele>200</ele>
        <time>2018-01-05T10:11:55Z</time>
      </trkpt>
      <trkpt lat="45.99834" lon="4.70958">
        <ele>199</ele>
        <time>2018-01-05T10:11:56Z</time>
      </trkpt>
      <trkpt lat="45.99836" lon="4.70946">
        <ele>199</ele>
        <time>2018-01-05T10:11:58Z</time>
      </trkpt>
      <trkpt lat="45.99836" lon="4.7094">
        <ele>199</ele>
        <time>2018-01-05T10:11:59Z</time>
      </trkpt>
      <trkpt lat="45.99838" lon="4.70929">
        <ele>199</ele>
        <time>2018-01-05T10:12:01Z</time>
      </trkpt>
      <trkpt lat="45.99839" lon="4.70921">
        <ele>199</ele>
        <time>2018-01-05T10:12:02Z</time>
      </trkpt>
      <trkpt lat="45.99841" lon="4.70909">
        <ele>199</ele>
        <time>2018-01-05T10:12:04Z</time>
      </trkpt>
      <trkpt lat="45.99842" lon="4.70902">
        <ele>199</ele>
        <time>2018-01-05T10:12:05Z</time>
      </trkpt>
      <trkpt lat="45.99843" lon="4.70896">
        <ele>199</ele>
        <time>2018-01-05T10:12:06Z</time>
      </trkpt>
      <trkpt lat="45.99844" lon="4.70889">
        <ele>199</ele>
        <time>2018-01-05T10:12:07Z</time>
      </trkpt>
      <trkpt lat="45.99846" lon="4.7088">
        <ele>200</ele>
        <time>2018-01-05T10:12:08Z</time>
      </trkpt>
      <trkpt lat="45.99847" lon="4.70873">
        <ele>200</ele>
        <time>2018-01-05T10:12:09Z</time>
      </trkpt>
      <trkpt lat="45.99848" lon="4.70862">
        <ele>200</ele>
        <time>2018-01-05T10:12:10Z</time>
      </trkpt>
      <trkpt lat="45.9985" lon="4.70855">
        <ele>200</ele>
        <time>2018-01-05T10:12:11Z</time>
      </trkpt>
      <trkpt lat="45.9985" lon="4.70846">
        <ele>200</ele>
        <time>2018-01-05T10:12:12Z</time>
      </trkpt>
      <trkpt lat="45.99851" lon="4.70836">
        <ele>201</ele>
        <time>2018-01-05T10:12:13Z</time>
      </trkpt>
      <trkpt lat="45.99852" lon="4.70828">
        <ele>201</ele>
        <time>2018-01-05T10:12:14Z</time>
      </trkpt>
      <trkpt lat="45.99853" lon="4.70821">
        <ele>201</ele>
        <time>2018-01-05T10:12:15Z</time>
      </trkpt>
      <trkpt lat="45.99855" lon="4.70813">
        <ele>201</ele>
        <time>2018-01-05T10:12:16Z</time>
      </trkpt>
      <trkpt lat="45.99857" lon="4.70806">
        <ele>201</ele>
        <time>2018-01-05T10:12:17Z</time>
      </trkpt>
      <trkpt lat="45.99859" lon="4.70798">
        <ele>201</ele>
        <time>2018-01-05T10:12:18Z</time>
      </trkpt>
      <trkpt lat="45.99861" lon="4.70791">
        <ele>200</ele>
        <time>2018-01-05T10:12:19Z</time>
      </trkpt>
      <trkpt lat="45.99861" lon="4.70784">
        <ele>200</ele>
        <time>2018-01-05T10:12:20Z</time>
      </trkpt>
      <trkpt lat="45.99862" lon="4.70777">
        <ele>200</ele>
        <time>2018-01-05T10:12:21Z</time>
      </trkpt>
      <trkpt lat="45.99863" lon="4.70769">
        <ele>200</ele>
        <time>2018-01-05T10:12:22Z</time>
      </trkpt>
      <trkpt lat="45.99863" lon="4.70762">
        <ele>200</ele>
        <time>2018-01-05T10:12:23Z</time>
      </trkpt>
      <trkpt lat="45.99864" lon="4.70756">
        <ele>200</ele>
        <time>2018-01-05T10:12:24Z</time>
      </trkpt>
      <trkpt lat="45.99865" lon="4.70748">
        <ele>200</ele>
        <time>2018-01-05T10:12:25Z</time>
      </trkpt>
      <trkpt lat="45.99865" lon="4.70741">
        <ele>200</ele>
        <time>2018-01-05T10:12:26Z</time>
      </trkpt>
      <trkpt lat="45.99867" lon="4.70734">
        <ele>200</ele>
        <time>2018-01-05T10:12:27Z</time>
      </trkpt>
      <trkpt lat="45.99868" lon="4.70727">
        <ele>200</ele>
        <time>2018-01-05T10:12:28Z</time>
      </trkpt>
      <trkpt lat="45.99869" lon="4.70721">
        <ele>200</ele>
        <time>2018-01-05T10:12:29Z</time>
      </trkpt>
      <trkpt lat="45.9987" lon="4.70713">
        <ele>200</ele>
        <time>2018-01-05T10:12:30Z</time>
      </trkpt>
      <trkpt lat="45.99871" lon="4.70706">
        <ele>200</ele>
        <time>2018-01-05T10:12:31Z</time>
      </trkpt>
      <trkpt lat="45.99873" lon="4.70695">
        <ele>200</ele>
        <time>2018-01-05T10:12:33Z</time>
      </trkpt>
      <trkpt lat="45.99875" lon="4.70691">
        <ele>200</ele>
        <time>2018-01-05T10:12:34Z</time>
      </trkpt>
      <trkpt lat="45.99877" lon="4.70683">
        <ele>200</ele>
        <time>2018-01-05T10:12:36Z</time>
      </trkpt>
      <trkpt lat="45.99879" lon="4.70678">
        <ele>200</ele>
        <time>2018-01-05T10:12:37Z</time>
      </trkpt>
      <trkpt lat="45.99883" lon="4.70672">
        <ele>200</ele>
        <time>2018-01-05T10:12:39Z</time>
      </trkpt>
      <trkpt lat="45.99885" lon="4.7067">
        <ele>200</ele>
        <time>2018-01-05T10:12:40Z</time>
      </trkpt>
      <trkpt lat="45.99885" lon="4.70669">
        <ele>200</ele>
        <time>2018-01-05T10:12:41Z</time>
      </trkpt>
      <trkpt lat="45.99884" lon="4.7067">
        <ele>200</ele>
        <time>2018-01-05T10:12:46Z</time>
      </trkpt>
      <trkpt lat="45.99886" lon="4.70669">
        <ele>200</ele>
        <time>2018-01-05T10:12:47Z</time>
      </trkpt>
      <trkpt lat="45.99893" lon="4.7066">
        <ele>200</ele>
        <time>2018-01-05T10:12:52Z</time>
      </trkpt>
      <trkpt lat="45.99895" lon="4.70659">
        <ele>200</ele>
        <time>2018-01-05T10:12:53Z</time>
      </trkpt>
      <trkpt lat="45.99902" lon="4.70656">
        <ele>200</ele>
        <time>2018-01-05T10:12:55Z</time>
      </trkpt>
      <trkpt lat="45.99906" lon="4.70656">
        <ele>200</ele>
        <time>2018-01-05T10:12:56Z</time>
      </trkpt>
      <trkpt lat="45.99914" lon="4.70655">
        <ele>200</ele>
        <time>2018-01-05T10:12:58Z</time>
      </trkpt>
      <trkpt lat="45.99919" lon="4.70652">
        <ele>199</ele>
        <time>2018-01-05T10:12:59Z</time>
      </trkpt>
      <trkpt lat="45.99924" lon="4.70649">
        <ele>199</ele>
        <time>2018-01-05T10:13:00Z</time>
      </trkpt>
      <trkpt lat="45.9993" lon="4.70648">
        <ele>199</ele>
        <time>2018-01-05T10:13:01Z</time>
      </trkpt>
      <trkpt lat="45.99937" lon="4.70645">
        <ele>199</ele>
        <time>2018-01-05T10:13:02Z</time>
      </trkpt>
      <trkpt lat="45.99942" lon="4.70644">
        <ele>199</ele>
        <time>2018-01-05T10:13:03Z</time>
      </trkpt>
      <trkpt lat="45.99946" lon="4.70642">
        <ele>199</ele>
        <time>2018-01-05T10:13:04Z</time>
      </trkpt>
      <trkpt lat="45.99951" lon="4.7064">
        <ele>199</ele>
        <time>2018-01-05T10:13:05Z</time>
      </trkpt>
      <trkpt lat="45.99956" lon="4.70639">
        <ele>199</ele>
        <time>2018-01-05T10:13:06Z</time>
      </trkpt>
      <trkpt lat="45.99961" lon="4.70638">
        <ele>199</ele>
        <time>2018-01-05T10:13:07Z</time>
      </trkpt>
      <trkpt lat="45.99967" lon="4.70636">
        <ele>199</ele>
        <time>2018-01-05T10:13:08Z</time>
      </trkpt>
      <trkpt lat="45.99972" lon="4.70635">
        <ele>199</ele>
        <time>2018-01-05T10:13:09Z</time>
      </trkpt>
      <trkpt lat="45.99978" lon="4.70634">
        <ele>199</ele>
        <time>2018-01-05T10:13:10Z</time>
      </trkpt>
      <trkpt lat="45.99984" lon="4.70632">
        <ele>199</ele>
        <time>2018-01-05T10:13:11Z</time>
      </trkpt>
      <trkpt lat="45.9999" lon="4.70632">
        <ele>199</ele>
        <time>2018-01-05T10:13:12Z</time>
      </trkpt>
      <trkpt lat="45.99997" lon="4.70629">
        <ele>199</ele>
        <time>2018-01-05T10:13:13Z</time>
      </trkpt>
      <trkpt lat="46.00003" lon="4.70628">
        <ele>198</ele>
        <time>2018-01-05T10:13:14Z</time>
      </trkpt>
      <trkpt lat="46.00008" lon="4.70627">
        <ele>198</ele>
        <time>2018-01-05T10:13:15Z</time>
      </trkpt>
      <trkpt lat="46.00012" lon="4.70625">
        <ele>198</ele>
        <time>2018-01-05T10:13:16Z</time>
      </trkpt>
      <trkpt lat="46.00017" lon="4.70625">
        <ele>199</ele>
        <time>2018-01-05T10:13:17Z</time>
      </trkpt>
      <trkpt lat="46.00021" lon="4.70624">
        <ele>199</ele>
        <time>2018-01-05T10:13:18Z</time>
      </trkpt>
      <trkpt lat="46.00027" lon="4.70622">
        <ele>199</ele>
        <time>2018-01-05T10:13:19Z</time>
      </trkpt>
      <trkpt lat="46.00032" lon="4.70621">
        <ele>199</ele>
        <time>2018-01-05T10:13:20Z</time>
      </trkpt>
      <trkpt lat="46.00037" lon="4.7062">
        <ele>199</ele>
        <time>2018-01-05T10:13:21Z</time>
      </trkpt>
      <trkpt lat="46.00042" lon="4.70619">
        <ele>198</ele>
        <time>2018-01-05T10:13:22Z</time>
      </trkpt>
      <trkpt lat="46.00047" lon="4.70618">
        <ele>198</ele>
        <time>2018-01-05T10:13:23Z</time>
      </trkpt>
      <trkpt lat="46.00055" lon="4.70615">
        <ele>198</ele>
        <time>2018-01-05T10:13:25Z</time>
      </trkpt>
      <trkpt lat="46.00061" lon="4.70615">
        <ele>198</ele>
        <time>2018-01-05T10:13:26Z</time>
      </trkpt>
      <trkpt lat="46.00067" lon="4.70614">
        <ele>198</ele>
        <time>2018-01-05T10:13:27Z</time>
      </trkpt>
      <trkpt lat="46.00072" lon="4.70612">
        <ele>198</ele>
        <time>2018-01-05T10:13:28Z</time>
      </trkpt>
      <trkpt lat="46.00078" lon="4.70611">
        <ele>198</ele>
        <time>2018-01-05T10:13:29Z</time>
      </trkpt>
      <trkpt lat="46.00082" lon="4.70609">
        <ele>198</ele>
        <time>2018-01-05T10:13:30Z</time>
      </trkpt>
      <trkpt lat="46.00087" lon="4.70605">
        <ele>198</ele>
        <time>2018-01-05T10:13:31Z</time>
      </trkpt>
      <trkpt lat="46.00092" lon="4.70602">
        <ele>198</ele>
        <time>2018-01-05T10:13:32Z</time>
      </trkpt>
      <trkpt lat="46.00097" lon="4.706">
        <ele>198</ele>
        <time>2018-01-05T10:13:33Z</time>
      </trkpt>
      <trkpt lat="46.00102" lon="4.70597">
        <ele>198</ele>
        <time>2018-01-05T10:13:34Z</time>
      </trkpt>
      <trkpt lat="46.00107" lon="4.70593">
        <ele>198</ele>
        <time>2018-01-05T10:13:35Z</time>
      </trkpt>
      <trkpt lat="46.00113" lon="4.70592">
        <ele>198</ele>
        <time>2018-01-05T10:13:36Z</time>
      </trkpt>
      <trkpt lat="46.00118" lon="4.70587">
        <ele>198</ele>
        <time>2018-01-05T10:13:37Z</time>
      </trkpt>
      <trkpt lat="46.00122" lon="4.70584">
        <ele>198</ele>
        <time>2018-01-05T10:13:38Z</time>
      </trkpt>
      <trkpt lat="46.00126" lon="4.7058">
        <ele>198</ele>
        <time>2018-01-05T10:13:39Z</time>
      </trkpt>
      <trkpt lat="46.0013" lon="4.70575">
        <ele>198</ele>
        <time>2018-01-05T10:13:40Z</time>
      </trkpt>
      <trkpt lat="46.00134" lon="4.70571">
        <ele>198</ele>
        <time>2018-01-05T10:13:41Z</time>
      </trkpt>
      <trkpt lat="46.00139" lon="4.70569">
        <ele>198</ele>
        <time>2018-01-05T10:13:42Z</time>
      </trkpt>
      <trkpt lat="46.00145" lon="4.70568">
        <ele>198</ele>
        <time>2018-01-05T10:13:43Z</time>
      </trkpt>
      <trkpt lat="46.00149" lon="4.70566">
        <ele>198</ele>
        <time>2018-01-05T10:13:44Z</time>
      </trkpt>
      <trkpt lat="46.00154" lon="4.70565">
        <ele>198</ele>
        <time>2018-01-05T10:13:45Z</time>
      </trkpt>
      <trkpt lat="46.00159" lon="4.70561">
        <ele>198</ele>
        <time>2018-01-05T10:13:46Z</time>
      </trkpt>
      <trkpt lat="46.00163" lon="4.70557">
        <ele>198</ele>
        <time>2018-01-05T10:13:47Z</time>
      </trkpt>
      <trkpt lat="46.00168" lon="4.70554">
        <ele>197</ele>
        <time>2018-01-05T10:13:48Z</time>
      </trkpt>
      <trkpt lat="46.00174" lon="4.7055">
        <ele>198</ele>
        <time>2018-01-05T10:13:49Z</time>
      </trkpt>
      <trkpt lat="46.00179" lon="4.70548">
        <ele>198</ele>
        <time>2018-01-05T10:13:50Z</time>
      </trkpt>
      <trkpt lat="46.00185" lon="4.70546">
        <ele>198</ele>
        <time>2018-01-05T10:13:51Z</time>
      </trkpt>
      <trkpt lat="46.0019" lon="4.70545">
        <ele>198</ele>
        <time>2018-01-05T10:13:52Z</time>
      </trkpt>
      <trkpt lat="46.00196" lon="4.70544">
        <ele>198</ele>
        <time>2018-01-05T10:13:53Z</time>
      </trkpt>
      <trkpt lat="46.00202" lon="4.70544">
        <ele>198</ele>
        <time>2018-01-05T10:13:54Z</time>
      </trkpt>
      <trkpt lat="46.00208" lon="4.70542">
        <ele>197</ele>
        <time>2018-01-05T10:13:55Z</time>
      </trkpt>
      <trkpt lat="46.00213" lon="4.7054">
        <ele>197</ele>
        <time>2018-01-05T10:13:56Z</time>
      </trkpt>
      <trkpt lat="46.00219" lon="4.70538">
        <ele>197</ele>
        <time>2018-01-05T10:13:57Z</time>
      </trkpt>
      <trkpt lat="46.00224" lon="4.70537">
        <ele>197</ele>
        <time>2018-01-05T10:13:58Z</time>
      </trkpt>
      <trkpt lat="46.0023" lon="4.70535">
        <ele>197</ele>
        <time>2018-01-05T10:13:59Z</time>
      </trkpt>
      <trkpt lat="46.00235" lon="4.70533">
        <ele>197</ele>
        <time>2018-01-05T10:14:00Z</time>
      </trkpt>
      <trkpt lat="46.00241" lon="4.70531">
        <ele>198</ele>
        <time>2018-01-05T10:14:01Z</time>
      </trkpt>
      <trkpt lat="46.00247" lon="4.70529">
        <ele>198</ele>
        <time>2018-01-05T10:14:02Z</time>
      </trkpt>
      <trkpt lat="46.00253" lon="4.70527">
        <ele>197</ele>
        <time>2018-01-05T10:14:03Z</time>
      </trkpt>
      <trkpt lat="46.00258" lon="4.70527">
        <ele>197</ele>
        <time>2018-01-05T10:14:04Z</time>
      </trkpt>
      <trkpt lat="46.00263" lon="4.70525">
        <ele>197</ele>
        <time>2018-01-05T10:14:05Z</time>
      </trkpt>
      <trkpt lat="46.00268" lon="4.70525">
        <ele>197</ele>
        <time>2018-01-05T10:14:06Z</time>
      </trkpt>
      <trkpt lat="46.00273" lon="4.70524">
        <ele>197</ele>
        <time>2018-01-05T10:14:07Z</time>
      </trkpt>
      <trkpt lat="46.00279" lon="4.70523">
        <ele>197</ele>
        <time>2018-01-05T10:14:08Z</time>
      </trkpt>
      <trkpt lat="46.00284" lon="4.70521">
        <ele>197</ele>
        <time>2018-01-05T10:14:09Z</time>
      </trkpt>
      <trkpt lat="46.0029" lon="4.70519">
        <ele>197</ele>
        <time>2018-01-05T10:14:10Z</time>
      </trkpt>
      <trkpt lat="46.00295" lon="4.70518">
        <ele>197</ele>
        <time>2018-01-05T10:14:11Z</time>
      </trkpt>
      <trkpt lat="46.00301" lon="4.70517">
        <ele>197</ele>
        <time>2018-01-05T10:14:12Z</time>
      </trkpt>
      <trkpt lat="46.00306" lon="4.70516">
        <ele>197</ele>
        <time>2018-01-05T10:14:13Z</time>
      </trkpt>
      <trkpt lat="46.00312" lon="4.70515">
        <ele>197</ele>
        <time>2018-01-05T10:14:14Z</time>
      </trkpt>
      <trkpt lat="46.00317" lon="4.70514">
        <ele>197</ele>
        <time>2018-01-05T10:14:15Z</time>
      </trkpt>
      <trkpt lat="46.00323" lon="4.70512">
        <ele>198</ele>
        <time>2018-01-05T10:14:16Z</time>
      </trkpt>
      <trkpt lat="46.00328" lon="4.70511">
        <ele>198</ele>
        <time>2018-01-05T10:14:17Z</time>
      </trkpt>
      <trkpt lat="46.00334" lon="4.7051">
        <ele>198</ele>
        <time>2018-01-05T10:14:18Z</time>
      </trkpt>
      <trkpt lat="46.00339" lon="4.70509">
        <ele>198</ele>
        <time>2018-01-05T10:14:19Z</time>
      </trkpt>
      <trkpt lat="46.00344" lon="4.70508">
        <ele>198</ele>
        <time>2018-01-05T10:14:20Z</time>
      </trkpt>
      <trkpt lat="46.00349" lon="4.70507">
        <ele>198</ele>
        <time>2018-01-05T10:14:21Z</time>
      </trkpt>
      <trkpt lat="46.00353" lon="4.70507">
        <ele>198</ele>
        <time>2018-01-05T10:14:22Z</time>
      </trkpt>
      <trkpt lat="46.00358" lon="4.70505">
        <ele>198</ele>
        <time>2018-01-05T10:14:23Z</time>
      </trkpt>
      <trkpt lat="46.00363" lon="4.70504">
        <ele>198</ele>
        <time>2018-01-05T10:14:24Z</time>
      </trkpt>
      <trkpt lat="46.00368" lon="4.70503">
        <ele>198</ele>
        <time>2018-01-05T10:14:25Z</time>
      </trkpt>
      <trkpt lat="46.00374" lon="4.70502">
        <ele>198</ele>
        <time>2018-01-05T10:14:26Z</time>
      </trkpt>
      <trkpt lat="46.00379" lon="4.705">
        <ele>198</ele>
        <time>2018-01-05T10:14:27Z</time>
      </trkpt>
      <trkpt lat="46.00384" lon="4.705">
        <ele>200</ele>
        <time>2018-01-05T10:14:28Z</time>
      </trkpt>
      <trkpt lat="46.00389" lon="4.705">
        <ele>200</ele>
        <time>2018-01-05T10:14:29Z</time>
      </trkpt>
      <trkpt lat="46.00395" lon="4.705">
        <ele>200</ele>
        <time>2018-01-05T10:14:30Z</time>
      </trkpt>
      <trkpt lat="46.004" lon="4.705">
        <ele>199</ele>
        <time>2018-01-05T10:14:31Z</time>
      </trkpt>
      <trkpt lat="46.00405" lon="4.70501">
        <ele>199</ele>
        <time>2018-01-05T10:14:32Z</time>
      </trkpt>
      <trkpt lat="46.0041" lon="4.70501">
        <ele>199</ele>
        <time>2018-01-05T10:14:33Z</time>
      </trkpt>
      <trkpt lat="46.00415" lon="4.70501">
        <ele>200</ele>
        <time>2018-01-05T10:14:34Z</time>
      </trkpt>
      <trkpt lat="46.0042" lon="4.70501">
        <ele>200</ele>
        <time>2018-01-05T10:14:35Z</time>
      </trkpt>
      <trkpt lat="46.00425" lon="4.70501">
        <ele>200</ele>
        <time>2018-01-05T10:14:36Z</time>
      </trkpt>
      <trkpt lat="46.0043" lon="4.70503">
        <ele>200</ele>
        <time>2018-01-05T10:14:37Z</time>
      </trkpt>
      <trkpt lat="46.00435" lon="4.70504">
        <ele>200</ele>
        <time>2018-01-05T10:14:38Z</time>
      </trkpt>
      <trkpt lat="46.00443" lon="4.70507">
        <ele>200</ele>
        <time>2018-01-05T10:14:40Z</time>
      </trkpt>
      <trkpt lat="46.00448" lon="4.70508">
        <ele>201</ele>
        <time>2018-01-05T10:14:41Z</time>
      </trkpt>
      <trkpt lat="46.00452" lon="4.7051">
        <ele>201</ele>
        <time>2018-01-05T10:14:42Z</time>
      </trkpt>
      <trkpt lat="46.00457" lon="4.70513">
        <ele>201</ele>
        <time>2018-01-05T10:14:43Z</time>
      </trkpt>
      <trkpt lat="46.00463" lon="4.70519">
        <ele>201</ele>
        <time>2018-01-05T10:14:45Z</time>
      </trkpt>
      <trkpt lat="46.00466" lon="4.70524">
        <ele>201</ele>
        <time>2018-01-05T10:14:46Z</time>
      </trkpt>
      <trkpt lat="46.00467" lon="4.7053">
        <ele>201</ele>
        <time>2018-01-05T10:14:47Z</time>
      </trkpt>
      <trkpt lat="46.0047" lon="4.70536">
        <ele>201</ele>
        <time>2018-01-05T10:14:48Z</time>
      </trkpt>
      <trkpt lat="46.00473" lon="4.70542">
        <ele>201</ele>
        <time>2018-01-05T10:14:49Z</time>
      </trkpt>
      <trkpt lat="46.00476" lon="4.70547">
        <ele>200</ele>
        <time>2018-01-05T10:14:50Z</time>
      </trkpt>
      <trkpt lat="46.00481" lon="4.70551">
        <ele>200</ele>
        <time>2018-01-05T10:14:51Z</time>
      </trkpt>
      <trkpt lat="46.00486" lon="4.70552">
        <ele>200</ele>
        <time>2018-01-05T10:14:52Z</time>
      </trkpt>
      <trkpt lat="46.00494" lon="4.70549">
        <ele>201</ele>
        <time>2018-01-05T10:14:54Z</time>
      </trkpt>
      <trkpt lat="46.00497" lon="4.70545">
        <ele>201</ele>
        <time>2018-01-05T10:14:55Z</time>
      </trkpt>
      <trkpt lat="46.00499" lon="4.7054">
        <ele>201</ele>
        <time>2018-01-05T10:14:56Z</time>
      </trkpt>
      <trkpt lat="46.00502" lon="4.70534">
        <ele>203</ele>
        <time>2018-01-05T10:14:57Z</time>
      </trkpt>
      <trkpt lat="46.00508" lon="4.70525">
        <ele>203</ele>
        <time>2018-01-05T10:14:59Z</time>
      </trkpt>
      <trkpt lat="46.00511" lon="4.70522">
        <ele>203</ele>
        <time>2018-01-05T10:15:00Z</time>
      </trkpt>
      <trkpt lat="46.00516" lon="4.7052">
        <ele>203</ele>
        <time>2018-01-05T10:15:01Z</time>
      </trkpt>
      <trkpt lat="46.0052" lon="4.70519">
        <ele>204</ele>
        <time>2018-01-05T10:15:02Z</time>
      </trkpt>
      <trkpt lat="46.00525" lon="4.70519">
        <ele>204</ele>
        <time>2018-01-05T10:15:03Z</time>
      </trkpt>
      <trkpt lat="46.0053" lon="4.70519">
        <ele>204</ele>
        <time>2018-01-05T10:15:04Z</time>
      </trkpt>
      <trkpt lat="46.00538" lon="4.70521">
        <ele>204</ele>
        <time>2018-01-05T10:15:06Z</time>
      </trkpt>
      <trkpt lat="46.00543" lon="4.70522">
        <ele>204</ele>
        <time>2018-01-05T10:15:07Z</time>
      </trkpt>
      <trkpt lat="46.00548" lon="4.70521">
        <ele>204</ele>
        <time>2018-01-05T10:15:08Z</time>
      </trkpt>
      <trkpt lat="46.00553" lon="4.70521">
        <ele>204</ele>
        <time>2018-01-05T10:15:09Z</time>
      </trkpt>
      <trkpt lat="46.00558" lon="4.70521">
        <ele>204</ele>
        <time>2018-01-05T10:15:10Z</time>
      </trkpt>
      <trkpt lat="46.00562" lon="4.70521">
        <ele>204</ele>
        <time>2018-01-05T10:15:11Z</time>
      </trkpt>
      <trkpt lat="46.00567" lon="4.7052">
        <ele>205</ele>
        <time>2018-01-05T10:15:12Z</time>
      </trkpt>
      <trkpt lat="46.00572" lon="4.70519">
        <ele>205</ele>
        <time>2018-01-05T10:15:13Z</time>
      </trkpt>
      <trkpt lat="46.00576" lon="4.70519">
        <ele>205</ele>
        <time>2018-01-05T10:15:14Z</time>
      </trkpt>
      <trkpt lat="46.00581" lon="4.70518">
        <ele>205</ele>
        <time>2018-01-05T10:15:15Z</time>
      </trkpt>
      <trkpt lat="46.00586" lon="4.70517">
        <ele>206</ele>
        <time>2018-01-05T10:15:16Z</time>
      </trkpt>
      <trkpt lat="46.00592" lon="4.70515">
        <ele>207</ele>
        <time>2018-01-05T10:15:17Z</time>
      </trkpt>
      <trkpt lat="46.00597" lon="4.70514">
        <ele>207</ele>
        <time>2018-01-05T10:15:18Z</time>
      </trkpt>
      <trkpt lat="46.00601" lon="4.70513">
        <ele>207</ele>
        <time>2018-01-05T10:15:19Z</time>
      </trkpt>
      <trkpt lat="46.00606" lon="4.70513">
        <ele>207</ele>
        <time>2018-01-05T10:15:20Z</time>
      </trkpt>
      <trkpt lat="46.00611" lon="4.70512">
        <ele>207</ele>
        <time>2018-01-05T10:15:21Z</time>
      </trkpt>
      <trkpt lat="46.00616" lon="4.70512">
        <ele>207</ele>
        <time>2018-01-05T10:15:22Z</time>
      </trkpt>
      <trkpt lat="46.00621" lon="4.70511">
        <ele>207</ele>
        <time>2018-01-05T10:15:23Z</time>
      </trkpt>
      <trkpt lat="46.00626" lon="4.7051">
        <ele>207</ele>
        <time>2018-01-05T10:15:24Z</time>
      </trkpt>
      <trkpt lat="46.00631" lon="4.7051">
        <ele>207</ele>
        <time>2018-01-05T10:15:25Z</time>
      </trkpt>
      <trkpt lat="46.00639" lon="4.70509">
        <ele>208</ele>
        <time>2018-01-05T10:15:27Z</time>
      </trkpt>
      <trkpt lat="46.00643" lon="4.70509">
        <ele>208</ele>
        <time>2018-01-05T10:15:28Z</time>
      </trkpt>
      <trkpt lat="46.00651" lon="4.70506">
        <ele>209</ele>
        <time>2018-01-05T10:15:30Z</time>
      </trkpt>
      <trkpt lat="46.00657" lon="4.70505">
        <ele>210</ele>
        <time>2018-01-05T10:15:31Z</time>
      </trkpt>
      <trkpt lat="46.00665" lon="4.70504">
        <ele>211</ele>
        <time>2018-01-05T10:15:33Z</time>
      </trkpt>
      <trkpt lat="46.00669" lon="4.70504">
        <ele>211</ele>
        <time>2018-01-05T10:15:34Z</time>
      </trkpt>
      <trkpt lat="46.00678" lon="4.70506">
        <ele>210</ele>
        <time>2018-01-05T10:15:36Z</time>
      </trkpt>
      <trkpt lat="46.00682" lon="4.70506">
        <ele>209</ele>
        <time>2018-01-05T10:15:37Z</time>
      </trkpt>
      <trkpt lat="46.00687" lon="4.70506">
        <ele>209</ele>
        <time>2018-01-05T10:15:38Z</time>
      </trkpt>
      <trkpt lat="46.00692" lon="4.70506">
        <ele>208</ele>
        <time>2018-01-05T10:15:39Z</time>
      </trkpt>
      <trkpt lat="46.00698" lon="4.70507">
        <ele>208</ele>
        <time>2018-01-05T10:15:40Z</time>
      </trkpt>
      <trkpt lat="46.00704" lon="4.70508">
        <ele>208</ele>
        <time>2018-01-05T10:15:41Z</time>
      </trkpt>
      <trkpt lat="46.0071" lon="4.70509">
        <ele>207</ele>
        <time>2018-01-05T10:15:42Z</time>
      </trkpt>
      <trkpt lat="46.00716" lon="4.70509">
        <ele>207</ele>
        <time>2018-01-05T10:15:43Z</time>
      </trkpt>
      <trkpt lat="46.00722" lon="4.70511">
        <ele>207</ele>
        <time>2018-01-05T10:15:44Z</time>
      </trkpt>
      <trkpt lat="46.00729" lon="4.70513">
        <ele>207</ele>
        <time>2018-01-05T10:15:45Z</time>
      </trkpt>
      <trkpt lat="46.00735" lon="4.70514">
        <ele>207</ele>
        <time>2018-01-05T10:15:46Z</time>
      </trkpt>
      <trkpt lat="46.00742" lon="4.70515">
        <ele>207</ele>
        <time>2018-01-05T10:15:47Z</time>
      </trkpt>
      <trkpt lat="46.00749" lon="4.70517">
        <ele>207</ele>
        <time>2018-01-05T10:15:48Z</time>
      </trkpt>
      <trkpt lat="46.00755" lon="4.7052">
        <ele>205</ele>
        <time>2018-01-05T10:15:49Z</time>
      </trkpt>
      <trkpt lat="46.00762" lon="4.70522">
        <ele>205</ele>
        <time>2018-01-05T10:15:50Z</time>
      </trkpt>
      <trkpt lat="46.00768" lon="4.70524">
        <ele>205</ele>
        <time>2018-01-05T10:15:51Z</time>
      </trkpt>
      <trkpt lat="46.00775" lon="4.70525">
        <ele>204</ele>
        <time>2018-01-05T10:15:52Z</time>
      </trkpt>
      <trkpt lat="46.00781" lon="4.70528">
        <ele>204</ele>
        <time>2018-01-05T10:15:53Z</time>
      </trkpt>
      <trkpt lat="46.00788" lon="4.70531">
        <ele>204</ele>
        <time>2018-01-05T10:15:54Z</time>
      </trkpt>
      <trkpt lat="46.00794" lon="4.70534">
        <ele>204</ele>
        <time>2018-01-05T10:15:55Z</time>
      </trkpt>
      <trkpt lat="46.00801" lon="4.70536">
        <ele>204</ele>
        <time>2018-01-05T10:15:56Z</time>
      </trkpt>
      <trkpt lat="46.00807" lon="4.70538">
        <ele>203</ele>
        <time>2018-01-05T10:15:57Z</time>
      </trkpt>
      <trkpt lat="46.00813" lon="4.70541">
        <ele>203</ele>
        <time>2018-01-05T10:15:58Z</time>
      </trkpt>
      <trkpt lat="46.0082" lon="4.70544">
        <ele>203</ele>
        <time>2018-01-05T10:15:59Z</time>
      </trkpt>
      <trkpt lat="46.00826" lon="4.70547">
        <ele>203</ele>
        <time>2018-01-05T10:16:00Z</time>
      </trkpt>
      <trkpt lat="46.00833" lon="4.70551">
        <ele>203</ele>
        <time>2018-01-05T10:16:01Z</time>
      </trkpt>
      <trkpt lat="46.0084" lon="4.70554">
        <ele>201</ele>
        <time>2018-01-05T10:16:02Z</time>
      </trkpt>
      <trkpt lat="46.00847" lon="4.70556">
        <ele>201</ele>
        <time>2018-01-05T10:16:03Z</time>
      </trkpt>
      <trkpt lat="46.00854" lon="4.7056">
        <ele>201</ele>
        <time>2018-01-05T10:16:04Z</time>
      </trkpt>
      <trkpt lat="46.00861" lon="4.70563">
        <ele>201</ele>
        <time>2018-01-05T10:16:05Z</time>
      </trkpt>
      <trkpt lat="46.00869" lon="4.70567">
        <ele>201</ele>
        <time>2018-01-05T10:16:06Z</time>
      </trkpt>
      <trkpt lat="46.00876" lon="4.7057">
        <ele>200</ele>
        <time>2018-01-05T10:16:07Z</time>
      </trkpt>
      <trkpt lat="46.00883" lon="4.70574">
        <ele>200</ele>
        <time>2018-01-05T10:16:08Z</time>
      </trkpt>
      <trkpt lat="46.0089" lon="4.70578">
        <ele>200</ele>
        <time>2018-01-05T10:16:09Z</time>
      </trkpt>
      <trkpt lat="46.00898" lon="4.70581">
        <ele>200</ele>
        <time>2018-01-05T10:16:10Z</time>
      </trkpt>
      <trkpt lat="46.00906" lon="4.70584">
        <ele>198</ele>
        <time>2018-01-05T10:16:11Z</time>
      </trkpt>
      <trkpt lat="46.00914" lon="4.70588">
        <ele>198</ele>
        <time>2018-01-05T10:16:12Z</time>
      </trkpt>
      <trkpt lat="46.00922" lon="4.70591">
        <ele>198</ele>
        <time>2018-01-05T10:16:13Z</time>
      </trkpt>
      <trkpt lat="46.00929" lon="4.70595">
        <ele>198</ele>
        <time>2018-01-05T10:16:14Z</time>
      </trkpt>
      <trkpt lat="46.00937" lon="4.70599">
        <ele>198</ele>
        <time>2018-01-05T10:16:15Z</time>
      </trkpt>
      <trkpt lat="46.00945" lon="4.70603">
        <ele>197</ele>
        <time>2018-01-05T10:16:16Z</time>
      </trkpt>
      <trkpt lat="46.00953" lon="4.70607">
        <ele>197</ele>
        <time>2018-01-05T10:16:17Z</time>
      </trkpt>
      <trkpt lat="46.00961" lon="4.70611">
        <ele>197</ele>
        <time>2018-01-05T10:16:18Z</time>
      </trkpt>
      <trkpt lat="46.00969" lon="4.70615">
        <ele>197</ele>
        <time>2018-01-05T10:16:19Z</time>
      </trkpt>
      <trkpt lat="46.00977" lon="4.70618">
        <ele>197</ele>
        <time>2018-01-05T10:16:20Z</time>
      </trkpt>
      <trkpt lat="46.00985" lon="4.7062">
        <ele>197</ele>
        <time>2018-01-05T10:16:21Z</time>
      </trkpt>
      <trkpt lat="46.00993" lon="4.70623">
        <ele>197</ele>
        <time>2018-01-05T10:16:22Z</time>
      </trkpt>
      <trkpt lat="46.01001" lon="4.70627">
        <ele>196</ele>
        <time>2018-01-05T10:16:23Z</time>
      </trkpt>
      <trkpt lat="46.01008" lon="4.7063">
        <ele>196</ele>
        <time>2018-01-05T10:16:24Z</time>
      </trkpt>
      <trkpt lat="46.01015" lon="4.70634">
        <ele>196</ele>
        <time>2018-01-05T10:16:25Z</time>
      </trkpt>
      <trkpt lat="46.01022" lon="4.70637">
        <ele>196</ele>
        <time>2018-01-05T10:16:26Z</time>
      </trkpt>
      <trkpt lat="46.01029" lon="4.70641">
        <ele>196</ele>
        <time>2018-01-05T10:16:27Z</time>
      </trkpt>
      <trkpt lat="46.01035" lon="4.70644">
        <ele>196</ele>
        <time>2018-01-05T10:16:28Z</time>
      </trkpt>
      <trkpt lat="46.01043" lon="4.70646">
        <ele>195</ele>
        <time>2018-01-05T10:16:29Z</time>
      </trkpt>
      <trkpt lat="46.0105" lon="4.7065">
        <ele>195</ele>
        <time>2018-01-05T10:16:30Z</time>
      </trkpt>
      <trkpt lat="46.01055" lon="4.70652">
        <ele>195</ele>
        <time>2018-01-05T10:16:31Z</time>
      </trkpt>
      <trkpt lat="46.01062" lon="4.70655">
        <ele>195</ele>
        <time>2018-01-05T10:16:32Z</time>
      </trkpt>
      <trkpt lat="46.01068" lon="4.70658">
        <ele>195</ele>
        <time>2018-01-05T10:16:33Z</time>
      </trkpt>
      <trkpt lat="46.01076" lon="4.7066">
        <ele>195</ele>
        <time>2018-01-05T10:16:34Z</time>
      </trkpt>
      <trkpt lat="46.01082" lon="4.70663">
        <ele>195</ele>
        <time>2018-01-05T10:16:35Z</time>
      </trkpt>
      <trkpt lat="46.01088" lon="4.70667">
        <ele>195</ele>
        <time>2018-01-05T10:16:36Z</time>
      </trkpt>
      <trkpt lat="46.01094" lon="4.7067">
        <ele>195</ele>
        <time>2018-01-05T10:16:37Z</time>
      </trkpt>
      <trkpt lat="46.011" lon="4.70672">
        <ele>195</ele>
        <time>2018-01-05T10:16:38Z</time>
      </trkpt>
      <trkpt lat="46.01108" lon="4.70675">
        <ele>195</ele>
        <time>2018-01-05T10:16:39Z</time>
      </trkpt>
      <trkpt lat="46.01115" lon="4.70678">
        <ele>195</ele>
        <time>2018-01-05T10:16:40Z</time>
      </trkpt>
      <trkpt lat="46.01121" lon="4.70682">
        <ele>195</ele>
        <time>2018-01-05T10:16:41Z</time>
      </trkpt>
      <trkpt lat="46.01129" lon="4.70685">
        <ele>194</ele>
        <time>2018-01-05T10:16:42Z</time>
      </trkpt>
      <trkpt lat="46.01136" lon="4.70688">
        <ele>194</ele>
        <time>2018-01-05T10:16:43Z</time>
      </trkpt>
      <trkpt lat="46.01143" lon="4.70692">
        <ele>194</ele>
        <time>2018-01-05T10:16:44Z</time>
      </trkpt>
      <trkpt lat="46.01149" lon="4.70695">
        <ele>194</ele>
        <time>2018-01-05T10:16:45Z</time>
      </trkpt>
      <trkpt lat="46.01157" lon="4.70698">
        <ele>194</ele>
        <time>2018-01-05T10:16:46Z</time>
      </trkpt>
      <trkpt lat="46.01163" lon="4.70701">
        <ele>194</ele>
        <time>2018-01-05T10:16:47Z</time>
      </trkpt>
      <trkpt lat="46.0117" lon="4.70704">
        <ele>194</ele>
        <time>2018-01-05T10:16:48Z</time>
      </trkpt>
      <trkpt lat="46.01176" lon="4.70706">
        <ele>194</ele>
        <time>2018-01-05T10:16:49Z</time>
      </trkpt>
      <trkpt lat="46.01183" lon="4.70709">
        <ele>194</ele>
        <time>2018-01-05T10:16:50Z</time>
      </trkpt>
      <trkpt lat="46.01189" lon="4.70711">
        <ele>194</ele>
        <time>2018-01-05T10:16:51Z</time>
      </trkpt>
      <trkpt lat="46.01195" lon="4.70714">
        <ele>194</ele>
        <time>2018-01-05T10:16:52Z</time>
      </trkpt>
      <trkpt lat="46.01201" lon="4.70717">
        <ele>194</ele>
        <time>2018-01-05T10:16:53Z</time>
      </trkpt>
      <trkpt lat="46.01207" lon="4.7072">
        <ele>194</ele>
        <time>2018-01-05T10:16:54Z</time>
      </trkpt>
      <trkpt lat="46.01213" lon="4.70722">
        <ele>194</ele>
        <time>2018-01-05T10:16:55Z</time>
      </trkpt>
      <trkpt lat="46.0122" lon="4.70725">
        <ele>194</ele>
        <time>2018-01-05T10:16:56Z</time>
      </trkpt>
      <trkpt lat="46.01226" lon="4.70728">
        <ele>194</ele>
        <time>2018-01-05T10:16:57Z</time>
      </trkpt>
      <trkpt lat="46.01233" lon="4.7073">
        <ele>194</ele>
        <time>2018-01-05T10:16:58Z</time>
      </trkpt>
      <trkpt lat="46.0124" lon="4.70732">
        <ele>193</ele>
        <time>2018-01-05T10:16:59Z</time>
      </trkpt>
      <trkpt lat="46.01247" lon="4.70735">
        <ele>193</ele>
        <time>2018-01-05T10:17:00Z</time>
      </trkpt>
      <trkpt lat="46.01254" lon="4.70738">
        <ele>192</ele>
        <time>2018-01-05T10:17:01Z</time>
      </trkpt>
      <trkpt lat="46.01261" lon="4.7074">
        <ele>192</ele>
        <time>2018-01-05T10:17:02Z</time>
      </trkpt>
      <trkpt lat="46.01268" lon="4.70742">
        <ele>192</ele>
        <time>2018-01-05T10:17:03Z</time>
      </trkpt>
      <trkpt lat="46.01274" lon="4.70744">
        <ele>192</ele>
        <time>2018-01-05T10:17:04Z</time>
      </trkpt>
      <trkpt lat="46.01282" lon="4.70744">
        <ele>192</ele>
        <time>2018-01-05T10:17:05Z</time>
      </trkpt>
      <trkpt lat="46.01287" lon="4.70745">
        <ele>191</ele>
        <time>2018-01-05T10:17:06Z</time>
      </trkpt>
      <trkpt lat="46.01294" lon="4.70748">
        <ele>191</ele>
        <time>2018-01-05T10:17:07Z</time>
      </trkpt>
      <trkpt lat="46.01301" lon="4.70749">
        <ele>191</ele>
        <time>2018-01-05T10:17:08Z</time>
      </trkpt>
      <trkpt lat="46.01307" lon="4.7075">
        <ele>191</ele>
        <time>2018-01-05T10:17:09Z</time>
      </trkpt>
      <trkpt lat="46.01312" lon="4.70751">
        <ele>190</ele>
        <time>2018-01-05T10:17:10Z</time>
      </trkpt>
      <trkpt lat="46.01318" lon="4.70752">
        <ele>190</ele>
        <time>2018-01-05T10:17:11Z</time>
      </trkpt>
      <trkpt lat="46.01324" lon="4.70752">
        <ele>190</ele>
        <time>2018-01-05T10:17:12Z</time>
      </trkpt>
      <trkpt lat="46.01331" lon="4.70752">
        <ele>189</ele>
        <time>2018-01-05T10:17:13Z</time>
      </trkpt>
      <trkpt lat="46.01337" lon="4.70753">
        <ele>189</ele>
        <time>2018-01-05T10:17:14Z</time>
      </trkpt>
      <trkpt lat="46.01343" lon="4.70753">
        <ele>189</ele>
        <time>2018-01-05T10:17:15Z</time>
      </trkpt>
      <trkpt lat="46.0135" lon="4.70754">
        <ele>189</ele>
        <time>2018-01-05T10:17:16Z</time>
      </trkpt>
      <trkpt lat="46.01357" lon="4.70754">
        <ele>189</ele>
        <time>2018-01-05T10:17:17Z</time>
      </trkpt>
      <trkpt lat="46.01364" lon="4.70755">
        <ele>189</ele>
        <time>2018-01-05T10:17:18Z</time>
      </trkpt>
      <trkpt lat="46.01371" lon="4.70754">
        <ele>189</ele>
        <time>2018-01-05T10:17:19Z</time>
      </trkpt>
      <trkpt lat="46.01377" lon="4.70754">
        <ele>189</ele>
        <time>2018-01-05T10:17:20Z</time>
      </trkpt>
      <trkpt lat="46.01384" lon="4.70753">
        <ele>189</ele>
        <time>2018-01-05T10:17:21Z</time>
      </trkpt>
      <trkpt lat="46.01392" lon="4.70752">
        <ele>189</ele>
        <time>2018-01-05T10:17:22Z</time>
      </trkpt>
      <trkpt lat="46.01399" lon="4.70751">
        <ele>189</ele>
        <time>2018-01-05T10:17:23Z</time>
      </trkpt>
      <trkpt lat="46.01407" lon="4.7075">
        <ele>189</ele>
        <time>2018-01-05T10:17:24Z</time>
      </trkpt>
      <trkpt lat="46.01414" lon="4.70751">
        <ele>189</ele>
        <time>2018-01-05T10:17:25Z</time>
      </trkpt>
      <trkpt lat="46.01421" lon="4.7075">
        <ele>189</ele>
        <time>2018-01-05T10:17:26Z</time>
      </trkpt>
      <trkpt lat="46.01428" lon="4.70749">
        <ele>189</ele>
        <time>2018-01-05T10:17:27Z</time>
      </trkpt>
      <trkpt lat="46.01434" lon="4.70749">
        <ele>189</ele>
        <time>2018-01-05T10:17:28Z</time>
      </trkpt>
      <trkpt lat="46.01441" lon="4.70748">
        <ele>189</ele>
        <time>2018-01-05T10:17:29Z</time>
      </trkpt>
      <trkpt lat="46.01448" lon="4.70746">
        <ele>189</ele>
        <time>2018-01-05T10:17:30Z</time>
      </trkpt>
      <trkpt lat="46.01454" lon="4.70745">
        <ele>189</ele>
        <time>2018-01-05T10:17:31Z</time>
      </trkpt>
      <trkpt lat="46.01462" lon="4.70745">
        <ele>190</ele>
        <time>2018-01-05T10:17:32Z</time>
      </trkpt>
      <trkpt lat="46.01468" lon="4.70744">
        <ele>190</ele>
        <time>2018-01-05T10:17:33Z</time>
      </trkpt>
      <trkpt lat="46.01475" lon="4.70744">
        <ele>190</ele>
        <time>2018-01-05T10:17:34Z</time>
      </trkpt>
      <trkpt lat="46.01481" lon="4.70744">
        <ele>190</ele>
        <time>2018-01-05T10:17:35Z</time>
      </trkpt>
      <trkpt lat="46.01488" lon="4.70743">
        <ele>190</ele>
        <time>2018-01-05T10:17:36Z</time>
      </trkpt>
      <trkpt lat="46.01495" lon="4.70742">
        <ele>190</ele>
        <time>2018-01-05T10:17:37Z</time>
      </trkpt>
      <trkpt lat="46.01502" lon="4.70743">
        <ele>191</ele>
        <time>2018-01-05T10:17:38Z</time>
      </trkpt>
      <trkpt lat="46.01509" lon="4.70744">
        <ele>190</ele>
        <time>2018-01-05T10:17:39Z</time>
      </trkpt>
      <trkpt lat="46.01515" lon="4.70742">
        <ele>190</ele>
        <time>2018-01-05T10:17:40Z</time>
      </trkpt>
      <trkpt lat="46.01521" lon="4.70742">
        <ele>190</ele>
        <time>2018-01-05T10:17:41Z</time>
      </trkpt>
      <trkpt lat="46.01528" lon="4.7074">
        <ele>190</ele>
        <time>2018-01-05T10:17:42Z</time>
      </trkpt>
      <trkpt lat="46.01534" lon="4.70739">
        <ele>190</ele>
        <time>2018-01-05T10:17:43Z</time>
      </trkpt>
      <trkpt lat="46.01541" lon="4.70738">
        <ele>190</ele>
        <time>2018-01-05T10:17:44Z</time>
      </trkpt>
      <trkpt lat="46.01547" lon="4.70738">
        <ele>190</ele>
        <time>2018-01-05T10:17:45Z</time>
      </trkpt>
      <trkpt lat="46.01554" lon="4.70738">
        <ele>190</ele>
        <time>2018-01-05T10:17:46Z</time>
      </trkpt>
      <trkpt lat="46.0156" lon="4.70736">
        <ele>190</ele>
        <time>2018-01-05T10:17:47Z</time>
      </trkpt>
      <trkpt lat="46.01568" lon="4.70735">
        <ele>190</ele>
        <time>2018-01-05T10:17:48Z</time>
      </trkpt>
      <trkpt lat="46.01575" lon="4.70734">
        <ele>190</ele>
        <time>2018-01-05T10:17:49Z</time>
      </trkpt>
      <trkpt lat="46.01582" lon="4.70733">
        <ele>190</ele>
        <time>2018-01-05T10:17:50Z</time>
      </trkpt>
      <trkpt lat="46.0159" lon="4.70732">
        <ele>190</ele>
        <time>2018-01-05T10:17:51Z</time>
      </trkpt>
      <trkpt lat="46.01597" lon="4.7073">
        <ele>190</ele>
        <time>2018-01-05T10:17:52Z</time>
      </trkpt>
      <trkpt lat="46.01604" lon="4.70729">
        <ele>190</ele>
        <time>2018-01-05T10:17:53Z</time>
      </trkpt>
      <trkpt lat="46.01611" lon="4.70728">
        <ele>190</ele>
        <time>2018-01-05T10:17:54Z</time>
      </trkpt>
      <trkpt lat="46.01618" lon="4.70728">
        <ele>190</ele>
        <time>2018-01-05T10:17:55Z</time>
      </trkpt>
      <trkpt lat="46.01626" lon="4.70727">
        <ele>190</ele>
        <time>2018-01-05T10:17:56Z</time>
      </trkpt>
      <trkpt lat="46.01633" lon="4.70726">
        <ele>190</ele>
        <time>2018-01-05T10:17:57Z</time>
      </trkpt>
      <trkpt lat="46.0164" lon="4.70725">
        <ele>190</ele>
        <time>2018-01-05T10:17:58Z</time>
      </trkpt>
      <trkpt lat="46.01647" lon="4.70723">
        <ele>190</ele>
        <time>2018-01-05T10:17:59Z</time>
      </trkpt>
      <trkpt lat="46.01654" lon="4.70722">
        <ele>190</ele>
        <time>2018-01-05T10:18:00Z</time>
      </trkpt>
      <trkpt lat="46.01661" lon="4.70721">
        <ele>190</ele>
        <time>2018-01-05T10:18:01Z</time>
      </trkpt>
      <trkpt lat="46.01668" lon="4.7072">
        <ele>189</ele>
        <time>2018-01-05T10:18:02Z</time>
      </trkpt>
      <trkpt lat="46.01674" lon="4.70719">
        <ele>189</ele>
        <time>2018-01-05T10:18:03Z</time>
      </trkpt>
      <trkpt lat="46.01681" lon="4.70719">
        <ele>189</ele>
        <time>2018-01-05T10:18:04Z</time>
      </trkpt>
      <trkpt lat="46.01688" lon="4.70718">
        <ele>189</ele>
        <time>2018-01-05T10:18:05Z</time>
      </trkpt>
      <trkpt lat="46.01696" lon="4.70717">
        <ele>189</ele>
        <time>2018-01-05T10:18:06Z</time>
      </trkpt>
      <trkpt lat="46.01702" lon="4.70716">
        <ele>189</ele>
        <time>2018-01-05T10:18:07Z</time>
      </trkpt>
      <trkpt lat="46.01709" lon="4.70716">
        <ele>188</ele>
        <time>2018-01-05T10:18:08Z</time>
      </trkpt>
      <trkpt lat="46.01716" lon="4.70715">
        <ele>188</ele>
        <time>2018-01-05T10:18:09Z</time>
      </trkpt>
      <trkpt lat="46.01724" lon="4.70717">
        <ele>188</ele>
        <time>2018-01-05T10:18:10Z</time>
      </trkpt>
      <trkpt lat="46.01731" lon="4.70716">
        <ele>188</ele>
        <time>2018-01-05T10:18:11Z</time>
      </trkpt>
      <trkpt lat="46.01737" lon="4.70715">
        <ele>188</ele>
        <time>2018-01-05T10:18:12Z</time>
      </trkpt>
      <trkpt lat="46.01744" lon="4.70715">
        <ele>188</ele>
        <time>2018-01-05T10:18:13Z</time>
      </trkpt>
      <trkpt lat="46.01751" lon="4.70715">
        <ele>187</ele>
        <time>2018-01-05T10:18:14Z</time>
      </trkpt>
      <trkpt lat="46.01758" lon="4.70714">
        <ele>187</ele>
        <time>2018-01-05T10:18:15Z</time>
      </trkpt>
      <trkpt lat="46.01764" lon="4.70712">
        <ele>187</ele>
        <time>2018-01-05T10:18:16Z</time>
      </trkpt>
      <trkpt lat="46.0177" lon="4.7071">
        <ele>187</ele>
        <time>2018-01-05T10:18:17Z</time>
      </trkpt>
      <trkpt lat="46.01776" lon="4.70708">
        <ele>187</ele>
        <time>2018-01-05T10:18:18Z</time>
      </trkpt>
      <trkpt lat="46.01783" lon="4.70707">
        <ele>187</ele>
        <time>2018-01-05T10:18:19Z</time>
      </trkpt>
      <trkpt lat="46.01791" lon="4.70709">
        <ele>187</ele>
        <time>2018-01-05T10:18:20Z</time>
      </trkpt>
      <trkpt lat="46.01799" lon="4.70708">
        <ele>187</ele>
        <time>2018-01-05T10:18:21Z</time>
      </trkpt>
      <trkpt lat="46.01806" lon="4.70707">
        <ele>187</ele>
        <time>2018-01-05T10:18:22Z</time>
      </trkpt>
      <trkpt lat="46.01813" lon="4.70706">
        <ele>187</ele>
        <time>2018-01-05T10:18:23Z</time>
      </trkpt>
      <trkpt lat="46.0182" lon="4.70705">
        <ele>187</ele>
        <time>2018-01-05T10:18:24Z</time>
      </trkpt>
      <trkpt lat="46.01829" lon="4.70704">
        <ele>187</ele>
        <time>2018-01-05T10:18:25Z</time>
      </trkpt>
      <trkpt lat="46.01836" lon="4.70702">
        <ele>185</ele>
        <time>2018-01-05T10:18:26Z</time>
      </trkpt>
      <trkpt lat="46.01844" lon="4.707">
        <ele>185</ele>
        <time>2018-01-05T10:18:27Z</time>
      </trkpt>
      <trkpt lat="46.01851" lon="4.70698">
        <ele>185</ele>
        <time>2018-01-05T10:18:28Z</time>
      </trkpt>
      <trkpt lat="46.01861" lon="4.70699">
        <ele>185</ele>
        <time>2018-01-05T10:18:29Z</time>
      </trkpt>
      <trkpt lat="46.01868" lon="4.70698">
        <ele>185</ele>
        <time>2018-01-05T10:18:30Z</time>
      </trkpt>
      <trkpt lat="46.01876" lon="4.70698">
        <ele>185</ele>
        <time>2018-01-05T10:18:31Z</time>
      </trkpt>
      <trkpt lat="46.01884" lon="4.70699">
        <ele>184</ele>
        <time>2018-01-05T10:18:32Z</time>
      </trkpt>
      <trkpt lat="46.01891" lon="4.70699">
        <ele>184</ele>
        <time>2018-01-05T10:18:33Z</time>
      </trkpt>
      <trkpt lat="46.01899" lon="4.707">
        <ele>184</ele>
        <time>2018-01-05T10:18:34Z</time>
      </trkpt>
      <trkpt lat="46.01906" lon="4.707">
        <ele>184</ele>
        <time>2018-01-05T10:18:35Z</time>
      </trkpt>
      <trkpt lat="46.01913" lon="4.70701">
        <ele>184</ele>
        <time>2018-01-05T10:18:36Z</time>
      </trkpt>
      <trkpt lat="46.0192" lon="4.70702">
        <ele>182</ele>
        <time>2018-01-05T10:18:37Z</time>
      </trkpt>
      <trkpt lat="46.01927" lon="4.70704">
        <ele>182</ele>
        <time>2018-01-05T10:18:38Z</time>
      </trkpt>
      <trkpt lat="46.01935" lon="4.70705">
        <ele>182</ele>
        <time>2018-01-05T10:18:39Z</time>
      </trkpt>
      <trkpt lat="46.01942" lon="4.70707">
        <ele>182</ele>
        <time>2018-01-05T10:18:40Z</time>
      </trkpt>
      <trkpt lat="46.01949" lon="4.70708">
        <ele>181</ele>
        <time>2018-01-05T10:18:41Z</time>
      </trkpt>
      <trkpt lat="46.01956" lon="4.70709">
        <ele>181</ele>
        <time>2018-01-05T10:18:42Z</time>
      </trkpt>
      <trkpt lat="46.01963" lon="4.70711">
        <ele>181</ele>
        <time>2018-01-05T10:18:43Z</time>
      </trkpt>
      <trkpt lat="46.0197" lon="4.70712">
        <ele>181</ele>
        <time>2018-01-05T10:18:44Z</time>
      </trkpt>
      <trkpt lat="46.01977" lon="4.70713">
        <ele>181</ele>
        <time>2018-01-05T10:18:45Z</time>
      </trkpt>
      <trkpt lat="46.01984" lon="4.70715">
        <ele>181</ele>
        <time>2018-01-05T10:18:46Z</time>
      </trkpt>
      <trkpt lat="46.01991" lon="4.70716">
        <ele>181</ele>
        <time>2018-01-05T10:18:47Z</time>
      </trkpt>
      <trkpt lat="46.01997" lon="4.70717">
        <ele>181</ele>
        <time>2018-01-05T10:18:48Z</time>
      </trkpt>
      <trkpt lat="46.02004" lon="4.70718">
        <ele>179</ele>
        <time>2018-01-05T10:18:49Z</time>
      </trkpt>
      <trkpt lat="46.02011" lon="4.70719">
        <ele>179</ele>
        <time>2018-01-05T10:18:50Z</time>
      </trkpt>
      <trkpt lat="46.02018" lon="4.70721">
        <ele>179</ele>
        <time>2018-01-05T10:18:51Z</time>
      </trkpt>
      <trkpt lat="46.02024" lon="4.70722">
        <ele>179</ele>
        <time>2018-01-05T10:18:52Z</time>
      </trkpt>
      <trkpt lat="46.02031" lon="4.70723">
        <ele>179</ele>
        <time>2018-01-05T10:18:53Z</time>
      </trkpt>
      <trkpt lat="46.02038" lon="4.70725">
        <ele>179</ele>
        <time>2018-01-05T10:18:54Z</time>
      </trkpt>
      <trkpt lat="46.02044" lon="4.70726">
        <ele>179</ele>
        <time>2018-01-05T10:18:55Z</time>
      </trkpt>
      <trkpt lat="46.02051" lon="4.70727">
        <ele>179</ele>
        <time>2018-01-05T10:18:56Z</time>
      </trkpt>
      <trkpt lat="46.02058" lon="4.70728">
        <ele>179</ele>
        <time>2018-01-05T10:18:57Z</time>
      </trkpt>
      <trkpt lat="46.02064" lon="4.70728">
        <ele>178</ele>
        <time>2018-01-05T10:18:58Z</time>
      </trkpt>
      <trkpt lat="46.02072" lon="4.7073">
        <ele>178</ele>
        <time>2018-01-05T10:18:59Z</time>
      </trkpt>
      <trkpt lat="46.02078" lon="4.70732">
        <ele>178</ele>
        <time>2018-01-05T10:19:00Z</time>
      </trkpt>
      <trkpt lat="46.02085" lon="4.70733">
        <ele>178</ele>
        <time>2018-01-05T10:19:01Z</time>
      </trkpt>
      <trkpt lat="46.02092" lon="4.70734">
        <ele>178</ele>
        <time>2018-01-05T10:19:02Z</time>
      </trkpt>
      <trkpt lat="46.02098" lon="4.70735">
        <ele>178</ele>
        <time>2018-01-05T10:19:03Z</time>
      </trkpt>
      <trkpt lat="46.02105" lon="4.70736">
        <ele>178</ele>
        <time>2018-01-05T10:19:04Z</time>
      </trkpt>
      <trkpt lat="46.02111" lon="4.70737">
        <ele>178</ele>
        <time>2018-01-05T10:19:05Z</time>
      </trkpt>
      <trkpt lat="46.02117" lon="4.70738">
        <ele>179</ele>
        <time>2018-01-05T10:19:06Z</time>
      </trkpt>
      <trkpt lat="46.02124" lon="4.70741">
        <ele>179</ele>
        <time>2018-01-05T10:19:07Z</time>
      </trkpt>
      <trkpt lat="46.0213" lon="4.70742">
        <ele>179</ele>
        <time>2018-01-05T10:19:08Z</time>
      </trkpt>
      <trkpt lat="46.02137" lon="4.70744">
        <ele>179</ele>
        <time>2018-01-05T10:19:09Z</time>
      </trkpt>
      <trkpt lat="46.02143" lon="4.70745">
        <ele>179</ele>
        <time>2018-01-05T10:19:10Z</time>
      </trkpt>
      <trkpt lat="46.0215" lon="4.70746">
        <ele>179</ele>
        <time>2018-01-05T10:19:11Z</time>
      </trkpt>
      <trkpt lat="46.02156" lon="4.70747">
        <ele>179</ele>
        <time>2018-01-05T10:19:12Z</time>
      </trkpt>
      <trkpt lat="46.02163" lon="4.70749">
        <ele>179</ele>
        <time>2018-01-05T10:19:13Z</time>
      </trkpt>
      <trkpt lat="46.02169" lon="4.7075">
        <ele>179</ele>
        <time>2018-01-05T10:19:14Z</time>
      </trkpt>
      <trkpt lat="46.02175" lon="4.70752">
        <ele>179</ele>
        <time>2018-01-05T10:19:15Z</time>
      </trkpt>
      <trkpt lat="46.02182" lon="4.70753">
        <ele>179</ele>
        <time>2018-01-05T10:19:16Z</time>
      </trkpt>
      <trkpt lat="46.02187" lon="4.70753">
        <ele>179</ele>
        <time>2018-01-05T10:19:17Z</time>
      </trkpt>
      <trkpt lat="46.02193" lon="4.70753">
        <ele>179</ele>
        <time>2018-01-05T10:19:18Z</time>
      </trkpt>
      <trkpt lat="46.02198" lon="4.70754">
        <ele>179</ele>
        <time>2018-01-05T10:19:19Z</time>
      </trkpt>
      <trkpt lat="46.02204" lon="4.70754">
        <ele>179</ele>
        <time>2018-01-05T10:19:20Z</time>
      </trkpt>
      <trkpt lat="46.0221" lon="4.70755">
        <ele>180</ele>
        <time>2018-01-05T10:19:21Z</time>
      </trkpt>
      <trkpt lat="46.02216" lon="4.70756">
        <ele>180</ele>
        <time>2018-01-05T10:19:22Z</time>
      </trkpt>
      <trkpt lat="46.02222" lon="4.70757">
        <ele>180</ele>
        <time>2018-01-05T10:19:23Z</time>
      </trkpt>
      <trkpt lat="46.02229" lon="4.70759">
        <ele>180</ele>
        <time>2018-01-05T10:19:24Z</time>
      </trkpt>
      <trkpt lat="46.02235" lon="4.7076">
        <ele>180</ele>
        <time>2018-01-05T10:19:25Z</time>
      </trkpt>
      <trkpt lat="46.02242" lon="4.70761">
        <ele>180</ele>
        <time>2018-01-05T10:19:26Z</time>
      </trkpt>
      <trkpt lat="46.02248" lon="4.70762">
        <ele>180</ele>
        <time>2018-01-05T10:19:27Z</time>
      </trkpt>
      <trkpt lat="46.02254" lon="4.70764">
        <ele>181</ele>
        <time>2018-01-05T10:19:28Z</time>
      </trkpt>
      <trkpt lat="46.0226" lon="4.70765">
        <ele>181</ele>
        <time>2018-01-05T10:19:29Z</time>
      </trkpt>
      <trkpt lat="46.02266" lon="4.70766">
        <ele>181</ele>
        <time>2018-01-05T10:19:30Z</time>
      </trkpt>
      <trkpt lat="46.02271" lon="4.70766">
        <ele>181</ele>
        <time>2018-01-05T10:19:31Z</time>
      </trkpt>
      <trkpt lat="46.02276" lon="4.70767">
        <ele>181</ele>
        <time>2018-01-05T10:19:32Z</time>
      </trkpt>
      <trkpt lat="46.02281" lon="4.70767">
        <ele>181</ele>
        <time>2018-01-05T10:19:33Z</time>
      </trkpt>
      <trkpt lat="46.02286" lon="4.70768">
        <ele>181</ele>
        <time>2018-01-05T10:19:34Z</time>
      </trkpt>
      <trkpt lat="46.02291" lon="4.70769">
        <ele>181</ele>
        <time>2018-01-05T10:19:35Z</time>
      </trkpt>
      <trkpt lat="46.02299" lon="4.70771">
        <ele>180</ele>
        <time>2018-01-05T10:19:37Z</time>
      </trkpt>
      <trkpt lat="46.02303" lon="4.70773">
        <ele>180</ele>
        <time>2018-01-05T10:19:38Z</time>
      </trkpt>
      <trkpt lat="46.02307" lon="4.70774">
        <ele>180</ele>
        <time>2018-01-05T10:19:39Z</time>
      </trkpt>
      <trkpt lat="46.02313" lon="4.70774">
        <ele>180</ele>
        <time>2018-01-05T10:19:40Z</time>
      </trkpt>
      <trkpt lat="46.02321" lon="4.70776">
        <ele>180</ele>
        <time>2018-01-05T10:19:42Z</time>
      </trkpt>
      <trkpt lat="46.02325" lon="4.70777">
        <ele>180</ele>
        <time>2018-01-05T10:19:43Z</time>
      </trkpt>
      <trkpt lat="46.0233" lon="4.70778">
        <ele>180</ele>
        <time>2018-01-05T10:19:44Z</time>
      </trkpt>
      <trkpt lat="46.02334" lon="4.70779">
        <ele>182</ele>
        <time>2018-01-05T10:19:45Z</time>
      </trkpt>
      <trkpt lat="46.02339" lon="4.70779">
        <ele>182</ele>
        <time>2018-01-05T10:19:46Z</time>
      </trkpt>
      <trkpt lat="46.02343" lon="4.7078">
        <ele>183</ele>
        <time>2018-01-05T10:19:47Z</time>
      </trkpt>
      <trkpt lat="46.02352" lon="4.70782">
        <ele>183</ele>
        <time>2018-01-05T10:19:49Z</time>
      </trkpt>
      <trkpt lat="46.02356" lon="4.70782">
        <ele>183</ele>
        <time>2018-01-05T10:19:50Z</time>
      </trkpt>
      <trkpt lat="46.02365" lon="4.70783">
        <ele>183</ele>
        <time>2018-01-05T10:19:52Z</time>
      </trkpt>
      <trkpt lat="46.02369" lon="4.70784">
        <ele>184</ele>
        <time>2018-01-05T10:19:53Z</time>
      </trkpt>
      <trkpt lat="46.02378" lon="4.70785">
        <ele>184</ele>
        <time>2018-01-05T10:19:55Z</time>
      </trkpt>
      <trkpt lat="46.02382" lon="4.70786">
        <ele>184</ele>
        <time>2018-01-05T10:19:56Z</time>
      </trkpt>
      <trkpt lat="46.0239" lon="4.70788">
        <ele>184</ele>
        <time>2018-01-05T10:19:58Z</time>
      </trkpt>
      <trkpt lat="46.02395" lon="4.70789">
        <ele>185</ele>
        <time>2018-01-05T10:19:59Z</time>
      </trkpt>
      <trkpt lat="46.02403" lon="4.70789">
        <ele>185</ele>
        <time>2018-01-05T10:20:01Z</time>
      </trkpt>
      <trkpt lat="46.02407" lon="4.70789">
        <ele>185</ele>
        <time>2018-01-05T10:20:02Z</time>
      </trkpt>
      <trkpt lat="46.02415" lon="4.70787">
        <ele>185</ele>
        <time>2018-01-05T10:20:04Z</time>
      </trkpt>
      <trkpt lat="46.02417" lon="4.70786">
        <ele>189</ele>
        <time>2018-01-05T10:20:05Z</time>
      </trkpt>
      <trkpt lat="46.02425" lon="4.70786">
        <ele>189</ele>
        <time>2018-01-05T10:20:10Z</time>
      </trkpt>
      <trkpt lat="46.02427" lon="4.70787">
        <ele>189</ele>
        <time>2018-01-05T10:20:11Z</time>
      </trkpt>
      <trkpt lat="46.02436" lon="4.70784">
        <ele>189</ele>
        <time>2018-01-05T10:20:15Z</time>
      </trkpt>
      <trkpt lat="46.02438" lon="4.70781">
        <ele>189</ele>
        <time>2018-01-05T10:20:16Z</time>
      </trkpt>
      <trkpt lat="46.02442" lon="4.70773">
        <ele>189</ele>
        <time>2018-01-05T10:20:18Z</time>
      </trkpt>
      <trkpt lat="46.02443" lon="4.70768">
        <ele>190</ele>
        <time>2018-01-05T10:20:19Z</time>
      </trkpt>
      <trkpt lat="46.02446" lon="4.70759">
        <ele>190</ele>
        <time>2018-01-05T10:20:21Z</time>
      </trkpt>
      <trkpt lat="46.02449" lon="4.70754">
        <ele>190</ele>
        <time>2018-01-05T10:20:22Z</time>
      </trkpt>
      <trkpt lat="46.02453" lon="4.70746">
        <ele>190</ele>
        <time>2018-01-05T10:20:24Z</time>
      </trkpt>
      <trkpt lat="46.02455" lon="4.7074">
        <ele>190</ele>
        <time>2018-01-05T10:20:25Z</time>
      </trkpt>
      <trkpt lat="46.02457" lon="4.70728">
        <ele>190</ele>
        <time>2018-01-05T10:20:27Z</time>
      </trkpt>
      <trkpt lat="46.02459" lon="4.70722">
        <ele>190</ele>
        <time>2018-01-05T10:20:28Z</time>
      </trkpt>
      <trkpt lat="46.02462" lon="4.7071">
        <ele>190</ele>
        <time>2018-01-05T10:20:30Z</time>
      </trkpt>
      <trkpt lat="46.02463" lon="4.70704">
        <ele>190</ele>
        <time>2018-01-05T10:20:31Z</time>
      </trkpt>
      <trkpt lat="46.02466" lon="4.70694">
        <ele>190</ele>
        <time>2018-01-05T10:20:33Z</time>
      </trkpt>
      <trkpt lat="46.02467" lon="4.70687">
        <ele>190</ele>
        <time>2018-01-05T10:20:34Z</time>
      </trkpt>
      <trkpt lat="46.02468" lon="4.70681">
        <ele>190</ele>
        <time>2018-01-05T10:20:35Z</time>
      </trkpt>
      <trkpt lat="46.02469" lon="4.70675">
        <ele>190</ele>
        <time>2018-01-05T10:20:36Z</time>
      </trkpt>
      <trkpt lat="46.02471" lon="4.70668">
        <ele>190</ele>
        <time>2018-01-05T10:20:37Z</time>
      </trkpt>
      <trkpt lat="46.02473" lon="4.70661">
        <ele>189</ele>
        <time>2018-01-05T10:20:38Z</time>
      </trkpt>
      <trkpt lat="46.02475" lon="4.70653">
        <ele>189</ele>
        <time>2018-01-05T10:20:39Z</time>
      </trkpt>
      <trkpt lat="46.02476" lon="4.70647">
        <ele>189</ele>
        <time>2018-01-05T10:20:40Z</time>
      </trkpt>
      <trkpt lat="46.02478" lon="4.70636">
        <ele>188</ele>
        <time>2018-01-05T10:20:42Z</time>
      </trkpt>
      <trkpt lat="46.02481" lon="4.70631">
        <ele>188</ele>
        <time>2018-01-05T10:20:43Z</time>
      </trkpt>
      <trkpt lat="46.02488" lon="4.70628">
        <ele>188</ele>
        <time>2018-01-05T10:20:45Z</time>
      </trkpt>
      <trkpt lat="46.02492" lon="4.70629">
        <ele>188</ele>
        <time>2018-01-05T10:20:46Z</time>
      </trkpt>
      <trkpt lat="46.025" lon="4.70632">
        <ele>189</ele>
        <time>2018-01-05T10:20:48Z</time>
      </trkpt>
      <trkpt lat="46.02504" lon="4.70632">
        <ele>189</ele>
        <time>2018-01-05T10:20:49Z</time>
      </trkpt>
      <trkpt lat="46.02509" lon="4.70634">
        <ele>189</ele>
        <time>2018-01-05T10:20:50Z</time>
      </trkpt>
      <trkpt lat="46.02513" lon="4.70635">
        <ele>189</ele>
        <time>2018-01-05T10:20:51Z</time>
      </trkpt>
      <trkpt lat="46.02519" lon="4.70636">
        <ele>189</ele>
        <time>2018-01-05T10:20:52Z</time>
      </trkpt>
      <trkpt lat="46.02524" lon="4.70636">
        <ele>189</ele>
        <time>2018-01-05T10:20:53Z</time>
      </trkpt>
      <trkpt lat="46.02528" lon="4.70636">
        <ele>189</ele>
        <time>2018-01-05T10:20:54Z</time>
      </trkpt>
      <trkpt lat="46.02533" lon="4.70638">
        <ele>189</ele>
        <time>2018-01-05T10:20:55Z</time>
      </trkpt>
      <trkpt lat="46.02537" lon="4.7064">
        <ele>189</ele>
        <time>2018-01-05T10:20:56Z</time>
      </trkpt>
      <trkpt lat="46.02542" lon="4.70641">
        <ele>189</ele>
        <time>2018-01-05T10:20:57Z</time>
      </trkpt>
      <trkpt lat="46.02548" lon="4.70644">
        <ele>189</ele>
        <time>2018-01-05T10:20:58Z</time>
      </trkpt>
      <trkpt lat="46.02553" lon="4.70646">
        <ele>189</ele>
        <time>2018-01-05T10:20:59Z</time>
      </trkpt>
      <trkpt lat="46.02558" lon="4.70646">
        <ele>189</ele>
        <time>2018-01-05T10:21:00Z</time>
      </trkpt>
      <trkpt lat="46.02563" lon="4.70648">
        <ele>190</ele>
        <time>2018-01-05T10:21:01Z</time>
      </trkpt>
      <trkpt lat="46.02569" lon="4.70649">
        <ele>190</ele>
        <time>2018-01-05T10:21:02Z</time>
      </trkpt>
      <trkpt lat="46.02575" lon="4.70649">
        <ele>190</ele>
        <time>2018-01-05T10:21:03Z</time>
      </trkpt>
      <trkpt lat="46.0258" lon="4.7065">
        <ele>190</ele>
        <time>2018-01-05T10:21:04Z</time>
      </trkpt>
      <trkpt lat="46.02585" lon="4.70652">
        <ele>190</ele>
        <time>2018-01-05T10:21:05Z</time>
      </trkpt>
      <trkpt lat="46.02589" lon="4.70653">
        <ele>190</ele>
        <time>2018-01-05T10:21:06Z</time>
      </trkpt>
      <trkpt lat="46.02594" lon="4.70655">
        <ele>190</ele>
        <time>2018-01-05T10:21:07Z</time>
      </trkpt>
      <trkpt lat="46.02599" lon="4.70657">
        <ele>190</ele>
        <time>2018-01-05T10:21:08Z</time>
      </trkpt>
      <trkpt lat="46.02604" lon="4.70658">
        <ele>190</ele>
        <time>2018-01-05T10:21:09Z</time>
      </trkpt>
      <trkpt lat="46.02609" lon="4.70659">
        <ele>190</ele>
        <time>2018-01-05T10:21:10Z</time>
      </trkpt>
      <trkpt lat="46.02614" lon="4.70659">
        <ele>190</ele>
        <time>2018-01-05T10:21:11Z</time>
      </trkpt>
      <trkpt lat="46.0262" lon="4.7066">
        <ele>190</ele>
        <time>2018-01-05T10:21:12Z</time>
      </trkpt>
      <trkpt lat="46.02625" lon="4.7066">
        <ele>190</ele>
        <time>2018-01-05T10:21:13Z</time>
      </trkpt>
      <trkpt lat="46.02631" lon="4.70661">
        <ele>190</ele>
        <time>2018-01-05T10:21:14Z</time>
      </trkpt>
      <trkpt lat="46.02636" lon="4.70661">
        <ele>190</ele>
        <time>2018-01-05T10:21:15Z</time>
      </trkpt>
      <trkpt lat="46.02641" lon="4.70661">
        <ele>190</ele>
        <time>2018-01-05T10:21:16Z</time>
      </trkpt>
      <trkpt lat="46.02646" lon="4.70662">
        <ele>190</ele>
        <time>2018-01-05T10:21:17Z</time>
      </trkpt>
      <trkpt lat="46.02652" lon="4.70663">
        <ele>190</ele>
        <time>2018-01-05T10:21:18Z</time>
      </trkpt>
      <trkpt lat="46.02657" lon="4.70662">
        <ele>190</ele>
        <time>2018-01-05T10:21:19Z</time>
      </trkpt>
      <trkpt lat="46.02663" lon="4.70664">
        <ele>190</ele>
        <time>2018-01-05T10:21:20Z</time>
      </trkpt>
      <trkpt lat="46.02668" lon="4.70664">
        <ele>190</ele>
        <time>2018-01-05T10:21:21Z</time>
      </trkpt>
      <trkpt lat="46.02673" lon="4.70665">
        <ele>190</ele>
        <time>2018-01-05T10:21:22Z</time>
      </trkpt>
      <trkpt lat="46.02678" lon="4.70666">
        <ele>190</ele>
        <time>2018-01-05T10:21:23Z</time>
      </trkpt>
      <trkpt lat="46.02687" lon="4.70667">
        <ele>190</ele>
        <time>2018-01-05T10:21:25Z</time>
      </trkpt>
      <trkpt lat="46.02692" lon="4.70667">
        <ele>190</ele>
        <time>2018-01-05T10:21:26Z</time>
      </trkpt>
      <trkpt lat="46.02696" lon="4.70669">
        <ele>190</ele>
        <time>2018-01-05T10:21:27Z</time>
      </trkpt>
      <trkpt lat="46.027" lon="4.7067">
        <ele>190</ele>
        <time>2018-01-05T10:21:28Z</time>
      </trkpt>
      <trkpt lat="46.02706" lon="4.7067">
        <ele>190</ele>
        <time>2018-01-05T10:21:29Z</time>
      </trkpt>
      <trkpt lat="46.02711" lon="4.7067">
        <ele>189</ele>
        <time>2018-01-05T10:21:30Z</time>
      </trkpt>
      <trkpt lat="46.02716" lon="4.70671">
        <ele>189</ele>
        <time>2018-01-05T10:21:31Z</time>
      </trkpt>
      <trkpt lat="46.02721" lon="4.70672">
        <ele>189</ele>
        <time>2018-01-05T10:21:32Z</time>
      </trkpt>
      <trkpt lat="46.02727" lon="4.70673">
        <ele>189</ele>
        <time>2018-01-05T10:21:33Z</time>
      </trkpt>
      <trkpt lat="46.02731" lon="4.70673">
        <ele>189</ele>
        <time>2018-01-05T10:21:34Z</time>
      </trkpt>
      <trkpt lat="46.02736" lon="4.70673">
        <ele>189</ele>
        <time>2018-01-05T10:21:35Z</time>
      </trkpt>
      <trkpt lat="46.02742" lon="4.70673">
        <ele>189</ele>
        <time>2018-01-05T10:21:36Z</time>
      </trkpt>
      <trkpt lat="46.02747" lon="4.70674">
        <ele>189</ele>
        <time>2018-01-05T10:21:37Z</time>
      </trkpt>
      <trkpt lat="46.02753" lon="4.70676">
        <ele>189</ele>
        <time>2018-01-05T10:21:38Z</time>
      </trkpt>
      <trkpt lat="46.0276" lon="4.70677">
        <ele>189</ele>
        <time>2018-01-05T10:21:39Z</time>
      </trkpt>
      <trkpt lat="46.02766" lon="4.70679">
        <ele>189</ele>
        <time>2018-01-05T10:21:40Z</time>
      </trkpt>
      <trkpt lat="46.02772" lon="4.70679">
        <ele>189</ele>
        <time>2018-01-05T10:21:41Z</time>
      </trkpt>
      <trkpt lat="46.02778" lon="4.7068">
        <ele>189</ele>
        <time>2018-01-05T10:21:42Z</time>
      </trkpt>
      <trkpt lat="46.02785" lon="4.7068">
        <ele>189</ele>
        <time>2018-01-05T10:21:43Z</time>
      </trkpt>
      <trkpt lat="46.0279" lon="4.7068">
        <ele>189</ele>
        <time>2018-01-05T10:21:44Z</time>
      </trkpt>
      <trkpt lat="46.02796" lon="4.70679">
        <ele>189</ele>
        <time>2018-01-05T10:21:45Z</time>
      </trkpt>
      <trkpt lat="46.02802" lon="4.70678">
        <ele>189</ele>
        <time>2018-01-05T10:21:46Z</time>
      </trkpt>
      <trkpt lat="46.02809" lon="4.7068">
        <ele>189</ele>
        <time>2018-01-05T10:21:47Z</time>
      </trkpt>
      <trkpt lat="46.02814" lon="4.7068">
        <ele>189</ele>
        <time>2018-01-05T10:21:48Z</time>
      </trkpt>
      <trkpt lat="46.02819" lon="4.70679">
        <ele>189</ele>
        <time>2018-01-05T10:21:49Z</time>
      </trkpt>
      <trkpt lat="46.02824" lon="4.70678">
        <ele>189</ele>
        <time>2018-01-05T10:21:50Z</time>
      </trkpt>
      <trkpt lat="46.02828" lon="4.70676">
        <ele>189</ele>
        <time>2018-01-05T10:21:51Z</time>
      </trkpt>
      <trkpt lat="46.02834" lon="4.70675">
        <ele>189</ele>
        <time>2018-01-05T10:21:52Z</time>
      </trkpt>
      <trkpt lat="46.02843" lon="4.70672">
        <ele>189</ele>
        <time>2018-01-05T10:21:54Z</time>
      </trkpt>
      <trkpt lat="46.02848" lon="4.70673">
        <ele>189</ele>
        <time>2018-01-05T10:21:55Z</time>
      </trkpt>
      <trkpt lat="46.02853" lon="4.70672">
        <ele>189</ele>
        <time>2018-01-05T10:21:56Z</time>
      </trkpt>
      <trkpt lat="46.02858" lon="4.70671">
        <ele>190</ele>
        <time>2018-01-05T10:21:57Z</time>
      </trkpt>
      <trkpt lat="46.02864" lon="4.70671">
        <ele>190</ele>
        <time>2018-01-05T10:21:58Z</time>
      </trkpt>
      <trkpt lat="46.02869" lon="4.70671">
        <ele>190</ele>
        <time>2018-01-05T10:21:59Z</time>
      </trkpt>
      <trkpt lat="46.02877" lon="4.70671">
        <ele>190</ele>
        <time>2018-01-05T10:22:01Z</time>
      </trkpt>
      <trkpt lat="46.02882" lon="4.70671">
        <ele>190</ele>
        <time>2018-01-05T10:22:02Z</time>
      </trkpt>
      <trkpt lat="46.02886" lon="4.70671">
        <ele>190</ele>
        <time>2018-01-05T10:22:03Z</time>
      </trkpt>
      <trkpt lat="46.02891" lon="4.7067">
        <ele>190</ele>
        <time>2018-01-05T10:22:04Z</time>
      </trkpt>
      <trkpt lat="46.02896" lon="4.7067">
        <ele>190</ele>
        <time>2018-01-05T10:22:05Z</time>
      </trkpt>
      <trkpt lat="46.02901" lon="4.7067">
        <ele>190</ele>
        <time>2018-01-05T10:22:06Z</time>
      </trkpt>
      <trkpt lat="46.02906" lon="4.7067">
        <ele>191</ele>
        <time>2018-01-05T10:22:07Z</time>
      </trkpt>
      <trkpt lat="46.02912" lon="4.70669">
        <ele>191</ele>
        <time>2018-01-05T10:22:08Z</time>
      </trkpt>
      <trkpt lat="46.02917" lon="4.70667">
        <ele>191</ele>
        <time>2018-01-05T10:22:09Z</time>
      </trkpt>
      <trkpt lat="46.02922" lon="4.70663">
        <ele>191</ele>
        <time>2018-01-05T10:22:10Z</time>
      </trkpt>
      <trkpt lat="46.02926" lon="4.70658">
        <ele>191</ele>
        <time>2018-01-05T10:22:11Z</time>
      </trkpt>
      <trkpt lat="46.02929" lon="4.70651">
        <ele>192</ele>
        <time>2018-01-05T10:22:12Z</time>
      </trkpt>
      <trkpt lat="46.0293" lon="4.70644">
        <ele>192</ele>
        <time>2018-01-05T10:22:13Z</time>
      </trkpt>
      <trkpt lat="46.0293" lon="4.70636">
        <ele>192</ele>
        <time>2018-01-05T10:22:14Z</time>
      </trkpt>
      <trkpt lat="46.02931" lon="4.70629">
        <ele>192</ele>
        <time>2018-01-05T10:22:15Z</time>
      </trkpt>
      <trkpt lat="46.02932" lon="4.70623">
        <ele>192</ele>
        <time>2018-01-05T10:22:16Z</time>
      </trkpt>
      <trkpt lat="46.02934" lon="4.70617">
        <ele>192</ele>
        <time>2018-01-05T10:22:17Z</time>
      </trkpt>
      <trkpt lat="46.02936" lon="4.70611">
        <ele>192</ele>
        <time>2018-01-05T10:22:18Z</time>
      </trkpt>
      <trkpt lat="46.02938" lon="4.70605">
        <ele>192</ele>
        <time>2018-01-05T10:22:19Z</time>
      </trkpt>
      <trkpt lat="46.02939" lon="4.70599">
        <ele>192</ele>
        <time>2018-01-05T10:22:20Z</time>
      </trkpt>
      <trkpt lat="46.02942" lon="4.70592">
        <ele>192</ele>
        <time>2018-01-05T10:22:21Z</time>
      </trkpt>
      <trkpt lat="46.02945" lon="4.70586">
        <ele>192</ele>
        <time>2018-01-05T10:22:22Z</time>
      </trkpt>
      <trkpt lat="46.02948" lon="4.7058">
        <ele>191</ele>
        <time>2018-01-05T10:22:23Z</time>
      </trkpt>
      <trkpt lat="46.02951" lon="4.70573">
        <ele>191</ele>
        <time>2018-01-05T10:22:24Z</time>
      </trkpt>
      <trkpt lat="46.02954" lon="4.70566">
        <ele>191</ele>
        <time>2018-01-05T10:22:25Z</time>
      </trkpt>
      <trkpt lat="46.02958" lon="4.70561">
        <ele>191</ele>
        <time>2018-01-05T10:22:26Z</time>
      </trkpt>
      <trkpt lat="46.02963" lon="4.70553">
        <ele>191</ele>
        <time>2018-01-05T10:22:27Z</time>
      </trkpt>
      <trkpt lat="46.02967" lon="4.70549">
        <ele>191</ele>
        <time>2018-01-05T10:22:28Z</time>
      </trkpt>
      <trkpt lat="46.02972" lon="4.70544">
        <ele>191</ele>
        <time>2018-01-05T10:22:29Z</time>
      </trkpt>
      <trkpt lat="46.02976" lon="4.70539">
        <ele>191</ele>
        <time>2018-01-05T10:22:30Z</time>
      </trkpt>
      <trkpt lat="46.02981" lon="4.70533">
        <ele>191</ele>
        <time>2018-01-05T10:22:31Z</time>
      </trkpt>
      <trkpt lat="46.02986" lon="4.70529">
        <ele>191</ele>
        <time>2018-01-05T10:22:32Z</time>
      </trkpt>
      <trkpt lat="46.02991" lon="4.70525">
        <ele>191</ele>
        <time>2018-01-05T10:22:33Z</time>
      </trkpt>
      <trkpt lat="46.02996" lon="4.70521">
        <ele>191</ele>
        <time>2018-01-05T10:22:34Z</time>
      </trkpt>
      <trkpt lat="46.03001" lon="4.70516">
        <ele>191</ele>
        <time>2018-01-05T10:22:35Z</time>
      </trkpt>
      <trkpt lat="46.03005" lon="4.70513">
        <ele>191</ele>
        <time>2018-01-05T10:22:36Z</time>
      </trkpt>
      <trkpt lat="46.03009" lon="4.70509">
        <ele>191</ele>
        <time>2018-01-05T10:22:37Z</time>
      </trkpt>
      <trkpt lat="46.03013" lon="4.70506">
        <ele>191</ele>
        <time>2018-01-05T10:22:38Z</time>
      </trkpt>
      <trkpt lat="46.03017" lon="4.70502">
        <ele>191</ele>
        <time>2018-01-05T10:22:39Z</time>
      </trkpt>
      <trkpt lat="46.03021" lon="4.70498">
        <ele>191</ele>
        <time>2018-01-05T10:22:40Z</time>
      </trkpt>
      <trkpt lat="46.03025" lon="4.70494">
        <ele>191</ele>
        <time>2018-01-05T10:22:41Z</time>
      </trkpt>
      <trkpt lat="46.03029" lon="4.70492">
        <ele>191</ele>
        <time>2018-01-05T10:22:42Z</time>
      </trkpt>
      <trkpt lat="46.03033" lon="4.70489">
        <ele>191</ele>
        <time>2018-01-05T10:22:43Z</time>
      </trkpt>
      <trkpt lat="46.03037" lon="4.70484">
        <ele>191</ele>
        <time>2018-01-05T10:22:44Z</time>
      </trkpt>
      <trkpt lat="46.03041" lon="4.70482">
        <ele>191</ele>
        <time>2018-01-05T10:22:45Z</time>
      </trkpt>
      <trkpt lat="46.03045" lon="4.70478">
        <ele>191</ele>
        <time>2018-01-05T10:22:46Z</time>
      </trkpt>
      <trkpt lat="46.03049" lon="4.70476">
        <ele>191</ele>
        <time>2018-01-05T10:22:47Z</time>
      </trkpt>
      <trkpt lat="46.03054" lon="4.7047">
        <ele>191</ele>
        <time>2018-01-05T10:22:48Z</time>
      </trkpt>
      <trkpt lat="46.03059" lon="4.70467">
        <ele>191</ele>
        <time>2018-01-05T10:22:49Z</time>
      </trkpt>
      <trkpt lat="46.03063" lon="4.70464">
        <ele>191</ele>
        <time>2018-01-05T10:22:50Z</time>
      </trkpt>
      <trkpt lat="46.03071" lon="4.70458">
        <ele>191</ele>
        <time>2018-01-05T10:22:52Z</time>
      </trkpt>
      <trkpt lat="46.03075" lon="4.70456">
        <ele>191</ele>
        <time>2018-01-05T10:22:53Z</time>
      </trkpt>
      <trkpt lat="46.03079" lon="4.70454">
        <ele>191</ele>
        <time>2018-01-05T10:22:54Z</time>
      </trkpt>
      <trkpt lat="46.03084" lon="4.70453">
        <ele>192</ele>
        <time>2018-01-05T10:22:55Z</time>
      </trkpt>
      <trkpt lat="46.03088" lon="4.70451">
        <ele>192</ele>
        <time>2018-01-05T10:22:56Z</time>
      </trkpt>
      <trkpt lat="46.03093" lon="4.70448">
        <ele>192</ele>
        <time>2018-01-05T10:22:57Z</time>
      </trkpt>
      <trkpt lat="46.03098" lon="4.70445">
        <ele>192</ele>
        <time>2018-01-05T10:22:58Z</time>
      </trkpt>
      <trkpt lat="46.03104" lon="4.70444">
        <ele>192</ele>
        <time>2018-01-05T10:22:59Z</time>
      </trkpt>
      <trkpt lat="46.03109" lon="4.70439">
        <ele>192</ele>
        <time>2018-01-05T10:23:00Z</time>
      </trkpt>
      <trkpt lat="46.03115" lon="4.70436">
        <ele>192</ele>
        <time>2018-01-05T10:23:01Z</time>
      </trkpt>
      <trkpt lat="46.03119" lon="4.70434">
        <ele>192</ele>
        <time>2018-01-05T10:23:02Z</time>
      </trkpt>
      <trkpt lat="46.03124" lon="4.70431">
        <ele>192</ele>
        <time>2018-01-05T10:23:03Z</time>
      </trkpt>
      <trkpt lat="46.03129" lon="4.70429">
        <ele>192</ele>
        <time>2018-01-05T10:23:04Z</time>
      </trkpt>
      <trkpt lat="46.03135" lon="4.70425">
        <ele>192</ele>
        <time>2018-01-05T10:23:05Z</time>
      </trkpt>
      <trkpt lat="46.0314" lon="4.70422">
        <ele>192</ele>
        <time>2018-01-05T10:23:06Z</time>
      </trkpt>
      <trkpt lat="46.03146" lon="4.70419">
        <ele>192</ele>
        <time>2018-01-05T10:23:07Z</time>
      </trkpt>
      <trkpt lat="46.03152" lon="4.70417">
        <ele>192</ele>
        <time>2018-01-05T10:23:08Z</time>
      </trkpt>
      <trkpt lat="46.03157" lon="4.70415">
        <ele>192</ele>
        <time>2018-01-05T10:23:09Z</time>
      </trkpt>
      <trkpt lat="46.03162" lon="4.70414">
        <ele>192</ele>
        <time>2018-01-05T10:23:10Z</time>
      </trkpt>
      <trkpt lat="46.03167" lon="4.70411">
        <ele>192</ele>
        <time>2018-01-05T10:23:11Z</time>
      </trkpt>
      <trkpt lat="46.03172" lon="4.70409">
        <ele>192</ele>
        <time>2018-01-05T10:23:12Z</time>
      </trkpt>
      <trkpt lat="46.03178" lon="4.70407">
        <ele>192</ele>
        <time>2018-01-05T10:23:13Z</time>
      </trkpt>
      <trkpt lat="46.03183" lon="4.70402">
        <ele>192</ele>
        <time>2018-01-05T10:23:14Z</time>
      </trkpt>
      <trkpt lat="46.03188" lon="4.704">
        <ele>192</ele>
        <time>2018-01-05T10:23:15Z</time>
      </trkpt>
      <trkpt lat="46.03193" lon="4.70398">
        <ele>192</ele>
        <time>2018-01-05T10:23:16Z</time>
      </trkpt>
      <trkpt lat="46.03198" lon="4.70395">
        <ele>192</ele>
        <time>2018-01-05T10:23:17Z</time>
      </trkpt>
      <trkpt lat="46.03203" lon="4.70391">
        <ele>192</ele>
        <time>2018-01-05T10:23:18Z</time>
      </trkpt>
      <trkpt lat="46.03208" lon="4.70388">
        <ele>192</ele>
        <time>2018-01-05T10:23:19Z</time>
      </trkpt>
      <trkpt lat="46.03213" lon="4.70386">
        <ele>192</ele>
        <time>2018-01-05T10:23:20Z</time>
      </trkpt>
      <trkpt lat="46.03219" lon="4.70384">
        <ele>192</ele>
        <time>2018-01-05T10:23:21Z</time>
      </trkpt>
      <trkpt lat="46.03225" lon="4.70382">
        <ele>192</ele>
        <time>2018-01-05T10:23:22Z</time>
      </trkpt>
      <trkpt lat="46.0323" lon="4.70379">
        <ele>192</ele>
        <time>2018-01-05T10:23:23Z</time>
      </trkpt>
      <trkpt lat="46.03235" lon="4.70376">
        <ele>192</ele>
        <time>2018-01-05T10:23:24Z</time>
      </trkpt>
      <trkpt lat="46.03241" lon="4.70373">
        <ele>192</ele>
        <time>2018-01-05T10:23:25Z</time>
      </trkpt>
      <trkpt lat="46.03247" lon="4.7037">
        <ele>192</ele>
        <time>2018-01-05T10:23:26Z</time>
      </trkpt>
      <trkpt lat="46.03253" lon="4.70368">
        <ele>191</ele>
        <time>2018-01-05T10:23:27Z</time>
      </trkpt>
      <trkpt lat="46.03259" lon="4.70366">
        <ele>191</ele>
        <time>2018-01-05T10:23:28Z</time>
      </trkpt>
      <trkpt lat="46.03265" lon="4.70364">
        <ele>191</ele>
        <time>2018-01-05T10:23:29Z</time>
      </trkpt>
      <trkpt lat="46.03271" lon="4.70362">
        <ele>191</ele>
        <time>2018-01-05T10:23:30Z</time>
      </trkpt>
      <trkpt lat="46.03277" lon="4.70359">
        <ele>191</ele>
        <time>2018-01-05T10:23:31Z</time>
      </trkpt>
      <trkpt lat="46.03282" lon="4.70356">
        <ele>191</ele>
        <time>2018-01-05T10:23:32Z</time>
      </trkpt>
      <trkpt lat="46.03288" lon="4.70354">
        <ele>191</ele>
        <time>2018-01-05T10:23:33Z</time>
      </trkpt>
      <trkpt lat="46.03293" lon="4.70352">
        <ele>191</ele>
        <time>2018-01-05T10:23:34Z</time>
      </trkpt>
      <trkpt lat="46.03299" lon="4.7035">
        <ele>191</ele>
        <time>2018-01-05T10:23:35Z</time>
      </trkpt>
      <trkpt lat="46.03305" lon="4.70348">
        <ele>191</ele>
        <time>2018-01-05T10:23:36Z</time>
      </trkpt>
      <trkpt lat="46.03312" lon="4.70345">
        <ele>191</ele>
        <time>2018-01-05T10:23:37Z</time>
      </trkpt>
      <trkpt lat="46.03318" lon="4.70342">
        <ele>191</ele>
        <time>2018-01-05T10:23:38Z</time>
      </trkpt>
      <trkpt lat="46.03325" lon="4.70339">
        <ele>191</ele>
        <time>2018-01-05T10:23:39Z</time>
      </trkpt>
      <trkpt lat="46.03331" lon="4.70337">
        <ele>191</ele>
        <time>2018-01-05T10:23:40Z</time>
      </trkpt>
      <trkpt lat="46.03338" lon="4.70335">
        <ele>191</ele>
        <time>2018-01-05T10:23:41Z</time>
      </trkpt>
      <trkpt lat="46.03345" lon="4.70333">
        <ele>191</ele>
        <time>2018-01-05T10:23:42Z</time>
      </trkpt>
      <trkpt lat="46.03354" lon="4.70329">
        <ele>191</ele>
        <time>2018-01-05T10:23:43Z</time>
      </trkpt>
      <trkpt lat="46.03361" lon="4.70326">
        <ele>191</ele>
        <time>2018-01-05T10:23:44Z</time>
      </trkpt>
      <trkpt lat="46.03368" lon="4.70323">
        <ele>191</ele>
        <time>2018-01-05T10:23:45Z</time>
      </trkpt>
      <trkpt lat="46.03375" lon="4.7032">
        <ele>191</ele>
        <time>2018-01-05T10:23:46Z</time>
      </trkpt>
      <trkpt lat="46.03383" lon="4.70318">
        <ele>191</ele>
        <time>2018-01-05T10:23:47Z</time>
      </trkpt>
      <trkpt lat="46.0339" lon="4.70315">
        <ele>190</ele>
        <time>2018-01-05T10:23:48Z</time>
      </trkpt>
      <trkpt lat="46.03397" lon="4.70312">
        <ele>190</ele>
        <time>2018-01-05T10:23:49Z</time>
      </trkpt>
      <trkpt lat="46.03404" lon="4.7031">
        <ele>190</ele>
        <time>2018-01-05T10:23:50Z</time>
      </trkpt>
      <trkpt lat="46.03411" lon="4.70307">
        <ele>190</ele>
        <time>2018-01-05T10:23:51Z</time>
      </trkpt>
      <trkpt lat="46.03419" lon="4.70303">
        <ele>188</ele>
        <time>2018-01-05T10:23:52Z</time>
      </trkpt>
      <trkpt lat="46.03426" lon="4.70301">
        <ele>188</ele>
        <time>2018-01-05T10:23:53Z</time>
      </trkpt>
      <trkpt lat="46.03433" lon="4.70298">
        <ele>188</ele>
        <time>2018-01-05T10:23:54Z</time>
      </trkpt>
      <trkpt lat="46.03441" lon="4.70295">
        <ele>188</ele>
        <time>2018-01-05T10:23:55Z</time>
      </trkpt>
      <trkpt lat="46.03448" lon="4.70292">
        <ele>188</ele>
        <time>2018-01-05T10:23:56Z</time>
      </trkpt>
      <trkpt lat="46.03455" lon="4.7029">
        <ele>188</ele>
        <time>2018-01-05T10:23:57Z</time>
      </trkpt>
      <trkpt lat="46.03463" lon="4.70287">
        <ele>188</ele>
        <time>2018-01-05T10:23:58Z</time>
      </trkpt>
      <trkpt lat="46.03469" lon="4.70284">
        <ele>188</ele>
        <time>2018-01-05T10:23:59Z</time>
      </trkpt>
      <trkpt lat="46.03476" lon="4.70281">
        <ele>188</ele>
        <time>2018-01-05T10:24:00Z</time>
      </trkpt>
      <trkpt lat="46.03483" lon="4.70278">
        <ele>188</ele>
        <time>2018-01-05T10:24:01Z</time>
      </trkpt>
      <trkpt lat="46.0349" lon="4.70275">
        <ele>188</ele>
        <time>2018-01-05T10:24:02Z</time>
      </trkpt>
      <trkpt lat="46.03494" lon="4.70277">
        <ele>188</ele>
        <time>2018-01-05T10:24:03Z</time>
      </trkpt>
      <trkpt lat="46.03501" lon="4.70276">
        <ele>187</ele>
        <time>2018-01-05T10:24:04Z</time>
      </trkpt>
      <trkpt lat="46.03507" lon="4.70275">
        <ele>187</ele>
        <time>2018-01-05T10:24:05Z</time>
      </trkpt>
      <trkpt lat="46.03513" lon="4.70272">
        <ele>187</ele>
        <time>2018-01-05T10:24:06Z</time>
      </trkpt>
      <trkpt lat="46.03519" lon="4.7027">
        <ele>187</ele>
        <time>2018-01-05T10:24:07Z</time>
      </trkpt>
      <trkpt lat="46.03524" lon="4.70268">
        <ele>187</ele>
        <time>2018-01-05T10:24:08Z</time>
      </trkpt>
      <trkpt lat="46.0353" lon="4.70266">
        <ele>187</ele>
        <time>2018-01-05T10:24:09Z</time>
      </trkpt>
      <trkpt lat="46.03535" lon="4.70263">
        <ele>187</ele>
        <time>2018-01-05T10:24:10Z</time>
      </trkpt>
      <trkpt lat="46.0354" lon="4.70261">
        <ele>188</ele>
        <time>2018-01-05T10:24:11Z</time>
      </trkpt>
      <trkpt lat="46.03545" lon="4.70261">
        <ele>188</ele>
        <time>2018-01-05T10:24:12Z</time>
      </trkpt>
      <trkpt lat="46.0355" lon="4.70258">
        <ele>188</ele>
        <time>2018-01-05T10:24:13Z</time>
      </trkpt>
      <trkpt lat="46.03555" lon="4.70257">
        <ele>188</ele>
        <time>2018-01-05T10:24:14Z</time>
      </trkpt>
      <trkpt lat="46.03561" lon="4.70255">
        <ele>188</ele>
        <time>2018-01-05T10:24:15Z</time>
      </trkpt>
      <trkpt lat="46.03567" lon="4.70253">
        <ele>189</ele>
        <time>2018-01-05T10:24:16Z</time>
      </trkpt>
      <trkpt lat="46.03572" lon="4.70251">
        <ele>189</ele>
        <time>2018-01-05T10:24:17Z</time>
      </trkpt>
      <trkpt lat="46.03577" lon="4.70249">
        <ele>190</ele>
        <time>2018-01-05T10:24:18Z</time>
      </trkpt>
      <trkpt lat="46.03582" lon="4.70247">
        <ele>190</ele>
        <time>2018-01-05T10:24:19Z</time>
      </trkpt>
      <trkpt lat="46.03587" lon="4.70246">
        <ele>190</ele>
        <time>2018-01-05T10:24:20Z</time>
      </trkpt>
      <trkpt lat="46.03592" lon="4.70245">
        <ele>190</ele>
        <time>2018-01-05T10:24:21Z</time>
      </trkpt>
      <trkpt lat="46.03598" lon="4.70242">
        <ele>190</ele>
        <time>2018-01-05T10:24:22Z</time>
      </trkpt>
      <trkpt lat="46.03603" lon="4.70241">
        <ele>190</ele>
        <time>2018-01-05T10:24:23Z</time>
      </trkpt>
      <trkpt lat="46.03607" lon="4.70239">
        <ele>190</ele>
        <time>2018-01-05T10:24:24Z</time>
      </trkpt>
      <trkpt lat="46.03612" lon="4.70237">
        <ele>190</ele>
        <time>2018-01-05T10:24:25Z</time>
      </trkpt>
      <trkpt lat="46.03619" lon="4.70234">
        <ele>190</ele>
        <time>2018-01-05T10:24:26Z</time>
      </trkpt>
      <trkpt lat="46.03624" lon="4.70228">
        <ele>190</ele>
        <time>2018-01-05T10:24:27Z</time>
      </trkpt>
      <trkpt lat="46.03629" lon="4.70227">
        <ele>190</ele>
        <time>2018-01-05T10:24:28Z</time>
      </trkpt>
      <trkpt lat="46.03634" lon="4.70225">
        <ele>190</ele>
        <time>2018-01-05T10:24:29Z</time>
      </trkpt>
      <trkpt lat="46.0364" lon="4.70223">
        <ele>190</ele>
        <time>2018-01-05T10:24:30Z</time>
      </trkpt>
      <trkpt lat="46.03646" lon="4.70222">
        <ele>190</ele>
        <time>2018-01-05T10:24:31Z</time>
      </trkpt>
      <trkpt lat="46.03653" lon="4.70219">
        <ele>190</ele>
        <time>2018-01-05T10:24:32Z</time>
      </trkpt>
      <trkpt lat="46.03658" lon="4.70218">
        <ele>190</ele>
        <time>2018-01-05T10:24:33Z</time>
      </trkpt>
      <trkpt lat="46.03664" lon="4.70215">
        <ele>190</ele>
        <time>2018-01-05T10:24:34Z</time>
      </trkpt>
      <trkpt lat="46.0367" lon="4.70213">
        <ele>188</ele>
        <time>2018-01-05T10:24:35Z</time>
      </trkpt>
      <trkpt lat="46.03676" lon="4.70211">
        <ele>188</ele>
        <time>2018-01-05T10:24:36Z</time>
      </trkpt>
      <trkpt lat="46.03683" lon="4.70209">
        <ele>188</ele>
        <time>2018-01-05T10:24:37Z</time>
      </trkpt>
      <trkpt lat="46.0369" lon="4.70206">
        <ele>188</ele>
        <time>2018-01-05T10:24:38Z</time>
      </trkpt>
      <trkpt lat="46.03695" lon="4.70204">
        <ele>188</ele>
        <time>2018-01-05T10:24:39Z</time>
      </trkpt>
      <trkpt lat="46.03701" lon="4.70201">
        <ele>188</ele>
        <time>2018-01-05T10:24:40Z</time>
      </trkpt>
      <trkpt lat="46.03708" lon="4.70198">
        <ele>188</ele>
        <time>2018-01-05T10:24:41Z</time>
      </trkpt>
      <trkpt lat="46.03715" lon="4.70198">
        <ele>188</ele>
        <time>2018-01-05T10:24:42Z</time>
      </trkpt>
      <trkpt lat="46.03721" lon="4.70196">
        <ele>188</ele>
        <time>2018-01-05T10:24:43Z</time>
      </trkpt>
      <trkpt lat="46.03727" lon="4.70194">
        <ele>188</ele>
        <time>2018-01-05T10:24:44Z</time>
      </trkpt>
      <trkpt lat="46.03732" lon="4.70193">
        <ele>188</ele>
        <time>2018-01-05T10:24:45Z</time>
      </trkpt>
      <trkpt lat="46.03739" lon="4.70188">
        <ele>188</ele>
        <time>2018-01-05T10:24:46Z</time>
      </trkpt>
      <trkpt lat="46.03745" lon="4.70185">
        <ele>188</ele>
        <time>2018-01-05T10:24:47Z</time>
      </trkpt>
      <trkpt lat="46.03751" lon="4.70184">
        <ele>188</ele>
        <time>2018-01-05T10:24:48Z</time>
      </trkpt>
      <trkpt lat="46.03756" lon="4.70182">
        <ele>188</ele>
        <time>2018-01-05T10:24:49Z</time>
      </trkpt>
      <trkpt lat="46.03761" lon="4.70181">
        <ele>188</ele>
        <time>2018-01-05T10:24:50Z</time>
      </trkpt>
      <trkpt lat="46.03766" lon="4.7018">
        <ele>188</ele>
        <time>2018-01-05T10:24:51Z</time>
      </trkpt>
      <trkpt lat="46.03772" lon="4.70176">
        <ele>189</ele>
        <time>2018-01-05T10:24:52Z</time>
      </trkpt>
      <trkpt lat="46.03777" lon="4.70174">
        <ele>189</ele>
        <time>2018-01-05T10:24:53Z</time>
      </trkpt>
      <trkpt lat="46.03783" lon="4.70174">
        <ele>189</ele>
        <time>2018-01-05T10:24:54Z</time>
      </trkpt>
      <trkpt lat="46.03789" lon="4.70172">
        <ele>189</ele>
        <time>2018-01-05T10:24:55Z</time>
      </trkpt>
      <trkpt lat="46.03794" lon="4.70169">
        <ele>190</ele>
        <time>2018-01-05T10:24:56Z</time>
      </trkpt>
      <trkpt lat="46.03801" lon="4.70164">
        <ele>190</ele>
        <time>2018-01-05T10:24:57Z</time>
      </trkpt>
      <trkpt lat="46.03806" lon="4.70163">
        <ele>190</ele>
        <time>2018-01-05T10:24:58Z</time>
      </trkpt>
      <trkpt lat="46.03811" lon="4.7016">
        <ele>190</ele>
        <time>2018-01-05T10:24:59Z</time>
      </trkpt>
      <trkpt lat="46.03816" lon="4.70159">
        <ele>190</ele>
        <time>2018-01-05T10:25:00Z</time>
      </trkpt>
      <trkpt lat="46.03821" lon="4.70158">
        <ele>191</ele>
        <time>2018-01-05T10:25:01Z</time>
      </trkpt>
      <trkpt lat="46.03829" lon="4.70156">
        <ele>191</ele>
        <time>2018-01-05T10:25:03Z</time>
      </trkpt>
      <trkpt lat="46.03835" lon="4.70155">
        <ele>192</ele>
        <time>2018-01-05T10:25:04Z</time>
      </trkpt>
      <trkpt lat="46.03839" lon="4.70153">
        <ele>192</ele>
        <time>2018-01-05T10:25:05Z</time>
      </trkpt>
      <trkpt lat="46.03845" lon="4.70151">
        <ele>192</ele>
        <time>2018-01-05T10:25:06Z</time>
      </trkpt>
      <trkpt lat="46.0385" lon="4.70147">
        <ele>193</ele>
        <time>2018-01-05T10:25:07Z</time>
      </trkpt>
      <trkpt lat="46.03855" lon="4.70144">
        <ele>193</ele>
        <time>2018-01-05T10:25:08Z</time>
      </trkpt>
      <trkpt lat="46.0386" lon="4.7014">
        <ele>193</ele>
        <time>2018-01-05T10:25:09Z</time>
      </trkpt>
      <trkpt lat="46.03865" lon="4.70136">
        <ele>193</ele>
        <time>2018-01-05T10:25:10Z</time>
      </trkpt>
      <trkpt lat="46.03873" lon="4.70134">
        <ele>193</ele>
        <time>2018-01-05T10:25:12Z</time>
      </trkpt>
      <trkpt lat="46.03878" lon="4.70133">
        <ele>193</ele>
        <time>2018-01-05T10:25:13Z</time>
      </trkpt>
      <trkpt lat="46.03886" lon="4.70131">
        <ele>193</ele>
        <time>2018-01-05T10:25:15Z</time>
      </trkpt>
      <trkpt lat="46.03889" lon="4.70129">
        <ele>193</ele>
        <time>2018-01-05T10:25:16Z</time>
      </trkpt>
      <trkpt lat="46.03895" lon="4.70125">
        <ele>194</ele>
        <time>2018-01-05T10:25:17Z</time>
      </trkpt>
      <trkpt lat="46.03899" lon="4.70123">
        <ele>194</ele>
        <time>2018-01-05T10:25:18Z</time>
      </trkpt>
      <trkpt lat="46.03903" lon="4.70121">
        <ele>194</ele>
        <time>2018-01-05T10:25:19Z</time>
      </trkpt>
      <trkpt lat="46.03908" lon="4.70118">
        <ele>194</ele>
        <time>2018-01-05T10:25:20Z</time>
      </trkpt>
      <trkpt lat="46.03913" lon="4.70116">
        <ele>194</ele>
        <time>2018-01-05T10:25:21Z</time>
      </trkpt>
      <trkpt lat="46.03916" lon="4.7011">
        <ele>194</ele>
        <time>2018-01-05T10:25:22Z</time>
      </trkpt>
      <trkpt lat="46.03922" lon="4.70112">
        <ele>196</ele>
        <time>2018-01-05T10:25:23Z</time>
      </trkpt>
      <trkpt lat="46.03925" lon="4.7011">
        <ele>196</ele>
        <time>2018-01-05T10:25:24Z</time>
      </trkpt>
      <trkpt lat="46.03933" lon="4.70107">
        <ele>196</ele>
        <time>2018-01-05T10:25:26Z</time>
      </trkpt>
      <trkpt lat="46.03938" lon="4.70105">
        <ele>196</ele>
        <time>2018-01-05T10:25:27Z</time>
      </trkpt>
      <trkpt lat="46.03943" lon="4.70104">
        <ele>196</ele>
        <time>2018-01-05T10:25:28Z</time>
      </trkpt>
      <trkpt lat="46.03947" lon="4.70103">
        <ele>196</ele>
        <time>2018-01-05T10:25:29Z</time>
      </trkpt>
      <trkpt lat="46.03955" lon="4.70098">
        <ele>196</ele>
        <time>2018-01-05T10:25:31Z</time>
      </trkpt>
      <trkpt lat="46.0396" lon="4.70101">
        <ele>196</ele>
        <time>2018-01-05T10:25:32Z</time>
      </trkpt>
      <trkpt lat="46.03965" lon="4.70098">
        <ele>196</ele>
        <time>2018-01-05T10:25:34Z</time>
      </trkpt>
      <trkpt lat="46.0397" lon="4.70099">
        <ele>196</ele>
        <time>2018-01-05T10:25:35Z</time>
      </trkpt>
      <trkpt lat="46.03973" lon="4.70099">
        <ele>196</ele>
        <time>2018-01-05T10:25:36Z</time>
      </trkpt>
      <trkpt lat="46.0398" lon="4.70097">
        <ele>196</ele>
        <time>2018-01-05T10:25:37Z</time>
      </trkpt>
      <trkpt lat="46.03984" lon="4.70097">
        <ele>196</ele>
        <time>2018-01-05T10:25:38Z</time>
      </trkpt>
      <trkpt lat="46.03989" lon="4.70097">
        <ele>196</ele>
        <time>2018-01-05T10:25:39Z</time>
      </trkpt>
      <trkpt lat="46.03994" lon="4.70095">
        <ele>196</ele>
        <time>2018-01-05T10:25:40Z</time>
      </trkpt>
      <trkpt lat="46.03998" lon="4.70096">
        <ele>196</ele>
        <time>2018-01-05T10:25:41Z</time>
      </trkpt>
      <trkpt lat="46.04003" lon="4.70092">
        <ele>196</ele>
        <time>2018-01-05T10:25:42Z</time>
      </trkpt>
      <trkpt lat="46.04008" lon="4.70089">
        <ele>196</ele>
        <time>2018-01-05T10:25:43Z</time>
      </trkpt>
      <trkpt lat="46.04014" lon="4.70093">
        <ele>195</ele>
        <time>2018-01-05T10:25:45Z</time>
      </trkpt>
      <trkpt lat="46.04018" lon="4.70094">
        <ele>195</ele>
        <time>2018-01-05T10:25:46Z</time>
      </trkpt>
      <trkpt lat="46.04023" lon="4.70097">
        <ele>195</ele>
        <time>2018-01-05T10:25:47Z</time>
      </trkpt>
      <trkpt lat="46.04028" lon="4.70093">
        <ele>195</ele>
        <time>2018-01-05T10:25:48Z</time>
      </trkpt>
      <trkpt lat="46.04036" lon="4.70091">
        <ele>195</ele>
        <time>2018-01-05T10:25:50Z</time>
      </trkpt>
      <trkpt lat="46.04042" lon="4.70094">
        <ele>195</ele>
        <time>2018-01-05T10:25:51Z</time>
      </trkpt>
      <trkpt lat="46.04051" lon="4.70093">
        <ele>195</ele>
        <time>2018-01-05T10:25:53Z</time>
      </trkpt>
      <trkpt lat="46.04055" lon="4.70093">
        <ele>195</ele>
        <time>2018-01-05T10:25:54Z</time>
      </trkpt>
      <trkpt lat="46.0406" lon="4.70092">
        <ele>195</ele>
        <time>2018-01-05T10:25:55Z</time>
      </trkpt>
      <trkpt lat="46.04064" lon="4.7009">
        <ele>195</ele>
        <time>2018-01-05T10:25:56Z</time>
      </trkpt>
      <trkpt lat="46.04069" lon="4.7009">
        <ele>194</ele>
        <time>2018-01-05T10:25:57Z</time>
      </trkpt>
      <trkpt lat="46.04074" lon="4.7009">
        <ele>194</ele>
        <time>2018-01-05T10:25:58Z</time>
      </trkpt>
      <trkpt lat="46.04079" lon="4.7009">
        <ele>194</ele>
        <time>2018-01-05T10:25:59Z</time>
      </trkpt>
      <trkpt lat="46.04089" lon="4.70088">
        <ele>193</ele>
        <time>2018-01-05T10:26:00Z</time>
      </trkpt>
      <trkpt lat="46.04095" lon="4.7008">
        <ele>193</ele>
        <time>2018-01-05T10:26:02Z</time>
      </trkpt>
      <trkpt lat="46.041" lon="4.70077">
        <ele>193</ele>
        <time>2018-01-05T10:26:03Z</time>
      </trkpt>
      <trkpt lat="46.04106" lon="4.70075">
        <ele>193</ele>
        <time>2018-01-05T10:26:05Z</time>
      </trkpt>
      <trkpt lat="46.0411" lon="4.70072">
        <ele>193</ele>
        <time>2018-01-05T10:26:06Z</time>
      </trkpt>
      <trkpt lat="46.04117" lon="4.7007">
        <ele>192</ele>
        <time>2018-01-05T10:26:08Z</time>
      </trkpt>
      <trkpt lat="46.04123" lon="4.70068">
        <ele>192</ele>
        <time>2018-01-05T10:26:09Z</time>
      </trkpt>
      <trkpt lat="46.04131" lon="4.70062">
        <ele>192</ele>
        <time>2018-01-05T10:26:11Z</time>
      </trkpt>
      <trkpt lat="46.04135" lon="4.70057">
        <ele>192</ele>
        <time>2018-01-05T10:26:12Z</time>
      </trkpt>
      <trkpt lat="46.04142" lon="4.70058">
        <ele>191</ele>
        <time>2018-01-05T10:26:13Z</time>
      </trkpt>
      <trkpt lat="46.04146" lon="4.70059">
        <ele>191</ele>
        <time>2018-01-05T10:26:14Z</time>
      </trkpt>
      <trkpt lat="46.04155" lon="4.70053">
        <ele>191</ele>
        <time>2018-01-05T10:26:15Z</time>
      </trkpt>
      <trkpt lat="46.04159" lon="4.70049">
        <ele>191</ele>
        <time>2018-01-05T10:26:16Z</time>
      </trkpt>
      <trkpt lat="46.04164" lon="4.70046">
        <ele>191</ele>
        <time>2018-01-05T10:26:17Z</time>
      </trkpt>
      <trkpt lat="46.04168" lon="4.70042">
        <ele>189</ele>
        <time>2018-01-05T10:26:18Z</time>
      </trkpt>
      <trkpt lat="46.04176" lon="4.70035">
        <ele>189</ele>
        <time>2018-01-05T10:26:19Z</time>
      </trkpt>
      <trkpt lat="46.04183" lon="4.7003">
        <ele>189</ele>
        <time>2018-01-05T10:26:21Z</time>
      </trkpt>
      <trkpt lat="46.04188" lon="4.70026">
        <ele>188</ele>
        <time>2018-01-05T10:26:22Z</time>
      </trkpt>
      <trkpt lat="46.04193" lon="4.70021">
        <ele>188</ele>
        <time>2018-01-05T10:26:23Z</time>
      </trkpt>
      <trkpt lat="46.04197" lon="4.70017">
        <ele>188</ele>
        <time>2018-01-05T10:26:24Z</time>
      </trkpt>
      <trkpt lat="46.04204" lon="4.70009">
        <ele>188</ele>
        <time>2018-01-05T10:26:26Z</time>
      </trkpt>
      <trkpt lat="46.04208" lon="4.70005">
        <ele>188</ele>
        <time>2018-01-05T10:26:27Z</time>
      </trkpt>
      <trkpt lat="46.04213" lon="4.7">
        <ele>188</ele>
        <time>2018-01-05T10:26:28Z</time>
      </trkpt>
      <trkpt lat="46.04218" lon="4.69997">
        <ele>188</ele>
        <time>2018-01-05T10:26:29Z</time>
      </trkpt>
      <trkpt lat="46.04222" lon="4.69994">
        <ele>188</ele>
        <time>2018-01-05T10:26:30Z</time>
      </trkpt>
      <trkpt lat="46.04226" lon="4.69992">
        <ele>188</ele>
        <time>2018-01-05T10:26:31Z</time>
      </trkpt>
      <trkpt lat="46.0423" lon="4.69988">
        <ele>188</ele>
        <time>2018-01-05T10:26:32Z</time>
      </trkpt>
      <trkpt lat="46.04234" lon="4.69983">
        <ele>188</ele>
        <time>2018-01-05T10:26:33Z</time>
      </trkpt>
      <trkpt lat="46.04239" lon="4.69978">
        <ele>188</ele>
        <time>2018-01-05T10:26:34Z</time>
      </trkpt>
      <trkpt lat="46.04243" lon="4.69974">
        <ele>188</ele>
        <time>2018-01-05T10:26:35Z</time>
      </trkpt>
      <trkpt lat="46.04247" lon="4.69969">
        <ele>188</ele>
        <time>2018-01-05T10:26:36Z</time>
      </trkpt>
      <trkpt lat="46.04251" lon="4.69966">
        <ele>188</ele>
        <time>2018-01-05T10:26:37Z</time>
      </trkpt>
      <trkpt lat="46.04255" lon="4.69963">
        <ele>188</ele>
        <time>2018-01-05T10:26:38Z</time>
      </trkpt>
      <trkpt lat="46.0426" lon="4.69959">
        <ele>188</ele>
        <time>2018-01-05T10:26:39Z</time>
      </trkpt>
      <trkpt lat="46.04265" lon="4.69953">
        <ele>188</ele>
        <time>2018-01-05T10:26:40Z</time>
      </trkpt>
      <trkpt lat="46.04269" lon="4.69949">
        <ele>188</ele>
        <time>2018-01-05T10:26:41Z</time>
      </trkpt>
      <trkpt lat="46.04275" lon="4.69944">
        <ele>189</ele>
        <time>2018-01-05T10:26:42Z</time>
      </trkpt>
      <trkpt lat="46.0428" lon="4.69939">
        <ele>189</ele>
        <time>2018-01-05T10:26:43Z</time>
      </trkpt>
      <trkpt lat="46.04286" lon="4.69932">
        <ele>189</ele>
        <time>2018-01-05T10:26:45Z</time>
      </trkpt>
      <trkpt lat="46.0429" lon="4.69929">
        <ele>189</ele>
        <time>2018-01-05T10:26:46Z</time>
      </trkpt>
      <trkpt lat="46.04293" lon="4.69924">
        <ele>189</ele>
        <time>2018-01-05T10:26:47Z</time>
      </trkpt>
      <trkpt lat="46.04296" lon="4.69919">
        <ele>189</ele>
        <time>2018-01-05T10:26:48Z</time>
      </trkpt>
      <trkpt lat="46.04303" lon="4.69911">
        <ele>190</ele>
        <time>2018-01-05T10:26:50Z</time>
      </trkpt>
      <trkpt lat="46.04306" lon="4.69907">
        <ele>190</ele>
        <time>2018-01-05T10:26:51Z</time>
      </trkpt>
      <trkpt lat="46.04309" lon="4.69901">
        <ele>190</ele>
        <time>2018-01-05T10:26:52Z</time>
      </trkpt>
      <trkpt lat="46.04312" lon="4.69897">
        <ele>190</ele>
        <time>2018-01-05T10:26:53Z</time>
      </trkpt>
      <trkpt lat="46.04318" lon="4.69887">
        <ele>190</ele>
        <time>2018-01-05T10:26:55Z</time>
      </trkpt>
      <trkpt lat="46.0432" lon="4.69882">
        <ele>190</ele>
        <time>2018-01-05T10:26:56Z</time>
      </trkpt>
      <trkpt lat="46.04326" lon="4.69873">
        <ele>191</ele>
        <time>2018-01-05T10:26:58Z</time>
      </trkpt>
      <trkpt lat="46.04329" lon="4.69869">
        <ele>191</ele>
        <time>2018-01-05T10:26:59Z</time>
      </trkpt>
      <trkpt lat="46.04335" lon="4.6986">
        <ele>192</ele>
        <time>2018-01-05T10:27:01Z</time>
      </trkpt>
      <trkpt lat="46.04338" lon="4.69856">
        <ele>192</ele>
        <time>2018-01-05T10:27:02Z</time>
      </trkpt>
      <trkpt lat="46.04346" lon="4.6985">
        <ele>193</ele>
        <time>2018-01-05T10:27:04Z</time>
      </trkpt>
      <trkpt lat="46.0435" lon="4.69847">
        <ele>193</ele>
        <time>2018-01-05T10:27:05Z</time>
      </trkpt>
      <trkpt lat="46.04358" lon="4.69842">
        <ele>193</ele>
        <time>2018-01-05T10:27:07Z</time>
      </trkpt>
      <trkpt lat="46.04362" lon="4.69839">
        <ele>193</ele>
        <time>2018-01-05T10:27:08Z</time>
      </trkpt>
      <trkpt lat="46.0437" lon="4.69833">
        <ele>194</ele>
        <time>2018-01-05T10:27:10Z</time>
      </trkpt>
      <trkpt lat="46.04373" lon="4.69831">
        <ele>194</ele>
        <time>2018-01-05T10:27:11Z</time>
      </trkpt>
      <trkpt lat="46.04381" lon="4.69828">
        <ele>194</ele>
        <time>2018-01-05T10:27:13Z</time>
      </trkpt>
      <trkpt lat="46.04385" lon="4.69826">
        <ele>194</ele>
        <time>2018-01-05T10:27:14Z</time>
      </trkpt>
      <trkpt lat="46.04394" lon="4.69822">
        <ele>194</ele>
        <time>2018-01-05T10:27:16Z</time>
      </trkpt>
      <trkpt lat="46.04398" lon="4.69821">
        <ele>194</ele>
        <time>2018-01-05T10:27:17Z</time>
      </trkpt>
      <trkpt lat="46.04406" lon="4.69819">
        <ele>194</ele>
        <time>2018-01-05T10:27:19Z</time>
      </trkpt>
      <trkpt lat="46.0441" lon="4.69818">
        <ele>194</ele>
        <time>2018-01-05T10:27:20Z</time>
      </trkpt>
      <trkpt lat="46.04418" lon="4.69817">
        <ele>196</ele>
        <time>2018-01-05T10:27:22Z</time>
      </trkpt>
      <trkpt lat="46.04422" lon="4.69816">
        <ele>196</ele>
        <time>2018-01-05T10:27:23Z</time>
      </trkpt>
      <trkpt lat="46.0443" lon="4.69814">
        <ele>196</ele>
        <time>2018-01-05T10:27:25Z</time>
      </trkpt>
      <trkpt lat="46.04434" lon="4.69813">
        <ele>196</ele>
        <time>2018-01-05T10:27:26Z</time>
      </trkpt>
      <trkpt lat="46.04443" lon="4.69811">
        <ele>196</ele>
        <time>2018-01-05T10:27:28Z</time>
      </trkpt>
      <trkpt lat="46.04447" lon="4.6981">
        <ele>196</ele>
        <time>2018-01-05T10:27:29Z</time>
      </trkpt>
      <trkpt lat="46.04455" lon="4.69807">
        <ele>196</ele>
        <time>2018-01-05T10:27:31Z</time>
      </trkpt>
      <trkpt lat="46.04459" lon="4.69807">
        <ele>197</ele>
        <time>2018-01-05T10:27:32Z</time>
      </trkpt>
      <trkpt lat="46.04468" lon="4.69805">
        <ele>197</ele>
        <time>2018-01-05T10:27:34Z</time>
      </trkpt>
      <trkpt lat="46.04472" lon="4.69804">
        <ele>197</ele>
        <time>2018-01-05T10:27:35Z</time>
      </trkpt>
      <trkpt lat="46.0448" lon="4.69801">
        <ele>197</ele>
        <time>2018-01-05T10:27:37Z</time>
      </trkpt>
      <trkpt lat="46.04485" lon="4.69799">
        <ele>197</ele>
        <time>2018-01-05T10:27:38Z</time>
      </trkpt>
      <trkpt lat="46.04493" lon="4.69797">
        <ele>197</ele>
        <time>2018-01-05T10:27:40Z</time>
      </trkpt>
      <trkpt lat="46.04497" lon="4.69797">
        <ele>197</ele>
        <time>2018-01-05T10:27:41Z</time>
      </trkpt>
      <trkpt lat="46.04505" lon="4.69795">
        <ele>199</ele>
        <time>2018-01-05T10:27:43Z</time>
      </trkpt>
      <trkpt lat="46.04509" lon="4.69795">
        <ele>199</ele>
        <time>2018-01-05T10:27:44Z</time>
      </trkpt>
      <trkpt lat="46.04516" lon="4.69795">
        <ele>199</ele>
        <time>2018-01-05T10:27:46Z</time>
      </trkpt>
      <trkpt lat="46.04519" lon="4.69795">
        <ele>199</ele>
        <time>2018-01-05T10:27:47Z</time>
      </trkpt>
      <trkpt lat="46.04526" lon="4.69796">
        <ele>199</ele>
        <time>2018-01-05T10:27:49Z</time>
      </trkpt>
      <trkpt lat="46.04529" lon="4.69797">
        <ele>199</ele>
        <time>2018-01-05T10:27:50Z</time>
      </trkpt>
      <trkpt lat="46.04536" lon="4.69798">
        <ele>199</ele>
        <time>2018-01-05T10:27:52Z</time>
      </trkpt>
      <trkpt lat="46.04539" lon="4.69799">
        <ele>199</ele>
        <time>2018-01-05T10:27:53Z</time>
      </trkpt>
      <trkpt lat="46.04546" lon="4.698">
        <ele>199</ele>
        <time>2018-01-05T10:27:55Z</time>
      </trkpt>
      <trkpt lat="46.04549" lon="4.69801">
        <ele>199</ele>
        <time>2018-01-05T10:27:56Z</time>
      </trkpt>
      <trkpt lat="46.04557" lon="4.69803">
        <ele>199</ele>
        <time>2018-01-05T10:27:58Z</time>
      </trkpt>
      <trkpt lat="46.04561" lon="4.69803">
        <ele>199</ele>
        <time>2018-01-05T10:27:59Z</time>
      </trkpt>
      <trkpt lat="46.04569" lon="4.69805">
        <ele>200</ele>
        <time>2018-01-05T10:28:01Z</time>
      </trkpt>
      <trkpt lat="46.04573" lon="4.69806">
        <ele>200</ele>
        <time>2018-01-05T10:28:02Z</time>
      </trkpt>
      <trkpt lat="46.04581" lon="4.69809">
        <ele>200</ele>
        <time>2018-01-05T10:28:04Z</time>
      </trkpt>
      <trkpt lat="46.04585" lon="4.69811">
        <ele>201</ele>
        <time>2018-01-05T10:28:05Z</time>
      </trkpt>
      <trkpt lat="46.04594" lon="4.69813">
        <ele>201</ele>
        <time>2018-01-05T10:28:07Z</time>
      </trkpt>
      <trkpt lat="46.04597" lon="4.69815">
        <ele>201</ele>
        <time>2018-01-05T10:28:08Z</time>
      </trkpt>
      <trkpt lat="46.04605" lon="4.69818">
        <ele>201</ele>
        <time>2018-01-05T10:28:10Z</time>
      </trkpt>
      <trkpt lat="46.04609" lon="4.69819">
        <ele>201</ele>
        <time>2018-01-05T10:28:11Z</time>
      </trkpt>
      <trkpt lat="46.04613" lon="4.6982">
        <ele>201</ele>
        <time>2018-01-05T10:28:12Z</time>
      </trkpt>
      <trkpt lat="46.04618" lon="4.69821">
        <ele>201</ele>
        <time>2018-01-05T10:28:13Z</time>
      </trkpt>
      <trkpt lat="46.04623" lon="4.69822">
        <ele>202</ele>
        <time>2018-01-05T10:28:14Z</time>
      </trkpt>
      <trkpt lat="46.04628" lon="4.69823">
        <ele>202</ele>
        <time>2018-01-05T10:28:15Z</time>
      </trkpt>
      <trkpt lat="46.04632" lon="4.69825">
        <ele>202</ele>
        <time>2018-01-05T10:28:16Z</time>
      </trkpt>
      <trkpt lat="46.04637" lon="4.69827">
        <ele>202</ele>
        <time>2018-01-05T10:28:17Z</time>
      </trkpt>
      <trkpt lat="46.04641" lon="4.6983">
        <ele>202</ele>
        <time>2018-01-05T10:28:18Z</time>
      </trkpt>
      <trkpt lat="46.04646" lon="4.69832">
        <ele>202</ele>
        <time>2018-01-05T10:28:19Z</time>
      </trkpt>
      <trkpt lat="46.0465" lon="4.69834">
        <ele>201</ele>
        <time>2018-01-05T10:28:20Z</time>
      </trkpt>
      <trkpt lat="46.04655" lon="4.69836">
        <ele>202</ele>
        <time>2018-01-05T10:28:21Z</time>
      </trkpt>
      <trkpt lat="46.04663" lon="4.69838">
        <ele>202</ele>
        <time>2018-01-05T10:28:23Z</time>
      </trkpt>
      <trkpt lat="46.04668" lon="4.69841">
        <ele>203</ele>
        <time>2018-01-05T10:28:24Z</time>
      </trkpt>
      <trkpt lat="46.04677" lon="4.69843">
        <ele>202</ele>
        <time>2018-01-05T10:28:26Z</time>
      </trkpt>
      <trkpt lat="46.04681" lon="4.69844">
        <ele>202</ele>
        <time>2018-01-05T10:28:27Z</time>
      </trkpt>
      <trkpt lat="46.04686" lon="4.69845">
        <ele>202</ele>
        <time>2018-01-05T10:28:28Z</time>
      </trkpt>
      <trkpt lat="46.0469" lon="4.69846">
        <ele>202</ele>
        <time>2018-01-05T10:28:29Z</time>
      </trkpt>
      <trkpt lat="46.04698" lon="4.69848">
        <ele>202</ele>
        <time>2018-01-05T10:28:31Z</time>
      </trkpt>
      <trkpt lat="46.04702" lon="4.69848">
        <ele>202</ele>
        <time>2018-01-05T10:28:32Z</time>
      </trkpt>
      <trkpt lat="46.0471" lon="4.69849">
        <ele>202</ele>
        <time>2018-01-05T10:28:34Z</time>
      </trkpt>
      <trkpt lat="46.04714" lon="4.69849">
        <ele>202</ele>
        <time>2018-01-05T10:28:35Z</time>
      </trkpt>
      <trkpt lat="46.04722" lon="4.6985">
        <ele>203</ele>
        <time>2018-01-05T10:28:37Z</time>
      </trkpt>
      <trkpt lat="46.04727" lon="4.6985">
        <ele>203</ele>
        <time>2018-01-05T10:28:38Z</time>
      </trkpt>
      <trkpt lat="46.04735" lon="4.6985">
        <ele>203</ele>
        <time>2018-01-05T10:28:40Z</time>
      </trkpt>
      <trkpt lat="46.0474" lon="4.69849">
        <ele>203</ele>
        <time>2018-01-05T10:28:41Z</time>
      </trkpt>
      <trkpt lat="46.04744" lon="4.69849">
        <ele>203</ele>
        <time>2018-01-05T10:28:42Z</time>
      </trkpt>
      <trkpt lat="46.04749" lon="4.69849">
        <ele>204</ele>
        <time>2018-01-05T10:28:43Z</time>
      </trkpt>
      <trkpt lat="46.04757" lon="4.69849">
        <ele>204</ele>
        <time>2018-01-05T10:28:45Z</time>
      </trkpt>
      <trkpt lat="46.04761" lon="4.6985">
        <ele>204</ele>
        <time>2018-01-05T10:28:46Z</time>
      </trkpt>
      <trkpt lat="46.04768" lon="4.6985">
        <ele>204</ele>
        <time>2018-01-05T10:28:48Z</time>
      </trkpt>
      <trkpt lat="46.04772" lon="4.6985">
        <ele>204</ele>
        <time>2018-01-05T10:28:49Z</time>
      </trkpt>
      <trkpt lat="46.04779" lon="4.69849">
        <ele>204</ele>
        <time>2018-01-05T10:28:51Z</time>
      </trkpt>
      <trkpt lat="46.04782" lon="4.69849">
        <ele>204</ele>
        <time>2018-01-05T10:28:52Z</time>
      </trkpt>
      <trkpt lat="46.04788" lon="4.6985">
        <ele>205</ele>
        <time>2018-01-05T10:28:54Z</time>
      </trkpt>
      <trkpt lat="46.04792" lon="4.69849">
        <ele>205</ele>
        <time>2018-01-05T10:28:55Z</time>
      </trkpt>
      <trkpt lat="46.04796" lon="4.69842">
        <ele>205</ele>
        <time>2018-01-05T10:28:57Z</time>
      </trkpt>
      <trkpt lat="46.04796" lon="4.69836">
        <ele>205</ele>
        <time>2018-01-05T10:28:58Z</time>
      </trkpt>
      <trkpt lat="46.04798" lon="4.69826">
        <ele>206</ele>
        <time>2018-01-05T10:29:00Z</time>
      </trkpt>
      <trkpt lat="46.04799" lon="4.69821">
        <ele>206</ele>
        <time>2018-01-05T10:29:01Z</time>
      </trkpt>
      <trkpt lat="46.04806" lon="4.69816">
        <ele>206</ele>
        <time>2018-01-05T10:29:04Z</time>
      </trkpt>
      <trkpt lat="46.04809" lon="4.69815">
        <ele>206</ele>
        <time>2018-01-05T10:29:05Z</time>
      </trkpt>
      <trkpt lat="46.04816" lon="4.6982">
        <ele>207</ele>
        <time>2018-01-05T10:29:07Z</time>
      </trkpt>
      <trkpt lat="46.04819" lon="4.69822">
        <ele>207</ele>
        <time>2018-01-05T10:29:08Z</time>
      </trkpt>
      <trkpt lat="46.04824" lon="4.69827">
        <ele>207</ele>
        <time>2018-01-05T10:29:10Z</time>
      </trkpt>
      <trkpt lat="46.04828" lon="4.69829">
        <ele>207</ele>
        <time>2018-01-05T10:29:11Z</time>
      </trkpt>
      <trkpt lat="46.04835" lon="4.69832">
        <ele>207</ele>
        <time>2018-01-05T10:29:13Z</time>
      </trkpt>
      <trkpt lat="46.04838" lon="4.69834">
        <ele>207</ele>
        <time>2018-01-05T10:29:14Z</time>
      </trkpt>
      <trkpt lat="46.04843" lon="4.69837">
        <ele>207</ele>
        <time>2018-01-05T10:29:15Z</time>
      </trkpt>
      <trkpt lat="46.04847" lon="4.69838">
        <ele>207</ele>
        <time>2018-01-05T10:29:16Z</time>
      </trkpt>
      <trkpt lat="46.04853" lon="4.6984">
        <ele>206</ele>
        <time>2018-01-05T10:29:17Z</time>
      </trkpt>
      <trkpt lat="46.04857" lon="4.69842">
        <ele>206</ele>
        <time>2018-01-05T10:29:18Z</time>
      </trkpt>
      <trkpt lat="46.04861" lon="4.69844">
        <ele>206</ele>
        <time>2018-01-05T10:29:19Z</time>
      </trkpt>
      <trkpt lat="46.04866" lon="4.69847">
        <ele>206</ele>
        <time>2018-01-05T10:29:20Z</time>
      </trkpt>
      <trkpt lat="46.04874" lon="4.6985">
        <ele>206</ele>
        <time>2018-01-05T10:29:22Z</time>
      </trkpt>
      <trkpt lat="46.04878" lon="4.69852">
        <ele>206</ele>
        <time>2018-01-05T10:29:23Z</time>
      </trkpt>
      <trkpt lat="46.04882" lon="4.69855">
        <ele>206</ele>
        <time>2018-01-05T10:29:24Z</time>
      </trkpt>
      <trkpt lat="46.04887" lon="4.69857">
        <ele>206</ele>
        <time>2018-01-05T10:29:25Z</time>
      </trkpt>
      <trkpt lat="46.04893" lon="4.69861">
        <ele>206</ele>
        <time>2018-01-05T10:29:27Z</time>
      </trkpt>
      <trkpt lat="46.04899" lon="4.69863">
        <ele>206</ele>
        <time>2018-01-05T10:29:28Z</time>
      </trkpt>
      <trkpt lat="46.04907" lon="4.69867">
        <ele>206</ele>
        <time>2018-01-05T10:29:30Z</time>
      </trkpt>
      <trkpt lat="46.04911" lon="4.6987">
        <ele>206</ele>
        <time>2018-01-05T10:29:31Z</time>
      </trkpt>
      <trkpt lat="46.04915" lon="4.69872">
        <ele>206</ele>
        <time>2018-01-05T10:29:32Z</time>
      </trkpt>
      <trkpt lat="46.04919" lon="4.69875">
        <ele>207</ele>
        <time>2018-01-05T10:29:33Z</time>
      </trkpt>
      <trkpt lat="46.04927" lon="4.69879">
        <ele>207</ele>
        <time>2018-01-05T10:29:35Z</time>
      </trkpt>
      <trkpt lat="46.04931" lon="4.69881">
        <ele>207</ele>
        <time>2018-01-05T10:29:36Z</time>
      </trkpt>
      <trkpt lat="46.04939" lon="4.69887">
        <ele>207</ele>
        <time>2018-01-05T10:29:38Z</time>
      </trkpt>
      <trkpt lat="46.04941" lon="4.69891">
        <ele>207</ele>
        <time>2018-01-05T10:29:39Z</time>
      </trkpt>
      <trkpt lat="46.04947" lon="4.69899">
        <ele>207</ele>
        <time>2018-01-05T10:29:41Z</time>
      </trkpt>
      <trkpt lat="46.04952" lon="4.69903">
        <ele>207</ele>
        <time>2018-01-05T10:29:42Z</time>
      </trkpt>
      <trkpt lat="46.04955" lon="4.69908">
        <ele>207</ele>
        <time>2018-01-05T10:29:43Z</time>
      </trkpt>
      <trkpt lat="46.04957" lon="4.69914">
        <ele>207</ele>
        <time>2018-01-05T10:29:44Z</time>
      </trkpt>
      <trkpt lat="46.04962" lon="4.69917">
        <ele>206</ele>
        <time>2018-01-05T10:29:45Z</time>
      </trkpt>
      <trkpt lat="46.04966" lon="4.69923">
        <ele>206</ele>
        <time>2018-01-05T10:29:46Z</time>
      </trkpt>
      <trkpt lat="46.04969" lon="4.69928">
        <ele>206</ele>
        <time>2018-01-05T10:29:47Z</time>
      </trkpt>
      <trkpt lat="46.04972" lon="4.69934">
        <ele>206</ele>
        <time>2018-01-05T10:29:48Z</time>
      </trkpt>
      <trkpt lat="46.04976" lon="4.6994">
        <ele>206</ele>
        <time>2018-01-05T10:29:49Z</time>
      </trkpt>
      <trkpt lat="46.04978" lon="4.69945">
        <ele>206</ele>
        <time>2018-01-05T10:29:50Z</time>
      </trkpt>
      <trkpt lat="46.04982" lon="4.69952">
        <ele>206</ele>
        <time>2018-01-05T10:29:51Z</time>
      </trkpt>
      <trkpt lat="46.04985" lon="4.69957">
        <ele>206</ele>
        <time>2018-01-05T10:29:52Z</time>
      </trkpt>
      <trkpt lat="46.04988" lon="4.69962">
        <ele>205</ele>
        <time>2018-01-05T10:29:53Z</time>
      </trkpt>
      <trkpt lat="46.04991" lon="4.69968">
        <ele>205</ele>
        <time>2018-01-05T10:29:54Z</time>
      </trkpt>
      <trkpt lat="46.04994" lon="4.69973">
        <ele>205</ele>
        <time>2018-01-05T10:29:55Z</time>
      </trkpt>
      <trkpt lat="46.04997" lon="4.69979">
        <ele>205</ele>
        <time>2018-01-05T10:29:56Z</time>
      </trkpt>
      <trkpt lat="46.05004" lon="4.69986">
        <ele>205</ele>
        <time>2018-01-05T10:29:58Z</time>
      </trkpt>
      <trkpt lat="46.05007" lon="4.69991">
        <ele>205</ele>
        <time>2018-01-05T10:29:59Z</time>
      </trkpt>
      <trkpt lat="46.05011" lon="4.69995">
        <ele>205</ele>
        <time>2018-01-05T10:30:00Z</time>
      </trkpt>
      <trkpt lat="46.05015" lon="4.69999">
        <ele>205</ele>
        <time>2018-01-05T10:30:01Z</time>
      </trkpt>
      <trkpt lat="46.05018" lon="4.70004">
        <ele>204</ele>
        <time>2018-01-05T10:30:02Z</time>
      </trkpt>
      <trkpt lat="46.05023" lon="4.70009">
        <ele>204</ele>
        <time>2018-01-05T10:30:03Z</time>
      </trkpt>
      <trkpt lat="46.05027" lon="4.70013">
        <ele>204</ele>
        <time>2018-01-05T10:30:04Z</time>
      </trkpt>
      <trkpt lat="46.05032" lon="4.70018">
        <ele>204</ele>
        <time>2018-01-05T10:30:05Z</time>
      </trkpt>
      <trkpt lat="46.05038" lon="4.70021">
        <ele>204</ele>
        <time>2018-01-05T10:30:06Z</time>
      </trkpt>
      <trkpt lat="46.05042" lon="4.70025">
        <ele>204</ele>
        <time>2018-01-05T10:30:07Z</time>
      </trkpt>
      <trkpt lat="46.05047" lon="4.70029">
        <ele>204</ele>
        <time>2018-01-05T10:30:08Z</time>
      </trkpt>
      <trkpt lat="46.05052" lon="4.70032">
        <ele>204</ele>
        <time>2018-01-05T10:30:09Z</time>
      </trkpt>
      <trkpt lat="46.05056" lon="4.70036">
        <ele>204</ele>
        <time>2018-01-05T10:30:10Z</time>
      </trkpt>
      <trkpt lat="46.05062" lon="4.70039">
        <ele>204</ele>
        <time>2018-01-05T10:30:11Z</time>
      </trkpt>
      <trkpt lat="46.0507" lon="4.70041">
        <ele>204</ele>
        <time>2018-01-05T10:30:13Z</time>
      </trkpt>
      <trkpt lat="46.05074" lon="4.70041">
        <ele>204</ele>
        <time>2018-01-05T10:30:14Z</time>
      </trkpt>
      <trkpt lat="46.05079" lon="4.7004">
        <ele>204</ele>
        <time>2018-01-05T10:30:15Z</time>
      </trkpt>
      <trkpt lat="46.05083" lon="4.70036">
        <ele>204</ele>
        <time>2018-01-05T10:30:16Z</time>
      </trkpt>
      <trkpt lat="46.05087" lon="4.70032">
        <ele>203</ele>
        <time>2018-01-05T10:30:17Z</time>
      </trkpt>
      <trkpt lat="46.05091" lon="4.70026">
        <ele>203</ele>
        <time>2018-01-05T10:30:18Z</time>
      </trkpt>
      <trkpt lat="46.05093" lon="4.70018">
        <ele>203</ele>
        <time>2018-01-05T10:30:19Z</time>
      </trkpt>
      <trkpt lat="46.05095" lon="4.70011">
        <ele>204</ele>
        <time>2018-01-05T10:30:20Z</time>
      </trkpt>
      <trkpt lat="46.05096" lon="4.70003">
        <ele>204</ele>
        <time>2018-01-05T10:30:21Z</time>
      </trkpt>
      <trkpt lat="46.05097" lon="4.69995">
        <ele>204</ele>
        <time>2018-01-05T10:30:22Z</time>
      </trkpt>
      <trkpt lat="46.05099" lon="4.69989">
        <ele>204</ele>
        <time>2018-01-05T10:30:23Z</time>
      </trkpt>
      <trkpt lat="46.051" lon="4.69978">
        <ele>203</ele>
        <time>2018-01-05T10:30:24Z</time>
      </trkpt>
      <trkpt lat="46.05102" lon="4.6997">
        <ele>203</ele>
        <time>2018-01-05T10:30:25Z</time>
      </trkpt>
      <trkpt lat="46.05103" lon="4.69963">
        <ele>203</ele>
        <time>2018-01-05T10:30:26Z</time>
      </trkpt>
      <trkpt lat="46.05106" lon="4.69952">
        <ele>203</ele>
        <time>2018-01-05T10:30:28Z</time>
      </trkpt>
      <trkpt lat="46.05108" lon="4.69946">
        <ele>203</ele>
        <time>2018-01-05T10:30:29Z</time>
      </trkpt>
      <trkpt lat="46.05109" lon="4.69938">
        <ele>203</ele>
        <time>2018-01-05T10:30:30Z</time>
      </trkpt>
      <trkpt lat="46.0511" lon="4.69933">
        <ele>203</ele>
        <time>2018-01-05T10:30:31Z</time>
      </trkpt>
      <trkpt lat="46.05111" lon="4.69926">
        <ele>203</ele>
        <time>2018-01-05T10:30:32Z</time>
      </trkpt>
      <trkpt lat="46.05112" lon="4.6992">
        <ele>203</ele>
        <time>2018-01-05T10:30:33Z</time>
      </trkpt>
      <trkpt lat="46.05112" lon="4.69912">
        <ele>204</ele>
        <time>2018-01-05T10:30:34Z</time>
      </trkpt>
      <trkpt lat="46.05113" lon="4.69906">
        <ele>204</ele>
        <time>2018-01-05T10:30:35Z</time>
      </trkpt>
      <trkpt lat="46.05113" lon="4.69899">
        <ele>204</ele>
        <time>2018-01-05T10:30:36Z</time>
      </trkpt>
      <trkpt lat="46.05115" lon="4.69893">
        <ele>204</ele>
        <time>2018-01-05T10:30:37Z</time>
      </trkpt>
      <trkpt lat="46.05115" lon="4.69885">
        <ele>204</ele>
        <time>2018-01-05T10:30:38Z</time>
      </trkpt>
      <trkpt lat="46.05116" lon="4.69879">
        <ele>204</ele>
        <time>2018-01-05T10:30:39Z</time>
      </trkpt>
      <trkpt lat="46.05117" lon="4.69868">
        <ele>204</ele>
        <time>2018-01-05T10:30:41Z</time>
      </trkpt>
      <trkpt lat="46.05118" lon="4.69863">
        <ele>204</ele>
        <time>2018-01-05T10:30:42Z</time>
      </trkpt>
      <trkpt lat="46.05121" lon="4.69853">
        <ele>204</ele>
        <time>2018-01-05T10:30:44Z</time>
      </trkpt>
      <trkpt lat="46.05123" lon="4.69848">
        <ele>204</ele>
        <time>2018-01-05T10:30:45Z</time>
      </trkpt>
      <trkpt lat="46.05125" lon="4.69843">
        <ele>204</ele>
        <time>2018-01-05T10:30:46Z</time>
      </trkpt>
      <trkpt lat="46.05129" lon="4.69838">
        <ele>204</ele>
        <time>2018-01-05T10:30:47Z</time>
      </trkpt>
      <trkpt lat="46.05134" lon="4.69835">
        <ele>204</ele>
        <time>2018-01-05T10:30:48Z</time>
      </trkpt>
      <trkpt lat="46.05139" lon="4.69833">
        <ele>204</ele>
        <time>2018-01-05T10:30:49Z</time>
      </trkpt>
      <trkpt lat="46.05145" lon="4.69834">
        <ele>203</ele>
        <time>2018-01-05T10:30:50Z</time>
      </trkpt>
      <trkpt lat="46.0515" lon="4.69835">
        <ele>203</ele>
        <time>2018-01-05T10:30:51Z</time>
      </trkpt>
      <trkpt lat="46.05156" lon="4.69838">
        <ele>203</ele>
        <time>2018-01-05T10:30:52Z</time>
      </trkpt>
      <trkpt lat="46.05163" lon="4.6984">
        <ele>203</ele>
        <time>2018-01-05T10:30:53Z</time>
      </trkpt>
      <trkpt lat="46.05168" lon="4.69842">
        <ele>202</ele>
        <time>2018-01-05T10:30:54Z</time>
      </trkpt>
      <trkpt lat="46.05174" lon="4.69844">
        <ele>202</ele>
        <time>2018-01-05T10:30:55Z</time>
      </trkpt>
      <trkpt lat="46.0518" lon="4.69846">
        <ele>202</ele>
        <time>2018-01-05T10:30:56Z</time>
      </trkpt>
      <trkpt lat="46.05186" lon="4.69847">
        <ele>202</ele>
        <time>2018-01-05T10:30:57Z</time>
      </trkpt>
      <trkpt lat="46.05192" lon="4.6985">
        <ele>202</ele>
        <time>2018-01-05T10:30:58Z</time>
      </trkpt>
      <trkpt lat="46.05197" lon="4.69852">
        <ele>201</ele>
        <time>2018-01-05T10:30:59Z</time>
      </trkpt>
      <trkpt lat="46.05205" lon="4.69855">
        <ele>201</ele>
        <time>2018-01-05T10:31:00Z</time>
      </trkpt>
      <trkpt lat="46.05212" lon="4.69857">
        <ele>201</ele>
        <time>2018-01-05T10:31:01Z</time>
      </trkpt>
      <trkpt lat="46.05218" lon="4.69859">
        <ele>201</ele>
        <time>2018-01-05T10:31:02Z</time>
      </trkpt>
      <trkpt lat="46.05224" lon="4.69861">
        <ele>201</ele>
        <time>2018-01-05T10:31:03Z</time>
      </trkpt>
      <trkpt lat="46.05231" lon="4.69863">
        <ele>201</ele>
        <time>2018-01-05T10:31:04Z</time>
      </trkpt>
      <trkpt lat="46.05237" lon="4.69866">
        <ele>201</ele>
        <time>2018-01-05T10:31:05Z</time>
      </trkpt>
      <trkpt lat="46.05243" lon="4.69868">
        <ele>201</ele>
        <time>2018-01-05T10:31:06Z</time>
      </trkpt>
      <trkpt lat="46.0525" lon="4.6987">
        <ele>200</ele>
        <time>2018-01-05T10:31:07Z</time>
      </trkpt>
      <trkpt lat="46.05256" lon="4.69873">
        <ele>199</ele>
        <time>2018-01-05T10:31:08Z</time>
      </trkpt>
      <trkpt lat="46.05262" lon="4.69874">
        <ele>199</ele>
        <time>2018-01-05T10:31:09Z</time>
      </trkpt>
      <trkpt lat="46.05269" lon="4.69876">
        <ele>199</ele>
        <time>2018-01-05T10:31:10Z</time>
      </trkpt>
      <trkpt lat="46.05274" lon="4.69876">
        <ele>199</ele>
        <time>2018-01-05T10:31:11Z</time>
      </trkpt>
      <trkpt lat="46.05281" lon="4.69877">
        <ele>199</ele>
        <time>2018-01-05T10:31:12Z</time>
      </trkpt>
      <trkpt lat="46.05287" lon="4.69878">
        <ele>199</ele>
        <time>2018-01-05T10:31:13Z</time>
      </trkpt>
      <trkpt lat="46.05293" lon="4.69879">
        <ele>199</ele>
        <time>2018-01-05T10:31:14Z</time>
      </trkpt>
      <trkpt lat="46.05298" lon="4.6988">
        <ele>199</ele>
        <time>2018-01-05T10:31:15Z</time>
      </trkpt>
      <trkpt lat="46.05304" lon="4.6988">
        <ele>199</ele>
        <time>2018-01-05T10:31:16Z</time>
      </trkpt>
      <trkpt lat="46.0531" lon="4.69882">
        <ele>199</ele>
        <time>2018-01-05T10:31:17Z</time>
      </trkpt>
      <trkpt lat="46.05316" lon="4.69883">
        <ele>199</ele>
        <time>2018-01-05T10:31:18Z</time>
      </trkpt>
      <trkpt lat="46.05321" lon="4.69884">
        <ele>199</ele>
        <time>2018-01-05T10:31:19Z</time>
      </trkpt>
      <trkpt lat="46.05327" lon="4.69887">
        <ele>199</ele>
        <time>2018-01-05T10:31:20Z</time>
      </trkpt>
      <trkpt lat="46.05332" lon="4.69888">
        <ele>199</ele>
        <time>2018-01-05T10:31:21Z</time>
      </trkpt>
      <trkpt lat="46.05338" lon="4.69889">
        <ele>199</ele>
        <time>2018-01-05T10:31:22Z</time>
      </trkpt>
      <trkpt lat="46.05344" lon="4.69891">
        <ele>199</ele>
        <time>2018-01-05T10:31:23Z</time>
      </trkpt>
      <trkpt lat="46.05349" lon="4.69892">
        <ele>199</ele>
        <time>2018-01-05T10:31:24Z</time>
      </trkpt>
      <trkpt lat="46.05355" lon="4.69895">
        <ele>199</ele>
        <time>2018-01-05T10:31:25Z</time>
      </trkpt>
      <trkpt lat="46.05361" lon="4.69897">
        <ele>199</ele>
        <time>2018-01-05T10:31:26Z</time>
      </trkpt>
      <trkpt lat="46.05367" lon="4.699">
        <ele>199</ele>
        <time>2018-01-05T10:31:27Z</time>
      </trkpt>
      <trkpt lat="46.05373" lon="4.69902">
        <ele>199</ele>
        <time>2018-01-05T10:31:28Z</time>
      </trkpt>
      <trkpt lat="46.0538" lon="4.69905">
        <ele>199</ele>
        <time>2018-01-05T10:31:29Z</time>
      </trkpt>
      <trkpt lat="46.05386" lon="4.69907">
        <ele>199</ele>
        <time>2018-01-05T10:31:30Z</time>
      </trkpt>
      <trkpt lat="46.05393" lon="4.69909">
        <ele>199</ele>
        <time>2018-01-05T10:31:31Z</time>
      </trkpt>
      <trkpt lat="46.05399" lon="4.6991">
        <ele>199</ele>
        <time>2018-01-05T10:31:32Z</time>
      </trkpt>
      <trkpt lat="46.05405" lon="4.69911">
        <ele>199</ele>
        <time>2018-01-05T10:31:33Z</time>
      </trkpt>
      <trkpt lat="46.05411" lon="4.69912">
        <ele>199</ele>
        <time>2018-01-05T10:31:34Z</time>
      </trkpt>
      <trkpt lat="46.05417" lon="4.69912">
        <ele>199</ele>
        <time>2018-01-05T10:31:35Z</time>
      </trkpt>
      <trkpt lat="46.05422" lon="4.69913">
        <ele>199</ele>
        <time>2018-01-05T10:31:36Z</time>
      </trkpt>
      <trkpt lat="46.05427" lon="4.69912">
        <ele>199</ele>
        <time>2018-01-05T10:31:37Z</time>
      </trkpt>
      <trkpt lat="46.05432" lon="4.6991">
        <ele>199</ele>
        <time>2018-01-05T10:31:38Z</time>
      </trkpt>
      <trkpt lat="46.05437" lon="4.69908">
        <ele>199</ele>
        <time>2018-01-05T10:31:39Z</time>
      </trkpt>
      <trkpt lat="46.05442" lon="4.69905">
        <ele>199</ele>
        <time>2018-01-05T10:31:40Z</time>
      </trkpt>
      <trkpt lat="46.05447" lon="4.69904">
        <ele>199</ele>
        <time>2018-01-05T10:31:41Z</time>
      </trkpt>
      <trkpt lat="46.05452" lon="4.69901">
        <ele>199</ele>
        <time>2018-01-05T10:31:42Z</time>
      </trkpt>
      <trkpt lat="46.05456" lon="4.69899">
        <ele>199</ele>
        <time>2018-01-05T10:31:43Z</time>
      </trkpt>
      <trkpt lat="46.05461" lon="4.69898">
        <ele>199</ele>
        <time>2018-01-05T10:31:44Z</time>
      </trkpt>
      <trkpt lat="46.05466" lon="4.69896">
        <ele>199</ele>
        <time>2018-01-05T10:31:45Z</time>
      </trkpt>
      <trkpt lat="46.05471" lon="4.69895">
        <ele>199</ele>
        <time>2018-01-05T10:31:46Z</time>
      </trkpt>
      <trkpt lat="46.05476" lon="4.69893">
        <ele>199</ele>
        <time>2018-01-05T10:31:47Z</time>
      </trkpt>
      <trkpt lat="46.05481" lon="4.69892">
        <ele>199</ele>
        <time>2018-01-05T10:31:48Z</time>
      </trkpt>
      <trkpt lat="46.05485" lon="4.69891">
        <ele>199</ele>
        <time>2018-01-05T10:31:49Z</time>
      </trkpt>
      <trkpt lat="46.05491" lon="4.69889">
        <ele>199</ele>
        <time>2018-01-05T10:31:50Z</time>
      </trkpt>
      <trkpt lat="46.05495" lon="4.69888">
        <ele>199</ele>
        <time>2018-01-05T10:31:51Z</time>
      </trkpt>
      <trkpt lat="46.055" lon="4.69885">
        <ele>199</ele>
        <time>2018-01-05T10:31:52Z</time>
      </trkpt>
      <trkpt lat="46.05505" lon="4.69883">
        <ele>199</ele>
        <time>2018-01-05T10:31:53Z</time>
      </trkpt>
      <trkpt lat="46.05509" lon="4.6988">
        <ele>199</ele>
        <time>2018-01-05T10:31:54Z</time>
      </trkpt>
      <trkpt lat="46.05515" lon="4.69878">
        <ele>199</ele>
        <time>2018-01-05T10:31:55Z</time>
      </trkpt>
      <trkpt lat="46.0552" lon="4.69877">
        <ele>199</ele>
        <time>2018-01-05T10:31:56Z</time>
      </trkpt>
      <trkpt lat="46.05525" lon="4.69876">
        <ele>200</ele>
        <time>2018-01-05T10:31:57Z</time>
      </trkpt>
      <trkpt lat="46.05534" lon="4.69873">
        <ele>200</ele>
        <time>2018-01-05T10:31:59Z</time>
      </trkpt>
      <trkpt lat="46.05538" lon="4.69871">
        <ele>200</ele>
        <time>2018-01-05T10:32:00Z</time>
      </trkpt>
      <trkpt lat="46.05546" lon="4.69867">
        <ele>200</ele>
        <time>2018-01-05T10:32:02Z</time>
      </trkpt>
      <trkpt lat="46.05549" lon="4.69865">
        <ele>200</ele>
        <time>2018-01-05T10:32:03Z</time>
      </trkpt>
      <trkpt lat="46.05557" lon="4.69862">
        <ele>200</ele>
        <time>2018-01-05T10:32:05Z</time>
      </trkpt>
      <trkpt lat="46.0556" lon="4.69861">
        <ele>200</ele>
        <time>2018-01-05T10:32:06Z</time>
      </trkpt>
      <trkpt lat="46.05564" lon="4.69862">
        <ele>200</ele>
        <time>2018-01-05T10:32:07Z</time>
      </trkpt>
      <trkpt lat="46.05568" lon="4.69866">
        <ele>200</ele>
        <time>2018-01-05T10:32:08Z</time>
      </trkpt>
      <trkpt lat="46.05572" lon="4.6987">
        <ele>200</ele>
        <time>2018-01-05T10:32:09Z</time>
      </trkpt>
      <trkpt lat="46.05576" lon="4.69876">
        <ele>200</ele>
        <time>2018-01-05T10:32:10Z</time>
      </trkpt>
      <trkpt lat="46.05579" lon="4.69882">
        <ele>200</ele>
        <time>2018-01-05T10:32:11Z</time>
      </trkpt>
      <trkpt lat="46.05583" lon="4.69889">
        <ele>200</ele>
        <time>2018-01-05T10:32:12Z</time>
      </trkpt>
      <trkpt lat="46.05586" lon="4.69896">
        <ele>201</ele>
        <time>2018-01-05T10:32:13Z</time>
      </trkpt>
      <trkpt lat="46.0559" lon="4.69902">
        <ele>201</ele>
        <time>2018-01-05T10:32:14Z</time>
      </trkpt>
      <trkpt lat="46.05594" lon="4.69908">
        <ele>201</ele>
        <time>2018-01-05T10:32:15Z</time>
      </trkpt>
      <trkpt lat="46.05598" lon="4.69915">
        <ele>201</ele>
        <time>2018-01-05T10:32:16Z</time>
      </trkpt>
      <trkpt lat="46.05602" lon="4.69922">
        <ele>201</ele>
        <time>2018-01-05T10:32:17Z</time>
      </trkpt>
      <trkpt lat="46.05606" lon="4.69928">
        <ele>201</ele>
        <time>2018-01-05T10:32:18Z</time>
      </trkpt>
      <trkpt lat="46.0561" lon="4.69935">
        <ele>201</ele>
        <time>2018-01-05T10:32:19Z</time>
      </trkpt>
      <trkpt lat="46.05614" lon="4.69941">
        <ele>201</ele>
        <time>2018-01-05T10:32:20Z</time>
      </trkpt>
      <trkpt lat="46.05618" lon="4.69949">
        <ele>201</ele>
        <time>2018-01-05T10:32:21Z</time>
      </trkpt>
      <trkpt lat="46.05622" lon="4.69956">
        <ele>201</ele>
        <time>2018-01-05T10:32:22Z</time>
      </trkpt>
      <trkpt lat="46.05626" lon="4.69964">
        <ele>201</ele>
        <time>2018-01-05T10:32:23Z</time>
      </trkpt>
      <trkpt lat="46.0563" lon="4.69971">
        <ele>201</ele>
        <time>2018-01-05T10:32:24Z</time>
      </trkpt>
      <trkpt lat="46.05634" lon="4.69978">
        <ele>200</ele>
        <time>2018-01-05T10:32:25Z</time>
      </trkpt>
      <trkpt lat="46.05636" lon="4.69986">
        <ele>200</ele>
        <time>2018-01-05T10:32:26Z</time>
      </trkpt>
      <trkpt lat="46.0564" lon="4.69992">
        <ele>200</ele>
        <time>2018-01-05T10:32:27Z</time>
      </trkpt>
      <trkpt lat="46.05644" lon="4.69999">
        <ele>200</ele>
        <time>2018-01-05T10:32:28Z</time>
      </trkpt>
      <trkpt lat="46.05647" lon="4.70006">
        <ele>200</ele>
        <time>2018-01-05T10:32:29Z</time>
      </trkpt>
      <trkpt lat="46.0565" lon="4.70009">
        <ele>200</ele>
        <time>2018-01-05T10:32:30Z</time>
      </trkpt>
      <trkpt lat="46.05653" lon="4.70016">
        <ele>200</ele>
        <time>2018-01-05T10:32:31Z</time>
      </trkpt>
      <trkpt lat="46.05655" lon="4.70022">
        <ele>200</ele>
        <time>2018-01-05T10:32:32Z</time>
      </trkpt>
      <trkpt lat="46.05658" lon="4.70028">
        <ele>200</ele>
        <time>2018-01-05T10:32:33Z</time>
      </trkpt>
      <trkpt lat="46.05662" lon="4.70034">
        <ele>200</ele>
        <time>2018-01-05T10:32:34Z</time>
      </trkpt>
      <trkpt lat="46.05664" lon="4.7004">
        <ele>200</ele>
        <time>2018-01-05T10:32:35Z</time>
      </trkpt>
      <trkpt lat="46.05668" lon="4.70045">
        <ele>199</ele>
        <time>2018-01-05T10:32:36Z</time>
      </trkpt>
      <trkpt lat="46.05673" lon="4.70051">
        <ele>199</ele>
        <time>2018-01-05T10:32:37Z</time>
      </trkpt>
      <trkpt lat="46.05677" lon="4.70057">
        <ele>199</ele>
        <time>2018-01-05T10:32:38Z</time>
      </trkpt>
      <trkpt lat="46.0568" lon="4.70064">
        <ele>199</ele>
        <time>2018-01-05T10:32:39Z</time>
      </trkpt>
      <trkpt lat="46.05683" lon="4.70072">
        <ele>199</ele>
        <time>2018-01-05T10:32:40Z</time>
      </trkpt>
      <trkpt lat="46.05687" lon="4.7008">
        <ele>199</ele>
        <time>2018-01-05T10:32:41Z</time>
      </trkpt>
      <trkpt lat="46.05691" lon="4.70087">
        <ele>198</ele>
        <time>2018-01-05T10:32:42Z</time>
      </trkpt>
      <trkpt lat="46.05694" lon="4.70094">
        <ele>198</ele>
        <time>2018-01-05T10:32:43Z</time>
      </trkpt>
      <trkpt lat="46.05698" lon="4.70101">
        <ele>198</ele>
        <time>2018-01-05T10:32:44Z</time>
      </trkpt>
      <trkpt lat="46.05701" lon="4.70108">
        <ele>198</ele>
        <time>2018-01-05T10:32:45Z</time>
      </trkpt>
      <trkpt lat="46.05704" lon="4.70114">
        <ele>198</ele>
        <time>2018-01-05T10:32:46Z</time>
      </trkpt>
      <trkpt lat="46.05709" lon="4.70122">
        <ele>198</ele>
        <time>2018-01-05T10:32:47Z</time>
      </trkpt>
      <trkpt lat="46.05712" lon="4.70128">
        <ele>198</ele>
        <time>2018-01-05T10:32:48Z</time>
      </trkpt>
      <trkpt lat="46.05716" lon="4.70134">
        <ele>198</ele>
        <time>2018-01-05T10:32:49Z</time>
      </trkpt>
      <trkpt lat="46.05718" lon="4.70141">
        <ele>198</ele>
        <time>2018-01-05T10:32:50Z</time>
      </trkpt>
      <trkpt lat="46.05722" lon="4.7015">
        <ele>198</ele>
        <time>2018-01-05T10:32:51Z</time>
      </trkpt>
      <trkpt lat="46.05725" lon="4.70157">
        <ele>198</ele>
        <time>2018-01-05T10:32:52Z</time>
      </trkpt>
      <trkpt lat="46.0573" lon="4.70165">
        <ele>198</ele>
        <time>2018-01-05T10:32:53Z</time>
      </trkpt>
      <trkpt lat="46.05734" lon="4.70171">
        <ele>198</ele>
        <time>2018-01-05T10:32:54Z</time>
      </trkpt>
      <trkpt lat="46.05739" lon="4.70179">
        <ele>198</ele>
        <time>2018-01-05T10:32:55Z</time>
      </trkpt>
      <trkpt lat="46.05744" lon="4.70187">
        <ele>198</ele>
        <time>2018-01-05T10:32:56Z</time>
      </trkpt>
      <trkpt lat="46.05749" lon="4.70194">
        <ele>198</ele>
        <time>2018-01-05T10:32:57Z</time>
      </trkpt>
      <trkpt lat="46.05753" lon="4.70201">
        <ele>198</ele>
        <time>2018-01-05T10:32:58Z</time>
      </trkpt>
      <trkpt lat="46.05757" lon="4.70209">
        <ele>198</ele>
        <time>2018-01-05T10:32:59Z</time>
      </trkpt>
      <trkpt lat="46.05761" lon="4.70216">
        <ele>198</ele>
        <time>2018-01-05T10:33:00Z</time>
      </trkpt>
      <trkpt lat="46.05765" lon="4.70223">
        <ele>198</ele>
        <time>2018-01-05T10:33:01Z</time>
      </trkpt>
      <trkpt lat="46.0577" lon="4.7023">
        <ele>198</ele>
        <time>2018-01-05T10:33:02Z</time>
      </trkpt>
      <trkpt lat="46.05774" lon="4.70236">
        <ele>198</ele>
        <time>2018-01-05T10:33:03Z</time>
      </trkpt>
      <trkpt lat="46.05778" lon="4.70243">
        <ele>198</ele>
        <time>2018-01-05T10:33:04Z</time>
      </trkpt>
      <trkpt lat="46.05782" lon="4.7025">
        <ele>198</ele>
        <time>2018-01-05T10:33:05Z</time>
      </trkpt>
      <trkpt lat="46.05786" lon="4.70256">
        <ele>198</ele>
        <time>2018-01-05T10:33:06Z</time>
      </trkpt>
      <trkpt lat="46.05789" lon="4.70262">
        <ele>198</ele>
        <time>2018-01-05T10:33:07Z</time>
      </trkpt>
      <trkpt lat="46.05792" lon="4.7027">
        <ele>197</ele>
        <time>2018-01-05T10:33:08Z</time>
      </trkpt>
      <trkpt lat="46.05796" lon="4.70276">
        <ele>197</ele>
        <time>2018-01-05T10:33:09Z</time>
      </trkpt>
      <trkpt lat="46.058" lon="4.70281">
        <ele>197</ele>
        <time>2018-01-05T10:33:10Z</time>
      </trkpt>
      <trkpt lat="46.05804" lon="4.70287">
        <ele>197</ele>
        <time>2018-01-05T10:33:11Z</time>
      </trkpt>
      <trkpt lat="46.05807" lon="4.70292">
        <ele>197</ele>
        <time>2018-01-05T10:33:12Z</time>
      </trkpt>
      <trkpt lat="46.05811" lon="4.70297">
        <ele>197</ele>
        <time>2018-01-05T10:33:13Z</time>
      </trkpt>
      <trkpt lat="46.05815" lon="4.70304">
        <ele>197</ele>
        <time>2018-01-05T10:33:14Z</time>
      </trkpt>
      <trkpt lat="46.05819" lon="4.7031">
        <ele>197</ele>
        <time>2018-01-05T10:33:15Z</time>
      </trkpt>
      <trkpt lat="46.05823" lon="4.70316">
        <ele>197</ele>
        <time>2018-01-05T10:33:16Z</time>
      </trkpt>
      <trkpt lat="46.05827" lon="4.70321">
        <ele>197</ele>
        <time>2018-01-05T10:33:17Z</time>
      </trkpt>
      <trkpt lat="46.0583" lon="4.70327">
        <ele>197</ele>
        <time>2018-01-05T10:33:18Z</time>
      </trkpt>
      <trkpt lat="46.05834" lon="4.70332">
        <ele>197</ele>
        <time>2018-01-05T10:33:19Z</time>
      </trkpt>
      <trkpt lat="46.05838" lon="4.70337">
        <ele>197</ele>
        <time>2018-01-05T10:33:20Z</time>
      </trkpt>
      <trkpt lat="46.05841" lon="4.70341">
        <ele>197</ele>
        <time>2018-01-05T10:33:21Z</time>
      </trkpt>
      <trkpt lat="46.05845" lon="4.70346">
        <ele>197</ele>
        <time>2018-01-05T10:33:22Z</time>
      </trkpt>
      <trkpt lat="46.05848" lon="4.70352">
        <ele>196</ele>
        <time>2018-01-05T10:33:23Z</time>
      </trkpt>
      <trkpt lat="46.05852" lon="4.70359">
        <ele>196</ele>
        <time>2018-01-05T10:33:24Z</time>
      </trkpt>
      <trkpt lat="46.05856" lon="4.70366">
        <ele>196</ele>
        <time>2018-01-05T10:33:25Z</time>
      </trkpt>
      <trkpt lat="46.0586" lon="4.70372">
        <ele>196</ele>
        <time>2018-01-05T10:33:26Z</time>
      </trkpt>
      <trkpt lat="46.05864" lon="4.70378">
        <ele>196</ele>
        <time>2018-01-05T10:33:27Z</time>
      </trkpt>
      <trkpt lat="46.05869" lon="4.70384">
        <ele>196</ele>
        <time>2018-01-05T10:33:28Z</time>
      </trkpt>
      <trkpt lat="46.05873" lon="4.7039">
        <ele>196</ele>
        <time>2018-01-05T10:33:29Z</time>
      </trkpt>
      <trkpt lat="46.05877" lon="4.70396">
        <ele>196</ele>
        <time>2018-01-05T10:33:30Z</time>
      </trkpt>
      <trkpt lat="46.05882" lon="4.70404">
        <ele>196</ele>
        <time>2018-01-05T10:33:31Z</time>
      </trkpt>
      <trkpt lat="46.05885" lon="4.7041">
        <ele>196</ele>
        <time>2018-01-05T10:33:32Z</time>
      </trkpt>
      <trkpt lat="46.0589" lon="4.70418">
        <ele>195</ele>
        <time>2018-01-05T10:33:33Z</time>
      </trkpt>
      <trkpt lat="46.05895" lon="4.70423">
        <ele>195</ele>
        <time>2018-01-05T10:33:34Z</time>
      </trkpt>
      <trkpt lat="46.05898" lon="4.70429">
        <ele>195</ele>
        <time>2018-01-05T10:33:35Z</time>
      </trkpt>
      <trkpt lat="46.05902" lon="4.70435">
        <ele>195</ele>
        <time>2018-01-05T10:33:36Z</time>
      </trkpt>
      <trkpt lat="46.05906" lon="4.70442">
        <ele>195</ele>
        <time>2018-01-05T10:33:37Z</time>
      </trkpt>
      <trkpt lat="46.0591" lon="4.70447">
        <ele>195</ele>
        <time>2018-01-05T10:33:38Z</time>
      </trkpt>
      <trkpt lat="46.05913" lon="4.70453">
        <ele>195</ele>
        <time>2018-01-05T10:33:39Z</time>
      </trkpt>
      <trkpt lat="46.05916" lon="4.7046">
        <ele>195</ele>
        <time>2018-01-05T10:33:40Z</time>
      </trkpt>
      <trkpt lat="46.0592" lon="4.70466">
        <ele>195</ele>
        <time>2018-01-05T10:33:41Z</time>
      </trkpt>
      <trkpt lat="46.05923" lon="4.70473">
        <ele>195</ele>
        <time>2018-01-05T10:33:42Z</time>
      </trkpt>
      <trkpt lat="46.05926" lon="4.7048">
        <ele>195</ele>
        <time>2018-01-05T10:33:43Z</time>
      </trkpt>
      <trkpt lat="46.05929" lon="4.70487">
        <ele>195</ele>
        <time>2018-01-05T10:33:44Z</time>
      </trkpt>
      <trkpt lat="46.0593" lon="4.70494">
        <ele>196</ele>
        <time>2018-01-05T10:33:45Z</time>
      </trkpt>
      <trkpt lat="46.05933" lon="4.70502">
        <ele>195</ele>
        <time>2018-01-05T10:33:46Z</time>
      </trkpt>
      <trkpt lat="46.05933" lon="4.7051">
        <ele>195</ele>
        <time>2018-01-05T10:33:47Z</time>
      </trkpt>
      <trkpt lat="46.05934" lon="4.70518">
        <ele>195</ele>
        <time>2018-01-05T10:33:48Z</time>
      </trkpt>
      <trkpt lat="46.05933" lon="4.70527">
        <ele>195</ele>
        <time>2018-01-05T10:33:49Z</time>
      </trkpt>
      <trkpt lat="46.05931" lon="4.70534">
        <ele>195</ele>
        <time>2018-01-05T10:33:50Z</time>
      </trkpt>
      <trkpt lat="46.05929" lon="4.70541">
        <ele>195</ele>
        <time>2018-01-05T10:33:51Z</time>
      </trkpt>
      <trkpt lat="46.05926" lon="4.70549">
        <ele>195</ele>
        <time>2018-01-05T10:33:52Z</time>
      </trkpt>
      <trkpt lat="46.05923" lon="4.70556">
        <ele>195</ele>
        <time>2018-01-05T10:33:53Z</time>
      </trkpt>
      <trkpt lat="46.0592" lon="4.70563">
        <ele>195</ele>
        <time>2018-01-05T10:33:54Z</time>
      </trkpt>
      <trkpt lat="46.05918" lon="4.7057">
        <ele>195</ele>
        <time>2018-01-05T10:33:55Z</time>
      </trkpt>
      <trkpt lat="46.05917" lon="4.70578">
        <ele>195</ele>
        <time>2018-01-05T10:33:56Z</time>
      </trkpt>
      <trkpt lat="46.05916" lon="4.70586">
        <ele>195</ele>
        <time>2018-01-05T10:33:57Z</time>
      </trkpt>
      <trkpt lat="46.05914" lon="4.70595">
        <ele>195</ele>
        <time>2018-01-05T10:33:58Z</time>
      </trkpt>
      <trkpt lat="46.05913" lon="4.70603">
        <ele>194</ele>
        <time>2018-01-05T10:33:59Z</time>
      </trkpt>
      <trkpt lat="46.05913" lon="4.70612">
        <ele>194</ele>
        <time>2018-01-05T10:34:00Z</time>
      </trkpt>
      <trkpt lat="46.05912" lon="4.70621">
        <ele>194</ele>
        <time>2018-01-05T10:34:01Z</time>
      </trkpt>
      <trkpt lat="46.05912" lon="4.7063">
        <ele>194</ele>
        <time>2018-01-05T10:34:02Z</time>
      </trkpt>
      <trkpt lat="46.05911" lon="4.70639">
        <ele>194</ele>
        <time>2018-01-05T10:34:03Z</time>
      </trkpt>
      <trkpt lat="46.0591" lon="4.70649">
        <ele>194</ele>
        <time>2018-01-05T10:34:04Z</time>
      </trkpt>
      <trkpt lat="46.0591" lon="4.70659">
        <ele>194</ele>
        <time>2018-01-05T10:34:05Z</time>
      </trkpt>
      <trkpt lat="46.0591" lon="4.70668">
        <ele>194</ele>
        <time>2018-01-05T10:34:06Z</time>
      </trkpt>
      <trkpt lat="46.0591" lon="4.70677">
        <ele>194</ele>
        <time>2018-01-05T10:34:07Z</time>
      </trkpt>
      <trkpt lat="46.0591" lon="4.70686">
        <ele>194</ele>
        <time>2018-01-05T10:34:08Z</time>
      </trkpt>
      <trkpt lat="46.05909" lon="4.70695">
        <ele>194</ele>
        <time>2018-01-05T10:34:09Z</time>
      </trkpt>
      <trkpt lat="46.0591" lon="4.70703">
        <ele>194</ele>
        <time>2018-01-05T10:34:10Z</time>
      </trkpt>
      <trkpt lat="46.05912" lon="4.7071">
        <ele>194</ele>
        <time>2018-01-05T10:34:11Z</time>
      </trkpt>
      <trkpt lat="46.05913" lon="4.70717">
        <ele>194</ele>
        <time>2018-01-05T10:34:12Z</time>
      </trkpt>
      <trkpt lat="46.05915" lon="4.70725">
        <ele>194</ele>
        <time>2018-01-05T10:34:13Z</time>
      </trkpt>
      <trkpt lat="46.05916" lon="4.70732">
        <ele>194</ele>
        <time>2018-01-05T10:34:14Z</time>
      </trkpt>
      <trkpt lat="46.05917" lon="4.7074">
        <ele>194</ele>
        <time>2018-01-05T10:34:15Z</time>
      </trkpt>
      <trkpt lat="46.05919" lon="4.70748">
        <ele>194</ele>
        <time>2018-01-05T10:34:16Z</time>
      </trkpt>
      <trkpt lat="46.05921" lon="4.70756">
        <ele>194</ele>
        <time>2018-01-05T10:34:17Z</time>
      </trkpt>
      <trkpt lat="46.05922" lon="4.70763">
        <ele>194</ele>
        <time>2018-01-05T10:34:18Z</time>
      </trkpt>
      <trkpt lat="46.05924" lon="4.70771">
        <ele>194</ele>
        <time>2018-01-05T10:34:19Z</time>
      </trkpt>
      <trkpt lat="46.05925" lon="4.7078">
        <ele>194</ele>
        <time>2018-01-05T10:34:20Z</time>
      </trkpt>
      <trkpt lat="46.05927" lon="4.70789">
        <ele>194</ele>
        <time>2018-01-05T10:34:21Z</time>
      </trkpt>
      <trkpt lat="46.05928" lon="4.70798">
        <ele>194</ele>
        <time>2018-01-05T10:34:22Z</time>
      </trkpt>
      <trkpt lat="46.05929" lon="4.70807">
        <ele>194</ele>
        <time>2018-01-05T10:34:23Z</time>
      </trkpt>
      <trkpt lat="46.0593" lon="4.70816">
        <ele>194</ele>
        <time>2018-01-05T10:34:24Z</time>
      </trkpt>
      <trkpt lat="46.0593" lon="4.70825">
        <ele>194</ele>
        <time>2018-01-05T10:34:25Z</time>
      </trkpt>
      <trkpt lat="46.05931" lon="4.70831">
        <ele>195</ele>
        <time>2018-01-05T10:34:26Z</time>
      </trkpt>
      <trkpt lat="46.05931" lon="4.70839">
        <ele>194</ele>
        <time>2018-01-05T10:34:27Z</time>
      </trkpt>
      <trkpt lat="46.05932" lon="4.70846">
        <ele>194</ele>
        <time>2018-01-05T10:34:28Z</time>
      </trkpt>
      <trkpt lat="46.05933" lon="4.70853">
        <ele>194</ele>
        <time>2018-01-05T10:34:29Z</time>
      </trkpt>
      <trkpt lat="46.05933" lon="4.70861">
        <ele>194</ele>
        <time>2018-01-05T10:34:30Z</time>
      </trkpt>
      <trkpt lat="46.05934" lon="4.70869">
        <ele>194</ele>
        <time>2018-01-05T10:34:31Z</time>
      </trkpt>
      <trkpt lat="46.05935" lon="4.70877">
        <ele>194</ele>
        <time>2018-01-05T10:34:32Z</time>
      </trkpt>
      <trkpt lat="46.05936" lon="4.70885">
        <ele>194</ele>
        <time>2018-01-05T10:34:33Z</time>
      </trkpt>
      <trkpt lat="46.05936" lon="4.70894">
        <ele>194</ele>
        <time>2018-01-05T10:34:34Z</time>
      </trkpt>
      <trkpt lat="46.05937" lon="4.70904">
        <ele>194</ele>
        <time>2018-01-05T10:34:35Z</time>
      </trkpt>
      <trkpt lat="46.05939" lon="4.70913">
        <ele>194</ele>
        <time>2018-01-05T10:34:36Z</time>
      </trkpt>
      <trkpt lat="46.0594" lon="4.70922">
        <ele>194</ele>
        <time>2018-01-05T10:34:37Z</time>
      </trkpt>
      <trkpt lat="46.05941" lon="4.7093">
        <ele>194</ele>
        <time>2018-01-05T10:34:38Z</time>
      </trkpt>
      <trkpt lat="46.05943" lon="4.70938">
        <ele>193</ele>
        <time>2018-01-05T10:34:39Z</time>
      </trkpt>
      <trkpt lat="46.05945" lon="4.70945">
        <ele>193</ele>
        <time>2018-01-05T10:34:40Z</time>
      </trkpt>
      <trkpt lat="46.05947" lon="4.70952">
        <ele>193</ele>
        <time>2018-01-05T10:34:41Z</time>
      </trkpt>
      <trkpt lat="46.05948" lon="4.70958">
        <ele>193</ele>
        <time>2018-01-05T10:34:42Z</time>
      </trkpt>
      <trkpt lat="46.05949" lon="4.70966">
        <ele>193</ele>
        <time>2018-01-05T10:34:43Z</time>
      </trkpt>
      <trkpt lat="46.05951" lon="4.70972">
        <ele>193</ele>
        <time>2018-01-05T10:34:44Z</time>
      </trkpt>
      <trkpt lat="46.05954" lon="4.70979">
        <ele>193</ele>
        <time>2018-01-05T10:34:45Z</time>
      </trkpt>
      <trkpt lat="46.05956" lon="4.70987">
        <ele>193</ele>
        <time>2018-01-05T10:34:46Z</time>
      </trkpt>
      <trkpt lat="46.05957" lon="4.70995">
        <ele>193</ele>
        <time>2018-01-05T10:34:47Z</time>
      </trkpt>
      <trkpt lat="46.05961" lon="4.71002">
        <ele>193</ele>
        <time>2018-01-05T10:34:48Z</time>
      </trkpt>
      <trkpt lat="46.05965" lon="4.71013">
        <ele>193</ele>
        <time>2018-01-05T10:34:49Z</time>
      </trkpt>
      <trkpt lat="46.05968" lon="4.71022">
        <ele>193</ele>
        <time>2018-01-05T10:34:50Z</time>
      </trkpt>
      <trkpt lat="46.05971" lon="4.7103">
        <ele>193</ele>
        <time>2018-01-05T10:34:51Z</time>
      </trkpt>
      <trkpt lat="46.05975" lon="4.71039">
        <ele>192</ele>
        <time>2018-01-05T10:34:52Z</time>
      </trkpt>
      <trkpt lat="46.05979" lon="4.71048">
        <ele>193</ele>
        <time>2018-01-05T10:34:53Z</time>
      </trkpt>
      <trkpt lat="46.05981" lon="4.71056">
        <ele>193</ele>
        <time>2018-01-05T10:34:54Z</time>
      </trkpt>
      <trkpt lat="46.05984" lon="4.71062">
        <ele>193</ele>
        <time>2018-01-05T10:34:55Z</time>
      </trkpt>
      <trkpt lat="46.05986" lon="4.71068">
        <ele>193</ele>
        <time>2018-01-05T10:34:56Z</time>
      </trkpt>
      <trkpt lat="46.05989" lon="4.71075">
        <ele>193</ele>
        <time>2018-01-05T10:34:57Z</time>
      </trkpt>
      <trkpt lat="46.05992" lon="4.71081">
        <ele>193</ele>
        <time>2018-01-05T10:34:58Z</time>
      </trkpt>
      <trkpt lat="46.05995" lon="4.71087">
        <ele>193</ele>
        <time>2018-01-05T10:34:59Z</time>
      </trkpt>
      <trkpt lat="46.05997" lon="4.71094">
        <ele>193</ele>
        <time>2018-01-05T10:35:00Z</time>
      </trkpt>
      <trkpt lat="46.06" lon="4.711">
        <ele>193</ele>
        <time>2018-01-05T10:35:01Z</time>
      </trkpt>
      <trkpt lat="46.06003" lon="4.71107">
        <ele>193</ele>
        <time>2018-01-05T10:35:02Z</time>
      </trkpt>
      <trkpt lat="46.06007" lon="4.71113">
        <ele>193</ele>
        <time>2018-01-05T10:35:03Z</time>
      </trkpt>
      <trkpt lat="46.0601" lon="4.71119">
        <ele>193</ele>
        <time>2018-01-05T10:35:04Z</time>
      </trkpt>
      <trkpt lat="46.06012" lon="4.71127">
        <ele>193</ele>
        <time>2018-01-05T10:35:05Z</time>
      </trkpt>
      <trkpt lat="46.06015" lon="4.71134">
        <ele>193</ele>
        <time>2018-01-05T10:35:06Z</time>
      </trkpt>
      <trkpt lat="46.06017" lon="4.71142">
        <ele>193</ele>
        <time>2018-01-05T10:35:07Z</time>
      </trkpt>
      <trkpt lat="46.06019" lon="4.7115">
        <ele>193</ele>
        <time>2018-01-05T10:35:08Z</time>
      </trkpt>
      <trkpt lat="46.06021" lon="4.71158">
        <ele>194</ele>
        <time>2018-01-05T10:35:09Z</time>
      </trkpt>
      <trkpt lat="46.06025" lon="4.71167">
        <ele>194</ele>
        <time>2018-01-05T10:35:10Z</time>
      </trkpt>
      <trkpt lat="46.06028" lon="4.71174">
        <ele>193</ele>
        <time>2018-01-05T10:35:11Z</time>
      </trkpt>
      <trkpt lat="46.06031" lon="4.71181">
        <ele>193</ele>
        <time>2018-01-05T10:35:12Z</time>
      </trkpt>
      <trkpt lat="46.06033" lon="4.71188">
        <ele>193</ele>
        <time>2018-01-05T10:35:13Z</time>
      </trkpt>
      <trkpt lat="46.06036" lon="4.71195">
        <ele>193</ele>
        <time>2018-01-05T10:35:14Z</time>
      </trkpt>
      <trkpt lat="46.06038" lon="4.71203">
        <ele>193</ele>
        <time>2018-01-05T10:35:15Z</time>
      </trkpt>
      <trkpt lat="46.06041" lon="4.7121">
        <ele>193</ele>
        <time>2018-01-05T10:35:16Z</time>
      </trkpt>
      <trkpt lat="46.06043" lon="4.71216">
        <ele>193</ele>
        <time>2018-01-05T10:35:17Z</time>
      </trkpt>
      <trkpt lat="46.06046" lon="4.71223">
        <ele>193</ele>
        <time>2018-01-05T10:35:18Z</time>
      </trkpt>
      <trkpt lat="46.06048" lon="4.7123">
        <ele>193</ele>
        <time>2018-01-05T10:35:19Z</time>
      </trkpt>
      <trkpt lat="46.06052" lon="4.71237">
        <ele>193</ele>
        <time>2018-01-05T10:35:20Z</time>
      </trkpt>
      <trkpt lat="46.06054" lon="4.71244">
        <ele>193</ele>
        <time>2018-01-05T10:35:21Z</time>
      </trkpt>
      <trkpt lat="46.06057" lon="4.71251">
        <ele>193</ele>
        <time>2018-01-05T10:35:22Z</time>
      </trkpt>
      <trkpt lat="46.06058" lon="4.71257">
        <ele>193</ele>
        <time>2018-01-05T10:35:23Z</time>
      </trkpt>
      <trkpt lat="46.0606" lon="4.71264">
        <ele>193</ele>
        <time>2018-01-05T10:35:24Z</time>
      </trkpt>
      <trkpt lat="46.06062" lon="4.7127">
        <ele>193</ele>
        <time>2018-01-05T10:35:25Z</time>
      </trkpt>
      <trkpt lat="46.06064" lon="4.71276">
        <ele>193</ele>
        <time>2018-01-05T10:35:26Z</time>
      </trkpt>
      <trkpt lat="46.06066" lon="4.71282">
        <ele>193</ele>
        <time>2018-01-05T10:35:27Z</time>
      </trkpt>
      <trkpt lat="46.06068" lon="4.7129">
        <ele>193</ele>
        <time>2018-01-05T10:35:28Z</time>
      </trkpt>
      <trkpt lat="46.0607" lon="4.71297">
        <ele>193</ele>
        <time>2018-01-05T10:35:29Z</time>
      </trkpt>
      <trkpt lat="46.06072" lon="4.71303">
        <ele>193</ele>
        <time>2018-01-05T10:35:30Z</time>
      </trkpt>
      <trkpt lat="46.06074" lon="4.71308">
        <ele>193</ele>
        <time>2018-01-05T10:35:31Z</time>
      </trkpt>
      <trkpt lat="46.06077" lon="4.71314">
        <ele>193</ele>
        <time>2018-01-05T10:35:32Z</time>
      </trkpt>
      <trkpt lat="46.06079" lon="4.7132">
        <ele>193</ele>
        <time>2018-01-05T10:35:33Z</time>
      </trkpt>
      <trkpt lat="46.06081" lon="4.71326">
        <ele>193</ele>
        <time>2018-01-05T10:35:34Z</time>
      </trkpt>
      <trkpt lat="46.06085" lon="4.71337">
        <ele>193</ele>
        <time>2018-01-05T10:35:36Z</time>
      </trkpt>
      <trkpt lat="46.06086" lon="4.71343">
        <ele>193</ele>
        <time>2018-01-05T10:35:37Z</time>
      </trkpt>
      <trkpt lat="46.06089" lon="4.71349">
        <ele>193</ele>
        <time>2018-01-05T10:35:38Z</time>
      </trkpt>
      <trkpt lat="46.06091" lon="4.71356">
        <ele>193</ele>
        <time>2018-01-05T10:35:39Z</time>
      </trkpt>
      <trkpt lat="46.06093" lon="4.71363">
        <ele>193</ele>
        <time>2018-01-05T10:35:40Z</time>
      </trkpt>
      <trkpt lat="46.06095" lon="4.7137">
        <ele>193</ele>
        <time>2018-01-05T10:35:41Z</time>
      </trkpt>
      <trkpt lat="46.06098" lon="4.71377">
        <ele>193</ele>
        <time>2018-01-05T10:35:42Z</time>
      </trkpt>
      <trkpt lat="46.06099" lon="4.71383">
        <ele>193</ele>
        <time>2018-01-05T10:35:43Z</time>
      </trkpt>
      <trkpt lat="46.06102" lon="4.71389">
        <ele>193</ele>
        <time>2018-01-05T10:35:44Z</time>
      </trkpt>
      <trkpt lat="46.06104" lon="4.71395">
        <ele>193</ele>
        <time>2018-01-05T10:35:45Z</time>
      </trkpt>
      <trkpt lat="46.06107" lon="4.71407">
        <ele>193</ele>
        <time>2018-01-05T10:35:47Z</time>
      </trkpt>
      <trkpt lat="46.06109" lon="4.71414">
        <ele>193</ele>
        <time>2018-01-05T10:35:48Z</time>
      </trkpt>
      <trkpt lat="46.06111" lon="4.71422">
        <ele>193</ele>
        <time>2018-01-05T10:35:49Z</time>
      </trkpt>
      <trkpt lat="46.06113" lon="4.71429">
        <ele>193</ele>
        <time>2018-01-05T10:35:50Z</time>
      </trkpt>
      <trkpt lat="46.06113" lon="4.71437">
        <ele>193</ele>
        <time>2018-01-05T10:35:51Z</time>
      </trkpt>
      <trkpt lat="46.06116" lon="4.71444">
        <ele>193</ele>
        <time>2018-01-05T10:35:52Z</time>
      </trkpt>
      <trkpt lat="46.06119" lon="4.71454">
        <ele>193</ele>
        <time>2018-01-05T10:35:53Z</time>
      </trkpt>
      <trkpt lat="46.06121" lon="4.71463">
        <ele>193</ele>
        <time>2018-01-05T10:35:54Z</time>
      </trkpt>
      <trkpt lat="46.06124" lon="4.7147">
        <ele>193</ele>
        <time>2018-01-05T10:35:55Z</time>
      </trkpt>
      <trkpt lat="46.06126" lon="4.71478">
        <ele>192</ele>
        <time>2018-01-05T10:35:56Z</time>
      </trkpt>
      <trkpt lat="46.06128" lon="4.71487">
        <ele>192</ele>
        <time>2018-01-05T10:35:57Z</time>
      </trkpt>
      <trkpt lat="46.06131" lon="4.71495">
        <ele>192</ele>
        <time>2018-01-05T10:35:58Z</time>
      </trkpt>
      <trkpt lat="46.06134" lon="4.71502">
        <ele>192</ele>
        <time>2018-01-05T10:35:59Z</time>
      </trkpt>
      <trkpt lat="46.06137" lon="4.7151">
        <ele>192</ele>
        <time>2018-01-05T10:36:00Z</time>
      </trkpt>
      <trkpt lat="46.0614" lon="4.71517">
        <ele>192</ele>
        <time>2018-01-05T10:36:01Z</time>
      </trkpt>
      <trkpt lat="46.06144" lon="4.71524">
        <ele>192</ele>
        <time>2018-01-05T10:36:02Z</time>
      </trkpt>
      <trkpt lat="46.06148" lon="4.71531">
        <ele>192</ele>
        <time>2018-01-05T10:36:03Z</time>
      </trkpt>
      <trkpt lat="46.06151" lon="4.71536">
        <ele>192</ele>
        <time>2018-01-05T10:36:04Z</time>
      </trkpt>
      <trkpt lat="46.06154" lon="4.71543">
        <ele>192</ele>
        <time>2018-01-05T10:36:05Z</time>
      </trkpt>
      <trkpt lat="46.06158" lon="4.71548">
        <ele>192</ele>
        <time>2018-01-05T10:36:06Z</time>
      </trkpt>
      <trkpt lat="46.06162" lon="4.71552">
        <ele>192</ele>
        <time>2018-01-05T10:36:07Z</time>
      </trkpt>
      <trkpt lat="46.06166" lon="4.71558">
        <ele>192</ele>
        <time>2018-01-05T10:36:08Z</time>
      </trkpt>
      <trkpt lat="46.0617" lon="4.71564">
        <ele>191</ele>
        <time>2018-01-05T10:36:09Z</time>
      </trkpt>
      <trkpt lat="46.06174" lon="4.7157">
        <ele>191</ele>
        <time>2018-01-05T10:36:10Z</time>
      </trkpt>
      <trkpt lat="46.06179" lon="4.71576">
        <ele>191</ele>
        <time>2018-01-05T10:36:11Z</time>
      </trkpt>
      <trkpt lat="46.06183" lon="4.71582">
        <ele>191</ele>
        <time>2018-01-05T10:36:12Z</time>
      </trkpt>
      <trkpt lat="46.06186" lon="4.71588">
        <ele>191</ele>
        <time>2018-01-05T10:36:13Z</time>
      </trkpt>
      <trkpt lat="46.06191" lon="4.71595">
        <ele>191</ele>
        <time>2018-01-05T10:36:14Z</time>
      </trkpt>
      <trkpt lat="46.06194" lon="4.716">
        <ele>191</ele>
        <time>2018-01-05T10:36:15Z</time>
      </trkpt>
      <trkpt lat="46.06198" lon="4.71607">
        <ele>191</ele>
        <time>2018-01-05T10:36:16Z</time>
      </trkpt>
      <trkpt lat="46.06202" lon="4.71613">
        <ele>191</ele>
        <time>2018-01-05T10:36:17Z</time>
      </trkpt>
      <trkpt lat="46.06206" lon="4.71618">
        <ele>191</ele>
        <time>2018-01-05T10:36:18Z</time>
      </trkpt>
      <trkpt lat="46.0621" lon="4.71624">
        <ele>191</ele>
        <time>2018-01-05T10:36:19Z</time>
      </trkpt>
      <trkpt lat="46.06214" lon="4.7163">
        <ele>191</ele>
        <time>2018-01-05T10:36:20Z</time>
      </trkpt>
      <trkpt lat="46.06217" lon="4.71634">
        <ele>191</ele>
        <time>2018-01-05T10:36:21Z</time>
      </trkpt>
      <trkpt lat="46.06221" lon="4.7164">
        <ele>191</ele>
        <time>2018-01-05T10:36:22Z</time>
      </trkpt>
      <trkpt lat="46.06223" lon="4.71645">
        <ele>191</ele>
        <time>2018-01-05T10:36:23Z</time>
      </trkpt>
      <trkpt lat="46.06226" lon="4.71651">
        <ele>191</ele>
        <time>2018-01-05T10:36:24Z</time>
      </trkpt>
      <trkpt lat="46.0623" lon="4.71656">
        <ele>191</ele>
        <time>2018-01-05T10:36:25Z</time>
      </trkpt>
      <trkpt lat="46.06234" lon="4.71662">
        <ele>191</ele>
        <time>2018-01-05T10:36:26Z</time>
      </trkpt>
      <trkpt lat="46.06237" lon="4.71668">
        <ele>191</ele>
        <time>2018-01-05T10:36:27Z</time>
      </trkpt>
      <trkpt lat="46.06241" lon="4.71675">
        <ele>191</ele>
        <time>2018-01-05T10:36:28Z</time>
      </trkpt>
      <trkpt lat="46.06244" lon="4.71681">
        <ele>191</ele>
        <time>2018-01-05T10:36:29Z</time>
      </trkpt>
      <trkpt lat="46.06247" lon="4.71688">
        <ele>191</ele>
        <time>2018-01-05T10:36:30Z</time>
      </trkpt>
      <trkpt lat="46.06249" lon="4.71695">
        <ele>191</ele>
        <time>2018-01-05T10:36:31Z</time>
      </trkpt>
      <trkpt lat="46.06252" lon="4.71702">
        <ele>190</ele>
        <time>2018-01-05T10:36:32Z</time>
      </trkpt>
      <trkpt lat="46.06254" lon="4.71709">
        <ele>190</ele>
        <time>2018-01-05T10:36:33Z</time>
      </trkpt>
      <trkpt lat="46.06257" lon="4.71715">
        <ele>190</ele>
        <time>2018-01-05T10:36:34Z</time>
      </trkpt>
      <trkpt lat="46.06259" lon="4.71722">
        <ele>190</ele>
        <time>2018-01-05T10:36:35Z</time>
      </trkpt>
      <trkpt lat="46.06262" lon="4.71729">
        <ele>190</ele>
        <time>2018-01-05T10:36:36Z</time>
      </trkpt>
      <trkpt lat="46.06265" lon="4.71737">
        <ele>190</ele>
        <time>2018-01-05T10:36:37Z</time>
      </trkpt>
      <trkpt lat="46.06268" lon="4.71745">
        <ele>190</ele>
        <time>2018-01-05T10:36:38Z</time>
      </trkpt>
      <trkpt lat="46.0627" lon="4.71752">
        <ele>190</ele>
        <time>2018-01-05T10:36:39Z</time>
      </trkpt>
      <trkpt lat="46.06273" lon="4.7176">
        <ele>190</ele>
        <time>2018-01-05T10:36:40Z</time>
      </trkpt>
      <trkpt lat="46.06274" lon="4.71768">
        <ele>190</ele>
        <time>2018-01-05T10:36:41Z</time>
      </trkpt>
      <trkpt lat="46.06277" lon="4.71776">
        <ele>190</ele>
        <time>2018-01-05T10:36:42Z</time>
      </trkpt>
      <trkpt lat="46.06279" lon="4.71784">
        <ele>190</ele>
        <time>2018-01-05T10:36:43Z</time>
      </trkpt>
      <trkpt lat="46.06282" lon="4.71792">
        <ele>190</ele>
        <time>2018-01-05T10:36:44Z</time>
      </trkpt>
      <trkpt lat="46.06284" lon="4.71799">
        <ele>190</ele>
        <time>2018-01-05T10:36:45Z</time>
      </trkpt>
      <trkpt lat="46.06286" lon="4.71807">
        <ele>189</ele>
        <time>2018-01-05T10:36:46Z</time>
      </trkpt>
      <trkpt lat="46.06288" lon="4.71815">
        <ele>189</ele>
        <time>2018-01-05T10:36:47Z</time>
      </trkpt>
      <trkpt lat="46.06291" lon="4.71823">
        <ele>189</ele>
        <time>2018-01-05T10:36:48Z</time>
      </trkpt>
      <trkpt lat="46.06292" lon="4.71831">
        <ele>189</ele>
        <time>2018-01-05T10:36:49Z</time>
      </trkpt>
      <trkpt lat="46.06295" lon="4.71838">
        <ele>189</ele>
        <time>2018-01-05T10:36:50Z</time>
      </trkpt>
      <trkpt lat="46.06298" lon="4.71846">
        <ele>189</ele>
        <time>2018-01-05T10:36:51Z</time>
      </trkpt>
      <trkpt lat="46.06301" lon="4.71854">
        <ele>189</ele>
        <time>2018-01-05T10:36:52Z</time>
      </trkpt>
      <trkpt lat="46.06301" lon="4.71864">
        <ele>189</ele>
        <time>2018-01-05T10:36:53Z</time>
      </trkpt>
      <trkpt lat="46.06302" lon="4.71874">
        <ele>189</ele>
        <time>2018-01-05T10:36:54Z</time>
      </trkpt>
      <trkpt lat="46.06304" lon="4.71882">
        <ele>189</ele>
        <time>2018-01-05T10:36:55Z</time>
      </trkpt>
      <trkpt lat="46.06306" lon="4.71892">
        <ele>189</ele>
        <time>2018-01-05T10:36:56Z</time>
      </trkpt>
      <trkpt lat="46.06309" lon="4.71902">
        <ele>189</ele>
        <time>2018-01-05T10:36:57Z</time>
      </trkpt>
      <trkpt lat="46.06309" lon="4.71911">
        <ele>189</ele>
        <time>2018-01-05T10:36:58Z</time>
      </trkpt>
      <trkpt lat="46.06312" lon="4.71918">
        <ele>190</ele>
        <time>2018-01-05T10:36:59Z</time>
      </trkpt>
      <trkpt lat="46.06314" lon="4.71924">
        <ele>190</ele>
        <time>2018-01-05T10:37:00Z</time>
      </trkpt>
      <trkpt lat="46.06316" lon="4.71931">
        <ele>190</ele>
        <time>2018-01-05T10:37:01Z</time>
      </trkpt>
      <trkpt lat="46.06317" lon="4.71937">
        <ele>190</ele>
        <time>2018-01-05T10:37:02Z</time>
      </trkpt>
      <trkpt lat="46.06321" lon="4.71948">
        <ele>190</ele>
        <time>2018-01-05T10:37:04Z</time>
      </trkpt>
      <trkpt lat="46.06323" lon="4.71953">
        <ele>190</ele>
        <time>2018-01-05T10:37:05Z</time>
      </trkpt>
      <trkpt lat="46.06325" lon="4.71965">
        <ele>190</ele>
        <time>2018-01-05T10:37:07Z</time>
      </trkpt>
      <trkpt lat="46.06326" lon="4.71971">
        <ele>190</ele>
        <time>2018-01-05T10:37:08Z</time>
      </trkpt>
      <trkpt lat="46.06329" lon="4.71982">
        <ele>190</ele>
        <time>2018-01-05T10:37:10Z</time>
      </trkpt>
      <trkpt lat="46.0633" lon="4.71988">
        <ele>189</ele>
        <time>2018-01-05T10:37:11Z</time>
      </trkpt>
      <trkpt lat="46.06332" lon="4.71995">
        <ele>189</ele>
        <time>2018-01-05T10:37:12Z</time>
      </trkpt>
      <trkpt lat="46.06335" lon="4.72001">
        <ele>189</ele>
        <time>2018-01-05T10:37:13Z</time>
      </trkpt>
      <trkpt lat="46.06337" lon="4.72008">
        <ele>189</ele>
        <time>2018-01-05T10:37:14Z</time>
      </trkpt>
      <trkpt lat="46.06339" lon="4.72015">
        <ele>189</ele>
        <time>2018-01-05T10:37:15Z</time>
      </trkpt>
      <trkpt lat="46.0634" lon="4.72021">
        <ele>189</ele>
        <time>2018-01-05T10:37:16Z</time>
      </trkpt>
      <trkpt lat="46.06342" lon="4.72027">
        <ele>189</ele>
        <time>2018-01-05T10:37:17Z</time>
      </trkpt>
      <trkpt lat="46.06345" lon="4.72034">
        <ele>189</ele>
        <time>2018-01-05T10:37:18Z</time>
      </trkpt>
      <trkpt lat="46.06346" lon="4.72039">
        <ele>189</ele>
        <time>2018-01-05T10:37:19Z</time>
      </trkpt>
      <trkpt lat="46.06348" lon="4.72046">
        <ele>189</ele>
        <time>2018-01-05T10:37:20Z</time>
      </trkpt>
      <trkpt lat="46.06348" lon="4.72054">
        <ele>189</ele>
        <time>2018-01-05T10:37:21Z</time>
      </trkpt>
      <trkpt lat="46.06352" lon="4.7206">
        <ele>189</ele>
        <time>2018-01-05T10:37:22Z</time>
      </trkpt>
      <trkpt lat="46.06353" lon="4.72066">
        <ele>189</ele>
        <time>2018-01-05T10:37:23Z</time>
      </trkpt>
      <trkpt lat="46.06353" lon="4.72072">
        <ele>189</ele>
        <time>2018-01-05T10:37:24Z</time>
      </trkpt>
      <trkpt lat="46.06355" lon="4.72079">
        <ele>189</ele>
        <time>2018-01-05T10:37:25Z</time>
      </trkpt>
      <trkpt lat="46.06356" lon="4.72085">
        <ele>189</ele>
        <time>2018-01-05T10:37:26Z</time>
      </trkpt>
      <trkpt lat="46.06358" lon="4.72091">
        <ele>189</ele>
        <time>2018-01-05T10:37:27Z</time>
      </trkpt>
      <trkpt lat="46.06363" lon="4.721">
        <ele>189</ele>
        <time>2018-01-05T10:37:28Z</time>
      </trkpt>
      <trkpt lat="46.06366" lon="4.72107">
        <ele>189</ele>
        <time>2018-01-05T10:37:29Z</time>
      </trkpt>
      <trkpt lat="46.06368" lon="4.72116">
        <ele>189</ele>
        <time>2018-01-05T10:37:30Z</time>
      </trkpt>
      <trkpt lat="46.06371" lon="4.72123">
        <ele>189</ele>
        <time>2018-01-05T10:37:31Z</time>
      </trkpt>
      <trkpt lat="46.06373" lon="4.7213">
        <ele>189</ele>
        <time>2018-01-05T10:37:32Z</time>
      </trkpt>
      <trkpt lat="46.06376" lon="4.72137">
        <ele>189</ele>
        <time>2018-01-05T10:37:33Z</time>
      </trkpt>
      <trkpt lat="46.06378" lon="4.72143">
        <ele>189</ele>
        <time>2018-01-05T10:37:34Z</time>
      </trkpt>
      <trkpt lat="46.0638" lon="4.72149">
        <ele>189</ele>
        <time>2018-01-05T10:37:35Z</time>
      </trkpt>
      <trkpt lat="46.06384" lon="4.7216">
        <ele>189</ele>
        <time>2018-01-05T10:37:37Z</time>
      </trkpt>
      <trkpt lat="46.06386" lon="4.72166">
        <ele>188</ele>
        <time>2018-01-05T10:37:38Z</time>
      </trkpt>
      <trkpt lat="46.06388" lon="4.72172">
        <ele>189</ele>
        <time>2018-01-05T10:37:39Z</time>
      </trkpt>
      <trkpt lat="46.0639" lon="4.72178">
        <ele>189</ele>
        <time>2018-01-05T10:37:40Z</time>
      </trkpt>
      <trkpt lat="46.06392" lon="4.72184">
        <ele>189</ele>
        <time>2018-01-05T10:37:41Z</time>
      </trkpt>
      <trkpt lat="46.06394" lon="4.72189">
        <ele>189</ele>
        <time>2018-01-05T10:37:42Z</time>
      </trkpt>
      <trkpt lat="46.06398" lon="4.72198">
        <ele>189</ele>
        <time>2018-01-05T10:37:44Z</time>
      </trkpt>
      <trkpt lat="46.064" lon="4.72203">
        <ele>190</ele>
        <time>2018-01-05T10:37:45Z</time>
      </trkpt>
      <trkpt lat="46.06403" lon="4.72212">
        <ele>190</ele>
        <time>2018-01-05T10:37:47Z</time>
      </trkpt>
      <trkpt lat="46.06404" lon="4.72216">
        <ele>190</ele>
        <time>2018-01-05T10:37:48Z</time>
      </trkpt>
      <trkpt lat="46.06406" lon="4.72225">
        <ele>190</ele>
        <time>2018-01-05T10:37:50Z</time>
      </trkpt>
      <trkpt lat="46.06407" lon="4.72229">
        <ele>190</ele>
        <time>2018-01-05T10:37:51Z</time>
      </trkpt>
      <trkpt lat="46.06409" lon="4.72238">
        <ele>190</ele>
        <time>2018-01-05T10:37:53Z</time>
      </trkpt>
      <trkpt lat="46.06411" lon="4.72242">
        <ele>189</ele>
        <time>2018-01-05T10:37:54Z</time>
      </trkpt>
      <trkpt lat="46.06414" lon="4.72252">
        <ele>190</ele>
        <time>2018-01-05T10:37:57Z</time>
      </trkpt>
      <trkpt lat="46.06414" lon="4.72255">
        <ele>190</ele>
        <time>2018-01-05T10:37:58Z</time>
      </trkpt>
      <trkpt lat="46.06414" lon="4.72268">
        <ele>191</ele>
        <time>2018-01-05T10:38:01Z</time>
      </trkpt>
      <trkpt lat="46.06414" lon="4.72272">
        <ele>191</ele>
        <time>2018-01-05T10:38:02Z</time>
      </trkpt>
      <trkpt lat="46.06417" lon="4.72281">
        <ele>192</ele>
        <time>2018-01-05T10:38:04Z</time>
      </trkpt>
      <trkpt lat="46.0642" lon="4.72284">
        <ele>190</ele>
        <time>2018-01-05T10:38:05Z</time>
      </trkpt>
      <trkpt lat="46.06425" lon="4.72283">
        <ele>190</ele>
        <time>2018-01-05T10:38:06Z</time>
      </trkpt>
      <trkpt lat="46.0643" lon="4.72284">
        <ele>190</ele>
        <time>2018-01-05T10:38:07Z</time>
      </trkpt>
      <trkpt lat="46.06434" lon="4.72284">
        <ele>190</ele>
        <time>2018-01-05T10:38:08Z</time>
      </trkpt>
      <trkpt lat="46.0644" lon="4.72287">
        <ele>190</ele>
        <time>2018-01-05T10:38:09Z</time>
      </trkpt>
      <trkpt lat="46.06445" lon="4.7229">
        <ele>190</ele>
        <time>2018-01-05T10:38:10Z</time>
      </trkpt>
      <trkpt lat="46.06447" lon="4.72295">
        <ele>190</ele>
        <time>2018-01-05T10:38:11Z</time>
      </trkpt>
      <trkpt lat="46.0645" lon="4.723">
        <ele>190</ele>
        <time>2018-01-05T10:38:12Z</time>
      </trkpt>
      <trkpt lat="46.06451" lon="4.72307">
        <ele>191</ele>
        <time>2018-01-05T10:38:13Z</time>
      </trkpt>
      <trkpt lat="46.0645" lon="4.72318">
        <ele>191</ele>
        <time>2018-01-05T10:38:15Z</time>
      </trkpt>
      <trkpt lat="46.06448" lon="4.72322">
        <ele>191</ele>
        <time>2018-01-05T10:38:16Z</time>
      </trkpt>
      <trkpt lat="46.06446" lon="4.72332">
        <ele>191</ele>
        <time>2018-01-05T10:38:19Z</time>
      </trkpt>
      <trkpt lat="46.06445" lon="4.72335">
        <ele>194</ele>
        <time>2018-01-05T10:38:20Z</time>
      </trkpt>
      <trkpt lat="46.06443" lon="4.72345">
        <ele>194</ele>
        <time>2018-01-05T10:38:23Z</time>
      </trkpt>
      <trkpt lat="46.06442" lon="4.72348">
        <ele>194</ele>
        <time>2018-01-05T10:38:24Z</time>
      </trkpt>
      <trkpt lat="46.06438" lon="4.72358">
        <ele>194</ele>
        <time>2018-01-05T10:38:27Z</time>
      </trkpt>
      <trkpt lat="46.06436" lon="4.72364">
        <ele>194</ele>
        <time>2018-01-05T10:38:28Z</time>
      </trkpt>
      <trkpt lat="46.06433" lon="4.72375">
        <ele>195</ele>
        <time>2018-01-05T10:38:30Z</time>
      </trkpt>
      <trkpt lat="46.06432" lon="4.7238">
        <ele>195</ele>
        <time>2018-01-05T10:38:31Z</time>
      </trkpt>
      <trkpt lat="46.0643" lon="4.72388">
        <ele>195</ele>
        <time>2018-01-05T10:38:33Z</time>
      </trkpt>
      <trkpt lat="46.06428" lon="4.72393">
        <ele>195</ele>
        <time>2018-01-05T10:38:34Z</time>
      </trkpt>
      <trkpt lat="46.06426" lon="4.72402">
        <ele>195</ele>
        <time>2018-01-05T10:38:36Z</time>
      </trkpt>
      <trkpt lat="46.06425" lon="4.72406">
        <ele>195</ele>
        <time>2018-01-05T10:38:37Z</time>
      </trkpt>
      <trkpt lat="46.06423" lon="4.72415">
        <ele>196</ele>
        <time>2018-01-05T10:38:39Z</time>
      </trkpt>
      <trkpt lat="46.06422" lon="4.7242">
        <ele>196</ele>
        <time>2018-01-05T10:38:40Z</time>
      </trkpt>
      <trkpt lat="46.06419" lon="4.72428">
        <ele>196</ele>
        <time>2018-01-05T10:38:42Z</time>
      </trkpt>
      <trkpt lat="46.06418" lon="4.72432">
        <ele>196</ele>
        <time>2018-01-05T10:38:43Z</time>
      </trkpt>
      <trkpt lat="46.06414" lon="4.72442">
        <ele>197</ele>
        <time>2018-01-05T10:38:46Z</time>
      </trkpt>
      <trkpt lat="46.06413" lon="4.72444">
        <ele>197</ele>
        <time>2018-01-05T10:38:47Z</time>
      </trkpt>
      <trkpt lat="46.06408" lon="4.72453">
        <ele>197</ele>
        <time>2018-01-05T10:38:53Z</time>
      </trkpt>
      <trkpt lat="46.06406" lon="4.72455">
        <ele>197</ele>
        <time>2018-01-05T10:38:54Z</time>
      </trkpt>
      <trkpt lat="46.06401" lon="4.72466">
        <ele>197</ele>
        <time>2018-01-05T10:38:59Z</time>
      </trkpt>
      <trkpt lat="46.064" lon="4.72471">
        <ele>198</ele>
        <time>2018-01-05T10:39:00Z</time>
      </trkpt>
      <trkpt lat="46.06404" lon="4.72482">
        <ele>198</ele>
        <time>2018-01-05T10:39:02Z</time>
      </trkpt>
      <trkpt lat="46.06406" lon="4.72491">
        <ele>199</ele>
        <time>2018-01-05T10:39:03Z</time>
      </trkpt>
      <trkpt lat="46.06409" lon="4.72497">
        <ele>199</ele>
        <time>2018-01-05T10:39:04Z</time>
      </trkpt>
      <trkpt lat="46.06411" lon="4.72504">
        <ele>199</ele>
        <time>2018-01-05T10:39:05Z</time>
      </trkpt>
      <trkpt lat="46.06412" lon="4.72511">
        <ele>198</ele>
        <time>2018-01-05T10:39:06Z</time>
      </trkpt>
      <trkpt lat="46.06413" lon="4.72518">
        <ele>198</ele>
        <time>2018-01-05T10:39:07Z</time>
      </trkpt>
      <trkpt lat="46.06413" lon="4.7253">
        <ele>197</ele>
        <time>2018-01-05T10:39:08Z</time>
      </trkpt>
      <trkpt lat="46.06414" lon="4.72538">
        <ele>197</ele>
        <time>2018-01-05T10:39:09Z</time>
      </trkpt>
      <trkpt lat="46.06414" lon="4.72547">
        <ele>196</ele>
        <time>2018-01-05T10:39:10Z</time>
      </trkpt>
      <trkpt lat="46.06416" lon="4.72555">
        <ele>196</ele>
        <time>2018-01-05T10:39:11Z</time>
      </trkpt>
      <trkpt lat="46.06416" lon="4.72565">
        <ele>196</ele>
        <time>2018-01-05T10:39:12Z</time>
      </trkpt>
      <trkpt lat="46.06417" lon="4.72573">
        <ele>195</ele>
        <time>2018-01-05T10:39:13Z</time>
      </trkpt>
      <trkpt lat="46.06419" lon="4.72582">
        <ele>195</ele>
        <time>2018-01-05T10:39:14Z</time>
      </trkpt>
      <trkpt lat="46.06422" lon="4.72592">
        <ele>194</ele>
        <time>2018-01-05T10:39:15Z</time>
      </trkpt>
      <trkpt lat="46.06424" lon="4.72601">
        <ele>194</ele>
        <time>2018-01-05T10:39:16Z</time>
      </trkpt>
      <trkpt lat="46.06426" lon="4.72609">
        <ele>193</ele>
        <time>2018-01-05T10:39:17Z</time>
      </trkpt>
      <trkpt lat="46.06426" lon="4.72616">
        <ele>193</ele>
        <time>2018-01-05T10:39:18Z</time>
      </trkpt>
      <trkpt lat="46.06428" lon="4.72624">
        <ele>193</ele>
        <time>2018-01-05T10:39:19Z</time>
      </trkpt>
      <trkpt lat="46.0643" lon="4.72638">
        <ele>192</ele>
        <time>2018-01-05T10:39:20Z</time>
      </trkpt>
      <trkpt lat="46.06432" lon="4.72646">
        <ele>192</ele>
        <time>2018-01-05T10:39:21Z</time>
      </trkpt>
      <trkpt lat="46.06433" lon="4.72657">
        <ele>192</ele>
        <time>2018-01-05T10:39:22Z</time>
      </trkpt>
      <trkpt lat="46.06433" lon="4.72669">
        <ele>191</ele>
        <time>2018-01-05T10:39:23Z</time>
      </trkpt>
      <trkpt lat="46.06435" lon="4.72678">
        <ele>191</ele>
        <time>2018-01-05T10:39:24Z</time>
      </trkpt>
      <trkpt lat="46.06437" lon="4.72686">
        <ele>191</ele>
        <time>2018-01-05T10:39:25Z</time>
      </trkpt>
      <trkpt lat="46.06439" lon="4.72697">
        <ele>190</ele>
        <time>2018-01-05T10:39:26Z</time>
      </trkpt>
      <trkpt lat="46.0644" lon="4.72706">
        <ele>190</ele>
        <time>2018-01-05T10:39:27Z</time>
      </trkpt>
      <trkpt lat="46.06442" lon="4.72715">
        <ele>190</ele>
        <time>2018-01-05T10:39:28Z</time>
      </trkpt>
      <trkpt lat="46.06444" lon="4.72724">
        <ele>190</ele>
        <time>2018-01-05T10:39:29Z</time>
      </trkpt>
      <trkpt lat="46.06445" lon="4.72733">
        <ele>189</ele>
        <time>2018-01-05T10:39:30Z</time>
      </trkpt>
      <trkpt lat="46.06446" lon="4.72743">
        <ele>189</ele>
        <time>2018-01-05T10:39:31Z</time>
      </trkpt>
      <trkpt lat="46.06447" lon="4.72754">
        <ele>188</ele>
        <time>2018-01-05T10:39:32Z</time>
      </trkpt>
      <trkpt lat="46.06448" lon="4.72765">
        <ele>188</ele>
        <time>2018-01-05T10:39:33Z</time>
      </trkpt>
      <trkpt lat="46.06451" lon="4.72775">
        <ele>188</ele>
        <time>2018-01-05T10:39:34Z</time>
      </trkpt>
      <trkpt lat="46.06452" lon="4.72785">
        <ele>188</ele>
        <time>2018-01-05T10:39:35Z</time>
      </trkpt>
      <trkpt lat="46.06453" lon="4.72794">
        <ele>188</ele>
        <time>2018-01-05T10:39:36Z</time>
      </trkpt>
      <trkpt lat="46.06455" lon="4.72804">
        <ele>188</ele>
        <time>2018-01-05T10:39:37Z</time>
      </trkpt>
      <trkpt lat="46.06457" lon="4.72812">
        <ele>188</ele>
        <time>2018-01-05T10:39:38Z</time>
      </trkpt>
      <trkpt lat="46.06458" lon="4.7282">
        <ele>188</ele>
        <time>2018-01-05T10:39:39Z</time>
      </trkpt>
      <trkpt lat="46.06461" lon="4.72829">
        <ele>188</ele>
        <time>2018-01-05T10:39:40Z</time>
      </trkpt>
      <trkpt lat="46.06463" lon="4.72838">
        <ele>188</ele>
        <time>2018-01-05T10:39:41Z</time>
      </trkpt>
      <trkpt lat="46.06464" lon="4.72846">
        <ele>188</ele>
        <time>2018-01-05T10:39:42Z</time>
      </trkpt>
      <trkpt lat="46.06467" lon="4.72856">
        <ele>188</ele>
        <time>2018-01-05T10:39:43Z</time>
      </trkpt>
      <trkpt lat="46.06469" lon="4.72865">
        <ele>188</ele>
        <time>2018-01-05T10:39:44Z</time>
      </trkpt>
      <trkpt lat="46.06469" lon="4.72875">
        <ele>188</ele>
        <time>2018-01-05T10:39:45Z</time>
      </trkpt>
      <trkpt lat="46.06469" lon="4.72884">
        <ele>188</ele>
        <time>2018-01-05T10:39:46Z</time>
      </trkpt>
      <trkpt lat="46.06471" lon="4.72891">
        <ele>188</ele>
        <time>2018-01-05T10:39:47Z</time>
      </trkpt>
      <trkpt lat="46.06473" lon="4.729">
        <ele>188</ele>
        <time>2018-01-05T10:39:48Z</time>
      </trkpt>
      <trkpt lat="46.06474" lon="4.72909">
        <ele>188</ele>
        <time>2018-01-05T10:39:49Z</time>
      </trkpt>
      <trkpt lat="46.06477" lon="4.72917">
        <ele>188</ele>
        <time>2018-01-05T10:39:50Z</time>
      </trkpt>
      <trkpt lat="46.06479" lon="4.72926">
        <ele>188</ele>
        <time>2018-01-05T10:39:51Z</time>
      </trkpt>
      <trkpt lat="46.0648" lon="4.72933">
        <ele>188</ele>
        <time>2018-01-05T10:39:52Z</time>
      </trkpt>
      <trkpt lat="46.06482" lon="4.72946">
        <ele>188</ele>
        <time>2018-01-05T10:39:54Z</time>
      </trkpt>
      <trkpt lat="46.06484" lon="4.72953">
        <ele>188</ele>
        <time>2018-01-05T10:39:55Z</time>
      </trkpt>
      <trkpt lat="46.06485" lon="4.7296">
        <ele>188</ele>
        <time>2018-01-05T10:39:56Z</time>
      </trkpt>
      <trkpt lat="46.06485" lon="4.72966">
        <ele>188</ele>
        <time>2018-01-05T10:39:57Z</time>
      </trkpt>
      <trkpt lat="46.06483" lon="4.72976">
        <ele>189</ele>
        <time>2018-01-05T10:39:59Z</time>
      </trkpt>
      <trkpt lat="46.06481" lon="4.72982">
        <ele>189</ele>
        <time>2018-01-05T10:40:00Z</time>
      </trkpt>
      <trkpt lat="46.06485" lon="4.72992">
        <ele>189</ele>
        <time>2018-01-05T10:40:03Z</time>
      </trkpt>
      <trkpt lat="46.06489" lon="4.72998">
        <ele>189</ele>
        <time>2018-01-05T10:40:04Z</time>
      </trkpt>
      <trkpt lat="46.06494" lon="4.73004">
        <ele>189</ele>
        <time>2018-01-05T10:40:05Z</time>
      </trkpt>
      <trkpt lat="46.06497" lon="4.7301">
        <ele>189</ele>
        <time>2018-01-05T10:40:06Z</time>
      </trkpt>
      <trkpt lat="46.06501" lon="4.73017">
        <ele>189</ele>
        <time>2018-01-05T10:40:07Z</time>
      </trkpt>
      <trkpt lat="46.06503" lon="4.73025">
        <ele>189</ele>
        <time>2018-01-05T10:40:08Z</time>
      </trkpt>
      <trkpt lat="46.06506" lon="4.73035">
        <ele>189</ele>
        <time>2018-01-05T10:40:09Z</time>
      </trkpt>
      <trkpt lat="46.0651" lon="4.73043">
        <ele>188</ele>
        <time>2018-01-05T10:40:10Z</time>
      </trkpt>
      <trkpt lat="46.06513" lon="4.73052">
        <ele>188</ele>
        <time>2018-01-05T10:40:11Z</time>
      </trkpt>
      <trkpt lat="46.06517" lon="4.73061">
        <ele>188</ele>
        <time>2018-01-05T10:40:12Z</time>
      </trkpt>
      <trkpt lat="46.0652" lon="4.7307">
        <ele>188</ele>
        <time>2018-01-05T10:40:13Z</time>
      </trkpt>
      <trkpt lat="46.06522" lon="4.73078">
        <ele>188</ele>
        <time>2018-01-05T10:40:14Z</time>
      </trkpt>
      <trkpt lat="46.06526" lon="4.73087">
        <ele>188</ele>
        <time>2018-01-05T10:40:15Z</time>
      </trkpt>
      <trkpt lat="46.06529" lon="4.73095">
        <ele>188</ele>
        <time>2018-01-05T10:40:16Z</time>
      </trkpt>
      <trkpt lat="46.06532" lon="4.73104">
        <ele>188</ele>
        <time>2018-01-05T10:40:17Z</time>
      </trkpt>
      <trkpt lat="46.06535" lon="4.73112">
        <ele>188</ele>
        <time>2018-01-05T10:40:18Z</time>
      </trkpt>
      <trkpt lat="46.06538" lon="4.73119">
        <ele>188</ele>
        <time>2018-01-05T10:40:19Z</time>
      </trkpt>
      <trkpt lat="46.0654" lon="4.73127">
        <ele>188</ele>
        <time>2018-01-05T10:40:20Z</time>
      </trkpt>
      <trkpt lat="46.06542" lon="4.73135">
        <ele>187</ele>
        <time>2018-01-05T10:40:21Z</time>
      </trkpt>
      <trkpt lat="46.06543" lon="4.73143">
        <ele>187</ele>
        <time>2018-01-05T10:40:22Z</time>
      </trkpt>
      <trkpt lat="46.06545" lon="4.73151">
        <ele>187</ele>
        <time>2018-01-05T10:40:23Z</time>
      </trkpt>
      <trkpt lat="46.06545" lon="4.7316">
        <ele>187</ele>
        <time>2018-01-05T10:40:24Z</time>
      </trkpt>
      <trkpt lat="46.06547" lon="4.73168">
        <ele>187</ele>
        <time>2018-01-05T10:40:25Z</time>
      </trkpt>
      <trkpt lat="46.06547" lon="4.73176">
        <ele>187</ele>
        <time>2018-01-05T10:40:26Z</time>
      </trkpt>
      <trkpt lat="46.06547" lon="4.73184">
        <ele>187</ele>
        <time>2018-01-05T10:40:27Z</time>
      </trkpt>
      <trkpt lat="46.06549" lon="4.73192">
        <ele>187</ele>
        <time>2018-01-05T10:40:28Z</time>
      </trkpt>
      <trkpt lat="46.0655" lon="4.73201">
        <ele>186</ele>
        <time>2018-01-05T10:40:29Z</time>
      </trkpt>
      <trkpt lat="46.06551" lon="4.7321">
        <ele>186</ele>
        <time>2018-01-05T10:40:30Z</time>
      </trkpt>
      <trkpt lat="46.06552" lon="4.73219">
        <ele>186</ele>
        <time>2018-01-05T10:40:31Z</time>
      </trkpt>
      <trkpt lat="46.06555" lon="4.73228">
        <ele>186</ele>
        <time>2018-01-05T10:40:32Z</time>
      </trkpt>
      <trkpt lat="46.06558" lon="4.73237">
        <ele>186</ele>
        <time>2018-01-05T10:40:33Z</time>
      </trkpt>
      <trkpt lat="46.0656" lon="4.73246">
        <ele>186</ele>
        <time>2018-01-05T10:40:34Z</time>
      </trkpt>
      <trkpt lat="46.06565" lon="4.73254">
        <ele>184</ele>
        <time>2018-01-05T10:40:35Z</time>
      </trkpt>
      <trkpt lat="46.06567" lon="4.73262">
        <ele>184</ele>
        <time>2018-01-05T10:40:36Z</time>
      </trkpt>
      <trkpt lat="46.06569" lon="4.7327">
        <ele>184</ele>
        <time>2018-01-05T10:40:37Z</time>
      </trkpt>
      <trkpt lat="46.06572" lon="4.73279">
        <ele>184</ele>
        <time>2018-01-05T10:40:38Z</time>
      </trkpt>
      <trkpt lat="46.06575" lon="4.73288">
        <ele>184</ele>
        <time>2018-01-05T10:40:39Z</time>
      </trkpt>
      <trkpt lat="46.06578" lon="4.73297">
        <ele>184</ele>
        <time>2018-01-05T10:40:40Z</time>
      </trkpt>
      <trkpt lat="46.06581" lon="4.73305">
        <ele>183</ele>
        <time>2018-01-05T10:40:41Z</time>
      </trkpt>
      <trkpt lat="46.06583" lon="4.73314">
        <ele>183</ele>
        <time>2018-01-05T10:40:42Z</time>
      </trkpt>
      <trkpt lat="46.06586" lon="4.73323">
        <ele>182</ele>
        <time>2018-01-05T10:40:43Z</time>
      </trkpt>
      <trkpt lat="46.06588" lon="4.73332">
        <ele>182</ele>
        <time>2018-01-05T10:40:44Z</time>
      </trkpt>
      <trkpt lat="46.06592" lon="4.73338">
        <ele>182</ele>
        <time>2018-01-05T10:40:45Z</time>
      </trkpt>
      <trkpt lat="46.06597" lon="4.73343">
        <ele>182</ele>
        <time>2018-01-05T10:40:46Z</time>
      </trkpt>
      <trkpt lat="46.06603" lon="4.73348">
        <ele>182</ele>
        <time>2018-01-05T10:40:47Z</time>
      </trkpt>
      <trkpt lat="46.06609" lon="4.73351">
        <ele>182</ele>
        <time>2018-01-05T10:40:48Z</time>
      </trkpt>
      <trkpt lat="46.06616" lon="4.73355">
        <ele>182</ele>
        <time>2018-01-05T10:40:49Z</time>
      </trkpt>
      <trkpt lat="46.06623" lon="4.73358">
        <ele>182</ele>
        <time>2018-01-05T10:40:50Z</time>
      </trkpt>
      <trkpt lat="46.0663" lon="4.73362">
        <ele>182</ele>
        <time>2018-01-05T10:40:51Z</time>
      </trkpt>
      <trkpt lat="46.06636" lon="4.73367">
        <ele>182</ele>
        <time>2018-01-05T10:40:52Z</time>
      </trkpt>
      <trkpt lat="46.06642" lon="4.73371">
        <ele>182</ele>
        <time>2018-01-05T10:40:53Z</time>
      </trkpt>
      <trkpt lat="46.06649" lon="4.73377">
        <ele>182</ele>
        <time>2018-01-05T10:40:54Z</time>
      </trkpt>
      <trkpt lat="46.06655" lon="4.73384">
        <ele>182</ele>
        <time>2018-01-05T10:40:55Z</time>
      </trkpt>
      <trkpt lat="46.0666" lon="4.73391">
        <ele>182</ele>
        <time>2018-01-05T10:40:56Z</time>
      </trkpt>
      <trkpt lat="46.06666" lon="4.73399">
        <ele>182</ele>
        <time>2018-01-05T10:40:57Z</time>
      </trkpt>
      <trkpt lat="46.06671" lon="4.73407">
        <ele>181</ele>
        <time>2018-01-05T10:40:58Z</time>
      </trkpt>
      <trkpt lat="46.06676" lon="4.73415">
        <ele>181</ele>
        <time>2018-01-05T10:40:59Z</time>
      </trkpt>
      <trkpt lat="46.06682" lon="4.73423">
        <ele>181</ele>
        <time>2018-01-05T10:41:00Z</time>
      </trkpt>
      <trkpt lat="46.06687" lon="4.7343">
        <ele>181</ele>
        <time>2018-01-05T10:41:01Z</time>
      </trkpt>
      <trkpt lat="46.06691" lon="4.73437">
        <ele>181</ele>
        <time>2018-01-05T10:41:02Z</time>
      </trkpt>
      <trkpt lat="46.06696" lon="4.73443">
        <ele>181</ele>
        <time>2018-01-05T10:41:03Z</time>
      </trkpt>
      <trkpt lat="46.06701" lon="4.7345">
        <ele>180</ele>
        <time>2018-01-05T10:41:04Z</time>
      </trkpt>
      <trkpt lat="46.06706" lon="4.73457">
        <ele>180</ele>
        <time>2018-01-05T10:41:05Z</time>
      </trkpt>
      <trkpt lat="46.06711" lon="4.73465">
        <ele>180</ele>
        <time>2018-01-05T10:41:06Z</time>
      </trkpt>
      <trkpt lat="46.06715" lon="4.73472">
        <ele>180</ele>
        <time>2018-01-05T10:41:07Z</time>
      </trkpt>
      <trkpt lat="46.06719" lon="4.73478">
        <ele>180</ele>
        <time>2018-01-05T10:41:08Z</time>
      </trkpt>
      <trkpt lat="46.06723" lon="4.73484">
        <ele>180</ele>
        <time>2018-01-05T10:41:09Z</time>
      </trkpt>
      <trkpt lat="46.06729" lon="4.7349">
        <ele>180</ele>
        <time>2018-01-05T10:41:10Z</time>
      </trkpt>
      <trkpt lat="46.06735" lon="4.73498">
        <ele>180</ele>
        <time>2018-01-05T10:41:11Z</time>
      </trkpt>
      <trkpt lat="46.06739" lon="4.73506">
        <ele>180</ele>
        <time>2018-01-05T10:41:12Z</time>
      </trkpt>
      <trkpt lat="46.06743" lon="4.73514">
        <ele>180</ele>
        <time>2018-01-05T10:41:13Z</time>
      </trkpt>
      <trkpt lat="46.06747" lon="4.73521">
        <ele>180</ele>
        <time>2018-01-05T10:41:14Z</time>
      </trkpt>
      <trkpt lat="46.06752" lon="4.73529">
        <ele>179</ele>
        <time>2018-01-05T10:41:15Z</time>
      </trkpt>
      <trkpt lat="46.06757" lon="4.73535">
        <ele>179</ele>
        <time>2018-01-05T10:41:16Z</time>
      </trkpt>
      <trkpt lat="46.06762" lon="4.73544">
        <ele>179</ele>
        <time>2018-01-05T10:41:17Z</time>
      </trkpt>
      <trkpt lat="46.06767" lon="4.73552">
        <ele>179</ele>
        <time>2018-01-05T10:41:18Z</time>
      </trkpt>
      <trkpt lat="46.06771" lon="4.73559">
        <ele>179</ele>
        <time>2018-01-05T10:41:19Z</time>
      </trkpt>
      <trkpt lat="46.06776" lon="4.73567">
        <ele>180</ele>
        <time>2018-01-05T10:41:20Z</time>
      </trkpt>
      <trkpt lat="46.0678" lon="4.73574">
        <ele>179</ele>
        <time>2018-01-05T10:41:21Z</time>
      </trkpt>
      <trkpt lat="46.06784" lon="4.73583">
        <ele>179</ele>
        <time>2018-01-05T10:41:22Z</time>
      </trkpt>
      <trkpt lat="46.06789" lon="4.73592">
        <ele>179</ele>
        <time>2018-01-05T10:41:23Z</time>
      </trkpt>
      <trkpt lat="46.06794" lon="4.73599">
        <ele>179</ele>
        <time>2018-01-05T10:41:24Z</time>
      </trkpt>
      <trkpt lat="46.06799" lon="4.73606">
        <ele>178</ele>
        <time>2018-01-05T10:41:25Z</time>
      </trkpt>
      <trkpt lat="46.06802" lon="4.73612">
        <ele>178</ele>
        <time>2018-01-05T10:41:26Z</time>
      </trkpt>
      <trkpt lat="46.06807" lon="4.73618">
        <ele>178</ele>
        <time>2018-01-05T10:41:27Z</time>
      </trkpt>
      <trkpt lat="46.06812" lon="4.73624">
        <ele>178</ele>
        <time>2018-01-05T10:41:28Z</time>
      </trkpt>
      <trkpt lat="46.06817" lon="4.73629">
        <ele>178</ele>
        <time>2018-01-05T10:41:29Z</time>
      </trkpt>
      <trkpt lat="46.06821" lon="4.73635">
        <ele>178</ele>
        <time>2018-01-05T10:41:30Z</time>
      </trkpt>
      <trkpt lat="46.06826" lon="4.73642">
        <ele>177</ele>
        <time>2018-01-05T10:41:31Z</time>
      </trkpt>
      <trkpt lat="46.06831" lon="4.73647">
        <ele>177</ele>
        <time>2018-01-05T10:41:32Z</time>
      </trkpt>
      <trkpt lat="46.06835" lon="4.73652">
        <ele>176</ele>
        <time>2018-01-05T10:41:33Z</time>
      </trkpt>
      <trkpt lat="46.06839" lon="4.73656">
        <ele>176</ele>
        <time>2018-01-05T10:41:34Z</time>
      </trkpt>
      <trkpt lat="46.06843" lon="4.7366">
        <ele>176</ele>
        <time>2018-01-05T10:41:35Z</time>
      </trkpt>
      <trkpt lat="46.06848" lon="4.73665">
        <ele>176</ele>
        <time>2018-01-05T10:41:36Z</time>
      </trkpt>
      <trkpt lat="46.06853" lon="4.7367">
        <ele>176</ele>
        <time>2018-01-05T10:41:37Z</time>
      </trkpt>
      <trkpt lat="46.06858" lon="4.73675">
        <ele>176</ele>
        <time>2018-01-05T10:41:38Z</time>
      </trkpt>
      <trkpt lat="46.06862" lon="4.7368">
        <ele>176</ele>
        <time>2018-01-05T10:41:39Z</time>
      </trkpt>
      <trkpt lat="46.06867" lon="4.73685">
        <ele>176</ele>
        <time>2018-01-05T10:41:40Z</time>
      </trkpt>
      <trkpt lat="46.06873" lon="4.7369">
        <ele>176</ele>
        <time>2018-01-05T10:41:41Z</time>
      </trkpt>
      <trkpt lat="46.06877" lon="4.73696">
        <ele>176</ele>
        <time>2018-01-05T10:41:42Z</time>
      </trkpt>
      <trkpt lat="46.06881" lon="4.73703">
        <ele>176</ele>
        <time>2018-01-05T10:41:43Z</time>
      </trkpt>
      <trkpt lat="46.06886" lon="4.73709">
        <ele>176</ele>
        <time>2018-01-05T10:41:44Z</time>
      </trkpt>
      <trkpt lat="46.06891" lon="4.73715">
        <ele>176</ele>
        <time>2018-01-05T10:41:45Z</time>
      </trkpt>
      <trkpt lat="46.06896" lon="4.73721">
        <ele>176</ele>
        <time>2018-01-05T10:41:46Z</time>
      </trkpt>
      <trkpt lat="46.069" lon="4.73726">
        <ele>176</ele>
        <time>2018-01-05T10:41:47Z</time>
      </trkpt>
      <trkpt lat="46.06904" lon="4.73733">
        <ele>177</ele>
        <time>2018-01-05T10:41:48Z</time>
      </trkpt>
      <trkpt lat="46.06908" lon="4.73739">
        <ele>177</ele>
        <time>2018-01-05T10:41:49Z</time>
      </trkpt>
      <trkpt lat="46.06912" lon="4.73745">
        <ele>177</ele>
        <time>2018-01-05T10:41:50Z</time>
      </trkpt>
      <trkpt lat="46.06917" lon="4.73752">
        <ele>177</ele>
        <time>2018-01-05T10:41:51Z</time>
      </trkpt>
      <trkpt lat="46.06921" lon="4.73758">
        <ele>177</ele>
        <time>2018-01-05T10:41:52Z</time>
      </trkpt>
      <trkpt lat="46.06926" lon="4.73765">
        <ele>177</ele>
        <time>2018-01-05T10:41:53Z</time>
      </trkpt>
      <trkpt lat="46.06931" lon="4.73771">
        <ele>176</ele>
        <time>2018-01-05T10:41:54Z</time>
      </trkpt>
      <trkpt lat="46.06937" lon="4.73776">
        <ele>176</ele>
        <time>2018-01-05T10:41:55Z</time>
      </trkpt>
      <trkpt lat="46.06943" lon="4.73781">
        <ele>176</ele>
        <time>2018-01-05T10:41:56Z</time>
      </trkpt>
      <trkpt lat="46.06949" lon="4.73785">
        <ele>176</ele>
        <time>2018-01-05T10:41:57Z</time>
      </trkpt>
      <trkpt lat="46.06956" lon="4.73788">
        <ele>176</ele>
        <time>2018-01-05T10:41:58Z</time>
      </trkpt>
      <trkpt lat="46.06962" lon="4.7379">
        <ele>176</ele>
        <time>2018-01-05T10:41:59Z</time>
      </trkpt>
      <trkpt lat="46.06969" lon="4.73792">
        <ele>176</ele>
        <time>2018-01-05T10:42:00Z</time>
      </trkpt>
      <trkpt lat="46.06976" lon="4.73793">
        <ele>176</ele>
        <time>2018-01-05T10:42:01Z</time>
      </trkpt>
      <trkpt lat="46.06983" lon="4.73795">
        <ele>176</ele>
        <time>2018-01-05T10:42:02Z</time>
      </trkpt>
      <trkpt lat="46.06989" lon="4.73795">
        <ele>176</ele>
        <time>2018-01-05T10:42:03Z</time>
      </trkpt>
      <trkpt lat="46.06995" lon="4.73797">
        <ele>176</ele>
        <time>2018-01-05T10:42:04Z</time>
      </trkpt>
      <trkpt lat="46.07001" lon="4.73798">
        <ele>176</ele>
        <time>2018-01-05T10:42:05Z</time>
      </trkpt>
      <trkpt lat="46.07008" lon="4.738">
        <ele>176</ele>
        <time>2018-01-05T10:42:06Z</time>
      </trkpt>
      <trkpt lat="46.07015" lon="4.738">
        <ele>177</ele>
        <time>2018-01-05T10:42:07Z</time>
      </trkpt>
      <trkpt lat="46.07021" lon="4.73801">
        <ele>177</ele>
        <time>2018-01-05T10:42:08Z</time>
      </trkpt>
      <trkpt lat="46.07027" lon="4.738">
        <ele>177</ele>
        <time>2018-01-05T10:42:09Z</time>
      </trkpt>
      <trkpt lat="46.07033" lon="4.73801">
        <ele>177</ele>
        <time>2018-01-05T10:42:10Z</time>
      </trkpt>
      <trkpt lat="46.07039" lon="4.73802">
        <ele>177</ele>
        <time>2018-01-05T10:42:11Z</time>
      </trkpt>
      <trkpt lat="46.07045" lon="4.73803">
        <ele>177</ele>
        <time>2018-01-05T10:42:12Z</time>
      </trkpt>
      <trkpt lat="46.07051" lon="4.73805">
        <ele>177</ele>
        <time>2018-01-05T10:42:13Z</time>
      </trkpt>
      <trkpt lat="46.07057" lon="4.73808">
        <ele>177</ele>
        <time>2018-01-05T10:42:14Z</time>
      </trkpt>
      <trkpt lat="46.07063" lon="4.7381">
        <ele>177</ele>
        <time>2018-01-05T10:42:15Z</time>
      </trkpt>
      <trkpt lat="46.07069" lon="4.73813">
        <ele>178</ele>
        <time>2018-01-05T10:42:16Z</time>
      </trkpt>
      <trkpt lat="46.07076" lon="4.73815">
        <ele>178</ele>
        <time>2018-01-05T10:42:17Z</time>
      </trkpt>
      <trkpt lat="46.07082" lon="4.73818">
        <ele>178</ele>
        <time>2018-01-05T10:42:18Z</time>
      </trkpt>
      <trkpt lat="46.07088" lon="4.73821">
        <ele>178</ele>
        <time>2018-01-05T10:42:19Z</time>
      </trkpt>
      <trkpt lat="46.07094" lon="4.73824">
        <ele>178</ele>
        <time>2018-01-05T10:42:20Z</time>
      </trkpt>
      <trkpt lat="46.07099" lon="4.73828">
        <ele>178</ele>
        <time>2018-01-05T10:42:21Z</time>
      </trkpt>
      <trkpt lat="46.07104" lon="4.73831">
        <ele>178</ele>
        <time>2018-01-05T10:42:22Z</time>
      </trkpt>
      <trkpt lat="46.07109" lon="4.73834">
        <ele>177</ele>
        <time>2018-01-05T10:42:23Z</time>
      </trkpt>
      <trkpt lat="46.07113" lon="4.7384">
        <ele>177</ele>
        <time>2018-01-05T10:42:24Z</time>
      </trkpt>
      <trkpt lat="46.07118" lon="4.73845">
        <ele>177</ele>
        <time>2018-01-05T10:42:25Z</time>
      </trkpt>
      <trkpt lat="46.07123" lon="4.73851">
        <ele>177</ele>
        <time>2018-01-05T10:42:26Z</time>
      </trkpt>
      <trkpt lat="46.07128" lon="4.73856">
        <ele>176</ele>
        <time>2018-01-05T10:42:27Z</time>
      </trkpt>
      <trkpt lat="46.07131" lon="4.73863">
        <ele>176</ele>
        <time>2018-01-05T10:42:28Z</time>
      </trkpt>
      <trkpt lat="46.07136" lon="4.7387">
        <ele>176</ele>
        <time>2018-01-05T10:42:29Z</time>
      </trkpt>
      <trkpt lat="46.0714" lon="4.73877">
        <ele>176</ele>
        <time>2018-01-05T10:42:30Z</time>
      </trkpt>
      <trkpt lat="46.07143" lon="4.73884">
        <ele>176</ele>
        <time>2018-01-05T10:42:31Z</time>
      </trkpt>
      <trkpt lat="46.07147" lon="4.73891">
        <ele>177</ele>
        <time>2018-01-05T10:42:32Z</time>
      </trkpt>
      <trkpt lat="46.07151" lon="4.73898">
        <ele>177</ele>
        <time>2018-01-05T10:42:33Z</time>
      </trkpt>
      <trkpt lat="46.07154" lon="4.73905">
        <ele>177</ele>
        <time>2018-01-05T10:42:34Z</time>
      </trkpt>
      <trkpt lat="46.07156" lon="4.73915">
        <ele>177</ele>
        <time>2018-01-05T10:42:35Z</time>
      </trkpt>
      <trkpt lat="46.07159" lon="4.73924">
        <ele>177</ele>
        <time>2018-01-05T10:42:36Z</time>
      </trkpt>
      <trkpt lat="46.07163" lon="4.73932">
        <ele>177</ele>
        <time>2018-01-05T10:42:37Z</time>
      </trkpt>
      <trkpt lat="46.07166" lon="4.7394">
        <ele>177</ele>
        <time>2018-01-05T10:42:38Z</time>
      </trkpt>
      <trkpt lat="46.07168" lon="4.73948">
        <ele>177</ele>
        <time>2018-01-05T10:42:39Z</time>
      </trkpt>
      <trkpt lat="46.07171" lon="4.73955">
        <ele>177</ele>
        <time>2018-01-05T10:42:40Z</time>
      </trkpt>
      <trkpt lat="46.07173" lon="4.73962">
        <ele>178</ele>
        <time>2018-01-05T10:42:41Z</time>
      </trkpt>
      <trkpt lat="46.07175" lon="4.73969">
        <ele>178</ele>
        <time>2018-01-05T10:42:42Z</time>
      </trkpt>
      <trkpt lat="46.07177" lon="4.73976">
        <ele>178</ele>
        <time>2018-01-05T10:42:43Z</time>
      </trkpt>
      <trkpt lat="46.0718" lon="4.73985">
        <ele>178</ele>
        <time>2018-01-05T10:42:44Z</time>
      </trkpt>
      <trkpt lat="46.07182" lon="4.73991">
        <ele>178</ele>
        <time>2018-01-05T10:42:45Z</time>
      </trkpt>
      <trkpt lat="46.07185" lon="4.73996">
        <ele>178</ele>
        <time>2018-01-05T10:42:46Z</time>
      </trkpt>
      <trkpt lat="46.07188" lon="4.74008">
        <ele>178</ele>
        <time>2018-01-05T10:42:48Z</time>
      </trkpt>
      <trkpt lat="46.07191" lon="4.74013">
        <ele>178</ele>
        <time>2018-01-05T10:42:49Z</time>
      </trkpt>
      <trkpt lat="46.07193" lon="4.74019">
        <ele>178</ele>
        <time>2018-01-05T10:42:50Z</time>
      </trkpt>
      <trkpt lat="46.07196" lon="4.74027">
        <ele>178</ele>
        <time>2018-01-05T10:42:51Z</time>
      </trkpt>
      <trkpt lat="46.07198" lon="4.74036">
        <ele>178</ele>
        <time>2018-01-05T10:42:53Z</time>
      </trkpt>
      <trkpt lat="46.072" lon="4.74041">
        <ele>178</ele>
        <time>2018-01-05T10:42:54Z</time>
      </trkpt>
      <trkpt lat="46.07204" lon="4.7405">
        <ele>178</ele>
        <time>2018-01-05T10:42:56Z</time>
      </trkpt>
      <trkpt lat="46.07206" lon="4.74055">
        <ele>178</ele>
        <time>2018-01-05T10:42:57Z</time>
      </trkpt>
      <trkpt lat="46.07209" lon="4.74065">
        <ele>177</ele>
        <time>2018-01-05T10:42:59Z</time>
      </trkpt>
      <trkpt lat="46.07211" lon="4.7407">
        <ele>177</ele>
        <time>2018-01-05T10:43:00Z</time>
      </trkpt>
      <trkpt lat="46.07214" lon="4.74081">
        <ele>177</ele>
        <time>2018-01-05T10:43:02Z</time>
      </trkpt>
      <trkpt lat="46.07216" lon="4.74086">
        <ele>177</ele>
        <time>2018-01-05T10:43:03Z</time>
      </trkpt>
      <trkpt lat="46.07219" lon="4.74097">
        <ele>177</ele>
        <time>2018-01-05T10:43:05Z</time>
      </trkpt>
      <trkpt lat="46.07221" lon="4.74103">
        <ele>177</ele>
        <time>2018-01-05T10:43:06Z</time>
      </trkpt>
      <trkpt lat="46.07225" lon="4.74111">
        <ele>177</ele>
        <time>2018-01-05T10:43:07Z</time>
      </trkpt>
      <trkpt lat="46.07227" lon="4.74116">
        <ele>177</ele>
        <time>2018-01-05T10:43:08Z</time>
      </trkpt>
      <trkpt lat="46.07228" lon="4.74123">
        <ele>177</ele>
        <time>2018-01-05T10:43:09Z</time>
      </trkpt>
      <trkpt lat="46.07231" lon="4.74128">
        <ele>177</ele>
        <time>2018-01-05T10:43:10Z</time>
      </trkpt>
      <trkpt lat="46.07233" lon="4.74133">
        <ele>177</ele>
        <time>2018-01-05T10:43:11Z</time>
      </trkpt>
      <trkpt lat="46.07236" lon="4.7414">
        <ele>177</ele>
        <time>2018-01-05T10:43:12Z</time>
      </trkpt>
      <trkpt lat="46.07238" lon="4.74145">
        <ele>177</ele>
        <time>2018-01-05T10:43:13Z</time>
      </trkpt>
      <trkpt lat="46.07241" lon="4.74151">
        <ele>177</ele>
        <time>2018-01-05T10:43:14Z</time>
      </trkpt>
      <trkpt lat="46.07243" lon="4.74157">
        <ele>177</ele>
        <time>2018-01-05T10:43:15Z</time>
      </trkpt>
      <trkpt lat="46.07245" lon="4.74163">
        <ele>177</ele>
        <time>2018-01-05T10:43:16Z</time>
      </trkpt>
      <trkpt lat="46.07247" lon="4.7417">
        <ele>177</ele>
        <time>2018-01-05T10:43:17Z</time>
      </trkpt>
      <trkpt lat="46.0725" lon="4.74177">
        <ele>176</ele>
        <time>2018-01-05T10:43:18Z</time>
      </trkpt>
      <trkpt lat="46.07253" lon="4.74184">
        <ele>176</ele>
        <time>2018-01-05T10:43:19Z</time>
      </trkpt>
      <trkpt lat="46.07254" lon="4.74191">
        <ele>176</ele>
        <time>2018-01-05T10:43:20Z</time>
      </trkpt>
      <trkpt lat="46.07257" lon="4.742">
        <ele>176</ele>
        <time>2018-01-05T10:43:21Z</time>
      </trkpt>
      <trkpt lat="46.0726" lon="4.74208">
        <ele>176</ele>
        <time>2018-01-05T10:43:22Z</time>
      </trkpt>
      <trkpt lat="46.07262" lon="4.74215">
        <ele>176</ele>
        <time>2018-01-05T10:43:23Z</time>
      </trkpt>
      <trkpt lat="46.07264" lon="4.74224">
        <ele>176</ele>
        <time>2018-01-05T10:43:24Z</time>
      </trkpt>
      <trkpt lat="46.07267" lon="4.74233">
        <ele>175</ele>
        <time>2018-01-05T10:43:25Z</time>
      </trkpt>
      <trkpt lat="46.0727" lon="4.74243">
        <ele>175</ele>
        <time>2018-01-05T10:43:26Z</time>
      </trkpt>
      <trkpt lat="46.07273" lon="4.74252">
        <ele>175</ele>
        <time>2018-01-05T10:43:27Z</time>
      </trkpt>
      <trkpt lat="46.07275" lon="4.74262">
        <ele>175</ele>
        <time>2018-01-05T10:43:28Z</time>
      </trkpt>
      <trkpt lat="46.07279" lon="4.74272">
        <ele>175</ele>
        <time>2018-01-05T10:43:29Z</time>
      </trkpt>
      <trkpt lat="46.07281" lon="4.74283">
        <ele>175</ele>
        <time>2018-01-05T10:43:30Z</time>
      </trkpt>
      <trkpt lat="46.07284" lon="4.74294">
        <ele>174</ele>
        <time>2018-01-05T10:43:31Z</time>
      </trkpt>
      <trkpt lat="46.07286" lon="4.74305">
        <ele>174</ele>
        <time>2018-01-05T10:43:32Z</time>
      </trkpt>
      <trkpt lat="46.07288" lon="4.74316">
        <ele>174</ele>
        <time>2018-01-05T10:43:33Z</time>
      </trkpt>
      <trkpt lat="46.0729" lon="4.74327">
        <ele>174</ele>
        <time>2018-01-05T10:43:34Z</time>
      </trkpt>
      <trkpt lat="46.07292" lon="4.74339">
        <ele>174</ele>
        <time>2018-01-05T10:43:35Z</time>
      </trkpt>
      <trkpt lat="46.07294" lon="4.74349">
        <ele>174</ele>
        <time>2018-01-05T10:43:36Z</time>
      </trkpt>
      <trkpt lat="46.07295" lon="4.7436">
        <ele>174</ele>
        <time>2018-01-05T10:43:37Z</time>
      </trkpt>
      <trkpt lat="46.07297" lon="4.7437">
        <ele>174</ele>
        <time>2018-01-05T10:43:38Z</time>
      </trkpt>
      <trkpt lat="46.073" lon="4.7438">
        <ele>174</ele>
        <time>2018-01-05T10:43:39Z</time>
      </trkpt>
      <trkpt lat="46.073" lon="4.7439">
        <ele>174</ele>
        <time>2018-01-05T10:43:40Z</time>
      </trkpt>
      <trkpt lat="46.073" lon="4.744">
        <ele>174</ele>
        <time>2018-01-05T10:43:41Z</time>
      </trkpt>
      <trkpt lat="46.07301" lon="4.74408">
        <ele>174</ele>
        <time>2018-01-05T10:43:42Z</time>
      </trkpt>
      <trkpt lat="46.07302" lon="4.74415">
        <ele>174</ele>
        <time>2018-01-05T10:43:43Z</time>
      </trkpt>
      <trkpt lat="46.07303" lon="4.74425">
        <ele>175</ele>
        <time>2018-01-05T10:43:44Z</time>
      </trkpt>
      <trkpt lat="46.07305" lon="4.74431">
        <ele>175</ele>
        <time>2018-01-05T10:43:45Z</time>
      </trkpt>
      <trkpt lat="46.07307" lon="4.74441">
        <ele>175</ele>
        <time>2018-01-05T10:43:46Z</time>
      </trkpt>
      <trkpt lat="46.07308" lon="4.7445">
        <ele>175</ele>
        <time>2018-01-05T10:43:47Z</time>
      </trkpt>
      <trkpt lat="46.07311" lon="4.74458">
        <ele>175</ele>
        <time>2018-01-05T10:43:48Z</time>
      </trkpt>
      <trkpt lat="46.07314" lon="4.74465">
        <ele>175</ele>
        <time>2018-01-05T10:43:49Z</time>
      </trkpt>
      <trkpt lat="46.07317" lon="4.74473">
        <ele>175</ele>
        <time>2018-01-05T10:43:50Z</time>
      </trkpt>
      <trkpt lat="46.07319" lon="4.74481">
        <ele>175</ele>
        <time>2018-01-05T10:43:51Z</time>
      </trkpt>
      <trkpt lat="46.07323" lon="4.74488">
        <ele>175</ele>
        <time>2018-01-05T10:43:52Z</time>
      </trkpt>
      <trkpt lat="46.07326" lon="4.74499">
        <ele>176</ele>
        <time>2018-01-05T10:43:53Z</time>
      </trkpt>
      <trkpt lat="46.07329" lon="4.74506">
        <ele>176</ele>
        <time>2018-01-05T10:43:54Z</time>
      </trkpt>
      <trkpt lat="46.07334" lon="4.74513">
        <ele>175</ele>
        <time>2018-01-05T10:43:55Z</time>
      </trkpt>
      <trkpt lat="46.07338" lon="4.7452">
        <ele>175</ele>
        <time>2018-01-05T10:43:56Z</time>
      </trkpt>
      <trkpt lat="46.07342" lon="4.74528">
        <ele>175</ele>
        <time>2018-01-05T10:43:57Z</time>
      </trkpt>
      <trkpt lat="46.07346" lon="4.74535">
        <ele>175</ele>
        <time>2018-01-05T10:43:58Z</time>
      </trkpt>
      <trkpt lat="46.0735" lon="4.74542">
        <ele>175</ele>
        <time>2018-01-05T10:43:59Z</time>
      </trkpt>
      <trkpt lat="46.07355" lon="4.74548">
        <ele>175</ele>
        <time>2018-01-05T10:44:00Z</time>
      </trkpt>
      <trkpt lat="46.07358" lon="4.74556">
        <ele>175</ele>
        <time>2018-01-05T10:44:01Z</time>
      </trkpt>
      <trkpt lat="46.07362" lon="4.74563">
        <ele>175</ele>
        <time>2018-01-05T10:44:02Z</time>
      </trkpt>
      <trkpt lat="46.07365" lon="4.74569">
        <ele>175</ele>
        <time>2018-01-05T10:44:03Z</time>
      </trkpt>
      <trkpt lat="46.07369" lon="4.74576">
        <ele>175</ele>
        <time>2018-01-05T10:44:04Z</time>
      </trkpt>
      <trkpt lat="46.07372" lon="4.74583">
        <ele>175</ele>
        <time>2018-01-05T10:44:05Z</time>
      </trkpt>
      <trkpt lat="46.07375" lon="4.74588">
        <ele>175</ele>
        <time>2018-01-05T10:44:06Z</time>
      </trkpt>
      <trkpt lat="46.07379" lon="4.74595">
        <ele>174</ele>
        <time>2018-01-05T10:44:07Z</time>
      </trkpt>
      <trkpt lat="46.07382" lon="4.74601">
        <ele>174</ele>
        <time>2018-01-05T10:44:08Z</time>
      </trkpt>
      <trkpt lat="46.07385" lon="4.74608">
        <ele>174</ele>
        <time>2018-01-05T10:44:09Z</time>
      </trkpt>
      <trkpt lat="46.07387" lon="4.74615">
        <ele>174</ele>
        <time>2018-01-05T10:44:10Z</time>
      </trkpt>
      <trkpt lat="46.0739" lon="4.74622">
        <ele>174</ele>
        <time>2018-01-05T10:44:11Z</time>
      </trkpt>
      <trkpt lat="46.07394" lon="4.74629">
        <ele>174</ele>
        <time>2018-01-05T10:44:12Z</time>
      </trkpt>
      <trkpt lat="46.07397" lon="4.74637">
        <ele>174</ele>
        <time>2018-01-05T10:44:13Z</time>
      </trkpt>
      <trkpt lat="46.07401" lon="4.74644">
        <ele>173</ele>
        <time>2018-01-05T10:44:14Z</time>
      </trkpt>
      <trkpt lat="46.07404" lon="4.74651">
        <ele>173</ele>
        <time>2018-01-05T10:44:15Z</time>
      </trkpt>
      <trkpt lat="46.07408" lon="4.74657">
        <ele>173</ele>
        <time>2018-01-05T10:44:16Z</time>
      </trkpt>
      <trkpt lat="46.07412" lon="4.74664">
        <ele>172</ele>
        <time>2018-01-05T10:44:17Z</time>
      </trkpt>
      <trkpt lat="46.07415" lon="4.74671">
        <ele>172</ele>
        <time>2018-01-05T10:44:18Z</time>
      </trkpt>
      <trkpt lat="46.07419" lon="4.74678">
        <ele>172</ele>
        <time>2018-01-05T10:44:19Z</time>
      </trkpt>
      <trkpt lat="46.07423" lon="4.74684">
        <ele>172</ele>
        <time>2018-01-05T10:44:20Z</time>
      </trkpt>
      <trkpt lat="46.07426" lon="4.74691">
        <ele>173</ele>
        <time>2018-01-05T10:44:21Z</time>
      </trkpt>
      <trkpt lat="46.0743" lon="4.74698">
        <ele>173</ele>
        <time>2018-01-05T10:44:22Z</time>
      </trkpt>
      <trkpt lat="46.07434" lon="4.74705">
        <ele>173</ele>
        <time>2018-01-05T10:44:23Z</time>
      </trkpt>
      <trkpt lat="46.07437" lon="4.74712">
        <ele>173</ele>
        <time>2018-01-05T10:44:24Z</time>
      </trkpt>
      <trkpt lat="46.0744" lon="4.74718">
        <ele>173</ele>
        <time>2018-01-05T10:44:25Z</time>
      </trkpt>
      <trkpt lat="46.07444" lon="4.74725">
        <ele>173</ele>
        <time>2018-01-05T10:44:26Z</time>
      </trkpt>
      <trkpt lat="46.07447" lon="4.7473">
        <ele>173</ele>
        <time>2018-01-05T10:44:27Z</time>
      </trkpt>
      <trkpt lat="46.0745" lon="4.74736">
        <ele>173</ele>
        <time>2018-01-05T10:44:28Z</time>
      </trkpt>
      <trkpt lat="46.07454" lon="4.74741">
        <ele>173</ele>
        <time>2018-01-05T10:44:29Z</time>
      </trkpt>
      <trkpt lat="46.07457" lon="4.74747">
        <ele>173</ele>
        <time>2018-01-05T10:44:30Z</time>
      </trkpt>
      <trkpt lat="46.07462" lon="4.74753">
        <ele>173</ele>
        <time>2018-01-05T10:44:31Z</time>
      </trkpt>
      <trkpt lat="46.07466" lon="4.74759">
        <ele>173</ele>
        <time>2018-01-05T10:44:32Z</time>
      </trkpt>
      <trkpt lat="46.07471" lon="4.74764">
        <ele>173</ele>
        <time>2018-01-05T10:44:33Z</time>
      </trkpt>
      <trkpt lat="46.07475" lon="4.74771">
        <ele>173</ele>
        <time>2018-01-05T10:44:34Z</time>
      </trkpt>
      <trkpt lat="46.0748" lon="4.74776">
        <ele>173</ele>
        <time>2018-01-05T10:44:35Z</time>
      </trkpt>
      <trkpt lat="46.07486" lon="4.7478">
        <ele>173</ele>
        <time>2018-01-05T10:44:36Z</time>
      </trkpt>
      <trkpt lat="46.07491" lon="4.74785">
        <ele>173</ele>
        <time>2018-01-05T10:44:37Z</time>
      </trkpt>
      <trkpt lat="46.07496" lon="4.74789">
        <ele>173</ele>
        <time>2018-01-05T10:44:38Z</time>
      </trkpt>
      <trkpt lat="46.07501" lon="4.74794">
        <ele>172</ele>
        <time>2018-01-05T10:44:39Z</time>
      </trkpt>
      <trkpt lat="46.07507" lon="4.74798">
        <ele>172</ele>
        <time>2018-01-05T10:44:40Z</time>
      </trkpt>
      <trkpt lat="46.07513" lon="4.74802">
        <ele>172</ele>
        <time>2018-01-05T10:44:41Z</time>
      </trkpt>
      <trkpt lat="46.07518" lon="4.74806">
        <ele>172</ele>
        <time>2018-01-05T10:44:42Z</time>
      </trkpt>
      <trkpt lat="46.07523" lon="4.74811">
        <ele>172</ele>
        <time>2018-01-05T10:44:43Z</time>
      </trkpt>
      <trkpt lat="46.07528" lon="4.74814">
        <ele>172</ele>
        <time>2018-01-05T10:44:44Z</time>
      </trkpt>
      <trkpt lat="46.07533" lon="4.74819">
        <ele>172</ele>
        <time>2018-01-05T10:44:45Z</time>
      </trkpt>
      <trkpt lat="46.07539" lon="4.74822">
        <ele>172</ele>
        <time>2018-01-05T10:44:46Z</time>
      </trkpt>
      <trkpt lat="46.07543" lon="4.74825">
        <ele>172</ele>
        <time>2018-01-05T10:44:47Z</time>
      </trkpt>
      <trkpt lat="46.07547" lon="4.7483">
        <ele>172</ele>
        <time>2018-01-05T10:44:48Z</time>
      </trkpt>
      <trkpt lat="46.07552" lon="4.74834">
        <ele>171</ele>
        <time>2018-01-05T10:44:49Z</time>
      </trkpt>
      <trkpt lat="46.07556" lon="4.74837">
        <ele>171</ele>
        <time>2018-01-05T10:44:50Z</time>
      </trkpt>
      <trkpt lat="46.07561" lon="4.74842">
        <ele>171</ele>
        <time>2018-01-05T10:44:51Z</time>
      </trkpt>
      <trkpt lat="46.07567" lon="4.74845">
        <ele>171</ele>
        <time>2018-01-05T10:44:52Z</time>
      </trkpt>
      <trkpt lat="46.07572" lon="4.74849">
        <ele>171</ele>
        <time>2018-01-05T10:44:53Z</time>
      </trkpt>
      <trkpt lat="46.07577" lon="4.74853">
        <ele>171</ele>
        <time>2018-01-05T10:44:54Z</time>
      </trkpt>
      <trkpt lat="46.07582" lon="4.74857">
        <ele>171</ele>
        <time>2018-01-05T10:44:55Z</time>
      </trkpt>
      <trkpt lat="46.07587" lon="4.7486">
        <ele>171</ele>
        <time>2018-01-05T10:44:56Z</time>
      </trkpt>
      <trkpt lat="46.07591" lon="4.74865">
        <ele>171</ele>
        <time>2018-01-05T10:44:57Z</time>
      </trkpt>
      <trkpt lat="46.07595" lon="4.74869">
        <ele>171</ele>
        <time>2018-01-05T10:44:58Z</time>
      </trkpt>
      <trkpt lat="46.076" lon="4.74874">
        <ele>171</ele>
        <time>2018-01-05T10:44:59Z</time>
      </trkpt>
      <trkpt lat="46.07605" lon="4.74877">
        <ele>171</ele>
        <time>2018-01-05T10:45:00Z</time>
      </trkpt>
      <trkpt lat="46.0761" lon="4.74881">
        <ele>171</ele>
        <time>2018-01-05T10:45:01Z</time>
      </trkpt>
      <trkpt lat="46.07615" lon="4.74885">
        <ele>171</ele>
        <time>2018-01-05T10:45:02Z</time>
      </trkpt>
      <trkpt lat="46.07619" lon="4.74889">
        <ele>171</ele>
        <time>2018-01-05T10:45:03Z</time>
      </trkpt>
      <trkpt lat="46.07623" lon="4.74893">
        <ele>171</ele>
        <time>2018-01-05T10:45:04Z</time>
      </trkpt>
      <trkpt lat="46.07628" lon="4.74897">
        <ele>171</ele>
        <time>2018-01-05T10:45:05Z</time>
      </trkpt>
      <trkpt lat="46.07634" lon="4.749">
        <ele>171</ele>
        <time>2018-01-05T10:45:06Z</time>
      </trkpt>
      <trkpt lat="46.07639" lon="4.74906">
        <ele>171</ele>
        <time>2018-01-05T10:45:07Z</time>
      </trkpt>
      <trkpt lat="46.07645" lon="4.74909">
        <ele>171</ele>
        <time>2018-01-05T10:45:08Z</time>
      </trkpt>
      <trkpt lat="46.0765" lon="4.74914">
        <ele>171</ele>
        <time>2018-01-05T10:45:09Z</time>
      </trkpt>
      <trkpt lat="46.07656" lon="4.74918">
        <ele>172</ele>
        <time>2018-01-05T10:45:10Z</time>
      </trkpt>
      <trkpt lat="46.07661" lon="4.74922">
        <ele>172</ele>
        <time>2018-01-05T10:45:11Z</time>
      </trkpt>
      <trkpt lat="46.07666" lon="4.74926">
        <ele>172</ele>
        <time>2018-01-05T10:45:12Z</time>
      </trkpt>
      <trkpt lat="46.07671" lon="4.7493">
        <ele>172</ele>
        <time>2018-01-05T10:45:13Z</time>
      </trkpt>
      <trkpt lat="46.07675" lon="4.74934">
        <ele>172</ele>
        <time>2018-01-05T10:45:14Z</time>
      </trkpt>
      <trkpt lat="46.07678" lon="4.74939">
        <ele>172</ele>
        <time>2018-01-05T10:45:15Z</time>
      </trkpt>
      <trkpt lat="46.07683" lon="4.74942">
        <ele>172</ele>
        <time>2018-01-05T10:45:16Z</time>
      </trkpt>
      <trkpt lat="46.07687" lon="4.74945">
        <ele>172</ele>
        <time>2018-01-05T10:45:17Z</time>
      </trkpt>
      <trkpt lat="46.07692" lon="4.74948">
        <ele>172</ele>
        <time>2018-01-05T10:45:18Z</time>
      </trkpt>
      <trkpt lat="46.07697" lon="4.74952">
        <ele>172</ele>
        <time>2018-01-05T10:45:19Z</time>
      </trkpt>
      <trkpt lat="46.07702" lon="4.74957">
        <ele>172</ele>
        <time>2018-01-05T10:45:20Z</time>
      </trkpt>
      <trkpt lat="46.07707" lon="4.7496">
        <ele>172</ele>
        <time>2018-01-05T10:45:21Z</time>
      </trkpt>
      <trkpt lat="46.07711" lon="4.74965">
        <ele>172</ele>
        <time>2018-01-05T10:45:22Z</time>
      </trkpt>
      <trkpt lat="46.07716" lon="4.74969">
        <ele>172</ele>
        <time>2018-01-05T10:45:23Z</time>
      </trkpt>
      <trkpt lat="46.07721" lon="4.74973">
        <ele>172</ele>
        <time>2018-01-05T10:45:24Z</time>
      </trkpt>
      <trkpt lat="46.07725" lon="4.74977">
        <ele>172</ele>
        <time>2018-01-05T10:45:25Z</time>
      </trkpt>
      <trkpt lat="46.0773" lon="4.7498">
        <ele>172</ele>
        <time>2018-01-05T10:45:26Z</time>
      </trkpt>
      <trkpt lat="46.07737" lon="4.74987">
        <ele>173</ele>
        <time>2018-01-05T10:45:28Z</time>
      </trkpt>
      <trkpt lat="46.07741" lon="4.7499">
        <ele>173</ele>
        <time>2018-01-05T10:45:29Z</time>
      </trkpt>
      <trkpt lat="46.07745" lon="4.74994">
        <ele>173</ele>
        <time>2018-01-05T10:45:30Z</time>
      </trkpt>
      <trkpt lat="46.07749" lon="4.74998">
        <ele>173</ele>
        <time>2018-01-05T10:45:31Z</time>
      </trkpt>
      <trkpt lat="46.07752" lon="4.75002">
        <ele>173</ele>
        <time>2018-01-05T10:45:32Z</time>
      </trkpt>
      <trkpt lat="46.07756" lon="4.75006">
        <ele>173</ele>
        <time>2018-01-05T10:45:33Z</time>
      </trkpt>
      <trkpt lat="46.07761" lon="4.75009">
        <ele>172</ele>
        <time>2018-01-05T10:45:34Z</time>
      </trkpt>
      <trkpt lat="46.07767" lon="4.75012">
        <ele>172</ele>
        <time>2018-01-05T10:45:35Z</time>
      </trkpt>
      <trkpt lat="46.07771" lon="4.75016">
        <ele>172</ele>
        <time>2018-01-05T10:45:36Z</time>
      </trkpt>
      <trkpt lat="46.07775" lon="4.75021">
        <ele>172</ele>
        <time>2018-01-05T10:45:37Z</time>
      </trkpt>
      <trkpt lat="46.0778" lon="4.75025">
        <ele>172</ele>
        <time>2018-01-05T10:45:38Z</time>
      </trkpt>
      <trkpt lat="46.07784" lon="4.75029">
        <ele>172</ele>
        <time>2018-01-05T10:45:39Z</time>
      </trkpt>
      <trkpt lat="46.07791" lon="4.75034">
        <ele>172</ele>
        <time>2018-01-05T10:45:40Z</time>
      </trkpt>
      <trkpt lat="46.07796" lon="4.75037">
        <ele>171</ele>
        <time>2018-01-05T10:45:41Z</time>
      </trkpt>
      <trkpt lat="46.078" lon="4.75041">
        <ele>171</ele>
        <time>2018-01-05T10:45:42Z</time>
      </trkpt>
      <trkpt lat="46.07804" lon="4.75044">
        <ele>171</ele>
        <time>2018-01-05T10:45:43Z</time>
      </trkpt>
      <trkpt lat="46.07811" lon="4.75048">
        <ele>171</ele>
        <time>2018-01-05T10:45:44Z</time>
      </trkpt>
      <trkpt lat="46.07815" lon="4.75052">
        <ele>171</ele>
        <time>2018-01-05T10:45:45Z</time>
      </trkpt>
      <trkpt lat="46.07821" lon="4.75057">
        <ele>171</ele>
        <time>2018-01-05T10:45:46Z</time>
      </trkpt>
      <trkpt lat="46.07826" lon="4.75061">
        <ele>171</ele>
        <time>2018-01-05T10:45:47Z</time>
      </trkpt>
      <trkpt lat="46.07831" lon="4.75065">
        <ele>171</ele>
        <time>2018-01-05T10:45:48Z</time>
      </trkpt>
      <trkpt lat="46.07835" lon="4.7507">
        <ele>171</ele>
        <time>2018-01-05T10:45:49Z</time>
      </trkpt>
      <trkpt lat="46.07839" lon="4.75074">
        <ele>171</ele>
        <time>2018-01-05T10:45:50Z</time>
      </trkpt>
      <trkpt lat="46.07842" lon="4.7508">
        <ele>171</ele>
        <time>2018-01-05T10:45:51Z</time>
      </trkpt>
      <trkpt lat="46.07846" lon="4.75085">
        <ele>171</ele>
        <time>2018-01-05T10:45:52Z</time>
      </trkpt>
      <trkpt lat="46.0785" lon="4.75091">
        <ele>171</ele>
        <time>2018-01-05T10:45:53Z</time>
      </trkpt>
      <trkpt lat="46.07854" lon="4.75097">
        <ele>171</ele>
        <time>2018-01-05T10:45:54Z</time>
      </trkpt>
      <trkpt lat="46.07858" lon="4.75102">
        <ele>171</ele>
        <time>2018-01-05T10:45:55Z</time>
      </trkpt>
      <trkpt lat="46.07862" lon="4.75108">
        <ele>171</ele>
        <time>2018-01-05T10:45:56Z</time>
      </trkpt>
      <trkpt lat="46.07866" lon="4.75114">
        <ele>171</ele>
        <time>2018-01-05T10:45:57Z</time>
      </trkpt>
      <trkpt lat="46.0787" lon="4.75121">
        <ele>171</ele>
        <time>2018-01-05T10:45:58Z</time>
      </trkpt>
      <trkpt lat="46.07873" lon="4.75128">
        <ele>171</ele>
        <time>2018-01-05T10:45:59Z</time>
      </trkpt>
      <trkpt lat="46.07876" lon="4.75134">
        <ele>171</ele>
        <time>2018-01-05T10:46:00Z</time>
      </trkpt>
      <trkpt lat="46.07879" lon="4.7514">
        <ele>171</ele>
        <time>2018-01-05T10:46:01Z</time>
      </trkpt>
      <trkpt lat="46.07881" lon="4.75145">
        <ele>171</ele>
        <time>2018-01-05T10:46:02Z</time>
      </trkpt>
      <trkpt lat="46.07884" lon="4.75151">
        <ele>171</ele>
        <time>2018-01-05T10:46:03Z</time>
      </trkpt>
      <trkpt lat="46.07888" lon="4.75157">
        <ele>171</ele>
        <time>2018-01-05T10:46:04Z</time>
      </trkpt>
      <trkpt lat="46.07891" lon="4.75164">
        <ele>171</ele>
        <time>2018-01-05T10:46:05Z</time>
      </trkpt>
      <trkpt lat="46.07895" lon="4.7517">
        <ele>171</ele>
        <time>2018-01-05T10:46:06Z</time>
      </trkpt>
      <trkpt lat="46.07897" lon="4.75176">
        <ele>171</ele>
        <time>2018-01-05T10:46:07Z</time>
      </trkpt>
      <trkpt lat="46.079" lon="4.7518">
        <ele>171</ele>
        <time>2018-01-05T10:46:08Z</time>
      </trkpt>
      <trkpt lat="46.07903" lon="4.75186">
        <ele>171</ele>
        <time>2018-01-05T10:46:09Z</time>
      </trkpt>
      <trkpt lat="46.07906" lon="4.7519">
        <ele>171</ele>
        <time>2018-01-05T10:46:10Z</time>
      </trkpt>
      <trkpt lat="46.07909" lon="4.75195">
        <ele>171</ele>
        <time>2018-01-05T10:46:11Z</time>
      </trkpt>
      <trkpt lat="46.07913" lon="4.75202">
        <ele>171</ele>
        <time>2018-01-05T10:46:12Z</time>
      </trkpt>
      <trkpt lat="46.07916" lon="4.75208">
        <ele>171</ele>
        <time>2018-01-05T10:46:13Z</time>
      </trkpt>
      <trkpt lat="46.0792" lon="4.75215">
        <ele>171</ele>
        <time>2018-01-05T10:46:14Z</time>
      </trkpt>
      <trkpt lat="46.07923" lon="4.75221">
        <ele>171</ele>
        <time>2018-01-05T10:46:15Z</time>
      </trkpt>
      <trkpt lat="46.07925" lon="4.75228">
        <ele>171</ele>
        <time>2018-01-05T10:46:16Z</time>
      </trkpt>
      <trkpt lat="46.07928" lon="4.75233">
        <ele>170</ele>
        <time>2018-01-05T10:46:17Z</time>
      </trkpt>
      <trkpt lat="46.07931" lon="4.7524">
        <ele>170</ele>
        <time>2018-01-05T10:46:18Z</time>
      </trkpt>
      <trkpt lat="46.07934" lon="4.75248">
        <ele>170</ele>
        <time>2018-01-05T10:46:19Z</time>
      </trkpt>
      <trkpt lat="46.07937" lon="4.75254">
        <ele>170</ele>
        <time>2018-01-05T10:46:20Z</time>
      </trkpt>
      <trkpt lat="46.0794" lon="4.75259">
        <ele>170</ele>
        <time>2018-01-05T10:46:21Z</time>
      </trkpt>
      <trkpt lat="46.07944" lon="4.7527">
        <ele>169</ele>
        <time>2018-01-05T10:46:23Z</time>
      </trkpt>
      <trkpt lat="46.07947" lon="4.75276">
        <ele>169</ele>
        <time>2018-01-05T10:46:24Z</time>
      </trkpt>
      <trkpt lat="46.07949" lon="4.75282">
        <ele>169</ele>
        <time>2018-01-05T10:46:25Z</time>
      </trkpt>
      <trkpt lat="46.07952" lon="4.75288">
        <ele>169</ele>
        <time>2018-01-05T10:46:26Z</time>
      </trkpt>
      <trkpt lat="46.07956" lon="4.75294">
        <ele>169</ele>
        <time>2018-01-05T10:46:27Z</time>
      </trkpt>
      <trkpt lat="46.07958" lon="4.75302">
        <ele>169</ele>
        <time>2018-01-05T10:46:28Z</time>
      </trkpt>
      <trkpt lat="46.07962" lon="4.75309">
        <ele>169</ele>
        <time>2018-01-05T10:46:29Z</time>
      </trkpt>
      <trkpt lat="46.07965" lon="4.75317">
        <ele>169</ele>
        <time>2018-01-05T10:46:30Z</time>
      </trkpt>
      <trkpt lat="46.07969" lon="4.75323">
        <ele>169</ele>
        <time>2018-01-05T10:46:31Z</time>
      </trkpt>
      <trkpt lat="46.07972" lon="4.7533">
        <ele>169</ele>
        <time>2018-01-05T10:46:32Z</time>
      </trkpt>
      <trkpt lat="46.07975" lon="4.75337">
        <ele>168</ele>
        <time>2018-01-05T10:46:33Z</time>
      </trkpt>
      <trkpt lat="46.07979" lon="4.75344">
        <ele>168</ele>
        <time>2018-01-05T10:46:34Z</time>
      </trkpt>
      <trkpt lat="46.07982" lon="4.75351">
        <ele>168</ele>
        <time>2018-01-05T10:46:35Z</time>
      </trkpt>
      <trkpt lat="46.07985" lon="4.75357">
        <ele>168</ele>
        <time>2018-01-05T10:46:36Z</time>
      </trkpt>
      <trkpt lat="46.07987" lon="4.75363">
        <ele>168</ele>
        <time>2018-01-05T10:46:37Z</time>
      </trkpt>
      <trkpt lat="46.0799" lon="4.75369">
        <ele>168</ele>
        <time>2018-01-05T10:46:38Z</time>
      </trkpt>
      <trkpt lat="46.07993" lon="4.75375">
        <ele>168</ele>
        <time>2018-01-05T10:46:39Z</time>
      </trkpt>
      <trkpt lat="46.07996" lon="4.75381">
        <ele>168</ele>
        <time>2018-01-05T10:46:40Z</time>
      </trkpt>
      <trkpt lat="46.08001" lon="4.75391">
        <ele>167</ele>
        <time>2018-01-05T10:46:42Z</time>
      </trkpt>
      <trkpt lat="46.08005" lon="4.75396">
        <ele>167</ele>
        <time>2018-01-05T10:46:43Z</time>
      </trkpt>
      <trkpt lat="46.08007" lon="4.75402">
        <ele>166</ele>
        <time>2018-01-05T10:46:44Z</time>
      </trkpt>
      <trkpt lat="46.08011" lon="4.75409">
        <ele>166</ele>
        <time>2018-01-05T10:46:45Z</time>
      </trkpt>
      <trkpt lat="46.08017" lon="4.75416">
        <ele>166</ele>
        <time>2018-01-05T10:46:48Z</time>
      </trkpt>
      <trkpt lat="46.08017" lon="4.75422">
        <ele>166</ele>
        <time>2018-01-05T10:46:49Z</time>
      </trkpt>
      <trkpt lat="46.08019" lon="4.75428">
        <ele>166</ele>
        <time>2018-01-05T10:46:50Z</time>
      </trkpt>
      <trkpt lat="46.08022" lon="4.75435">
        <ele>166</ele>
        <time>2018-01-05T10:46:51Z</time>
      </trkpt>
      <trkpt lat="46.08027" lon="4.75444">
        <ele>166</ele>
        <time>2018-01-05T10:46:53Z</time>
      </trkpt>
      <trkpt lat="46.0803" lon="4.75449">
        <ele>166</ele>
        <time>2018-01-05T10:46:54Z</time>
      </trkpt>
      <trkpt lat="46.08034" lon="4.75457">
        <ele>166</ele>
        <time>2018-01-05T10:46:56Z</time>
      </trkpt>
      <trkpt lat="46.08036" lon="4.75461">
        <ele>166</ele>
        <time>2018-01-05T10:46:57Z</time>
      </trkpt>
      <trkpt lat="46.08041" lon="4.75471">
        <ele>166</ele>
        <time>2018-01-05T10:46:59Z</time>
      </trkpt>
      <trkpt lat="46.08044" lon="4.75476">
        <ele>166</ele>
        <time>2018-01-05T10:47:00Z</time>
      </trkpt>
      <trkpt lat="46.08047" lon="4.75484">
        <ele>166</ele>
        <time>2018-01-05T10:47:01Z</time>
      </trkpt>
      <trkpt lat="46.08049" lon="4.75489">
        <ele>166</ele>
        <time>2018-01-05T10:47:02Z</time>
      </trkpt>
      <trkpt lat="46.08053" lon="4.75497">
        <ele>166</ele>
        <time>2018-01-05T10:47:04Z</time>
      </trkpt>
      <trkpt lat="46.08056" lon="4.75503">
        <ele>167</ele>
        <time>2018-01-05T10:47:05Z</time>
      </trkpt>
      <trkpt lat="46.0806" lon="4.75514">
        <ele>167</ele>
        <time>2018-01-05T10:47:07Z</time>
      </trkpt>
      <trkpt lat="46.08064" lon="4.75522">
        <ele>168</ele>
        <time>2018-01-05T10:47:08Z</time>
      </trkpt>
      <trkpt lat="46.08066" lon="4.75526">
        <ele>168</ele>
        <time>2018-01-05T10:47:09Z</time>
      </trkpt>
      <trkpt lat="46.08069" lon="4.75534">
        <ele>168</ele>
        <time>2018-01-05T10:47:10Z</time>
      </trkpt>
      <trkpt lat="46.08073" lon="4.75542">
        <ele>169</ele>
        <time>2018-01-05T10:47:11Z</time>
      </trkpt>
      <trkpt lat="46.08076" lon="4.7555">
        <ele>169</ele>
        <time>2018-01-05T10:47:12Z</time>
      </trkpt>
      <trkpt lat="46.08079" lon="4.75555">
        <ele>170</ele>
        <time>2018-01-05T10:47:13Z</time>
      </trkpt>
      <trkpt lat="46.08083" lon="4.75561">
        <ele>170</ele>
        <time>2018-01-05T10:47:14Z</time>
      </trkpt>
      <trkpt lat="46.08088" lon="4.75572">
        <ele>173</ele>
        <time>2018-01-05T10:47:16Z</time>
      </trkpt>
      <trkpt lat="46.0809" lon="4.75575">
        <ele>173</ele>
        <time>2018-01-05T10:47:17Z</time>
      </trkpt>
      <trkpt lat="46.08087" lon="4.75584">
        <ele>174</ele>
        <time>2018-01-05T10:47:22Z</time>
      </trkpt>
      <trkpt lat="46.08084" lon="4.75587">
        <ele>174</ele>
        <time>2018-01-05T10:47:23Z</time>
      </trkpt>
      <trkpt lat="46.08079" lon="4.75594">
        <ele>174</ele>
        <time>2018-01-05T10:47:25Z</time>
      </trkpt>
      <trkpt lat="46.08076" lon="4.75597">
        <ele>173</ele>
        <time>2018-01-05T10:47:26Z</time>
      </trkpt>
      <trkpt lat="46.08067" lon="4.756">
        <ele>173</ele>
        <time>2018-01-05T10:47:31Z</time>
      </trkpt>
      <trkpt lat="46.08066" lon="4.75601">
        <ele>173</ele>
        <time>2018-01-05T10:47:32Z</time>
      </trkpt>
      <trkpt lat="46.08058" lon="4.75607">
        <ele>173</ele>
        <time>2018-01-05T10:47:36Z</time>
      </trkpt>
      <trkpt lat="46.08057" lon="4.75608">
        <ele>173</ele>
        <time>2018-01-05T10:47:37Z</time>
      </trkpt>
      <trkpt lat="46.08054" lon="4.7562">
        <ele>173</ele>
        <time>2018-01-05T10:47:48Z</time>
      </trkpt>
      <trkpt lat="46.08054" lon="4.75621">
        <ele>173</ele>
        <time>2018-01-05T10:47:49Z</time>
      </trkpt>
      <trkpt lat="46.08048" lon="4.75629">
        <ele>173</ele>
        <time>2018-01-05T10:48:25Z</time>
      </trkpt>
      <trkpt lat="46.08047" lon="4.7563">
        <ele>173</ele>
        <time>2018-01-05T10:48:26Z</time>
      </trkpt>
      <trkpt lat="46.08049" lon="4.75618">
        <ele>173</ele>
        <time>2018-01-05T10:52:56Z</time>
      </trkpt>
      <trkpt lat="46.08049" lon="4.75617">
        <ele>173</ele>
        <time>2018-01-05T10:52:57Z</time>
      </trkpt>
      <trkpt lat="46.08053" lon="4.75627">
        <ele>173</ele>
        <time>2018-01-05T10:56:52Z</time>
      </trkpt>
      <trkpt lat="46.08054" lon="4.75628">
        <ele>173</ele>
        <time>2018-01-05T10:56:53Z</time>
      </trkpt>
      <trkpt lat="46.08048" lon="4.75636">
        <ele>173</ele>
        <time>2018-01-05T10:56:58Z</time>
      </trkpt>
      <trkpt lat="46.08046" lon="4.75636">
        <ele>173</ele>
        <time>2018-01-05T10:56:59Z</time>
      </trkpt>
      <trkpt lat="46.08038" lon="4.7564">
        <ele>173</ele>
        <time>2018-01-05T10:57:03Z</time>
      </trkpt>
      <trkpt lat="46.08037" lon="4.75641">
        <ele>174</ele>
        <time>2018-01-05T10:57:04Z</time>
      </trkpt>
      <trkpt lat="46.08031" lon="4.75649">
        <ele>174</ele>
        <time>2018-01-05T10:57:09Z</time>
      </trkpt>
      <trkpt lat="46.08029" lon="4.75651">
        <ele>174</ele>
        <time>2018-01-05T10:57:10Z</time>
      </trkpt>
      <trkpt lat="46.08021" lon="4.75652">
        <ele>174</ele>
        <time>2018-01-05T10:57:13Z</time>
      </trkpt>
      <trkpt lat="46.08018" lon="4.75652">
        <ele>174</ele>
        <time>2018-01-05T10:57:14Z</time>
      </trkpt>
      <trkpt lat="46.0801" lon="4.75652">
        <ele>174</ele>
        <time>2018-01-05T10:57:17Z</time>
      </trkpt>
      <trkpt lat="46.08008" lon="4.75653">
        <ele>174</ele>
        <time>2018-01-05T10:57:18Z</time>
      </trkpt>
      <trkpt lat="46.08002" lon="4.75657">
        <ele>175</ele>
        <time>2018-01-05T10:57:20Z</time>
      </trkpt>
      <trkpt lat="46.07999" lon="4.75659">
        <ele>174</ele>
        <time>2018-01-05T10:57:21Z</time>
      </trkpt>
      <trkpt lat="46.07994" lon="4.75665">
        <ele>174</ele>
        <time>2018-01-05T10:57:23Z</time>
      </trkpt>
      <trkpt lat="46.07991" lon="4.75669">
        <ele>175</ele>
        <time>2018-01-05T10:57:24Z</time>
      </trkpt>
      <trkpt lat="46.07984" lon="4.75674">
        <ele>174</ele>
        <time>2018-01-05T10:57:26Z</time>
      </trkpt>
      <trkpt lat="46.07981" lon="4.75677">
        <ele>174</ele>
        <time>2018-01-05T10:57:27Z</time>
      </trkpt>
      <trkpt lat="46.07973" lon="4.75683">
        <ele>173</ele>
        <time>2018-01-05T10:57:29Z</time>
      </trkpt>
      <trkpt lat="46.0797" lon="4.75687">
        <ele>173</ele>
        <time>2018-01-05T10:57:30Z</time>
      </trkpt>
      <trkpt lat="46.07964" lon="4.75696">
        <ele>173</ele>
        <time>2018-01-05T10:57:32Z</time>
      </trkpt>
      <trkpt lat="46.07962" lon="4.757">
        <ele>173</ele>
        <time>2018-01-05T10:57:33Z</time>
      </trkpt>
      <trkpt lat="46.07956" lon="4.75707">
        <ele>173</ele>
        <time>2018-01-05T10:57:35Z</time>
      </trkpt>
      <trkpt lat="46.07953" lon="4.7571">
        <ele>173</ele>
        <time>2018-01-05T10:57:36Z</time>
      </trkpt>
      <trkpt lat="46.07946" lon="4.75716">
        <ele>173</ele>
        <time>2018-01-05T10:57:38Z</time>
      </trkpt>
      <trkpt lat="46.07943" lon="4.75719">
        <ele>173</ele>
        <time>2018-01-05T10:57:39Z</time>
      </trkpt>
      <trkpt lat="46.07936" lon="4.75725">
        <ele>173</ele>
        <time>2018-01-05T10:57:41Z</time>
      </trkpt>
      <trkpt lat="46.07932" lon="4.75728">
        <ele>173</ele>
        <time>2018-01-05T10:57:42Z</time>
      </trkpt>
      <trkpt lat="46.07924" lon="4.75734">
        <ele>173</ele>
        <time>2018-01-05T10:57:44Z</time>
      </trkpt>
      <trkpt lat="46.07921" lon="4.75738">
        <ele>173</ele>
        <time>2018-01-05T10:57:45Z</time>
      </trkpt>
      <trkpt lat="46.07917" lon="4.75742">
        <ele>173</ele>
        <time>2018-01-05T10:57:46Z</time>
      </trkpt>
      <trkpt lat="46.07913" lon="4.75746">
        <ele>172</ele>
        <time>2018-01-05T10:57:47Z</time>
      </trkpt>
      <trkpt lat="46.07906" lon="4.75753">
        <ele>172</ele>
        <time>2018-01-05T10:57:49Z</time>
      </trkpt>
      <trkpt lat="46.07903" lon="4.75757">
        <ele>172</ele>
        <time>2018-01-05T10:57:50Z</time>
      </trkpt>
      <trkpt lat="46.079" lon="4.75764">
        <ele>172</ele>
        <time>2018-01-05T10:57:51Z</time>
      </trkpt>
      <trkpt lat="46.07896" lon="4.75767">
        <ele>172</ele>
        <time>2018-01-05T10:57:52Z</time>
      </trkpt>
      <trkpt lat="46.07891" lon="4.7577">
        <ele>172</ele>
        <time>2018-01-05T10:57:53Z</time>
      </trkpt>
      <trkpt lat="46.07887" lon="4.75774">
        <ele>172</ele>
        <time>2018-01-05T10:57:54Z</time>
      </trkpt>
      <trkpt lat="46.07883" lon="4.75779">
        <ele>171</ele>
        <time>2018-01-05T10:57:55Z</time>
      </trkpt>
      <trkpt lat="46.07879" lon="4.75783">
        <ele>171</ele>
        <time>2018-01-05T10:57:56Z</time>
      </trkpt>
      <trkpt lat="46.07875" lon="4.75787">
        <ele>171</ele>
        <time>2018-01-05T10:57:57Z</time>
      </trkpt>
      <trkpt lat="46.07871" lon="4.7579">
        <ele>171</ele>
        <time>2018-01-05T10:57:58Z</time>
      </trkpt>
      <trkpt lat="46.07864" lon="4.75796">
        <ele>171</ele>
        <time>2018-01-05T10:58:00Z</time>
      </trkpt>
      <trkpt lat="46.0786" lon="4.758">
        <ele>171</ele>
        <time>2018-01-05T10:58:01Z</time>
      </trkpt>
      <trkpt lat="46.07852" lon="4.75806">
        <ele>172</ele>
        <time>2018-01-05T10:58:03Z</time>
      </trkpt>
      <trkpt lat="46.07848" lon="4.75809">
        <ele>172</ele>
        <time>2018-01-05T10:58:04Z</time>
      </trkpt>
      <trkpt lat="46.07842" lon="4.75816">
        <ele>172</ele>
        <time>2018-01-05T10:58:06Z</time>
      </trkpt>
      <trkpt lat="46.07839" lon="4.7582">
        <ele>172</ele>
        <time>2018-01-05T10:58:07Z</time>
      </trkpt>
      <trkpt lat="46.07832" lon="4.75828">
        <ele>172</ele>
        <time>2018-01-05T10:58:09Z</time>
      </trkpt>
      <trkpt lat="46.07828" lon="4.75831">
        <ele>172</ele>
        <time>2018-01-05T10:58:10Z</time>
      </trkpt>
      <trkpt lat="46.07822" lon="4.75838">
        <ele>173</ele>
        <time>2018-01-05T10:58:12Z</time>
      </trkpt>
      <trkpt lat="46.0782" lon="4.75842">
        <ele>172</ele>
        <time>2018-01-05T10:58:13Z</time>
      </trkpt>
      <trkpt lat="46.07814" lon="4.75849">
        <ele>172</ele>
        <time>2018-01-05T10:58:15Z</time>
      </trkpt>
      <trkpt lat="46.07811" lon="4.75852">
        <ele>172</ele>
        <time>2018-01-05T10:58:16Z</time>
      </trkpt>
      <trkpt lat="46.07803" lon="4.75858">
        <ele>172</ele>
        <time>2018-01-05T10:58:18Z</time>
      </trkpt>
      <trkpt lat="46.078" lon="4.75862">
        <ele>172</ele>
        <time>2018-01-05T10:58:19Z</time>
      </trkpt>
      <trkpt lat="46.07792" lon="4.75867">
        <ele>172</ele>
        <time>2018-01-05T10:58:21Z</time>
      </trkpt>
      <trkpt lat="46.07788" lon="4.75871">
        <ele>172</ele>
        <time>2018-01-05T10:58:22Z</time>
      </trkpt>
      <trkpt lat="46.07781" lon="4.75879">
        <ele>172</ele>
        <time>2018-01-05T10:58:24Z</time>
      </trkpt>
      <trkpt lat="46.07778" lon="4.75882">
        <ele>172</ele>
        <time>2018-01-05T10:58:25Z</time>
      </trkpt>
      <trkpt lat="46.0777" lon="4.75888">
        <ele>172</ele>
        <time>2018-01-05T10:58:27Z</time>
      </trkpt>
      <trkpt lat="46.07767" lon="4.75891">
        <ele>172</ele>
        <time>2018-01-05T10:58:28Z</time>
      </trkpt>
      <trkpt lat="46.0776" lon="4.75897">
        <ele>173</ele>
        <time>2018-01-05T10:58:30Z</time>
      </trkpt>
      <trkpt lat="46.07756" lon="4.75902">
        <ele>173</ele>
        <time>2018-01-05T10:58:31Z</time>
      </trkpt>
      <trkpt lat="46.07749" lon="4.7591">
        <ele>172</ele>
        <time>2018-01-05T10:58:33Z</time>
      </trkpt>
      <trkpt lat="46.07745" lon="4.75912">
        <ele>172</ele>
        <time>2018-01-05T10:58:34Z</time>
      </trkpt>
      <trkpt lat="46.07741" lon="4.75914">
        <ele>172</ele>
        <time>2018-01-05T10:58:35Z</time>
      </trkpt>
      <trkpt lat="46.07737" lon="4.75917">
        <ele>173</ele>
        <time>2018-01-05T10:58:36Z</time>
      </trkpt>
      <trkpt lat="46.07729" lon="4.75922">
        <ele>173</ele>
        <time>2018-01-05T10:58:38Z</time>
      </trkpt>
      <trkpt lat="46.07726" lon="4.75925">
        <ele>173</ele>
        <time>2018-01-05T10:58:39Z</time>
      </trkpt>
      <trkpt lat="46.07722" lon="4.75929">
        <ele>172</ele>
        <time>2018-01-05T10:58:40Z</time>
      </trkpt>
      <trkpt lat="46.07718" lon="4.75933">
        <ele>172</ele>
        <time>2018-01-05T10:58:41Z</time>
      </trkpt>
      <trkpt lat="46.07715" lon="4.75937">
        <ele>172</ele>
        <time>2018-01-05T10:58:42Z</time>
      </trkpt>
      <trkpt lat="46.0771" lon="4.75941">
        <ele>172</ele>
        <time>2018-01-05T10:58:43Z</time>
      </trkpt>
      <trkpt lat="46.07706" lon="4.75944">
        <ele>172</ele>
        <time>2018-01-05T10:58:44Z</time>
      </trkpt>
      <trkpt lat="46.07702" lon="4.75947">
        <ele>172</ele>
        <time>2018-01-05T10:58:45Z</time>
      </trkpt>
      <trkpt lat="46.07698" lon="4.7595">
        <ele>172</ele>
        <time>2018-01-05T10:58:46Z</time>
      </trkpt>
      <trkpt lat="46.07694" lon="4.75953">
        <ele>172</ele>
        <time>2018-01-05T10:58:47Z</time>
      </trkpt>
      <trkpt lat="46.07686" lon="4.75958">
        <ele>172</ele>
        <time>2018-01-05T10:58:49Z</time>
      </trkpt>
      <trkpt lat="46.07682" lon="4.7596">
        <ele>172</ele>
        <time>2018-01-05T10:58:50Z</time>
      </trkpt>
      <trkpt lat="46.07675" lon="4.75967">
        <ele>172</ele>
        <time>2018-01-05T10:58:52Z</time>
      </trkpt>
      <trkpt lat="46.07672" lon="4.75967">
        <ele>172</ele>
        <time>2018-01-05T10:58:53Z</time>
      </trkpt>
      <trkpt lat="46.07665" lon="4.75971">
        <ele>170</ele>
        <time>2018-01-05T10:58:55Z</time>
      </trkpt>
      <trkpt lat="46.07662" lon="4.75974">
        <ele>170</ele>
        <time>2018-01-05T10:58:56Z</time>
      </trkpt>
      <trkpt lat="46.07654" lon="4.75979">
        <ele>170</ele>
        <time>2018-01-05T10:58:58Z</time>
      </trkpt>
      <trkpt lat="46.0765" lon="4.75982">
        <ele>170</ele>
        <time>2018-01-05T10:58:59Z</time>
      </trkpt>
      <trkpt lat="46.07644" lon="4.75988">
        <ele>170</ele>
        <time>2018-01-05T10:59:01Z</time>
      </trkpt>
      <trkpt lat="46.07642" lon="4.75992">
        <ele>170</ele>
        <time>2018-01-05T10:59:02Z</time>
      </trkpt>
      <trkpt lat="46.07641" lon="4.76002">
        <ele>172</ele>
        <time>2018-01-05T10:59:04Z</time>
      </trkpt>
      <trkpt lat="46.07642" lon="4.76008">
        <ele>172</ele>
        <time>2018-01-05T10:59:05Z</time>
      </trkpt>
      <trkpt lat="46.07647" lon="4.76019">
        <ele>172</ele>
        <time>2018-01-05T10:59:07Z</time>
      </trkpt>
      <trkpt lat="46.07649" lon="4.76024">
        <ele>172</ele>
        <time>2018-01-05T10:59:08Z</time>
      </trkpt>
      <trkpt lat="46.07652" lon="4.76029">
        <ele>172</ele>
        <time>2018-01-05T10:59:09Z</time>
      </trkpt>
      <trkpt lat="46.07656" lon="4.76034">
        <ele>172</ele>
        <time>2018-01-05T10:59:10Z</time>
      </trkpt>
      <trkpt lat="46.07661" lon="4.76044">
        <ele>172</ele>
        <time>2018-01-05T10:59:12Z</time>
      </trkpt>
      <trkpt lat="46.07663" lon="4.76049">
        <ele>172</ele>
        <time>2018-01-05T10:59:13Z</time>
      </trkpt>
      <trkpt lat="46.07665" lon="4.76058">
        <ele>172</ele>
        <time>2018-01-05T10:59:15Z</time>
      </trkpt>
      <trkpt lat="46.07667" lon="4.76063">
        <ele>172</ele>
        <time>2018-01-05T10:59:16Z</time>
      </trkpt>
      <trkpt lat="46.07671" lon="4.76073">
        <ele>174</ele>
        <time>2018-01-05T10:59:18Z</time>
      </trkpt>
      <trkpt lat="46.07672" lon="4.76078">
        <ele>173</ele>
        <time>2018-01-05T10:59:19Z</time>
      </trkpt>
      <trkpt lat="46.07676" lon="4.76087">
        <ele>173</ele>
        <time>2018-01-05T10:59:21Z</time>
      </trkpt>
      <trkpt lat="46.07677" lon="4.76092">
        <ele>173</ele>
        <time>2018-01-05T10:59:22Z</time>
      </trkpt>
      <trkpt lat="46.0768" lon="4.76101">
        <ele>173</ele>
        <time>2018-01-05T10:59:24Z</time>
      </trkpt>
      <trkpt lat="46.0768" lon="4.76106">
        <ele>173</ele>
        <time>2018-01-05T10:59:25Z</time>
      </trkpt>
      <trkpt lat="46.07677" lon="4.76117">
        <ele>173</ele>
        <time>2018-01-05T10:59:27Z</time>
      </trkpt>
      <trkpt lat="46.07673" lon="4.76121">
        <ele>173</ele>
        <time>2018-01-05T10:59:28Z</time>
      </trkpt>
      <trkpt lat="46.07669" lon="4.76124">
        <ele>173</ele>
        <time>2018-01-05T10:59:29Z</time>
      </trkpt>
      <trkpt lat="46.07663" lon="4.76124">
        <ele>172</ele>
        <time>2018-01-05T10:59:30Z</time>
      </trkpt>
      <trkpt lat="46.07659" lon="4.76127">
        <ele>172</ele>
        <time>2018-01-05T10:59:31Z</time>
      </trkpt>
      <trkpt lat="46.07655" lon="4.7613">
        <ele>172</ele>
        <time>2018-01-05T10:59:32Z</time>
      </trkpt>
      <trkpt lat="46.07651" lon="4.76135">
        <ele>172</ele>
        <time>2018-01-05T10:59:33Z</time>
      </trkpt>
      <trkpt lat="46.07647" lon="4.76139">
        <ele>172</ele>
        <time>2018-01-05T10:59:34Z</time>
      </trkpt>
      <trkpt lat="46.07643" lon="4.76144">
        <ele>172</ele>
        <time>2018-01-05T10:59:35Z</time>
      </trkpt>
      <trkpt lat="46.07639" lon="4.76149">
        <ele>172</ele>
        <time>2018-01-05T10:59:36Z</time>
      </trkpt>
      <trkpt lat="46.07634" lon="4.76153">
        <ele>172</ele>
        <time>2018-01-05T10:59:37Z</time>
      </trkpt>
      <trkpt lat="46.0763" lon="4.76156">
        <ele>172</ele>
        <time>2018-01-05T10:59:38Z</time>
      </trkpt>
      <trkpt lat="46.07626" lon="4.76161">
        <ele>172</ele>
        <time>2018-01-05T10:59:39Z</time>
      </trkpt>
      <trkpt lat="46.07622" lon="4.76165">
        <ele>172</ele>
        <time>2018-01-05T10:59:40Z</time>
      </trkpt>
      <trkpt lat="46.07618" lon="4.76168">
        <ele>173</ele>
        <time>2018-01-05T10:59:41Z</time>
      </trkpt>
      <trkpt lat="46.07615" lon="4.76174">
        <ele>173</ele>
        <time>2018-01-05T10:59:42Z</time>
      </trkpt>
      <trkpt lat="46.07611" lon="4.76178">
        <ele>173</ele>
        <time>2018-01-05T10:59:43Z</time>
      </trkpt>
      <trkpt lat="46.07607" lon="4.76183">
        <ele>173</ele>
        <time>2018-01-05T10:59:44Z</time>
      </trkpt>
      <trkpt lat="46.07604" lon="4.76188">
        <ele>173</ele>
        <time>2018-01-05T10:59:45Z</time>
      </trkpt>
      <trkpt lat="46.07599" lon="4.76193">
        <ele>173</ele>
        <time>2018-01-05T10:59:46Z</time>
      </trkpt>
      <trkpt lat="46.07596" lon="4.76196">
        <ele>173</ele>
        <time>2018-01-05T10:59:47Z</time>
      </trkpt>
      <trkpt lat="46.07591" lon="4.762">
        <ele>173</ele>
        <time>2018-01-05T10:59:48Z</time>
      </trkpt>
      <trkpt lat="46.07587" lon="4.76204">
        <ele>173</ele>
        <time>2018-01-05T10:59:49Z</time>
      </trkpt>
      <trkpt lat="46.07584" lon="4.76208">
        <ele>173</ele>
        <time>2018-01-05T10:59:50Z</time>
      </trkpt>
      <trkpt lat="46.0758" lon="4.76212">
        <ele>173</ele>
        <time>2018-01-05T10:59:51Z</time>
      </trkpt>
      <trkpt lat="46.07576" lon="4.76215">
        <ele>173</ele>
        <time>2018-01-05T10:59:52Z</time>
      </trkpt>
      <trkpt lat="46.07569" lon="4.76222">
        <ele>173</ele>
        <time>2018-01-05T10:59:54Z</time>
      </trkpt>
      <trkpt lat="46.07566" lon="4.76226">
        <ele>173</ele>
        <time>2018-01-05T10:59:55Z</time>
      </trkpt>
      <trkpt lat="46.07562" lon="4.7623">
        <ele>173</ele>
        <time>2018-01-05T10:59:56Z</time>
      </trkpt>
      <trkpt lat="46.07558" lon="4.76234">
        <ele>173</ele>
        <time>2018-01-05T10:59:57Z</time>
      </trkpt>
      <trkpt lat="46.07554" lon="4.76237">
        <ele>173</ele>
        <time>2018-01-05T10:59:58Z</time>
      </trkpt>
      <trkpt lat="46.0755" lon="4.76242">
        <ele>173</ele>
        <time>2018-01-05T10:59:59Z</time>
      </trkpt>
      <trkpt lat="46.07547" lon="4.76246">
        <ele>173</ele>
        <time>2018-01-05T11:00:00Z</time>
      </trkpt>
      <trkpt lat="46.07542" lon="4.7625">
        <ele>174</ele>
        <time>2018-01-05T11:00:01Z</time>
      </trkpt>
      <trkpt lat="46.07535" lon="4.76257">
        <ele>174</ele>
        <time>2018-01-05T11:00:03Z</time>
      </trkpt>
      <trkpt lat="46.07532" lon="4.76261">
        <ele>174</ele>
        <time>2018-01-05T11:00:04Z</time>
      </trkpt>
      <trkpt lat="46.07529" lon="4.76267">
        <ele>174</ele>
        <time>2018-01-05T11:00:05Z</time>
      </trkpt>
      <trkpt lat="46.07525" lon="4.76271">
        <ele>174</ele>
        <time>2018-01-05T11:00:06Z</time>
      </trkpt>
      <trkpt lat="46.07521" lon="4.76275">
        <ele>174</ele>
        <time>2018-01-05T11:00:07Z</time>
      </trkpt>
      <trkpt lat="46.07517" lon="4.76279">
        <ele>174</ele>
        <time>2018-01-05T11:00:08Z</time>
      </trkpt>
      <trkpt lat="46.07513" lon="4.76283">
        <ele>174</ele>
        <time>2018-01-05T11:00:09Z</time>
      </trkpt>
      <trkpt lat="46.07509" lon="4.76287">
        <ele>174</ele>
        <time>2018-01-05T11:00:10Z</time>
      </trkpt>
      <trkpt lat="46.07506" lon="4.76291">
        <ele>174</ele>
        <time>2018-01-05T11:00:11Z</time>
      </trkpt>
      <trkpt lat="46.07502" lon="4.76296">
        <ele>174</ele>
        <time>2018-01-05T11:00:12Z</time>
      </trkpt>
      <trkpt lat="46.07499" lon="4.763">
        <ele>173</ele>
        <time>2018-01-05T11:00:13Z</time>
      </trkpt>
      <trkpt lat="46.07495" lon="4.76304">
        <ele>173</ele>
        <time>2018-01-05T11:00:14Z</time>
      </trkpt>
      <trkpt lat="46.07487" lon="4.76309">
        <ele>173</ele>
        <time>2018-01-05T11:00:16Z</time>
      </trkpt>
      <trkpt lat="46.07483" lon="4.7631">
        <ele>173</ele>
        <time>2018-01-05T11:00:17Z</time>
      </trkpt>
      <trkpt lat="46.07474" lon="4.76314">
        <ele>172</ele>
        <time>2018-01-05T11:00:19Z</time>
      </trkpt>
      <trkpt lat="46.0747" lon="4.76318">
        <ele>172</ele>
        <time>2018-01-05T11:00:20Z</time>
      </trkpt>
      <trkpt lat="46.07466" lon="4.76327">
        <ele>172</ele>
        <time>2018-01-05T11:00:22Z</time>
      </trkpt>
      <trkpt lat="46.07464" lon="4.76334">
        <ele>172</ele>
        <time>2018-01-05T11:00:23Z</time>
      </trkpt>
      <trkpt lat="46.07461" lon="4.76338">
        <ele>172</ele>
        <time>2018-01-05T11:00:24Z</time>
      </trkpt>
      <trkpt lat="46.07458" lon="4.76343">
        <ele>172</ele>
        <time>2018-01-05T11:00:25Z</time>
      </trkpt>
      <trkpt lat="46.07454" lon="4.76347">
        <ele>172</ele>
        <time>2018-01-05T11:00:26Z</time>
      </trkpt>
      <trkpt lat="46.0745" lon="4.76351">
        <ele>172</ele>
        <time>2018-01-05T11:00:27Z</time>
      </trkpt>
      <trkpt lat="46.07447" lon="4.76355">
        <ele>172</ele>
        <time>2018-01-05T11:00:28Z</time>
      </trkpt>
      <trkpt lat="46.07443" lon="4.7636">
        <ele>171</ele>
        <time>2018-01-05T11:00:29Z</time>
      </trkpt>
      <trkpt lat="46.07439" lon="4.76363">
        <ele>171</ele>
        <time>2018-01-05T11:00:30Z</time>
      </trkpt>
      <trkpt lat="46.07434" lon="4.76368">
        <ele>171</ele>
        <time>2018-01-05T11:00:31Z</time>
      </trkpt>
      <trkpt lat="46.07428" lon="4.76377">
        <ele>171</ele>
        <time>2018-01-05T11:00:33Z</time>
      </trkpt>
      <trkpt lat="46.07424" lon="4.7638">
        <ele>171</ele>
        <time>2018-01-05T11:00:34Z</time>
      </trkpt>
      <trkpt lat="46.07421" lon="4.76384">
        <ele>171</ele>
        <time>2018-01-05T11:00:35Z</time>
      </trkpt>
      <trkpt lat="46.07417" lon="4.76388">
        <ele>170</ele>
        <time>2018-01-05T11:00:36Z</time>
      </trkpt>
      <trkpt lat="46.07413" lon="4.76392">
        <ele>170</ele>
        <time>2018-01-05T11:00:37Z</time>
      </trkpt>
      <trkpt lat="46.07409" lon="4.76396">
        <ele>170</ele>
        <time>2018-01-05T11:00:38Z</time>
      </trkpt>
      <trkpt lat="46.07405" lon="4.764">
        <ele>170</ele>
        <time>2018-01-05T11:00:39Z</time>
      </trkpt>
      <trkpt lat="46.07401" lon="4.76405">
        <ele>170</ele>
        <time>2018-01-05T11:00:40Z</time>
      </trkpt>
      <trkpt lat="46.07397" lon="4.7641">
        <ele>170</ele>
        <time>2018-01-05T11:00:41Z</time>
      </trkpt>
      <trkpt lat="46.07392" lon="4.76414">
        <ele>170</ele>
        <time>2018-01-05T11:00:42Z</time>
      </trkpt>
      <trkpt lat="46.07388" lon="4.76419">
        <ele>171</ele>
        <time>2018-01-05T11:00:43Z</time>
      </trkpt>
      <trkpt lat="46.07384" lon="4.76424">
        <ele>171</ele>
        <time>2018-01-05T11:00:44Z</time>
      </trkpt>
      <trkpt lat="46.07379" lon="4.76429">
        <ele>171</ele>
        <time>2018-01-05T11:00:45Z</time>
      </trkpt>
      <trkpt lat="46.07375" lon="4.76434">
        <ele>171</ele>
        <time>2018-01-05T11:00:46Z</time>
      </trkpt>
      <trkpt lat="46.0737" lon="4.76439">
        <ele>171</ele>
        <time>2018-01-05T11:00:47Z</time>
      </trkpt>
      <trkpt lat="46.07365" lon="4.76443">
        <ele>171</ele>
        <time>2018-01-05T11:00:48Z</time>
      </trkpt>
      <trkpt lat="46.07361" lon="4.76447">
        <ele>171</ele>
        <time>2018-01-05T11:00:49Z</time>
      </trkpt>
      <trkpt lat="46.07357" lon="4.76451">
        <ele>171</ele>
        <time>2018-01-05T11:00:50Z</time>
      </trkpt>
      <trkpt lat="46.07351" lon="4.76458">
        <ele>171</ele>
        <time>2018-01-05T11:00:52Z</time>
      </trkpt>
      <trkpt lat="46.07347" lon="4.76462">
        <ele>171</ele>
        <time>2018-01-05T11:00:53Z</time>
      </trkpt>
      <trkpt lat="46.0734" lon="4.7647">
        <ele>171</ele>
        <time>2018-01-05T11:00:55Z</time>
      </trkpt>
      <trkpt lat="46.07337" lon="4.76474">
        <ele>171</ele>
        <time>2018-01-05T11:00:56Z</time>
      </trkpt>
      <trkpt lat="46.07333" lon="4.76478">
        <ele>170</ele>
        <time>2018-01-05T11:00:57Z</time>
      </trkpt>
      <trkpt lat="46.07329" lon="4.76482">
        <ele>170</ele>
        <time>2018-01-05T11:00:58Z</time>
      </trkpt>
      <trkpt lat="46.07325" lon="4.76486">
        <ele>170</ele>
        <time>2018-01-05T11:00:59Z</time>
      </trkpt>
      <trkpt lat="46.07321" lon="4.7649">
        <ele>170</ele>
        <time>2018-01-05T11:01:00Z</time>
      </trkpt>
      <trkpt lat="46.07317" lon="4.76496">
        <ele>170</ele>
        <time>2018-01-05T11:01:01Z</time>
      </trkpt>
      <trkpt lat="46.07312" lon="4.76499">
        <ele>170</ele>
        <time>2018-01-05T11:01:02Z</time>
      </trkpt>
      <trkpt lat="46.07308" lon="4.76504">
        <ele>170</ele>
        <time>2018-01-05T11:01:03Z</time>
      </trkpt>
      <trkpt lat="46.07304" lon="4.76509">
        <ele>170</ele>
        <time>2018-01-05T11:01:04Z</time>
      </trkpt>
      <trkpt lat="46.073" lon="4.76514">
        <ele>170</ele>
        <time>2018-01-05T11:01:05Z</time>
      </trkpt>
      <trkpt lat="46.07297" lon="4.76519">
        <ele>170</ele>
        <time>2018-01-05T11:01:06Z</time>
      </trkpt>
      <trkpt lat="46.07289" lon="4.76525">
        <ele>170</ele>
        <time>2018-01-05T11:01:08Z</time>
      </trkpt>
      <trkpt lat="46.07285" lon="4.7653">
        <ele>170</ele>
        <time>2018-01-05T11:01:09Z</time>
      </trkpt>
      <trkpt lat="46.0728" lon="4.76534">
        <ele>170</ele>
        <time>2018-01-05T11:01:10Z</time>
      </trkpt>
      <trkpt lat="46.07276" lon="4.76539">
        <ele>170</ele>
        <time>2018-01-05T11:01:11Z</time>
      </trkpt>
      <trkpt lat="46.07271" lon="4.76543">
        <ele>170</ele>
        <time>2018-01-05T11:01:12Z</time>
      </trkpt>
      <trkpt lat="46.07267" lon="4.76547">
        <ele>170</ele>
        <time>2018-01-05T11:01:13Z</time>
      </trkpt>
      <trkpt lat="46.07263" lon="4.76551">
        <ele>170</ele>
        <time>2018-01-05T11:01:14Z</time>
      </trkpt>
      <trkpt lat="46.07259" lon="4.76556">
        <ele>170</ele>
        <time>2018-01-05T11:01:15Z</time>
      </trkpt>
      <trkpt lat="46.07255" lon="4.7656">
        <ele>170</ele>
        <time>2018-01-05T11:01:16Z</time>
      </trkpt>
      <trkpt lat="46.07251" lon="4.76564">
        <ele>170</ele>
        <time>2018-01-05T11:01:17Z</time>
      </trkpt>
      <trkpt lat="46.07248" lon="4.76569">
        <ele>170</ele>
        <time>2018-01-05T11:01:18Z</time>
      </trkpt>
      <trkpt lat="46.07244" lon="4.76573">
        <ele>170</ele>
        <time>2018-01-05T11:01:19Z</time>
      </trkpt>
      <trkpt lat="46.07238" lon="4.7658">
        <ele>170</ele>
        <time>2018-01-05T11:01:21Z</time>
      </trkpt>
      <trkpt lat="46.07234" lon="4.76586">
        <ele>170</ele>
        <time>2018-01-05T11:01:22Z</time>
      </trkpt>
      <trkpt lat="46.0723" lon="4.76592">
        <ele>170</ele>
        <time>2018-01-05T11:01:23Z</time>
      </trkpt>
      <trkpt lat="46.07227" lon="4.76597">
        <ele>170</ele>
        <time>2018-01-05T11:01:24Z</time>
      </trkpt>
      <trkpt lat="46.07223" lon="4.76602">
        <ele>170</ele>
        <time>2018-01-05T11:01:25Z</time>
      </trkpt>
      <trkpt lat="46.07219" lon="4.76606">
        <ele>170</ele>
        <time>2018-01-05T11:01:26Z</time>
      </trkpt>
      <trkpt lat="46.07214" lon="4.76611">
        <ele>170</ele>
        <time>2018-01-05T11:01:27Z</time>
      </trkpt>
      <trkpt lat="46.0721" lon="4.76616">
        <ele>170</ele>
        <time>2018-01-05T11:01:28Z</time>
      </trkpt>
      <trkpt lat="46.07207" lon="4.76621">
        <ele>171</ele>
        <time>2018-01-05T11:01:29Z</time>
      </trkpt>
      <trkpt lat="46.07203" lon="4.76626">
        <ele>170</ele>
        <time>2018-01-05T11:01:30Z</time>
      </trkpt>
      <trkpt lat="46.07199" lon="4.76631">
        <ele>170</ele>
        <time>2018-01-05T11:01:31Z</time>
      </trkpt>
      <trkpt lat="46.07195" lon="4.76635">
        <ele>170</ele>
        <time>2018-01-05T11:01:32Z</time>
      </trkpt>
      <trkpt lat="46.07192" lon="4.76641">
        <ele>170</ele>
        <time>2018-01-05T11:01:33Z</time>
      </trkpt>
      <trkpt lat="46.07189" lon="4.76645">
        <ele>170</ele>
        <time>2018-01-05T11:01:34Z</time>
      </trkpt>
      <trkpt lat="46.07183" lon="4.76654">
        <ele>170</ele>
        <time>2018-01-05T11:01:36Z</time>
      </trkpt>
      <trkpt lat="46.0718" lon="4.7666">
        <ele>170</ele>
        <time>2018-01-05T11:01:37Z</time>
      </trkpt>
      <trkpt lat="46.07177" lon="4.76665">
        <ele>170</ele>
        <time>2018-01-05T11:01:38Z</time>
      </trkpt>
      <trkpt lat="46.07174" lon="4.7667">
        <ele>170</ele>
        <time>2018-01-05T11:01:39Z</time>
      </trkpt>
      <trkpt lat="46.07172" lon="4.76675">
        <ele>170</ele>
        <time>2018-01-05T11:01:40Z</time>
      </trkpt>
      <trkpt lat="46.07168" lon="4.76682">
        <ele>170</ele>
        <time>2018-01-05T11:01:41Z</time>
      </trkpt>
      <trkpt lat="46.07166" lon="4.76689">
        <ele>170</ele>
        <time>2018-01-05T11:01:42Z</time>
      </trkpt>
      <trkpt lat="46.07163" lon="4.76695">
        <ele>170</ele>
        <time>2018-01-05T11:01:43Z</time>
      </trkpt>
      <trkpt lat="46.07159" lon="4.76702">
        <ele>170</ele>
        <time>2018-01-05T11:01:44Z</time>
      </trkpt>
      <trkpt lat="46.07156" lon="4.76708">
        <ele>170</ele>
        <time>2018-01-05T11:01:45Z</time>
      </trkpt>
      <trkpt lat="46.07153" lon="4.76714">
        <ele>170</ele>
        <time>2018-01-05T11:01:46Z</time>
      </trkpt>
      <trkpt lat="46.07151" lon="4.76719">
        <ele>170</ele>
        <time>2018-01-05T11:01:47Z</time>
      </trkpt>
      <trkpt lat="46.07145" lon="4.76729">
        <ele>170</ele>
        <time>2018-01-05T11:01:49Z</time>
      </trkpt>
      <trkpt lat="46.07143" lon="4.76734">
        <ele>171</ele>
        <time>2018-01-05T11:01:50Z</time>
      </trkpt>
      <trkpt lat="46.07137" lon="4.76743">
        <ele>171</ele>
        <time>2018-01-05T11:01:52Z</time>
      </trkpt>
      <trkpt lat="46.07133" lon="4.7675">
        <ele>171</ele>
        <time>2018-01-05T11:01:53Z</time>
      </trkpt>
      <trkpt lat="46.07128" lon="4.7676">
        <ele>171</ele>
        <time>2018-01-05T11:01:55Z</time>
      </trkpt>
      <trkpt lat="46.07125" lon="4.76766">
        <ele>171</ele>
        <time>2018-01-05T11:01:56Z</time>
      </trkpt>
      <trkpt lat="46.07122" lon="4.76771">
        <ele>171</ele>
        <time>2018-01-05T11:01:57Z</time>
      </trkpt>
      <trkpt lat="46.07119" lon="4.76777">
        <ele>171</ele>
        <time>2018-01-05T11:01:58Z</time>
      </trkpt>
      <trkpt lat="46.07114" lon="4.76786">
        <ele>171</ele>
        <time>2018-01-05T11:02:00Z</time>
      </trkpt>
      <trkpt lat="46.07111" lon="4.76791">
        <ele>171</ele>
        <time>2018-01-05T11:02:01Z</time>
      </trkpt>
      <trkpt lat="46.07108" lon="4.76796">
        <ele>172</ele>
        <time>2018-01-05T11:02:02Z</time>
      </trkpt>
      <trkpt lat="46.07105" lon="4.76802">
        <ele>172</ele>
        <time>2018-01-05T11:02:03Z</time>
      </trkpt>
      <trkpt lat="46.07103" lon="4.76808">
        <ele>172</ele>
        <time>2018-01-05T11:02:04Z</time>
      </trkpt>
      <trkpt lat="46.07099" lon="4.76813">
        <ele>172</ele>
        <time>2018-01-05T11:02:05Z</time>
      </trkpt>
      <trkpt lat="46.07094" lon="4.76824">
        <ele>172</ele>
        <time>2018-01-05T11:02:07Z</time>
      </trkpt>
      <trkpt lat="46.07092" lon="4.7683">
        <ele>172</ele>
        <time>2018-01-05T11:02:08Z</time>
      </trkpt>
      <trkpt lat="46.07089" lon="4.76836">
        <ele>172</ele>
        <time>2018-01-05T11:02:09Z</time>
      </trkpt>
      <trkpt lat="46.07086" lon="4.76842">
        <ele>172</ele>
        <time>2018-01-05T11:02:10Z</time>
      </trkpt>
      <trkpt lat="46.07081" lon="4.76851">
        <ele>172</ele>
        <time>2018-01-05T11:02:12Z</time>
      </trkpt>
      <trkpt lat="46.07079" lon="4.76856">
        <ele>172</ele>
        <time>2018-01-05T11:02:13Z</time>
      </trkpt>
      <trkpt lat="46.07077" lon="4.76862">
        <ele>172</ele>
        <time>2018-01-05T11:02:14Z</time>
      </trkpt>
      <trkpt lat="46.07074" lon="4.76867">
        <ele>172</ele>
        <time>2018-01-05T11:02:15Z</time>
      </trkpt>
      <trkpt lat="46.07072" lon="4.76874">
        <ele>172</ele>
        <time>2018-01-05T11:02:16Z</time>
      </trkpt>
      <trkpt lat="46.07069" lon="4.76879">
        <ele>172</ele>
        <time>2018-01-05T11:02:17Z</time>
      </trkpt>
      <trkpt lat="46.07066" lon="4.76885">
        <ele>172</ele>
        <time>2018-01-05T11:02:18Z</time>
      </trkpt>
      <trkpt lat="46.07063" lon="4.76891">
        <ele>172</ele>
        <time>2018-01-05T11:02:19Z</time>
      </trkpt>
      <trkpt lat="46.0706" lon="4.76896">
        <ele>172</ele>
        <time>2018-01-05T11:02:20Z</time>
      </trkpt>
      <trkpt lat="46.07057" lon="4.76902">
        <ele>172</ele>
        <time>2018-01-05T11:02:21Z</time>
      </trkpt>
      <trkpt lat="46.07054" lon="4.76908">
        <ele>172</ele>
        <time>2018-01-05T11:02:22Z</time>
      </trkpt>
      <trkpt lat="46.07051" lon="4.76913">
        <ele>172</ele>
        <time>2018-01-05T11:02:23Z</time>
      </trkpt>
      <trkpt lat="46.07046" lon="4.76923">
        <ele>173</ele>
        <time>2018-01-05T11:02:25Z</time>
      </trkpt>
      <trkpt lat="46.07044" lon="4.76929">
        <ele>173</ele>
        <time>2018-01-05T11:02:26Z</time>
      </trkpt>
      <trkpt lat="46.07039" lon="4.76939">
        <ele>173</ele>
        <time>2018-01-05T11:02:28Z</time>
      </trkpt>
      <trkpt lat="46.07036" lon="4.76945">
        <ele>173</ele>
        <time>2018-01-05T11:02:29Z</time>
      </trkpt>
      <trkpt lat="46.07033" lon="4.76952">
        <ele>173</ele>
        <time>2018-01-05T11:02:30Z</time>
      </trkpt>
      <trkpt lat="46.0703" lon="4.76958">
        <ele>173</ele>
        <time>2018-01-05T11:02:31Z</time>
      </trkpt>
      <trkpt lat="46.07027" lon="4.76963">
        <ele>173</ele>
        <time>2018-01-05T11:02:32Z</time>
      </trkpt>
      <trkpt lat="46.07024" lon="4.76968">
        <ele>173</ele>
        <time>2018-01-05T11:02:33Z</time>
      </trkpt>
      <trkpt lat="46.07022" lon="4.76974">
        <ele>173</ele>
        <time>2018-01-05T11:02:34Z</time>
      </trkpt>
      <trkpt lat="46.07019" lon="4.7698">
        <ele>173</ele>
        <time>2018-01-05T11:02:35Z</time>
      </trkpt>
      <trkpt lat="46.07016" lon="4.76986">
        <ele>173</ele>
        <time>2018-01-05T11:02:36Z</time>
      </trkpt>
      <trkpt lat="46.07014" lon="4.76991">
        <ele>173</ele>
        <time>2018-01-05T11:02:37Z</time>
      </trkpt>
      <trkpt lat="46.07009" lon="4.77001">
        <ele>173</ele>
        <time>2018-01-05T11:02:39Z</time>
      </trkpt>
      <trkpt lat="46.07006" lon="4.77006">
        <ele>173</ele>
        <time>2018-01-05T11:02:40Z</time>
      </trkpt>
      <trkpt lat="46.07003" lon="4.77012">
        <ele>173</ele>
        <time>2018-01-05T11:02:41Z</time>
      </trkpt>
      <trkpt lat="46.07" lon="4.77017">
        <ele>174</ele>
        <time>2018-01-05T11:02:42Z</time>
      </trkpt>
      <trkpt lat="46.06997" lon="4.77022">
        <ele>173</ele>
        <time>2018-01-05T11:02:43Z</time>
      </trkpt>
      <trkpt lat="46.06994" lon="4.77026">
        <ele>173</ele>
        <time>2018-01-05T11:02:44Z</time>
      </trkpt>
      <trkpt lat="46.06989" lon="4.77035">
        <ele>173</ele>
        <time>2018-01-05T11:02:46Z</time>
      </trkpt>
      <trkpt lat="46.06986" lon="4.7704">
        <ele>173</ele>
        <time>2018-01-05T11:02:47Z</time>
      </trkpt>
      <trkpt lat="46.06981" lon="4.77047">
        <ele>173</ele>
        <time>2018-01-05T11:02:49Z</time>
      </trkpt>
      <trkpt lat="46.06979" lon="4.77052">
        <ele>173</ele>
        <time>2018-01-05T11:02:50Z</time>
      </trkpt>
      <trkpt lat="46.06974" lon="4.77059">
        <ele>173</ele>
        <time>2018-01-05T11:02:52Z</time>
      </trkpt>
      <trkpt lat="46.06971" lon="4.77062">
        <ele>173</ele>
        <time>2018-01-05T11:02:53Z</time>
      </trkpt>
      <trkpt lat="46.06965" lon="4.77067">
        <ele>173</ele>
        <time>2018-01-05T11:02:55Z</time>
      </trkpt>
      <trkpt lat="46.06961" lon="4.77068">
        <ele>173</ele>
        <time>2018-01-05T11:02:56Z</time>
      </trkpt>
      <trkpt lat="46.06952" lon="4.77069">
        <ele>173</ele>
        <time>2018-01-05T11:02:58Z</time>
      </trkpt>
      <trkpt lat="46.06948" lon="4.7707">
        <ele>173</ele>
        <time>2018-01-05T11:02:59Z</time>
      </trkpt>
      <trkpt lat="46.06942" lon="4.7707">
        <ele>173</ele>
        <time>2018-01-05T11:03:00Z</time>
      </trkpt>
      <trkpt lat="46.06937" lon="4.7707">
        <ele>173</ele>
        <time>2018-01-05T11:03:01Z</time>
      </trkpt>
      <trkpt lat="46.06931" lon="4.77071">
        <ele>173</ele>
        <time>2018-01-05T11:03:02Z</time>
      </trkpt>
      <trkpt lat="46.06926" lon="4.77071">
        <ele>173</ele>
        <time>2018-01-05T11:03:03Z</time>
      </trkpt>
      <trkpt lat="46.06921" lon="4.77072">
        <ele>173</ele>
        <time>2018-01-05T11:03:04Z</time>
      </trkpt>
      <trkpt lat="46.06916" lon="4.77072">
        <ele>173</ele>
        <time>2018-01-05T11:03:05Z</time>
      </trkpt>
      <trkpt lat="46.06911" lon="4.77072">
        <ele>173</ele>
        <time>2018-01-05T11:03:06Z</time>
      </trkpt>
      <trkpt lat="46.06907" lon="4.77073">
        <ele>173</ele>
        <time>2018-01-05T11:03:07Z</time>
      </trkpt>
      <trkpt lat="46.06903" lon="4.77072">
        <ele>173</ele>
        <time>2018-01-05T11:03:08Z</time>
      </trkpt>
      <trkpt lat="46.06898" lon="4.77071">
        <ele>173</ele>
        <time>2018-01-05T11:03:09Z</time>
      </trkpt>
      <trkpt lat="46.06889" lon="4.77071">
        <ele>173</ele>
        <time>2018-01-05T11:03:11Z</time>
      </trkpt>
      <trkpt lat="46.06884" lon="4.77071">
        <ele>173</ele>
        <time>2018-01-05T11:03:12Z</time>
      </trkpt>
      <trkpt lat="46.06879" lon="4.77072">
        <ele>173</ele>
        <time>2018-01-05T11:03:13Z</time>
      </trkpt>
      <trkpt lat="46.06874" lon="4.77072">
        <ele>173</ele>
        <time>2018-01-05T11:03:14Z</time>
      </trkpt>
      <trkpt lat="46.06869" lon="4.77073">
        <ele>173</ele>
        <time>2018-01-05T11:03:15Z</time>
      </trkpt>
      <trkpt lat="46.06864" lon="4.77074">
        <ele>173</ele>
        <time>2018-01-05T11:03:16Z</time>
      </trkpt>
      <trkpt lat="46.0686" lon="4.77075">
        <ele>173</ele>
        <time>2018-01-05T11:03:17Z</time>
      </trkpt>
      <trkpt lat="46.06855" lon="4.77077">
        <ele>173</ele>
        <time>2018-01-05T11:03:18Z</time>
      </trkpt>
      <trkpt lat="46.0685" lon="4.77079">
        <ele>173</ele>
        <time>2018-01-05T11:03:19Z</time>
      </trkpt>
      <trkpt lat="46.06845" lon="4.77081">
        <ele>173</ele>
        <time>2018-01-05T11:03:20Z</time>
      </trkpt>
      <trkpt lat="46.0684" lon="4.77083">
        <ele>173</ele>
        <time>2018-01-05T11:03:21Z</time>
      </trkpt>
      <trkpt lat="46.06835" lon="4.77085">
        <ele>173</ele>
        <time>2018-01-05T11:03:22Z</time>
      </trkpt>
      <trkpt lat="46.06831" lon="4.77088">
        <ele>173</ele>
        <time>2018-01-05T11:03:23Z</time>
      </trkpt>
      <trkpt lat="46.06826" lon="4.77091">
        <ele>173</ele>
        <time>2018-01-05T11:03:24Z</time>
      </trkpt>
      <trkpt lat="46.06822" lon="4.77094">
        <ele>173</ele>
        <time>2018-01-05T11:03:25Z</time>
      </trkpt>
      <trkpt lat="46.06818" lon="4.77099">
        <ele>173</ele>
        <time>2018-01-05T11:03:26Z</time>
      </trkpt>
      <trkpt lat="46.06813" lon="4.77101">
        <ele>172</ele>
        <time>2018-01-05T11:03:27Z</time>
      </trkpt>
      <trkpt lat="46.06809" lon="4.77105">
        <ele>172</ele>
        <time>2018-01-05T11:03:28Z</time>
      </trkpt>
      <trkpt lat="46.06802" lon="4.7711">
        <ele>172</ele>
        <time>2018-01-05T11:03:30Z</time>
      </trkpt>
      <trkpt lat="46.06797" lon="4.77113">
        <ele>172</ele>
        <time>2018-01-05T11:03:31Z</time>
      </trkpt>
      <trkpt lat="46.0679" lon="4.7712">
        <ele>172</ele>
        <time>2018-01-05T11:03:33Z</time>
      </trkpt>
      <trkpt lat="46.06786" lon="4.77123">
        <ele>172</ele>
        <time>2018-01-05T11:03:34Z</time>
      </trkpt>
      <trkpt lat="46.06779" lon="4.77131">
        <ele>172</ele>
        <time>2018-01-05T11:03:36Z</time>
      </trkpt>
      <trkpt lat="46.06776" lon="4.77134">
        <ele>172</ele>
        <time>2018-01-05T11:03:37Z</time>
      </trkpt>
      <trkpt lat="46.06772" lon="4.77138">
        <ele>172</ele>
        <time>2018-01-05T11:03:38Z</time>
      </trkpt>
      <trkpt lat="46.06769" lon="4.77142">
        <ele>172</ele>
        <time>2018-01-05T11:03:39Z</time>
      </trkpt>
      <trkpt lat="46.06765" lon="4.77147">
        <ele>172</ele>
        <time>2018-01-05T11:03:40Z</time>
      </trkpt>
      <trkpt lat="46.06762" lon="4.77152">
        <ele>172</ele>
        <time>2018-01-05T11:03:41Z</time>
      </trkpt>
      <trkpt lat="46.06759" lon="4.77156">
        <ele>172</ele>
        <time>2018-01-05T11:03:42Z</time>
      </trkpt>
      <trkpt lat="46.06756" lon="4.77161">
        <ele>172</ele>
        <time>2018-01-05T11:03:43Z</time>
      </trkpt>
      <trkpt lat="46.06752" lon="4.77165">
        <ele>172</ele>
        <time>2018-01-05T11:03:44Z</time>
      </trkpt>
      <trkpt lat="46.06747" lon="4.77168">
        <ele>172</ele>
        <time>2018-01-05T11:03:45Z</time>
      </trkpt>
      <trkpt lat="46.06743" lon="4.77172">
        <ele>172</ele>
        <time>2018-01-05T11:03:46Z</time>
      </trkpt>
      <trkpt lat="46.06738" lon="4.77176">
        <ele>172</ele>
        <time>2018-01-05T11:03:47Z</time>
      </trkpt>
      <trkpt lat="46.06733" lon="4.77179">
        <ele>172</ele>
        <time>2018-01-05T11:03:48Z</time>
      </trkpt>
      <trkpt lat="46.06728" lon="4.77181">
        <ele>172</ele>
        <time>2018-01-05T11:03:49Z</time>
      </trkpt>
      <trkpt lat="46.06723" lon="4.77184">
        <ele>172</ele>
        <time>2018-01-05T11:03:50Z</time>
      </trkpt>
      <trkpt lat="46.06719" lon="4.77187">
        <ele>172</ele>
        <time>2018-01-05T11:03:51Z</time>
      </trkpt>
      <trkpt lat="46.06712" lon="4.77192">
        <ele>172</ele>
        <time>2018-01-05T11:03:53Z</time>
      </trkpt>
      <trkpt lat="46.06708" lon="4.77194">
        <ele>172</ele>
        <time>2018-01-05T11:03:54Z</time>
      </trkpt>
      <trkpt lat="46.067" lon="4.77196">
        <ele>172</ele>
        <time>2018-01-05T11:03:56Z</time>
      </trkpt>
      <trkpt lat="46.06696" lon="4.77197">
        <ele>172</ele>
        <time>2018-01-05T11:03:57Z</time>
      </trkpt>
      <trkpt lat="46.06691" lon="4.77198">
        <ele>172</ele>
        <time>2018-01-05T11:03:58Z</time>
      </trkpt>
      <trkpt lat="46.06687" lon="4.77199">
        <ele>172</ele>
        <time>2018-01-05T11:03:59Z</time>
      </trkpt>
      <trkpt lat="46.06681" lon="4.77207">
        <ele>172</ele>
        <time>2018-01-05T11:04:01Z</time>
      </trkpt>
      <trkpt lat="46.06679" lon="4.77213">
        <ele>172</ele>
        <time>2018-01-05T11:04:02Z</time>
      </trkpt>
      <trkpt lat="46.06677" lon="4.77219">
        <ele>172</ele>
        <time>2018-01-05T11:04:03Z</time>
      </trkpt>
      <trkpt lat="46.06678" lon="4.77226">
        <ele>172</ele>
        <time>2018-01-05T11:04:04Z</time>
      </trkpt>
      <trkpt lat="46.06676" lon="4.77239">
        <ele>173</ele>
        <time>2018-01-05T11:04:06Z</time>
      </trkpt>
      <trkpt lat="46.06675" lon="4.77244">
        <ele>173</ele>
        <time>2018-01-05T11:04:07Z</time>
      </trkpt>
      <trkpt lat="46.06672" lon="4.77255">
        <ele>173</ele>
        <time>2018-01-05T11:04:09Z</time>
      </trkpt>
      <trkpt lat="46.06669" lon="4.77258">
        <ele>173</ele>
        <time>2018-01-05T11:04:10Z</time>
      </trkpt>
      <trkpt lat="46.06666" lon="4.77266">
        <ele>173</ele>
        <time>2018-01-05T11:04:12Z</time>
      </trkpt>
      <trkpt lat="46.06663" lon="4.77271">
        <ele>174</ele>
        <time>2018-01-05T11:04:13Z</time>
      </trkpt>
      <trkpt lat="46.06659" lon="4.77282">
        <ele>174</ele>
        <time>2018-01-05T11:04:15Z</time>
      </trkpt>
      <trkpt lat="46.06656" lon="4.77287">
        <ele>174</ele>
        <time>2018-01-05T11:04:16Z</time>
      </trkpt>
      <trkpt lat="46.06653" lon="4.77297">
        <ele>174</ele>
        <time>2018-01-05T11:04:18Z</time>
      </trkpt>
      <trkpt lat="46.06651" lon="4.77302">
        <ele>174</ele>
        <time>2018-01-05T11:04:19Z</time>
      </trkpt>
      <trkpt lat="46.06646" lon="4.77312">
        <ele>174</ele>
        <time>2018-01-05T11:04:21Z</time>
      </trkpt>
      <trkpt lat="46.06644" lon="4.77317">
        <ele>174</ele>
        <time>2018-01-05T11:04:22Z</time>
      </trkpt>
      <trkpt lat="46.0664" lon="4.77327">
        <ele>174</ele>
        <time>2018-01-05T11:04:24Z</time>
      </trkpt>
      <trkpt lat="46.06637" lon="4.77332">
        <ele>174</ele>
        <time>2018-01-05T11:04:25Z</time>
      </trkpt>
      <trkpt lat="46.06634" lon="4.77343">
        <ele>176</ele>
        <time>2018-01-05T11:04:27Z</time>
      </trkpt>
      <trkpt lat="46.06632" lon="4.77349">
        <ele>176</ele>
        <time>2018-01-05T11:04:28Z</time>
      </trkpt>
      <trkpt lat="46.06627" lon="4.77358">
        <ele>176</ele>
        <time>2018-01-05T11:04:30Z</time>
      </trkpt>
      <trkpt lat="46.06625" lon="4.77363">
        <ele>176</ele>
        <time>2018-01-05T11:04:31Z</time>
      </trkpt>
      <trkpt lat="46.06621" lon="4.77373">
        <ele>176</ele>
        <time>2018-01-05T11:04:33Z</time>
      </trkpt>
      <trkpt lat="46.0662" lon="4.77378">
        <ele>176</ele>
        <time>2018-01-05T11:04:34Z</time>
      </trkpt>
      <trkpt lat="46.06616" lon="4.77388">
        <ele>177</ele>
        <time>2018-01-05T11:04:36Z</time>
      </trkpt>
      <trkpt lat="46.06614" lon="4.77393">
        <ele>177</ele>
        <time>2018-01-05T11:04:37Z</time>
      </trkpt>
      <trkpt lat="46.0661" lon="4.77403">
        <ele>177</ele>
        <time>2018-01-05T11:04:39Z</time>
      </trkpt>
      <trkpt lat="46.06608" lon="4.77408">
        <ele>177</ele>
        <time>2018-01-05T11:04:40Z</time>
      </trkpt>
      <trkpt lat="46.06605" lon="4.77415">
        <ele>177</ele>
        <time>2018-01-05T11:04:41Z</time>
      </trkpt>
      <trkpt lat="46.06603" lon="4.77419">
        <ele>179</ele>
        <time>2018-01-05T11:04:42Z</time>
      </trkpt>
      <trkpt lat="46.06599" lon="4.7743">
        <ele>179</ele>
        <time>2018-01-05T11:04:44Z</time>
      </trkpt>
      <trkpt lat="46.06598" lon="4.77435">
        <ele>179</ele>
        <time>2018-01-05T11:04:45Z</time>
      </trkpt>
      <trkpt lat="46.06596" lon="4.77441">
        <ele>180</ele>
        <time>2018-01-05T11:04:46Z</time>
      </trkpt>
      <trkpt lat="46.06594" lon="4.77447">
        <ele>180</ele>
        <time>2018-01-05T11:04:47Z</time>
      </trkpt>
      <trkpt lat="46.06594" lon="4.77458">
        <ele>180</ele>
        <time>2018-01-05T11:04:49Z</time>
      </trkpt>
      <trkpt lat="46.06595" lon="4.77464">
        <ele>180</ele>
        <time>2018-01-05T11:04:50Z</time>
      </trkpt>
      <trkpt lat="46.06596" lon="4.77474">
        <ele>181</ele>
        <time>2018-01-05T11:04:52Z</time>
      </trkpt>
      <trkpt lat="46.06598" lon="4.77479">
        <ele>181</ele>
        <time>2018-01-05T11:04:53Z</time>
      </trkpt>
      <trkpt lat="46.06602" lon="4.77488">
        <ele>181</ele>
        <time>2018-01-05T11:04:55Z</time>
      </trkpt>
      <trkpt lat="46.06605" lon="4.77492">
        <ele>181</ele>
        <time>2018-01-05T11:04:56Z</time>
      </trkpt>
      <trkpt lat="46.0661" lon="4.77498">
        <ele>181</ele>
        <time>2018-01-05T11:04:58Z</time>
      </trkpt>
      <trkpt lat="46.06613" lon="4.77502">
        <ele>183</ele>
        <time>2018-01-05T11:04:59Z</time>
      </trkpt>
      <trkpt lat="46.06616" lon="4.77509">
        <ele>183</ele>
        <time>2018-01-05T11:05:00Z</time>
      </trkpt>
      <trkpt lat="46.06619" lon="4.77514">
        <ele>183</ele>
        <time>2018-01-05T11:05:01Z</time>
      </trkpt>
      <trkpt lat="46.06622" lon="4.77522">
        <ele>183</ele>
        <time>2018-01-05T11:05:03Z</time>
      </trkpt>
      <trkpt lat="46.06624" lon="4.77527">
        <ele>183</ele>
        <time>2018-01-05T11:05:04Z</time>
      </trkpt>
      <trkpt lat="46.06626" lon="4.77534">
        <ele>183</ele>
        <time>2018-01-05T11:05:06Z</time>
      </trkpt>
      <trkpt lat="46.06627" lon="4.7754">
        <ele>183</ele>
        <time>2018-01-05T11:05:07Z</time>
      </trkpt>
      <trkpt lat="46.06628" lon="4.77548">
        <ele>183</ele>
        <time>2018-01-05T11:05:09Z</time>
      </trkpt>
      <trkpt lat="46.06628" lon="4.77553">
        <ele>183</ele>
        <time>2018-01-05T11:05:10Z</time>
      </trkpt>
      <trkpt lat="46.06629" lon="4.77562">
        <ele>183</ele>
        <time>2018-01-05T11:05:12Z</time>
      </trkpt>
      <trkpt lat="46.06629" lon="4.77567">
        <ele>183</ele>
        <time>2018-01-05T11:05:13Z</time>
      </trkpt>
      <trkpt lat="46.0663" lon="4.77576">
        <ele>183</ele>
        <time>2018-01-05T11:05:15Z</time>
      </trkpt>
      <trkpt lat="46.0663" lon="4.7758">
        <ele>183</ele>
        <time>2018-01-05T11:05:16Z</time>
      </trkpt>
      <trkpt lat="46.0663" lon="4.77589">
        <ele>185</ele>
        <time>2018-01-05T11:05:18Z</time>
      </trkpt>
      <trkpt lat="46.06629" lon="4.77593">
        <ele>185</ele>
        <time>2018-01-05T11:05:19Z</time>
      </trkpt>
      <trkpt lat="46.06629" lon="4.77605">
        <ele>185</ele>
        <time>2018-01-05T11:05:22Z</time>
      </trkpt>
      <trkpt lat="46.06628" lon="4.7761">
        <ele>185</ele>
        <time>2018-01-05T11:05:23Z</time>
      </trkpt>
      <trkpt lat="46.06628" lon="4.77621">
        <ele>185</ele>
        <time>2018-01-05T11:05:26Z</time>
      </trkpt>
      <trkpt lat="46.06627" lon="4.77625">
        <ele>185</ele>
        <time>2018-01-05T11:05:27Z</time>
      </trkpt>
      <trkpt lat="46.06625" lon="4.77637">
        <ele>185</ele>
        <time>2018-01-05T11:05:30Z</time>
      </trkpt>
      <trkpt lat="46.06624" lon="4.7764">
        <ele>185</ele>
        <time>2018-01-05T11:05:31Z</time>
      </trkpt>
      <trkpt lat="46.06621" lon="4.77652">
        <ele>185</ele>
        <time>2018-01-05T11:05:34Z</time>
      </trkpt>
      <trkpt lat="46.0662" lon="4.77656">
        <ele>185</ele>
        <time>2018-01-05T11:05:35Z</time>
      </trkpt>
      <trkpt lat="46.06616" lon="4.77663">
        <ele>185</ele>
        <time>2018-01-05T11:05:37Z</time>
      </trkpt>
      <trkpt lat="46.06614" lon="4.77666">
        <ele>185</ele>
        <time>2018-01-05T11:05:38Z</time>
      </trkpt>
      <trkpt lat="46.06609" lon="4.77672">
        <ele>187</ele>
        <time>2018-01-05T11:05:40Z</time>
      </trkpt>
      <trkpt lat="46.06606" lon="4.77674">
        <ele>187</ele>
        <time>2018-01-05T11:05:41Z</time>
      </trkpt>
      <trkpt lat="46.066" lon="4.77679">
        <ele>187</ele>
        <time>2018-01-05T11:05:43Z</time>
      </trkpt>
      <trkpt lat="46.06597" lon="4.77681">
        <ele>187</ele>
        <time>2018-01-05T11:05:44Z</time>
      </trkpt>
      <trkpt lat="46.0659" lon="4.77684">
        <ele>187</ele>
        <time>2018-01-05T11:05:46Z</time>
      </trkpt>
      <trkpt lat="46.06588" lon="4.77686">
        <ele>187</ele>
        <time>2018-01-05T11:05:47Z</time>
      </trkpt>
      <trkpt lat="46.06582" lon="4.7769">
        <ele>188</ele>
        <time>2018-01-05T11:05:49Z</time>
      </trkpt>
      <trkpt lat="46.06579" lon="4.77691">
        <ele>188</ele>
        <time>2018-01-05T11:05:50Z</time>
      </trkpt>
      <trkpt lat="46.06573" lon="4.77695">
        <ele>188</ele>
        <time>2018-01-05T11:05:52Z</time>
      </trkpt>
      <trkpt lat="46.0657" lon="4.77697">
        <ele>188</ele>
        <time>2018-01-05T11:05:53Z</time>
      </trkpt>
      <trkpt lat="46.06565" lon="4.77701">
        <ele>189</ele>
        <time>2018-01-05T11:05:55Z</time>
      </trkpt>
      <trkpt lat="46.06562" lon="4.77703">
        <ele>189</ele>
        <time>2018-01-05T11:05:56Z</time>
      </trkpt>
      <trkpt lat="46.06557" lon="4.77709">
        <ele>189</ele>
        <time>2018-01-05T11:05:58Z</time>
      </trkpt>
      <trkpt lat="46.06555" lon="4.77712">
        <ele>189</ele>
        <time>2018-01-05T11:05:59Z</time>
      </trkpt>
      <trkpt lat="46.0655" lon="4.77719">
        <ele>189</ele>
        <time>2018-01-05T11:06:01Z</time>
      </trkpt>
      <trkpt lat="46.06547" lon="4.77723">
        <ele>189</ele>
        <time>2018-01-05T11:06:02Z</time>
      </trkpt>
      <trkpt lat="46.06542" lon="4.77731">
        <ele>190</ele>
        <time>2018-01-05T11:06:04Z</time>
      </trkpt>
      <trkpt lat="46.06539" lon="4.77735">
        <ele>190</ele>
        <time>2018-01-05T11:06:05Z</time>
      </trkpt>
      <trkpt lat="46.06535" lon="4.77743">
        <ele>190</ele>
        <time>2018-01-05T11:06:07Z</time>
      </trkpt>
      <trkpt lat="46.06533" lon="4.77747">
        <ele>190</ele>
        <time>2018-01-05T11:06:08Z</time>
      </trkpt>
      <trkpt lat="46.06529" lon="4.77754">
        <ele>192</ele>
        <time>2018-01-05T11:06:10Z</time>
      </trkpt>
      <trkpt lat="46.06527" lon="4.77758">
        <ele>192</ele>
        <time>2018-01-05T11:06:11Z</time>
      </trkpt>
      <trkpt lat="46.06521" lon="4.77766">
        <ele>192</ele>
        <time>2018-01-05T11:06:14Z</time>
      </trkpt>
      <trkpt lat="46.06519" lon="4.77771">
        <ele>192</ele>
        <time>2018-01-05T11:06:15Z</time>
      </trkpt>
      <trkpt lat="46.06513" lon="4.77778">
        <ele>192</ele>
        <time>2018-01-05T11:06:17Z</time>
      </trkpt>
      <trkpt lat="46.06511" lon="4.77785">
        <ele>192</ele>
        <time>2018-01-05T11:06:18Z</time>
      </trkpt>
      <trkpt lat="46.06506" lon="4.77792">
        <ele>192</ele>
        <time>2018-01-05T11:06:20Z</time>
      </trkpt>
      <trkpt lat="46.06505" lon="4.77796">
        <ele>192</ele>
        <time>2018-01-05T11:06:21Z</time>
      </trkpt>
      <trkpt lat="46.06501" lon="4.77804">
        <ele>192</ele>
        <time>2018-01-05T11:06:23Z</time>
      </trkpt>
      <trkpt lat="46.06499" lon="4.77808">
        <ele>192</ele>
        <time>2018-01-05T11:06:24Z</time>
      </trkpt>
      <trkpt lat="46.06496" lon="4.77816">
        <ele>192</ele>
        <time>2018-01-05T11:06:26Z</time>
      </trkpt>
      <trkpt lat="46.06494" lon="4.7782">
        <ele>192</ele>
        <time>2018-01-05T11:06:27Z</time>
      </trkpt>
      <trkpt lat="46.06492" lon="4.77828">
        <ele>192</ele>
        <time>2018-01-05T11:06:29Z</time>
      </trkpt>
      <trkpt lat="46.0649" lon="4.77832">
        <ele>192</ele>
        <time>2018-01-05T11:06:30Z</time>
      </trkpt>
      <trkpt lat="46.06487" lon="4.7784">
        <ele>192</ele>
        <time>2018-01-05T11:06:32Z</time>
      </trkpt>
      <trkpt lat="46.06486" lon="4.77844">
        <ele>192</ele>
        <time>2018-01-05T11:06:33Z</time>
      </trkpt>
      <trkpt lat="46.06484" lon="4.77853">
        <ele>192</ele>
        <time>2018-01-05T11:06:35Z</time>
      </trkpt>
      <trkpt lat="46.06483" lon="4.77857">
        <ele>192</ele>
        <time>2018-01-05T11:06:36Z</time>
      </trkpt>
      <trkpt lat="46.06479" lon="4.77865">
        <ele>192</ele>
        <time>2018-01-05T11:06:38Z</time>
      </trkpt>
      <trkpt lat="46.06478" lon="4.77868">
        <ele>193</ele>
        <time>2018-01-05T11:06:39Z</time>
      </trkpt>
      <trkpt lat="46.06475" lon="4.77876">
        <ele>193</ele>
        <time>2018-01-05T11:06:41Z</time>
      </trkpt>
      <trkpt lat="46.06474" lon="4.77881">
        <ele>193</ele>
        <time>2018-01-05T11:06:42Z</time>
      </trkpt>
      <trkpt lat="46.06471" lon="4.77889">
        <ele>193</ele>
        <time>2018-01-05T11:06:44Z</time>
      </trkpt>
      <trkpt lat="46.0647" lon="4.77893">
        <ele>193</ele>
        <time>2018-01-05T11:06:45Z</time>
      </trkpt>
      <trkpt lat="46.06467" lon="4.779">
        <ele>193</ele>
        <time>2018-01-05T11:06:47Z</time>
      </trkpt>
      <trkpt lat="46.06466" lon="4.77904">
        <ele>193</ele>
        <time>2018-01-05T11:06:48Z</time>
      </trkpt>
      <trkpt lat="46.06463" lon="4.77912">
        <ele>193</ele>
        <time>2018-01-05T11:06:50Z</time>
      </trkpt>
      <trkpt lat="46.06462" lon="4.77917">
        <ele>193</ele>
        <time>2018-01-05T11:06:51Z</time>
      </trkpt>
      <trkpt lat="46.06459" lon="4.77929">
        <ele>195</ele>
        <time>2018-01-05T11:06:54Z</time>
      </trkpt>
      <trkpt lat="46.06458" lon="4.77932">
        <ele>195</ele>
        <time>2018-01-05T11:06:55Z</time>
      </trkpt>
      <trkpt lat="46.06456" lon="4.7794">
        <ele>195</ele>
        <time>2018-01-05T11:06:57Z</time>
      </trkpt>
      <trkpt lat="46.06455" lon="4.77944">
        <ele>195</ele>
        <time>2018-01-05T11:06:58Z</time>
      </trkpt>
      <trkpt lat="46.06452" lon="4.77953">
        <ele>195</ele>
        <time>2018-01-05T11:07:00Z</time>
      </trkpt>
      <trkpt lat="46.06451" lon="4.77957">
        <ele>195</ele>
        <time>2018-01-05T11:07:01Z</time>
      </trkpt>
      <trkpt lat="46.06449" lon="4.77965">
        <ele>195</ele>
        <time>2018-01-05T11:07:03Z</time>
      </trkpt>
      <trkpt lat="46.06448" lon="4.77969">
        <ele>195</ele>
        <time>2018-01-05T11:07:04Z</time>
      </trkpt>
      <trkpt lat="46.06446" lon="4.77982">
        <ele>195</ele>
        <time>2018-01-05T11:07:07Z</time>
      </trkpt>
      <trkpt lat="46.06445" lon="4.77986">
        <ele>195</ele>
        <time>2018-01-05T11:07:08Z</time>
      </trkpt>
      <trkpt lat="46.06443" lon="4.77998">
        <ele>195</ele>
        <time>2018-01-05T11:07:11Z</time>
      </trkpt>
      <trkpt lat="46.06442" lon="4.78002">
        <ele>197</ele>
        <time>2018-01-05T11:07:12Z</time>
      </trkpt>
      <trkpt lat="46.06438" lon="4.78013">
        <ele>197</ele>
        <time>2018-01-05T11:07:15Z</time>
      </trkpt>
      <trkpt lat="46.06437" lon="4.78016">
        <ele>197</ele>
        <time>2018-01-05T11:07:16Z</time>
      </trkpt>
      <trkpt lat="46.06432" lon="4.78027">
        <ele>198</ele>
        <time>2018-01-05T11:07:19Z</time>
      </trkpt>
      <trkpt lat="46.06431" lon="4.78031">
        <ele>198</ele>
        <time>2018-01-05T11:07:20Z</time>
      </trkpt>
      <trkpt lat="46.06425" lon="4.7804">
        <ele>198</ele>
        <time>2018-01-05T11:07:23Z</time>
      </trkpt>
      <trkpt lat="46.06422" lon="4.78042">
        <ele>198</ele>
        <time>2018-01-05T11:07:24Z</time>
      </trkpt>
      <trkpt lat="46.06415" lon="4.7805">
        <ele>197</ele>
        <time>2018-01-05T11:07:27Z</time>
      </trkpt>
      <trkpt lat="46.06413" lon="4.78053">
        <ele>198</ele>
        <time>2018-01-05T11:07:28Z</time>
      </trkpt>
      <trkpt lat="46.06408" lon="4.7806">
        <ele>198</ele>
        <time>2018-01-05T11:07:30Z</time>
      </trkpt>
      <trkpt lat="46.06406" lon="4.78064">
        <ele>198</ele>
        <time>2018-01-05T11:07:31Z</time>
      </trkpt>
      <trkpt lat="46.06401" lon="4.78072">
        <ele>198</ele>
        <time>2018-01-05T11:07:33Z</time>
      </trkpt>
      <trkpt lat="46.06399" lon="4.78076">
        <ele>198</ele>
        <time>2018-01-05T11:07:34Z</time>
      </trkpt>
      <trkpt lat="46.06396" lon="4.78085">
        <ele>200</ele>
        <time>2018-01-05T11:07:36Z</time>
      </trkpt>
      <trkpt lat="46.06395" lon="4.7809">
        <ele>200</ele>
        <time>2018-01-05T11:07:37Z</time>
      </trkpt>
      <trkpt lat="46.06393" lon="4.78101">
        <ele>200</ele>
        <time>2018-01-05T11:07:39Z</time>
      </trkpt>
      <trkpt lat="46.06392" lon="4.78106">
        <ele>200</ele>
        <time>2018-01-05T11:07:40Z</time>
      </trkpt>
      <trkpt lat="46.06391" lon="4.78115">
        <ele>200</ele>
        <time>2018-01-05T11:07:42Z</time>
      </trkpt>
      <trkpt lat="46.0639" lon="4.7812">
        <ele>200</ele>
        <time>2018-01-05T11:07:43Z</time>
      </trkpt>
      <trkpt lat="46.06389" lon="4.7813">
        <ele>201</ele>
        <time>2018-01-05T11:07:45Z</time>
      </trkpt>
      <trkpt lat="46.06389" lon="4.78136">
        <ele>201</ele>
        <time>2018-01-05T11:07:46Z</time>
      </trkpt>
      <trkpt lat="46.06389" lon="4.78146">
        <ele>201</ele>
        <time>2018-01-05T11:07:48Z</time>
      </trkpt>
      <trkpt lat="46.06388" lon="4.78152">
        <ele>201</ele>
        <time>2018-01-05T11:07:49Z</time>
      </trkpt>
      <trkpt lat="46.06388" lon="4.78162">
        <ele>201</ele>
        <time>2018-01-05T11:07:51Z</time>
      </trkpt>
      <trkpt lat="46.06387" lon="4.78168">
        <ele>204</ele>
        <time>2018-01-05T11:07:52Z</time>
      </trkpt>
      <trkpt lat="46.06387" lon="4.78178">
        <ele>204</ele>
        <time>2018-01-05T11:07:54Z</time>
      </trkpt>
      <trkpt lat="46.06387" lon="4.78183">
        <ele>204</ele>
        <time>2018-01-05T11:07:55Z</time>
      </trkpt>
      <trkpt lat="46.06386" lon="4.78193">
        <ele>204</ele>
        <time>2018-01-05T11:07:57Z</time>
      </trkpt>
      <trkpt lat="46.06385" lon="4.78198">
        <ele>204</ele>
        <time>2018-01-05T11:07:58Z</time>
      </trkpt>
      <trkpt lat="46.06383" lon="4.78207">
        <ele>204</ele>
        <time>2018-01-05T11:08:00Z</time>
      </trkpt>
      <trkpt lat="46.0638" lon="4.78211">
        <ele>204</ele>
        <time>2018-01-05T11:08:01Z</time>
      </trkpt>
      <trkpt lat="46.06374" lon="4.78217">
        <ele>204</ele>
        <time>2018-01-05T11:08:03Z</time>
      </trkpt>
      <trkpt lat="46.06371" lon="4.7822">
        <ele>204</ele>
        <time>2018-01-05T11:08:04Z</time>
      </trkpt>
      <trkpt lat="46.06365" lon="4.78226">
        <ele>205</ele>
        <time>2018-01-05T11:08:06Z</time>
      </trkpt>
      <trkpt lat="46.06362" lon="4.78229">
        <ele>205</ele>
        <time>2018-01-05T11:08:07Z</time>
      </trkpt>
      <trkpt lat="46.06357" lon="4.78234">
        <ele>205</ele>
        <time>2018-01-05T11:08:09Z</time>
      </trkpt>
      <trkpt lat="46.06355" lon="4.78236">
        <ele>205</ele>
        <time>2018-01-05T11:08:10Z</time>
      </trkpt>
      <trkpt lat="46.06346" lon="4.78241">
        <ele>205</ele>
        <time>2018-01-05T11:08:13Z</time>
      </trkpt>
      <trkpt lat="46.06343" lon="4.78241">
        <ele>205</ele>
        <time>2018-01-05T11:08:14Z</time>
      </trkpt>
      <trkpt lat="46.06336" lon="4.7824">
        <ele>205</ele>
        <time>2018-01-05T11:08:16Z</time>
      </trkpt>
      <trkpt lat="46.06332" lon="4.7824">
        <ele>206</ele>
        <time>2018-01-05T11:08:17Z</time>
      </trkpt>
      <trkpt lat="46.06323" lon="4.78238">
        <ele>206</ele>
        <time>2018-01-05T11:08:19Z</time>
      </trkpt>
      <trkpt lat="46.06319" lon="4.78235">
        <ele>206</ele>
        <time>2018-01-05T11:08:20Z</time>
      </trkpt>
      <trkpt lat="46.06311" lon="4.7823">
        <ele>205</ele>
        <time>2018-01-05T11:08:22Z</time>
      </trkpt>
      <trkpt lat="46.06307" lon="4.78228">
        <ele>205</ele>
        <time>2018-01-05T11:08:23Z</time>
      </trkpt>
      <trkpt lat="46.06301" lon="4.78223">
        <ele>205</ele>
        <time>2018-01-05T11:08:25Z</time>
      </trkpt>
      <trkpt lat="46.06299" lon="4.78221">
        <ele>205</ele>
        <time>2018-01-05T11:08:26Z</time>
      </trkpt>
      <trkpt lat="46.06295" lon="4.78215">
        <ele>205</ele>
        <time>2018-01-05T11:08:28Z</time>
      </trkpt>
      <trkpt lat="46.0629" lon="4.78213">
        <ele>205</ele>
        <time>2018-01-05T11:08:29Z</time>
      </trkpt>
      <trkpt lat="46.06282" lon="4.78209">
        <ele>205</ele>
        <time>2018-01-05T11:08:32Z</time>
      </trkpt>
      <trkpt lat="46.0628" lon="4.78208">
        <ele>205</ele>
        <time>2018-01-05T11:08:33Z</time>
      </trkpt>
      <trkpt lat="46.06272" lon="4.78202">
        <ele>205</ele>
        <time>2018-01-05T11:08:36Z</time>
      </trkpt>
      <trkpt lat="46.0627" lon="4.782">
        <ele>205</ele>
        <time>2018-01-05T11:08:37Z</time>
      </trkpt>
      <trkpt lat="46.06263" lon="4.78194">
        <ele>205</ele>
        <time>2018-01-05T11:08:39Z</time>
      </trkpt>
      <trkpt lat="46.06259" lon="4.78191">
        <ele>205</ele>
        <time>2018-01-05T11:08:40Z</time>
      </trkpt>
      <trkpt lat="46.06251" lon="4.78186">
        <ele>205</ele>
        <time>2018-01-05T11:08:42Z</time>
      </trkpt>
      <trkpt lat="46.06248" lon="4.78183">
        <ele>206</ele>
        <time>2018-01-05T11:08:43Z</time>
      </trkpt>
      <trkpt lat="46.06241" lon="4.78179">
        <ele>206</ele>
        <time>2018-01-05T11:08:45Z</time>
      </trkpt>
      <trkpt lat="46.06238" lon="4.78177">
        <ele>206</ele>
        <time>2018-01-05T11:08:46Z</time>
      </trkpt>
      <trkpt lat="46.06232" lon="4.78174">
        <ele>206</ele>
        <time>2018-01-05T11:08:48Z</time>
      </trkpt>
      <trkpt lat="46.06229" lon="4.78173">
        <ele>206</ele>
        <time>2018-01-05T11:08:49Z</time>
      </trkpt>
      <trkpt lat="46.06222" lon="4.78169">
        <ele>206</ele>
        <time>2018-01-05T11:08:51Z</time>
      </trkpt>
      <trkpt lat="46.06219" lon="4.78167">
        <ele>206</ele>
        <time>2018-01-05T11:08:52Z</time>
      </trkpt>
      <trkpt lat="46.06212" lon="4.78163">
        <ele>205</ele>
        <time>2018-01-05T11:08:54Z</time>
      </trkpt>
      <trkpt lat="46.06208" lon="4.78161">
        <ele>205</ele>
        <time>2018-01-05T11:08:55Z</time>
      </trkpt>
      <trkpt lat="46.062" lon="4.78157">
        <ele>205</ele>
        <time>2018-01-05T11:08:57Z</time>
      </trkpt>
      <trkpt lat="46.06197" lon="4.78154">
        <ele>205</ele>
        <time>2018-01-05T11:08:58Z</time>
      </trkpt>
      <trkpt lat="46.0619" lon="4.78149">
        <ele>206</ele>
        <time>2018-01-05T11:09:00Z</time>
      </trkpt>
      <trkpt lat="46.06186" lon="4.78147">
        <ele>206</ele>
        <time>2018-01-05T11:09:01Z</time>
      </trkpt>
      <trkpt lat="46.06179" lon="4.78143">
        <ele>206</ele>
        <time>2018-01-05T11:09:03Z</time>
      </trkpt>
      <trkpt lat="46.06175" lon="4.78142">
        <ele>206</ele>
        <time>2018-01-05T11:09:04Z</time>
      </trkpt>
      <trkpt lat="46.06168" lon="4.78139">
        <ele>206</ele>
        <time>2018-01-05T11:09:06Z</time>
      </trkpt>
      <trkpt lat="46.06164" lon="4.78137">
        <ele>208</ele>
        <time>2018-01-05T11:09:07Z</time>
      </trkpt>
      <trkpt lat="46.06158" lon="4.78132">
        <ele>208</ele>
        <time>2018-01-05T11:09:09Z</time>
      </trkpt>
      <trkpt lat="46.06155" lon="4.78129">
        <ele>208</ele>
        <time>2018-01-05T11:09:10Z</time>
      </trkpt>
      <trkpt lat="46.06149" lon="4.78125">
        <ele>208</ele>
        <time>2018-01-05T11:09:12Z</time>
      </trkpt>
      <trkpt lat="46.06147" lon="4.78122">
        <ele>208</ele>
        <time>2018-01-05T11:09:13Z</time>
      </trkpt>
      <trkpt lat="46.06142" lon="4.78115">
        <ele>208</ele>
        <time>2018-01-05T11:09:15Z</time>
      </trkpt>
      <trkpt lat="46.06139" lon="4.78113">
        <ele>208</ele>
        <time>2018-01-05T11:09:16Z</time>
      </trkpt>
      <trkpt lat="46.06134" lon="4.78108">
        <ele>209</ele>
        <time>2018-01-05T11:09:18Z</time>
      </trkpt>
      <trkpt lat="46.06131" lon="4.78105">
        <ele>209</ele>
        <time>2018-01-05T11:09:19Z</time>
      </trkpt>
      <trkpt lat="46.06126" lon="4.781">
        <ele>209</ele>
        <time>2018-01-05T11:09:21Z</time>
      </trkpt>
      <trkpt lat="46.06123" lon="4.78097">
        <ele>209</ele>
        <time>2018-01-05T11:09:22Z</time>
      </trkpt>
      <trkpt lat="46.06118" lon="4.78092">
        <ele>209</ele>
        <time>2018-01-05T11:09:24Z</time>
      </trkpt>
      <trkpt lat="46.06116" lon="4.78089">
        <ele>209</ele>
        <time>2018-01-05T11:09:25Z</time>
      </trkpt>
      <trkpt lat="46.0611" lon="4.78082">
        <ele>210</ele>
        <time>2018-01-05T11:09:27Z</time>
      </trkpt>
      <trkpt lat="46.06108" lon="4.78078">
        <ele>210</ele>
        <time>2018-01-05T11:09:28Z</time>
      </trkpt>
      <trkpt lat="46.06103" lon="4.78068">
        <ele>210</ele>
        <time>2018-01-05T11:09:31Z</time>
      </trkpt>
      <trkpt lat="46.06101" lon="4.78065">
        <ele>210</ele>
        <time>2018-01-05T11:09:32Z</time>
      </trkpt>
      <trkpt lat="46.06095" lon="4.78058">
        <ele>210</ele>
        <time>2018-01-05T11:09:34Z</time>
      </trkpt>
      <trkpt lat="46.06092" lon="4.78055">
        <ele>210</ele>
        <time>2018-01-05T11:09:35Z</time>
      </trkpt>
      <trkpt lat="46.06086" lon="4.7805">
        <ele>210</ele>
        <time>2018-01-05T11:09:37Z</time>
      </trkpt>
      <trkpt lat="46.06083" lon="4.78048">
        <ele>211</ele>
        <time>2018-01-05T11:09:38Z</time>
      </trkpt>
      <trkpt lat="46.06077" lon="4.78042">
        <ele>211</ele>
        <time>2018-01-05T11:09:40Z</time>
      </trkpt>
      <trkpt lat="46.06074" lon="4.7804">
        <ele>211</ele>
        <time>2018-01-05T11:09:41Z</time>
      </trkpt>
      <trkpt lat="46.06068" lon="4.78035">
        <ele>211</ele>
        <time>2018-01-05T11:09:43Z</time>
      </trkpt>
      <trkpt lat="46.06064" lon="4.78032">
        <ele>211</ele>
        <time>2018-01-05T11:09:44Z</time>
      </trkpt>
      <trkpt lat="46.06058" lon="4.78027">
        <ele>211</ele>
        <time>2018-01-05T11:09:46Z</time>
      </trkpt>
      <trkpt lat="46.06055" lon="4.78023">
        <ele>211</ele>
        <time>2018-01-05T11:09:47Z</time>
      </trkpt>
      <trkpt lat="46.0605" lon="4.78018">
        <ele>211</ele>
        <time>2018-01-05T11:09:49Z</time>
      </trkpt>
      <trkpt lat="46.06047" lon="4.78016">
        <ele>211</ele>
        <time>2018-01-05T11:09:50Z</time>
      </trkpt>
      <trkpt lat="46.06041" lon="4.78007">
        <ele>211</ele>
        <time>2018-01-05T11:09:53Z</time>
      </trkpt>
      <trkpt lat="46.06039" lon="4.78004">
        <ele>211</ele>
        <time>2018-01-05T11:09:54Z</time>
      </trkpt>
      <trkpt lat="46.06034" lon="4.77997">
        <ele>211</ele>
        <time>2018-01-05T11:09:56Z</time>
      </trkpt>
      <trkpt lat="46.06032" lon="4.77994">
        <ele>211</ele>
        <time>2018-01-05T11:09:57Z</time>
      </trkpt>
      <trkpt lat="46.06027" lon="4.77987">
        <ele>211</ele>
        <time>2018-01-05T11:09:59Z</time>
      </trkpt>
      <trkpt lat="46.06025" lon="4.77984">
        <ele>211</ele>
        <time>2018-01-05T11:10:00Z</time>
      </trkpt>
      <trkpt lat="46.06021" lon="4.77977">
        <ele>211</ele>
        <time>2018-01-05T11:10:02Z</time>
      </trkpt>
      <trkpt lat="46.06018" lon="4.77974">
        <ele>211</ele>
        <time>2018-01-05T11:10:03Z</time>
      </trkpt>
      <trkpt lat="46.06013" lon="4.77968">
        <ele>211</ele>
        <time>2018-01-05T11:10:05Z</time>
      </trkpt>
      <trkpt lat="46.06011" lon="4.77966">
        <ele>211</ele>
        <time>2018-01-05T11:10:06Z</time>
      </trkpt>
      <trkpt lat="46.06005" lon="4.77957">
        <ele>211</ele>
        <time>2018-01-05T11:10:09Z</time>
      </trkpt>
      <trkpt lat="46.06003" lon="4.77953">
        <ele>211</ele>
        <time>2018-01-05T11:10:10Z</time>
      </trkpt>
      <trkpt lat="46.05999" lon="4.77944">
        <ele>212</ele>
        <time>2018-01-05T11:10:12Z</time>
      </trkpt>
      <trkpt lat="46.05997" lon="4.7794">
        <ele>212</ele>
        <time>2018-01-05T11:10:13Z</time>
      </trkpt>
      <trkpt lat="46.05993" lon="4.77931">
        <ele>212</ele>
        <time>2018-01-05T11:10:15Z</time>
      </trkpt>
      <trkpt lat="46.05992" lon="4.77926">
        <ele>212</ele>
        <time>2018-01-05T11:10:16Z</time>
      </trkpt>
      <trkpt lat="46.05988" lon="4.77916">
        <ele>211</ele>
        <time>2018-01-05T11:10:18Z</time>
      </trkpt>
      <trkpt lat="46.05985" lon="4.77911">
        <ele>211</ele>
        <time>2018-01-05T11:10:19Z</time>
      </trkpt>
      <trkpt lat="46.0598" lon="4.77903">
        <ele>211</ele>
        <time>2018-01-05T11:10:21Z</time>
      </trkpt>
      <trkpt lat="46.05977" lon="4.77899">
        <ele>211</ele>
        <time>2018-01-05T11:10:22Z</time>
      </trkpt>
      <trkpt lat="46.05971" lon="4.77889">
        <ele>211</ele>
        <time>2018-01-05T11:10:24Z</time>
      </trkpt>
      <trkpt lat="46.05969" lon="4.77884">
        <ele>211</ele>
        <time>2018-01-05T11:10:25Z</time>
      </trkpt>
      <trkpt lat="46.05964" lon="4.77878">
        <ele>211</ele>
        <time>2018-01-05T11:10:26Z</time>
      </trkpt>
      <trkpt lat="46.05961" lon="4.77874">
        <ele>211</ele>
        <time>2018-01-05T11:10:27Z</time>
      </trkpt>
      <trkpt lat="46.05957" lon="4.77864">
        <ele>211</ele>
        <time>2018-01-05T11:10:29Z</time>
      </trkpt>
      <trkpt lat="46.05954" lon="4.7786">
        <ele>211</ele>
        <time>2018-01-05T11:10:30Z</time>
      </trkpt>
      <trkpt lat="46.0595" lon="4.77851">
        <ele>211</ele>
        <time>2018-01-05T11:10:32Z</time>
      </trkpt>
      <trkpt lat="46.05948" lon="4.77846">
        <ele>211</ele>
        <time>2018-01-05T11:10:33Z</time>
      </trkpt>
      <trkpt lat="46.05943" lon="4.77838">
        <ele>211</ele>
        <time>2018-01-05T11:10:35Z</time>
      </trkpt>
      <trkpt lat="46.0594" lon="4.77834">
        <ele>211</ele>
        <time>2018-01-05T11:10:36Z</time>
      </trkpt>
      <trkpt lat="46.05933" lon="4.77826">
        <ele>210</ele>
        <time>2018-01-05T11:10:38Z</time>
      </trkpt>
      <trkpt lat="46.0593" lon="4.77822">
        <ele>210</ele>
        <time>2018-01-05T11:10:39Z</time>
      </trkpt>
      <trkpt lat="46.05928" lon="4.77817">
        <ele>210</ele>
        <time>2018-01-05T11:10:40Z</time>
      </trkpt>
      <trkpt lat="46.05923" lon="4.77813">
        <ele>210</ele>
        <time>2018-01-05T11:10:41Z</time>
      </trkpt>
      <trkpt lat="46.0592" lon="4.77808">
        <ele>210</ele>
        <time>2018-01-05T11:10:42Z</time>
      </trkpt>
      <trkpt lat="46.05917" lon="4.77803">
        <ele>210</ele>
        <time>2018-01-05T11:10:43Z</time>
      </trkpt>
      <trkpt lat="46.05912" lon="4.77793">
        <ele>210</ele>
        <time>2018-01-05T11:10:45Z</time>
      </trkpt>
      <trkpt lat="46.05909" lon="4.77787">
        <ele>210</ele>
        <time>2018-01-05T11:10:46Z</time>
      </trkpt>
      <trkpt lat="46.05906" lon="4.77782">
        <ele>210</ele>
        <time>2018-01-05T11:10:47Z</time>
      </trkpt>
      <trkpt lat="46.05904" lon="4.77776">
        <ele>210</ele>
        <time>2018-01-05T11:10:48Z</time>
      </trkpt>
      <trkpt lat="46.05901" lon="4.77769">
        <ele>210</ele>
        <time>2018-01-05T11:10:49Z</time>
      </trkpt>
      <trkpt lat="46.05899" lon="4.77763">
        <ele>209</ele>
        <time>2018-01-05T11:10:50Z</time>
      </trkpt>
      <trkpt lat="46.05897" lon="4.77755">
        <ele>209</ele>
        <time>2018-01-05T11:10:51Z</time>
      </trkpt>
      <trkpt lat="46.05896" lon="4.77748">
        <ele>209</ele>
        <time>2018-01-05T11:10:52Z</time>
      </trkpt>
      <trkpt lat="46.05895" lon="4.7774">
        <ele>209</ele>
        <time>2018-01-05T11:10:53Z</time>
      </trkpt>
      <trkpt lat="46.05894" lon="4.77733">
        <ele>209</ele>
        <time>2018-01-05T11:10:54Z</time>
      </trkpt>
      <trkpt lat="46.05894" lon="4.77726">
        <ele>209</ele>
        <time>2018-01-05T11:10:55Z</time>
      </trkpt>
      <trkpt lat="46.05893" lon="4.7772">
        <ele>209</ele>
        <time>2018-01-05T11:10:56Z</time>
      </trkpt>
      <trkpt lat="46.05892" lon="4.77712">
        <ele>208</ele>
        <time>2018-01-05T11:10:57Z</time>
      </trkpt>
      <trkpt lat="46.05891" lon="4.77706">
        <ele>208</ele>
        <time>2018-01-05T11:10:58Z</time>
      </trkpt>
      <trkpt lat="46.05889" lon="4.777">
        <ele>208</ele>
        <time>2018-01-05T11:10:59Z</time>
      </trkpt>
      <trkpt lat="46.05887" lon="4.77693">
        <ele>208</ele>
        <time>2018-01-05T11:11:00Z</time>
      </trkpt>
      <trkpt lat="46.05886" lon="4.77687">
        <ele>208</ele>
        <time>2018-01-05T11:11:01Z</time>
      </trkpt>
      <trkpt lat="46.05884" lon="4.77681">
        <ele>208</ele>
        <time>2018-01-05T11:11:02Z</time>
      </trkpt>
      <trkpt lat="46.05881" lon="4.77673">
        <ele>208</ele>
        <time>2018-01-05T11:11:03Z</time>
      </trkpt>
      <trkpt lat="46.05878" lon="4.77665">
        <ele>208</ele>
        <time>2018-01-05T11:11:04Z</time>
      </trkpt>
      <trkpt lat="46.05875" lon="4.77659">
        <ele>208</ele>
        <time>2018-01-05T11:11:05Z</time>
      </trkpt>
      <trkpt lat="46.05871" lon="4.77654">
        <ele>208</ele>
        <time>2018-01-05T11:11:06Z</time>
      </trkpt>
      <trkpt lat="46.05868" lon="4.77649">
        <ele>208</ele>
        <time>2018-01-05T11:11:07Z</time>
      </trkpt>
      <trkpt lat="46.05864" lon="4.77645">
        <ele>208</ele>
        <time>2018-01-05T11:11:08Z</time>
      </trkpt>
      <trkpt lat="46.05858" lon="4.7764">
        <ele>208</ele>
        <time>2018-01-05T11:11:09Z</time>
      </trkpt>
      <trkpt lat="46.05854" lon="4.77635">
        <ele>208</ele>
        <time>2018-01-05T11:11:10Z</time>
      </trkpt>
      <trkpt lat="46.0585" lon="4.7763">
        <ele>208</ele>
        <time>2018-01-05T11:11:11Z</time>
      </trkpt>
      <trkpt lat="46.05846" lon="4.77626">
        <ele>208</ele>
        <time>2018-01-05T11:11:12Z</time>
      </trkpt>
      <trkpt lat="46.05842" lon="4.77622">
        <ele>208</ele>
        <time>2018-01-05T11:11:13Z</time>
      </trkpt>
      <trkpt lat="46.05838" lon="4.77618">
        <ele>208</ele>
        <time>2018-01-05T11:11:14Z</time>
      </trkpt>
      <trkpt lat="46.05834" lon="4.77613">
        <ele>208</ele>
        <time>2018-01-05T11:11:15Z</time>
      </trkpt>
      <trkpt lat="46.05831" lon="4.77609">
        <ele>209</ele>
        <time>2018-01-05T11:11:16Z</time>
      </trkpt>
      <trkpt lat="46.05827" lon="4.77605">
        <ele>208</ele>
        <time>2018-01-05T11:11:17Z</time>
      </trkpt>
      <trkpt lat="46.05823" lon="4.77601">
        <ele>208</ele>
        <time>2018-01-05T11:11:18Z</time>
      </trkpt>
      <trkpt lat="46.05819" lon="4.77597">
        <ele>208</ele>
        <time>2018-01-05T11:11:19Z</time>
      </trkpt>
      <trkpt lat="46.05815" lon="4.77593">
        <ele>208</ele>
        <time>2018-01-05T11:11:20Z</time>
      </trkpt>
      <trkpt lat="46.05812" lon="4.77589">
        <ele>208</ele>
        <time>2018-01-05T11:11:21Z</time>
      </trkpt>
      <trkpt lat="46.05808" lon="4.77585">
        <ele>209</ele>
        <time>2018-01-05T11:11:22Z</time>
      </trkpt>
      <trkpt lat="46.05801" lon="4.77577">
        <ele>208</ele>
        <time>2018-01-05T11:11:24Z</time>
      </trkpt>
      <trkpt lat="46.05797" lon="4.77574">
        <ele>208</ele>
        <time>2018-01-05T11:11:25Z</time>
      </trkpt>
      <trkpt lat="46.05792" lon="4.77566">
        <ele>208</ele>
        <time>2018-01-05T11:11:27Z</time>
      </trkpt>
      <trkpt lat="46.05789" lon="4.77562">
        <ele>208</ele>
        <time>2018-01-05T11:11:28Z</time>
      </trkpt>
      <trkpt lat="46.05783" lon="4.77553">
        <ele>208</ele>
        <time>2018-01-05T11:11:30Z</time>
      </trkpt>
      <trkpt lat="46.05779" lon="4.77548">
        <ele>208</ele>
        <time>2018-01-05T11:11:31Z</time>
      </trkpt>
      <trkpt lat="46.05773" lon="4.77541">
        <ele>208</ele>
        <time>2018-01-05T11:11:33Z</time>
      </trkpt>
      <trkpt lat="46.0577" lon="4.77537">
        <ele>208</ele>
        <time>2018-01-05T11:11:34Z</time>
      </trkpt>
      <trkpt lat="46.05766" lon="4.77528">
        <ele>208</ele>
        <time>2018-01-05T11:11:36Z</time>
      </trkpt>
      <trkpt lat="46.05763" lon="4.77524">
        <ele>208</ele>
        <time>2018-01-05T11:11:37Z</time>
      </trkpt>
      <trkpt lat="46.05758" lon="4.77516">
        <ele>208</ele>
        <time>2018-01-05T11:11:39Z</time>
      </trkpt>
      <trkpt lat="46.05755" lon="4.77512">
        <ele>208</ele>
        <time>2018-01-05T11:11:40Z</time>
      </trkpt>
      <trkpt lat="46.05752" lon="4.77507">
        <ele>208</ele>
        <time>2018-01-05T11:11:41Z</time>
      </trkpt>
      <trkpt lat="46.05749" lon="4.77502">
        <ele>208</ele>
        <time>2018-01-05T11:11:42Z</time>
      </trkpt>
      <trkpt lat="46.05746" lon="4.77497">
        <ele>208</ele>
        <time>2018-01-05T11:11:43Z</time>
      </trkpt>
      <trkpt lat="46.05742" lon="4.77492">
        <ele>208</ele>
        <time>2018-01-05T11:11:44Z</time>
      </trkpt>
      <trkpt lat="46.05738" lon="4.77488">
        <ele>207</ele>
        <time>2018-01-05T11:11:45Z</time>
      </trkpt>
      <trkpt lat="46.05735" lon="4.77483">
        <ele>207</ele>
        <time>2018-01-05T11:11:46Z</time>
      </trkpt>
      <trkpt lat="46.05731" lon="4.77478">
        <ele>207</ele>
        <time>2018-01-05T11:11:47Z</time>
      </trkpt>
      <trkpt lat="46.05728" lon="4.77472">
        <ele>207</ele>
        <time>2018-01-05T11:11:48Z</time>
      </trkpt>
      <trkpt lat="46.05722" lon="4.77465">
        <ele>207</ele>
        <time>2018-01-05T11:11:50Z</time>
      </trkpt>
      <trkpt lat="46.05719" lon="4.77461">
        <ele>207</ele>
        <time>2018-01-05T11:11:51Z</time>
      </trkpt>
      <trkpt lat="46.05712" lon="4.77455">
        <ele>207</ele>
        <time>2018-01-05T11:11:53Z</time>
      </trkpt>
      <trkpt lat="46.05708" lon="4.77452">
        <ele>207</ele>
        <time>2018-01-05T11:11:54Z</time>
      </trkpt>
      <trkpt lat="46.05704" lon="4.77446">
        <ele>207</ele>
        <time>2018-01-05T11:11:55Z</time>
      </trkpt>
      <trkpt lat="46.05699" lon="4.77443">
        <ele>206</ele>
        <time>2018-01-05T11:11:56Z</time>
      </trkpt>
      <trkpt lat="46.05695" lon="4.77439">
        <ele>206</ele>
        <time>2018-01-05T11:11:57Z</time>
      </trkpt>
      <trkpt lat="46.05691" lon="4.77435">
        <ele>206</ele>
        <time>2018-01-05T11:11:58Z</time>
      </trkpt>
      <trkpt lat="46.05688" lon="4.77433">
        <ele>206</ele>
        <time>2018-01-05T11:11:59Z</time>
      </trkpt>
      <trkpt lat="46.05682" lon="4.77429">
        <ele>206</ele>
        <time>2018-01-05T11:12:00Z</time>
      </trkpt>
      <trkpt lat="46.05678" lon="4.77426">
        <ele>206</ele>
        <time>2018-01-05T11:12:01Z</time>
      </trkpt>
      <trkpt lat="46.05674" lon="4.77422">
        <ele>206</ele>
        <time>2018-01-05T11:12:02Z</time>
      </trkpt>
      <trkpt lat="46.0567" lon="4.77418">
        <ele>205</ele>
        <time>2018-01-05T11:12:03Z</time>
      </trkpt>
      <trkpt lat="46.05666" lon="4.77414">
        <ele>205</ele>
        <time>2018-01-05T11:12:04Z</time>
      </trkpt>
      <trkpt lat="46.05661" lon="4.7741">
        <ele>204</ele>
        <time>2018-01-05T11:12:05Z</time>
      </trkpt>
      <trkpt lat="46.05657" lon="4.77405">
        <ele>204</ele>
        <time>2018-01-05T11:12:06Z</time>
      </trkpt>
      <trkpt lat="46.05653" lon="4.77402">
        <ele>204</ele>
        <time>2018-01-05T11:12:07Z</time>
      </trkpt>
      <trkpt lat="46.05649" lon="4.77397">
        <ele>204</ele>
        <time>2018-01-05T11:12:08Z</time>
      </trkpt>
      <trkpt lat="46.05645" lon="4.77393">
        <ele>203</ele>
        <time>2018-01-05T11:12:09Z</time>
      </trkpt>
      <trkpt lat="46.0564" lon="4.77389">
        <ele>203</ele>
        <time>2018-01-05T11:12:10Z</time>
      </trkpt>
      <trkpt lat="46.05636" lon="4.77384">
        <ele>203</ele>
        <time>2018-01-05T11:12:11Z</time>
      </trkpt>
      <trkpt lat="46.05631" lon="4.7738">
        <ele>203</ele>
        <time>2018-01-05T11:12:12Z</time>
      </trkpt>
      <trkpt lat="46.05627" lon="4.77376">
        <ele>203</ele>
        <time>2018-01-05T11:12:13Z</time>
      </trkpt>
      <trkpt lat="46.05622" lon="4.77372">
        <ele>203</ele>
        <time>2018-01-05T11:12:14Z</time>
      </trkpt>
      <trkpt lat="46.05617" lon="4.77369">
        <ele>203</ele>
        <time>2018-01-05T11:12:15Z</time>
      </trkpt>
      <trkpt lat="46.05612" lon="4.77365">
        <ele>202</ele>
        <time>2018-01-05T11:12:16Z</time>
      </trkpt>
      <trkpt lat="46.05607" lon="4.77361">
        <ele>202</ele>
        <time>2018-01-05T11:12:17Z</time>
      </trkpt>
      <trkpt lat="46.05603" lon="4.77359">
        <ele>202</ele>
        <time>2018-01-05T11:12:18Z</time>
      </trkpt>
      <trkpt lat="46.05598" lon="4.77357">
        <ele>202</ele>
        <time>2018-01-05T11:12:19Z</time>
      </trkpt>
      <trkpt lat="46.05593" lon="4.77353">
        <ele>202</ele>
        <time>2018-01-05T11:12:20Z</time>
      </trkpt>
      <trkpt lat="46.05588" lon="4.7735">
        <ele>201</ele>
        <time>2018-01-05T11:12:21Z</time>
      </trkpt>
      <trkpt lat="46.05584" lon="4.77347">
        <ele>201</ele>
        <time>2018-01-05T11:12:22Z</time>
      </trkpt>
      <trkpt lat="46.05579" lon="4.77344">
        <ele>201</ele>
        <time>2018-01-05T11:12:23Z</time>
      </trkpt>
      <trkpt lat="46.05574" lon="4.7734">
        <ele>201</ele>
        <time>2018-01-05T11:12:24Z</time>
      </trkpt>
      <trkpt lat="46.05569" lon="4.77337">
        <ele>201</ele>
        <time>2018-01-05T11:12:25Z</time>
      </trkpt>
      <trkpt lat="46.05564" lon="4.77334">
        <ele>201</ele>
        <time>2018-01-05T11:12:26Z</time>
      </trkpt>
      <trkpt lat="46.05559" lon="4.77331">
        <ele>200</ele>
        <time>2018-01-05T11:12:27Z</time>
      </trkpt>
      <trkpt lat="46.05554" lon="4.77328">
        <ele>200</ele>
        <time>2018-01-05T11:12:28Z</time>
      </trkpt>
      <trkpt lat="46.05548" lon="4.77325">
        <ele>200</ele>
        <time>2018-01-05T11:12:29Z</time>
      </trkpt>
      <trkpt lat="46.05543" lon="4.77323">
        <ele>200</ele>
        <time>2018-01-05T11:12:30Z</time>
      </trkpt>
      <trkpt lat="46.05539" lon="4.77319">
        <ele>200</ele>
        <time>2018-01-05T11:12:31Z</time>
      </trkpt>
      <trkpt lat="46.05533" lon="4.77316">
        <ele>200</ele>
        <time>2018-01-05T11:12:32Z</time>
      </trkpt>
      <trkpt lat="46.05529" lon="4.77313">
        <ele>200</ele>
        <time>2018-01-05T11:12:33Z</time>
      </trkpt>
      <trkpt lat="46.05523" lon="4.7731">
        <ele>200</ele>
        <time>2018-01-05T11:12:34Z</time>
      </trkpt>
      <trkpt lat="46.05519" lon="4.77307">
        <ele>200</ele>
        <time>2018-01-05T11:12:35Z</time>
      </trkpt>
      <trkpt lat="46.05515" lon="4.77304">
        <ele>200</ele>
        <time>2018-01-05T11:12:36Z</time>
      </trkpt>
      <trkpt lat="46.05511" lon="4.77301">
        <ele>200</ele>
        <time>2018-01-05T11:12:37Z</time>
      </trkpt>
      <trkpt lat="46.05506" lon="4.77298">
        <ele>200</ele>
        <time>2018-01-05T11:12:38Z</time>
      </trkpt>
      <trkpt lat="46.05502" lon="4.77296">
        <ele>200</ele>
        <time>2018-01-05T11:12:39Z</time>
      </trkpt>
      <trkpt lat="46.05497" lon="4.77293">
        <ele>201</ele>
        <time>2018-01-05T11:12:40Z</time>
      </trkpt>
      <trkpt lat="46.05489" lon="4.77291">
        <ele>201</ele>
        <time>2018-01-05T11:12:42Z</time>
      </trkpt>
      <trkpt lat="46.05485" lon="4.77289">
        <ele>201</ele>
        <time>2018-01-05T11:12:43Z</time>
      </trkpt>
      <trkpt lat="46.05481" lon="4.77287">
        <ele>201</ele>
        <time>2018-01-05T11:12:44Z</time>
      </trkpt>
      <trkpt lat="46.05477" lon="4.77284">
        <ele>201</ele>
        <time>2018-01-05T11:12:45Z</time>
      </trkpt>
      <trkpt lat="46.05469" lon="4.77281">
        <ele>201</ele>
        <time>2018-01-05T11:12:47Z</time>
      </trkpt>
      <trkpt lat="46.05466" lon="4.77278">
        <ele>201</ele>
        <time>2018-01-05T11:12:48Z</time>
      </trkpt>
      <trkpt lat="46.05457" lon="4.77276">
        <ele>201</ele>
        <time>2018-01-05T11:12:50Z</time>
      </trkpt>
      <trkpt lat="46.05453" lon="4.77274">
        <ele>201</ele>
        <time>2018-01-05T11:12:51Z</time>
      </trkpt>
      <trkpt lat="46.05448" lon="4.77272">
        <ele>201</ele>
        <time>2018-01-05T11:12:52Z</time>
      </trkpt>
      <trkpt lat="46.05444" lon="4.7727">
        <ele>201</ele>
        <time>2018-01-05T11:12:53Z</time>
      </trkpt>
      <trkpt lat="46.05437" lon="4.77266">
        <ele>201</ele>
        <time>2018-01-05T11:12:55Z</time>
      </trkpt>
      <trkpt lat="46.05434" lon="4.77266">
        <ele>201</ele>
        <time>2018-01-05T11:12:56Z</time>
      </trkpt>
      <trkpt lat="46.05426" lon="4.77263">
        <ele>201</ele>
        <time>2018-01-05T11:12:58Z</time>
      </trkpt>
      <trkpt lat="46.05422" lon="4.77261">
        <ele>201</ele>
        <time>2018-01-05T11:12:59Z</time>
      </trkpt>
      <trkpt lat="46.05417" lon="4.77258">
        <ele>201</ele>
        <time>2018-01-05T11:13:00Z</time>
      </trkpt>
      <trkpt lat="46.05413" lon="4.77256">
        <ele>202</ele>
        <time>2018-01-05T11:13:01Z</time>
      </trkpt>
      <trkpt lat="46.05404" lon="4.77251">
        <ele>202</ele>
        <time>2018-01-05T11:13:03Z</time>
      </trkpt>
      <trkpt lat="46.054" lon="4.77249">
        <ele>202</ele>
        <time>2018-01-05T11:13:04Z</time>
      </trkpt>
      <trkpt lat="46.05392" lon="4.77247">
        <ele>202</ele>
        <time>2018-01-05T11:13:06Z</time>
      </trkpt>
      <trkpt lat="46.05388" lon="4.77245">
        <ele>202</ele>
        <time>2018-01-05T11:13:07Z</time>
      </trkpt>
      <trkpt lat="46.05381" lon="4.7724">
        <ele>203</ele>
        <time>2018-01-05T11:13:09Z</time>
      </trkpt>
      <trkpt lat="46.05377" lon="4.77238">
        <ele>203</ele>
        <time>2018-01-05T11:13:10Z</time>
      </trkpt>
      <trkpt lat="46.0537" lon="4.77234">
        <ele>203</ele>
        <time>2018-01-05T11:13:12Z</time>
      </trkpt>
      <trkpt lat="46.05367" lon="4.77231">
        <ele>203</ele>
        <time>2018-01-05T11:13:13Z</time>
      </trkpt>
      <trkpt lat="46.05359" lon="4.77227">
        <ele>203</ele>
        <time>2018-01-05T11:13:15Z</time>
      </trkpt>
      <trkpt lat="46.05354" lon="4.77224">
        <ele>203</ele>
        <time>2018-01-05T11:13:16Z</time>
      </trkpt>
      <trkpt lat="46.05346" lon="4.7722">
        <ele>204</ele>
        <time>2018-01-05T11:13:18Z</time>
      </trkpt>
      <trkpt lat="46.05343" lon="4.77218">
        <ele>204</ele>
        <time>2018-01-05T11:13:19Z</time>
      </trkpt>
      <trkpt lat="46.05336" lon="4.77212">
        <ele>203</ele>
        <time>2018-01-05T11:13:21Z</time>
      </trkpt>
      <trkpt lat="46.05331" lon="4.77209">
        <ele>205</ele>
        <time>2018-01-05T11:13:22Z</time>
      </trkpt>
      <trkpt lat="46.05323" lon="4.77202">
        <ele>205</ele>
        <time>2018-01-05T11:13:24Z</time>
      </trkpt>
      <trkpt lat="46.05319" lon="4.77198">
        <ele>205</ele>
        <time>2018-01-05T11:13:25Z</time>
      </trkpt>
      <trkpt lat="46.05316" lon="4.77193">
        <ele>205</ele>
        <time>2018-01-05T11:13:26Z</time>
      </trkpt>
      <trkpt lat="46.05312" lon="4.7719">
        <ele>205</ele>
        <time>2018-01-05T11:13:27Z</time>
      </trkpt>
      <trkpt lat="46.05307" lon="4.77187">
        <ele>205</ele>
        <time>2018-01-05T11:13:28Z</time>
      </trkpt>
      <trkpt lat="46.05304" lon="4.77183">
        <ele>205</ele>
        <time>2018-01-05T11:13:29Z</time>
      </trkpt>
      <trkpt lat="46.05297" lon="4.77175">
        <ele>205</ele>
        <time>2018-01-05T11:13:31Z</time>
      </trkpt>
      <trkpt lat="46.05294" lon="4.77171">
        <ele>205</ele>
        <time>2018-01-05T11:13:32Z</time>
      </trkpt>
      <trkpt lat="46.05286" lon="4.77164">
        <ele>204</ele>
        <time>2018-01-05T11:13:34Z</time>
      </trkpt>
      <trkpt lat="46.05281" lon="4.77161">
        <ele>204</ele>
        <time>2018-01-05T11:13:35Z</time>
      </trkpt>
      <trkpt lat="46.05276" lon="4.77157">
        <ele>204</ele>
        <time>2018-01-05T11:13:36Z</time>
      </trkpt>
      <trkpt lat="46.05272" lon="4.77153">
        <ele>204</ele>
        <time>2018-01-05T11:13:37Z</time>
      </trkpt>
      <trkpt lat="46.05265" lon="4.77146">
        <ele>204</ele>
        <time>2018-01-05T11:13:39Z</time>
      </trkpt>
      <trkpt lat="46.05261" lon="4.77142">
        <ele>204</ele>
        <time>2018-01-05T11:13:40Z</time>
      </trkpt>
      <trkpt lat="46.05257" lon="4.77137">
        <ele>204</ele>
        <time>2018-01-05T11:13:41Z</time>
      </trkpt>
      <trkpt lat="46.05254" lon="4.77133">
        <ele>204</ele>
        <time>2018-01-05T11:13:42Z</time>
      </trkpt>
      <trkpt lat="46.05251" lon="4.77129">
        <ele>204</ele>
        <time>2018-01-05T11:13:43Z</time>
      </trkpt>
      <trkpt lat="46.05247" lon="4.77125">
        <ele>204</ele>
        <time>2018-01-05T11:13:44Z</time>
      </trkpt>
      <trkpt lat="46.05243" lon="4.77121">
        <ele>204</ele>
        <time>2018-01-05T11:13:45Z</time>
      </trkpt>
      <trkpt lat="46.0524" lon="4.77116">
        <ele>203</ele>
        <time>2018-01-05T11:13:46Z</time>
      </trkpt>
      <trkpt lat="46.05235" lon="4.77112">
        <ele>203</ele>
        <time>2018-01-05T11:13:47Z</time>
      </trkpt>
      <trkpt lat="46.05231" lon="4.77107">
        <ele>203</ele>
        <time>2018-01-05T11:13:48Z</time>
      </trkpt>
      <trkpt lat="46.05228" lon="4.77103">
        <ele>203</ele>
        <time>2018-01-05T11:13:49Z</time>
      </trkpt>
      <trkpt lat="46.05226" lon="4.77095">
        <ele>203</ele>
        <time>2018-01-05T11:13:50Z</time>
      </trkpt>
      <trkpt lat="46.05224" lon="4.77088">
        <ele>203</ele>
        <time>2018-01-05T11:13:51Z</time>
      </trkpt>
      <trkpt lat="46.05221" lon="4.77079">
        <ele>201</ele>
        <time>2018-01-05T11:13:52Z</time>
      </trkpt>
      <trkpt lat="46.05218" lon="4.77071">
        <ele>201</ele>
        <time>2018-01-05T11:13:53Z</time>
      </trkpt>
      <trkpt lat="46.05214" lon="4.77062">
        <ele>201</ele>
        <time>2018-01-05T11:13:54Z</time>
      </trkpt>
      <trkpt lat="46.05213" lon="4.77054">
        <ele>201</ele>
        <time>2018-01-05T11:13:55Z</time>
      </trkpt>
      <trkpt lat="46.05211" lon="4.77046">
        <ele>201</ele>
        <time>2018-01-05T11:13:56Z</time>
      </trkpt>
      <trkpt lat="46.05209" lon="4.77037">
        <ele>200</ele>
        <time>2018-01-05T11:13:57Z</time>
      </trkpt>
      <trkpt lat="46.05206" lon="4.77027">
        <ele>200</ele>
        <time>2018-01-05T11:13:58Z</time>
      </trkpt>
      <trkpt lat="46.05203" lon="4.77019">
        <ele>200</ele>
        <time>2018-01-05T11:13:59Z</time>
      </trkpt>
      <trkpt lat="46.052" lon="4.7701">
        <ele>200</ele>
        <time>2018-01-05T11:14:00Z</time>
      </trkpt>
      <trkpt lat="46.05198" lon="4.77001">
        <ele>200</ele>
        <time>2018-01-05T11:14:01Z</time>
      </trkpt>
      <trkpt lat="46.05194" lon="4.76992">
        <ele>198</ele>
        <time>2018-01-05T11:14:02Z</time>
      </trkpt>
      <trkpt lat="46.05191" lon="4.76983">
        <ele>198</ele>
        <time>2018-01-05T11:14:03Z</time>
      </trkpt>
      <trkpt lat="46.05189" lon="4.76975">
        <ele>198</ele>
        <time>2018-01-05T11:14:04Z</time>
      </trkpt>
      <trkpt lat="46.05185" lon="4.76966">
        <ele>198</ele>
        <time>2018-01-05T11:14:05Z</time>
      </trkpt>
      <trkpt lat="46.05181" lon="4.76958">
        <ele>198</ele>
        <time>2018-01-05T11:14:06Z</time>
      </trkpt>
      <trkpt lat="46.05175" lon="4.76949">
        <ele>197</ele>
        <time>2018-01-05T11:14:07Z</time>
      </trkpt>
      <trkpt lat="46.05171" lon="4.76941">
        <ele>197</ele>
        <time>2018-01-05T11:14:08Z</time>
      </trkpt>
      <trkpt lat="46.05167" lon="4.76932">
        <ele>197</ele>
        <time>2018-01-05T11:14:09Z</time>
      </trkpt>
      <trkpt lat="46.05163" lon="4.76924">
        <ele>196</ele>
        <time>2018-01-05T11:14:10Z</time>
      </trkpt>
      <trkpt lat="46.05159" lon="4.76915">
        <ele>196</ele>
        <time>2018-01-05T11:14:11Z</time>
      </trkpt>
      <trkpt lat="46.05155" lon="4.76906">
        <ele>195</ele>
        <time>2018-01-05T11:14:12Z</time>
      </trkpt>
      <trkpt lat="46.0515" lon="4.76898">
        <ele>195</ele>
        <time>2018-01-05T11:14:13Z</time>
      </trkpt>
      <trkpt lat="46.05146" lon="4.7689">
        <ele>195</ele>
        <time>2018-01-05T11:14:14Z</time>
      </trkpt>
      <trkpt lat="46.05141" lon="4.76883">
        <ele>195</ele>
        <time>2018-01-05T11:14:15Z</time>
      </trkpt>
      <trkpt lat="46.05139" lon="4.76875">
        <ele>195</ele>
        <time>2018-01-05T11:14:16Z</time>
      </trkpt>
      <trkpt lat="46.05131" lon="4.76871">
        <ele>195</ele>
        <time>2018-01-05T11:14:17Z</time>
      </trkpt>
      <trkpt lat="46.05127" lon="4.76862">
        <ele>195</ele>
        <time>2018-01-05T11:14:18Z</time>
      </trkpt>
      <trkpt lat="46.05123" lon="4.76852">
        <ele>195</ele>
        <time>2018-01-05T11:14:19Z</time>
      </trkpt>
      <trkpt lat="46.05121" lon="4.76844">
        <ele>195</ele>
        <time>2018-01-05T11:14:20Z</time>
      </trkpt>
      <trkpt lat="46.05118" lon="4.76836">
        <ele>195</ele>
        <time>2018-01-05T11:14:21Z</time>
      </trkpt>
      <trkpt lat="46.05114" lon="4.76828">
        <ele>194</ele>
        <time>2018-01-05T11:14:22Z</time>
      </trkpt>
      <trkpt lat="46.0511" lon="4.7682">
        <ele>194</ele>
        <time>2018-01-05T11:14:23Z</time>
      </trkpt>
      <trkpt lat="46.05107" lon="4.76812">
        <ele>194</ele>
        <time>2018-01-05T11:14:24Z</time>
      </trkpt>
      <trkpt lat="46.05106" lon="4.76804">
        <ele>194</ele>
        <time>2018-01-05T11:14:25Z</time>
      </trkpt>
      <trkpt lat="46.05104" lon="4.76797">
        <ele>194</ele>
        <time>2018-01-05T11:14:26Z</time>
      </trkpt>
      <trkpt lat="46.05102" lon="4.7679">
        <ele>194</ele>
        <time>2018-01-05T11:14:27Z</time>
      </trkpt>
      <trkpt lat="46.051" lon="4.76782">
        <ele>194</ele>
        <time>2018-01-05T11:14:28Z</time>
      </trkpt>
      <trkpt lat="46.05097" lon="4.76773">
        <ele>194</ele>
        <time>2018-01-05T11:14:29Z</time>
      </trkpt>
      <trkpt lat="46.05094" lon="4.76766">
        <ele>194</ele>
        <time>2018-01-05T11:14:30Z</time>
      </trkpt>
      <trkpt lat="46.05093" lon="4.76759">
        <ele>194</ele>
        <time>2018-01-05T11:14:31Z</time>
      </trkpt>
      <trkpt lat="46.05091" lon="4.76752">
        <ele>194</ele>
        <time>2018-01-05T11:14:32Z</time>
      </trkpt>
      <trkpt lat="46.0509" lon="4.76745">
        <ele>194</ele>
        <time>2018-01-05T11:14:33Z</time>
      </trkpt>
      <trkpt lat="46.05088" lon="4.76738">
        <ele>193</ele>
        <time>2018-01-05T11:14:34Z</time>
      </trkpt>
      <trkpt lat="46.05089" lon="4.76725">
        <ele>193</ele>
        <time>2018-01-05T11:14:36Z</time>
      </trkpt>
      <trkpt lat="46.05088" lon="4.76718">
        <ele>193</ele>
        <time>2018-01-05T11:14:37Z</time>
      </trkpt>
      <trkpt lat="46.05086" lon="4.7671">
        <ele>193</ele>
        <time>2018-01-05T11:14:38Z</time>
      </trkpt>
      <trkpt lat="46.05085" lon="4.76703">
        <ele>193</ele>
        <time>2018-01-05T11:14:39Z</time>
      </trkpt>
      <trkpt lat="46.05084" lon="4.76695">
        <ele>193</ele>
        <time>2018-01-05T11:14:40Z</time>
      </trkpt>
      <trkpt lat="46.05083" lon="4.76686">
        <ele>193</ele>
        <time>2018-01-05T11:14:41Z</time>
      </trkpt>
      <trkpt lat="46.05084" lon="4.76678">
        <ele>193</ele>
        <time>2018-01-05T11:14:42Z</time>
      </trkpt>
      <trkpt lat="46.05084" lon="4.76671">
        <ele>193</ele>
        <time>2018-01-05T11:14:43Z</time>
      </trkpt>
      <trkpt lat="46.05082" lon="4.76664">
        <ele>193</ele>
        <time>2018-01-05T11:14:44Z</time>
      </trkpt>
      <trkpt lat="46.05082" lon="4.76657">
        <ele>193</ele>
        <time>2018-01-05T11:14:45Z</time>
      </trkpt>
      <trkpt lat="46.05082" lon="4.7665">
        <ele>192</ele>
        <time>2018-01-05T11:14:46Z</time>
      </trkpt>
      <trkpt lat="46.05082" lon="4.76637">
        <ele>192</ele>
        <time>2018-01-05T11:14:47Z</time>
      </trkpt>
      <trkpt lat="46.05084" lon="4.76627">
        <ele>191</ele>
        <time>2018-01-05T11:14:49Z</time>
      </trkpt>
      <trkpt lat="46.05084" lon="4.76622">
        <ele>190</ele>
        <time>2018-01-05T11:14:50Z</time>
      </trkpt>
      <trkpt lat="46.0508" lon="4.76611">
        <ele>191</ele>
        <time>2018-01-05T11:15:00Z</time>
      </trkpt>
      <trkpt lat="46.0508" lon="4.76609">
        <ele>191</ele>
        <time>2018-01-05T11:15:01Z</time>
      </trkpt>
      <trkpt lat="46.05073" lon="4.76604">
        <ele>191</ele>
        <time>2018-01-05T11:15:06Z</time>
      </trkpt>
      <trkpt lat="46.05071" lon="4.76603">
        <ele>191</ele>
        <time>2018-01-05T11:15:07Z</time>
      </trkpt>
      <trkpt lat="46.05064" lon="4.76598">
        <ele>191</ele>
        <time>2018-01-05T11:15:09Z</time>
      </trkpt>
      <trkpt lat="46.05061" lon="4.76595">
        <ele>191</ele>
        <time>2018-01-05T11:15:10Z</time>
      </trkpt>
      <trkpt lat="46.05054" lon="4.7659">
        <ele>191</ele>
        <time>2018-01-05T11:15:12Z</time>
      </trkpt>
      <trkpt lat="46.0505" lon="4.76587">
        <ele>191</ele>
        <time>2018-01-05T11:15:13Z</time>
      </trkpt>
      <trkpt lat="46.05046" lon="4.76583">
        <ele>190</ele>
        <time>2018-01-05T11:15:14Z</time>
      </trkpt>
      <trkpt lat="46.05042" lon="4.76579">
        <ele>190</ele>
        <time>2018-01-05T11:15:15Z</time>
      </trkpt>
      <trkpt lat="46.05034" lon="4.76575">
        <ele>190</ele>
        <time>2018-01-05T11:15:17Z</time>
      </trkpt>
      <trkpt lat="46.05029" lon="4.76574">
        <ele>190</ele>
        <time>2018-01-05T11:15:18Z</time>
      </trkpt>
      <trkpt lat="46.05025" lon="4.7657">
        <ele>190</ele>
        <time>2018-01-05T11:15:19Z</time>
      </trkpt>
      <trkpt lat="46.05019" lon="4.76571">
        <ele>191</ele>
        <time>2018-01-05T11:15:20Z</time>
      </trkpt>
      <trkpt lat="46.05014" lon="4.76563">
        <ele>190</ele>
        <time>2018-01-05T11:15:22Z</time>
      </trkpt>
      <trkpt lat="46.05012" lon="4.76557">
        <ele>190</ele>
        <time>2018-01-05T11:15:23Z</time>
      </trkpt>
      <trkpt lat="46.05009" lon="4.7655">
        <ele>190</ele>
        <time>2018-01-05T11:15:24Z</time>
      </trkpt>
      <trkpt lat="46.05006" lon="4.76545">
        <ele>190</ele>
        <time>2018-01-05T11:15:25Z</time>
      </trkpt>
      <trkpt lat="46.05002" lon="4.76538">
        <ele>190</ele>
        <time>2018-01-05T11:15:26Z</time>
      </trkpt>
      <trkpt lat="46.04999" lon="4.76533">
        <ele>191</ele>
        <time>2018-01-05T11:15:27Z</time>
      </trkpt>
      <trkpt lat="46.04995" lon="4.76528">
        <ele>191</ele>
        <time>2018-01-05T11:15:28Z</time>
      </trkpt>
      <trkpt lat="46.04994" lon="4.76521">
        <ele>191</ele>
        <time>2018-01-05T11:15:29Z</time>
      </trkpt>
      <trkpt lat="46.04992" lon="4.76513">
        <ele>191</ele>
        <time>2018-01-05T11:15:30Z</time>
      </trkpt>
      <trkpt lat="46.04989" lon="4.76507">
        <ele>191</ele>
        <time>2018-01-05T11:15:31Z</time>
      </trkpt>
      <trkpt lat="46.04986" lon="4.765">
        <ele>191</ele>
        <time>2018-01-05T11:15:32Z</time>
      </trkpt>
      <trkpt lat="46.04983" lon="4.76495">
        <ele>190</ele>
        <time>2018-01-05T11:15:33Z</time>
      </trkpt>
      <trkpt lat="46.04978" lon="4.76489">
        <ele>191</ele>
        <time>2018-01-05T11:15:34Z</time>
      </trkpt>
      <trkpt lat="46.04977" lon="4.76484">
        <ele>191</ele>
        <time>2018-01-05T11:15:35Z</time>
      </trkpt>
      <trkpt lat="46.04975" lon="4.76472">
        <ele>191</ele>
        <time>2018-01-05T11:15:37Z</time>
      </trkpt>
      <trkpt lat="46.04973" lon="4.76465">
        <ele>191</ele>
        <time>2018-01-05T11:15:38Z</time>
      </trkpt>
      <trkpt lat="46.04969" lon="4.76455">
        <ele>190</ele>
        <time>2018-01-05T11:15:40Z</time>
      </trkpt>
      <trkpt lat="46.04966" lon="4.76448">
        <ele>190</ele>
        <time>2018-01-05T11:15:41Z</time>
      </trkpt>
      <trkpt lat="46.04963" lon="4.76443">
        <ele>191</ele>
        <time>2018-01-05T11:15:42Z</time>
      </trkpt>
      <trkpt lat="46.04959" lon="4.76438">
        <ele>191</ele>
        <time>2018-01-05T11:15:43Z</time>
      </trkpt>
      <trkpt lat="46.04955" lon="4.76432">
        <ele>191</ele>
        <time>2018-01-05T11:15:44Z</time>
      </trkpt>
      <trkpt lat="46.04949" lon="4.76431">
        <ele>191</ele>
        <time>2018-01-05T11:15:45Z</time>
      </trkpt>
      <trkpt lat="46.04946" lon="4.7643">
        <ele>191</ele>
        <time>2018-01-05T11:15:46Z</time>
      </trkpt>
      <trkpt lat="46.04939" lon="4.76429">
        <ele>191</ele>
        <time>2018-01-05T11:15:47Z</time>
      </trkpt>
      <trkpt lat="46.04932" lon="4.76431">
        <ele>191</ele>
        <time>2018-01-05T11:15:49Z</time>
      </trkpt>
      <trkpt lat="46.04928" lon="4.76434">
        <ele>191</ele>
        <time>2018-01-05T11:15:50Z</time>
      </trkpt>
      <trkpt lat="46.04923" lon="4.76438">
        <ele>191</ele>
        <time>2018-01-05T11:15:51Z</time>
      </trkpt>
      <trkpt lat="46.04918" lon="4.76441">
        <ele>191</ele>
        <time>2018-01-05T11:15:52Z</time>
      </trkpt>
      <trkpt lat="46.0491" lon="4.76443">
        <ele>193</ele>
        <time>2018-01-05T11:15:54Z</time>
      </trkpt>
      <trkpt lat="46.04906" lon="4.76446">
        <ele>193</ele>
        <time>2018-01-05T11:15:55Z</time>
      </trkpt>
      <trkpt lat="46.04901" lon="4.76448">
        <ele>193</ele>
        <time>2018-01-05T11:15:56Z</time>
      </trkpt>
      <trkpt lat="46.04896" lon="4.7645">
        <ele>193</ele>
        <time>2018-01-05T11:15:57Z</time>
      </trkpt>
      <trkpt lat="46.04888" lon="4.7645">
        <ele>193</ele>
        <time>2018-01-05T11:15:59Z</time>
      </trkpt>
      <trkpt lat="46.04884" lon="4.76449">
        <ele>193</ele>
        <time>2018-01-05T11:16:00Z</time>
      </trkpt>
      <trkpt lat="46.04876" lon="4.76447">
        <ele>193</ele>
        <time>2018-01-05T11:16:02Z</time>
      </trkpt>
      <trkpt lat="46.04871" lon="4.76448">
        <ele>193</ele>
        <time>2018-01-05T11:16:03Z</time>
      </trkpt>
      <trkpt lat="46.04865" lon="4.76449">
        <ele>193</ele>
        <time>2018-01-05T11:16:05Z</time>
      </trkpt>
      <trkpt lat="46.04861" lon="4.76449">
        <ele>193</ele>
        <time>2018-01-05T11:16:06Z</time>
      </trkpt>
      <trkpt lat="46.04854" lon="4.76448">
        <ele>193</ele>
        <time>2018-01-05T11:16:08Z</time>
      </trkpt>
      <trkpt lat="46.04851" lon="4.76448">
        <ele>193</ele>
        <time>2018-01-05T11:16:09Z</time>
      </trkpt>
      <trkpt lat="46.04843" lon="4.76449">
        <ele>194</ele>
        <time>2018-01-05T11:16:11Z</time>
      </trkpt>
      <trkpt lat="46.04839" lon="4.76448">
        <ele>194</ele>
        <time>2018-01-05T11:16:12Z</time>
      </trkpt>
      <trkpt lat="46.04835" lon="4.76447">
        <ele>194</ele>
        <time>2018-01-05T11:16:13Z</time>
      </trkpt>
      <trkpt lat="46.0483" lon="4.76446">
        <ele>193</ele>
        <time>2018-01-05T11:16:14Z</time>
      </trkpt>
      <trkpt lat="46.04823" lon="4.76444">
        <ele>193</ele>
        <time>2018-01-05T11:16:16Z</time>
      </trkpt>
      <trkpt lat="46.04819" lon="4.76443">
        <ele>193</ele>
        <time>2018-01-05T11:16:17Z</time>
      </trkpt>
      <trkpt lat="46.04812" lon="4.7644">
        <ele>193</ele>
        <time>2018-01-05T11:16:19Z</time>
      </trkpt>
      <trkpt lat="46.04809" lon="4.7644">
        <ele>193</ele>
        <time>2018-01-05T11:16:20Z</time>
      </trkpt>
      <trkpt lat="46.04804" lon="4.7644">
        <ele>193</ele>
        <time>2018-01-05T11:16:21Z</time>
      </trkpt>
      <trkpt lat="46.04799" lon="4.76441">
        <ele>193</ele>
        <time>2018-01-05T11:16:22Z</time>
      </trkpt>
      <trkpt lat="46.04795" lon="4.7644">
        <ele>193</ele>
        <time>2018-01-05T11:16:23Z</time>
      </trkpt>
      <trkpt lat="46.0479" lon="4.7644">
        <ele>192</ele>
        <time>2018-01-05T11:16:24Z</time>
      </trkpt>
      <trkpt lat="46.04786" lon="4.76448">
        <ele>192</ele>
        <time>2018-01-05T11:16:25Z</time>
      </trkpt>
      <trkpt lat="46.04781" lon="4.76452">
        <ele>192</ele>
        <time>2018-01-05T11:16:26Z</time>
      </trkpt>
      <trkpt lat="46.04776" lon="4.76456">
        <ele>192</ele>
        <time>2018-01-05T11:16:28Z</time>
      </trkpt>
      <trkpt lat="46.04773" lon="4.76458">
        <ele>192</ele>
        <time>2018-01-05T11:16:29Z</time>
      </trkpt>
      <trkpt lat="46.0477" lon="4.76465">
        <ele>192</ele>
        <time>2018-01-05T11:16:30Z</time>
      </trkpt>
      <trkpt lat="46.04765" lon="4.76467">
        <ele>192</ele>
        <time>2018-01-05T11:16:31Z</time>
      </trkpt>
      <trkpt lat="46.0476" lon="4.76468">
        <ele>192</ele>
        <time>2018-01-05T11:16:32Z</time>
      </trkpt>
      <trkpt lat="46.04757" lon="4.76474">
        <ele>192</ele>
        <time>2018-01-05T11:16:33Z</time>
      </trkpt>
      <trkpt lat="46.04749" lon="4.76479">
        <ele>190</ele>
        <time>2018-01-05T11:16:35Z</time>
      </trkpt>
      <trkpt lat="46.04746" lon="4.76478">
        <ele>190</ele>
        <time>2018-01-05T11:16:36Z</time>
      </trkpt>
      <trkpt lat="46.04741" lon="4.7648">
        <ele>190</ele>
        <time>2018-01-05T11:16:37Z</time>
      </trkpt>
      <trkpt lat="46.04737" lon="4.76483">
        <ele>190</ele>
        <time>2018-01-05T11:16:38Z</time>
      </trkpt>
      <trkpt lat="46.04732" lon="4.76484">
        <ele>190</ele>
        <time>2018-01-05T11:16:39Z</time>
      </trkpt>
      <trkpt lat="46.04726" lon="4.76487">
        <ele>189</ele>
        <time>2018-01-05T11:16:40Z</time>
      </trkpt>
      <trkpt lat="46.0472" lon="4.76485">
        <ele>189</ele>
        <time>2018-01-05T11:16:41Z</time>
      </trkpt>
      <trkpt lat="46.04714" lon="4.76487">
        <ele>189</ele>
        <time>2018-01-05T11:16:42Z</time>
      </trkpt>
      <trkpt lat="46.0471" lon="4.76488">
        <ele>189</ele>
        <time>2018-01-05T11:16:43Z</time>
      </trkpt>
      <trkpt lat="46.04705" lon="4.76488">
        <ele>189</ele>
        <time>2018-01-05T11:16:44Z</time>
      </trkpt>
      <trkpt lat="46.04697" lon="4.7649">
        <ele>188</ele>
        <time>2018-01-05T11:16:48Z</time>
      </trkpt>
      <trkpt lat="46.04694" lon="4.76491">
        <ele>188</ele>
        <time>2018-01-05T11:16:49Z</time>
      </trkpt>
      <trkpt lat="46.04688" lon="4.76498">
        <ele>188</ele>
        <time>2018-01-05T11:17:06Z</time>
      </trkpt>
      <trkpt lat="46.04686" lon="4.765">
        <ele>187</ele>
        <time>2018-01-05T11:17:07Z</time>
      </trkpt>
      <trkpt lat="46.0468" lon="4.76506">
        <ele>187</ele>
        <time>2018-01-05T11:17:10Z</time>
      </trkpt>
      <trkpt lat="46.04678" lon="4.76508">
        <ele>187</ele>
        <time>2018-01-05T11:17:11Z</time>
      </trkpt>
      <trkpt lat="46.04672" lon="4.76511">
        <ele>187</ele>
        <time>2018-01-05T11:17:13Z</time>
      </trkpt>
      <trkpt lat="46.04668" lon="4.76512">
        <ele>187</ele>
        <time>2018-01-05T11:17:14Z</time>
      </trkpt>
      <trkpt lat="46.04664" lon="4.76512">
        <ele>186</ele>
        <time>2018-01-05T11:17:15Z</time>
      </trkpt>
      <trkpt lat="46.04659" lon="4.76509">
        <ele>186</ele>
        <time>2018-01-05T11:17:16Z</time>
      </trkpt>
      <trkpt lat="46.04655" lon="4.76509">
        <ele>186</ele>
        <time>2018-01-05T11:17:17Z</time>
      </trkpt>
      <trkpt lat="46.0465" lon="4.7651">
        <ele>186</ele>
        <time>2018-01-05T11:17:18Z</time>
      </trkpt>
      <trkpt lat="46.04642" lon="4.76512">
        <ele>186</ele>
        <time>2018-01-05T11:17:20Z</time>
      </trkpt>
      <trkpt lat="46.04637" lon="4.76514">
        <ele>186</ele>
        <time>2018-01-05T11:17:21Z</time>
      </trkpt>
      <trkpt lat="46.04632" lon="4.76516">
        <ele>186</ele>
        <time>2018-01-05T11:17:22Z</time>
      </trkpt>
      <trkpt lat="46.04627" lon="4.76518">
        <ele>186</ele>
        <time>2018-01-05T11:17:23Z</time>
      </trkpt>
      <trkpt lat="46.04622" lon="4.7652">
        <ele>186</ele>
        <time>2018-01-05T11:17:24Z</time>
      </trkpt>
      <trkpt lat="46.04615" lon="4.76521">
        <ele>186</ele>
        <time>2018-01-05T11:17:25Z</time>
      </trkpt>
      <trkpt lat="46.0461" lon="4.76524">
        <ele>186</ele>
        <time>2018-01-05T11:17:26Z</time>
      </trkpt>
      <trkpt lat="46.04605" lon="4.76526">
        <ele>186</ele>
        <time>2018-01-05T11:17:27Z</time>
      </trkpt>
      <trkpt lat="46.046" lon="4.76528">
        <ele>186</ele>
        <time>2018-01-05T11:17:28Z</time>
      </trkpt>
      <trkpt lat="46.04595" lon="4.7653">
        <ele>186</ele>
        <time>2018-01-05T11:17:29Z</time>
      </trkpt>
      <trkpt lat="46.04589" lon="4.76532">
        <ele>186</ele>
        <time>2018-01-05T11:17:30Z</time>
      </trkpt>
      <trkpt lat="46.04585" lon="4.76535">
        <ele>186</ele>
        <time>2018-01-05T11:17:31Z</time>
      </trkpt>
      <trkpt lat="46.04579" lon="4.76538">
        <ele>187</ele>
        <time>2018-01-05T11:17:32Z</time>
      </trkpt>
      <trkpt lat="46.04574" lon="4.7654">
        <ele>187</ele>
        <time>2018-01-05T11:17:33Z</time>
      </trkpt>
      <trkpt lat="46.04566" lon="4.76543">
        <ele>187</ele>
        <time>2018-01-05T11:17:35Z</time>
      </trkpt>
      <trkpt lat="46.04563" lon="4.76545">
        <ele>187</ele>
        <time>2018-01-05T11:17:36Z</time>
      </trkpt>
      <trkpt lat="46.04557" lon="4.76547">
        <ele>188</ele>
        <time>2018-01-05T11:17:37Z</time>
      </trkpt>
      <trkpt lat="46.04553" lon="4.76548">
        <ele>188</ele>
        <time>2018-01-05T11:17:38Z</time>
      </trkpt>
      <trkpt lat="46.04544" lon="4.76551">
        <ele>188</ele>
        <time>2018-01-05T11:17:40Z</time>
      </trkpt>
      <trkpt lat="46.0454" lon="4.76551">
        <ele>188</ele>
        <time>2018-01-05T11:17:41Z</time>
      </trkpt>
      <trkpt lat="46.04532" lon="4.76552">
        <ele>188</ele>
        <time>2018-01-05T11:17:43Z</time>
      </trkpt>
      <trkpt lat="46.0453" lon="4.76551">
        <ele>188</ele>
        <time>2018-01-05T11:17:44Z</time>
      </trkpt>
      <trkpt lat="46.04523" lon="4.76552">
        <ele>189</ele>
        <time>2018-01-05T11:17:46Z</time>
      </trkpt>
      <trkpt lat="46.04519" lon="4.76553">
        <ele>189</ele>
        <time>2018-01-05T11:17:47Z</time>
      </trkpt>
      <trkpt lat="46.04512" lon="4.76557">
        <ele>189</ele>
        <time>2018-01-05T11:17:49Z</time>
      </trkpt>
      <trkpt lat="46.04508" lon="4.76558">
        <ele>189</ele>
        <time>2018-01-05T11:17:50Z</time>
      </trkpt>
      <trkpt lat="46.04502" lon="4.7656">
        <ele>189</ele>
        <time>2018-01-05T11:17:52Z</time>
      </trkpt>
      <trkpt lat="46.04498" lon="4.7656">
        <ele>192</ele>
        <time>2018-01-05T11:17:53Z</time>
      </trkpt>
      <trkpt lat="46.04491" lon="4.7656">
        <ele>192</ele>
        <time>2018-01-05T11:17:55Z</time>
      </trkpt>
      <trkpt lat="46.04487" lon="4.7656">
        <ele>193</ele>
        <time>2018-01-05T11:17:56Z</time>
      </trkpt>
      <trkpt lat="46.04479" lon="4.76559">
        <ele>193</ele>
        <time>2018-01-05T11:17:58Z</time>
      </trkpt>
      <trkpt lat="46.04476" lon="4.76559">
        <ele>193</ele>
        <time>2018-01-05T11:17:59Z</time>
      </trkpt>
      <trkpt lat="46.04468" lon="4.76559">
        <ele>193</ele>
        <time>2018-01-05T11:18:01Z</time>
      </trkpt>
      <trkpt lat="46.04464" lon="4.76559">
        <ele>194</ele>
        <time>2018-01-05T11:18:02Z</time>
      </trkpt>
      <trkpt lat="46.04457" lon="4.7656">
        <ele>194</ele>
        <time>2018-01-05T11:18:04Z</time>
      </trkpt>
      <trkpt lat="46.04453" lon="4.7656">
        <ele>194</ele>
        <time>2018-01-05T11:18:05Z</time>
      </trkpt>
      <trkpt lat="46.04446" lon="4.76561">
        <ele>194</ele>
        <time>2018-01-05T11:18:07Z</time>
      </trkpt>
      <trkpt lat="46.04443" lon="4.76562">
        <ele>195</ele>
        <time>2018-01-05T11:18:08Z</time>
      </trkpt>
      <trkpt lat="46.04434" lon="4.76563">
        <ele>195</ele>
        <time>2018-01-05T11:18:10Z</time>
      </trkpt>
      <trkpt lat="46.0443" lon="4.76564">
        <ele>196</ele>
        <time>2018-01-05T11:18:11Z</time>
      </trkpt>
      <trkpt lat="46.04426" lon="4.76564">
        <ele>196</ele>
        <time>2018-01-05T11:18:12Z</time>
      </trkpt>
      <trkpt lat="46.04421" lon="4.76565">
        <ele>196</ele>
        <time>2018-01-05T11:18:13Z</time>
      </trkpt>
      <trkpt lat="46.04413" lon="4.76564">
        <ele>198</ele>
        <time>2018-01-05T11:18:15Z</time>
      </trkpt>
      <trkpt lat="46.04409" lon="4.76563">
        <ele>197</ele>
        <time>2018-01-05T11:18:16Z</time>
      </trkpt>
      <trkpt lat="46.04401" lon="4.76563">
        <ele>197</ele>
        <time>2018-01-05T11:18:18Z</time>
      </trkpt>
      <trkpt lat="46.04397" lon="4.76563">
        <ele>197</ele>
        <time>2018-01-05T11:18:19Z</time>
      </trkpt>
      <trkpt lat="46.04388" lon="4.76563">
        <ele>197</ele>
        <time>2018-01-05T11:18:21Z</time>
      </trkpt>
      <trkpt lat="46.04384" lon="4.76564">
        <ele>197</ele>
        <time>2018-01-05T11:18:22Z</time>
      </trkpt>
      <trkpt lat="46.04375" lon="4.76566">
        <ele>197</ele>
        <time>2018-01-05T11:18:24Z</time>
      </trkpt>
      <trkpt lat="46.04371" lon="4.76566">
        <ele>197</ele>
        <time>2018-01-05T11:18:25Z</time>
      </trkpt>
      <trkpt lat="46.04363" lon="4.76568">
        <ele>197</ele>
        <time>2018-01-05T11:18:27Z</time>
      </trkpt>
      <trkpt lat="46.04358" lon="4.76569">
        <ele>197</ele>
        <time>2018-01-05T11:18:28Z</time>
      </trkpt>
      <trkpt lat="46.04349" lon="4.76569">
        <ele>198</ele>
        <time>2018-01-05T11:18:30Z</time>
      </trkpt>
      <trkpt lat="46.04345" lon="4.76569">
        <ele>198</ele>
        <time>2018-01-05T11:18:31Z</time>
      </trkpt>
      <trkpt lat="46.04338" lon="4.7657">
        <ele>198</ele>
        <time>2018-01-05T11:18:33Z</time>
      </trkpt>
      <trkpt lat="46.04334" lon="4.7657">
        <ele>198</ele>
        <time>2018-01-05T11:18:34Z</time>
      </trkpt>
      <trkpt lat="46.04325" lon="4.76571">
        <ele>198</ele>
        <time>2018-01-05T11:18:36Z</time>
      </trkpt>
      <trkpt lat="46.04321" lon="4.76572">
        <ele>197</ele>
        <time>2018-01-05T11:18:37Z</time>
      </trkpt>
      <trkpt lat="46.04313" lon="4.76572">
        <ele>197</ele>
        <time>2018-01-05T11:18:39Z</time>
      </trkpt>
      <trkpt lat="46.04308" lon="4.76573">
        <ele>197</ele>
        <time>2018-01-05T11:18:40Z</time>
      </trkpt>
      <trkpt lat="46.043" lon="4.76575">
        <ele>197</ele>
        <time>2018-01-05T11:18:42Z</time>
      </trkpt>
      <trkpt lat="46.04296" lon="4.76575">
        <ele>197</ele>
        <time>2018-01-05T11:18:43Z</time>
      </trkpt>
      <trkpt lat="46.04287" lon="4.76577">
        <ele>197</ele>
        <time>2018-01-05T11:18:45Z</time>
      </trkpt>
      <trkpt lat="46.04283" lon="4.76577">
        <ele>197</ele>
        <time>2018-01-05T11:18:46Z</time>
      </trkpt>
      <trkpt lat="46.04275" lon="4.76578">
        <ele>197</ele>
        <time>2018-01-05T11:18:48Z</time>
      </trkpt>
      <trkpt lat="46.04272" lon="4.76579">
        <ele>197</ele>
        <time>2018-01-05T11:18:49Z</time>
      </trkpt>
      <trkpt lat="46.04264" lon="4.76581">
        <ele>197</ele>
        <time>2018-01-05T11:18:51Z</time>
      </trkpt>
      <trkpt lat="46.04259" lon="4.76582">
        <ele>197</ele>
        <time>2018-01-05T11:18:52Z</time>
      </trkpt>
      <trkpt lat="46.04252" lon="4.76584">
        <ele>197</ele>
        <time>2018-01-05T11:18:54Z</time>
      </trkpt>
      <trkpt lat="46.04248" lon="4.76585">
        <ele>197</ele>
        <time>2018-01-05T11:18:55Z</time>
      </trkpt>
      <trkpt lat="46.04241" lon="4.76587">
        <ele>197</ele>
        <time>2018-01-05T11:18:57Z</time>
      </trkpt>
      <trkpt lat="46.04236" lon="4.76587">
        <ele>197</ele>
        <time>2018-01-05T11:18:58Z</time>
      </trkpt>
      <trkpt lat="46.04229" lon="4.76588">
        <ele>198</ele>
        <time>2018-01-05T11:19:00Z</time>
      </trkpt>
      <trkpt lat="46.04225" lon="4.76588">
        <ele>198</ele>
        <time>2018-01-05T11:19:01Z</time>
      </trkpt>
      <trkpt lat="46.04221" lon="4.76588">
        <ele>198</ele>
        <time>2018-01-05T11:19:02Z</time>
      </trkpt>
      <trkpt lat="46.04216" lon="4.76588">
        <ele>198</ele>
        <time>2018-01-05T11:19:03Z</time>
      </trkpt>
      <trkpt lat="46.04208" lon="4.76589">
        <ele>198</ele>
        <time>2018-01-05T11:19:05Z</time>
      </trkpt>
      <trkpt lat="46.04204" lon="4.7659">
        <ele>198</ele>
        <time>2018-01-05T11:19:06Z</time>
      </trkpt>
      <trkpt lat="46.04197" lon="4.76593">
        <ele>198</ele>
        <time>2018-01-05T11:19:08Z</time>
      </trkpt>
      <trkpt lat="46.04193" lon="4.76596">
        <ele>198</ele>
        <time>2018-01-05T11:19:09Z</time>
      </trkpt>
      <trkpt lat="46.04186" lon="4.766">
        <ele>198</ele>
        <time>2018-01-05T11:19:11Z</time>
      </trkpt>
      <trkpt lat="46.04182" lon="4.76602">
        <ele>198</ele>
        <time>2018-01-05T11:19:12Z</time>
      </trkpt>
      <trkpt lat="46.04176" lon="4.76609">
        <ele>198</ele>
        <time>2018-01-05T11:19:14Z</time>
      </trkpt>
      <trkpt lat="46.04173" lon="4.76613">
        <ele>198</ele>
        <time>2018-01-05T11:19:15Z</time>
      </trkpt>
      <trkpt lat="46.04166" lon="4.7662">
        <ele>199</ele>
        <time>2018-01-05T11:19:17Z</time>
      </trkpt>
      <trkpt lat="46.04163" lon="4.76623">
        <ele>199</ele>
        <time>2018-01-05T11:19:18Z</time>
      </trkpt>
      <trkpt lat="46.04159" lon="4.76626">
        <ele>199</ele>
        <time>2018-01-05T11:19:19Z</time>
      </trkpt>
      <trkpt lat="46.04155" lon="4.76631">
        <ele>200</ele>
        <time>2018-01-05T11:19:20Z</time>
      </trkpt>
      <trkpt lat="46.04149" lon="4.76636">
        <ele>200</ele>
        <time>2018-01-05T11:19:22Z</time>
      </trkpt>
      <trkpt lat="46.04145" lon="4.76639">
        <ele>200</ele>
        <time>2018-01-05T11:19:23Z</time>
      </trkpt>
      <trkpt lat="46.04138" lon="4.76644">
        <ele>200</ele>
        <time>2018-01-05T11:19:25Z</time>
      </trkpt>
      <trkpt lat="46.04135" lon="4.76646">
        <ele>200</ele>
        <time>2018-01-05T11:19:26Z</time>
      </trkpt>
      <trkpt lat="46.04127" lon="4.76648">
        <ele>200</ele>
        <time>2018-01-05T11:19:28Z</time>
      </trkpt>
      <trkpt lat="46.04123" lon="4.76649">
        <ele>200</ele>
        <time>2018-01-05T11:19:29Z</time>
      </trkpt>
      <trkpt lat="46.04116" lon="4.76651">
        <ele>200</ele>
        <time>2018-01-05T11:19:31Z</time>
      </trkpt>
      <trkpt lat="46.04112" lon="4.76652">
        <ele>200</ele>
        <time>2018-01-05T11:19:32Z</time>
      </trkpt>
      <trkpt lat="46.04105" lon="4.76654">
        <ele>200</ele>
        <time>2018-01-05T11:19:34Z</time>
      </trkpt>
      <trkpt lat="46.04102" lon="4.76654">
        <ele>201</ele>
        <time>2018-01-05T11:19:35Z</time>
      </trkpt>
      <trkpt lat="46.04094" lon="4.76654">
        <ele>201</ele>
        <time>2018-01-05T11:19:37Z</time>
      </trkpt>
      <trkpt lat="46.0409" lon="4.76654">
        <ele>201</ele>
        <time>2018-01-05T11:19:38Z</time>
      </trkpt>
      <trkpt lat="46.04083" lon="4.76655">
        <ele>202</ele>
        <time>2018-01-05T11:19:40Z</time>
      </trkpt>
      <trkpt lat="46.04079" lon="4.76656">
        <ele>202</ele>
        <time>2018-01-05T11:19:41Z</time>
      </trkpt>
      <trkpt lat="46.04071" lon="4.76658">
        <ele>201</ele>
        <time>2018-01-05T11:19:43Z</time>
      </trkpt>
      <trkpt lat="46.04067" lon="4.76658">
        <ele>201</ele>
        <time>2018-01-05T11:19:44Z</time>
      </trkpt>
      <trkpt lat="46.04059" lon="4.76658">
        <ele>201</ele>
        <time>2018-01-05T11:19:46Z</time>
      </trkpt>
      <trkpt lat="46.04055" lon="4.76658">
        <ele>201</ele>
        <time>2018-01-05T11:19:47Z</time>
      </trkpt>
      <trkpt lat="46.04047" lon="4.76659">
        <ele>201</ele>
        <time>2018-01-05T11:19:49Z</time>
      </trkpt>
      <trkpt lat="46.04043" lon="4.7666">
        <ele>201</ele>
        <time>2018-01-05T11:19:50Z</time>
      </trkpt>
      <trkpt lat="46.04035" lon="4.76662">
        <ele>201</ele>
        <time>2018-01-05T11:19:52Z</time>
      </trkpt>
      <trkpt lat="46.04031" lon="4.76663">
        <ele>201</ele>
        <time>2018-01-05T11:19:53Z</time>
      </trkpt>
      <trkpt lat="46.04023" lon="4.76663">
        <ele>201</ele>
        <time>2018-01-05T11:19:55Z</time>
      </trkpt>
      <trkpt lat="46.04019" lon="4.76663">
        <ele>201</ele>
        <time>2018-01-05T11:19:56Z</time>
      </trkpt>
      <trkpt lat="46.0401" lon="4.76665">
        <ele>202</ele>
        <time>2018-01-05T11:19:58Z</time>
      </trkpt>
      <trkpt lat="46.04006" lon="4.76665">
        <ele>202</ele>
        <time>2018-01-05T11:19:59Z</time>
      </trkpt>
      <trkpt lat="46.03997" lon="4.76667">
        <ele>202</ele>
        <time>2018-01-05T11:20:01Z</time>
      </trkpt>
      <trkpt lat="46.03993" lon="4.76668">
        <ele>202</ele>
        <time>2018-01-05T11:20:02Z</time>
      </trkpt>
      <trkpt lat="46.03986" lon="4.7667">
        <ele>203</ele>
        <time>2018-01-05T11:20:04Z</time>
      </trkpt>
      <trkpt lat="46.03982" lon="4.76671">
        <ele>203</ele>
        <time>2018-01-05T11:20:05Z</time>
      </trkpt>
      <trkpt lat="46.03974" lon="4.76672">
        <ele>203</ele>
        <time>2018-01-05T11:20:07Z</time>
      </trkpt>
      <trkpt lat="46.0397" lon="4.76673">
        <ele>203</ele>
        <time>2018-01-05T11:20:08Z</time>
      </trkpt>
      <trkpt lat="46.03962" lon="4.76676">
        <ele>203</ele>
        <time>2018-01-05T11:20:10Z</time>
      </trkpt>
      <trkpt lat="46.03958" lon="4.76677">
        <ele>204</ele>
        <time>2018-01-05T11:20:11Z</time>
      </trkpt>
      <trkpt lat="46.0395" lon="4.7668">
        <ele>204</ele>
        <time>2018-01-05T11:20:13Z</time>
      </trkpt>
      <trkpt lat="46.03946" lon="4.76681">
        <ele>204</ele>
        <time>2018-01-05T11:20:14Z</time>
      </trkpt>
      <trkpt lat="46.03941" lon="4.76682">
        <ele>204</ele>
        <time>2018-01-05T11:20:15Z</time>
      </trkpt>
      <trkpt lat="46.03937" lon="4.76685">
        <ele>204</ele>
        <time>2018-01-05T11:20:16Z</time>
      </trkpt>
      <trkpt lat="46.03933" lon="4.76687">
        <ele>204</ele>
        <time>2018-01-05T11:20:17Z</time>
      </trkpt>
      <trkpt lat="46.03928" lon="4.76687">
        <ele>204</ele>
        <time>2018-01-05T11:20:18Z</time>
      </trkpt>
      <trkpt lat="46.03919" lon="4.76689">
        <ele>204</ele>
        <time>2018-01-05T11:20:20Z</time>
      </trkpt>
      <trkpt lat="46.03915" lon="4.7669">
        <ele>205</ele>
        <time>2018-01-05T11:20:21Z</time>
      </trkpt>
      <trkpt lat="46.03907" lon="4.76692">
        <ele>205</ele>
        <time>2018-01-05T11:20:23Z</time>
      </trkpt>
      <trkpt lat="46.03903" lon="4.76692">
        <ele>205</ele>
        <time>2018-01-05T11:20:24Z</time>
      </trkpt>
      <trkpt lat="46.03896" lon="4.76692">
        <ele>205</ele>
        <time>2018-01-05T11:20:26Z</time>
      </trkpt>
      <trkpt lat="46.03892" lon="4.76693">
        <ele>205</ele>
        <time>2018-01-05T11:20:27Z</time>
      </trkpt>
      <trkpt lat="46.03884" lon="4.76696">
        <ele>205</ele>
        <time>2018-01-05T11:20:29Z</time>
      </trkpt>
      <trkpt lat="46.0388" lon="4.76697">
        <ele>205</ele>
        <time>2018-01-05T11:20:30Z</time>
      </trkpt>
      <trkpt lat="46.03873" lon="4.76699">
        <ele>205</ele>
        <time>2018-01-05T11:20:32Z</time>
      </trkpt>
      <trkpt lat="46.0387" lon="4.767">
        <ele>205</ele>
        <time>2018-01-05T11:20:33Z</time>
      </trkpt>
      <trkpt lat="46.03864" lon="4.76702">
        <ele>205</ele>
        <time>2018-01-05T11:20:35Z</time>
      </trkpt>
      <trkpt lat="46.03861" lon="4.76703">
        <ele>205</ele>
        <time>2018-01-05T11:20:36Z</time>
      </trkpt>
      <trkpt lat="46.03854" lon="4.76704">
        <ele>205</ele>
        <time>2018-01-05T11:20:38Z</time>
      </trkpt>
      <trkpt lat="46.03851" lon="4.76705">
        <ele>205</ele>
        <time>2018-01-05T11:20:39Z</time>
      </trkpt>
      <trkpt lat="46.03843" lon="4.76707">
        <ele>205</ele>
        <time>2018-01-05T11:20:41Z</time>
      </trkpt>
      <trkpt lat="46.0384" lon="4.76708">
        <ele>205</ele>
        <time>2018-01-05T11:20:42Z</time>
      </trkpt>
      <trkpt lat="46.03832" lon="4.76708">
        <ele>205</ele>
        <time>2018-01-05T11:20:44Z</time>
      </trkpt>
      <trkpt lat="46.03828" lon="4.76709">
        <ele>205</ele>
        <time>2018-01-05T11:20:45Z</time>
      </trkpt>
      <trkpt lat="46.0382" lon="4.76709">
        <ele>205</ele>
        <time>2018-01-05T11:20:47Z</time>
      </trkpt>
      <trkpt lat="46.03816" lon="4.76709">
        <ele>205</ele>
        <time>2018-01-05T11:20:48Z</time>
      </trkpt>
      <trkpt lat="46.03808" lon="4.76709">
        <ele>205</ele>
        <time>2018-01-05T11:20:50Z</time>
      </trkpt>
      <trkpt lat="46.03804" lon="4.76709">
        <ele>205</ele>
        <time>2018-01-05T11:20:51Z</time>
      </trkpt>
      <trkpt lat="46.03797" lon="4.76709">
        <ele>205</ele>
        <time>2018-01-05T11:20:53Z</time>
      </trkpt>
      <trkpt lat="46.03793" lon="4.76709">
        <ele>205</ele>
        <time>2018-01-05T11:20:54Z</time>
      </trkpt>
      <trkpt lat="46.03784" lon="4.7671">
        <ele>205</ele>
        <time>2018-01-05T11:20:56Z</time>
      </trkpt>
      <trkpt lat="46.0378" lon="4.76711">
        <ele>205</ele>
        <time>2018-01-05T11:20:57Z</time>
      </trkpt>
      <trkpt lat="46.03776" lon="4.76712">
        <ele>205</ele>
        <time>2018-01-05T11:20:58Z</time>
      </trkpt>
      <trkpt lat="46.03771" lon="4.76711">
        <ele>205</ele>
        <time>2018-01-05T11:20:59Z</time>
      </trkpt>
      <trkpt lat="46.03763" lon="4.76707">
        <ele>205</ele>
        <time>2018-01-05T11:21:01Z</time>
      </trkpt>
      <trkpt lat="46.03758" lon="4.76706">
        <ele>205</ele>
        <time>2018-01-05T11:21:02Z</time>
      </trkpt>
      <trkpt lat="46.03754" lon="4.76705">
        <ele>205</ele>
        <time>2018-01-05T11:21:03Z</time>
      </trkpt>
      <trkpt lat="46.03749" lon="4.76703">
        <ele>205</ele>
        <time>2018-01-05T11:21:04Z</time>
      </trkpt>
      <trkpt lat="46.03744" lon="4.76702">
        <ele>205</ele>
        <time>2018-01-05T11:21:05Z</time>
      </trkpt>
      <trkpt lat="46.03739" lon="4.76702">
        <ele>205</ele>
        <time>2018-01-05T11:21:06Z</time>
      </trkpt>
      <trkpt lat="46.03733" lon="4.76702">
        <ele>205</ele>
        <time>2018-01-05T11:21:07Z</time>
      </trkpt>
      <trkpt lat="46.0373" lon="4.76701">
        <ele>205</ele>
        <time>2018-01-05T11:21:08Z</time>
      </trkpt>
      <trkpt lat="46.03726" lon="4.76698">
        <ele>205</ele>
        <time>2018-01-05T11:21:09Z</time>
      </trkpt>
      <trkpt lat="46.0372" lon="4.76698">
        <ele>205</ele>
        <time>2018-01-05T11:21:10Z</time>
      </trkpt>
      <trkpt lat="46.03711" lon="4.76694">
        <ele>205</ele>
        <time>2018-01-05T11:21:12Z</time>
      </trkpt>
      <trkpt lat="46.03707" lon="4.76691">
        <ele>205</ele>
        <time>2018-01-05T11:21:13Z</time>
      </trkpt>
      <trkpt lat="46.03701" lon="4.76687">
        <ele>205</ele>
        <time>2018-01-05T11:21:15Z</time>
      </trkpt>
      <trkpt lat="46.03698" lon="4.76683">
        <ele>205</ele>
        <time>2018-01-05T11:21:16Z</time>
      </trkpt>
      <trkpt lat="46.03695" lon="4.76677">
        <ele>205</ele>
        <time>2018-01-05T11:21:17Z</time>
      </trkpt>
      <trkpt lat="46.03692" lon="4.76672">
        <ele>205</ele>
        <time>2018-01-05T11:21:18Z</time>
      </trkpt>
      <trkpt lat="46.03688" lon="4.76663">
        <ele>204</ele>
        <time>2018-01-05T11:21:20Z</time>
      </trkpt>
      <trkpt lat="46.03686" lon="4.76657">
        <ele>204</ele>
        <time>2018-01-05T11:21:21Z</time>
      </trkpt>
      <trkpt lat="46.03684" lon="4.76647">
        <ele>204</ele>
        <time>2018-01-05T11:21:22Z</time>
      </trkpt>
      <trkpt lat="46.03684" lon="4.76639">
        <ele>204</ele>
        <time>2018-01-05T11:21:23Z</time>
      </trkpt>
      <trkpt lat="46.03683" lon="4.7663">
        <ele>203</ele>
        <time>2018-01-05T11:21:24Z</time>
      </trkpt>
      <trkpt lat="46.03681" lon="4.76622">
        <ele>203</ele>
        <time>2018-01-05T11:21:25Z</time>
      </trkpt>
      <trkpt lat="46.0368" lon="4.76614">
        <ele>203</ele>
        <time>2018-01-05T11:21:26Z</time>
      </trkpt>
      <trkpt lat="46.03678" lon="4.76606">
        <ele>203</ele>
        <time>2018-01-05T11:21:27Z</time>
      </trkpt>
      <trkpt lat="46.03675" lon="4.76598">
        <ele>203</ele>
        <time>2018-01-05T11:21:28Z</time>
      </trkpt>
      <trkpt lat="46.0367" lon="4.76593">
        <ele>203</ele>
        <time>2018-01-05T11:21:29Z</time>
      </trkpt>
      <trkpt lat="46.03666" lon="4.76587">
        <ele>202</ele>
        <time>2018-01-05T11:21:30Z</time>
      </trkpt>
      <trkpt lat="46.0366" lon="4.76581">
        <ele>202</ele>
        <time>2018-01-05T11:21:31Z</time>
      </trkpt>
      <trkpt lat="46.03655" lon="4.76576">
        <ele>201</ele>
        <time>2018-01-05T11:21:32Z</time>
      </trkpt>
      <trkpt lat="46.03651" lon="4.7657">
        <ele>201</ele>
        <time>2018-01-05T11:21:33Z</time>
      </trkpt>
      <trkpt lat="46.03648" lon="4.76561">
        <ele>201</ele>
        <time>2018-01-05T11:21:34Z</time>
      </trkpt>
      <trkpt lat="46.03644" lon="4.76554">
        <ele>201</ele>
        <time>2018-01-05T11:21:35Z</time>
      </trkpt>
      <trkpt lat="46.03641" lon="4.76547">
        <ele>200</ele>
        <time>2018-01-05T11:21:36Z</time>
      </trkpt>
      <trkpt lat="46.03637" lon="4.76539">
        <ele>200</ele>
        <time>2018-01-05T11:21:37Z</time>
      </trkpt>
      <trkpt lat="46.03634" lon="4.76531">
        <ele>200</ele>
        <time>2018-01-05T11:21:38Z</time>
      </trkpt>
      <trkpt lat="46.03633" lon="4.76523">
        <ele>200</ele>
        <time>2018-01-05T11:21:39Z</time>
      </trkpt>
      <trkpt lat="46.03631" lon="4.76515">
        <ele>200</ele>
        <time>2018-01-05T11:21:40Z</time>
      </trkpt>
      <trkpt lat="46.03624" lon="4.76508">
        <ele>200</ele>
        <time>2018-01-05T11:21:41Z</time>
      </trkpt>
      <trkpt lat="46.03619" lon="4.76501">
        <ele>200</ele>
        <time>2018-01-05T11:21:42Z</time>
      </trkpt>
      <trkpt lat="46.03615" lon="4.76496">
        <ele>199</ele>
        <time>2018-01-05T11:21:43Z</time>
      </trkpt>
      <trkpt lat="46.0361" lon="4.76491">
        <ele>199</ele>
        <time>2018-01-05T11:21:44Z</time>
      </trkpt>
      <trkpt lat="46.03609" lon="4.76484">
        <ele>199</ele>
        <time>2018-01-05T11:21:45Z</time>
      </trkpt>
      <trkpt lat="46.03607" lon="4.76476">
        <ele>199</ele>
        <time>2018-01-05T11:21:46Z</time>
      </trkpt>
      <trkpt lat="46.03603" lon="4.7647">
        <ele>199</ele>
        <time>2018-01-05T11:21:47Z</time>
      </trkpt>
      <trkpt lat="46.03601" lon="4.76462">
        <ele>199</ele>
        <time>2018-01-05T11:21:48Z</time>
      </trkpt>
      <trkpt lat="46.036" lon="4.76455">
        <ele>199</ele>
        <time>2018-01-05T11:21:49Z</time>
      </trkpt>
      <trkpt lat="46.03599" lon="4.76448">
        <ele>199</ele>
        <time>2018-01-05T11:21:50Z</time>
      </trkpt>
      <trkpt lat="46.03599" lon="4.76438">
        <ele>199</ele>
        <time>2018-01-05T11:21:51Z</time>
      </trkpt>
      <trkpt lat="46.03599" lon="4.76431">
        <ele>199</ele>
        <time>2018-01-05T11:21:52Z</time>
      </trkpt>
      <trkpt lat="46.036" lon="4.76423">
        <ele>199</ele>
        <time>2018-01-05T11:21:53Z</time>
      </trkpt>
      <trkpt lat="46.03601" lon="4.76417">
        <ele>199</ele>
        <time>2018-01-05T11:21:54Z</time>
      </trkpt>
      <trkpt lat="46.03602" lon="4.76407">
        <ele>198</ele>
        <time>2018-01-05T11:21:55Z</time>
      </trkpt>
      <trkpt lat="46.03603" lon="4.76398">
        <ele>197</ele>
        <time>2018-01-05T11:21:56Z</time>
      </trkpt>
      <trkpt lat="46.03602" lon="4.76392">
        <ele>197</ele>
        <time>2018-01-05T11:21:57Z</time>
      </trkpt>
      <trkpt lat="46.03605" lon="4.7638">
        <ele>197</ele>
        <time>2018-01-05T11:21:58Z</time>
      </trkpt>
      <trkpt lat="46.03606" lon="4.7637">
        <ele>197</ele>
        <time>2018-01-05T11:21:59Z</time>
      </trkpt>
      <trkpt lat="46.03606" lon="4.76362">
        <ele>196</ele>
        <time>2018-01-05T11:22:00Z</time>
      </trkpt>
      <trkpt lat="46.03608" lon="4.76352">
        <ele>196</ele>
        <time>2018-01-05T11:22:01Z</time>
      </trkpt>
      <trkpt lat="46.03609" lon="4.76342">
        <ele>196</ele>
        <time>2018-01-05T11:22:02Z</time>
      </trkpt>
      <trkpt lat="46.03609" lon="4.76332">
        <ele>195</ele>
        <time>2018-01-05T11:22:03Z</time>
      </trkpt>
      <trkpt lat="46.03609" lon="4.76323">
        <ele>195</ele>
        <time>2018-01-05T11:22:04Z</time>
      </trkpt>
      <trkpt lat="46.0361" lon="4.76313">
        <ele>195</ele>
        <time>2018-01-05T11:22:05Z</time>
      </trkpt>
      <trkpt lat="46.0361" lon="4.76303">
        <ele>195</ele>
        <time>2018-01-05T11:22:06Z</time>
      </trkpt>
      <trkpt lat="46.03612" lon="4.76293">
        <ele>195</ele>
        <time>2018-01-05T11:22:07Z</time>
      </trkpt>
      <trkpt lat="46.03613" lon="4.76285">
        <ele>194</ele>
        <time>2018-01-05T11:22:08Z</time>
      </trkpt>
      <trkpt lat="46.03615" lon="4.76276">
        <ele>194</ele>
        <time>2018-01-05T11:22:09Z</time>
      </trkpt>
      <trkpt lat="46.03615" lon="4.76267">
        <ele>194</ele>
        <time>2018-01-05T11:22:10Z</time>
      </trkpt>
      <trkpt lat="46.03617" lon="4.76258">
        <ele>194</ele>
        <time>2018-01-05T11:22:11Z</time>
      </trkpt>
      <trkpt lat="46.03619" lon="4.76248">
        <ele>193</ele>
        <time>2018-01-05T11:22:12Z</time>
      </trkpt>
      <trkpt lat="46.0362" lon="4.7624">
        <ele>193</ele>
        <time>2018-01-05T11:22:13Z</time>
      </trkpt>
      <trkpt lat="46.0362" lon="4.76231">
        <ele>193</ele>
        <time>2018-01-05T11:22:14Z</time>
      </trkpt>
      <trkpt lat="46.03621" lon="4.76222">
        <ele>193</ele>
        <time>2018-01-05T11:22:15Z</time>
      </trkpt>
      <trkpt lat="46.03623" lon="4.76214">
        <ele>193</ele>
        <time>2018-01-05T11:22:16Z</time>
      </trkpt>
      <trkpt lat="46.03625" lon="4.76204">
        <ele>193</ele>
        <time>2018-01-05T11:22:17Z</time>
      </trkpt>
      <trkpt lat="46.03628" lon="4.76193">
        <ele>193</ele>
        <time>2018-01-05T11:22:18Z</time>
      </trkpt>
      <trkpt lat="46.03629" lon="4.76184">
        <ele>193</ele>
        <time>2018-01-05T11:22:19Z</time>
      </trkpt>
      <trkpt lat="46.0363" lon="4.76175">
        <ele>192</ele>
        <time>2018-01-05T11:22:20Z</time>
      </trkpt>
      <trkpt lat="46.03631" lon="4.76167">
        <ele>192</ele>
        <time>2018-01-05T11:22:21Z</time>
      </trkpt>
      <trkpt lat="46.03631" lon="4.76159">
        <ele>192</ele>
        <time>2018-01-05T11:22:22Z</time>
      </trkpt>
      <trkpt lat="46.03631" lon="4.76151">
        <ele>192</ele>
        <time>2018-01-05T11:22:23Z</time>
      </trkpt>
      <trkpt lat="46.0363" lon="4.76143">
        <ele>192</ele>
        <time>2018-01-05T11:22:24Z</time>
      </trkpt>
      <trkpt lat="46.0363" lon="4.76136">
        <ele>192</ele>
        <time>2018-01-05T11:22:25Z</time>
      </trkpt>
      <trkpt lat="46.03629" lon="4.76128">
        <ele>192</ele>
        <time>2018-01-05T11:22:26Z</time>
      </trkpt>
      <trkpt lat="46.03627" lon="4.7612">
        <ele>192</ele>
        <time>2018-01-05T11:22:27Z</time>
      </trkpt>
      <trkpt lat="46.03627" lon="4.76113">
        <ele>192</ele>
        <time>2018-01-05T11:22:28Z</time>
      </trkpt>
      <trkpt lat="46.03627" lon="4.76105">
        <ele>192</ele>
        <time>2018-01-05T11:22:29Z</time>
      </trkpt>
      <trkpt lat="46.03627" lon="4.76097">
        <ele>192</ele>
        <time>2018-01-05T11:22:30Z</time>
      </trkpt>
      <trkpt lat="46.03625" lon="4.76089">
        <ele>192</ele>
        <time>2018-01-05T11:22:31Z</time>
      </trkpt>
      <trkpt lat="46.03624" lon="4.76081">
        <ele>191</ele>
        <time>2018-01-05T11:22:32Z</time>
      </trkpt>
      <trkpt lat="46.03622" lon="4.76073">
        <ele>191</ele>
        <time>2018-01-05T11:22:33Z</time>
      </trkpt>
      <trkpt lat="46.03619" lon="4.76065">
        <ele>191</ele>
        <time>2018-01-05T11:22:34Z</time>
      </trkpt>
      <trkpt lat="46.03617" lon="4.76058">
        <ele>191</ele>
        <time>2018-01-05T11:22:35Z</time>
      </trkpt>
      <trkpt lat="46.03614" lon="4.7605">
        <ele>191</ele>
        <time>2018-01-05T11:22:36Z</time>
      </trkpt>
      <trkpt lat="46.03612" lon="4.76044">
        <ele>191</ele>
        <time>2018-01-05T11:22:37Z</time>
      </trkpt>
      <trkpt lat="46.0361" lon="4.76037">
        <ele>191</ele>
        <time>2018-01-05T11:22:38Z</time>
      </trkpt>
      <trkpt lat="46.03607" lon="4.76029">
        <ele>191</ele>
        <time>2018-01-05T11:22:39Z</time>
      </trkpt>
      <trkpt lat="46.03604" lon="4.76022">
        <ele>191</ele>
        <time>2018-01-05T11:22:40Z</time>
      </trkpt>
      <trkpt lat="46.03602" lon="4.76016">
        <ele>191</ele>
        <time>2018-01-05T11:22:41Z</time>
      </trkpt>
      <trkpt lat="46.036" lon="4.76009">
        <ele>191</ele>
        <time>2018-01-05T11:22:42Z</time>
      </trkpt>
      <trkpt lat="46.03594" lon="4.76003">
        <ele>191</ele>
        <time>2018-01-05T11:22:43Z</time>
      </trkpt>
      <trkpt lat="46.03592" lon="4.75995">
        <ele>191</ele>
        <time>2018-01-05T11:22:44Z</time>
      </trkpt>
      <trkpt lat="46.03589" lon="4.75989">
        <ele>190</ele>
        <time>2018-01-05T11:22:45Z</time>
      </trkpt>
      <trkpt lat="46.03585" lon="4.75982">
        <ele>190</ele>
        <time>2018-01-05T11:22:46Z</time>
      </trkpt>
      <trkpt lat="46.03584" lon="4.75975">
        <ele>190</ele>
        <time>2018-01-05T11:22:47Z</time>
      </trkpt>
      <trkpt lat="46.03581" lon="4.75968">
        <ele>190</ele>
        <time>2018-01-05T11:22:48Z</time>
      </trkpt>
      <trkpt lat="46.03577" lon="4.75961">
        <ele>190</ele>
        <time>2018-01-05T11:22:49Z</time>
      </trkpt>
      <trkpt lat="46.03575" lon="4.75955">
        <ele>190</ele>
        <time>2018-01-05T11:22:50Z</time>
      </trkpt>
      <trkpt lat="46.03572" lon="4.75947">
        <ele>190</ele>
        <time>2018-01-05T11:22:51Z</time>
      </trkpt>
      <trkpt lat="46.0357" lon="4.75941">
        <ele>190</ele>
        <time>2018-01-05T11:22:52Z</time>
      </trkpt>
      <trkpt lat="46.03567" lon="4.75934">
        <ele>190</ele>
        <time>2018-01-05T11:22:53Z</time>
      </trkpt>
      <trkpt lat="46.03564" lon="4.75927">
        <ele>190</ele>
        <time>2018-01-05T11:22:54Z</time>
      </trkpt>
      <trkpt lat="46.03563" lon="4.75921">
        <ele>190</ele>
        <time>2018-01-05T11:22:55Z</time>
      </trkpt>
      <trkpt lat="46.03561" lon="4.75915">
        <ele>189</ele>
        <time>2018-01-05T11:22:56Z</time>
      </trkpt>
      <trkpt lat="46.03557" lon="4.7591">
        <ele>189</ele>
        <time>2018-01-05T11:22:57Z</time>
      </trkpt>
      <trkpt lat="46.03554" lon="4.75903">
        <ele>189</ele>
        <time>2018-01-05T11:22:58Z</time>
      </trkpt>
      <trkpt lat="46.03552" lon="4.75897">
        <ele>189</ele>
        <time>2018-01-05T11:22:59Z</time>
      </trkpt>
      <trkpt lat="46.03549" lon="4.75891">
        <ele>189</ele>
        <time>2018-01-05T11:23:00Z</time>
      </trkpt>
      <trkpt lat="46.03545" lon="4.75885">
        <ele>189</ele>
        <time>2018-01-05T11:23:01Z</time>
      </trkpt>
      <trkpt lat="46.03542" lon="4.75879">
        <ele>190</ele>
        <time>2018-01-05T11:23:02Z</time>
      </trkpt>
      <trkpt lat="46.03539" lon="4.75873">
        <ele>190</ele>
        <time>2018-01-05T11:23:03Z</time>
      </trkpt>
      <trkpt lat="46.03537" lon="4.75868">
        <ele>190</ele>
        <time>2018-01-05T11:23:04Z</time>
      </trkpt>
      <trkpt lat="46.03534" lon="4.75861">
        <ele>190</ele>
        <time>2018-01-05T11:23:05Z</time>
      </trkpt>
      <trkpt lat="46.03531" lon="4.75853">
        <ele>190</ele>
        <time>2018-01-05T11:23:06Z</time>
      </trkpt>
      <trkpt lat="46.03529" lon="4.75846">
        <ele>190</ele>
        <time>2018-01-05T11:23:07Z</time>
      </trkpt>
      <trkpt lat="46.03526" lon="4.75841">
        <ele>190</ele>
        <time>2018-01-05T11:23:08Z</time>
      </trkpt>
      <trkpt lat="46.03523" lon="4.75834">
        <ele>190</ele>
        <time>2018-01-05T11:23:09Z</time>
      </trkpt>
      <trkpt lat="46.03519" lon="4.75829">
        <ele>190</ele>
        <time>2018-01-05T11:23:10Z</time>
      </trkpt>
      <trkpt lat="46.03516" lon="4.75823">
        <ele>190</ele>
        <time>2018-01-05T11:23:11Z</time>
      </trkpt>
      <trkpt lat="46.03512" lon="4.75816">
        <ele>190</ele>
        <time>2018-01-05T11:23:12Z</time>
      </trkpt>
      <trkpt lat="46.03507" lon="4.75811">
        <ele>190</ele>
        <time>2018-01-05T11:23:13Z</time>
      </trkpt>
      <trkpt lat="46.03505" lon="4.75802">
        <ele>189</ele>
        <time>2018-01-05T11:23:14Z</time>
      </trkpt>
      <trkpt lat="46.03503" lon="4.75793">
        <ele>189</ele>
        <time>2018-01-05T11:23:15Z</time>
      </trkpt>
      <trkpt lat="46.03501" lon="4.75788">
        <ele>189</ele>
        <time>2018-01-05T11:23:16Z</time>
      </trkpt>
      <trkpt lat="46.03498" lon="4.75781">
        <ele>190</ele>
        <time>2018-01-05T11:23:17Z</time>
      </trkpt>
      <trkpt lat="46.03495" lon="4.75775">
        <ele>190</ele>
        <time>2018-01-05T11:23:18Z</time>
      </trkpt>
      <trkpt lat="46.03491" lon="4.75771">
        <ele>189</ele>
        <time>2018-01-05T11:23:19Z</time>
      </trkpt>
      <trkpt lat="46.03489" lon="4.75765">
        <ele>189</ele>
        <time>2018-01-05T11:23:20Z</time>
      </trkpt>
      <trkpt lat="46.03486" lon="4.75759">
        <ele>189</ele>
        <time>2018-01-05T11:23:21Z</time>
      </trkpt>
      <trkpt lat="46.03484" lon="4.75752">
        <ele>189</ele>
        <time>2018-01-05T11:23:22Z</time>
      </trkpt>
      <trkpt lat="46.03481" lon="4.75745">
        <ele>189</ele>
        <time>2018-01-05T11:23:23Z</time>
      </trkpt>
      <trkpt lat="46.03475" lon="4.75736">
        <ele>189</ele>
        <time>2018-01-05T11:23:25Z</time>
      </trkpt>
      <trkpt lat="46.03473" lon="4.75729">
        <ele>189</ele>
        <time>2018-01-05T11:23:26Z</time>
      </trkpt>
      <trkpt lat="46.03472" lon="4.75718">
        <ele>189</ele>
        <time>2018-01-05T11:23:28Z</time>
      </trkpt>
      <trkpt lat="46.0347" lon="4.7571">
        <ele>189</ele>
        <time>2018-01-05T11:23:29Z</time>
      </trkpt>
      <trkpt lat="46.03467" lon="4.75704">
        <ele>189</ele>
        <time>2018-01-05T11:23:30Z</time>
      </trkpt>
      <trkpt lat="46.03464" lon="4.75697">
        <ele>189</ele>
        <time>2018-01-05T11:23:31Z</time>
      </trkpt>
      <trkpt lat="46.03461" lon="4.75686">
        <ele>189</ele>
        <time>2018-01-05T11:23:33Z</time>
      </trkpt>
      <trkpt lat="46.03458" lon="4.75678">
        <ele>189</ele>
        <time>2018-01-05T11:23:34Z</time>
      </trkpt>
      <trkpt lat="46.03457" lon="4.75672">
        <ele>189</ele>
        <time>2018-01-05T11:23:35Z</time>
      </trkpt>
      <trkpt lat="46.03455" lon="4.75666">
        <ele>188</ele>
        <time>2018-01-05T11:23:36Z</time>
      </trkpt>
      <trkpt lat="46.03449" lon="4.75657">
        <ele>188</ele>
        <time>2018-01-05T11:23:38Z</time>
      </trkpt>
      <trkpt lat="46.03446" lon="4.75654">
        <ele>188</ele>
        <time>2018-01-05T11:23:39Z</time>
      </trkpt>
      <trkpt lat="46.0344" lon="4.75645">
        <ele>188</ele>
        <time>2018-01-05T11:23:42Z</time>
      </trkpt>
      <trkpt lat="46.03438" lon="4.75641">
        <ele>188</ele>
        <time>2018-01-05T11:23:43Z</time>
      </trkpt>
      <trkpt lat="46.03438" lon="4.7563">
        <ele>188</ele>
        <time>2018-01-05T11:23:50Z</time>
      </trkpt>
      <trkpt lat="46.03439" lon="4.75628">
        <ele>188</ele>
        <time>2018-01-05T11:23:51Z</time>
      </trkpt>
      <trkpt lat="46.03437" lon="4.75618">
        <ele>188</ele>
        <time>2018-01-05T11:23:54Z</time>
      </trkpt>
      <trkpt lat="46.03434" lon="4.75616">
        <ele>188</ele>
        <time>2018-01-05T11:23:55Z</time>
      </trkpt>
      <trkpt lat="46.03427" lon="4.75616">
        <ele>188</ele>
        <time>2018-01-05T11:23:57Z</time>
      </trkpt>
      <trkpt lat="46.03423" lon="4.75617">
        <ele>188</ele>
        <time>2018-01-05T11:23:58Z</time>
      </trkpt>
      <trkpt lat="46.03415" lon="4.75619">
        <ele>188</ele>
        <time>2018-01-05T11:24:00Z</time>
      </trkpt>
      <trkpt lat="46.03411" lon="4.75621">
        <ele>188</ele>
        <time>2018-01-05T11:24:01Z</time>
      </trkpt>
      <trkpt lat="46.03406" lon="4.75623">
        <ele>188</ele>
        <time>2018-01-05T11:24:02Z</time>
      </trkpt>
      <trkpt lat="46.03401" lon="4.75624">
        <ele>188</ele>
        <time>2018-01-05T11:24:03Z</time>
      </trkpt>
      <trkpt lat="46.03396" lon="4.75625">
        <ele>188</ele>
        <time>2018-01-05T11:24:04Z</time>
      </trkpt>
      <trkpt lat="46.03391" lon="4.75627">
        <ele>188</ele>
        <time>2018-01-05T11:24:05Z</time>
      </trkpt>
      <trkpt lat="46.03386" lon="4.75628">
        <ele>188</ele>
        <time>2018-01-05T11:24:06Z</time>
      </trkpt>
      <trkpt lat="46.0338" lon="4.75629">
        <ele>188</ele>
        <time>2018-01-05T11:24:07Z</time>
      </trkpt>
      <trkpt lat="46.03375" lon="4.7563">
        <ele>188</ele>
        <time>2018-01-05T11:24:08Z</time>
      </trkpt>
      <trkpt lat="46.03369" lon="4.75631">
        <ele>188</ele>
        <time>2018-01-05T11:24:09Z</time>
      </trkpt>
      <trkpt lat="46.03363" lon="4.75632">
        <ele>188</ele>
        <time>2018-01-05T11:24:10Z</time>
      </trkpt>
      <trkpt lat="46.03357" lon="4.75632">
        <ele>188</ele>
        <time>2018-01-05T11:24:11Z</time>
      </trkpt>
      <trkpt lat="46.03352" lon="4.75631">
        <ele>188</ele>
        <time>2018-01-05T11:24:12Z</time>
      </trkpt>
      <trkpt lat="46.03346" lon="4.75631">
        <ele>188</ele>
        <time>2018-01-05T11:24:13Z</time>
      </trkpt>
      <trkpt lat="46.03341" lon="4.75632">
        <ele>188</ele>
        <time>2018-01-05T11:24:14Z</time>
      </trkpt>
      <trkpt lat="46.03336" lon="4.75633">
        <ele>188</ele>
        <time>2018-01-05T11:24:15Z</time>
      </trkpt>
      <trkpt lat="46.0333" lon="4.75632">
        <ele>189</ele>
        <time>2018-01-05T11:24:16Z</time>
      </trkpt>
      <trkpt lat="46.03325" lon="4.75632">
        <ele>189</ele>
        <time>2018-01-05T11:24:17Z</time>
      </trkpt>
      <trkpt lat="46.03319" lon="4.75632">
        <ele>189</ele>
        <time>2018-01-05T11:24:18Z</time>
      </trkpt>
      <trkpt lat="46.03314" lon="4.75632">
        <ele>189</ele>
        <time>2018-01-05T11:24:19Z</time>
      </trkpt>
      <trkpt lat="46.03308" lon="4.75633">
        <ele>189</ele>
        <time>2018-01-05T11:24:20Z</time>
      </trkpt>
      <trkpt lat="46.03302" lon="4.75635">
        <ele>189</ele>
        <time>2018-01-05T11:24:21Z</time>
      </trkpt>
      <trkpt lat="46.03297" lon="4.75638">
        <ele>189</ele>
        <time>2018-01-05T11:24:22Z</time>
      </trkpt>
      <trkpt lat="46.03292" lon="4.75641">
        <ele>190</ele>
        <time>2018-01-05T11:24:23Z</time>
      </trkpt>
      <trkpt lat="46.03287" lon="4.75644">
        <ele>190</ele>
        <time>2018-01-05T11:24:24Z</time>
      </trkpt>
      <trkpt lat="46.03281" lon="4.75647">
        <ele>190</ele>
        <time>2018-01-05T11:24:25Z</time>
      </trkpt>
      <trkpt lat="46.03276" lon="4.7565">
        <ele>191</ele>
        <time>2018-01-05T11:24:26Z</time>
      </trkpt>
      <trkpt lat="46.03271" lon="4.75653">
        <ele>191</ele>
        <time>2018-01-05T11:24:27Z</time>
      </trkpt>
      <trkpt lat="46.03266" lon="4.75655">
        <ele>192</ele>
        <time>2018-01-05T11:24:28Z</time>
      </trkpt>
      <trkpt lat="46.0326" lon="4.75657">
        <ele>192</ele>
        <time>2018-01-05T11:24:29Z</time>
      </trkpt>
      <trkpt lat="46.03252" lon="4.75662">
        <ele>194</ele>
        <time>2018-01-05T11:24:31Z</time>
      </trkpt>
      <trkpt lat="46.03247" lon="4.75664">
        <ele>194</ele>
        <time>2018-01-05T11:24:32Z</time>
      </trkpt>
      <trkpt lat="46.03242" lon="4.75665">
        <ele>193</ele>
        <time>2018-01-05T11:24:33Z</time>
      </trkpt>
      <trkpt lat="46.03237" lon="4.75666">
        <ele>192</ele>
        <time>2018-01-05T11:24:34Z</time>
      </trkpt>
      <trkpt lat="46.03229" lon="4.75667">
        <ele>194</ele>
        <time>2018-01-05T11:24:35Z</time>
      </trkpt>
      <trkpt lat="46.03223" lon="4.75668">
        <ele>194</ele>
        <time>2018-01-05T11:24:36Z</time>
      </trkpt>
      <trkpt lat="46.03217" lon="4.75668">
        <ele>193</ele>
        <time>2018-01-05T11:24:37Z</time>
      </trkpt>
      <trkpt lat="46.0321" lon="4.75667">
        <ele>193</ele>
        <time>2018-01-05T11:24:38Z</time>
      </trkpt>
      <trkpt lat="46.03204" lon="4.75668">
        <ele>192</ele>
        <time>2018-01-05T11:24:39Z</time>
      </trkpt>
      <trkpt lat="46.03197" lon="4.7567">
        <ele>192</ele>
        <time>2018-01-05T11:24:40Z</time>
      </trkpt>
      <trkpt lat="46.03191" lon="4.75671">
        <ele>191</ele>
        <time>2018-01-05T11:24:41Z</time>
      </trkpt>
      <trkpt lat="46.03186" lon="4.75671">
        <ele>191</ele>
        <time>2018-01-05T11:24:42Z</time>
      </trkpt>
      <trkpt lat="46.0318" lon="4.75671">
        <ele>190</ele>
        <time>2018-01-05T11:24:43Z</time>
      </trkpt>
      <trkpt lat="46.03175" lon="4.75671">
        <ele>190</ele>
        <time>2018-01-05T11:24:44Z</time>
      </trkpt>
      <trkpt lat="46.03169" lon="4.75671">
        <ele>189</ele>
        <time>2018-01-05T11:24:45Z</time>
      </trkpt>
      <trkpt lat="46.03164" lon="4.75672">
        <ele>188</ele>
        <time>2018-01-05T11:24:46Z</time>
      </trkpt>
      <trkpt lat="46.03159" lon="4.75672">
        <ele>188</ele>
        <time>2018-01-05T11:24:47Z</time>
      </trkpt>
      <trkpt lat="46.03154" lon="4.75674">
        <ele>187</ele>
        <time>2018-01-05T11:24:48Z</time>
      </trkpt>
      <trkpt lat="46.03146" lon="4.75677">
        <ele>187</ele>
        <time>2018-01-05T11:24:50Z</time>
      </trkpt>
      <trkpt lat="46.0314" lon="4.75677">
        <ele>187</ele>
        <time>2018-01-05T11:24:51Z</time>
      </trkpt>
      <trkpt lat="46.03135" lon="4.75676">
        <ele>187</ele>
        <time>2018-01-05T11:24:52Z</time>
      </trkpt>
      <trkpt lat="46.03129" lon="4.75676">
        <ele>187</ele>
        <time>2018-01-05T11:24:53Z</time>
      </trkpt>
      <trkpt lat="46.03124" lon="4.75677">
        <ele>186</ele>
        <time>2018-01-05T11:24:54Z</time>
      </trkpt>
      <trkpt lat="46.03117" lon="4.75677">
        <ele>186</ele>
        <time>2018-01-05T11:24:55Z</time>
      </trkpt>
      <trkpt lat="46.03113" lon="4.75681">
        <ele>186</ele>
        <time>2018-01-05T11:24:56Z</time>
      </trkpt>
      <trkpt lat="46.03108" lon="4.75681">
        <ele>186</ele>
        <time>2018-01-05T11:24:57Z</time>
      </trkpt>
      <trkpt lat="46.03102" lon="4.7568">
        <ele>186</ele>
        <time>2018-01-05T11:24:58Z</time>
      </trkpt>
      <trkpt lat="46.03096" lon="4.75681">
        <ele>185</ele>
        <time>2018-01-05T11:24:59Z</time>
      </trkpt>
      <trkpt lat="46.03091" lon="4.75682">
        <ele>185</ele>
        <time>2018-01-05T11:25:00Z</time>
      </trkpt>
      <trkpt lat="46.03085" lon="4.75682">
        <ele>185</ele>
        <time>2018-01-05T11:25:01Z</time>
      </trkpt>
      <trkpt lat="46.0308" lon="4.75683">
        <ele>184</ele>
        <time>2018-01-05T11:25:02Z</time>
      </trkpt>
      <trkpt lat="46.03075" lon="4.75683">
        <ele>184</ele>
        <time>2018-01-05T11:25:03Z</time>
      </trkpt>
      <trkpt lat="46.0307" lon="4.75684">
        <ele>184</ele>
        <time>2018-01-05T11:25:04Z</time>
      </trkpt>
      <trkpt lat="46.03064" lon="4.75683">
        <ele>184</ele>
        <time>2018-01-05T11:25:05Z</time>
      </trkpt>
      <trkpt lat="46.0306" lon="4.75684">
        <ele>184</ele>
        <time>2018-01-05T11:25:06Z</time>
      </trkpt>
      <trkpt lat="46.03054" lon="4.75686">
        <ele>184</ele>
        <time>2018-01-05T11:25:07Z</time>
      </trkpt>
      <trkpt lat="46.03049" lon="4.75688">
        <ele>184</ele>
        <time>2018-01-05T11:25:08Z</time>
      </trkpt>
      <trkpt lat="46.03044" lon="4.7569">
        <ele>184</ele>
        <time>2018-01-05T11:25:09Z</time>
      </trkpt>
      <trkpt lat="46.03038" lon="4.75691">
        <ele>184</ele>
        <time>2018-01-05T11:25:10Z</time>
      </trkpt>
      <trkpt lat="46.03033" lon="4.75693">
        <ele>184</ele>
        <time>2018-01-05T11:25:11Z</time>
      </trkpt>
      <trkpt lat="46.03026" lon="4.75694">
        <ele>183</ele>
        <time>2018-01-05T11:25:12Z</time>
      </trkpt>
      <trkpt lat="46.0302" lon="4.75696">
        <ele>183</ele>
        <time>2018-01-05T11:25:13Z</time>
      </trkpt>
      <trkpt lat="46.03015" lon="4.75697">
        <ele>183</ele>
        <time>2018-01-05T11:25:14Z</time>
      </trkpt>
      <trkpt lat="46.0301" lon="4.757">
        <ele>183</ele>
        <time>2018-01-05T11:25:15Z</time>
      </trkpt>
      <trkpt lat="46.03004" lon="4.75702">
        <ele>184</ele>
        <time>2018-01-05T11:25:16Z</time>
      </trkpt>
      <trkpt lat="46.02999" lon="4.75705">
        <ele>183</ele>
        <time>2018-01-05T11:25:17Z</time>
      </trkpt>
      <trkpt lat="46.02993" lon="4.75707">
        <ele>183</ele>
        <time>2018-01-05T11:25:18Z</time>
      </trkpt>
      <trkpt lat="46.0299" lon="4.7571">
        <ele>183</ele>
        <time>2018-01-05T11:25:19Z</time>
      </trkpt>
      <trkpt lat="46.02985" lon="4.75712">
        <ele>183</ele>
        <time>2018-01-05T11:25:20Z</time>
      </trkpt>
      <trkpt lat="46.0298" lon="4.75715">
        <ele>183</ele>
        <time>2018-01-05T11:25:21Z</time>
      </trkpt>
      <trkpt lat="46.02973" lon="4.75716">
        <ele>183</ele>
        <time>2018-01-05T11:25:22Z</time>
      </trkpt>
      <trkpt lat="46.02967" lon="4.75717">
        <ele>183</ele>
        <time>2018-01-05T11:25:23Z</time>
      </trkpt>
      <trkpt lat="46.02962" lon="4.75719">
        <ele>183</ele>
        <time>2018-01-05T11:25:24Z</time>
      </trkpt>
      <trkpt lat="46.02956" lon="4.7572">
        <ele>183</ele>
        <time>2018-01-05T11:25:25Z</time>
      </trkpt>
      <trkpt lat="46.02951" lon="4.75722">
        <ele>183</ele>
        <time>2018-01-05T11:25:26Z</time>
      </trkpt>
      <trkpt lat="46.02945" lon="4.75721">
        <ele>183</ele>
        <time>2018-01-05T11:25:27Z</time>
      </trkpt>
      <trkpt lat="46.0294" lon="4.75722">
        <ele>183</ele>
        <time>2018-01-05T11:25:28Z</time>
      </trkpt>
      <trkpt lat="46.02935" lon="4.75723">
        <ele>183</ele>
        <time>2018-01-05T11:25:29Z</time>
      </trkpt>
      <trkpt lat="46.0293" lon="4.75725">
        <ele>183</ele>
        <time>2018-01-05T11:25:30Z</time>
      </trkpt>
      <trkpt lat="46.02925" lon="4.75726">
        <ele>183</ele>
        <time>2018-01-05T11:25:31Z</time>
      </trkpt>
      <trkpt lat="46.02919" lon="4.75727">
        <ele>183</ele>
        <time>2018-01-05T11:25:32Z</time>
      </trkpt>
      <trkpt lat="46.02913" lon="4.75727">
        <ele>183</ele>
        <time>2018-01-05T11:25:33Z</time>
      </trkpt>
      <trkpt lat="46.02907" lon="4.75727">
        <ele>183</ele>
        <time>2018-01-05T11:25:34Z</time>
      </trkpt>
      <trkpt lat="46.02902" lon="4.75727">
        <ele>183</ele>
        <time>2018-01-05T11:25:35Z</time>
      </trkpt>
      <trkpt lat="46.02896" lon="4.75727">
        <ele>183</ele>
        <time>2018-01-05T11:25:36Z</time>
      </trkpt>
      <trkpt lat="46.0289" lon="4.75729">
        <ele>183</ele>
        <time>2018-01-05T11:25:37Z</time>
      </trkpt>
      <trkpt lat="46.02884" lon="4.75729">
        <ele>183</ele>
        <time>2018-01-05T11:25:38Z</time>
      </trkpt>
      <trkpt lat="46.02878" lon="4.75729">
        <ele>183</ele>
        <time>2018-01-05T11:25:39Z</time>
      </trkpt>
      <trkpt lat="46.02872" lon="4.75728">
        <ele>183</ele>
        <time>2018-01-05T11:25:40Z</time>
      </trkpt>
      <trkpt lat="46.02866" lon="4.75728">
        <ele>184</ele>
        <time>2018-01-05T11:25:41Z</time>
      </trkpt>
      <trkpt lat="46.02861" lon="4.75727">
        <ele>184</ele>
        <time>2018-01-05T11:25:42Z</time>
      </trkpt>
      <trkpt lat="46.02854" lon="4.75727">
        <ele>184</ele>
        <time>2018-01-05T11:25:43Z</time>
      </trkpt>
      <trkpt lat="46.02848" lon="4.75727">
        <ele>184</ele>
        <time>2018-01-05T11:25:44Z</time>
      </trkpt>
      <trkpt lat="46.02842" lon="4.75725">
        <ele>184</ele>
        <time>2018-01-05T11:25:45Z</time>
      </trkpt>
      <trkpt lat="46.02836" lon="4.75725">
        <ele>184</ele>
        <time>2018-01-05T11:25:46Z</time>
      </trkpt>
      <trkpt lat="46.0283" lon="4.75724">
        <ele>184</ele>
        <time>2018-01-05T11:25:47Z</time>
      </trkpt>
      <trkpt lat="46.02825" lon="4.75723">
        <ele>184</ele>
        <time>2018-01-05T11:25:48Z</time>
      </trkpt>
      <trkpt lat="46.02819" lon="4.75723">
        <ele>184</ele>
        <time>2018-01-05T11:25:49Z</time>
      </trkpt>
      <trkpt lat="46.02813" lon="4.75722">
        <ele>184</ele>
        <time>2018-01-05T11:25:50Z</time>
      </trkpt>
      <trkpt lat="46.02807" lon="4.75719">
        <ele>183</ele>
        <time>2018-01-05T11:25:51Z</time>
      </trkpt>
      <trkpt lat="46.02802" lon="4.7572">
        <ele>183</ele>
        <time>2018-01-05T11:25:52Z</time>
      </trkpt>
      <trkpt lat="46.02796" lon="4.75718">
        <ele>183</ele>
        <time>2018-01-05T11:25:53Z</time>
      </trkpt>
      <trkpt lat="46.0279" lon="4.75717">
        <ele>183</ele>
        <time>2018-01-05T11:25:54Z</time>
      </trkpt>
      <trkpt lat="46.02784" lon="4.75716">
        <ele>183</ele>
        <time>2018-01-05T11:25:55Z</time>
      </trkpt>
      <trkpt lat="46.02778" lon="4.75716">
        <ele>183</ele>
        <time>2018-01-05T11:25:56Z</time>
      </trkpt>
      <trkpt lat="46.02773" lon="4.75716">
        <ele>183</ele>
        <time>2018-01-05T11:25:57Z</time>
      </trkpt>
      <trkpt lat="46.02767" lon="4.75715">
        <ele>183</ele>
        <time>2018-01-05T11:25:58Z</time>
      </trkpt>
      <trkpt lat="46.02762" lon="4.75714">
        <ele>183</ele>
        <time>2018-01-05T11:25:59Z</time>
      </trkpt>
      <trkpt lat="46.02756" lon="4.75714">
        <ele>183</ele>
        <time>2018-01-05T11:26:00Z</time>
      </trkpt>
      <trkpt lat="46.02751" lon="4.75716">
        <ele>183</ele>
        <time>2018-01-05T11:26:01Z</time>
      </trkpt>
      <trkpt lat="46.02746" lon="4.75717">
        <ele>182</ele>
        <time>2018-01-05T11:26:02Z</time>
      </trkpt>
      <trkpt lat="46.02741" lon="4.75718">
        <ele>182</ele>
        <time>2018-01-05T11:26:03Z</time>
      </trkpt>
      <trkpt lat="46.02736" lon="4.7572">
        <ele>182</ele>
        <time>2018-01-05T11:26:04Z</time>
      </trkpt>
      <trkpt lat="46.0273" lon="4.75721">
        <ele>182</ele>
        <time>2018-01-05T11:26:05Z</time>
      </trkpt>
      <trkpt lat="46.02724" lon="4.75722">
        <ele>182</ele>
        <time>2018-01-05T11:26:06Z</time>
      </trkpt>
      <trkpt lat="46.02719" lon="4.75724">
        <ele>182</ele>
        <time>2018-01-05T11:26:07Z</time>
      </trkpt>
      <trkpt lat="46.02714" lon="4.75729">
        <ele>182</ele>
        <time>2018-01-05T11:26:08Z</time>
      </trkpt>
      <trkpt lat="46.02709" lon="4.75731">
        <ele>182</ele>
        <time>2018-01-05T11:26:09Z</time>
      </trkpt>
      <trkpt lat="46.02704" lon="4.75733">
        <ele>182</ele>
        <time>2018-01-05T11:26:10Z</time>
      </trkpt>
      <trkpt lat="46.027" lon="4.75735">
        <ele>182</ele>
        <time>2018-01-05T11:26:11Z</time>
      </trkpt>
      <trkpt lat="46.02695" lon="4.75737">
        <ele>182</ele>
        <time>2018-01-05T11:26:12Z</time>
      </trkpt>
      <trkpt lat="46.0269" lon="4.7574">
        <ele>182</ele>
        <time>2018-01-05T11:26:13Z</time>
      </trkpt>
      <trkpt lat="46.02685" lon="4.7574">
        <ele>181</ele>
        <time>2018-01-05T11:26:14Z</time>
      </trkpt>
      <trkpt lat="46.0268" lon="4.75744">
        <ele>181</ele>
        <time>2018-01-05T11:26:15Z</time>
      </trkpt>
      <trkpt lat="46.02675" lon="4.75744">
        <ele>181</ele>
        <time>2018-01-05T11:26:16Z</time>
      </trkpt>
      <trkpt lat="46.0267" lon="4.75747">
        <ele>181</ele>
        <time>2018-01-05T11:26:17Z</time>
      </trkpt>
      <trkpt lat="46.02661" lon="4.75749">
        <ele>181</ele>
        <time>2018-01-05T11:26:19Z</time>
      </trkpt>
      <trkpt lat="46.02657" lon="4.7575">
        <ele>181</ele>
        <time>2018-01-05T11:26:20Z</time>
      </trkpt>
      <trkpt lat="46.0265" lon="4.7575">
        <ele>182</ele>
        <time>2018-01-05T11:26:22Z</time>
      </trkpt>
      <trkpt lat="46.02646" lon="4.7575">
        <ele>182</ele>
        <time>2018-01-05T11:26:23Z</time>
      </trkpt>
      <trkpt lat="46.0264" lon="4.75749">
        <ele>182</ele>
        <time>2018-01-05T11:26:25Z</time>
      </trkpt>
      <trkpt lat="46.02637" lon="4.75749">
        <ele>182</ele>
        <time>2018-01-05T11:26:26Z</time>
      </trkpt>
      <trkpt lat="46.0263" lon="4.75748">
        <ele>182</ele>
        <time>2018-01-05T11:26:28Z</time>
      </trkpt>
      <trkpt lat="46.02627" lon="4.75748">
        <ele>182</ele>
        <time>2018-01-05T11:26:29Z</time>
      </trkpt>
      <trkpt lat="46.02619" lon="4.75747">
        <ele>182</ele>
        <time>2018-01-05T11:26:32Z</time>
      </trkpt>
      <trkpt lat="46.02616" lon="4.75746">
        <ele>182</ele>
        <time>2018-01-05T11:26:33Z</time>
      </trkpt>
      <trkpt lat="46.02608" lon="4.75747">
        <ele>182</ele>
        <time>2018-01-05T11:26:36Z</time>
      </trkpt>
      <trkpt lat="46.02606" lon="4.75746">
        <ele>183</ele>
        <time>2018-01-05T11:26:37Z</time>
      </trkpt>
      <trkpt lat="46.02598" lon="4.75745">
        <ele>183</ele>
        <time>2018-01-05T11:26:40Z</time>
      </trkpt>
      <trkpt lat="46.02595" lon="4.75744">
        <ele>183</ele>
        <time>2018-01-05T11:26:41Z</time>
      </trkpt>
      <trkpt lat="46.02587" lon="4.75743">
        <ele>183</ele>
        <time>2018-01-05T11:26:44Z</time>
      </trkpt>
      <trkpt lat="46.02585" lon="4.75744">
        <ele>183</ele>
        <time>2018-01-05T11:26:45Z</time>
      </trkpt>
      <trkpt lat="46.02577" lon="4.75744">
        <ele>184</ele>
        <time>2018-01-05T11:26:48Z</time>
      </trkpt>
      <trkpt lat="46.02574" lon="4.75745">
        <ele>184</ele>
        <time>2018-01-05T11:26:49Z</time>
      </trkpt>
      <trkpt lat="46.02566" lon="4.75744">
        <ele>185</ele>
        <time>2018-01-05T11:26:52Z</time>
      </trkpt>
      <trkpt lat="46.02564" lon="4.75744">
        <ele>185</ele>
        <time>2018-01-05T11:26:53Z</time>
      </trkpt>
      <trkpt lat="46.02557" lon="4.75743">
        <ele>185</ele>
        <time>2018-01-05T11:26:56Z</time>
      </trkpt>
      <trkpt lat="46.02553" lon="4.75743">
        <ele>186</ele>
        <time>2018-01-05T11:26:57Z</time>
      </trkpt>
      <trkpt lat="46.02545" lon="4.75742">
        <ele>186</ele>
        <time>2018-01-05T11:27:00Z</time>
      </trkpt>
      <trkpt lat="46.02543" lon="4.75742">
        <ele>186</ele>
        <time>2018-01-05T11:27:01Z</time>
      </trkpt>
      <trkpt lat="46.02535" lon="4.75742">
        <ele>187</ele>
        <time>2018-01-05T11:27:04Z</time>
      </trkpt>
      <trkpt lat="46.02532" lon="4.75743">
        <ele>187</ele>
        <time>2018-01-05T11:27:05Z</time>
      </trkpt>
      <trkpt lat="46.02524" lon="4.75746">
        <ele>187</ele>
        <time>2018-01-05T11:27:08Z</time>
      </trkpt>
      <trkpt lat="46.02521" lon="4.75747">
        <ele>188</ele>
        <time>2018-01-05T11:27:09Z</time>
      </trkpt>
      <trkpt lat="46.02513" lon="4.75749">
        <ele>188</ele>
        <time>2018-01-05T11:27:12Z</time>
      </trkpt>
      <trkpt lat="46.02511" lon="4.7575">
        <ele>189</ele>
        <time>2018-01-05T11:27:13Z</time>
      </trkpt>
      <trkpt lat="46.02502" lon="4.75752">
        <ele>190</ele>
        <time>2018-01-05T11:27:16Z</time>
      </trkpt>
      <trkpt lat="46.02499" lon="4.75753">
        <ele>190</ele>
        <time>2018-01-05T11:27:17Z</time>
      </trkpt>
      <trkpt lat="46.02491" lon="4.75757">
        <ele>190</ele>
        <time>2018-01-05T11:27:20Z</time>
      </trkpt>
      <trkpt lat="46.02488" lon="4.75758">
        <ele>190</ele>
        <time>2018-01-05T11:27:21Z</time>
      </trkpt>
      <trkpt lat="46.0248" lon="4.75763">
        <ele>191</ele>
        <time>2018-01-05T11:27:24Z</time>
      </trkpt>
      <trkpt lat="46.02477" lon="4.75764">
        <ele>191</ele>
        <time>2018-01-05T11:27:25Z</time>
      </trkpt>
      <trkpt lat="46.0247" lon="4.75767">
        <ele>191</ele>
        <time>2018-01-05T11:27:28Z</time>
      </trkpt>
      <trkpt lat="46.02467" lon="4.75767">
        <ele>191</ele>
        <time>2018-01-05T11:27:29Z</time>
      </trkpt>
      <trkpt lat="46.02459" lon="4.75771">
        <ele>191</ele>
        <time>2018-01-05T11:27:32Z</time>
      </trkpt>
      <trkpt lat="46.02456" lon="4.75773">
        <ele>191</ele>
        <time>2018-01-05T11:27:33Z</time>
      </trkpt>
      <trkpt lat="46.02448" lon="4.75777">
        <ele>191</ele>
        <time>2018-01-05T11:27:36Z</time>
      </trkpt>
      <trkpt lat="46.02445" lon="4.75779">
        <ele>191</ele>
        <time>2018-01-05T11:27:37Z</time>
      </trkpt>
      <trkpt lat="46.02438" lon="4.75783">
        <ele>191</ele>
        <time>2018-01-05T11:27:40Z</time>
      </trkpt>
      <trkpt lat="46.02436" lon="4.75785">
        <ele>191</ele>
        <time>2018-01-05T11:27:41Z</time>
      </trkpt>
      <trkpt lat="46.02428" lon="4.75791">
        <ele>191</ele>
        <time>2018-01-05T11:27:44Z</time>
      </trkpt>
      <trkpt lat="46.02425" lon="4.75792">
        <ele>192</ele>
        <time>2018-01-05T11:27:45Z</time>
      </trkpt>
      <trkpt lat="46.0242" lon="4.75795">
        <ele>192</ele>
        <time>2018-01-05T11:27:47Z</time>
      </trkpt>
      <trkpt lat="46.02417" lon="4.75796">
        <ele>192</ele>
        <time>2018-01-05T11:27:48Z</time>
      </trkpt>
      <trkpt lat="46.0241" lon="4.758">
        <ele>192</ele>
        <time>2018-01-05T11:27:50Z</time>
      </trkpt>
      <trkpt lat="46.02407" lon="4.75801">
        <ele>192</ele>
        <time>2018-01-05T11:27:51Z</time>
      </trkpt>
      <trkpt lat="46.02401" lon="4.75804">
        <ele>192</ele>
        <time>2018-01-05T11:27:53Z</time>
      </trkpt>
      <trkpt lat="46.02398" lon="4.75807">
        <ele>192</ele>
        <time>2018-01-05T11:27:54Z</time>
      </trkpt>
      <trkpt lat="46.02393" lon="4.75811">
        <ele>192</ele>
        <time>2018-01-05T11:27:56Z</time>
      </trkpt>
      <trkpt lat="46.0239" lon="4.75813">
        <ele>192</ele>
        <time>2018-01-05T11:27:57Z</time>
      </trkpt>
      <trkpt lat="46.02385" lon="4.75818">
        <ele>192</ele>
        <time>2018-01-05T11:27:59Z</time>
      </trkpt>
      <trkpt lat="46.02382" lon="4.7582">
        <ele>192</ele>
        <time>2018-01-05T11:28:00Z</time>
      </trkpt>
      <trkpt lat="46.02376" lon="4.75825">
        <ele>192</ele>
        <time>2018-01-05T11:28:02Z</time>
      </trkpt>
      <trkpt lat="46.02373" lon="4.75827">
        <ele>192</ele>
        <time>2018-01-05T11:28:03Z</time>
      </trkpt>
      <trkpt lat="46.02367" lon="4.75832">
        <ele>192</ele>
        <time>2018-01-05T11:28:05Z</time>
      </trkpt>
      <trkpt lat="46.02364" lon="4.75835">
        <ele>193</ele>
        <time>2018-01-05T11:28:06Z</time>
      </trkpt>
      <trkpt lat="46.02357" lon="4.75841">
        <ele>193</ele>
        <time>2018-01-05T11:28:08Z</time>
      </trkpt>
      <trkpt lat="46.02354" lon="4.75844">
        <ele>193</ele>
        <time>2018-01-05T11:28:09Z</time>
      </trkpt>
      <trkpt lat="46.02347" lon="4.75849">
        <ele>193</ele>
        <time>2018-01-05T11:28:11Z</time>
      </trkpt>
      <trkpt lat="46.02344" lon="4.75852">
        <ele>193</ele>
        <time>2018-01-05T11:28:12Z</time>
      </trkpt>
      <trkpt lat="46.02337" lon="4.75857">
        <ele>193</ele>
        <time>2018-01-05T11:28:14Z</time>
      </trkpt>
      <trkpt lat="46.02334" lon="4.7586">
        <ele>193</ele>
        <time>2018-01-05T11:28:15Z</time>
      </trkpt>
      <trkpt lat="46.02327" lon="4.75866">
        <ele>193</ele>
        <time>2018-01-05T11:28:17Z</time>
      </trkpt>
      <trkpt lat="46.02323" lon="4.7587">
        <ele>193</ele>
        <time>2018-01-05T11:28:18Z</time>
      </trkpt>
      <trkpt lat="46.02317" lon="4.75876">
        <ele>193</ele>
        <time>2018-01-05T11:28:20Z</time>
      </trkpt>
      <trkpt lat="46.02312" lon="4.7588">
        <ele>193</ele>
        <time>2018-01-05T11:28:21Z</time>
      </trkpt>
      <trkpt lat="46.02309" lon="4.75884">
        <ele>193</ele>
        <time>2018-01-05T11:28:22Z</time>
      </trkpt>
      <trkpt lat="46.02304" lon="4.75887">
        <ele>193</ele>
        <time>2018-01-05T11:28:23Z</time>
      </trkpt>
      <trkpt lat="46.02301" lon="4.75891">
        <ele>193</ele>
        <time>2018-01-05T11:28:24Z</time>
      </trkpt>
      <trkpt lat="46.02297" lon="4.75895">
        <ele>193</ele>
        <time>2018-01-05T11:28:25Z</time>
      </trkpt>
      <trkpt lat="46.02293" lon="4.75899">
        <ele>193</ele>
        <time>2018-01-05T11:28:26Z</time>
      </trkpt>
      <trkpt lat="46.02288" lon="4.75904">
        <ele>193</ele>
        <time>2018-01-05T11:28:27Z</time>
      </trkpt>
      <trkpt lat="46.02283" lon="4.75907">
        <ele>193</ele>
        <time>2018-01-05T11:28:28Z</time>
      </trkpt>
      <trkpt lat="46.02279" lon="4.75911">
        <ele>193</ele>
        <time>2018-01-05T11:28:29Z</time>
      </trkpt>
      <trkpt lat="46.02272" lon="4.75919">
        <ele>193</ele>
        <time>2018-01-05T11:28:31Z</time>
      </trkpt>
      <trkpt lat="46.02269" lon="4.75923">
        <ele>193</ele>
        <time>2018-01-05T11:28:32Z</time>
      </trkpt>
      <trkpt lat="46.02264" lon="4.75925">
        <ele>193</ele>
        <time>2018-01-05T11:28:33Z</time>
      </trkpt>
      <trkpt lat="46.0226" lon="4.75928">
        <ele>193</ele>
        <time>2018-01-05T11:28:34Z</time>
      </trkpt>
      <trkpt lat="46.02257" lon="4.75932">
        <ele>193</ele>
        <time>2018-01-05T11:28:35Z</time>
      </trkpt>
      <trkpt lat="46.02252" lon="4.75935">
        <ele>193</ele>
        <time>2018-01-05T11:28:36Z</time>
      </trkpt>
      <trkpt lat="46.02248" lon="4.7594">
        <ele>193</ele>
        <time>2018-01-05T11:28:37Z</time>
      </trkpt>
      <trkpt lat="46.02243" lon="4.75944">
        <ele>193</ele>
        <time>2018-01-05T11:28:38Z</time>
      </trkpt>
      <trkpt lat="46.02238" lon="4.75949">
        <ele>193</ele>
        <time>2018-01-05T11:28:39Z</time>
      </trkpt>
      <trkpt lat="46.02234" lon="4.75953">
        <ele>193</ele>
        <time>2018-01-05T11:28:40Z</time>
      </trkpt>
      <trkpt lat="46.0223" lon="4.75956">
        <ele>193</ele>
        <time>2018-01-05T11:28:41Z</time>
      </trkpt>
      <trkpt lat="46.02225" lon="4.7596">
        <ele>193</ele>
        <time>2018-01-05T11:28:42Z</time>
      </trkpt>
      <trkpt lat="46.0222" lon="4.75963">
        <ele>193</ele>
        <time>2018-01-05T11:28:43Z</time>
      </trkpt>
      <trkpt lat="46.02215" lon="4.75966">
        <ele>192</ele>
        <time>2018-01-05T11:28:44Z</time>
      </trkpt>
      <trkpt lat="46.0221" lon="4.7597">
        <ele>192</ele>
        <time>2018-01-05T11:28:45Z</time>
      </trkpt>
      <trkpt lat="46.02205" lon="4.75974">
        <ele>192</ele>
        <time>2018-01-05T11:28:46Z</time>
      </trkpt>
      <trkpt lat="46.02201" lon="4.75978">
        <ele>192</ele>
        <time>2018-01-05T11:28:47Z</time>
      </trkpt>
      <trkpt lat="46.02197" lon="4.75983">
        <ele>192</ele>
        <time>2018-01-05T11:28:48Z</time>
      </trkpt>
      <trkpt lat="46.02192" lon="4.75986">
        <ele>192</ele>
        <time>2018-01-05T11:28:49Z</time>
      </trkpt>
      <trkpt lat="46.02188" lon="4.75989">
        <ele>192</ele>
        <time>2018-01-05T11:28:50Z</time>
      </trkpt>
      <trkpt lat="46.02184" lon="4.75992">
        <ele>192</ele>
        <time>2018-01-05T11:28:51Z</time>
      </trkpt>
      <trkpt lat="46.0218" lon="4.75996">
        <ele>192</ele>
        <time>2018-01-05T11:28:52Z</time>
      </trkpt>
      <trkpt lat="46.02173" lon="4.76004">
        <ele>192</ele>
        <time>2018-01-05T11:28:54Z</time>
      </trkpt>
      <trkpt lat="46.02169" lon="4.76008">
        <ele>192</ele>
        <time>2018-01-05T11:28:55Z</time>
      </trkpt>
      <trkpt lat="46.02165" lon="4.76011">
        <ele>193</ele>
        <time>2018-01-05T11:28:56Z</time>
      </trkpt>
      <trkpt lat="46.02161" lon="4.76015">
        <ele>193</ele>
        <time>2018-01-05T11:28:57Z</time>
      </trkpt>
      <trkpt lat="46.02157" lon="4.76019">
        <ele>193</ele>
        <time>2018-01-05T11:28:58Z</time>
      </trkpt>
      <trkpt lat="46.02154" lon="4.76022">
        <ele>193</ele>
        <time>2018-01-05T11:28:59Z</time>
      </trkpt>
      <trkpt lat="46.0215" lon="4.76027">
        <ele>193</ele>
        <time>2018-01-05T11:29:00Z</time>
      </trkpt>
      <trkpt lat="46.02146" lon="4.7603">
        <ele>193</ele>
        <time>2018-01-05T11:29:01Z</time>
      </trkpt>
      <trkpt lat="46.02142" lon="4.76034">
        <ele>193</ele>
        <time>2018-01-05T11:29:02Z</time>
      </trkpt>
      <trkpt lat="46.02138" lon="4.76038">
        <ele>193</ele>
        <time>2018-01-05T11:29:03Z</time>
      </trkpt>
      <trkpt lat="46.02134" lon="4.76043">
        <ele>193</ele>
        <time>2018-01-05T11:29:04Z</time>
      </trkpt>
      <trkpt lat="46.0213" lon="4.76047">
        <ele>194</ele>
        <time>2018-01-05T11:29:05Z</time>
      </trkpt>
      <trkpt lat="46.02124" lon="4.76054">
        <ele>194</ele>
        <time>2018-01-05T11:29:07Z</time>
      </trkpt>
      <trkpt lat="46.0212" lon="4.76057">
        <ele>194</ele>
        <time>2018-01-05T11:29:08Z</time>
      </trkpt>
      <trkpt lat="46.02114" lon="4.76063">
        <ele>194</ele>
        <time>2018-01-05T11:29:10Z</time>
      </trkpt>
      <trkpt lat="46.0211" lon="4.76066">
        <ele>194</ele>
        <time>2018-01-05T11:29:11Z</time>
      </trkpt>
      <trkpt lat="46.02102" lon="4.76072">
        <ele>195</ele>
        <time>2018-01-05T11:29:13Z</time>
      </trkpt>
      <trkpt lat="46.02098" lon="4.76074">
        <ele>195</ele>
        <time>2018-01-05T11:29:14Z</time>
      </trkpt>
      <trkpt lat="46.02091" lon="4.76079">
        <ele>195</ele>
        <time>2018-01-05T11:29:16Z</time>
      </trkpt>
      <trkpt lat="46.02087" lon="4.76082">
        <ele>196</ele>
        <time>2018-01-05T11:29:17Z</time>
      </trkpt>
      <trkpt lat="46.0208" lon="4.76085">
        <ele>196</ele>
        <time>2018-01-05T11:29:19Z</time>
      </trkpt>
      <trkpt lat="46.02076" lon="4.76087">
        <ele>196</ele>
        <time>2018-01-05T11:29:20Z</time>
      </trkpt>
      <trkpt lat="46.02068" lon="4.7609">
        <ele>197</ele>
        <time>2018-01-05T11:29:22Z</time>
      </trkpt>
      <trkpt lat="46.02065" lon="4.76091">
        <ele>197</ele>
        <time>2018-01-05T11:29:23Z</time>
      </trkpt>
      <trkpt lat="46.02057" lon="4.76093">
        <ele>197</ele>
        <time>2018-01-05T11:29:25Z</time>
      </trkpt>
      <trkpt lat="46.02053" lon="4.76093">
        <ele>197</ele>
        <time>2018-01-05T11:29:26Z</time>
      </trkpt>
      <trkpt lat="46.02046" lon="4.76094">
        <ele>197</ele>
        <time>2018-01-05T11:29:28Z</time>
      </trkpt>
      <trkpt lat="46.02042" lon="4.76095">
        <ele>197</ele>
        <time>2018-01-05T11:29:29Z</time>
      </trkpt>
      <trkpt lat="46.02034" lon="4.76096">
        <ele>197</ele>
        <time>2018-01-05T11:29:31Z</time>
      </trkpt>
      <trkpt lat="46.0203" lon="4.76097">
        <ele>197</ele>
        <time>2018-01-05T11:29:32Z</time>
      </trkpt>
      <trkpt lat="46.02022" lon="4.76098">
        <ele>197</ele>
        <time>2018-01-05T11:29:34Z</time>
      </trkpt>
      <trkpt lat="46.02018" lon="4.76099">
        <ele>197</ele>
        <time>2018-01-05T11:29:35Z</time>
      </trkpt>
      <trkpt lat="46.0201" lon="4.76101">
        <ele>197</ele>
        <time>2018-01-05T11:29:37Z</time>
      </trkpt>
      <trkpt lat="46.02006" lon="4.76102">
        <ele>197</ele>
        <time>2018-01-05T11:29:38Z</time>
      </trkpt>
      <trkpt lat="46.01997" lon="4.76104">
        <ele>198</ele>
        <time>2018-01-05T11:29:40Z</time>
      </trkpt>
      <trkpt lat="46.01993" lon="4.76105">
        <ele>198</ele>
        <time>2018-01-05T11:29:41Z</time>
      </trkpt>
      <trkpt lat="46.01985" lon="4.76107">
        <ele>198</ele>
        <time>2018-01-05T11:29:43Z</time>
      </trkpt>
      <trkpt lat="46.01981" lon="4.76107">
        <ele>198</ele>
        <time>2018-01-05T11:29:44Z</time>
      </trkpt>
      <trkpt lat="46.01974" lon="4.76107">
        <ele>198</ele>
        <time>2018-01-05T11:29:46Z</time>
      </trkpt>
      <trkpt lat="46.01969" lon="4.76107">
        <ele>198</ele>
        <time>2018-01-05T11:29:47Z</time>
      </trkpt>
      <trkpt lat="46.01961" lon="4.76108">
        <ele>198</ele>
        <time>2018-01-05T11:29:49Z</time>
      </trkpt>
      <trkpt lat="46.01956" lon="4.76107">
        <ele>198</ele>
        <time>2018-01-05T11:29:50Z</time>
      </trkpt>
      <trkpt lat="46.01952" lon="4.7611">
        <ele>198</ele>
        <time>2018-01-05T11:29:51Z</time>
      </trkpt>
      <trkpt lat="46.01947" lon="4.76114">
        <ele>198</ele>
        <time>2018-01-05T11:29:52Z</time>
      </trkpt>
      <trkpt lat="46.0194" lon="4.76118">
        <ele>198</ele>
        <time>2018-01-05T11:29:54Z</time>
      </trkpt>
      <trkpt lat="46.01937" lon="4.76118">
        <ele>198</ele>
        <time>2018-01-05T11:29:55Z</time>
      </trkpt>
      <trkpt lat="46.01931" lon="4.7612">
        <ele>198</ele>
        <time>2018-01-05T11:29:57Z</time>
      </trkpt>
      <trkpt lat="46.01927" lon="4.7612">
        <ele>198</ele>
        <time>2018-01-05T11:29:58Z</time>
      </trkpt>
      <trkpt lat="46.01922" lon="4.76125">
        <ele>198</ele>
        <time>2018-01-05T11:29:59Z</time>
      </trkpt>
      <trkpt lat="46.01918" lon="4.76125">
        <ele>199</ele>
        <time>2018-01-05T11:30:00Z</time>
      </trkpt>
      <trkpt lat="46.0191" lon="4.76127">
        <ele>199</ele>
        <time>2018-01-05T11:30:02Z</time>
      </trkpt>
      <trkpt lat="46.01906" lon="4.76128">
        <ele>199</ele>
        <time>2018-01-05T11:30:03Z</time>
      </trkpt>
      <trkpt lat="46.01898" lon="4.76128">
        <ele>199</ele>
        <time>2018-01-05T11:30:05Z</time>
      </trkpt>
      <trkpt lat="46.01895" lon="4.76129">
        <ele>199</ele>
        <time>2018-01-05T11:30:06Z</time>
      </trkpt>
      <trkpt lat="46.01887" lon="4.7613">
        <ele>199</ele>
        <time>2018-01-05T11:30:08Z</time>
      </trkpt>
      <trkpt lat="46.01883" lon="4.76131">
        <ele>199</ele>
        <time>2018-01-05T11:30:09Z</time>
      </trkpt>
      <trkpt lat="46.01875" lon="4.76132">
        <ele>199</ele>
        <time>2018-01-05T11:30:11Z</time>
      </trkpt>
      <trkpt lat="46.01871" lon="4.76132">
        <ele>199</ele>
        <time>2018-01-05T11:30:12Z</time>
      </trkpt>
      <trkpt lat="46.01867" lon="4.76133">
        <ele>199</ele>
        <time>2018-01-05T11:30:13Z</time>
      </trkpt>
      <trkpt lat="46.01862" lon="4.76133">
        <ele>199</ele>
        <time>2018-01-05T11:30:14Z</time>
      </trkpt>
      <trkpt lat="46.01854" lon="4.76133">
        <ele>199</ele>
        <time>2018-01-05T11:30:16Z</time>
      </trkpt>
      <trkpt lat="46.0185" lon="4.76135">
        <ele>199</ele>
        <time>2018-01-05T11:30:17Z</time>
      </trkpt>
      <trkpt lat="46.01843" lon="4.76133">
        <ele>199</ele>
        <time>2018-01-05T11:30:19Z</time>
      </trkpt>
      <trkpt lat="46.01839" lon="4.76133">
        <ele>199</ele>
        <time>2018-01-05T11:30:20Z</time>
      </trkpt>
      <trkpt lat="46.0183" lon="4.76135">
        <ele>198</ele>
        <time>2018-01-05T11:30:22Z</time>
      </trkpt>
      <trkpt lat="46.01827" lon="4.76134">
        <ele>198</ele>
        <time>2018-01-05T11:30:23Z</time>
      </trkpt>
      <trkpt lat="46.01819" lon="4.76133">
        <ele>198</ele>
        <time>2018-01-05T11:30:25Z</time>
      </trkpt>
      <trkpt lat="46.01815" lon="4.76133">
        <ele>198</ele>
        <time>2018-01-05T11:30:26Z</time>
      </trkpt>
      <trkpt lat="46.01807" lon="4.76132">
        <ele>198</ele>
        <time>2018-01-05T11:30:28Z</time>
      </trkpt>
      <trkpt lat="46.01803" lon="4.76132">
        <ele>198</ele>
        <time>2018-01-05T11:30:29Z</time>
      </trkpt>
      <trkpt lat="46.01796" lon="4.76131">
        <ele>198</ele>
        <time>2018-01-05T11:30:31Z</time>
      </trkpt>
      <trkpt lat="46.01792" lon="4.76132">
        <ele>198</ele>
        <time>2018-01-05T11:30:32Z</time>
      </trkpt>
      <trkpt lat="46.01785" lon="4.76131">
        <ele>198</ele>
        <time>2018-01-05T11:30:34Z</time>
      </trkpt>
      <trkpt lat="46.01781" lon="4.76131">
        <ele>198</ele>
        <time>2018-01-05T11:30:35Z</time>
      </trkpt>
      <trkpt lat="46.01773" lon="4.76129">
        <ele>198</ele>
        <time>2018-01-05T11:30:37Z</time>
      </trkpt>
      <trkpt lat="46.01769" lon="4.76129">
        <ele>198</ele>
        <time>2018-01-05T11:30:38Z</time>
      </trkpt>
      <trkpt lat="46.01762" lon="4.76129">
        <ele>198</ele>
        <time>2018-01-05T11:30:40Z</time>
      </trkpt>
      <trkpt lat="46.01758" lon="4.76129">
        <ele>198</ele>
        <time>2018-01-05T11:30:41Z</time>
      </trkpt>
      <trkpt lat="46.0175" lon="4.76128">
        <ele>197</ele>
        <time>2018-01-05T11:30:43Z</time>
      </trkpt>
      <trkpt lat="46.01746" lon="4.76127">
        <ele>197</ele>
        <time>2018-01-05T11:30:44Z</time>
      </trkpt>
      <trkpt lat="46.01737" lon="4.76125">
        <ele>197</ele>
        <time>2018-01-05T11:30:46Z</time>
      </trkpt>
      <trkpt lat="46.01733" lon="4.76124">
        <ele>197</ele>
        <time>2018-01-05T11:30:47Z</time>
      </trkpt>
      <trkpt lat="46.01726" lon="4.76123">
        <ele>197</ele>
        <time>2018-01-05T11:30:49Z</time>
      </trkpt>
      <trkpt lat="46.01722" lon="4.76123">
        <ele>197</ele>
        <time>2018-01-05T11:30:50Z</time>
      </trkpt>
      <trkpt lat="46.01715" lon="4.76124">
        <ele>197</ele>
        <time>2018-01-05T11:30:52Z</time>
      </trkpt>
      <trkpt lat="46.01711" lon="4.76124">
        <ele>197</ele>
        <time>2018-01-05T11:30:53Z</time>
      </trkpt>
      <trkpt lat="46.01704" lon="4.76123">
        <ele>198</ele>
        <time>2018-01-05T11:30:55Z</time>
      </trkpt>
      <trkpt lat="46.017" lon="4.76123">
        <ele>198</ele>
        <time>2018-01-05T11:30:56Z</time>
      </trkpt>
      <trkpt lat="46.01692" lon="4.76122">
        <ele>198</ele>
        <time>2018-01-05T11:30:58Z</time>
      </trkpt>
      <trkpt lat="46.01689" lon="4.76121">
        <ele>198</ele>
        <time>2018-01-05T11:30:59Z</time>
      </trkpt>
      <trkpt lat="46.01681" lon="4.76119">
        <ele>198</ele>
        <time>2018-01-05T11:31:01Z</time>
      </trkpt>
      <trkpt lat="46.01677" lon="4.76118">
        <ele>198</ele>
        <time>2018-01-05T11:31:02Z</time>
      </trkpt>
      <trkpt lat="46.01669" lon="4.76118">
        <ele>198</ele>
        <time>2018-01-05T11:31:04Z</time>
      </trkpt>
      <trkpt lat="46.01666" lon="4.76117">
        <ele>199</ele>
        <time>2018-01-05T11:31:05Z</time>
      </trkpt>
      <trkpt lat="46.01658" lon="4.76116">
        <ele>199</ele>
        <time>2018-01-05T11:31:07Z</time>
      </trkpt>
      <trkpt lat="46.01654" lon="4.76116">
        <ele>199</ele>
        <time>2018-01-05T11:31:08Z</time>
      </trkpt>
      <trkpt lat="46.01647" lon="4.76114">
        <ele>199</ele>
        <time>2018-01-05T11:31:10Z</time>
      </trkpt>
      <trkpt lat="46.01643" lon="4.76114">
        <ele>199</ele>
        <time>2018-01-05T11:31:11Z</time>
      </trkpt>
      <trkpt lat="46.01636" lon="4.76113">
        <ele>199</ele>
        <time>2018-01-05T11:31:13Z</time>
      </trkpt>
      <trkpt lat="46.01632" lon="4.76113">
        <ele>199</ele>
        <time>2018-01-05T11:31:14Z</time>
      </trkpt>
      <trkpt lat="46.01625" lon="4.76112">
        <ele>200</ele>
        <time>2018-01-05T11:31:16Z</time>
      </trkpt>
      <trkpt lat="46.01621" lon="4.76112">
        <ele>200</ele>
        <time>2018-01-05T11:31:17Z</time>
      </trkpt>
      <trkpt lat="46.01614" lon="4.76111">
        <ele>200</ele>
        <time>2018-01-05T11:31:19Z</time>
      </trkpt>
      <trkpt lat="46.0161" lon="4.76111">
        <ele>200</ele>
        <time>2018-01-05T11:31:20Z</time>
      </trkpt>
      <trkpt lat="46.01603" lon="4.7611">
        <ele>200</ele>
        <time>2018-01-05T11:31:22Z</time>
      </trkpt>
      <trkpt lat="46.01599" lon="4.76109">
        <ele>200</ele>
        <time>2018-01-05T11:31:23Z</time>
      </trkpt>
      <trkpt lat="46.01592" lon="4.76108">
        <ele>200</ele>
        <time>2018-01-05T11:31:25Z</time>
      </trkpt>
      <trkpt lat="46.01588" lon="4.76107">
        <ele>200</ele>
        <time>2018-01-05T11:31:26Z</time>
      </trkpt>
      <trkpt lat="46.01581" lon="4.76106">
        <ele>202</ele>
        <time>2018-01-05T11:31:28Z</time>
      </trkpt>
      <trkpt lat="46.01578" lon="4.76105">
        <ele>202</ele>
        <time>2018-01-05T11:31:29Z</time>
      </trkpt>
      <trkpt lat="46.0157" lon="4.76103">
        <ele>202</ele>
        <time>2018-01-05T11:31:31Z</time>
      </trkpt>
      <trkpt lat="46.01567" lon="4.76101">
        <ele>202</ele>
        <time>2018-01-05T11:31:32Z</time>
      </trkpt>
      <trkpt lat="46.0156" lon="4.76099">
        <ele>202</ele>
        <time>2018-01-05T11:31:34Z</time>
      </trkpt>
      <trkpt lat="46.01556" lon="4.76097">
        <ele>202</ele>
        <time>2018-01-05T11:31:35Z</time>
      </trkpt>
      <trkpt lat="46.01549" lon="4.76094">
        <ele>202</ele>
        <time>2018-01-05T11:31:37Z</time>
      </trkpt>
      <trkpt lat="46.01546" lon="4.76092">
        <ele>202</ele>
        <time>2018-01-05T11:31:38Z</time>
      </trkpt>
      <trkpt lat="46.01539" lon="4.76089">
        <ele>202</ele>
        <time>2018-01-05T11:31:40Z</time>
      </trkpt>
      <trkpt lat="46.01535" lon="4.76087">
        <ele>202</ele>
        <time>2018-01-05T11:31:41Z</time>
      </trkpt>
      <trkpt lat="46.01527" lon="4.76086">
        <ele>202</ele>
        <time>2018-01-05T11:31:43Z</time>
      </trkpt>
      <trkpt lat="46.01523" lon="4.76085">
        <ele>202</ele>
        <time>2018-01-05T11:31:44Z</time>
      </trkpt>
      <trkpt lat="46.01516" lon="4.76084">
        <ele>203</ele>
        <time>2018-01-05T11:31:46Z</time>
      </trkpt>
      <trkpt lat="46.01512" lon="4.76083">
        <ele>202</ele>
        <time>2018-01-05T11:31:47Z</time>
      </trkpt>
      <trkpt lat="46.01504" lon="4.76082">
        <ele>203</ele>
        <time>2018-01-05T11:31:49Z</time>
      </trkpt>
      <trkpt lat="46.01501" lon="4.76081">
        <ele>203</ele>
        <time>2018-01-05T11:31:50Z</time>
      </trkpt>
      <trkpt lat="46.01494" lon="4.76079">
        <ele>203</ele>
        <time>2018-01-05T11:31:52Z</time>
      </trkpt>
      <trkpt lat="46.0149" lon="4.76077">
        <ele>203</ele>
        <time>2018-01-05T11:31:53Z</time>
      </trkpt>
      <trkpt lat="46.01482" lon="4.76075">
        <ele>203</ele>
        <time>2018-01-05T11:31:55Z</time>
      </trkpt>
      <trkpt lat="46.01478" lon="4.76074">
        <ele>203</ele>
        <time>2018-01-05T11:31:56Z</time>
      </trkpt>
      <trkpt lat="46.0147" lon="4.76073">
        <ele>203</ele>
        <time>2018-01-05T11:31:58Z</time>
      </trkpt>
      <trkpt lat="46.01466" lon="4.76072">
        <ele>203</ele>
        <time>2018-01-05T11:31:59Z</time>
      </trkpt>
      <trkpt lat="46.01457" lon="4.7607">
        <ele>203</ele>
        <time>2018-01-05T11:32:01Z</time>
      </trkpt>
      <trkpt lat="46.01453" lon="4.76069">
        <ele>203</ele>
        <time>2018-01-05T11:32:02Z</time>
      </trkpt>
      <trkpt lat="46.01446" lon="4.76066">
        <ele>203</ele>
        <time>2018-01-05T11:32:04Z</time>
      </trkpt>
      <trkpt lat="46.01444" lon="4.76065">
        <ele>203</ele>
        <time>2018-01-05T11:32:05Z</time>
      </trkpt>
      <trkpt lat="46.01438" lon="4.7606">
        <ele>203</ele>
        <time>2018-01-05T11:32:07Z</time>
      </trkpt>
      <trkpt lat="46.01434" lon="4.76058">
        <ele>203</ele>
        <time>2018-01-05T11:32:08Z</time>
      </trkpt>
      <trkpt lat="46.01427" lon="4.76053">
        <ele>203</ele>
        <time>2018-01-05T11:32:10Z</time>
      </trkpt>
      <trkpt lat="46.01423" lon="4.76051">
        <ele>204</ele>
        <time>2018-01-05T11:32:11Z</time>
      </trkpt>
      <trkpt lat="46.01416" lon="4.76046">
        <ele>203</ele>
        <time>2018-01-05T11:32:13Z</time>
      </trkpt>
      <trkpt lat="46.01412" lon="4.76043">
        <ele>203</ele>
        <time>2018-01-05T11:32:14Z</time>
      </trkpt>
      <trkpt lat="46.01404" lon="4.76039">
        <ele>204</ele>
        <time>2018-01-05T11:32:16Z</time>
      </trkpt>
      <trkpt lat="46.014" lon="4.76038">
        <ele>204</ele>
        <time>2018-01-05T11:32:17Z</time>
      </trkpt>
      <trkpt lat="46.01395" lon="4.76036">
        <ele>203</ele>
        <time>2018-01-05T11:32:18Z</time>
      </trkpt>
      <trkpt lat="46.01391" lon="4.76036">
        <ele>203</ele>
        <time>2018-01-05T11:32:19Z</time>
      </trkpt>
      <trkpt lat="46.01382" lon="4.76037">
        <ele>203</ele>
        <time>2018-01-05T11:32:21Z</time>
      </trkpt>
      <trkpt lat="46.01379" lon="4.76037">
        <ele>203</ele>
        <time>2018-01-05T11:32:22Z</time>
      </trkpt>
      <trkpt lat="46.01372" lon="4.76039">
        <ele>203</ele>
        <time>2018-01-05T11:32:24Z</time>
      </trkpt>
      <trkpt lat="46.01369" lon="4.7604">
        <ele>203</ele>
        <time>2018-01-05T11:32:25Z</time>
      </trkpt>
      <trkpt lat="46.01363" lon="4.76043">
        <ele>203</ele>
        <time>2018-01-05T11:32:27Z</time>
      </trkpt>
      <trkpt lat="46.0136" lon="4.76044">
        <ele>203</ele>
        <time>2018-01-05T11:32:28Z</time>
      </trkpt>
      <trkpt lat="46.01352" lon="4.76046">
        <ele>203</ele>
        <time>2018-01-05T11:32:30Z</time>
      </trkpt>
      <trkpt lat="46.01349" lon="4.76048">
        <ele>203</ele>
        <time>2018-01-05T11:32:31Z</time>
      </trkpt>
      <trkpt lat="46.01341" lon="4.76051">
        <ele>203</ele>
        <time>2018-01-05T11:32:33Z</time>
      </trkpt>
      <trkpt lat="46.01337" lon="4.76052">
        <ele>203</ele>
        <time>2018-01-05T11:32:34Z</time>
      </trkpt>
      <trkpt lat="46.01329" lon="4.76054">
        <ele>203</ele>
        <time>2018-01-05T11:32:36Z</time>
      </trkpt>
      <trkpt lat="46.01325" lon="4.76055">
        <ele>203</ele>
        <time>2018-01-05T11:32:37Z</time>
      </trkpt>
      <trkpt lat="46.01318" lon="4.76057">
        <ele>203</ele>
        <time>2018-01-05T11:32:39Z</time>
      </trkpt>
      <trkpt lat="46.01314" lon="4.76059">
        <ele>203</ele>
        <time>2018-01-05T11:32:40Z</time>
      </trkpt>
      <trkpt lat="46.01306" lon="4.76061">
        <ele>203</ele>
        <time>2018-01-05T11:32:42Z</time>
      </trkpt>
      <trkpt lat="46.01302" lon="4.76062">
        <ele>203</ele>
        <time>2018-01-05T11:32:43Z</time>
      </trkpt>
      <trkpt lat="46.01294" lon="4.76063">
        <ele>204</ele>
        <time>2018-01-05T11:32:45Z</time>
      </trkpt>
      <trkpt lat="46.0129" lon="4.76064">
        <ele>204</ele>
        <time>2018-01-05T11:32:46Z</time>
      </trkpt>
      <trkpt lat="46.01283" lon="4.76065">
        <ele>204</ele>
        <time>2018-01-05T11:32:48Z</time>
      </trkpt>
      <trkpt lat="46.01279" lon="4.76066">
        <ele>204</ele>
        <time>2018-01-05T11:32:49Z</time>
      </trkpt>
      <trkpt lat="46.01272" lon="4.76068">
        <ele>204</ele>
        <time>2018-01-05T11:32:51Z</time>
      </trkpt>
      <trkpt lat="46.01268" lon="4.76069">
        <ele>204</ele>
        <time>2018-01-05T11:32:52Z</time>
      </trkpt>
      <trkpt lat="46.0126" lon="4.7607">
        <ele>204</ele>
        <time>2018-01-05T11:32:54Z</time>
      </trkpt>
      <trkpt lat="46.01256" lon="4.76069">
        <ele>204</ele>
        <time>2018-01-05T11:32:55Z</time>
      </trkpt>
      <trkpt lat="46.01249" lon="4.76069">
        <ele>205</ele>
        <time>2018-01-05T11:32:57Z</time>
      </trkpt>
      <trkpt lat="46.01245" lon="4.76069">
        <ele>205</ele>
        <time>2018-01-05T11:32:58Z</time>
      </trkpt>
      <trkpt lat="46.01237" lon="4.76068">
        <ele>205</ele>
        <time>2018-01-05T11:33:00Z</time>
      </trkpt>
      <trkpt lat="46.01234" lon="4.76068">
        <ele>205</ele>
        <time>2018-01-05T11:33:01Z</time>
      </trkpt>
      <trkpt lat="46.01227" lon="4.76066">
        <ele>206</ele>
        <time>2018-01-05T11:33:03Z</time>
      </trkpt>
      <trkpt lat="46.01223" lon="4.76065">
        <ele>206</ele>
        <time>2018-01-05T11:33:04Z</time>
      </trkpt>
      <trkpt lat="46.01216" lon="4.76064">
        <ele>206</ele>
        <time>2018-01-05T11:33:06Z</time>
      </trkpt>
      <trkpt lat="46.01213" lon="4.76064">
        <ele>206</ele>
        <time>2018-01-05T11:33:07Z</time>
      </trkpt>
      <trkpt lat="46.01205" lon="4.76061">
        <ele>206</ele>
        <time>2018-01-05T11:33:09Z</time>
      </trkpt>
      <trkpt lat="46.01201" lon="4.7606">
        <ele>206</ele>
        <time>2018-01-05T11:33:10Z</time>
      </trkpt>
      <trkpt lat="46.01194" lon="4.76057">
        <ele>206</ele>
        <time>2018-01-05T11:33:12Z</time>
      </trkpt>
      <trkpt lat="46.0119" lon="4.76056">
        <ele>206</ele>
        <time>2018-01-05T11:33:13Z</time>
      </trkpt>
      <trkpt lat="46.01182" lon="4.76054">
        <ele>207</ele>
        <time>2018-01-05T11:33:15Z</time>
      </trkpt>
      <trkpt lat="46.01179" lon="4.76053">
        <ele>207</ele>
        <time>2018-01-05T11:33:16Z</time>
      </trkpt>
      <trkpt lat="46.01173" lon="4.76051">
        <ele>207</ele>
        <time>2018-01-05T11:33:18Z</time>
      </trkpt>
      <trkpt lat="46.01169" lon="4.76051">
        <ele>207</ele>
        <time>2018-01-05T11:33:19Z</time>
      </trkpt>
      <trkpt lat="46.01163" lon="4.76051">
        <ele>208</ele>
        <time>2018-01-05T11:33:21Z</time>
      </trkpt>
      <trkpt lat="46.0116" lon="4.76051">
        <ele>208</ele>
        <time>2018-01-05T11:33:22Z</time>
      </trkpt>
      <trkpt lat="46.01153" lon="4.76051">
        <ele>208</ele>
        <time>2018-01-05T11:33:24Z</time>
      </trkpt>
      <trkpt lat="46.0115" lon="4.76051">
        <ele>208</ele>
        <time>2018-01-05T11:33:25Z</time>
      </trkpt>
      <trkpt lat="46.01144" lon="4.76052">
        <ele>208</ele>
        <time>2018-01-05T11:33:27Z</time>
      </trkpt>
      <trkpt lat="46.0114" lon="4.76053">
        <ele>208</ele>
        <time>2018-01-05T11:33:28Z</time>
      </trkpt>
      <trkpt lat="46.01135" lon="4.76054">
        <ele>208</ele>
        <time>2018-01-05T11:33:29Z</time>
      </trkpt>
      <trkpt lat="46.01131" lon="4.76055">
        <ele>208</ele>
        <time>2018-01-05T11:33:30Z</time>
      </trkpt>
      <trkpt lat="46.01126" lon="4.76055">
        <ele>208</ele>
        <time>2018-01-05T11:33:31Z</time>
      </trkpt>
      <trkpt lat="46.01122" lon="4.76056">
        <ele>208</ele>
        <time>2018-01-05T11:33:32Z</time>
      </trkpt>
      <trkpt lat="46.01113" lon="4.76057">
        <ele>208</ele>
        <time>2018-01-05T11:33:34Z</time>
      </trkpt>
      <trkpt lat="46.01109" lon="4.76057">
        <ele>208</ele>
        <time>2018-01-05T11:33:35Z</time>
      </trkpt>
      <trkpt lat="46.01101" lon="4.76058">
        <ele>208</ele>
        <time>2018-01-05T11:33:37Z</time>
      </trkpt>
      <trkpt lat="46.01097" lon="4.76058">
        <ele>208</ele>
        <time>2018-01-05T11:33:38Z</time>
      </trkpt>
      <trkpt lat="46.01088" lon="4.7606">
        <ele>208</ele>
        <time>2018-01-05T11:33:40Z</time>
      </trkpt>
      <trkpt lat="46.01084" lon="4.7606">
        <ele>208</ele>
        <time>2018-01-05T11:33:41Z</time>
      </trkpt>
      <trkpt lat="46.01076" lon="4.76061">
        <ele>209</ele>
        <time>2018-01-05T11:33:43Z</time>
      </trkpt>
      <trkpt lat="46.01072" lon="4.76061">
        <ele>209</ele>
        <time>2018-01-05T11:33:44Z</time>
      </trkpt>
      <trkpt lat="46.01066" lon="4.76061">
        <ele>209</ele>
        <time>2018-01-05T11:33:46Z</time>
      </trkpt>
      <trkpt lat="46.01063" lon="4.76062">
        <ele>209</ele>
        <time>2018-01-05T11:33:47Z</time>
      </trkpt>
      <trkpt lat="46.01055" lon="4.76062">
        <ele>210</ele>
        <time>2018-01-05T11:33:50Z</time>
      </trkpt>
      <trkpt lat="46.01052" lon="4.76062">
        <ele>210</ele>
        <time>2018-01-05T11:33:51Z</time>
      </trkpt>
      <trkpt lat="46.01045" lon="4.76062">
        <ele>210</ele>
        <time>2018-01-05T11:33:53Z</time>
      </trkpt>
      <trkpt lat="46.01041" lon="4.76063">
        <ele>210</ele>
        <time>2018-01-05T11:33:54Z</time>
      </trkpt>
      <trkpt lat="46.01034" lon="4.76064">
        <ele>210</ele>
        <time>2018-01-05T11:33:56Z</time>
      </trkpt>
      <trkpt lat="46.01031" lon="4.76064">
        <ele>210</ele>
        <time>2018-01-05T11:33:57Z</time>
      </trkpt>
      <trkpt lat="46.01024" lon="4.76065">
        <ele>210</ele>
        <time>2018-01-05T11:33:59Z</time>
      </trkpt>
      <trkpt lat="46.0102" lon="4.76065">
        <ele>210</ele>
        <time>2018-01-05T11:34:00Z</time>
      </trkpt>
      <trkpt lat="46.01014" lon="4.76065">
        <ele>210</ele>
        <time>2018-01-05T11:34:02Z</time>
      </trkpt>
      <trkpt lat="46.0101" lon="4.76064">
        <ele>211</ele>
        <time>2018-01-05T11:34:03Z</time>
      </trkpt>
      <trkpt lat="46.01004" lon="4.76065">
        <ele>211</ele>
        <time>2018-01-05T11:34:05Z</time>
      </trkpt>
      <trkpt lat="46.01" lon="4.76066">
        <ele>211</ele>
        <time>2018-01-05T11:34:06Z</time>
      </trkpt>
      <trkpt lat="46.00994" lon="4.76068">
        <ele>212</ele>
        <time>2018-01-05T11:34:08Z</time>
      </trkpt>
      <trkpt lat="46.00991" lon="4.76068">
        <ele>212</ele>
        <time>2018-01-05T11:34:09Z</time>
      </trkpt>
      <trkpt lat="46.00984" lon="4.76067">
        <ele>212</ele>
        <time>2018-01-05T11:34:11Z</time>
      </trkpt>
      <trkpt lat="46.00981" lon="4.76067">
        <ele>212</ele>
        <time>2018-01-05T11:34:12Z</time>
      </trkpt>
      <trkpt lat="46.00987" lon="4.76058">
        <ele>212</ele>
        <time>2018-01-05T11:34:52Z</time>
      </trkpt>
      <trkpt lat="46.00988" lon="4.76058">
        <ele>212</ele>
        <time>2018-01-05T11:34:53Z</time>
      </trkpt>
      <trkpt lat="46.0098" lon="4.76063">
        <ele>212</ele>
        <time>2018-01-05T11:36:47Z</time>
      </trkpt>
      <trkpt lat="46.00979" lon="4.76063">
        <ele>212</ele>
        <time>2018-01-05T11:36:48Z</time>
      </trkpt>
      <trkpt lat="46.00971" lon="4.76066">
        <ele>212</ele>
        <time>2018-01-05T11:37:10Z</time>
      </trkpt>
      <trkpt lat="46.0097" lon="4.76067">
        <ele>212</ele>
        <time>2018-01-05T11:37:11Z</time>
      </trkpt>
      <trkpt lat="46.00962" lon="4.76074">
        <ele>212</ele>
        <time>2018-01-05T11:37:17Z</time>
      </trkpt>
      <trkpt lat="46.0096" lon="4.76075">
        <ele>212</ele>
        <time>2018-01-05T11:37:18Z</time>
      </trkpt>
      <trkpt lat="46.00952" lon="4.76077">
        <ele>212</ele>
        <time>2018-01-05T11:37:21Z</time>
      </trkpt>
      <trkpt lat="46.00949" lon="4.76078">
        <ele>212</ele>
        <time>2018-01-05T11:37:22Z</time>
      </trkpt>
      <trkpt lat="46.00943" lon="4.76079">
        <ele>212</ele>
        <time>2018-01-05T11:37:24Z</time>
      </trkpt>
      <trkpt lat="46.00939" lon="4.7608">
        <ele>212</ele>
        <time>2018-01-05T11:37:25Z</time>
      </trkpt>
      <trkpt lat="46.00932" lon="4.76081">
        <ele>212</ele>
        <time>2018-01-05T11:37:27Z</time>
      </trkpt>
      <trkpt lat="46.00928" lon="4.76082">
        <ele>213</ele>
        <time>2018-01-05T11:37:28Z</time>
      </trkpt>
      <trkpt lat="46.0092" lon="4.76083">
        <ele>213</ele>
        <time>2018-01-05T11:37:30Z</time>
      </trkpt>
      <trkpt lat="46.00917" lon="4.76084">
        <ele>213</ele>
        <time>2018-01-05T11:37:31Z</time>
      </trkpt>
      <trkpt lat="46.0091" lon="4.76086">
        <ele>214</ele>
        <time>2018-01-05T11:37:33Z</time>
      </trkpt>
      <trkpt lat="46.00907" lon="4.76087">
        <ele>214</ele>
        <time>2018-01-05T11:37:34Z</time>
      </trkpt>
      <trkpt lat="46.00901" lon="4.76088">
        <ele>214</ele>
        <time>2018-01-05T11:37:36Z</time>
      </trkpt>
      <trkpt lat="46.00897" lon="4.76089">
        <ele>214</ele>
        <time>2018-01-05T11:37:37Z</time>
      </trkpt>
      <trkpt lat="46.00891" lon="4.76091">
        <ele>215</ele>
        <time>2018-01-05T11:37:39Z</time>
      </trkpt>
      <trkpt lat="46.00887" lon="4.76092">
        <ele>215</ele>
        <time>2018-01-05T11:37:40Z</time>
      </trkpt>
      <trkpt lat="46.0088" lon="4.76094">
        <ele>215</ele>
        <time>2018-01-05T11:37:42Z</time>
      </trkpt>
      <trkpt lat="46.00877" lon="4.76095">
        <ele>215</ele>
        <time>2018-01-05T11:37:43Z</time>
      </trkpt>
      <trkpt lat="46.0087" lon="4.76096">
        <ele>215</ele>
        <time>2018-01-05T11:37:45Z</time>
      </trkpt>
      <trkpt lat="46.00866" lon="4.76097">
        <ele>215</ele>
        <time>2018-01-05T11:37:46Z</time>
      </trkpt>
      <trkpt lat="46.00859" lon="4.76099">
        <ele>215</ele>
        <time>2018-01-05T11:37:48Z</time>
      </trkpt>
      <trkpt lat="46.00856" lon="4.761">
        <ele>215</ele>
        <time>2018-01-05T11:37:49Z</time>
      </trkpt>
      <trkpt lat="46.00848" lon="4.76101">
        <ele>216</ele>
        <time>2018-01-05T11:37:53Z</time>
      </trkpt>
      <trkpt lat="46.00846" lon="4.76101">
        <ele>216</ele>
        <time>2018-01-05T11:37:54Z</time>
      </trkpt>
      <trkpt lat="46.00839" lon="4.76103">
        <ele>216</ele>
        <time>2018-01-05T11:37:58Z</time>
      </trkpt>
      <trkpt lat="46.00837" lon="4.76103">
        <ele>216</ele>
        <time>2018-01-05T11:37:59Z</time>
      </trkpt>
      <trkpt lat="46.00828" lon="4.76104">
        <ele>217</ele>
        <time>2018-01-05T11:38:03Z</time>
      </trkpt>
      <trkpt lat="46.00826" lon="4.76104">
        <ele>218</ele>
        <time>2018-01-05T11:38:04Z</time>
      </trkpt>
      <trkpt lat="46.00818" lon="4.76106">
        <ele>218</ele>
        <time>2018-01-05T11:38:07Z</time>
      </trkpt>
      <trkpt lat="46.00815" lon="4.76106">
        <ele>218</ele>
        <time>2018-01-05T11:38:08Z</time>
      </trkpt>
      <trkpt lat="46.00807" lon="4.76104">
        <ele>218</ele>
        <time>2018-01-05T11:38:11Z</time>
      </trkpt>
      <trkpt lat="46.00804" lon="4.76105">
        <ele>218</ele>
        <time>2018-01-05T11:38:12Z</time>
      </trkpt>
      <trkpt lat="46.00795" lon="4.76106">
        <ele>218</ele>
        <time>2018-01-05T11:38:15Z</time>
      </trkpt>
      <trkpt lat="46.00793" lon="4.76106">
        <ele>219</ele>
        <time>2018-01-05T11:38:16Z</time>
      </trkpt>
      <trkpt lat="46.00785" lon="4.76107">
        <ele>219</ele>
        <time>2018-01-05T11:38:19Z</time>
      </trkpt>
      <trkpt lat="46.00782" lon="4.76107">
        <ele>219</ele>
        <time>2018-01-05T11:38:20Z</time>
      </trkpt>
      <trkpt lat="46.00773" lon="4.76109">
        <ele>219</ele>
        <time>2018-01-05T11:38:23Z</time>
      </trkpt>
      <trkpt lat="46.00771" lon="4.76109">
        <ele>219</ele>
        <time>2018-01-05T11:38:24Z</time>
      </trkpt>
      <trkpt lat="46.00762" lon="4.76111">
        <ele>219</ele>
        <time>2018-01-05T11:38:27Z</time>
      </trkpt>
      <trkpt lat="46.00759" lon="4.76112">
        <ele>219</ele>
        <time>2018-01-05T11:38:28Z</time>
      </trkpt>
      <trkpt lat="46.00751" lon="4.76112">
        <ele>219</ele>
        <time>2018-01-05T11:38:31Z</time>
      </trkpt>
      <trkpt lat="46.00749" lon="4.76111">
        <ele>223</ele>
        <time>2018-01-05T11:38:32Z</time>
      </trkpt>
      <trkpt lat="46.00741" lon="4.76112">
        <ele>223</ele>
        <time>2018-01-05T11:38:35Z</time>
      </trkpt>
      <trkpt lat="46.00739" lon="4.76113">
        <ele>223</ele>
        <time>2018-01-05T11:38:36Z</time>
      </trkpt>
      <trkpt lat="46.00732" lon="4.76114">
        <ele>223</ele>
        <time>2018-01-05T11:38:39Z</time>
      </trkpt>
      <trkpt lat="46.00729" lon="4.76113">
        <ele>223</ele>
        <time>2018-01-05T11:38:40Z</time>
      </trkpt>
      <trkpt lat="46.00722" lon="4.76113">
        <ele>224</ele>
        <time>2018-01-05T11:38:43Z</time>
      </trkpt>
      <trkpt lat="46.0072" lon="4.76113">
        <ele>224</ele>
        <time>2018-01-05T11:38:44Z</time>
      </trkpt>
      <trkpt lat="46.00713" lon="4.76114">
        <ele>224</ele>
        <time>2018-01-05T11:38:47Z</time>
      </trkpt>
      <trkpt lat="46.00711" lon="4.76113">
        <ele>224</ele>
        <time>2018-01-05T11:38:48Z</time>
      </trkpt>
      <trkpt lat="46.00702" lon="4.76113">
        <ele>225</ele>
        <time>2018-01-05T11:38:52Z</time>
      </trkpt>
      <trkpt lat="46.007" lon="4.76113">
        <ele>225</ele>
        <time>2018-01-05T11:38:53Z</time>
      </trkpt>
      <trkpt lat="46.00692" lon="4.76116">
        <ele>225</ele>
        <time>2018-01-05T11:38:58Z</time>
      </trkpt>
      <trkpt lat="46.0069" lon="4.76117">
        <ele>225</ele>
        <time>2018-01-05T11:38:59Z</time>
      </trkpt>
      <trkpt lat="46.00682" lon="4.76118">
        <ele>225</ele>
        <time>2018-01-05T11:39:03Z</time>
      </trkpt>
      <trkpt lat="46.00681" lon="4.76118">
        <ele>225</ele>
        <time>2018-01-05T11:39:04Z</time>
      </trkpt>
      <trkpt lat="46.00673" lon="4.76118">
        <ele>226</ele>
        <time>2018-01-05T11:39:08Z</time>
      </trkpt>
      <trkpt lat="46.00671" lon="4.76118">
        <ele>226</ele>
        <time>2018-01-05T11:39:09Z</time>
      </trkpt>
      <trkpt lat="46.00663" lon="4.76121">
        <ele>228</ele>
        <time>2018-01-05T11:39:13Z</time>
      </trkpt>
      <trkpt lat="46.00662" lon="4.76122">
        <ele>228</ele>
        <time>2018-01-05T11:39:14Z</time>
      </trkpt>
      <trkpt lat="46.00654" lon="4.76122">
        <ele>228</ele>
        <time>2018-01-05T11:39:18Z</time>
      </trkpt>
      <trkpt lat="46.00652" lon="4.76121">
        <ele>228</ele>
        <time>2018-01-05T11:39:19Z</time>
      </trkpt>
      <trkpt lat="46.00644" lon="4.76118">
        <ele>228</ele>
        <time>2018-01-05T11:39:25Z</time>
      </trkpt>
      <trkpt lat="46.00643" lon="4.76117">
        <ele>228</ele>
        <time>2018-01-05T11:39:26Z</time>
      </trkpt>
      <trkpt lat="46.00636" lon="4.7611">
        <ele>228</ele>
        <time>2018-01-05T11:39:30Z</time>
      </trkpt>
      <trkpt lat="46.00634" lon="4.7611">
        <ele>228</ele>
        <time>2018-01-05T11:39:31Z</time>
      </trkpt>
      <trkpt lat="46.00627" lon="4.76114">
        <ele>228</ele>
        <time>2018-01-05T11:39:34Z</time>
      </trkpt>
      <trkpt lat="46.00626" lon="4.76117">
        <ele>228</ele>
        <time>2018-01-05T11:39:35Z</time>
      </trkpt>
      <trkpt lat="46.00623" lon="4.76128">
        <ele>228</ele>
        <time>2018-01-05T11:39:38Z</time>
      </trkpt>
      <trkpt lat="46.00624" lon="4.76132">
        <ele>228</ele>
        <time>2018-01-05T11:39:39Z</time>
      </trkpt>
      <trkpt lat="46.00624" lon="4.76143">
        <ele>228</ele>
        <time>2018-01-05T11:39:42Z</time>
      </trkpt>
      <trkpt lat="46.00624" lon="4.76146">
        <ele>228</ele>
        <time>2018-01-05T11:39:43Z</time>
      </trkpt>
      <trkpt lat="46.00624" lon="4.76158">
        <ele>228</ele>
        <time>2018-01-05T11:39:46Z</time>
      </trkpt>
      <trkpt lat="46.00624" lon="4.76162">
        <ele>228</ele>
        <time>2018-01-05T11:39:47Z</time>
      </trkpt>
      <trkpt lat="46.00623" lon="4.76175">
        <ele>230</ele>
        <time>2018-01-05T11:39:50Z</time>
      </trkpt>
      <trkpt lat="46.00623" lon="4.7618">
        <ele>230</ele>
        <time>2018-01-05T11:39:51Z</time>
      </trkpt>
      <trkpt lat="46.00623" lon="4.76189">
        <ele>230</ele>
        <time>2018-01-05T11:39:53Z</time>
      </trkpt>
      <trkpt lat="46.00622" lon="4.76193">
        <ele>230</ele>
        <time>2018-01-05T11:39:54Z</time>
      </trkpt>
      <trkpt lat="46.00617" lon="4.76203">
        <ele>230</ele>
        <time>2018-01-05T11:39:57Z</time>
      </trkpt>
      <trkpt lat="46.00613" lon="4.76204">
        <ele>230</ele>
        <time>2018-01-05T11:39:58Z</time>
      </trkpt>
      <trkpt lat="46.00606" lon="4.76204">
        <ele>230</ele>
        <time>2018-01-05T11:40:00Z</time>
      </trkpt>
      <trkpt lat="46.00602" lon="4.76202">
        <ele>230</ele>
        <time>2018-01-05T11:40:01Z</time>
      </trkpt>
      <trkpt lat="46.00598" lon="4.762">
        <ele>230</ele>
        <time>2018-01-05T11:40:02Z</time>
      </trkpt>
      <trkpt lat="46.00593" lon="4.76197">
        <ele>230</ele>
        <time>2018-01-05T11:40:03Z</time>
      </trkpt>
      <trkpt lat="46.00588" lon="4.76193">
        <ele>230</ele>
        <time>2018-01-05T11:40:04Z</time>
      </trkpt>
      <trkpt lat="46.00582" lon="4.76191">
        <ele>231</ele>
        <time>2018-01-05T11:40:05Z</time>
      </trkpt>
      <trkpt lat="46.00577" lon="4.7619">
        <ele>231</ele>
        <time>2018-01-05T11:40:06Z</time>
      </trkpt>
      <trkpt lat="46.00571" lon="4.76188">
        <ele>230</ele>
        <time>2018-01-05T11:40:07Z</time>
      </trkpt>
      <trkpt lat="46.00566" lon="4.76187">
        <ele>230</ele>
        <time>2018-01-05T11:40:08Z</time>
      </trkpt>
      <trkpt lat="46.0056" lon="4.76185">
        <ele>230</ele>
        <time>2018-01-05T11:40:09Z</time>
      </trkpt>
      <trkpt lat="46.00554" lon="4.76182">
        <ele>230</ele>
        <time>2018-01-05T11:40:10Z</time>
      </trkpt>
      <trkpt lat="46.00548" lon="4.76179">
        <ele>230</ele>
        <time>2018-01-05T11:40:11Z</time>
      </trkpt>
      <trkpt lat="46.00541" lon="4.76176">
        <ele>230</ele>
        <time>2018-01-05T11:40:12Z</time>
      </trkpt>
      <trkpt lat="46.00534" lon="4.76171">
        <ele>230</ele>
        <time>2018-01-05T11:40:13Z</time>
      </trkpt>
      <trkpt lat="46.00527" lon="4.76167">
        <ele>228</ele>
        <time>2018-01-05T11:40:14Z</time>
      </trkpt>
      <trkpt lat="46.00521" lon="4.7616">
        <ele>228</ele>
        <time>2018-01-05T11:40:15Z</time>
      </trkpt>
      <trkpt lat="46.00515" lon="4.76154">
        <ele>228</ele>
        <time>2018-01-05T11:40:16Z</time>
      </trkpt>
      <trkpt lat="46.00509" lon="4.76148">
        <ele>228</ele>
        <time>2018-01-05T11:40:17Z</time>
      </trkpt>
      <trkpt lat="46.00501" lon="4.76142">
        <ele>228</ele>
        <time>2018-01-05T11:40:18Z</time>
      </trkpt>
      <trkpt lat="46.00495" lon="4.76134">
        <ele>228</ele>
        <time>2018-01-05T11:40:19Z</time>
      </trkpt>
      <trkpt lat="46.00489" lon="4.76127">
        <ele>227</ele>
        <time>2018-01-05T11:40:20Z</time>
      </trkpt>
      <trkpt lat="46.00481" lon="4.7612">
        <ele>227</ele>
        <time>2018-01-05T11:40:21Z</time>
      </trkpt>
      <trkpt lat="46.00475" lon="4.76113">
        <ele>227</ele>
        <time>2018-01-05T11:40:22Z</time>
      </trkpt>
      <trkpt lat="46.00468" lon="4.76106">
        <ele>227</ele>
        <time>2018-01-05T11:40:23Z</time>
      </trkpt>
      <trkpt lat="46.0046" lon="4.761">
        <ele>227</ele>
        <time>2018-01-05T11:40:24Z</time>
      </trkpt>
      <trkpt lat="46.00453" lon="4.76093">
        <ele>227</ele>
        <time>2018-01-05T11:40:25Z</time>
      </trkpt>
      <trkpt lat="46.00447" lon="4.76088">
        <ele>227</ele>
        <time>2018-01-05T11:40:26Z</time>
      </trkpt>
      <trkpt lat="46.00439" lon="4.76084">
        <ele>227</ele>
        <time>2018-01-05T11:40:27Z</time>
      </trkpt>
      <trkpt lat="46.0043" lon="4.7608">
        <ele>225</ele>
        <time>2018-01-05T11:40:28Z</time>
      </trkpt>
      <trkpt lat="46.00421" lon="4.76077">
        <ele>225</ele>
        <time>2018-01-05T11:40:29Z</time>
      </trkpt>
      <trkpt lat="46.00413" lon="4.76075">
        <ele>226</ele>
        <time>2018-01-05T11:40:30Z</time>
      </trkpt>
      <trkpt lat="46.00404" lon="4.76074">
        <ele>226</ele>
        <time>2018-01-05T11:40:31Z</time>
      </trkpt>
      <trkpt lat="46.00396" lon="4.76074">
        <ele>226</ele>
        <time>2018-01-05T11:40:32Z</time>
      </trkpt>
      <trkpt lat="46.00389" lon="4.76074">
        <ele>226</ele>
        <time>2018-01-05T11:40:33Z</time>
      </trkpt>
      <trkpt lat="46.00383" lon="4.76074">
        <ele>226</ele>
        <time>2018-01-05T11:40:34Z</time>
      </trkpt>
      <trkpt lat="46.00377" lon="4.76073">
        <ele>226</ele>
        <time>2018-01-05T11:40:35Z</time>
      </trkpt>
      <trkpt lat="46.00373" lon="4.76068">
        <ele>226</ele>
        <time>2018-01-05T11:40:36Z</time>
      </trkpt>
      <trkpt lat="46.0037" lon="4.76062">
        <ele>226</ele>
        <time>2018-01-05T11:40:37Z</time>
      </trkpt>
      <trkpt lat="46.00369" lon="4.76053">
        <ele>226</ele>
        <time>2018-01-05T11:40:38Z</time>
      </trkpt>
      <trkpt lat="46.00371" lon="4.76046">
        <ele>225</ele>
        <time>2018-01-05T11:40:39Z</time>
      </trkpt>
      <trkpt lat="46.00374" lon="4.7604">
        <ele>225</ele>
        <time>2018-01-05T11:40:40Z</time>
      </trkpt>
      <trkpt lat="46.00378" lon="4.76036">
        <ele>225</ele>
        <time>2018-01-05T11:40:41Z</time>
      </trkpt>
      <trkpt lat="46.00384" lon="4.7603">
        <ele>225</ele>
        <time>2018-01-05T11:40:42Z</time>
      </trkpt>
      <trkpt lat="46.00393" lon="4.76021">
        <ele>224</ele>
        <time>2018-01-05T11:40:43Z</time>
      </trkpt>
      <trkpt lat="46.00399" lon="4.76018">
        <ele>224</ele>
        <time>2018-01-05T11:40:44Z</time>
      </trkpt>
      <trkpt lat="46.00406" lon="4.76013">
        <ele>223</ele>
        <time>2018-01-05T11:40:45Z</time>
      </trkpt>
      <trkpt lat="46.00412" lon="4.76008">
        <ele>222</ele>
        <time>2018-01-05T11:40:46Z</time>
      </trkpt>
      <trkpt lat="46.00422" lon="4.76">
        <ele>221</ele>
        <time>2018-01-05T11:40:47Z</time>
      </trkpt>
      <trkpt lat="46.00427" lon="4.75995">
        <ele>220</ele>
        <time>2018-01-05T11:40:48Z</time>
      </trkpt>
      <trkpt lat="46.00433" lon="4.75988">
        <ele>220</ele>
        <time>2018-01-05T11:40:49Z</time>
      </trkpt>
      <trkpt lat="46.0044" lon="4.75979">
        <ele>219</ele>
        <time>2018-01-05T11:40:50Z</time>
      </trkpt>
      <trkpt lat="46.00444" lon="4.75972">
        <ele>219</ele>
        <time>2018-01-05T11:40:51Z</time>
      </trkpt>
      <trkpt lat="46.00447" lon="4.7596">
        <ele>219</ele>
        <time>2018-01-05T11:40:52Z</time>
      </trkpt>
      <trkpt lat="46.00449" lon="4.75948">
        <ele>219</ele>
        <time>2018-01-05T11:40:53Z</time>
      </trkpt>
      <trkpt lat="46.00449" lon="4.75935">
        <ele>218</ele>
        <time>2018-01-05T11:40:54Z</time>
      </trkpt>
      <trkpt lat="46.00444" lon="4.75926">
        <ele>218</ele>
        <time>2018-01-05T11:40:55Z</time>
      </trkpt>
      <trkpt lat="46.0044" lon="4.75915">
        <ele>217</ele>
        <time>2018-01-05T11:40:56Z</time>
      </trkpt>
      <trkpt lat="46.00434" lon="4.75906">
        <ele>217</ele>
        <time>2018-01-05T11:40:57Z</time>
      </trkpt>
      <trkpt lat="46.00431" lon="4.75894">
        <ele>217</ele>
        <time>2018-01-05T11:40:58Z</time>
      </trkpt>
      <trkpt lat="46.00426" lon="4.75884">
        <ele>217</ele>
        <time>2018-01-05T11:40:59Z</time>
      </trkpt>
      <trkpt lat="46.00419" lon="4.75874">
        <ele>217</ele>
        <time>2018-01-05T11:41:00Z</time>
      </trkpt>
      <trkpt lat="46.00414" lon="4.75863">
        <ele>215</ele>
        <time>2018-01-05T11:41:01Z</time>
      </trkpt>
      <trkpt lat="46.00408" lon="4.75854">
        <ele>215</ele>
        <time>2018-01-05T11:41:02Z</time>
      </trkpt>
      <trkpt lat="46.00403" lon="4.75842">
        <ele>214</ele>
        <time>2018-01-05T11:41:03Z</time>
      </trkpt>
      <trkpt lat="46.00397" lon="4.75832">
        <ele>213</ele>
        <time>2018-01-05T11:41:04Z</time>
      </trkpt>
      <trkpt lat="46.00391" lon="4.75822">
        <ele>213</ele>
        <time>2018-01-05T11:41:05Z</time>
      </trkpt>
      <trkpt lat="46.00386" lon="4.75812">
        <ele>213</ele>
        <time>2018-01-05T11:41:06Z</time>
      </trkpt>
      <trkpt lat="46.0038" lon="4.75803">
        <ele>213</ele>
        <time>2018-01-05T11:41:07Z</time>
      </trkpt>
      <trkpt lat="46.00373" lon="4.75794">
        <ele>213</ele>
        <time>2018-01-05T11:41:08Z</time>
      </trkpt>
      <trkpt lat="46.00367" lon="4.75784">
        <ele>213</ele>
        <time>2018-01-05T11:41:09Z</time>
      </trkpt>
      <trkpt lat="46.0036" lon="4.75774">
        <ele>212</ele>
        <time>2018-01-05T11:41:10Z</time>
      </trkpt>
      <trkpt lat="46.00355" lon="4.75764">
        <ele>212</ele>
        <time>2018-01-05T11:41:11Z</time>
      </trkpt>
      <trkpt lat="46.00349" lon="4.75752">
        <ele>211</ele>
        <time>2018-01-05T11:41:12Z</time>
      </trkpt>
      <trkpt lat="46.00344" lon="4.75743">
        <ele>210</ele>
        <time>2018-01-05T11:41:13Z</time>
      </trkpt>
      <trkpt lat="46.00338" lon="4.75734">
        <ele>210</ele>
        <time>2018-01-05T11:41:14Z</time>
      </trkpt>
      <trkpt lat="46.00331" lon="4.75724">
        <ele>208</ele>
        <time>2018-01-05T11:41:15Z</time>
      </trkpt>
      <trkpt lat="46.00324" lon="4.75713">
        <ele>208</ele>
        <time>2018-01-05T11:41:16Z</time>
      </trkpt>
      <trkpt lat="46.00316" lon="4.75704">
        <ele>208</ele>
        <time>2018-01-05T11:41:17Z</time>
      </trkpt>
      <trkpt lat="46.00309" lon="4.75693">
        <ele>208</ele>
        <time>2018-01-05T11:41:18Z</time>
      </trkpt>
      <trkpt lat="46.00302" lon="4.75683">
        <ele>208</ele>
        <time>2018-01-05T11:41:19Z</time>
      </trkpt>
      <trkpt lat="46.00294" lon="4.75672">
        <ele>208</ele>
        <time>2018-01-05T11:41:20Z</time>
      </trkpt>
      <trkpt lat="46.00287" lon="4.75662">
        <ele>207</ele>
        <time>2018-01-05T11:41:21Z</time>
      </trkpt>
      <trkpt lat="46.00282" lon="4.7565">
        <ele>207</ele>
        <time>2018-01-05T11:41:22Z</time>
      </trkpt>
      <trkpt lat="46.00275" lon="4.7564">
        <ele>207</ele>
        <time>2018-01-05T11:41:23Z</time>
      </trkpt>
      <trkpt lat="46.00268" lon="4.75629">
        <ele>206</ele>
        <time>2018-01-05T11:41:24Z</time>
      </trkpt>
      <trkpt lat="46.0026" lon="4.75619">
        <ele>206</ele>
        <time>2018-01-05T11:41:25Z</time>
      </trkpt>
      <trkpt lat="46.00253" lon="4.75607">
        <ele>205</ele>
        <time>2018-01-05T11:41:26Z</time>
      </trkpt>
      <trkpt lat="46.00246" lon="4.75597">
        <ele>209</ele>
        <time>2018-01-05T11:41:27Z</time>
      </trkpt>
      <trkpt lat="46.00239" lon="4.75586">
        <ele>208</ele>
        <time>2018-01-05T11:41:28Z</time>
      </trkpt>
      <trkpt lat="46.00233" lon="4.75573">
        <ele>206</ele>
        <time>2018-01-05T11:41:29Z</time>
      </trkpt>
      <trkpt lat="46.00227" lon="4.75559">
        <ele>206</ele>
        <time>2018-01-05T11:41:30Z</time>
      </trkpt>
      <trkpt lat="46.00222" lon="4.75545">
        <ele>206</ele>
        <time>2018-01-05T11:41:31Z</time>
      </trkpt>
      <trkpt lat="46.00218" lon="4.75531">
        <ele>205</ele>
        <time>2018-01-05T11:41:32Z</time>
      </trkpt>
      <trkpt lat="46.00217" lon="4.75517">
        <ele>204</ele>
        <time>2018-01-05T11:41:33Z</time>
      </trkpt>
      <trkpt lat="46.00217" lon="4.75502">
        <ele>203</ele>
        <time>2018-01-05T11:41:34Z</time>
      </trkpt>
      <trkpt lat="46.00215" lon="4.75486">
        <ele>198</ele>
        <time>2018-01-05T11:41:35Z</time>
      </trkpt>
      <trkpt lat="46.00214" lon="4.75469">
        <ele>198</ele>
        <time>2018-01-05T11:41:36Z</time>
      </trkpt>
      <trkpt lat="46.00215" lon="4.75455">
        <ele>197</ele>
        <time>2018-01-05T11:41:37Z</time>
      </trkpt>
      <trkpt lat="46.00215" lon="4.7544">
        <ele>197</ele>
        <time>2018-01-05T11:41:38Z</time>
      </trkpt>
      <trkpt lat="46.00214" lon="4.75424">
        <ele>196</ele>
        <time>2018-01-05T11:41:39Z</time>
      </trkpt>
      <trkpt lat="46.00212" lon="4.75409">
        <ele>192</ele>
        <time>2018-01-05T11:41:40Z</time>
      </trkpt>
      <trkpt lat="46.00212" lon="4.75394">
        <ele>192</ele>
        <time>2018-01-05T11:41:41Z</time>
      </trkpt>
      <trkpt lat="46.00213" lon="4.75377">
        <ele>191</ele>
        <time>2018-01-05T11:41:42Z</time>
      </trkpt>
      <trkpt lat="46.00213" lon="4.75361">
        <ele>191</ele>
        <time>2018-01-05T11:41:43Z</time>
      </trkpt>
      <trkpt lat="46.00214" lon="4.75346">
        <ele>190</ele>
        <time>2018-01-05T11:41:44Z</time>
      </trkpt>
      <trkpt lat="46.00214" lon="4.75331">
        <ele>186</ele>
        <time>2018-01-05T11:41:45Z</time>
      </trkpt>
      <trkpt lat="46.00214" lon="4.75315">
        <ele>186</ele>
        <time>2018-01-05T11:41:46Z</time>
      </trkpt>
      <trkpt lat="46.00213" lon="4.753">
        <ele>185</ele>
        <time>2018-01-05T11:41:47Z</time>
      </trkpt>
      <trkpt lat="46.00212" lon="4.75283">
        <ele>185</ele>
        <time>2018-01-05T11:41:48Z</time>
      </trkpt>
      <trkpt lat="46.00211" lon="4.75267">
        <ele>184</ele>
        <time>2018-01-05T11:41:49Z</time>
      </trkpt>
      <trkpt lat="46.00211" lon="4.75251">
        <ele>184</ele>
        <time>2018-01-05T11:41:50Z</time>
      </trkpt>
      <trkpt lat="46.00211" lon="4.75235">
        <ele>180</ele>
        <time>2018-01-05T11:41:51Z</time>
      </trkpt>
      <trkpt lat="46.00211" lon="4.75219">
        <ele>180</ele>
        <time>2018-01-05T11:41:52Z</time>
      </trkpt>
      <trkpt lat="46.00211" lon="4.75204">
        <ele>179</ele>
        <time>2018-01-05T11:41:53Z</time>
      </trkpt>
      <trkpt lat="46.00211" lon="4.75191">
        <ele>179</ele>
        <time>2018-01-05T11:41:54Z</time>
      </trkpt>
      <trkpt lat="46.00211" lon="4.75179">
        <ele>179</ele>
        <time>2018-01-05T11:41:55Z</time>
      </trkpt>
      <trkpt lat="46.00211" lon="4.75169">
        <ele>179</ele>
        <time>2018-01-05T11:41:56Z</time>
      </trkpt>
      <trkpt lat="46.00211" lon="4.7516">
        <ele>177</ele>
        <time>2018-01-05T11:41:57Z</time>
      </trkpt>
      <trkpt lat="46.00211" lon="4.75152">
        <ele>177</ele>
        <time>2018-01-05T11:41:58Z</time>
      </trkpt>
      <trkpt lat="46.00211" lon="4.7514">
        <ele>176</ele>
        <time>2018-01-05T11:42:00Z</time>
      </trkpt>
      <trkpt lat="46.00211" lon="4.75135">
        <ele>176</ele>
        <time>2018-01-05T11:42:01Z</time>
      </trkpt>
      <trkpt lat="46.00212" lon="4.75126">
        <ele>176</ele>
        <time>2018-01-05T11:42:03Z</time>
      </trkpt>
      <trkpt lat="46.00213" lon="4.75122">
        <ele>176</ele>
        <time>2018-01-05T11:42:04Z</time>
      </trkpt>
      <trkpt lat="46.0021" lon="4.75111">
        <ele>176</ele>
        <time>2018-01-05T11:42:22Z</time>
      </trkpt>
      <trkpt lat="46.00207" lon="4.75111">
        <ele>176</ele>
        <time>2018-01-05T11:42:23Z</time>
      </trkpt>
      <trkpt lat="46.002" lon="4.75111">
        <ele>176</ele>
        <time>2018-01-05T11:42:25Z</time>
      </trkpt>
      <trkpt lat="46.00196" lon="4.75111">
        <ele>176</ele>
        <time>2018-01-05T11:42:26Z</time>
      </trkpt>
      <trkpt lat="46.00188" lon="4.75112">
        <ele>176</ele>
        <time>2018-01-05T11:42:28Z</time>
      </trkpt>
      <trkpt lat="46.00183" lon="4.75113">
        <ele>176</ele>
        <time>2018-01-05T11:42:29Z</time>
      </trkpt>
      <trkpt lat="46.00178" lon="4.75111">
        <ele>176</ele>
        <time>2018-01-05T11:42:30Z</time>
      </trkpt>
      <trkpt lat="46.00172" lon="4.75111">
        <ele>176</ele>
        <time>2018-01-05T11:42:31Z</time>
      </trkpt>
      <trkpt lat="46.00168" lon="4.75109">
        <ele>176</ele>
        <time>2018-01-05T11:42:32Z</time>
      </trkpt>
      <trkpt lat="46.00163" lon="4.75109">
        <ele>175</ele>
        <time>2018-01-05T11:42:33Z</time>
      </trkpt>
      <trkpt lat="46.00155" lon="4.75111">
        <ele>175</ele>
        <time>2018-01-05T11:42:35Z</time>
      </trkpt>
      <trkpt lat="46.0015" lon="4.75111">
        <ele>175</ele>
        <time>2018-01-05T11:42:36Z</time>
      </trkpt>
      <trkpt lat="46.00145" lon="4.75111">
        <ele>175</ele>
        <time>2018-01-05T11:42:37Z</time>
      </trkpt>
      <trkpt lat="46.00141" lon="4.7511">
        <ele>175</ele>
        <time>2018-01-05T11:42:38Z</time>
      </trkpt>
      <trkpt lat="46.00135" lon="4.75111">
        <ele>175</ele>
        <time>2018-01-05T11:42:39Z</time>
      </trkpt>
      <trkpt lat="46.0013" lon="4.75111">
        <ele>175</ele>
        <time>2018-01-05T11:42:40Z</time>
      </trkpt>
      <trkpt lat="46.00125" lon="4.7511">
        <ele>175</ele>
        <time>2018-01-05T11:42:41Z</time>
      </trkpt>
      <trkpt lat="46.0012" lon="4.75108">
        <ele>175</ele>
        <time>2018-01-05T11:42:42Z</time>
      </trkpt>
      <trkpt lat="46.00111" lon="4.75108">
        <ele>175</ele>
        <time>2018-01-05T11:42:44Z</time>
      </trkpt>
      <trkpt lat="46.00106" lon="4.75108">
        <ele>175</ele>
        <time>2018-01-05T11:42:45Z</time>
      </trkpt>
      <trkpt lat="46.00101" lon="4.75109">
        <ele>175</ele>
        <time>2018-01-05T11:42:46Z</time>
      </trkpt>
      <trkpt lat="46.00095" lon="4.7511">
        <ele>175</ele>
        <time>2018-01-05T11:42:47Z</time>
      </trkpt>
      <trkpt lat="46.0009" lon="4.75111">
        <ele>175</ele>
        <time>2018-01-05T11:42:48Z</time>
      </trkpt>
      <trkpt lat="46.00085" lon="4.7511">
        <ele>175</ele>
        <time>2018-01-05T11:42:49Z</time>
      </trkpt>
      <trkpt lat="46.00079" lon="4.75108">
        <ele>174</ele>
        <time>2018-01-05T11:42:50Z</time>
      </trkpt>
      <trkpt lat="46.00074" lon="4.75108">
        <ele>174</ele>
        <time>2018-01-05T11:42:51Z</time>
      </trkpt>
      <trkpt lat="46.00068" lon="4.75106">
        <ele>174</ele>
        <time>2018-01-05T11:42:52Z</time>
      </trkpt>
      <trkpt lat="46.00063" lon="4.75107">
        <ele>174</ele>
        <time>2018-01-05T11:42:53Z</time>
      </trkpt>
      <trkpt lat="46.00058" lon="4.75108">
        <ele>174</ele>
        <time>2018-01-05T11:42:54Z</time>
      </trkpt>
      <trkpt lat="46.00053" lon="4.75108">
        <ele>174</ele>
        <time>2018-01-05T11:42:55Z</time>
      </trkpt>
      <trkpt lat="46.00047" lon="4.75108">
        <ele>174</ele>
        <time>2018-01-05T11:42:56Z</time>
      </trkpt>
      <trkpt lat="46.00042" lon="4.75108">
        <ele>174</ele>
        <time>2018-01-05T11:42:57Z</time>
      </trkpt>
      <trkpt lat="46.00037" lon="4.75108">
        <ele>174</ele>
        <time>2018-01-05T11:42:58Z</time>
      </trkpt>
      <trkpt lat="46.00033" lon="4.75108">
        <ele>174</ele>
        <time>2018-01-05T11:42:59Z</time>
      </trkpt>
      <trkpt lat="46.00024" lon="4.75107">
        <ele>174</ele>
        <time>2018-01-05T11:43:01Z</time>
      </trkpt>
      <trkpt lat="46.00019" lon="4.75105">
        <ele>174</ele>
        <time>2018-01-05T11:43:02Z</time>
      </trkpt>
      <trkpt lat="46.00014" lon="4.75106">
        <ele>174</ele>
        <time>2018-01-05T11:43:03Z</time>
      </trkpt>
      <trkpt lat="46.00009" lon="4.75108">
        <ele>174</ele>
        <time>2018-01-05T11:43:04Z</time>
      </trkpt>
      <trkpt lat="46.00004" lon="4.7511">
        <ele>174</ele>
        <time>2018-01-05T11:43:05Z</time>
      </trkpt>
      <trkpt lat="45.99999" lon="4.75113">
        <ele>173</ele>
        <time>2018-01-05T11:43:06Z</time>
      </trkpt>
      <trkpt lat="45.99995" lon="4.75117">
        <ele>173</ele>
        <time>2018-01-05T11:43:07Z</time>
      </trkpt>
      <trkpt lat="45.99989" lon="4.75119">
        <ele>173</ele>
        <time>2018-01-05T11:43:08Z</time>
      </trkpt>
      <trkpt lat="45.99984" lon="4.75121">
        <ele>173</ele>
        <time>2018-01-05T11:43:09Z</time>
      </trkpt>
      <trkpt lat="45.99979" lon="4.75123">
        <ele>173</ele>
        <time>2018-01-05T11:43:10Z</time>
      </trkpt>
      <trkpt lat="45.99973" lon="4.75126">
        <ele>173</ele>
        <time>2018-01-05T11:43:11Z</time>
      </trkpt>
      <trkpt lat="45.99968" lon="4.75128">
        <ele>173</ele>
        <time>2018-01-05T11:43:12Z</time>
      </trkpt>
      <trkpt lat="45.99963" lon="4.7513">
        <ele>173</ele>
        <time>2018-01-05T11:43:13Z</time>
      </trkpt>
      <trkpt lat="45.99959" lon="4.75132">
        <ele>173</ele>
        <time>2018-01-05T11:43:14Z</time>
      </trkpt>
      <trkpt lat="45.99955" lon="4.75134">
        <ele>173</ele>
        <time>2018-01-05T11:43:15Z</time>
      </trkpt>
      <trkpt lat="45.9995" lon="4.75137">
        <ele>173</ele>
        <time>2018-01-05T11:43:16Z</time>
      </trkpt>
      <trkpt lat="45.99942" lon="4.75141">
        <ele>173</ele>
        <time>2018-01-05T11:43:18Z</time>
      </trkpt>
      <trkpt lat="45.99936" lon="4.75144">
        <ele>173</ele>
        <time>2018-01-05T11:43:19Z</time>
      </trkpt>
      <trkpt lat="45.99932" lon="4.75146">
        <ele>173</ele>
        <time>2018-01-05T11:43:20Z</time>
      </trkpt>
      <trkpt lat="45.99927" lon="4.7515">
        <ele>173</ele>
        <time>2018-01-05T11:43:21Z</time>
      </trkpt>
      <trkpt lat="45.99921" lon="4.75153">
        <ele>173</ele>
        <time>2018-01-05T11:43:22Z</time>
      </trkpt>
      <trkpt lat="45.99916" lon="4.75155">
        <ele>173</ele>
        <time>2018-01-05T11:43:23Z</time>
      </trkpt>
      <trkpt lat="45.9991" lon="4.75157">
        <ele>173</ele>
        <time>2018-01-05T11:43:24Z</time>
      </trkpt>
      <trkpt lat="45.99905" lon="4.75159">
        <ele>172</ele>
        <time>2018-01-05T11:43:25Z</time>
      </trkpt>
      <trkpt lat="45.99899" lon="4.75161">
        <ele>172</ele>
        <time>2018-01-05T11:43:26Z</time>
      </trkpt>
      <trkpt lat="45.99894" lon="4.75164">
        <ele>172</ele>
        <time>2018-01-05T11:43:27Z</time>
      </trkpt>
      <trkpt lat="45.99889" lon="4.75166">
        <ele>172</ele>
        <time>2018-01-05T11:43:28Z</time>
      </trkpt>
      <trkpt lat="45.99885" lon="4.75167">
        <ele>174</ele>
        <time>2018-01-05T11:43:29Z</time>
      </trkpt>
      <trkpt lat="45.99876" lon="4.7517">
        <ele>174</ele>
        <time>2018-01-05T11:43:31Z</time>
      </trkpt>
      <trkpt lat="45.99872" lon="4.75173">
        <ele>174</ele>
        <time>2018-01-05T11:43:32Z</time>
      </trkpt>
      <trkpt lat="45.99864" lon="4.75177">
        <ele>174</ele>
        <time>2018-01-05T11:43:34Z</time>
      </trkpt>
      <trkpt lat="45.9986" lon="4.7518">
        <ele>174</ele>
        <time>2018-01-05T11:43:35Z</time>
      </trkpt>
      <trkpt lat="45.99852" lon="4.75183">
        <ele>174</ele>
        <time>2018-01-05T11:43:37Z</time>
      </trkpt>
      <trkpt lat="45.99848" lon="4.75186">
        <ele>174</ele>
        <time>2018-01-05T11:43:38Z</time>
      </trkpt>
      <trkpt lat="45.99844" lon="4.75188">
        <ele>174</ele>
        <time>2018-01-05T11:43:39Z</time>
      </trkpt>
      <trkpt lat="45.99839" lon="4.7519">
        <ele>174</ele>
        <time>2018-01-05T11:43:40Z</time>
      </trkpt>
      <trkpt lat="45.9983" lon="4.75194">
        <ele>174</ele>
        <time>2018-01-05T11:43:42Z</time>
      </trkpt>
      <trkpt lat="45.99826" lon="4.75195">
        <ele>174</ele>
        <time>2018-01-05T11:43:43Z</time>
      </trkpt>
      <trkpt lat="45.99822" lon="4.75197">
        <ele>174</ele>
        <time>2018-01-05T11:43:44Z</time>
      </trkpt>
      <trkpt lat="45.99816" lon="4.75198">
        <ele>174</ele>
        <time>2018-01-05T11:43:45Z</time>
      </trkpt>
      <trkpt lat="45.99812" lon="4.75201">
        <ele>174</ele>
        <time>2018-01-05T11:43:46Z</time>
      </trkpt>
      <trkpt lat="45.99807" lon="4.75203">
        <ele>174</ele>
        <time>2018-01-05T11:43:47Z</time>
      </trkpt>
      <trkpt lat="45.99802" lon="4.75206">
        <ele>174</ele>
        <time>2018-01-05T11:43:48Z</time>
      </trkpt>
      <trkpt lat="45.99797" lon="4.75208">
        <ele>174</ele>
        <time>2018-01-05T11:43:49Z</time>
      </trkpt>
      <trkpt lat="45.99791" lon="4.7521">
        <ele>174</ele>
        <time>2018-01-05T11:43:50Z</time>
      </trkpt>
      <trkpt lat="45.99787" lon="4.75212">
        <ele>174</ele>
        <time>2018-01-05T11:43:51Z</time>
      </trkpt>
      <trkpt lat="45.99782" lon="4.75215">
        <ele>174</ele>
        <time>2018-01-05T11:43:52Z</time>
      </trkpt>
      <trkpt lat="45.99777" lon="4.75217">
        <ele>174</ele>
        <time>2018-01-05T11:43:53Z</time>
      </trkpt>
      <trkpt lat="45.99772" lon="4.7522">
        <ele>175</ele>
        <time>2018-01-05T11:43:54Z</time>
      </trkpt>
      <trkpt lat="45.99767" lon="4.75222">
        <ele>175</ele>
        <time>2018-01-05T11:43:55Z</time>
      </trkpt>
      <trkpt lat="45.99763" lon="4.75224">
        <ele>175</ele>
        <time>2018-01-05T11:43:56Z</time>
      </trkpt>
      <trkpt lat="45.99758" lon="4.75225">
        <ele>175</ele>
        <time>2018-01-05T11:43:57Z</time>
      </trkpt>
      <trkpt lat="45.9975" lon="4.75229">
        <ele>175</ele>
        <time>2018-01-05T11:43:59Z</time>
      </trkpt>
      <trkpt lat="45.99746" lon="4.75232">
        <ele>175</ele>
        <time>2018-01-05T11:44:00Z</time>
      </trkpt>
      <trkpt lat="45.99741" lon="4.75234">
        <ele>175</ele>
        <time>2018-01-05T11:44:01Z</time>
      </trkpt>
      <trkpt lat="45.99736" lon="4.75236">
        <ele>175</ele>
        <time>2018-01-05T11:44:02Z</time>
      </trkpt>
      <trkpt lat="45.99732" lon="4.75238">
        <ele>175</ele>
        <time>2018-01-05T11:44:03Z</time>
      </trkpt>
      <trkpt lat="45.99728" lon="4.7524">
        <ele>175</ele>
        <time>2018-01-05T11:44:04Z</time>
      </trkpt>
      <trkpt lat="45.99723" lon="4.75242">
        <ele>174</ele>
        <time>2018-01-05T11:44:05Z</time>
      </trkpt>
      <trkpt lat="45.99719" lon="4.75244">
        <ele>174</ele>
        <time>2018-01-05T11:44:06Z</time>
      </trkpt>
      <trkpt lat="45.99714" lon="4.75246">
        <ele>174</ele>
        <time>2018-01-05T11:44:07Z</time>
      </trkpt>
      <trkpt lat="45.9971" lon="4.75249">
        <ele>174</ele>
        <time>2018-01-05T11:44:08Z</time>
      </trkpt>
      <trkpt lat="45.99706" lon="4.75251">
        <ele>176</ele>
        <time>2018-01-05T11:44:09Z</time>
      </trkpt>
      <trkpt lat="45.99701" lon="4.75253">
        <ele>176</ele>
        <time>2018-01-05T11:44:10Z</time>
      </trkpt>
      <trkpt lat="45.99693" lon="4.75256">
        <ele>176</ele>
        <time>2018-01-05T11:44:12Z</time>
      </trkpt>
      <trkpt lat="45.99689" lon="4.75257">
        <ele>175</ele>
        <time>2018-01-05T11:44:13Z</time>
      </trkpt>
      <trkpt lat="45.99681" lon="4.7526">
        <ele>175</ele>
        <time>2018-01-05T11:44:15Z</time>
      </trkpt>
      <trkpt lat="45.99678" lon="4.75262">
        <ele>175</ele>
        <time>2018-01-05T11:44:16Z</time>
      </trkpt>
      <trkpt lat="45.9967" lon="4.75266">
        <ele>175</ele>
        <time>2018-01-05T11:44:18Z</time>
      </trkpt>
      <trkpt lat="45.99666" lon="4.75268">
        <ele>174</ele>
        <time>2018-01-05T11:44:19Z</time>
      </trkpt>
      <trkpt lat="45.99657" lon="4.7527">
        <ele>174</ele>
        <time>2018-01-05T11:44:21Z</time>
      </trkpt>
      <trkpt lat="45.99654" lon="4.75271">
        <ele>174</ele>
        <time>2018-01-05T11:44:22Z</time>
      </trkpt>
      <trkpt lat="45.99647" lon="4.75273">
        <ele>174</ele>
        <time>2018-01-05T11:44:24Z</time>
      </trkpt>
      <trkpt lat="45.99644" lon="4.75273">
        <ele>174</ele>
        <time>2018-01-05T11:44:25Z</time>
      </trkpt>
      <trkpt lat="45.99635" lon="4.75271">
        <ele>174</ele>
        <time>2018-01-05T11:44:28Z</time>
      </trkpt>
      <trkpt lat="45.99632" lon="4.75271">
        <ele>174</ele>
        <time>2018-01-05T11:44:29Z</time>
      </trkpt>
      <trkpt lat="45.99623" lon="4.75269">
        <ele>174</ele>
        <time>2018-01-05T11:44:32Z</time>
      </trkpt>
      <trkpt lat="45.9962" lon="4.75269">
        <ele>174</ele>
        <time>2018-01-05T11:44:33Z</time>
      </trkpt>
      <trkpt lat="45.99614" lon="4.75271">
        <ele>174</ele>
        <time>2018-01-05T11:44:35Z</time>
      </trkpt>
      <trkpt lat="45.99611" lon="4.75272">
        <ele>174</ele>
        <time>2018-01-05T11:44:36Z</time>
      </trkpt>
      <trkpt lat="45.99602" lon="4.75274">
        <ele>173</ele>
        <time>2018-01-05T11:44:39Z</time>
      </trkpt>
      <trkpt lat="45.99599" lon="4.75274">
        <ele>173</ele>
        <time>2018-01-05T11:44:40Z</time>
      </trkpt>
      <trkpt lat="45.99593" lon="4.75275">
        <ele>173</ele>
        <time>2018-01-05T11:44:42Z</time>
      </trkpt>
      <trkpt lat="45.9959" lon="4.75274">
        <ele>173</ele>
        <time>2018-01-05T11:44:43Z</time>
      </trkpt>
      <trkpt lat="45.99583" lon="4.7527">
        <ele>172</ele>
        <time>2018-01-05T11:44:45Z</time>
      </trkpt>
      <trkpt lat="45.9958" lon="4.75267">
        <ele>172</ele>
        <time>2018-01-05T11:44:46Z</time>
      </trkpt>
      <trkpt lat="45.99572" lon="4.75263">
        <ele>172</ele>
        <time>2018-01-05T11:44:48Z</time>
      </trkpt>
      <trkpt lat="45.99568" lon="4.75264">
        <ele>172</ele>
        <time>2018-01-05T11:44:49Z</time>
      </trkpt>
      <trkpt lat="45.9956" lon="4.75268">
        <ele>172</ele>
        <time>2018-01-05T11:44:51Z</time>
      </trkpt>
      <trkpt lat="45.99556" lon="4.75271">
        <ele>172</ele>
        <time>2018-01-05T11:44:52Z</time>
      </trkpt>
      <trkpt lat="45.9955" lon="4.75279">
        <ele>172</ele>
        <time>2018-01-05T11:44:54Z</time>
      </trkpt>
      <trkpt lat="45.99546" lon="4.75283">
        <ele>172</ele>
        <time>2018-01-05T11:44:55Z</time>
      </trkpt>
      <trkpt lat="45.99539" lon="4.7529">
        <ele>172</ele>
        <time>2018-01-05T11:44:57Z</time>
      </trkpt>
      <trkpt lat="45.99535" lon="4.75292">
        <ele>172</ele>
        <time>2018-01-05T11:44:58Z</time>
      </trkpt>
      <trkpt lat="45.99527" lon="4.75295">
        <ele>172</ele>
        <time>2018-01-05T11:45:00Z</time>
      </trkpt>
      <trkpt lat="45.99523" lon="4.75296">
        <ele>172</ele>
        <time>2018-01-05T11:45:01Z</time>
      </trkpt>
      <trkpt lat="45.99519" lon="4.75296">
        <ele>172</ele>
        <time>2018-01-05T11:45:02Z</time>
      </trkpt>
      <trkpt lat="45.99514" lon="4.75296">
        <ele>172</ele>
        <time>2018-01-05T11:45:03Z</time>
      </trkpt>
      <trkpt lat="45.99509" lon="4.75298">
        <ele>172</ele>
        <time>2018-01-05T11:45:04Z</time>
      </trkpt>
      <trkpt lat="45.99504" lon="4.753">
        <ele>172</ele>
        <time>2018-01-05T11:45:05Z</time>
      </trkpt>
      <trkpt lat="45.995" lon="4.75301">
        <ele>171</ele>
        <time>2018-01-05T11:45:06Z</time>
      </trkpt>
      <trkpt lat="45.99495" lon="4.75301">
        <ele>171</ele>
        <time>2018-01-05T11:45:07Z</time>
      </trkpt>
      <trkpt lat="45.99486" lon="4.75302">
        <ele>171</ele>
        <time>2018-01-05T11:45:09Z</time>
      </trkpt>
      <trkpt lat="45.99482" lon="4.75302">
        <ele>171</ele>
        <time>2018-01-05T11:45:10Z</time>
      </trkpt>
      <trkpt lat="45.99474" lon="4.75304">
        <ele>171</ele>
        <time>2018-01-05T11:45:12Z</time>
      </trkpt>
      <trkpt lat="45.9947" lon="4.75304">
        <ele>171</ele>
        <time>2018-01-05T11:45:13Z</time>
      </trkpt>
      <trkpt lat="45.99462" lon="4.75305">
        <ele>171</ele>
        <time>2018-01-05T11:45:15Z</time>
      </trkpt>
      <trkpt lat="45.99458" lon="4.75305">
        <ele>171</ele>
        <time>2018-01-05T11:45:16Z</time>
      </trkpt>
      <trkpt lat="45.99454" lon="4.75306">
        <ele>171</ele>
        <time>2018-01-05T11:45:17Z</time>
      </trkpt>
      <trkpt lat="45.99449" lon="4.75307">
        <ele>171</ele>
        <time>2018-01-05T11:45:18Z</time>
      </trkpt>
      <trkpt lat="45.99444" lon="4.75308">
        <ele>171</ele>
        <time>2018-01-05T11:45:19Z</time>
      </trkpt>
      <trkpt lat="45.99439" lon="4.75308">
        <ele>171</ele>
        <time>2018-01-05T11:45:20Z</time>
      </trkpt>
      <trkpt lat="45.99434" lon="4.75309">
        <ele>171</ele>
        <time>2018-01-05T11:45:21Z</time>
      </trkpt>
      <trkpt lat="45.99429" lon="4.7531">
        <ele>171</ele>
        <time>2018-01-05T11:45:22Z</time>
      </trkpt>
      <trkpt lat="45.99424" lon="4.75311">
        <ele>171</ele>
        <time>2018-01-05T11:45:23Z</time>
      </trkpt>
      <trkpt lat="45.99419" lon="4.75312">
        <ele>171</ele>
        <time>2018-01-05T11:45:24Z</time>
      </trkpt>
      <trkpt lat="45.99415" lon="4.75314">
        <ele>170</ele>
        <time>2018-01-05T11:45:25Z</time>
      </trkpt>
      <trkpt lat="45.99409" lon="4.75315">
        <ele>170</ele>
        <time>2018-01-05T11:45:26Z</time>
      </trkpt>
      <trkpt lat="45.99405" lon="4.75317">
        <ele>170</ele>
        <time>2018-01-05T11:45:27Z</time>
      </trkpt>
      <trkpt lat="45.994" lon="4.75319">
        <ele>170</ele>
        <time>2018-01-05T11:45:28Z</time>
      </trkpt>
      <trkpt lat="45.99392" lon="4.75325">
        <ele>170</ele>
        <time>2018-01-05T11:45:30Z</time>
      </trkpt>
      <trkpt lat="45.99388" lon="4.75328">
        <ele>170</ele>
        <time>2018-01-05T11:45:31Z</time>
      </trkpt>
      <trkpt lat="45.99384" lon="4.75332">
        <ele>170</ele>
        <time>2018-01-05T11:45:32Z</time>
      </trkpt>
      <trkpt lat="45.9938" lon="4.75336">
        <ele>171</ele>
        <time>2018-01-05T11:45:33Z</time>
      </trkpt>
      <trkpt lat="45.99377" lon="4.75341">
        <ele>171</ele>
        <time>2018-01-05T11:45:34Z</time>
      </trkpt>
      <trkpt lat="45.99373" lon="4.75347">
        <ele>172</ele>
        <time>2018-01-05T11:45:35Z</time>
      </trkpt>
      <trkpt lat="45.9937" lon="4.75352">
        <ele>172</ele>
        <time>2018-01-05T11:45:36Z</time>
      </trkpt>
      <trkpt lat="45.99366" lon="4.75358">
        <ele>172</ele>
        <time>2018-01-05T11:45:37Z</time>
      </trkpt>
      <trkpt lat="45.99363" lon="4.75363">
        <ele>172</ele>
        <time>2018-01-05T11:45:38Z</time>
      </trkpt>
      <trkpt lat="45.9936" lon="4.75369">
        <ele>172</ele>
        <time>2018-01-05T11:45:39Z</time>
      </trkpt>
      <trkpt lat="45.99355" lon="4.75379">
        <ele>172</ele>
        <time>2018-01-05T11:45:41Z</time>
      </trkpt>
      <trkpt lat="45.99353" lon="4.75384">
        <ele>172</ele>
        <time>2018-01-05T11:45:42Z</time>
      </trkpt>
      <trkpt lat="45.99348" lon="4.75391">
        <ele>172</ele>
        <time>2018-01-05T11:45:44Z</time>
      </trkpt>
      <trkpt lat="45.99345" lon="4.75395">
        <ele>173</ele>
        <time>2018-01-05T11:45:45Z</time>
      </trkpt>
      <trkpt lat="45.99341" lon="4.75406">
        <ele>173</ele>
        <time>2018-01-05T11:45:47Z</time>
      </trkpt>
      <trkpt lat="45.9934" lon="4.75411">
        <ele>173</ele>
        <time>2018-01-05T11:45:48Z</time>
      </trkpt>
      <trkpt lat="45.99338" lon="4.75424">
        <ele>174</ele>
        <time>2018-01-05T11:45:50Z</time>
      </trkpt>
      <trkpt lat="45.99336" lon="4.75431">
        <ele>175</ele>
        <time>2018-01-05T11:45:51Z</time>
      </trkpt>
      <trkpt lat="45.99335" lon="4.75438">
        <ele>176</ele>
        <time>2018-01-05T11:45:52Z</time>
      </trkpt>
      <trkpt lat="45.99333" lon="4.75445">
        <ele>173</ele>
        <time>2018-01-05T11:45:53Z</time>
      </trkpt>
      <trkpt lat="45.99331" lon="4.75452">
        <ele>174</ele>
        <time>2018-01-05T11:45:54Z</time>
      </trkpt>
      <trkpt lat="45.99328" lon="4.75459">
        <ele>174</ele>
        <time>2018-01-05T11:45:55Z</time>
      </trkpt>
      <trkpt lat="45.99326" lon="4.75465">
        <ele>174</ele>
        <time>2018-01-05T11:45:56Z</time>
      </trkpt>
      <trkpt lat="45.99324" lon="4.75472">
        <ele>174</ele>
        <time>2018-01-05T11:45:57Z</time>
      </trkpt>
      <trkpt lat="45.99321" lon="4.75478">
        <ele>174</ele>
        <time>2018-01-05T11:45:58Z</time>
      </trkpt>
      <trkpt lat="45.99319" lon="4.75483">
        <ele>175</ele>
        <time>2018-01-05T11:45:59Z</time>
      </trkpt>
      <trkpt lat="45.99315" lon="4.75488">
        <ele>175</ele>
        <time>2018-01-05T11:46:00Z</time>
      </trkpt>
      <trkpt lat="45.99312" lon="4.75493">
        <ele>175</ele>
        <time>2018-01-05T11:46:01Z</time>
      </trkpt>
      <trkpt lat="45.99308" lon="4.75498">
        <ele>175</ele>
        <time>2018-01-05T11:46:02Z</time>
      </trkpt>
      <trkpt lat="45.99305" lon="4.75502">
        <ele>177</ele>
        <time>2018-01-05T11:46:03Z</time>
      </trkpt>
      <trkpt lat="45.99301" lon="4.75507">
        <ele>177</ele>
        <time>2018-01-05T11:46:04Z</time>
      </trkpt>
      <trkpt lat="45.99297" lon="4.75512">
        <ele>177</ele>
        <time>2018-01-05T11:46:05Z</time>
      </trkpt>
      <trkpt lat="45.99293" lon="4.75517">
        <ele>176</ele>
        <time>2018-01-05T11:46:06Z</time>
      </trkpt>
      <trkpt lat="45.99289" lon="4.75522">
        <ele>176</ele>
        <time>2018-01-05T11:46:07Z</time>
      </trkpt>
      <trkpt lat="45.99285" lon="4.75526">
        <ele>176</ele>
        <time>2018-01-05T11:46:08Z</time>
      </trkpt>
      <trkpt lat="45.99281" lon="4.7553">
        <ele>176</ele>
        <time>2018-01-05T11:46:09Z</time>
      </trkpt>
      <trkpt lat="45.99277" lon="4.75534">
        <ele>176</ele>
        <time>2018-01-05T11:46:10Z</time>
      </trkpt>
      <trkpt lat="45.99272" lon="4.75537">
        <ele>176</ele>
        <time>2018-01-05T11:46:11Z</time>
      </trkpt>
      <trkpt lat="45.99268" lon="4.7554">
        <ele>176</ele>
        <time>2018-01-05T11:46:12Z</time>
      </trkpt>
      <trkpt lat="45.99264" lon="4.75542">
        <ele>176</ele>
        <time>2018-01-05T11:46:13Z</time>
      </trkpt>
      <trkpt lat="45.9926" lon="4.75545">
        <ele>176</ele>
        <time>2018-01-05T11:46:14Z</time>
      </trkpt>
      <trkpt lat="45.99256" lon="4.75548">
        <ele>176</ele>
        <time>2018-01-05T11:46:15Z</time>
      </trkpt>
      <trkpt lat="45.99251" lon="4.75551">
        <ele>177</ele>
        <time>2018-01-05T11:46:16Z</time>
      </trkpt>
      <trkpt lat="45.99248" lon="4.75554">
        <ele>175</ele>
        <time>2018-01-05T11:46:17Z</time>
      </trkpt>
      <trkpt lat="45.99239" lon="4.75559">
        <ele>175</ele>
        <time>2018-01-05T11:46:19Z</time>
      </trkpt>
      <trkpt lat="45.99235" lon="4.75561">
        <ele>175</ele>
        <time>2018-01-05T11:46:20Z</time>
      </trkpt>
      <trkpt lat="45.99227" lon="4.75566">
        <ele>175</ele>
        <time>2018-01-05T11:46:22Z</time>
      </trkpt>
      <trkpt lat="45.99222" lon="4.75569">
        <ele>175</ele>
        <time>2018-01-05T11:46:23Z</time>
      </trkpt>
      <trkpt lat="45.99218" lon="4.75572">
        <ele>175</ele>
        <time>2018-01-05T11:46:24Z</time>
      </trkpt>
      <trkpt lat="45.99214" lon="4.75575">
        <ele>175</ele>
        <time>2018-01-05T11:46:25Z</time>
      </trkpt>
      <trkpt lat="45.99209" lon="4.75579">
        <ele>175</ele>
        <time>2018-01-05T11:46:26Z</time>
      </trkpt>
      <trkpt lat="45.99205" lon="4.75582">
        <ele>175</ele>
        <time>2018-01-05T11:46:27Z</time>
      </trkpt>
      <trkpt lat="45.992" lon="4.75584">
        <ele>178</ele>
        <time>2018-01-05T11:46:28Z</time>
      </trkpt>
      <trkpt lat="45.99196" lon="4.75587">
        <ele>178</ele>
        <time>2018-01-05T11:46:29Z</time>
      </trkpt>
      <trkpt lat="45.99189" lon="4.75594">
        <ele>178</ele>
        <time>2018-01-05T11:46:31Z</time>
      </trkpt>
      <trkpt lat="45.99186" lon="4.75596">
        <ele>177</ele>
        <time>2018-01-05T11:46:32Z</time>
      </trkpt>
      <trkpt lat="45.99178" lon="4.75601">
        <ele>177</ele>
        <time>2018-01-05T11:46:34Z</time>
      </trkpt>
      <trkpt lat="45.99174" lon="4.75602">
        <ele>177</ele>
        <time>2018-01-05T11:46:35Z</time>
      </trkpt>
      <trkpt lat="45.99168" lon="4.75606">
        <ele>177</ele>
        <time>2018-01-05T11:46:37Z</time>
      </trkpt>
      <trkpt lat="45.99162" lon="4.75607">
        <ele>176</ele>
        <time>2018-01-05T11:46:38Z</time>
      </trkpt>
      <trkpt lat="45.99153" lon="4.75609">
        <ele>176</ele>
        <time>2018-01-05T11:46:40Z</time>
      </trkpt>
      <trkpt lat="45.99148" lon="4.7561">
        <ele>177</ele>
        <time>2018-01-05T11:46:41Z</time>
      </trkpt>
      <trkpt lat="45.99142" lon="4.75608">
        <ele>176</ele>
        <time>2018-01-05T11:46:43Z</time>
      </trkpt>
      <trkpt lat="45.99137" lon="4.75607">
        <ele>176</ele>
        <time>2018-01-05T11:46:44Z</time>
      </trkpt>
      <trkpt lat="45.99133" lon="4.75607">
        <ele>176</ele>
        <time>2018-01-05T11:46:45Z</time>
      </trkpt>
      <trkpt lat="45.99128" lon="4.75609">
        <ele>176</ele>
        <time>2018-01-05T11:46:46Z</time>
      </trkpt>
      <trkpt lat="45.99124" lon="4.75613">
        <ele>177</ele>
        <time>2018-01-05T11:46:47Z</time>
      </trkpt>
      <trkpt lat="45.99121" lon="4.75619">
        <ele>177</ele>
        <time>2018-01-05T11:46:48Z</time>
      </trkpt>
      <trkpt lat="45.99118" lon="4.75625">
        <ele>177</ele>
        <time>2018-01-05T11:46:49Z</time>
      </trkpt>
      <trkpt lat="45.99115" lon="4.75631">
        <ele>177</ele>
        <time>2018-01-05T11:46:50Z</time>
      </trkpt>
      <trkpt lat="45.9911" lon="4.7564">
        <ele>178</ele>
        <time>2018-01-05T11:46:52Z</time>
      </trkpt>
      <trkpt lat="45.99107" lon="4.75645">
        <ele>178</ele>
        <time>2018-01-05T11:46:53Z</time>
      </trkpt>
      <trkpt lat="45.99103" lon="4.75648">
        <ele>178</ele>
        <time>2018-01-05T11:46:54Z</time>
      </trkpt>
      <trkpt lat="45.99099" lon="4.75651">
        <ele>178</ele>
        <time>2018-01-05T11:46:55Z</time>
      </trkpt>
      <trkpt lat="45.99094" lon="4.75655">
        <ele>179</ele>
        <time>2018-01-05T11:46:56Z</time>
      </trkpt>
      <trkpt lat="45.99091" lon="4.75657">
        <ele>179</ele>
        <time>2018-01-05T11:46:57Z</time>
      </trkpt>
      <trkpt lat="45.99086" lon="4.75659">
        <ele>179</ele>
        <time>2018-01-05T11:46:58Z</time>
      </trkpt>
      <trkpt lat="45.99081" lon="4.7566">
        <ele>179</ele>
        <time>2018-01-05T11:46:59Z</time>
      </trkpt>
      <trkpt lat="45.99075" lon="4.75661">
        <ele>179</ele>
        <time>2018-01-05T11:47:00Z</time>
      </trkpt>
      <trkpt lat="45.9907" lon="4.75661">
        <ele>179</ele>
        <time>2018-01-05T11:47:01Z</time>
      </trkpt>
      <trkpt lat="45.99065" lon="4.75661">
        <ele>178</ele>
        <time>2018-01-05T11:47:02Z</time>
      </trkpt>
      <trkpt lat="45.99059" lon="4.75662">
        <ele>178</ele>
        <time>2018-01-05T11:47:03Z</time>
      </trkpt>
      <trkpt lat="45.99054" lon="4.7566">
        <ele>178</ele>
        <time>2018-01-05T11:47:04Z</time>
      </trkpt>
      <trkpt lat="45.99049" lon="4.75659">
        <ele>178</ele>
        <time>2018-01-05T11:47:05Z</time>
      </trkpt>
      <trkpt lat="45.99044" lon="4.75659">
        <ele>178</ele>
        <time>2018-01-05T11:47:06Z</time>
      </trkpt>
      <trkpt lat="45.99038" lon="4.75658">
        <ele>178</ele>
        <time>2018-01-05T11:47:07Z</time>
      </trkpt>
      <trkpt lat="45.99034" lon="4.75658">
        <ele>178</ele>
        <time>2018-01-05T11:47:08Z</time>
      </trkpt>
      <trkpt lat="45.99029" lon="4.75658">
        <ele>178</ele>
        <time>2018-01-05T11:47:09Z</time>
      </trkpt>
      <trkpt lat="45.99024" lon="4.75658">
        <ele>178</ele>
        <time>2018-01-05T11:47:10Z</time>
      </trkpt>
      <trkpt lat="45.99018" lon="4.75658">
        <ele>178</ele>
        <time>2018-01-05T11:47:11Z</time>
      </trkpt>
      <trkpt lat="45.99012" lon="4.75658">
        <ele>178</ele>
        <time>2018-01-05T11:47:12Z</time>
      </trkpt>
      <trkpt lat="45.99007" lon="4.75659">
        <ele>179</ele>
        <time>2018-01-05T11:47:13Z</time>
      </trkpt>
      <trkpt lat="45.99002" lon="4.7566">
        <ele>179</ele>
        <time>2018-01-05T11:47:14Z</time>
      </trkpt>
      <trkpt lat="45.98997" lon="4.75661">
        <ele>179</ele>
        <time>2018-01-05T11:47:15Z</time>
      </trkpt>
      <trkpt lat="45.98991" lon="4.75661">
        <ele>178</ele>
        <time>2018-01-05T11:47:16Z</time>
      </trkpt>
      <trkpt lat="45.98986" lon="4.75661">
        <ele>178</ele>
        <time>2018-01-05T11:47:17Z</time>
      </trkpt>
      <trkpt lat="45.98981" lon="4.75662">
        <ele>178</ele>
        <time>2018-01-05T11:47:18Z</time>
      </trkpt>
      <trkpt lat="45.98976" lon="4.75662">
        <ele>177</ele>
        <time>2018-01-05T11:47:19Z</time>
      </trkpt>
      <trkpt lat="45.98972" lon="4.75663">
        <ele>177</ele>
        <time>2018-01-05T11:47:20Z</time>
      </trkpt>
      <trkpt lat="45.98967" lon="4.75664">
        <ele>177</ele>
        <time>2018-01-05T11:47:21Z</time>
      </trkpt>
      <trkpt lat="45.98963" lon="4.75667">
        <ele>177</ele>
        <time>2018-01-05T11:47:22Z</time>
      </trkpt>
      <trkpt lat="45.98958" lon="4.75669">
        <ele>181</ele>
        <time>2018-01-05T11:47:23Z</time>
      </trkpt>
      <trkpt lat="45.98953" lon="4.7567">
        <ele>181</ele>
        <time>2018-01-05T11:47:24Z</time>
      </trkpt>
      <trkpt lat="45.98948" lon="4.75672">
        <ele>181</ele>
        <time>2018-01-05T11:47:25Z</time>
      </trkpt>
      <trkpt lat="45.98944" lon="4.75675">
        <ele>181</ele>
        <time>2018-01-05T11:47:26Z</time>
      </trkpt>
      <trkpt lat="45.98939" lon="4.75677">
        <ele>180</ele>
        <time>2018-01-05T11:47:27Z</time>
      </trkpt>
      <trkpt lat="45.98934" lon="4.75679">
        <ele>180</ele>
        <time>2018-01-05T11:47:28Z</time>
      </trkpt>
      <trkpt lat="45.98929" lon="4.75681">
        <ele>180</ele>
        <time>2018-01-05T11:47:29Z</time>
      </trkpt>
      <trkpt lat="45.98925" lon="4.75683">
        <ele>180</ele>
        <time>2018-01-05T11:47:30Z</time>
      </trkpt>
      <trkpt lat="45.9892" lon="4.75685">
        <ele>180</ele>
        <time>2018-01-05T11:47:31Z</time>
      </trkpt>
      <trkpt lat="45.98915" lon="4.75688">
        <ele>179</ele>
        <time>2018-01-05T11:47:32Z</time>
      </trkpt>
      <trkpt lat="45.98911" lon="4.75691">
        <ele>179</ele>
        <time>2018-01-05T11:47:33Z</time>
      </trkpt>
      <trkpt lat="45.98904" lon="4.75696">
        <ele>180</ele>
        <time>2018-01-05T11:47:35Z</time>
      </trkpt>
      <trkpt lat="45.989" lon="4.75697">
        <ele>180</ele>
        <time>2018-01-05T11:47:36Z</time>
      </trkpt>
      <trkpt lat="45.98896" lon="4.75699">
        <ele>180</ele>
        <time>2018-01-05T11:47:37Z</time>
      </trkpt>
      <trkpt lat="45.98891" lon="4.75701">
        <ele>180</ele>
        <time>2018-01-05T11:47:38Z</time>
      </trkpt>
      <trkpt lat="45.98887" lon="4.75703">
        <ele>180</ele>
        <time>2018-01-05T11:47:39Z</time>
      </trkpt>
      <trkpt lat="45.98882" lon="4.75705">
        <ele>180</ele>
        <time>2018-01-05T11:47:40Z</time>
      </trkpt>
      <trkpt lat="45.98874" lon="4.75708">
        <ele>180</ele>
        <time>2018-01-05T11:47:42Z</time>
      </trkpt>
      <trkpt lat="45.98869" lon="4.75709">
        <ele>180</ele>
        <time>2018-01-05T11:47:43Z</time>
      </trkpt>
      <trkpt lat="45.98864" lon="4.7571">
        <ele>180</ele>
        <time>2018-01-05T11:47:44Z</time>
      </trkpt>
      <trkpt lat="45.9886" lon="4.75711">
        <ele>180</ele>
        <time>2018-01-05T11:47:45Z</time>
      </trkpt>
      <trkpt lat="45.98851" lon="4.75714">
        <ele>180</ele>
        <time>2018-01-05T11:47:47Z</time>
      </trkpt>
      <trkpt lat="45.98847" lon="4.75714">
        <ele>180</ele>
        <time>2018-01-05T11:47:48Z</time>
      </trkpt>
      <trkpt lat="45.98842" lon="4.75714">
        <ele>180</ele>
        <time>2018-01-05T11:47:49Z</time>
      </trkpt>
      <trkpt lat="45.98838" lon="4.75714">
        <ele>180</ele>
        <time>2018-01-05T11:47:50Z</time>
      </trkpt>
      <trkpt lat="45.98829" lon="4.75715">
        <ele>179</ele>
        <time>2018-01-05T11:47:52Z</time>
      </trkpt>
      <trkpt lat="45.98824" lon="4.75715">
        <ele>179</ele>
        <time>2018-01-05T11:47:53Z</time>
      </trkpt>
      <trkpt lat="45.98819" lon="4.75716">
        <ele>179</ele>
        <time>2018-01-05T11:47:54Z</time>
      </trkpt>
      <trkpt lat="45.98814" lon="4.75716">
        <ele>179</ele>
        <time>2018-01-05T11:47:55Z</time>
      </trkpt>
      <trkpt lat="45.9881" lon="4.75716">
        <ele>179</ele>
        <time>2018-01-05T11:47:56Z</time>
      </trkpt>
      <trkpt lat="45.98805" lon="4.75716">
        <ele>179</ele>
        <time>2018-01-05T11:47:57Z</time>
      </trkpt>
      <trkpt lat="45.98801" lon="4.75717">
        <ele>178</ele>
        <time>2018-01-05T11:47:58Z</time>
      </trkpt>
      <trkpt lat="45.98796" lon="4.75718">
        <ele>178</ele>
        <time>2018-01-05T11:47:59Z</time>
      </trkpt>
      <trkpt lat="45.98787" lon="4.75718">
        <ele>178</ele>
        <time>2018-01-05T11:48:01Z</time>
      </trkpt>
      <trkpt lat="45.98783" lon="4.75718">
        <ele>178</ele>
        <time>2018-01-05T11:48:02Z</time>
      </trkpt>
      <trkpt lat="45.98775" lon="4.75716">
        <ele>178</ele>
        <time>2018-01-05T11:48:04Z</time>
      </trkpt>
      <trkpt lat="45.98771" lon="4.75715">
        <ele>178</ele>
        <time>2018-01-05T11:48:05Z</time>
      </trkpt>
      <trkpt lat="45.98762" lon="4.75718">
        <ele>178</ele>
        <time>2018-01-05T11:48:07Z</time>
      </trkpt>
      <trkpt lat="45.98759" lon="4.75721">
        <ele>178</ele>
        <time>2018-01-05T11:48:08Z</time>
      </trkpt>
      <trkpt lat="45.9875" lon="4.75726">
        <ele>178</ele>
        <time>2018-01-05T11:48:10Z</time>
      </trkpt>
      <trkpt lat="45.98746" lon="4.75728">
        <ele>177</ele>
        <time>2018-01-05T11:48:11Z</time>
      </trkpt>
      <trkpt lat="45.98738" lon="4.75728">
        <ele>177</ele>
        <time>2018-01-05T11:48:13Z</time>
      </trkpt>
      <trkpt lat="45.98733" lon="4.75727">
        <ele>177</ele>
        <time>2018-01-05T11:48:14Z</time>
      </trkpt>
      <trkpt lat="45.98727" lon="4.75728">
        <ele>177</ele>
        <time>2018-01-05T11:48:15Z</time>
      </trkpt>
      <trkpt lat="45.98723" lon="4.75727">
        <ele>177</ele>
        <time>2018-01-05T11:48:16Z</time>
      </trkpt>
      <trkpt lat="45.98717" lon="4.75726">
        <ele>177</ele>
        <time>2018-01-05T11:48:17Z</time>
      </trkpt>
      <trkpt lat="45.98713" lon="4.75726">
        <ele>177</ele>
        <time>2018-01-05T11:48:18Z</time>
      </trkpt>
      <trkpt lat="45.98708" lon="4.75727">
        <ele>177</ele>
        <time>2018-01-05T11:48:19Z</time>
      </trkpt>
      <trkpt lat="45.98702" lon="4.75727">
        <ele>177</ele>
        <time>2018-01-05T11:48:20Z</time>
      </trkpt>
      <trkpt lat="45.98697" lon="4.75728">
        <ele>177</ele>
        <time>2018-01-05T11:48:21Z</time>
      </trkpt>
      <trkpt lat="45.98692" lon="4.75728">
        <ele>177</ele>
        <time>2018-01-05T11:48:22Z</time>
      </trkpt>
      <trkpt lat="45.98687" lon="4.75728">
        <ele>177</ele>
        <time>2018-01-05T11:48:23Z</time>
      </trkpt>
      <trkpt lat="45.98682" lon="4.75728">
        <ele>177</ele>
        <time>2018-01-05T11:48:24Z</time>
      </trkpt>
      <trkpt lat="45.98677" lon="4.75728">
        <ele>177</ele>
        <time>2018-01-05T11:48:25Z</time>
      </trkpt>
      <trkpt lat="45.98672" lon="4.75727">
        <ele>177</ele>
        <time>2018-01-05T11:48:26Z</time>
      </trkpt>
      <trkpt lat="45.98667" lon="4.75727">
        <ele>177</ele>
        <time>2018-01-05T11:48:27Z</time>
      </trkpt>
      <trkpt lat="45.98662" lon="4.75728">
        <ele>176</ele>
        <time>2018-01-05T11:48:28Z</time>
      </trkpt>
      <trkpt lat="45.98658" lon="4.75729">
        <ele>176</ele>
        <time>2018-01-05T11:48:29Z</time>
      </trkpt>
      <trkpt lat="45.98653" lon="4.7573">
        <ele>176</ele>
        <time>2018-01-05T11:48:30Z</time>
      </trkpt>
      <trkpt lat="45.98644" lon="4.75731">
        <ele>176</ele>
        <time>2018-01-05T11:48:32Z</time>
      </trkpt>
      <trkpt lat="45.98639" lon="4.75731">
        <ele>175</ele>
        <time>2018-01-05T11:48:33Z</time>
      </trkpt>
      <trkpt lat="45.98635" lon="4.75731">
        <ele>175</ele>
        <time>2018-01-05T11:48:34Z</time>
      </trkpt>
      <trkpt lat="45.9863" lon="4.75731">
        <ele>175</ele>
        <time>2018-01-05T11:48:35Z</time>
      </trkpt>
      <trkpt lat="45.98621" lon="4.75732">
        <ele>175</ele>
        <time>2018-01-05T11:48:37Z</time>
      </trkpt>
      <trkpt lat="45.98615" lon="4.75734">
        <ele>175</ele>
        <time>2018-01-05T11:48:38Z</time>
      </trkpt>
      <trkpt lat="45.98606" lon="4.75734">
        <ele>174</ele>
        <time>2018-01-05T11:48:40Z</time>
      </trkpt>
      <trkpt lat="45.98603" lon="4.75734">
        <ele>174</ele>
        <time>2018-01-05T11:48:41Z</time>
      </trkpt>
      <trkpt lat="45.98595" lon="4.75732">
        <ele>174</ele>
        <time>2018-01-05T11:48:48Z</time>
      </trkpt>
      <trkpt lat="45.98593" lon="4.75732">
        <ele>174</ele>
        <time>2018-01-05T11:48:49Z</time>
      </trkpt>
      <trkpt lat="45.98586" lon="4.7573">
        <ele>174</ele>
        <time>2018-01-05T11:48:54Z</time>
      </trkpt>
      <trkpt lat="45.98583" lon="4.7573">
        <ele>174</ele>
        <time>2018-01-05T11:48:55Z</time>
      </trkpt>
      <trkpt lat="45.98577" lon="4.75727">
        <ele>174</ele>
        <time>2018-01-05T11:48:57Z</time>
      </trkpt>
      <trkpt lat="45.98573" lon="4.75725">
        <ele>174</ele>
        <time>2018-01-05T11:48:58Z</time>
      </trkpt>
      <trkpt lat="45.98568" lon="4.75725">
        <ele>174</ele>
        <time>2018-01-05T11:48:59Z</time>
      </trkpt>
      <trkpt lat="45.98563" lon="4.75725">
        <ele>174</ele>
        <time>2018-01-05T11:49:00Z</time>
      </trkpt>
      <trkpt lat="45.98558" lon="4.75723">
        <ele>174</ele>
        <time>2018-01-05T11:49:01Z</time>
      </trkpt>
      <trkpt lat="45.98553" lon="4.75722">
        <ele>174</ele>
        <time>2018-01-05T11:49:02Z</time>
      </trkpt>
      <trkpt lat="45.98548" lon="4.75721">
        <ele>174</ele>
        <time>2018-01-05T11:49:03Z</time>
      </trkpt>
      <trkpt lat="45.98544" lon="4.7572">
        <ele>174</ele>
        <time>2018-01-05T11:49:04Z</time>
      </trkpt>
      <trkpt lat="45.98539" lon="4.7572">
        <ele>174</ele>
        <time>2018-01-05T11:49:05Z</time>
      </trkpt>
      <trkpt lat="45.98535" lon="4.75718">
        <ele>174</ele>
        <time>2018-01-05T11:49:06Z</time>
      </trkpt>
      <trkpt lat="45.98526" lon="4.75717">
        <ele>174</ele>
        <time>2018-01-05T11:49:08Z</time>
      </trkpt>
      <trkpt lat="45.98523" lon="4.75716">
        <ele>174</ele>
        <time>2018-01-05T11:49:09Z</time>
      </trkpt>
      <trkpt lat="45.98515" lon="4.75717">
        <ele>174</ele>
        <time>2018-01-05T11:49:11Z</time>
      </trkpt>
      <trkpt lat="45.98511" lon="4.75717">
        <ele>174</ele>
        <time>2018-01-05T11:49:12Z</time>
      </trkpt>
      <trkpt lat="45.98506" lon="4.75715">
        <ele>174</ele>
        <time>2018-01-05T11:49:13Z</time>
      </trkpt>
      <trkpt lat="45.98502" lon="4.75714">
        <ele>174</ele>
        <time>2018-01-05T11:49:14Z</time>
      </trkpt>
      <trkpt lat="45.98497" lon="4.75711">
        <ele>175</ele>
        <time>2018-01-05T11:49:15Z</time>
      </trkpt>
      <trkpt lat="45.98493" lon="4.75709">
        <ele>175</ele>
        <time>2018-01-05T11:49:16Z</time>
      </trkpt>
      <trkpt lat="45.98488" lon="4.75707">
        <ele>174</ele>
        <time>2018-01-05T11:49:17Z</time>
      </trkpt>
      <trkpt lat="45.98484" lon="4.75705">
        <ele>174</ele>
        <time>2018-01-05T11:49:18Z</time>
      </trkpt>
      <trkpt lat="45.98479" lon="4.75704">
        <ele>174</ele>
        <time>2018-01-05T11:49:19Z</time>
      </trkpt>
      <trkpt lat="45.98473" lon="4.75703">
        <ele>174</ele>
        <time>2018-01-05T11:49:20Z</time>
      </trkpt>
      <trkpt lat="45.98465" lon="4.75702">
        <ele>174</ele>
        <time>2018-01-05T11:49:22Z</time>
      </trkpt>
      <trkpt lat="45.98461" lon="4.75701">
        <ele>174</ele>
        <time>2018-01-05T11:49:23Z</time>
      </trkpt>
      <trkpt lat="45.98456" lon="4.75701">
        <ele>175</ele>
        <time>2018-01-05T11:49:24Z</time>
      </trkpt>
      <trkpt lat="45.98451" lon="4.75699">
        <ele>175</ele>
        <time>2018-01-05T11:49:25Z</time>
      </trkpt>
      <trkpt lat="45.98443" lon="4.75697">
        <ele>175</ele>
        <time>2018-01-05T11:49:27Z</time>
      </trkpt>
      <trkpt lat="45.98438" lon="4.75696">
        <ele>175</ele>
        <time>2018-01-05T11:49:28Z</time>
      </trkpt>
      <trkpt lat="45.98434" lon="4.75693">
        <ele>175</ele>
        <time>2018-01-05T11:49:29Z</time>
      </trkpt>
      <trkpt lat="45.98428" lon="4.75692">
        <ele>175</ele>
        <time>2018-01-05T11:49:30Z</time>
      </trkpt>
      <trkpt lat="45.9842" lon="4.75691">
        <ele>175</ele>
        <time>2018-01-05T11:49:32Z</time>
      </trkpt>
      <trkpt lat="45.98415" lon="4.75689">
        <ele>175</ele>
        <time>2018-01-05T11:49:33Z</time>
      </trkpt>
      <trkpt lat="45.98408" lon="4.75686">
        <ele>175</ele>
        <time>2018-01-05T11:49:35Z</time>
      </trkpt>
      <trkpt lat="45.98403" lon="4.75687">
        <ele>175</ele>
        <time>2018-01-05T11:49:36Z</time>
      </trkpt>
      <trkpt lat="45.98394" lon="4.75683">
        <ele>174</ele>
        <time>2018-01-05T11:49:38Z</time>
      </trkpt>
      <trkpt lat="45.98391" lon="4.75684">
        <ele>174</ele>
        <time>2018-01-05T11:49:39Z</time>
      </trkpt>
      <trkpt lat="45.98383" lon="4.75683">
        <ele>174</ele>
        <time>2018-01-05T11:49:40Z</time>
      </trkpt>
      <trkpt lat="45.98378" lon="4.75683">
        <ele>174</ele>
        <time>2018-01-05T11:49:41Z</time>
      </trkpt>
      <trkpt lat="45.98372" lon="4.75686">
        <ele>174</ele>
        <time>2018-01-05T11:49:42Z</time>
      </trkpt>
      <trkpt lat="45.98368" lon="4.75686">
        <ele>174</ele>
        <time>2018-01-05T11:49:43Z</time>
      </trkpt>
      <trkpt lat="45.98364" lon="4.75686">
        <ele>174</ele>
        <time>2018-01-05T11:49:44Z</time>
      </trkpt>
      <trkpt lat="45.98358" lon="4.75686">
        <ele>174</ele>
        <time>2018-01-05T11:49:45Z</time>
      </trkpt>
      <trkpt lat="45.98353" lon="4.75685">
        <ele>174</ele>
        <time>2018-01-05T11:49:46Z</time>
      </trkpt>
      <trkpt lat="45.98347" lon="4.75685">
        <ele>174</ele>
        <time>2018-01-05T11:49:47Z</time>
      </trkpt>
      <trkpt lat="45.98342" lon="4.75684">
        <ele>174</ele>
        <time>2018-01-05T11:49:48Z</time>
      </trkpt>
      <trkpt lat="45.98337" lon="4.75683">
        <ele>174</ele>
        <time>2018-01-05T11:49:49Z</time>
      </trkpt>
      <trkpt lat="45.98332" lon="4.75682">
        <ele>174</ele>
        <time>2018-01-05T11:49:50Z</time>
      </trkpt>
      <trkpt lat="45.98327" lon="4.75681">
        <ele>174</ele>
        <time>2018-01-05T11:49:51Z</time>
      </trkpt>
      <trkpt lat="45.98322" lon="4.75681">
        <ele>174</ele>
        <time>2018-01-05T11:49:52Z</time>
      </trkpt>
      <trkpt lat="45.98316" lon="4.75681">
        <ele>174</ele>
        <time>2018-01-05T11:49:53Z</time>
      </trkpt>
      <trkpt lat="45.9831" lon="4.7568">
        <ele>174</ele>
        <time>2018-01-05T11:49:54Z</time>
      </trkpt>
      <trkpt lat="45.98305" lon="4.75678">
        <ele>174</ele>
        <time>2018-01-05T11:49:55Z</time>
      </trkpt>
      <trkpt lat="45.983" lon="4.75677">
        <ele>174</ele>
        <time>2018-01-05T11:49:56Z</time>
      </trkpt>
      <trkpt lat="45.98295" lon="4.75676">
        <ele>174</ele>
        <time>2018-01-05T11:49:57Z</time>
      </trkpt>
      <trkpt lat="45.98287" lon="4.75676">
        <ele>174</ele>
        <time>2018-01-05T11:49:59Z</time>
      </trkpt>
      <trkpt lat="45.98283" lon="4.75676">
        <ele>174</ele>
        <time>2018-01-05T11:50:00Z</time>
      </trkpt>
      <trkpt lat="45.98275" lon="4.75677">
        <ele>174</ele>
        <time>2018-01-05T11:50:02Z</time>
      </trkpt>
      <trkpt lat="45.9827" lon="4.75677">
        <ele>173</ele>
        <time>2018-01-05T11:50:03Z</time>
      </trkpt>
      <trkpt lat="45.98265" lon="4.75678">
        <ele>173</ele>
        <time>2018-01-05T11:50:04Z</time>
      </trkpt>
      <trkpt lat="45.9826" lon="4.75677">
        <ele>173</ele>
        <time>2018-01-05T11:50:05Z</time>
      </trkpt>
      <trkpt lat="45.98254" lon="4.75678">
        <ele>173</ele>
        <time>2018-01-05T11:50:06Z</time>
      </trkpt>
      <trkpt lat="45.9825" lon="4.75678">
        <ele>173</ele>
        <time>2018-01-05T11:50:07Z</time>
      </trkpt>
      <trkpt lat="45.98242" lon="4.75678">
        <ele>173</ele>
        <time>2018-01-05T11:50:09Z</time>
      </trkpt>
      <trkpt lat="45.98237" lon="4.75679">
        <ele>174</ele>
        <time>2018-01-05T11:50:10Z</time>
      </trkpt>
      <trkpt lat="45.98229" lon="4.75682">
        <ele>174</ele>
        <time>2018-01-05T11:50:12Z</time>
      </trkpt>
      <trkpt lat="45.98225" lon="4.75683">
        <ele>174</ele>
        <time>2018-01-05T11:50:13Z</time>
      </trkpt>
      <trkpt lat="45.9822" lon="4.75684">
        <ele>174</ele>
        <time>2018-01-05T11:50:14Z</time>
      </trkpt>
      <trkpt lat="45.98214" lon="4.75685">
        <ele>174</ele>
        <time>2018-01-05T11:50:15Z</time>
      </trkpt>
      <trkpt lat="45.9821" lon="4.75685">
        <ele>174</ele>
        <time>2018-01-05T11:50:16Z</time>
      </trkpt>
      <trkpt lat="45.98205" lon="4.75686">
        <ele>174</ele>
        <time>2018-01-05T11:50:17Z</time>
      </trkpt>
      <trkpt lat="45.982" lon="4.75686">
        <ele>174</ele>
        <time>2018-01-05T11:50:18Z</time>
      </trkpt>
      <trkpt lat="45.98196" lon="4.75687">
        <ele>174</ele>
        <time>2018-01-05T11:50:19Z</time>
      </trkpt>
      <trkpt lat="45.98187" lon="4.75688">
        <ele>174</ele>
        <time>2018-01-05T11:50:21Z</time>
      </trkpt>
      <trkpt lat="45.98183" lon="4.75688">
        <ele>174</ele>
        <time>2018-01-05T11:50:22Z</time>
      </trkpt>
      <trkpt lat="45.98178" lon="4.75688">
        <ele>174</ele>
        <time>2018-01-05T11:50:23Z</time>
      </trkpt>
      <trkpt lat="45.98173" lon="4.75689">
        <ele>174</ele>
        <time>2018-01-05T11:50:24Z</time>
      </trkpt>
      <trkpt lat="45.98164" lon="4.75688">
        <ele>174</ele>
        <time>2018-01-05T11:50:26Z</time>
      </trkpt>
      <trkpt lat="45.9816" lon="4.75688">
        <ele>174</ele>
        <time>2018-01-05T11:50:27Z</time>
      </trkpt>
      <trkpt lat="45.98154" lon="4.7569">
        <ele>174</ele>
        <time>2018-01-05T11:50:28Z</time>
      </trkpt>
      <trkpt lat="45.98148" lon="4.7569">
        <ele>174</ele>
        <time>2018-01-05T11:50:29Z</time>
      </trkpt>
      <trkpt lat="45.98144" lon="4.7569">
        <ele>174</ele>
        <time>2018-01-05T11:50:30Z</time>
      </trkpt>
      <trkpt lat="45.98139" lon="4.7569">
        <ele>174</ele>
        <time>2018-01-05T11:50:31Z</time>
      </trkpt>
      <trkpt lat="45.9813" lon="4.7569">
        <ele>174</ele>
        <time>2018-01-05T11:50:33Z</time>
      </trkpt>
      <trkpt lat="45.98126" lon="4.75691">
        <ele>174</ele>
        <time>2018-01-05T11:50:34Z</time>
      </trkpt>
      <trkpt lat="45.98118" lon="4.75691">
        <ele>174</ele>
        <time>2018-01-05T11:50:36Z</time>
      </trkpt>
      <trkpt lat="45.98114" lon="4.75692">
        <ele>174</ele>
        <time>2018-01-05T11:50:37Z</time>
      </trkpt>
      <trkpt lat="45.98109" lon="4.75693">
        <ele>174</ele>
        <time>2018-01-05T11:50:38Z</time>
      </trkpt>
      <trkpt lat="45.98104" lon="4.75693">
        <ele>174</ele>
        <time>2018-01-05T11:50:39Z</time>
      </trkpt>
      <trkpt lat="45.98099" lon="4.75693">
        <ele>174</ele>
        <time>2018-01-05T11:50:40Z</time>
      </trkpt>
      <trkpt lat="45.98094" lon="4.75694">
        <ele>174</ele>
        <time>2018-01-05T11:50:41Z</time>
      </trkpt>
      <trkpt lat="45.98089" lon="4.75694">
        <ele>174</ele>
        <time>2018-01-05T11:50:42Z</time>
      </trkpt>
      <trkpt lat="45.98083" lon="4.75695">
        <ele>174</ele>
        <time>2018-01-05T11:50:43Z</time>
      </trkpt>
      <trkpt lat="45.98078" lon="4.75695">
        <ele>174</ele>
        <time>2018-01-05T11:50:44Z</time>
      </trkpt>
      <trkpt lat="45.98073" lon="4.75696">
        <ele>174</ele>
        <time>2018-01-05T11:50:45Z</time>
      </trkpt>
      <trkpt lat="45.98065" lon="4.75697">
        <ele>174</ele>
        <time>2018-01-05T11:50:47Z</time>
      </trkpt>
      <trkpt lat="45.98061" lon="4.75697">
        <ele>174</ele>
        <time>2018-01-05T11:50:48Z</time>
      </trkpt>
      <trkpt lat="45.98055" lon="4.75698">
        <ele>174</ele>
        <time>2018-01-05T11:50:49Z</time>
      </trkpt>
      <trkpt lat="45.9805" lon="4.75698">
        <ele>174</ele>
        <time>2018-01-05T11:50:50Z</time>
      </trkpt>
      <trkpt lat="45.98046" lon="4.757">
        <ele>174</ele>
        <time>2018-01-05T11:50:51Z</time>
      </trkpt>
      <trkpt lat="45.98041" lon="4.75701">
        <ele>174</ele>
        <time>2018-01-05T11:50:52Z</time>
      </trkpt>
      <trkpt lat="45.98036" lon="4.75701">
        <ele>174</ele>
        <time>2018-01-05T11:50:53Z</time>
      </trkpt>
      <trkpt lat="45.98032" lon="4.75703">
        <ele>174</ele>
        <time>2018-01-05T11:50:54Z</time>
      </trkpt>
      <trkpt lat="45.98027" lon="4.75705">
        <ele>174</ele>
        <time>2018-01-05T11:50:55Z</time>
      </trkpt>
      <trkpt lat="45.98023" lon="4.75706">
        <ele>174</ele>
        <time>2018-01-05T11:50:56Z</time>
      </trkpt>
      <trkpt lat="45.98018" lon="4.75708">
        <ele>174</ele>
        <time>2018-01-05T11:50:57Z</time>
      </trkpt>
      <trkpt lat="45.98013" lon="4.75709">
        <ele>174</ele>
        <time>2018-01-05T11:50:58Z</time>
      </trkpt>
      <trkpt lat="45.98009" lon="4.75711">
        <ele>174</ele>
        <time>2018-01-05T11:50:59Z</time>
      </trkpt>
      <trkpt lat="45.98004" lon="4.75713">
        <ele>174</ele>
        <time>2018-01-05T11:51:00Z</time>
      </trkpt>
      <trkpt lat="45.97999" lon="4.75715">
        <ele>174</ele>
        <time>2018-01-05T11:51:01Z</time>
      </trkpt>
      <trkpt lat="45.97995" lon="4.75717">
        <ele>174</ele>
        <time>2018-01-05T11:51:02Z</time>
      </trkpt>
      <trkpt lat="45.9799" lon="4.75718">
        <ele>174</ele>
        <time>2018-01-05T11:51:03Z</time>
      </trkpt>
      <trkpt lat="45.97985" lon="4.75719">
        <ele>174</ele>
        <time>2018-01-05T11:51:04Z</time>
      </trkpt>
      <trkpt lat="45.9798" lon="4.75722">
        <ele>174</ele>
        <time>2018-01-05T11:51:05Z</time>
      </trkpt>
      <trkpt lat="45.97976" lon="4.75724">
        <ele>174</ele>
        <time>2018-01-05T11:51:06Z</time>
      </trkpt>
      <trkpt lat="45.97972" lon="4.75725">
        <ele>174</ele>
        <time>2018-01-05T11:51:07Z</time>
      </trkpt>
      <trkpt lat="45.97967" lon="4.75727">
        <ele>174</ele>
        <time>2018-01-05T11:51:08Z</time>
      </trkpt>
      <trkpt lat="45.97963" lon="4.75728">
        <ele>174</ele>
        <time>2018-01-05T11:51:09Z</time>
      </trkpt>
      <trkpt lat="45.97958" lon="4.75728">
        <ele>174</ele>
        <time>2018-01-05T11:51:10Z</time>
      </trkpt>
      <trkpt lat="45.9795" lon="4.75725">
        <ele>174</ele>
        <time>2018-01-05T11:51:12Z</time>
      </trkpt>
      <trkpt lat="45.97945" lon="4.75724">
        <ele>174</ele>
        <time>2018-01-05T11:51:13Z</time>
      </trkpt>
      <trkpt lat="45.97941" lon="4.75722">
        <ele>174</ele>
        <time>2018-01-05T11:51:14Z</time>
      </trkpt>
      <trkpt lat="45.97936" lon="4.75719">
        <ele>174</ele>
        <time>2018-01-05T11:51:15Z</time>
      </trkpt>
      <trkpt lat="45.97932" lon="4.75716">
        <ele>174</ele>
        <time>2018-01-05T11:51:16Z</time>
      </trkpt>
      <trkpt lat="45.97927" lon="4.75714">
        <ele>174</ele>
        <time>2018-01-05T11:51:17Z</time>
      </trkpt>
      <trkpt lat="45.97922" lon="4.75712">
        <ele>174</ele>
        <time>2018-01-05T11:51:18Z</time>
      </trkpt>
      <trkpt lat="45.97917" lon="4.75709">
        <ele>174</ele>
        <time>2018-01-05T11:51:19Z</time>
      </trkpt>
      <trkpt lat="45.97911" lon="4.75705">
        <ele>175</ele>
        <time>2018-01-05T11:51:20Z</time>
      </trkpt>
      <trkpt lat="45.97907" lon="4.75702">
        <ele>175</ele>
        <time>2018-01-05T11:51:21Z</time>
      </trkpt>
      <trkpt lat="45.97902" lon="4.75699">
        <ele>175</ele>
        <time>2018-01-05T11:51:22Z</time>
      </trkpt>
      <trkpt lat="45.97897" lon="4.75696">
        <ele>175</ele>
        <time>2018-01-05T11:51:23Z</time>
      </trkpt>
      <trkpt lat="45.97892" lon="4.75693">
        <ele>175</ele>
        <time>2018-01-05T11:51:24Z</time>
      </trkpt>
      <trkpt lat="45.97888" lon="4.75691">
        <ele>175</ele>
        <time>2018-01-05T11:51:25Z</time>
      </trkpt>
      <trkpt lat="45.97884" lon="4.75688">
        <ele>175</ele>
        <time>2018-01-05T11:51:26Z</time>
      </trkpt>
      <trkpt lat="45.97878" lon="4.75685">
        <ele>175</ele>
        <time>2018-01-05T11:51:27Z</time>
      </trkpt>
      <trkpt lat="45.97872" lon="4.75682">
        <ele>175</ele>
        <time>2018-01-05T11:51:28Z</time>
      </trkpt>
      <trkpt lat="45.97867" lon="4.7568">
        <ele>175</ele>
        <time>2018-01-05T11:51:29Z</time>
      </trkpt>
      <trkpt lat="45.97861" lon="4.75678">
        <ele>175</ele>
        <time>2018-01-05T11:51:30Z</time>
      </trkpt>
      <trkpt lat="45.97856" lon="4.75677">
        <ele>175</ele>
        <time>2018-01-05T11:51:31Z</time>
      </trkpt>
      <trkpt lat="45.97851" lon="4.75675">
        <ele>175</ele>
        <time>2018-01-05T11:51:32Z</time>
      </trkpt>
      <trkpt lat="45.97844" lon="4.75673">
        <ele>175</ele>
        <time>2018-01-05T11:51:33Z</time>
      </trkpt>
      <trkpt lat="45.9784" lon="4.75673">
        <ele>175</ele>
        <time>2018-01-05T11:51:34Z</time>
      </trkpt>
      <trkpt lat="45.97835" lon="4.75672">
        <ele>175</ele>
        <time>2018-01-05T11:51:35Z</time>
      </trkpt>
      <trkpt lat="45.97829" lon="4.75671">
        <ele>175</ele>
        <time>2018-01-05T11:51:36Z</time>
      </trkpt>
      <trkpt lat="45.97825" lon="4.7567">
        <ele>175</ele>
        <time>2018-01-05T11:51:37Z</time>
      </trkpt>
      <trkpt lat="45.9782" lon="4.75669">
        <ele>175</ele>
        <time>2018-01-05T11:51:38Z</time>
      </trkpt>
      <trkpt lat="45.97816" lon="4.75668">
        <ele>175</ele>
        <time>2018-01-05T11:51:39Z</time>
      </trkpt>
      <trkpt lat="45.97811" lon="4.75669">
        <ele>175</ele>
        <time>2018-01-05T11:51:40Z</time>
      </trkpt>
      <trkpt lat="45.97807" lon="4.75668">
        <ele>175</ele>
        <time>2018-01-05T11:51:41Z</time>
      </trkpt>
      <trkpt lat="45.97801" lon="4.75667">
        <ele>175</ele>
        <time>2018-01-05T11:51:42Z</time>
      </trkpt>
      <trkpt lat="45.97796" lon="4.75667">
        <ele>174</ele>
        <time>2018-01-05T11:51:43Z</time>
      </trkpt>
      <trkpt lat="45.97792" lon="4.75666">
        <ele>172</ele>
        <time>2018-01-05T11:51:44Z</time>
      </trkpt>
      <trkpt lat="45.97787" lon="4.75666">
        <ele>172</ele>
        <time>2018-01-05T11:51:45Z</time>
      </trkpt>
      <trkpt lat="45.97781" lon="4.75664">
        <ele>172</ele>
        <time>2018-01-05T11:51:46Z</time>
      </trkpt>
      <trkpt lat="45.97775" lon="4.75664">
        <ele>172</ele>
        <time>2018-01-05T11:51:47Z</time>
      </trkpt>
      <trkpt lat="45.9777" lon="4.75664">
        <ele>172</ele>
        <time>2018-01-05T11:51:48Z</time>
      </trkpt>
      <trkpt lat="45.97764" lon="4.75665">
        <ele>172</ele>
        <time>2018-01-05T11:51:49Z</time>
      </trkpt>
      <trkpt lat="45.9776" lon="4.75665">
        <ele>172</ele>
        <time>2018-01-05T11:51:50Z</time>
      </trkpt>
      <trkpt lat="45.97755" lon="4.75665">
        <ele>172</ele>
        <time>2018-01-05T11:51:51Z</time>
      </trkpt>
      <trkpt lat="45.97746" lon="4.75665">
        <ele>172</ele>
        <time>2018-01-05T11:51:53Z</time>
      </trkpt>
      <trkpt lat="45.97741" lon="4.75665">
        <ele>172</ele>
        <time>2018-01-05T11:51:54Z</time>
      </trkpt>
      <trkpt lat="45.97733" lon="4.75665">
        <ele>171</ele>
        <time>2018-01-05T11:51:56Z</time>
      </trkpt>
      <trkpt lat="45.97729" lon="4.75665">
        <ele>171</ele>
        <time>2018-01-05T11:51:57Z</time>
      </trkpt>
      <trkpt lat="45.9772" lon="4.75665">
        <ele>171</ele>
        <time>2018-01-05T11:51:59Z</time>
      </trkpt>
      <trkpt lat="45.97715" lon="4.75665">
        <ele>171</ele>
        <time>2018-01-05T11:52:00Z</time>
      </trkpt>
      <trkpt lat="45.97707" lon="4.75665">
        <ele>171</ele>
        <time>2018-01-05T11:52:02Z</time>
      </trkpt>
      <trkpt lat="45.97702" lon="4.75666">
        <ele>170</ele>
        <time>2018-01-05T11:52:03Z</time>
      </trkpt>
      <trkpt lat="45.97693" lon="4.75665">
        <ele>170</ele>
        <time>2018-01-05T11:52:05Z</time>
      </trkpt>
      <trkpt lat="45.97687" lon="4.75665">
        <ele>170</ele>
        <time>2018-01-05T11:52:06Z</time>
      </trkpt>
      <trkpt lat="45.97682" lon="4.75665">
        <ele>170</ele>
        <time>2018-01-05T11:52:07Z</time>
      </trkpt>
      <trkpt lat="45.97677" lon="4.75664">
        <ele>170</ele>
        <time>2018-01-05T11:52:08Z</time>
      </trkpt>
      <trkpt lat="45.97671" lon="4.75665">
        <ele>169</ele>
        <time>2018-01-05T11:52:09Z</time>
      </trkpt>
      <trkpt lat="45.97666" lon="4.75665">
        <ele>169</ele>
        <time>2018-01-05T11:52:10Z</time>
      </trkpt>
      <trkpt lat="45.97661" lon="4.75665">
        <ele>169</ele>
        <time>2018-01-05T11:52:11Z</time>
      </trkpt>
      <trkpt lat="45.97657" lon="4.75665">
        <ele>169</ele>
        <time>2018-01-05T11:52:12Z</time>
      </trkpt>
      <trkpt lat="45.97648" lon="4.75666">
        <ele>169</ele>
        <time>2018-01-05T11:52:14Z</time>
      </trkpt>
      <trkpt lat="45.97643" lon="4.75666">
        <ele>169</ele>
        <time>2018-01-05T11:52:15Z</time>
      </trkpt>
      <trkpt lat="45.97638" lon="4.75667">
        <ele>170</ele>
        <time>2018-01-05T11:52:16Z</time>
      </trkpt>
      <trkpt lat="45.97634" lon="4.75667">
        <ele>170</ele>
        <time>2018-01-05T11:52:17Z</time>
      </trkpt>
      <trkpt lat="45.97629" lon="4.75667">
        <ele>171</ele>
        <time>2018-01-05T11:52:18Z</time>
      </trkpt>
      <trkpt lat="45.97623" lon="4.75666">
        <ele>170</ele>
        <time>2018-01-05T11:52:19Z</time>
      </trkpt>
      <trkpt lat="45.97618" lon="4.75667">
        <ele>171</ele>
        <time>2018-01-05T11:52:20Z</time>
      </trkpt>
      <trkpt lat="45.97614" lon="4.75668">
        <ele>171</ele>
        <time>2018-01-05T11:52:21Z</time>
      </trkpt>
      <trkpt lat="45.97605" lon="4.75671">
        <ele>171</ele>
        <time>2018-01-05T11:52:23Z</time>
      </trkpt>
      <trkpt lat="45.97602" lon="4.75674">
        <ele>171</ele>
        <time>2018-01-05T11:52:24Z</time>
      </trkpt>
      <trkpt lat="45.97597" lon="4.75676">
        <ele>171</ele>
        <time>2018-01-05T11:52:25Z</time>
      </trkpt>
      <trkpt lat="45.97593" lon="4.75679">
        <ele>171</ele>
        <time>2018-01-05T11:52:26Z</time>
      </trkpt>
      <trkpt lat="45.97586" lon="4.75682">
        <ele>171</ele>
        <time>2018-01-05T11:52:28Z</time>
      </trkpt>
      <trkpt lat="45.97581" lon="4.75683">
        <ele>171</ele>
        <time>2018-01-05T11:52:29Z</time>
      </trkpt>
      <trkpt lat="45.97577" lon="4.7568">
        <ele>171</ele>
        <time>2018-01-05T11:52:30Z</time>
      </trkpt>
      <trkpt lat="45.97574" lon="4.75675">
        <ele>171</ele>
        <time>2018-01-05T11:52:31Z</time>
      </trkpt>
      <trkpt lat="45.97567" lon="4.75667">
        <ele>171</ele>
        <time>2018-01-05T11:52:33Z</time>
      </trkpt>
      <trkpt lat="45.97562" lon="4.75664">
        <ele>170</ele>
        <time>2018-01-05T11:52:34Z</time>
      </trkpt>
      <trkpt lat="45.97554" lon="4.75661">
        <ele>169</ele>
        <time>2018-01-05T11:52:36Z</time>
      </trkpt>
      <trkpt lat="45.97549" lon="4.75659">
        <ele>169</ele>
        <time>2018-01-05T11:52:37Z</time>
      </trkpt>
      <trkpt lat="45.97544" lon="4.75657">
        <ele>169</ele>
        <time>2018-01-05T11:52:38Z</time>
      </trkpt>
      <trkpt lat="45.97539" lon="4.75656">
        <ele>169</ele>
        <time>2018-01-05T11:52:39Z</time>
      </trkpt>
      <trkpt lat="45.97535" lon="4.75656">
        <ele>169</ele>
        <time>2018-01-05T11:52:40Z</time>
      </trkpt>
      <trkpt lat="45.9753" lon="4.75657">
        <ele>169</ele>
        <time>2018-01-05T11:52:41Z</time>
      </trkpt>
      <trkpt lat="45.97525" lon="4.7566">
        <ele>169</ele>
        <time>2018-01-05T11:52:42Z</time>
      </trkpt>
      <trkpt lat="45.9752" lon="4.75662">
        <ele>169</ele>
        <time>2018-01-05T11:52:43Z</time>
      </trkpt>
      <trkpt lat="45.97515" lon="4.75663">
        <ele>169</ele>
        <time>2018-01-05T11:52:44Z</time>
      </trkpt>
      <trkpt lat="45.97511" lon="4.75665">
        <ele>169</ele>
        <time>2018-01-05T11:52:45Z</time>
      </trkpt>
      <trkpt lat="45.97506" lon="4.75666">
        <ele>170</ele>
        <time>2018-01-05T11:52:46Z</time>
      </trkpt>
      <trkpt lat="45.97501" lon="4.75668">
        <ele>170</ele>
        <time>2018-01-05T11:52:47Z</time>
      </trkpt>
      <trkpt lat="45.97496" lon="4.75669">
        <ele>170</ele>
        <time>2018-01-05T11:52:48Z</time>
      </trkpt>
      <trkpt lat="45.97491" lon="4.7567">
        <ele>170</ele>
        <time>2018-01-05T11:52:49Z</time>
      </trkpt>
      <trkpt lat="45.97486" lon="4.7567">
        <ele>170</ele>
        <time>2018-01-05T11:52:50Z</time>
      </trkpt>
      <trkpt lat="45.97481" lon="4.75671">
        <ele>170</ele>
        <time>2018-01-05T11:52:51Z</time>
      </trkpt>
      <trkpt lat="45.97477" lon="4.75672">
        <ele>171</ele>
        <time>2018-01-05T11:52:52Z</time>
      </trkpt>
      <trkpt lat="45.97472" lon="4.75674">
        <ele>171</ele>
        <time>2018-01-05T11:52:53Z</time>
      </trkpt>
      <trkpt lat="45.97468" lon="4.75674">
        <ele>171</ele>
        <time>2018-01-05T11:52:54Z</time>
      </trkpt>
      <trkpt lat="45.97462" lon="4.75674">
        <ele>171</ele>
        <time>2018-01-05T11:52:55Z</time>
      </trkpt>
      <trkpt lat="45.97455" lon="4.75676">
        <ele>170</ele>
        <time>2018-01-05T11:52:57Z</time>
      </trkpt>
      <trkpt lat="45.97452" lon="4.75676">
        <ele>170</ele>
        <time>2018-01-05T11:52:58Z</time>
      </trkpt>
      <trkpt lat="45.97443" lon="4.75677">
        <ele>170</ele>
        <time>2018-01-05T11:53:00Z</time>
      </trkpt>
      <trkpt lat="45.97438" lon="4.75677">
        <ele>170</ele>
        <time>2018-01-05T11:53:01Z</time>
      </trkpt>
      <trkpt lat="45.97434" lon="4.75677">
        <ele>170</ele>
        <time>2018-01-05T11:53:02Z</time>
      </trkpt>
      <trkpt lat="45.97429" lon="4.75677">
        <ele>170</ele>
        <time>2018-01-05T11:53:03Z</time>
      </trkpt>
      <trkpt lat="45.97421" lon="4.75677">
        <ele>170</ele>
        <time>2018-01-05T11:53:05Z</time>
      </trkpt>
      <trkpt lat="45.97415" lon="4.75678">
        <ele>171</ele>
        <time>2018-01-05T11:53:06Z</time>
      </trkpt>
      <trkpt lat="45.97411" lon="4.75678">
        <ele>171</ele>
        <time>2018-01-05T11:53:07Z</time>
      </trkpt>
      <trkpt lat="45.97405" lon="4.75678">
        <ele>171</ele>
        <time>2018-01-05T11:53:08Z</time>
      </trkpt>
      <trkpt lat="45.974" lon="4.75678">
        <ele>172</ele>
        <time>2018-01-05T11:53:09Z</time>
      </trkpt>
      <trkpt lat="45.97395" lon="4.75679">
        <ele>172</ele>
        <time>2018-01-05T11:53:10Z</time>
      </trkpt>
      <trkpt lat="45.9739" lon="4.75679">
        <ele>173</ele>
        <time>2018-01-05T11:53:11Z</time>
      </trkpt>
      <trkpt lat="45.97385" lon="4.75679">
        <ele>173</ele>
        <time>2018-01-05T11:53:12Z</time>
      </trkpt>
      <trkpt lat="45.9738" lon="4.75679">
        <ele>173</ele>
        <time>2018-01-05T11:53:13Z</time>
      </trkpt>
      <trkpt lat="45.97376" lon="4.75679">
        <ele>173</ele>
        <time>2018-01-05T11:53:14Z</time>
      </trkpt>
      <trkpt lat="45.97367" lon="4.75678">
        <ele>174</ele>
        <time>2018-01-05T11:53:16Z</time>
      </trkpt>
      <trkpt lat="45.97362" lon="4.75678">
        <ele>174</ele>
        <time>2018-01-05T11:53:17Z</time>
      </trkpt>
      <trkpt lat="45.97358" lon="4.75678">
        <ele>174</ele>
        <time>2018-01-05T11:53:18Z</time>
      </trkpt>
      <trkpt lat="45.97352" lon="4.75677">
        <ele>175</ele>
        <time>2018-01-05T11:53:19Z</time>
      </trkpt>
      <trkpt lat="45.97344" lon="4.75675">
        <ele>175</ele>
        <time>2018-01-05T11:53:21Z</time>
      </trkpt>
      <trkpt lat="45.97339" lon="4.75675">
        <ele>175</ele>
        <time>2018-01-05T11:53:22Z</time>
      </trkpt>
      <trkpt lat="45.97334" lon="4.75675">
        <ele>175</ele>
        <time>2018-01-05T11:53:23Z</time>
      </trkpt>
      <trkpt lat="45.97329" lon="4.75674">
        <ele>176</ele>
        <time>2018-01-05T11:53:24Z</time>
      </trkpt>
      <trkpt lat="45.97324" lon="4.75674">
        <ele>176</ele>
        <time>2018-01-05T11:53:25Z</time>
      </trkpt>
      <trkpt lat="45.97319" lon="4.75672">
        <ele>176</ele>
        <time>2018-01-05T11:53:26Z</time>
      </trkpt>
      <trkpt lat="45.97314" lon="4.75672">
        <ele>176</ele>
        <time>2018-01-05T11:53:27Z</time>
      </trkpt>
      <trkpt lat="45.97309" lon="4.75671">
        <ele>176</ele>
        <time>2018-01-05T11:53:28Z</time>
      </trkpt>
      <trkpt lat="45.973" lon="4.75669">
        <ele>176</ele>
        <time>2018-01-05T11:53:30Z</time>
      </trkpt>
      <trkpt lat="45.97295" lon="4.75669">
        <ele>176</ele>
        <time>2018-01-05T11:53:31Z</time>
      </trkpt>
      <trkpt lat="45.97286" lon="4.75668">
        <ele>176</ele>
        <time>2018-01-05T11:53:33Z</time>
      </trkpt>
      <trkpt lat="45.97282" lon="4.75667">
        <ele>176</ele>
        <time>2018-01-05T11:53:34Z</time>
      </trkpt>
      <trkpt lat="45.97277" lon="4.75666">
        <ele>172</ele>
        <time>2018-01-05T11:53:35Z</time>
      </trkpt>
      <trkpt lat="45.97272" lon="4.75664">
        <ele>172</ele>
        <time>2018-01-05T11:53:36Z</time>
      </trkpt>
      <trkpt lat="45.97267" lon="4.75663">
        <ele>172</ele>
        <time>2018-01-05T11:53:37Z</time>
      </trkpt>
      <trkpt lat="45.97262" lon="4.75663">
        <ele>173</ele>
        <time>2018-01-05T11:53:38Z</time>
      </trkpt>
      <trkpt lat="45.97255" lon="4.75662">
        <ele>173</ele>
        <time>2018-01-05T11:53:40Z</time>
      </trkpt>
      <trkpt lat="45.9725" lon="4.7566">
        <ele>174</ele>
        <time>2018-01-05T11:53:41Z</time>
      </trkpt>
      <trkpt lat="45.97245" lon="4.75659">
        <ele>173</ele>
        <time>2018-01-05T11:53:42Z</time>
      </trkpt>
      <trkpt lat="45.9724" lon="4.75658">
        <ele>173</ele>
        <time>2018-01-05T11:53:43Z</time>
      </trkpt>
      <trkpt lat="45.97235" lon="4.75656">
        <ele>173</ele>
        <time>2018-01-05T11:53:44Z</time>
      </trkpt>
      <trkpt lat="45.97231" lon="4.75654">
        <ele>173</ele>
        <time>2018-01-05T11:53:45Z</time>
      </trkpt>
      <trkpt lat="45.97226" lon="4.75652">
        <ele>173</ele>
        <time>2018-01-05T11:53:46Z</time>
      </trkpt>
      <trkpt lat="45.9722" lon="4.7565">
        <ele>173</ele>
        <time>2018-01-05T11:53:47Z</time>
      </trkpt>
      <trkpt lat="45.97215" lon="4.75648">
        <ele>173</ele>
        <time>2018-01-05T11:53:48Z</time>
      </trkpt>
      <trkpt lat="45.9721" lon="4.75646">
        <ele>173</ele>
        <time>2018-01-05T11:53:49Z</time>
      </trkpt>
      <trkpt lat="45.97204" lon="4.75645">
        <ele>173</ele>
        <time>2018-01-05T11:53:50Z</time>
      </trkpt>
      <trkpt lat="45.972" lon="4.75644">
        <ele>173</ele>
        <time>2018-01-05T11:53:51Z</time>
      </trkpt>
      <trkpt lat="45.97191" lon="4.7564">
        <ele>174</ele>
        <time>2018-01-05T11:53:53Z</time>
      </trkpt>
      <trkpt lat="45.97187" lon="4.75638">
        <ele>174</ele>
        <time>2018-01-05T11:53:54Z</time>
      </trkpt>
      <trkpt lat="45.97182" lon="4.75637">
        <ele>174</ele>
        <time>2018-01-05T11:53:55Z</time>
      </trkpt>
      <trkpt lat="45.97177" lon="4.75635">
        <ele>174</ele>
        <time>2018-01-05T11:53:56Z</time>
      </trkpt>
      <trkpt lat="45.97172" lon="4.75632">
        <ele>174</ele>
        <time>2018-01-05T11:53:57Z</time>
      </trkpt>
      <trkpt lat="45.97168" lon="4.75632">
        <ele>174</ele>
        <time>2018-01-05T11:53:58Z</time>
      </trkpt>
      <trkpt lat="45.97163" lon="4.75629">
        <ele>176</ele>
        <time>2018-01-05T11:53:59Z</time>
      </trkpt>
      <trkpt lat="45.97157" lon="4.75626">
        <ele>176</ele>
        <time>2018-01-05T11:54:00Z</time>
      </trkpt>
      <trkpt lat="45.97152" lon="4.75623">
        <ele>176</ele>
        <time>2018-01-05T11:54:01Z</time>
      </trkpt>
      <trkpt lat="45.97147" lon="4.7562">
        <ele>176</ele>
        <time>2018-01-05T11:54:02Z</time>
      </trkpt>
      <trkpt lat="45.9714" lon="4.75617">
        <ele>176</ele>
        <time>2018-01-05T11:54:03Z</time>
      </trkpt>
      <trkpt lat="45.97136" lon="4.75614">
        <ele>176</ele>
        <time>2018-01-05T11:54:04Z</time>
      </trkpt>
      <trkpt lat="45.97131" lon="4.75611">
        <ele>176</ele>
        <time>2018-01-05T11:54:05Z</time>
      </trkpt>
      <trkpt lat="45.97125" lon="4.75609">
        <ele>176</ele>
        <time>2018-01-05T11:54:06Z</time>
      </trkpt>
      <trkpt lat="45.97119" lon="4.75607">
        <ele>176</ele>
        <time>2018-01-05T11:54:07Z</time>
      </trkpt>
      <trkpt lat="45.97114" lon="4.75604">
        <ele>176</ele>
        <time>2018-01-05T11:54:08Z</time>
      </trkpt>
      <trkpt lat="45.97109" lon="4.75601">
        <ele>176</ele>
        <time>2018-01-05T11:54:09Z</time>
      </trkpt>
      <trkpt lat="45.97103" lon="4.75598">
        <ele>176</ele>
        <time>2018-01-05T11:54:10Z</time>
      </trkpt>
      <trkpt lat="45.97099" lon="4.75595">
        <ele>176</ele>
        <time>2018-01-05T11:54:11Z</time>
      </trkpt>
      <trkpt lat="45.97093" lon="4.75593">
        <ele>176</ele>
        <time>2018-01-05T11:54:12Z</time>
      </trkpt>
      <trkpt lat="45.97088" lon="4.75591">
        <ele>176</ele>
        <time>2018-01-05T11:54:13Z</time>
      </trkpt>
      <trkpt lat="45.97083" lon="4.75589">
        <ele>176</ele>
        <time>2018-01-05T11:54:14Z</time>
      </trkpt>
      <trkpt lat="45.97079" lon="4.75587">
        <ele>177</ele>
        <time>2018-01-05T11:54:15Z</time>
      </trkpt>
      <trkpt lat="45.97074" lon="4.75585">
        <ele>177</ele>
        <time>2018-01-05T11:54:16Z</time>
      </trkpt>
      <trkpt lat="45.9707" lon="4.75583">
        <ele>178</ele>
        <time>2018-01-05T11:54:17Z</time>
      </trkpt>
      <trkpt lat="45.97065" lon="4.75582">
        <ele>174</ele>
        <time>2018-01-05T11:54:18Z</time>
      </trkpt>
      <trkpt lat="45.9706" lon="4.7558">
        <ele>174</ele>
        <time>2018-01-05T11:54:19Z</time>
      </trkpt>
      <trkpt lat="45.97055" lon="4.7558">
        <ele>174</ele>
        <time>2018-01-05T11:54:20Z</time>
      </trkpt>
      <trkpt lat="45.97051" lon="4.75578">
        <ele>174</ele>
        <time>2018-01-05T11:54:21Z</time>
      </trkpt>
      <trkpt lat="45.97045" lon="4.75576">
        <ele>174</ele>
        <time>2018-01-05T11:54:22Z</time>
      </trkpt>
      <trkpt lat="45.97042" lon="4.75574">
        <ele>174</ele>
        <time>2018-01-05T11:54:23Z</time>
      </trkpt>
      <trkpt lat="45.97037" lon="4.75572">
        <ele>174</ele>
        <time>2018-01-05T11:54:24Z</time>
      </trkpt>
      <trkpt lat="45.9703" lon="4.7557">
        <ele>174</ele>
        <time>2018-01-05T11:54:25Z</time>
      </trkpt>
      <trkpt lat="45.97025" lon="4.75567">
        <ele>174</ele>
        <time>2018-01-05T11:54:26Z</time>
      </trkpt>
      <trkpt lat="45.9702" lon="4.75565">
        <ele>174</ele>
        <time>2018-01-05T11:54:27Z</time>
      </trkpt>
      <trkpt lat="45.97014" lon="4.75563">
        <ele>175</ele>
        <time>2018-01-05T11:54:28Z</time>
      </trkpt>
      <trkpt lat="45.97009" lon="4.75561">
        <ele>175</ele>
        <time>2018-01-05T11:54:29Z</time>
      </trkpt>
      <trkpt lat="45.97005" lon="4.75559">
        <ele>174</ele>
        <time>2018-01-05T11:54:30Z</time>
      </trkpt>
      <trkpt lat="45.97" lon="4.75556">
        <ele>176</ele>
        <time>2018-01-05T11:54:31Z</time>
      </trkpt>
      <trkpt lat="45.96995" lon="4.75555">
        <ele>176</ele>
        <time>2018-01-05T11:54:32Z</time>
      </trkpt>
      <trkpt lat="45.9699" lon="4.75552">
        <ele>176</ele>
        <time>2018-01-05T11:54:33Z</time>
      </trkpt>
      <trkpt lat="45.96985" lon="4.75551">
        <ele>175</ele>
        <time>2018-01-05T11:54:34Z</time>
      </trkpt>
      <trkpt lat="45.9698" lon="4.75549">
        <ele>175</ele>
        <time>2018-01-05T11:54:35Z</time>
      </trkpt>
      <trkpt lat="45.96976" lon="4.75547">
        <ele>175</ele>
        <time>2018-01-05T11:54:36Z</time>
      </trkpt>
      <trkpt lat="45.96968" lon="4.75544">
        <ele>175</ele>
        <time>2018-01-05T11:54:38Z</time>
      </trkpt>
      <trkpt lat="45.96963" lon="4.75542">
        <ele>175</ele>
        <time>2018-01-05T11:54:39Z</time>
      </trkpt>
      <trkpt lat="45.96959" lon="4.7554">
        <ele>175</ele>
        <time>2018-01-05T11:54:40Z</time>
      </trkpt>
      <trkpt lat="45.96955" lon="4.75539">
        <ele>175</ele>
        <time>2018-01-05T11:54:41Z</time>
      </trkpt>
      <trkpt lat="45.9695" lon="4.75537">
        <ele>175</ele>
        <time>2018-01-05T11:54:42Z</time>
      </trkpt>
      <trkpt lat="45.96946" lon="4.75535">
        <ele>175</ele>
        <time>2018-01-05T11:54:43Z</time>
      </trkpt>
      <trkpt lat="45.96941" lon="4.75534">
        <ele>175</ele>
        <time>2018-01-05T11:54:44Z</time>
      </trkpt>
      <trkpt lat="45.96936" lon="4.75532">
        <ele>175</ele>
        <time>2018-01-05T11:54:45Z</time>
      </trkpt>
      <trkpt lat="45.9693" lon="4.7553">
        <ele>175</ele>
        <time>2018-01-05T11:54:46Z</time>
      </trkpt>
      <trkpt lat="45.96925" lon="4.75528">
        <ele>175</ele>
        <time>2018-01-05T11:54:47Z</time>
      </trkpt>
      <trkpt lat="45.9692" lon="4.75526">
        <ele>175</ele>
        <time>2018-01-05T11:54:48Z</time>
      </trkpt>
      <trkpt lat="45.96915" lon="4.75524">
        <ele>178</ele>
        <time>2018-01-05T11:54:49Z</time>
      </trkpt>
      <trkpt lat="45.96909" lon="4.75522">
        <ele>178</ele>
        <time>2018-01-05T11:54:50Z</time>
      </trkpt>
      <trkpt lat="45.96904" lon="4.7552">
        <ele>178</ele>
        <time>2018-01-05T11:54:51Z</time>
      </trkpt>
      <trkpt lat="45.96898" lon="4.75518">
        <ele>178</ele>
        <time>2018-01-05T11:54:52Z</time>
      </trkpt>
      <trkpt lat="45.96893" lon="4.75516">
        <ele>178</ele>
        <time>2018-01-05T11:54:53Z</time>
      </trkpt>
      <trkpt lat="45.96887" lon="4.75514">
        <ele>178</ele>
        <time>2018-01-05T11:54:54Z</time>
      </trkpt>
      <trkpt lat="45.96882" lon="4.75512">
        <ele>179</ele>
        <time>2018-01-05T11:54:55Z</time>
      </trkpt>
      <trkpt lat="45.96877" lon="4.7551">
        <ele>179</ele>
        <time>2018-01-05T11:54:56Z</time>
      </trkpt>
      <trkpt lat="45.96873" lon="4.75508">
        <ele>179</ele>
        <time>2018-01-05T11:54:57Z</time>
      </trkpt>
      <trkpt lat="45.96864" lon="4.75505">
        <ele>178</ele>
        <time>2018-01-05T11:54:59Z</time>
      </trkpt>
      <trkpt lat="45.9686" lon="4.75503">
        <ele>178</ele>
        <time>2018-01-05T11:55:00Z</time>
      </trkpt>
      <trkpt lat="45.96852" lon="4.755">
        <ele>172</ele>
        <time>2018-01-05T11:55:02Z</time>
      </trkpt>
      <trkpt lat="45.96848" lon="4.75499">
        <ele>172</ele>
        <time>2018-01-05T11:55:03Z</time>
      </trkpt>
      <trkpt lat="45.9684" lon="4.75496">
        <ele>173</ele>
        <time>2018-01-05T11:55:05Z</time>
      </trkpt>
      <trkpt lat="45.96836" lon="4.75494">
        <ele>173</ele>
        <time>2018-01-05T11:55:06Z</time>
      </trkpt>
      <trkpt lat="45.96831" lon="4.75492">
        <ele>174</ele>
        <time>2018-01-05T11:55:07Z</time>
      </trkpt>
      <trkpt lat="45.96826" lon="4.75491">
        <ele>174</ele>
        <time>2018-01-05T11:55:08Z</time>
      </trkpt>
      <trkpt lat="45.96817" lon="4.75487">
        <ele>174</ele>
        <time>2018-01-05T11:55:10Z</time>
      </trkpt>
      <trkpt lat="45.96813" lon="4.75485">
        <ele>174</ele>
        <time>2018-01-05T11:55:11Z</time>
      </trkpt>
      <trkpt lat="45.96808" lon="4.75483">
        <ele>174</ele>
        <time>2018-01-05T11:55:12Z</time>
      </trkpt>
      <trkpt lat="45.96803" lon="4.75481">
        <ele>174</ele>
        <time>2018-01-05T11:55:13Z</time>
      </trkpt>
      <trkpt lat="45.96798" lon="4.75478">
        <ele>174</ele>
        <time>2018-01-05T11:55:14Z</time>
      </trkpt>
      <trkpt lat="45.96792" lon="4.75476">
        <ele>174</ele>
        <time>2018-01-05T11:55:15Z</time>
      </trkpt>
      <trkpt lat="45.96787" lon="4.75474">
        <ele>174</ele>
        <time>2018-01-05T11:55:16Z</time>
      </trkpt>
      <trkpt lat="45.96782" lon="4.75471">
        <ele>175</ele>
        <time>2018-01-05T11:55:17Z</time>
      </trkpt>
      <trkpt lat="45.96776" lon="4.7547">
        <ele>175</ele>
        <time>2018-01-05T11:55:18Z</time>
      </trkpt>
      <trkpt lat="45.96771" lon="4.75467">
        <ele>175</ele>
        <time>2018-01-05T11:55:19Z</time>
      </trkpt>
      <trkpt lat="45.96766" lon="4.75465">
        <ele>175</ele>
        <time>2018-01-05T11:55:20Z</time>
      </trkpt>
      <trkpt lat="45.9676" lon="4.75461">
        <ele>174</ele>
        <time>2018-01-05T11:55:21Z</time>
      </trkpt>
      <trkpt lat="45.96755" lon="4.75458">
        <ele>174</ele>
        <time>2018-01-05T11:55:22Z</time>
      </trkpt>
      <trkpt lat="45.9675" lon="4.75456">
        <ele>179</ele>
        <time>2018-01-05T11:55:23Z</time>
      </trkpt>
      <trkpt lat="45.96744" lon="4.75453">
        <ele>179</ele>
        <time>2018-01-05T11:55:24Z</time>
      </trkpt>
      <trkpt lat="45.96739" lon="4.7545">
        <ele>179</ele>
        <time>2018-01-05T11:55:25Z</time>
      </trkpt>
      <trkpt lat="45.96733" lon="4.75447">
        <ele>179</ele>
        <time>2018-01-05T11:55:26Z</time>
      </trkpt>
      <trkpt lat="45.96728" lon="4.75444">
        <ele>179</ele>
        <time>2018-01-05T11:55:27Z</time>
      </trkpt>
      <trkpt lat="45.96723" lon="4.75443">
        <ele>179</ele>
        <time>2018-01-05T11:55:28Z</time>
      </trkpt>
      <trkpt lat="45.96718" lon="4.75438">
        <ele>179</ele>
        <time>2018-01-05T11:55:29Z</time>
      </trkpt>
      <trkpt lat="45.96712" lon="4.75435">
        <ele>179</ele>
        <time>2018-01-05T11:55:30Z</time>
      </trkpt>
      <trkpt lat="45.96707" lon="4.75432">
        <ele>179</ele>
        <time>2018-01-05T11:55:31Z</time>
      </trkpt>
      <trkpt lat="45.96702" lon="4.7543">
        <ele>179</ele>
        <time>2018-01-05T11:55:32Z</time>
      </trkpt>
      <trkpt lat="45.96697" lon="4.75427">
        <ele>179</ele>
        <time>2018-01-05T11:55:33Z</time>
      </trkpt>
      <trkpt lat="45.96692" lon="4.75424">
        <ele>179</ele>
        <time>2018-01-05T11:55:34Z</time>
      </trkpt>
      <trkpt lat="45.96687" lon="4.7542">
        <ele>179</ele>
        <time>2018-01-05T11:55:35Z</time>
      </trkpt>
      <trkpt lat="45.96682" lon="4.75418">
        <ele>178</ele>
        <time>2018-01-05T11:55:36Z</time>
      </trkpt>
      <trkpt lat="45.96676" lon="4.75415">
        <ele>174</ele>
        <time>2018-01-05T11:55:37Z</time>
      </trkpt>
      <trkpt lat="45.96671" lon="4.75412">
        <ele>174</ele>
        <time>2018-01-05T11:55:38Z</time>
      </trkpt>
      <trkpt lat="45.96666" lon="4.7541">
        <ele>177</ele>
        <time>2018-01-05T11:55:39Z</time>
      </trkpt>
      <trkpt lat="45.96661" lon="4.75407">
        <ele>177</ele>
        <time>2018-01-05T11:55:40Z</time>
      </trkpt>
      <trkpt lat="45.96656" lon="4.75405">
        <ele>178</ele>
        <time>2018-01-05T11:55:41Z</time>
      </trkpt>
      <trkpt lat="45.96648" lon="4.75399">
        <ele>179</ele>
        <time>2018-01-05T11:55:43Z</time>
      </trkpt>
      <trkpt lat="45.96644" lon="4.75396">
        <ele>179</ele>
        <time>2018-01-05T11:55:44Z</time>
      </trkpt>
      <trkpt lat="45.96638" lon="4.75393">
        <ele>179</ele>
        <time>2018-01-05T11:55:45Z</time>
      </trkpt>
      <trkpt lat="45.96633" lon="4.7539">
        <ele>180</ele>
        <time>2018-01-05T11:55:46Z</time>
      </trkpt>
      <trkpt lat="45.96628" lon="4.75388">
        <ele>180</ele>
        <time>2018-01-05T11:55:47Z</time>
      </trkpt>
      <trkpt lat="45.96623" lon="4.75387">
        <ele>181</ele>
        <time>2018-01-05T11:55:48Z</time>
      </trkpt>
      <trkpt lat="45.96618" lon="4.75384">
        <ele>181</ele>
        <time>2018-01-05T11:55:49Z</time>
      </trkpt>
      <trkpt lat="45.96613" lon="4.75381">
        <ele>181</ele>
        <time>2018-01-05T11:55:50Z</time>
      </trkpt>
      <trkpt lat="45.96608" lon="4.75378">
        <ele>181</ele>
        <time>2018-01-05T11:55:51Z</time>
      </trkpt>
      <trkpt lat="45.96603" lon="4.75376">
        <ele>181</ele>
        <time>2018-01-05T11:55:52Z</time>
      </trkpt>
      <trkpt lat="45.96598" lon="4.75373">
        <ele>181</ele>
        <time>2018-01-05T11:55:53Z</time>
      </trkpt>
      <trkpt lat="45.96593" lon="4.7537">
        <ele>181</ele>
        <time>2018-01-05T11:55:54Z</time>
      </trkpt>
      <trkpt lat="45.96588" lon="4.75368">
        <ele>181</ele>
        <time>2018-01-05T11:55:55Z</time>
      </trkpt>
      <trkpt lat="45.96584" lon="4.75366">
        <ele>181</ele>
        <time>2018-01-05T11:55:56Z</time>
      </trkpt>
      <trkpt lat="45.96579" lon="4.75363">
        <ele>189</ele>
        <time>2018-01-05T11:55:57Z</time>
      </trkpt>
      <trkpt lat="45.96574" lon="4.75359">
        <ele>188</ele>
        <time>2018-01-05T11:55:58Z</time>
      </trkpt>
      <trkpt lat="45.96569" lon="4.75355">
        <ele>188</ele>
        <time>2018-01-05T11:55:59Z</time>
      </trkpt>
      <trkpt lat="45.96564" lon="4.75352">
        <ele>188</ele>
        <time>2018-01-05T11:56:00Z</time>
      </trkpt>
      <trkpt lat="45.96559" lon="4.75348">
        <ele>188</ele>
        <time>2018-01-05T11:56:01Z</time>
      </trkpt>
      <trkpt lat="45.96553" lon="4.75346">
        <ele>189</ele>
        <time>2018-01-05T11:56:02Z</time>
      </trkpt>
      <trkpt lat="45.96549" lon="4.75343">
        <ele>189</ele>
        <time>2018-01-05T11:56:03Z</time>
      </trkpt>
      <trkpt lat="45.96545" lon="4.7534">
        <ele>189</ele>
        <time>2018-01-05T11:56:04Z</time>
      </trkpt>
      <trkpt lat="45.9654" lon="4.75337">
        <ele>190</ele>
        <time>2018-01-05T11:56:05Z</time>
      </trkpt>
      <trkpt lat="45.96534" lon="4.75335">
        <ele>190</ele>
        <time>2018-01-05T11:56:06Z</time>
      </trkpt>
      <trkpt lat="45.96529" lon="4.75332">
        <ele>179</ele>
        <time>2018-01-05T11:56:07Z</time>
      </trkpt>
      <trkpt lat="45.96523" lon="4.75329">
        <ele>180</ele>
        <time>2018-01-05T11:56:08Z</time>
      </trkpt>
      <trkpt lat="45.96518" lon="4.75326">
        <ele>181</ele>
        <time>2018-01-05T11:56:09Z</time>
      </trkpt>
      <trkpt lat="45.96513" lon="4.75324">
        <ele>182</ele>
        <time>2018-01-05T11:56:10Z</time>
      </trkpt>
      <trkpt lat="45.96509" lon="4.75322">
        <ele>182</ele>
        <time>2018-01-05T11:56:11Z</time>
      </trkpt>
      <trkpt lat="45.96505" lon="4.7532">
        <ele>182</ele>
        <time>2018-01-05T11:56:12Z</time>
      </trkpt>
      <trkpt lat="45.96499" lon="4.75316">
        <ele>187</ele>
        <time>2018-01-05T11:56:13Z</time>
      </trkpt>
      <trkpt lat="45.96496" lon="4.75313">
        <ele>186</ele>
        <time>2018-01-05T11:56:14Z</time>
      </trkpt>
      <trkpt lat="45.96491" lon="4.7531">
        <ele>186</ele>
        <time>2018-01-05T11:56:15Z</time>
      </trkpt>
      <trkpt lat="45.96486" lon="4.75307">
        <ele>186</ele>
        <time>2018-01-05T11:56:16Z</time>
      </trkpt>
      <trkpt lat="45.96481" lon="4.75305">
        <ele>186</ele>
        <time>2018-01-05T11:56:17Z</time>
      </trkpt>
      <trkpt lat="45.96477" lon="4.75303">
        <ele>186</ele>
        <time>2018-01-05T11:56:18Z</time>
      </trkpt>
      <trkpt lat="45.96469" lon="4.75298">
        <ele>186</ele>
        <time>2018-01-05T11:56:20Z</time>
      </trkpt>
      <trkpt lat="45.96465" lon="4.75297">
        <ele>186</ele>
        <time>2018-01-05T11:56:21Z</time>
      </trkpt>
      <trkpt lat="45.96458" lon="4.75291">
        <ele>186</ele>
        <time>2018-01-05T11:56:23Z</time>
      </trkpt>
      <trkpt lat="45.96455" lon="4.75289">
        <ele>186</ele>
        <time>2018-01-05T11:56:24Z</time>
      </trkpt>
      <trkpt lat="45.96447" lon="4.75284">
        <ele>186</ele>
        <time>2018-01-05T11:56:26Z</time>
      </trkpt>
      <trkpt lat="45.96444" lon="4.75281">
        <ele>186</ele>
        <time>2018-01-05T11:56:27Z</time>
      </trkpt>
      <trkpt lat="45.96438" lon="4.75281">
        <ele>186</ele>
        <time>2018-01-05T11:56:29Z</time>
      </trkpt>
      <trkpt lat="45.96434" lon="4.75279">
        <ele>186</ele>
        <time>2018-01-05T11:56:30Z</time>
      </trkpt>
      <trkpt lat="45.96428" lon="4.75273">
        <ele>185</ele>
        <time>2018-01-05T11:56:32Z</time>
      </trkpt>
      <trkpt lat="45.96423" lon="4.7527">
        <ele>185</ele>
        <time>2018-01-05T11:56:33Z</time>
      </trkpt>
      <trkpt lat="45.96415" lon="4.75266">
        <ele>189</ele>
        <time>2018-01-05T11:56:35Z</time>
      </trkpt>
      <trkpt lat="45.96412" lon="4.75265">
        <ele>189</ele>
        <time>2018-01-05T11:56:36Z</time>
      </trkpt>
      <trkpt lat="45.96404" lon="4.75259">
        <ele>189</ele>
        <time>2018-01-05T11:56:38Z</time>
      </trkpt>
      <trkpt lat="45.964" lon="4.75257">
        <ele>189</ele>
        <time>2018-01-05T11:56:39Z</time>
      </trkpt>
      <trkpt lat="45.96397" lon="4.75255">
        <ele>190</ele>
        <time>2018-01-05T11:56:40Z</time>
      </trkpt>
      <trkpt lat="45.96391" lon="4.75253">
        <ele>191</ele>
        <time>2018-01-05T11:56:41Z</time>
      </trkpt>
      <trkpt lat="45.96384" lon="4.7525">
        <ele>180</ele>
        <time>2018-01-05T11:56:43Z</time>
      </trkpt>
      <trkpt lat="45.96381" lon="4.75248">
        <ele>180</ele>
        <time>2018-01-05T11:56:44Z</time>
      </trkpt>
      <trkpt lat="45.96373" lon="4.75245">
        <ele>180</ele>
        <time>2018-01-05T11:56:46Z</time>
      </trkpt>
      <trkpt lat="45.96369" lon="4.75244">
        <ele>180</ele>
        <time>2018-01-05T11:56:47Z</time>
      </trkpt>
      <trkpt lat="45.96361" lon="4.7524">
        <ele>181</ele>
        <time>2018-01-05T11:56:49Z</time>
      </trkpt>
      <trkpt lat="45.96357" lon="4.75239">
        <ele>181</ele>
        <time>2018-01-05T11:56:50Z</time>
      </trkpt>
      <trkpt lat="45.96349" lon="4.75235">
        <ele>182</ele>
        <time>2018-01-05T11:56:52Z</time>
      </trkpt>
      <trkpt lat="45.96345" lon="4.75234">
        <ele>182</ele>
        <time>2018-01-05T11:56:53Z</time>
      </trkpt>
      <trkpt lat="45.96337" lon="4.75231">
        <ele>182</ele>
        <time>2018-01-05T11:56:55Z</time>
      </trkpt>
      <trkpt lat="45.96333" lon="4.7523">
        <ele>182</ele>
        <time>2018-01-05T11:56:56Z</time>
      </trkpt>
      <trkpt lat="45.96326" lon="4.75227">
        <ele>186</ele>
        <time>2018-01-05T11:56:58Z</time>
      </trkpt>
      <trkpt lat="45.96322" lon="4.75226">
        <ele>186</ele>
        <time>2018-01-05T11:56:59Z</time>
      </trkpt>
      <trkpt lat="45.96315" lon="4.75224">
        <ele>185</ele>
        <time>2018-01-05T11:57:01Z</time>
      </trkpt>
      <trkpt lat="45.96311" lon="4.75222">
        <ele>185</ele>
        <time>2018-01-05T11:57:02Z</time>
      </trkpt>
      <trkpt lat="45.96303" lon="4.7522">
        <ele>185</ele>
        <time>2018-01-05T11:57:04Z</time>
      </trkpt>
      <trkpt lat="45.963" lon="4.75218">
        <ele>185</ele>
        <time>2018-01-05T11:57:05Z</time>
      </trkpt>
      <trkpt lat="45.96294" lon="4.75216">
        <ele>185</ele>
        <time>2018-01-05T11:57:07Z</time>
      </trkpt>
      <trkpt lat="45.9629" lon="4.75214">
        <ele>185</ele>
        <time>2018-01-05T11:57:08Z</time>
      </trkpt>
      <trkpt lat="45.96282" lon="4.75211">
        <ele>186</ele>
        <time>2018-01-05T11:57:10Z</time>
      </trkpt>
      <trkpt lat="45.96278" lon="4.7521">
        <ele>186</ele>
        <time>2018-01-05T11:57:11Z</time>
      </trkpt>
      <trkpt lat="45.96271" lon="4.75207">
        <ele>186</ele>
        <time>2018-01-05T11:57:13Z</time>
      </trkpt>
      <trkpt lat="45.96267" lon="4.75206">
        <ele>186</ele>
        <time>2018-01-05T11:57:14Z</time>
      </trkpt>
      <trkpt lat="45.96259" lon="4.75203">
        <ele>186</ele>
        <time>2018-01-05T11:57:16Z</time>
      </trkpt>
      <trkpt lat="45.96256" lon="4.75201">
        <ele>186</ele>
        <time>2018-01-05T11:57:17Z</time>
      </trkpt>
      <trkpt lat="45.96248" lon="4.75198">
        <ele>192</ele>
        <time>2018-01-05T11:57:19Z</time>
      </trkpt>
      <trkpt lat="45.96244" lon="4.75197">
        <ele>192</ele>
        <time>2018-01-05T11:57:20Z</time>
      </trkpt>
      <trkpt lat="45.96236" lon="4.75193">
        <ele>192</ele>
        <time>2018-01-05T11:57:22Z</time>
      </trkpt>
      <trkpt lat="45.96233" lon="4.75192">
        <ele>192</ele>
        <time>2018-01-05T11:57:23Z</time>
      </trkpt>
      <trkpt lat="45.96226" lon="4.75188">
        <ele>192</ele>
        <time>2018-01-05T11:57:25Z</time>
      </trkpt>
      <trkpt lat="45.96223" lon="4.75186">
        <ele>192</ele>
        <time>2018-01-05T11:57:26Z</time>
      </trkpt>
      <trkpt lat="45.96216" lon="4.75181">
        <ele>193</ele>
        <time>2018-01-05T11:57:28Z</time>
      </trkpt>
      <trkpt lat="45.96213" lon="4.75179">
        <ele>193</ele>
        <time>2018-01-05T11:57:29Z</time>
      </trkpt>
      <trkpt lat="45.96206" lon="4.75174">
        <ele>194</ele>
        <time>2018-01-05T11:57:31Z</time>
      </trkpt>
      <trkpt lat="45.96202" lon="4.75172">
        <ele>194</ele>
        <time>2018-01-05T11:57:32Z</time>
      </trkpt>
      <trkpt lat="45.96195" lon="4.75167">
        <ele>195</ele>
        <time>2018-01-05T11:57:34Z</time>
      </trkpt>
      <trkpt lat="45.96192" lon="4.75164">
        <ele>187</ele>
        <time>2018-01-05T11:57:35Z</time>
      </trkpt>
      <trkpt lat="45.96186" lon="4.75159">
        <ele>188</ele>
        <time>2018-01-05T11:57:37Z</time>
      </trkpt>
      <trkpt lat="45.96183" lon="4.75156">
        <ele>188</ele>
        <time>2018-01-05T11:57:38Z</time>
      </trkpt>
      <trkpt lat="45.96176" lon="4.75151">
        <ele>188</ele>
        <time>2018-01-05T11:57:40Z</time>
      </trkpt>
      <trkpt lat="45.96172" lon="4.75148">
        <ele>188</ele>
        <time>2018-01-05T11:57:41Z</time>
      </trkpt>
      <trkpt lat="45.96165" lon="4.75142">
        <ele>192</ele>
        <time>2018-01-05T11:57:43Z</time>
      </trkpt>
      <trkpt lat="45.96162" lon="4.75139">
        <ele>191</ele>
        <time>2018-01-05T11:57:44Z</time>
      </trkpt>
      <trkpt lat="45.96155" lon="4.75132">
        <ele>190</ele>
        <time>2018-01-05T11:57:46Z</time>
      </trkpt>
      <trkpt lat="45.96152" lon="4.75128">
        <ele>190</ele>
        <time>2018-01-05T11:57:47Z</time>
      </trkpt>
      <trkpt lat="45.96146" lon="4.75121">
        <ele>189</ele>
        <time>2018-01-05T11:57:49Z</time>
      </trkpt>
      <trkpt lat="45.96143" lon="4.75118">
        <ele>189</ele>
        <time>2018-01-05T11:57:50Z</time>
      </trkpt>
      <trkpt lat="45.96137" lon="4.75111">
        <ele>189</ele>
        <time>2018-01-05T11:57:52Z</time>
      </trkpt>
      <trkpt lat="45.96134" lon="4.75108">
        <ele>189</ele>
        <time>2018-01-05T11:57:53Z</time>
      </trkpt>
      <trkpt lat="45.96128" lon="4.75101">
        <ele>189</ele>
        <time>2018-01-05T11:57:55Z</time>
      </trkpt>
      <trkpt lat="45.96125" lon="4.75098">
        <ele>189</ele>
        <time>2018-01-05T11:57:56Z</time>
      </trkpt>
      <trkpt lat="45.96119" lon="4.75091">
        <ele>189</ele>
        <time>2018-01-05T11:57:58Z</time>
      </trkpt>
      <trkpt lat="45.96116" lon="4.75088">
        <ele>189</ele>
        <time>2018-01-05T11:57:59Z</time>
      </trkpt>
      <trkpt lat="45.9611" lon="4.75082">
        <ele>184</ele>
        <time>2018-01-05T11:58:01Z</time>
      </trkpt>
      <trkpt lat="45.96107" lon="4.75079">
        <ele>184</ele>
        <time>2018-01-05T11:58:02Z</time>
      </trkpt>
      <trkpt lat="45.96101" lon="4.75074">
        <ele>185</ele>
        <time>2018-01-05T11:58:04Z</time>
      </trkpt>
      <trkpt lat="45.96098" lon="4.75071">
        <ele>185</ele>
        <time>2018-01-05T11:58:05Z</time>
      </trkpt>
      <trkpt lat="45.96092" lon="4.75065">
        <ele>185</ele>
        <time>2018-01-05T11:58:07Z</time>
      </trkpt>
      <trkpt lat="45.96088" lon="4.75063">
        <ele>185</ele>
        <time>2018-01-05T11:58:08Z</time>
      </trkpt>
      <trkpt lat="45.9608" lon="4.75058">
        <ele>189</ele>
        <time>2018-01-05T11:58:10Z</time>
      </trkpt>
      <trkpt lat="45.96076" lon="4.75056">
        <ele>189</ele>
        <time>2018-01-05T11:58:11Z</time>
      </trkpt>
      <trkpt lat="45.96068" lon="4.75053">
        <ele>189</ele>
        <time>2018-01-05T11:58:13Z</time>
      </trkpt>
      <trkpt lat="45.96064" lon="4.75052">
        <ele>189</ele>
        <time>2018-01-05T11:58:14Z</time>
      </trkpt>
      <trkpt lat="45.96055" lon="4.75052">
        <ele>189</ele>
        <time>2018-01-05T11:58:16Z</time>
      </trkpt>
      <trkpt lat="45.96051" lon="4.75051">
        <ele>189</ele>
        <time>2018-01-05T11:58:17Z</time>
      </trkpt>
      <trkpt lat="45.96043" lon="4.75051">
        <ele>189</ele>
        <time>2018-01-05T11:58:19Z</time>
      </trkpt>
      <trkpt lat="45.96038" lon="4.75053">
        <ele>189</ele>
        <time>2018-01-05T11:58:20Z</time>
      </trkpt>
      <trkpt lat="45.96029" lon="4.75054">
        <ele>190</ele>
        <time>2018-01-05T11:58:22Z</time>
      </trkpt>
      <trkpt lat="45.96025" lon="4.75054">
        <ele>190</ele>
        <time>2018-01-05T11:58:23Z</time>
      </trkpt>
      <trkpt lat="45.96018" lon="4.75057">
        <ele>190</ele>
        <time>2018-01-05T11:58:25Z</time>
      </trkpt>
      <trkpt lat="45.96014" lon="4.75057">
        <ele>190</ele>
        <time>2018-01-05T11:58:26Z</time>
      </trkpt>
      <trkpt lat="45.96008" lon="4.75059">
        <ele>191</ele>
        <time>2018-01-05T11:58:28Z</time>
      </trkpt>
      <trkpt lat="45.96004" lon="4.75061">
        <ele>191</ele>
        <time>2018-01-05T11:58:29Z</time>
      </trkpt>
      <trkpt lat="45.95998" lon="4.75065">
        <ele>192</ele>
        <time>2018-01-05T11:58:31Z</time>
      </trkpt>
      <trkpt lat="45.95994" lon="4.75066">
        <ele>192</ele>
        <time>2018-01-05T11:58:32Z</time>
      </trkpt>
      <trkpt lat="45.95988" lon="4.75068">
        <ele>192</ele>
        <time>2018-01-05T11:58:34Z</time>
      </trkpt>
      <trkpt lat="45.95984" lon="4.7507">
        <ele>192</ele>
        <time>2018-01-05T11:58:35Z</time>
      </trkpt>
      <trkpt lat="45.95977" lon="4.75073">
        <ele>191</ele>
        <time>2018-01-05T11:58:37Z</time>
      </trkpt>
      <trkpt lat="45.95974" lon="4.75074">
        <ele>191</ele>
        <time>2018-01-05T11:58:38Z</time>
      </trkpt>
      <trkpt lat="45.95967" lon="4.75077">
        <ele>191</ele>
        <time>2018-01-05T11:58:40Z</time>
      </trkpt>
      <trkpt lat="45.95963" lon="4.75078">
        <ele>191</ele>
        <time>2018-01-05T11:58:41Z</time>
      </trkpt>
      <trkpt lat="45.95956" lon="4.75082">
        <ele>191</ele>
        <time>2018-01-05T11:58:43Z</time>
      </trkpt>
      <trkpt lat="45.95952" lon="4.75084">
        <ele>193</ele>
        <time>2018-01-05T11:58:44Z</time>
      </trkpt>
      <trkpt lat="45.95945" lon="4.75088">
        <ele>193</ele>
        <time>2018-01-05T11:58:46Z</time>
      </trkpt>
      <trkpt lat="45.95941" lon="4.75088">
        <ele>192</ele>
        <time>2018-01-05T11:58:47Z</time>
      </trkpt>
      <trkpt lat="45.95934" lon="4.75091">
        <ele>192</ele>
        <time>2018-01-05T11:58:49Z</time>
      </trkpt>
      <trkpt lat="45.95931" lon="4.75092">
        <ele>192</ele>
        <time>2018-01-05T11:58:50Z</time>
      </trkpt>
      <trkpt lat="45.95924" lon="4.75095">
        <ele>192</ele>
        <time>2018-01-05T11:58:52Z</time>
      </trkpt>
      <trkpt lat="45.95921" lon="4.75096">
        <ele>191</ele>
        <time>2018-01-05T11:58:53Z</time>
      </trkpt>
      <trkpt lat="45.95914" lon="4.75098">
        <ele>190</ele>
        <time>2018-01-05T11:58:55Z</time>
      </trkpt>
      <trkpt lat="45.95911" lon="4.75099">
        <ele>190</ele>
        <time>2018-01-05T11:58:56Z</time>
      </trkpt>
      <trkpt lat="45.95904" lon="4.75102">
        <ele>190</ele>
        <time>2018-01-05T11:58:58Z</time>
      </trkpt>
      <trkpt lat="45.95901" lon="4.75104">
        <ele>191</ele>
        <time>2018-01-05T11:58:59Z</time>
      </trkpt>
      <trkpt lat="45.95895" lon="4.75107">
        <ele>191</ele>
        <time>2018-01-05T11:59:01Z</time>
      </trkpt>
      <trkpt lat="45.95891" lon="4.75109">
        <ele>191</ele>
        <time>2018-01-05T11:59:02Z</time>
      </trkpt>
      <trkpt lat="45.95885" lon="4.75114">
        <ele>191</ele>
        <time>2018-01-05T11:59:04Z</time>
      </trkpt>
      <trkpt lat="45.95881" lon="4.75116">
        <ele>191</ele>
        <time>2018-01-05T11:59:05Z</time>
      </trkpt>
      <trkpt lat="45.95875" lon="4.75121">
        <ele>191</ele>
        <time>2018-01-05T11:59:07Z</time>
      </trkpt>
      <trkpt lat="45.95873" lon="4.75124">
        <ele>191</ele>
        <time>2018-01-05T11:59:08Z</time>
      </trkpt>
      <trkpt lat="45.95867" lon="4.7513">
        <ele>191</ele>
        <time>2018-01-05T11:59:10Z</time>
      </trkpt>
      <trkpt lat="45.95864" lon="4.75133">
        <ele>191</ele>
        <time>2018-01-05T11:59:11Z</time>
      </trkpt>
      <trkpt lat="45.95858" lon="4.7514">
        <ele>191</ele>
        <time>2018-01-05T11:59:13Z</time>
      </trkpt>
      <trkpt lat="45.95856" lon="4.75143">
        <ele>191</ele>
        <time>2018-01-05T11:59:14Z</time>
      </trkpt>
      <trkpt lat="45.9585" lon="4.7515">
        <ele>191</ele>
        <time>2018-01-05T11:59:16Z</time>
      </trkpt>
      <trkpt lat="45.95847" lon="4.75154">
        <ele>191</ele>
        <time>2018-01-05T11:59:17Z</time>
      </trkpt>
      <trkpt lat="45.95841" lon="4.75162">
        <ele>192</ele>
        <time>2018-01-05T11:59:19Z</time>
      </trkpt>
      <trkpt lat="45.95839" lon="4.75166">
        <ele>192</ele>
        <time>2018-01-05T11:59:20Z</time>
      </trkpt>
      <trkpt lat="45.95833" lon="4.75174">
        <ele>192</ele>
        <time>2018-01-05T11:59:22Z</time>
      </trkpt>
      <trkpt lat="45.9583" lon="4.75178">
        <ele>192</ele>
        <time>2018-01-05T11:59:23Z</time>
      </trkpt>
      <trkpt lat="45.95824" lon="4.75186">
        <ele>192</ele>
        <time>2018-01-05T11:59:25Z</time>
      </trkpt>
      <trkpt lat="45.95821" lon="4.75191">
        <ele>193</ele>
        <time>2018-01-05T11:59:26Z</time>
      </trkpt>
      <trkpt lat="45.95815" lon="4.752">
        <ele>193</ele>
        <time>2018-01-05T11:59:28Z</time>
      </trkpt>
      <trkpt lat="45.95812" lon="4.75204">
        <ele>193</ele>
        <time>2018-01-05T11:59:29Z</time>
      </trkpt>
      <trkpt lat="45.95806" lon="4.75213">
        <ele>193</ele>
        <time>2018-01-05T11:59:31Z</time>
      </trkpt>
      <trkpt lat="45.95804" lon="4.75217">
        <ele>193</ele>
        <time>2018-01-05T11:59:32Z</time>
      </trkpt>
      <trkpt lat="45.95797" lon="4.75225">
        <ele>193</ele>
        <time>2018-01-05T11:59:34Z</time>
      </trkpt>
      <trkpt lat="45.95794" lon="4.75229">
        <ele>193</ele>
        <time>2018-01-05T11:59:35Z</time>
      </trkpt>
      <trkpt lat="45.95787" lon="4.75237">
        <ele>193</ele>
        <time>2018-01-05T11:59:37Z</time>
      </trkpt>
      <trkpt lat="45.95784" lon="4.75241">
        <ele>193</ele>
        <time>2018-01-05T11:59:38Z</time>
      </trkpt>
      <trkpt lat="45.95778" lon="4.75249">
        <ele>193</ele>
        <time>2018-01-05T11:59:40Z</time>
      </trkpt>
      <trkpt lat="45.95774" lon="4.75253">
        <ele>193</ele>
        <time>2018-01-05T11:59:41Z</time>
      </trkpt>
      <trkpt lat="45.95768" lon="4.75262">
        <ele>193</ele>
        <time>2018-01-05T11:59:43Z</time>
      </trkpt>
      <trkpt lat="45.95764" lon="4.75266">
        <ele>193</ele>
        <time>2018-01-05T11:59:44Z</time>
      </trkpt>
      <trkpt lat="45.95757" lon="4.75273">
        <ele>193</ele>
        <time>2018-01-05T11:59:46Z</time>
      </trkpt>
      <trkpt lat="45.95755" lon="4.75276">
        <ele>193</ele>
        <time>2018-01-05T11:59:47Z</time>
      </trkpt>
      <trkpt lat="45.95748" lon="4.75284">
        <ele>193</ele>
        <time>2018-01-05T11:59:49Z</time>
      </trkpt>
      <trkpt lat="45.95745" lon="4.75288">
        <ele>193</ele>
        <time>2018-01-05T11:59:50Z</time>
      </trkpt>
      <trkpt lat="45.95741" lon="4.75292">
        <ele>193</ele>
        <time>2018-01-05T11:59:51Z</time>
      </trkpt>
      <trkpt lat="45.95737" lon="4.75297">
        <ele>193</ele>
        <time>2018-01-05T11:59:52Z</time>
      </trkpt>
      <trkpt lat="45.95733" lon="4.75301">
        <ele>193</ele>
        <time>2018-01-05T11:59:53Z</time>
      </trkpt>
      <trkpt lat="45.95729" lon="4.75305">
        <ele>193</ele>
        <time>2018-01-05T11:59:54Z</time>
      </trkpt>
      <trkpt lat="45.95725" lon="4.7531">
        <ele>193</ele>
        <time>2018-01-05T11:59:55Z</time>
      </trkpt>
      <trkpt lat="45.95721" lon="4.75314">
        <ele>193</ele>
        <time>2018-01-05T11:59:56Z</time>
      </trkpt>
      <trkpt lat="45.95717" lon="4.75319">
        <ele>193</ele>
        <time>2018-01-05T11:59:57Z</time>
      </trkpt>
      <trkpt lat="45.95713" lon="4.75322">
        <ele>193</ele>
        <time>2018-01-05T11:59:58Z</time>
      </trkpt>
      <trkpt lat="45.95709" lon="4.75326">
        <ele>193</ele>
        <time>2018-01-05T11:59:59Z</time>
      </trkpt>
      <trkpt lat="45.95705" lon="4.7533">
        <ele>193</ele>
        <time>2018-01-05T12:00:00Z</time>
      </trkpt>
      <trkpt lat="45.95701" lon="4.75335">
        <ele>193</ele>
        <time>2018-01-05T12:00:01Z</time>
      </trkpt>
      <trkpt lat="45.95697" lon="4.75338">
        <ele>193</ele>
        <time>2018-01-05T12:00:02Z</time>
      </trkpt>
      <trkpt lat="45.95694" lon="4.75342">
        <ele>193</ele>
        <time>2018-01-05T12:00:03Z</time>
      </trkpt>
      <trkpt lat="45.9569" lon="4.75346">
        <ele>193</ele>
        <time>2018-01-05T12:00:04Z</time>
      </trkpt>
      <trkpt lat="45.95686" lon="4.75349">
        <ele>193</ele>
        <time>2018-01-05T12:00:05Z</time>
      </trkpt>
      <trkpt lat="45.95682" lon="4.75352">
        <ele>193</ele>
        <time>2018-01-05T12:00:06Z</time>
      </trkpt>
      <trkpt lat="45.95677" lon="4.75356">
        <ele>193</ele>
        <time>2018-01-05T12:00:07Z</time>
      </trkpt>
      <trkpt lat="45.95673" lon="4.75359">
        <ele>193</ele>
        <time>2018-01-05T12:00:08Z</time>
      </trkpt>
      <trkpt lat="45.95669" lon="4.75363">
        <ele>193</ele>
        <time>2018-01-05T12:00:09Z</time>
      </trkpt>
      <trkpt lat="45.95664" lon="4.75367">
        <ele>193</ele>
        <time>2018-01-05T12:00:10Z</time>
      </trkpt>
      <trkpt lat="45.9566" lon="4.75371">
        <ele>193</ele>
        <time>2018-01-05T12:00:11Z</time>
      </trkpt>
      <trkpt lat="45.95656" lon="4.75375">
        <ele>193</ele>
        <time>2018-01-05T12:00:12Z</time>
      </trkpt>
      <trkpt lat="45.95652" lon="4.7538">
        <ele>193</ele>
        <time>2018-01-05T12:00:13Z</time>
      </trkpt>
      <trkpt lat="45.95648" lon="4.75384">
        <ele>193</ele>
        <time>2018-01-05T12:00:14Z</time>
      </trkpt>
      <trkpt lat="45.95643" lon="4.75388">
        <ele>193</ele>
        <time>2018-01-05T12:00:15Z</time>
      </trkpt>
      <trkpt lat="45.95639" lon="4.75391">
        <ele>193</ele>
        <time>2018-01-05T12:00:16Z</time>
      </trkpt>
      <trkpt lat="45.95634" lon="4.75395">
        <ele>193</ele>
        <time>2018-01-05T12:00:17Z</time>
      </trkpt>
      <trkpt lat="45.9563" lon="4.75399">
        <ele>193</ele>
        <time>2018-01-05T12:00:18Z</time>
      </trkpt>
      <trkpt lat="45.95625" lon="4.75402">
        <ele>193</ele>
        <time>2018-01-05T12:00:19Z</time>
      </trkpt>
      <trkpt lat="45.9562" lon="4.75405">
        <ele>193</ele>
        <time>2018-01-05T12:00:20Z</time>
      </trkpt>
      <trkpt lat="45.95615" lon="4.75409">
        <ele>193</ele>
        <time>2018-01-05T12:00:21Z</time>
      </trkpt>
      <trkpt lat="45.9561" lon="4.75413">
        <ele>193</ele>
        <time>2018-01-05T12:00:22Z</time>
      </trkpt>
      <trkpt lat="45.95605" lon="4.75416">
        <ele>192</ele>
        <time>2018-01-05T12:00:23Z</time>
      </trkpt>
      <trkpt lat="45.956" lon="4.75419">
        <ele>192</ele>
        <time>2018-01-05T12:00:24Z</time>
      </trkpt>
      <trkpt lat="45.95595" lon="4.75422">
        <ele>192</ele>
        <time>2018-01-05T12:00:25Z</time>
      </trkpt>
      <trkpt lat="45.9559" lon="4.75426">
        <ele>192</ele>
        <time>2018-01-05T12:00:26Z</time>
      </trkpt>
      <trkpt lat="45.95586" lon="4.75428">
        <ele>192</ele>
        <time>2018-01-05T12:00:27Z</time>
      </trkpt>
      <trkpt lat="45.9558" lon="4.75432">
        <ele>190</ele>
        <time>2018-01-05T12:00:28Z</time>
      </trkpt>
      <trkpt lat="45.95575" lon="4.75435">
        <ele>190</ele>
        <time>2018-01-05T12:00:29Z</time>
      </trkpt>
      <trkpt lat="45.95568" lon="4.75438">
        <ele>189</ele>
        <time>2018-01-05T12:00:30Z</time>
      </trkpt>
      <trkpt lat="45.95563" lon="4.75441">
        <ele>189</ele>
        <time>2018-01-05T12:00:31Z</time>
      </trkpt>
      <trkpt lat="45.95557" lon="4.75444">
        <ele>188</ele>
        <time>2018-01-05T12:00:32Z</time>
      </trkpt>
      <trkpt lat="45.95551" lon="4.75446">
        <ele>188</ele>
        <time>2018-01-05T12:00:33Z</time>
      </trkpt>
      <trkpt lat="45.95545" lon="4.75448">
        <ele>188</ele>
        <time>2018-01-05T12:00:34Z</time>
      </trkpt>
      <trkpt lat="45.95539" lon="4.75449">
        <ele>188</ele>
        <time>2018-01-05T12:00:35Z</time>
      </trkpt>
      <trkpt lat="45.95533" lon="4.75448">
        <ele>187</ele>
        <time>2018-01-05T12:00:36Z</time>
      </trkpt>
      <trkpt lat="45.95528" lon="4.75445">
        <ele>187</ele>
        <time>2018-01-05T12:00:37Z</time>
      </trkpt>
      <trkpt lat="45.95523" lon="4.7544">
        <ele>187</ele>
        <time>2018-01-05T12:00:38Z</time>
      </trkpt>
      <trkpt lat="45.9552" lon="4.75434">
        <ele>187</ele>
        <time>2018-01-05T12:00:39Z</time>
      </trkpt>
      <trkpt lat="45.95517" lon="4.75427">
        <ele>187</ele>
        <time>2018-01-05T12:00:40Z</time>
      </trkpt>
      <trkpt lat="45.95515" lon="4.7542">
        <ele>186</ele>
        <time>2018-01-05T12:00:41Z</time>
      </trkpt>
      <trkpt lat="45.95513" lon="4.75415">
        <ele>187</ele>
        <time>2018-01-05T12:00:42Z</time>
      </trkpt>
      <trkpt lat="45.95511" lon="4.75408">
        <ele>187</ele>
        <time>2018-01-05T12:00:43Z</time>
      </trkpt>
      <trkpt lat="45.95509" lon="4.75402">
        <ele>187</ele>
        <time>2018-01-05T12:00:44Z</time>
      </trkpt>
      <trkpt lat="45.95506" lon="4.75396">
        <ele>188</ele>
        <time>2018-01-05T12:00:45Z</time>
      </trkpt>
      <trkpt lat="45.95503" lon="4.75391">
        <ele>188</ele>
        <time>2018-01-05T12:00:46Z</time>
      </trkpt>
      <trkpt lat="45.955" lon="4.75384">
        <ele>188</ele>
        <time>2018-01-05T12:00:47Z</time>
      </trkpt>
      <trkpt lat="45.95497" lon="4.75379">
        <ele>185</ele>
        <time>2018-01-05T12:00:48Z</time>
      </trkpt>
      <trkpt lat="45.95495" lon="4.75373">
        <ele>185</ele>
        <time>2018-01-05T12:00:49Z</time>
      </trkpt>
      <trkpt lat="45.95492" lon="4.75366">
        <ele>186</ele>
        <time>2018-01-05T12:00:50Z</time>
      </trkpt>
      <trkpt lat="45.9549" lon="4.75361">
        <ele>186</ele>
        <time>2018-01-05T12:00:51Z</time>
      </trkpt>
      <trkpt lat="45.95487" lon="4.75355">
        <ele>186</ele>
        <time>2018-01-05T12:00:52Z</time>
      </trkpt>
      <trkpt lat="45.95484" lon="4.75349">
        <ele>186</ele>
        <time>2018-01-05T12:00:53Z</time>
      </trkpt>
      <trkpt lat="45.95481" lon="4.75343">
        <ele>186</ele>
        <time>2018-01-05T12:00:54Z</time>
      </trkpt>
      <trkpt lat="45.95478" lon="4.75337">
        <ele>186</ele>
        <time>2018-01-05T12:00:55Z</time>
      </trkpt>
      <trkpt lat="45.95475" lon="4.75331">
        <ele>188</ele>
        <time>2018-01-05T12:00:56Z</time>
      </trkpt>
      <trkpt lat="45.95472" lon="4.75326">
        <ele>188</ele>
        <time>2018-01-05T12:00:57Z</time>
      </trkpt>
      <trkpt lat="45.95469" lon="4.7532">
        <ele>188</ele>
        <time>2018-01-05T12:00:58Z</time>
      </trkpt>
      <trkpt lat="45.95465" lon="4.75312">
        <ele>188</ele>
        <time>2018-01-05T12:01:00Z</time>
      </trkpt>
      <trkpt lat="45.95463" lon="4.75307">
        <ele>188</ele>
        <time>2018-01-05T12:01:01Z</time>
      </trkpt>
      <trkpt lat="45.95457" lon="4.75296">
        <ele>188</ele>
        <time>2018-01-05T12:01:03Z</time>
      </trkpt>
      <trkpt lat="45.95455" lon="4.75292">
        <ele>188</ele>
        <time>2018-01-05T12:01:04Z</time>
      </trkpt>
      <trkpt lat="45.95452" lon="4.75286">
        <ele>188</ele>
        <time>2018-01-05T12:01:05Z</time>
      </trkpt>
      <trkpt lat="45.95449" lon="4.75282">
        <ele>189</ele>
        <time>2018-01-05T12:01:06Z</time>
      </trkpt>
      <trkpt lat="45.95446" lon="4.75276">
        <ele>189</ele>
        <time>2018-01-05T12:01:07Z</time>
      </trkpt>
      <trkpt lat="45.95443" lon="4.75271">
        <ele>189</ele>
        <time>2018-01-05T12:01:08Z</time>
      </trkpt>
      <trkpt lat="45.9544" lon="4.75266">
        <ele>189</ele>
        <time>2018-01-05T12:01:09Z</time>
      </trkpt>
      <trkpt lat="45.95437" lon="4.7526">
        <ele>189</ele>
        <time>2018-01-05T12:01:10Z</time>
      </trkpt>
      <trkpt lat="45.95433" lon="4.75255">
        <ele>189</ele>
        <time>2018-01-05T12:01:11Z</time>
      </trkpt>
      <trkpt lat="45.95431" lon="4.7525">
        <ele>190</ele>
        <time>2018-01-05T12:01:12Z</time>
      </trkpt>
      <trkpt lat="45.95427" lon="4.75244">
        <ele>190</ele>
        <time>2018-01-05T12:01:13Z</time>
      </trkpt>
      <trkpt lat="45.95424" lon="4.75238">
        <ele>190</ele>
        <time>2018-01-05T12:01:14Z</time>
      </trkpt>
      <trkpt lat="45.95421" lon="4.75233">
        <ele>190</ele>
        <time>2018-01-05T12:01:15Z</time>
      </trkpt>
      <trkpt lat="45.95418" lon="4.75226">
        <ele>191</ele>
        <time>2018-01-05T12:01:16Z</time>
      </trkpt>
      <trkpt lat="45.95414" lon="4.7522">
        <ele>189</ele>
        <time>2018-01-05T12:01:17Z</time>
      </trkpt>
      <trkpt lat="45.95411" lon="4.75215">
        <ele>189</ele>
        <time>2018-01-05T12:01:18Z</time>
      </trkpt>
      <trkpt lat="45.95407" lon="4.75211">
        <ele>189</ele>
        <time>2018-01-05T12:01:19Z</time>
      </trkpt>
      <trkpt lat="45.95404" lon="4.75206">
        <ele>189</ele>
        <time>2018-01-05T12:01:20Z</time>
      </trkpt>
      <trkpt lat="45.954" lon="4.75197">
        <ele>189</ele>
        <time>2018-01-05T12:01:22Z</time>
      </trkpt>
      <trkpt lat="45.95397" lon="4.75192">
        <ele>189</ele>
        <time>2018-01-05T12:01:23Z</time>
      </trkpt>
      <trkpt lat="45.95393" lon="4.75183">
        <ele>189</ele>
        <time>2018-01-05T12:01:25Z</time>
      </trkpt>
      <trkpt lat="45.9539" lon="4.75178">
        <ele>189</ele>
        <time>2018-01-05T12:01:26Z</time>
      </trkpt>
      <trkpt lat="45.95387" lon="4.75173">
        <ele>189</ele>
        <time>2018-01-05T12:01:27Z</time>
      </trkpt>
      <trkpt lat="45.95384" lon="4.75168">
        <ele>189</ele>
        <time>2018-01-05T12:01:28Z</time>
      </trkpt>
      <trkpt lat="45.95379" lon="4.75158">
        <ele>191</ele>
        <time>2018-01-05T12:01:30Z</time>
      </trkpt>
      <trkpt lat="45.95377" lon="4.75153">
        <ele>191</ele>
        <time>2018-01-05T12:01:31Z</time>
      </trkpt>
      <trkpt lat="45.95374" lon="4.75148">
        <ele>191</ele>
        <time>2018-01-05T12:01:32Z</time>
      </trkpt>
      <trkpt lat="45.9537" lon="4.75142">
        <ele>191</ele>
        <time>2018-01-05T12:01:33Z</time>
      </trkpt>
      <trkpt lat="45.95365" lon="4.75133">
        <ele>191</ele>
        <time>2018-01-05T12:01:35Z</time>
      </trkpt>
      <trkpt lat="45.95362" lon="4.75128">
        <ele>191</ele>
        <time>2018-01-05T12:01:36Z</time>
      </trkpt>
      <trkpt lat="45.95359" lon="4.75123">
        <ele>191</ele>
        <time>2018-01-05T12:01:37Z</time>
      </trkpt>
      <trkpt lat="45.95355" lon="4.75118">
        <ele>192</ele>
        <time>2018-01-05T12:01:38Z</time>
      </trkpt>
      <trkpt lat="45.95349" lon="4.75108">
        <ele>192</ele>
        <time>2018-01-05T12:01:40Z</time>
      </trkpt>
      <trkpt lat="45.95347" lon="4.75104">
        <ele>192</ele>
        <time>2018-01-05T12:01:41Z</time>
      </trkpt>
      <trkpt lat="45.95341" lon="4.75096">
        <ele>192</ele>
        <time>2018-01-05T12:01:43Z</time>
      </trkpt>
      <trkpt lat="45.95339" lon="4.75091">
        <ele>193</ele>
        <time>2018-01-05T12:01:44Z</time>
      </trkpt>
      <trkpt lat="45.95334" lon="4.75081">
        <ele>193</ele>
        <time>2018-01-05T12:01:46Z</time>
      </trkpt>
      <trkpt lat="45.95331" lon="4.75077">
        <ele>193</ele>
        <time>2018-01-05T12:01:47Z</time>
      </trkpt>
      <trkpt lat="45.95328" lon="4.75072">
        <ele>192</ele>
        <time>2018-01-05T12:01:48Z</time>
      </trkpt>
      <trkpt lat="45.95324" lon="4.75067">
        <ele>192</ele>
        <time>2018-01-05T12:01:49Z</time>
      </trkpt>
      <trkpt lat="45.95321" lon="4.75062">
        <ele>192</ele>
        <time>2018-01-05T12:01:50Z</time>
      </trkpt>
      <trkpt lat="45.95318" lon="4.75057">
        <ele>192</ele>
        <time>2018-01-05T12:01:51Z</time>
      </trkpt>
      <trkpt lat="45.95311" lon="4.75048">
        <ele>192</ele>
        <time>2018-01-05T12:01:53Z</time>
      </trkpt>
      <trkpt lat="45.95308" lon="4.75044">
        <ele>192</ele>
        <time>2018-01-05T12:01:54Z</time>
      </trkpt>
      <trkpt lat="45.95304" lon="4.75035">
        <ele>192</ele>
        <time>2018-01-05T12:01:56Z</time>
      </trkpt>
      <trkpt lat="45.95301" lon="4.75032">
        <ele>192</ele>
        <time>2018-01-05T12:01:57Z</time>
      </trkpt>
      <trkpt lat="45.95296" lon="4.75023">
        <ele>191</ele>
        <time>2018-01-05T12:01:59Z</time>
      </trkpt>
      <trkpt lat="45.95292" lon="4.75018">
        <ele>191</ele>
        <time>2018-01-05T12:02:00Z</time>
      </trkpt>
      <trkpt lat="45.95286" lon="4.75009">
        <ele>191</ele>
        <time>2018-01-05T12:02:02Z</time>
      </trkpt>
      <trkpt lat="45.95282" lon="4.75003">
        <ele>191</ele>
        <time>2018-01-05T12:02:03Z</time>
      </trkpt>
      <trkpt lat="45.95277" lon="4.74993">
        <ele>192</ele>
        <time>2018-01-05T12:02:05Z</time>
      </trkpt>
      <trkpt lat="45.95274" lon="4.74988">
        <ele>192</ele>
        <time>2018-01-05T12:02:06Z</time>
      </trkpt>
      <trkpt lat="45.95271" lon="4.74983">
        <ele>192</ele>
        <time>2018-01-05T12:02:07Z</time>
      </trkpt>
      <trkpt lat="45.95268" lon="4.74978">
        <ele>192</ele>
        <time>2018-01-05T12:02:08Z</time>
      </trkpt>
      <trkpt lat="45.95264" lon="4.74973">
        <ele>192</ele>
        <time>2018-01-05T12:02:09Z</time>
      </trkpt>
      <trkpt lat="45.9526" lon="4.74969">
        <ele>192</ele>
        <time>2018-01-05T12:02:10Z</time>
      </trkpt>
      <trkpt lat="45.95254" lon="4.74959">
        <ele>192</ele>
        <time>2018-01-05T12:02:12Z</time>
      </trkpt>
      <trkpt lat="45.95251" lon="4.74954">
        <ele>192</ele>
        <time>2018-01-05T12:02:13Z</time>
      </trkpt>
      <trkpt lat="45.95245" lon="4.74946">
        <ele>192</ele>
        <time>2018-01-05T12:02:15Z</time>
      </trkpt>
      <trkpt lat="45.95243" lon="4.74942">
        <ele>192</ele>
        <time>2018-01-05T12:02:16Z</time>
      </trkpt>
      <trkpt lat="45.95238" lon="4.74933">
        <ele>192</ele>
        <time>2018-01-05T12:02:18Z</time>
      </trkpt>
      <trkpt lat="45.95235" lon="4.74928">
        <ele>192</ele>
        <time>2018-01-05T12:02:19Z</time>
      </trkpt>
      <trkpt lat="45.95232" lon="4.74924">
        <ele>192</ele>
        <time>2018-01-05T12:02:20Z</time>
      </trkpt>
      <trkpt lat="45.95229" lon="4.74919">
        <ele>192</ele>
        <time>2018-01-05T12:02:21Z</time>
      </trkpt>
      <trkpt lat="45.95226" lon="4.74914">
        <ele>193</ele>
        <time>2018-01-05T12:02:22Z</time>
      </trkpt>
      <trkpt lat="45.95223" lon="4.74909">
        <ele>193</ele>
        <time>2018-01-05T12:02:23Z</time>
      </trkpt>
      <trkpt lat="45.95218" lon="4.74899">
        <ele>193</ele>
        <time>2018-01-05T12:02:25Z</time>
      </trkpt>
      <trkpt lat="45.95213" lon="4.74895">
        <ele>193</ele>
        <time>2018-01-05T12:02:26Z</time>
      </trkpt>
      <trkpt lat="45.9521" lon="4.7489">
        <ele>193</ele>
        <time>2018-01-05T12:02:27Z</time>
      </trkpt>
      <trkpt lat="45.95206" lon="4.74885">
        <ele>194</ele>
        <time>2018-01-05T12:02:28Z</time>
      </trkpt>
      <trkpt lat="45.95203" lon="4.7488">
        <ele>194</ele>
        <time>2018-01-05T12:02:29Z</time>
      </trkpt>
      <trkpt lat="45.95199" lon="4.74875">
        <ele>194</ele>
        <time>2018-01-05T12:02:30Z</time>
      </trkpt>
      <trkpt lat="45.95194" lon="4.74866">
        <ele>194</ele>
        <time>2018-01-05T12:02:32Z</time>
      </trkpt>
      <trkpt lat="45.95191" lon="4.74861">
        <ele>194</ele>
        <time>2018-01-05T12:02:33Z</time>
      </trkpt>
      <trkpt lat="45.95187" lon="4.74857">
        <ele>194</ele>
        <time>2018-01-05T12:02:34Z</time>
      </trkpt>
      <trkpt lat="45.95183" lon="4.74852">
        <ele>194</ele>
        <time>2018-01-05T12:02:35Z</time>
      </trkpt>
      <trkpt lat="45.9518" lon="4.74847">
        <ele>194</ele>
        <time>2018-01-05T12:02:36Z</time>
      </trkpt>
      <trkpt lat="45.95178" lon="4.74842">
        <ele>194</ele>
        <time>2018-01-05T12:02:37Z</time>
      </trkpt>
      <trkpt lat="45.95174" lon="4.74836">
        <ele>194</ele>
        <time>2018-01-05T12:02:38Z</time>
      </trkpt>
      <trkpt lat="45.9517" lon="4.74831">
        <ele>194</ele>
        <time>2018-01-05T12:02:39Z</time>
      </trkpt>
      <trkpt lat="45.95167" lon="4.74825">
        <ele>194</ele>
        <time>2018-01-05T12:02:40Z</time>
      </trkpt>
      <trkpt lat="45.95163" lon="4.7482">
        <ele>194</ele>
        <time>2018-01-05T12:02:41Z</time>
      </trkpt>
      <trkpt lat="45.95159" lon="4.74815">
        <ele>194</ele>
        <time>2018-01-05T12:02:42Z</time>
      </trkpt>
      <trkpt lat="45.95155" lon="4.7481">
        <ele>194</ele>
        <time>2018-01-05T12:02:43Z</time>
      </trkpt>
      <trkpt lat="45.95151" lon="4.74804">
        <ele>194</ele>
        <time>2018-01-05T12:02:44Z</time>
      </trkpt>
      <trkpt lat="45.95148" lon="4.74799">
        <ele>194</ele>
        <time>2018-01-05T12:02:45Z</time>
      </trkpt>
      <trkpt lat="45.95143" lon="4.74789">
        <ele>194</ele>
        <time>2018-01-05T12:02:47Z</time>
      </trkpt>
      <trkpt lat="45.95141" lon="4.74785">
        <ele>194</ele>
        <time>2018-01-05T12:02:48Z</time>
      </trkpt>
      <trkpt lat="45.95136" lon="4.74774">
        <ele>194</ele>
        <time>2018-01-05T12:02:50Z</time>
      </trkpt>
      <trkpt lat="45.95133" lon="4.74768">
        <ele>194</ele>
        <time>2018-01-05T12:02:51Z</time>
      </trkpt>
      <trkpt lat="45.9513" lon="4.74763">
        <ele>194</ele>
        <time>2018-01-05T12:02:52Z</time>
      </trkpt>
      <trkpt lat="45.95126" lon="4.74758">
        <ele>194</ele>
        <time>2018-01-05T12:02:53Z</time>
      </trkpt>
      <trkpt lat="45.95122" lon="4.74752">
        <ele>194</ele>
        <time>2018-01-05T12:02:54Z</time>
      </trkpt>
      <trkpt lat="45.95119" lon="4.74746">
        <ele>194</ele>
        <time>2018-01-05T12:02:55Z</time>
      </trkpt>
      <trkpt lat="45.95116" lon="4.74741">
        <ele>194</ele>
        <time>2018-01-05T12:02:56Z</time>
      </trkpt>
      <trkpt lat="45.95112" lon="4.74734">
        <ele>194</ele>
        <time>2018-01-05T12:02:57Z</time>
      </trkpt>
      <trkpt lat="45.95109" lon="4.74728">
        <ele>194</ele>
        <time>2018-01-05T12:02:58Z</time>
      </trkpt>
      <trkpt lat="45.95106" lon="4.74721">
        <ele>194</ele>
        <time>2018-01-05T12:02:59Z</time>
      </trkpt>
      <trkpt lat="45.95102" lon="4.74715">
        <ele>194</ele>
        <time>2018-01-05T12:03:00Z</time>
      </trkpt>
      <trkpt lat="45.95098" lon="4.74709">
        <ele>194</ele>
        <time>2018-01-05T12:03:01Z</time>
      </trkpt>
      <trkpt lat="45.95095" lon="4.74704">
        <ele>194</ele>
        <time>2018-01-05T12:03:02Z</time>
      </trkpt>
      <trkpt lat="45.95092" lon="4.747">
        <ele>194</ele>
        <time>2018-01-05T12:03:03Z</time>
      </trkpt>
      <trkpt lat="45.95088" lon="4.74694">
        <ele>194</ele>
        <time>2018-01-05T12:03:04Z</time>
      </trkpt>
      <trkpt lat="45.95085" lon="4.74689">
        <ele>195</ele>
        <time>2018-01-05T12:03:05Z</time>
      </trkpt>
      <trkpt lat="45.95083" lon="4.74684">
        <ele>195</ele>
        <time>2018-01-05T12:03:06Z</time>
      </trkpt>
      <trkpt lat="45.95081" lon="4.74678">
        <ele>194</ele>
        <time>2018-01-05T12:03:07Z</time>
      </trkpt>
      <trkpt lat="45.95077" lon="4.74673">
        <ele>195</ele>
        <time>2018-01-05T12:03:08Z</time>
      </trkpt>
      <trkpt lat="45.95074" lon="4.74668">
        <ele>195</ele>
        <time>2018-01-05T12:03:09Z</time>
      </trkpt>
      <trkpt lat="45.9507" lon="4.74662">
        <ele>195</ele>
        <time>2018-01-05T12:03:10Z</time>
      </trkpt>
      <trkpt lat="45.95067" lon="4.74657">
        <ele>195</ele>
        <time>2018-01-05T12:03:11Z</time>
      </trkpt>
      <trkpt lat="45.95064" lon="4.74651">
        <ele>195</ele>
        <time>2018-01-05T12:03:12Z</time>
      </trkpt>
      <trkpt lat="45.9506" lon="4.74645">
        <ele>194</ele>
        <time>2018-01-05T12:03:13Z</time>
      </trkpt>
      <trkpt lat="45.95056" lon="4.7464">
        <ele>194</ele>
        <time>2018-01-05T12:03:14Z</time>
      </trkpt>
      <trkpt lat="45.95053" lon="4.74635">
        <ele>194</ele>
        <time>2018-01-05T12:03:15Z</time>
      </trkpt>
      <trkpt lat="45.9505" lon="4.74628">
        <ele>194</ele>
        <time>2018-01-05T12:03:16Z</time>
      </trkpt>
      <trkpt lat="45.95047" lon="4.74622">
        <ele>194</ele>
        <time>2018-01-05T12:03:17Z</time>
      </trkpt>
      <trkpt lat="45.95043" lon="4.74616">
        <ele>194</ele>
        <time>2018-01-05T12:03:18Z</time>
      </trkpt>
      <trkpt lat="45.9504" lon="4.74611">
        <ele>194</ele>
        <time>2018-01-05T12:03:19Z</time>
      </trkpt>
      <trkpt lat="45.95037" lon="4.74606">
        <ele>194</ele>
        <time>2018-01-05T12:03:20Z</time>
      </trkpt>
      <trkpt lat="45.95034" lon="4.74601">
        <ele>194</ele>
        <time>2018-01-05T12:03:21Z</time>
      </trkpt>
      <trkpt lat="45.95031" lon="4.74595">
        <ele>194</ele>
        <time>2018-01-05T12:03:22Z</time>
      </trkpt>
      <trkpt lat="45.95029" lon="4.74589">
        <ele>194</ele>
        <time>2018-01-05T12:03:23Z</time>
      </trkpt>
      <trkpt lat="45.95026" lon="4.74584">
        <ele>194</ele>
        <time>2018-01-05T12:03:24Z</time>
      </trkpt>
      <trkpt lat="45.95023" lon="4.74578">
        <ele>194</ele>
        <time>2018-01-05T12:03:25Z</time>
      </trkpt>
      <trkpt lat="45.95019" lon="4.74572">
        <ele>194</ele>
        <time>2018-01-05T12:03:26Z</time>
      </trkpt>
      <trkpt lat="45.95016" lon="4.74566">
        <ele>194</ele>
        <time>2018-01-05T12:03:27Z</time>
      </trkpt>
      <trkpt lat="45.95011" lon="4.74559">
        <ele>194</ele>
        <time>2018-01-05T12:03:28Z</time>
      </trkpt>
      <trkpt lat="45.95008" lon="4.74553">
        <ele>194</ele>
        <time>2018-01-05T12:03:29Z</time>
      </trkpt>
      <trkpt lat="45.95004" lon="4.74547">
        <ele>194</ele>
        <time>2018-01-05T12:03:30Z</time>
      </trkpt>
      <trkpt lat="45.95001" lon="4.74541">
        <ele>194</ele>
        <time>2018-01-05T12:03:31Z</time>
      </trkpt>
      <trkpt lat="45.94997" lon="4.74535">
        <ele>193</ele>
        <time>2018-01-05T12:03:32Z</time>
      </trkpt>
      <trkpt lat="45.94994" lon="4.74529">
        <ele>193</ele>
        <time>2018-01-05T12:03:33Z</time>
      </trkpt>
      <trkpt lat="45.94992" lon="4.74523">
        <ele>193</ele>
        <time>2018-01-05T12:03:34Z</time>
      </trkpt>
      <trkpt lat="45.94989" lon="4.74517">
        <ele>193</ele>
        <time>2018-01-05T12:03:35Z</time>
      </trkpt>
      <trkpt lat="45.94987" lon="4.74511">
        <ele>193</ele>
        <time>2018-01-05T12:03:36Z</time>
      </trkpt>
      <trkpt lat="45.94984" lon="4.74505">
        <ele>193</ele>
        <time>2018-01-05T12:03:37Z</time>
      </trkpt>
      <trkpt lat="45.94982" lon="4.745">
        <ele>193</ele>
        <time>2018-01-05T12:03:38Z</time>
      </trkpt>
      <trkpt lat="45.94979" lon="4.74494">
        <ele>193</ele>
        <time>2018-01-05T12:03:39Z</time>
      </trkpt>
      <trkpt lat="45.94976" lon="4.74489">
        <ele>193</ele>
        <time>2018-01-05T12:03:40Z</time>
      </trkpt>
      <trkpt lat="45.94973" lon="4.74483">
        <ele>193</ele>
        <time>2018-01-05T12:03:41Z</time>
      </trkpt>
      <trkpt lat="45.94971" lon="4.74477">
        <ele>193</ele>
        <time>2018-01-05T12:03:42Z</time>
      </trkpt>
      <trkpt lat="45.94967" lon="4.74472">
        <ele>193</ele>
        <time>2018-01-05T12:03:43Z</time>
      </trkpt>
      <trkpt lat="45.94965" lon="4.74466">
        <ele>193</ele>
        <time>2018-01-05T12:03:44Z</time>
      </trkpt>
      <trkpt lat="45.94962" lon="4.74459">
        <ele>193</ele>
        <time>2018-01-05T12:03:45Z</time>
      </trkpt>
      <trkpt lat="45.94959" lon="4.74453">
        <ele>192</ele>
        <time>2018-01-05T12:03:46Z</time>
      </trkpt>
      <trkpt lat="45.94956" lon="4.74446">
        <ele>192</ele>
        <time>2018-01-05T12:03:47Z</time>
      </trkpt>
      <trkpt lat="45.94953" lon="4.7444">
        <ele>192</ele>
        <time>2018-01-05T12:03:48Z</time>
      </trkpt>
      <trkpt lat="45.9495" lon="4.74434">
        <ele>192</ele>
        <time>2018-01-05T12:03:49Z</time>
      </trkpt>
      <trkpt lat="45.94946" lon="4.74427">
        <ele>192</ele>
        <time>2018-01-05T12:03:50Z</time>
      </trkpt>
      <trkpt lat="45.94943" lon="4.74421">
        <ele>192</ele>
        <time>2018-01-05T12:03:51Z</time>
      </trkpt>
      <trkpt lat="45.94939" lon="4.74415">
        <ele>192</ele>
        <time>2018-01-05T12:03:52Z</time>
      </trkpt>
      <trkpt lat="45.94936" lon="4.74408">
        <ele>192</ele>
        <time>2018-01-05T12:03:53Z</time>
      </trkpt>
      <trkpt lat="45.94933" lon="4.74402">
        <ele>192</ele>
        <time>2018-01-05T12:03:54Z</time>
      </trkpt>
      <trkpt lat="45.9493" lon="4.74396">
        <ele>192</ele>
        <time>2018-01-05T12:03:55Z</time>
      </trkpt>
      <trkpt lat="45.94926" lon="4.7439">
        <ele>192</ele>
        <time>2018-01-05T12:03:56Z</time>
      </trkpt>
      <trkpt lat="45.94923" lon="4.74383">
        <ele>192</ele>
        <time>2018-01-05T12:03:57Z</time>
      </trkpt>
      <trkpt lat="45.9492" lon="4.74376">
        <ele>192</ele>
        <time>2018-01-05T12:03:58Z</time>
      </trkpt>
      <trkpt lat="45.94917" lon="4.74369">
        <ele>191</ele>
        <time>2018-01-05T12:03:59Z</time>
      </trkpt>
      <trkpt lat="45.94913" lon="4.74361">
        <ele>191</ele>
        <time>2018-01-05T12:04:00Z</time>
      </trkpt>
      <trkpt lat="45.9491" lon="4.74354">
        <ele>191</ele>
        <time>2018-01-05T12:04:01Z</time>
      </trkpt>
      <trkpt lat="45.94906" lon="4.74347">
        <ele>191</ele>
        <time>2018-01-05T12:04:02Z</time>
      </trkpt>
      <trkpt lat="45.94903" lon="4.7434">
        <ele>191</ele>
        <time>2018-01-05T12:04:03Z</time>
      </trkpt>
      <trkpt lat="45.949" lon="4.74332">
        <ele>191</ele>
        <time>2018-01-05T12:04:04Z</time>
      </trkpt>
      <trkpt lat="45.94895" lon="4.74326">
        <ele>191</ele>
        <time>2018-01-05T12:04:05Z</time>
      </trkpt>
      <trkpt lat="45.9489" lon="4.7432">
        <ele>191</ele>
        <time>2018-01-05T12:04:06Z</time>
      </trkpt>
      <trkpt lat="45.94887" lon="4.74314">
        <ele>191</ele>
        <time>2018-01-05T12:04:07Z</time>
      </trkpt>
      <trkpt lat="45.94884" lon="4.74306">
        <ele>191</ele>
        <time>2018-01-05T12:04:08Z</time>
      </trkpt>
      <trkpt lat="45.9488" lon="4.743">
        <ele>191</ele>
        <time>2018-01-05T12:04:09Z</time>
      </trkpt>
      <trkpt lat="45.94878" lon="4.74295">
        <ele>191</ele>
        <time>2018-01-05T12:04:10Z</time>
      </trkpt>
      <trkpt lat="45.94874" lon="4.74288">
        <ele>191</ele>
        <time>2018-01-05T12:04:11Z</time>
      </trkpt>
      <trkpt lat="45.94871" lon="4.74283">
        <ele>191</ele>
        <time>2018-01-05T12:04:12Z</time>
      </trkpt>
      <trkpt lat="45.94867" lon="4.74277">
        <ele>191</ele>
        <time>2018-01-05T12:04:13Z</time>
      </trkpt>
      <trkpt lat="45.94865" lon="4.74271">
        <ele>190</ele>
        <time>2018-01-05T12:04:14Z</time>
      </trkpt>
      <trkpt lat="45.94862" lon="4.74264">
        <ele>190</ele>
        <time>2018-01-05T12:04:15Z</time>
      </trkpt>
      <trkpt lat="45.94858" lon="4.74258">
        <ele>190</ele>
        <time>2018-01-05T12:04:16Z</time>
      </trkpt>
      <trkpt lat="45.94855" lon="4.7425">
        <ele>190</ele>
        <time>2018-01-05T12:04:17Z</time>
      </trkpt>
      <trkpt lat="45.9485" lon="4.74243">
        <ele>190</ele>
        <time>2018-01-05T12:04:18Z</time>
      </trkpt>
      <trkpt lat="45.94847" lon="4.74235">
        <ele>190</ele>
        <time>2018-01-05T12:04:19Z</time>
      </trkpt>
      <trkpt lat="45.94843" lon="4.74228">
        <ele>190</ele>
        <time>2018-01-05T12:04:20Z</time>
      </trkpt>
      <trkpt lat="45.94839" lon="4.7422">
        <ele>190</ele>
        <time>2018-01-05T12:04:21Z</time>
      </trkpt>
      <trkpt lat="45.94834" lon="4.74213">
        <ele>190</ele>
        <time>2018-01-05T12:04:22Z</time>
      </trkpt>
      <trkpt lat="45.94831" lon="4.74207">
        <ele>189</ele>
        <time>2018-01-05T12:04:23Z</time>
      </trkpt>
      <trkpt lat="45.94827" lon="4.742">
        <ele>189</ele>
        <time>2018-01-05T12:04:24Z</time>
      </trkpt>
      <trkpt lat="45.94824" lon="4.74194">
        <ele>189</ele>
        <time>2018-01-05T12:04:25Z</time>
      </trkpt>
      <trkpt lat="45.94821" lon="4.74189">
        <ele>189</ele>
        <time>2018-01-05T12:04:26Z</time>
      </trkpt>
      <trkpt lat="45.94817" lon="4.74184">
        <ele>189</ele>
        <time>2018-01-05T12:04:27Z</time>
      </trkpt>
      <trkpt lat="45.94813" lon="4.74178">
        <ele>189</ele>
        <time>2018-01-05T12:04:28Z</time>
      </trkpt>
      <trkpt lat="45.94811" lon="4.74172">
        <ele>189</ele>
        <time>2018-01-05T12:04:29Z</time>
      </trkpt>
      <trkpt lat="45.94808" lon="4.74167">
        <ele>189</ele>
        <time>2018-01-05T12:04:30Z</time>
      </trkpt>
      <trkpt lat="45.94805" lon="4.74161">
        <ele>189</ele>
        <time>2018-01-05T12:04:31Z</time>
      </trkpt>
      <trkpt lat="45.94801" lon="4.74155">
        <ele>189</ele>
        <time>2018-01-05T12:04:32Z</time>
      </trkpt>
      <trkpt lat="45.94798" lon="4.7415">
        <ele>189</ele>
        <time>2018-01-05T12:04:33Z</time>
      </trkpt>
      <trkpt lat="45.94794" lon="4.74143">
        <ele>189</ele>
        <time>2018-01-05T12:04:34Z</time>
      </trkpt>
      <trkpt lat="45.94791" lon="4.74137">
        <ele>189</ele>
        <time>2018-01-05T12:04:35Z</time>
      </trkpt>
      <trkpt lat="45.94787" lon="4.74131">
        <ele>189</ele>
        <time>2018-01-05T12:04:36Z</time>
      </trkpt>
      <trkpt lat="45.94783" lon="4.74126">
        <ele>189</ele>
        <time>2018-01-05T12:04:37Z</time>
      </trkpt>
      <trkpt lat="45.94779" lon="4.7412">
        <ele>189</ele>
        <time>2018-01-05T12:04:38Z</time>
      </trkpt>
      <trkpt lat="45.94775" lon="4.74115">
        <ele>189</ele>
        <time>2018-01-05T12:04:39Z</time>
      </trkpt>
      <trkpt lat="45.94771" lon="4.7411">
        <ele>189</ele>
        <time>2018-01-05T12:04:40Z</time>
      </trkpt>
      <trkpt lat="45.94766" lon="4.74105">
        <ele>189</ele>
        <time>2018-01-05T12:04:41Z</time>
      </trkpt>
      <trkpt lat="45.94763" lon="4.741">
        <ele>189</ele>
        <time>2018-01-05T12:04:42Z</time>
      </trkpt>
      <trkpt lat="45.9476" lon="4.74095">
        <ele>189</ele>
        <time>2018-01-05T12:04:43Z</time>
      </trkpt>
      <trkpt lat="45.94756" lon="4.7409">
        <ele>189</ele>
        <time>2018-01-05T12:04:44Z</time>
      </trkpt>
      <trkpt lat="45.94751" lon="4.74085">
        <ele>189</ele>
        <time>2018-01-05T12:04:45Z</time>
      </trkpt>
      <trkpt lat="45.94747" lon="4.74081">
        <ele>189</ele>
        <time>2018-01-05T12:04:46Z</time>
      </trkpt>
      <trkpt lat="45.94743" lon="4.74077">
        <ele>188</ele>
        <time>2018-01-05T12:04:47Z</time>
      </trkpt>
      <trkpt lat="45.9474" lon="4.74072">
        <ele>188</ele>
        <time>2018-01-05T12:04:48Z</time>
      </trkpt>
      <trkpt lat="45.94736" lon="4.74067">
        <ele>188</ele>
        <time>2018-01-05T12:04:49Z</time>
      </trkpt>
      <trkpt lat="45.94732" lon="4.74062">
        <ele>188</ele>
        <time>2018-01-05T12:04:50Z</time>
      </trkpt>
      <trkpt lat="45.94728" lon="4.74056">
        <ele>188</ele>
        <time>2018-01-05T12:04:51Z</time>
      </trkpt>
      <trkpt lat="45.94723" lon="4.74051">
        <ele>187</ele>
        <time>2018-01-05T12:04:52Z</time>
      </trkpt>
      <trkpt lat="45.94719" lon="4.74045">
        <ele>187</ele>
        <time>2018-01-05T12:04:53Z</time>
      </trkpt>
      <trkpt lat="45.94716" lon="4.7404">
        <ele>187</ele>
        <time>2018-01-05T12:04:54Z</time>
      </trkpt>
      <trkpt lat="45.94712" lon="4.74035">
        <ele>187</ele>
        <time>2018-01-05T12:04:55Z</time>
      </trkpt>
      <trkpt lat="45.94709" lon="4.7403">
        <ele>187</ele>
        <time>2018-01-05T12:04:56Z</time>
      </trkpt>
      <trkpt lat="45.94706" lon="4.74025">
        <ele>187</ele>
        <time>2018-01-05T12:04:57Z</time>
      </trkpt>
      <trkpt lat="45.94702" lon="4.74021">
        <ele>187</ele>
        <time>2018-01-05T12:04:58Z</time>
      </trkpt>
      <trkpt lat="45.94699" lon="4.74016">
        <ele>187</ele>
        <time>2018-01-05T12:04:59Z</time>
      </trkpt>
      <trkpt lat="45.94695" lon="4.74011">
        <ele>187</ele>
        <time>2018-01-05T12:05:00Z</time>
      </trkpt>
      <trkpt lat="45.94692" lon="4.74007">
        <ele>187</ele>
        <time>2018-01-05T12:05:01Z</time>
      </trkpt>
      <trkpt lat="45.94689" lon="4.74002">
        <ele>187</ele>
        <time>2018-01-05T12:05:02Z</time>
      </trkpt>
      <trkpt lat="45.94685" lon="4.73997">
        <ele>187</ele>
        <time>2018-01-05T12:05:03Z</time>
      </trkpt>
      <trkpt lat="45.94682" lon="4.73991">
        <ele>187</ele>
        <time>2018-01-05T12:05:04Z</time>
      </trkpt>
      <trkpt lat="45.94676" lon="4.73985">
        <ele>187</ele>
        <time>2018-01-05T12:05:05Z</time>
      </trkpt>
      <trkpt lat="45.94673" lon="4.7398">
        <ele>187</ele>
        <time>2018-01-05T12:05:06Z</time>
      </trkpt>
      <trkpt lat="45.94669" lon="4.73974">
        <ele>187</ele>
        <time>2018-01-05T12:05:07Z</time>
      </trkpt>
      <trkpt lat="45.94665" lon="4.73969">
        <ele>187</ele>
        <time>2018-01-05T12:05:08Z</time>
      </trkpt>
      <trkpt lat="45.94661" lon="4.73963">
        <ele>187</ele>
        <time>2018-01-05T12:05:09Z</time>
      </trkpt>
      <trkpt lat="45.94658" lon="4.73958">
        <ele>187</ele>
        <time>2018-01-05T12:05:10Z</time>
      </trkpt>
      <trkpt lat="45.94655" lon="4.73952">
        <ele>187</ele>
        <time>2018-01-05T12:05:11Z</time>
      </trkpt>
      <trkpt lat="45.94651" lon="4.73947">
        <ele>187</ele>
        <time>2018-01-05T12:05:12Z</time>
      </trkpt>
      <trkpt lat="45.94647" lon="4.73942">
        <ele>187</ele>
        <time>2018-01-05T12:05:13Z</time>
      </trkpt>
      <trkpt lat="45.94643" lon="4.73937">
        <ele>187</ele>
        <time>2018-01-05T12:05:14Z</time>
      </trkpt>
      <trkpt lat="45.94639" lon="4.73932">
        <ele>187</ele>
        <time>2018-01-05T12:05:15Z</time>
      </trkpt>
      <trkpt lat="45.94635" lon="4.73928">
        <ele>187</ele>
        <time>2018-01-05T12:05:16Z</time>
      </trkpt>
      <trkpt lat="45.94632" lon="4.73923">
        <ele>187</ele>
        <time>2018-01-05T12:05:17Z</time>
      </trkpt>
      <trkpt lat="45.94628" lon="4.73918">
        <ele>187</ele>
        <time>2018-01-05T12:05:18Z</time>
      </trkpt>
      <trkpt lat="45.94624" lon="4.73913">
        <ele>187</ele>
        <time>2018-01-05T12:05:19Z</time>
      </trkpt>
      <trkpt lat="45.94621" lon="4.73907">
        <ele>187</ele>
        <time>2018-01-05T12:05:20Z</time>
      </trkpt>
      <trkpt lat="45.94616" lon="4.73901">
        <ele>187</ele>
        <time>2018-01-05T12:05:21Z</time>
      </trkpt>
      <trkpt lat="45.94612" lon="4.73895">
        <ele>187</ele>
        <time>2018-01-05T12:05:22Z</time>
      </trkpt>
      <trkpt lat="45.94608" lon="4.7389">
        <ele>187</ele>
        <time>2018-01-05T12:05:23Z</time>
      </trkpt>
      <trkpt lat="45.94603" lon="4.73885">
        <ele>187</ele>
        <time>2018-01-05T12:05:24Z</time>
      </trkpt>
      <trkpt lat="45.94599" lon="4.7388">
        <ele>187</ele>
        <time>2018-01-05T12:05:25Z</time>
      </trkpt>
      <trkpt lat="45.94594" lon="4.73875">
        <ele>187</ele>
        <time>2018-01-05T12:05:26Z</time>
      </trkpt>
      <trkpt lat="45.94589" lon="4.73869">
        <ele>187</ele>
        <time>2018-01-05T12:05:27Z</time>
      </trkpt>
      <trkpt lat="45.94586" lon="4.73864">
        <ele>187</ele>
        <time>2018-01-05T12:05:28Z</time>
      </trkpt>
      <trkpt lat="45.94581" lon="4.73858">
        <ele>186</ele>
        <time>2018-01-05T12:05:29Z</time>
      </trkpt>
      <trkpt lat="45.94577" lon="4.73853">
        <ele>186</ele>
        <time>2018-01-05T12:05:30Z</time>
      </trkpt>
      <trkpt lat="45.94572" lon="4.73849">
        <ele>186</ele>
        <time>2018-01-05T12:05:31Z</time>
      </trkpt>
      <trkpt lat="45.94567" lon="4.73844">
        <ele>186</ele>
        <time>2018-01-05T12:05:32Z</time>
      </trkpt>
      <trkpt lat="45.94562" lon="4.7384">
        <ele>186</ele>
        <time>2018-01-05T12:05:33Z</time>
      </trkpt>
      <trkpt lat="45.94557" lon="4.73835">
        <ele>186</ele>
        <time>2018-01-05T12:05:34Z</time>
      </trkpt>
      <trkpt lat="45.94552" lon="4.73831">
        <ele>186</ele>
        <time>2018-01-05T12:05:35Z</time>
      </trkpt>
      <trkpt lat="45.94548" lon="4.73827">
        <ele>186</ele>
        <time>2018-01-05T12:05:36Z</time>
      </trkpt>
      <trkpt lat="45.94544" lon="4.73822">
        <ele>186</ele>
        <time>2018-01-05T12:05:37Z</time>
      </trkpt>
      <trkpt lat="45.94539" lon="4.73817">
        <ele>186</ele>
        <time>2018-01-05T12:05:38Z</time>
      </trkpt>
      <trkpt lat="45.94535" lon="4.73813">
        <ele>186</ele>
        <time>2018-01-05T12:05:39Z</time>
      </trkpt>
      <trkpt lat="45.94531" lon="4.73808">
        <ele>186</ele>
        <time>2018-01-05T12:05:40Z</time>
      </trkpt>
      <trkpt lat="45.94526" lon="4.73804">
        <ele>186</ele>
        <time>2018-01-05T12:05:41Z</time>
      </trkpt>
      <trkpt lat="45.94522" lon="4.73799">
        <ele>186</ele>
        <time>2018-01-05T12:05:42Z</time>
      </trkpt>
      <trkpt lat="45.94517" lon="4.73795">
        <ele>186</ele>
        <time>2018-01-05T12:05:43Z</time>
      </trkpt>
      <trkpt lat="45.94512" lon="4.7379">
        <ele>186</ele>
        <time>2018-01-05T12:05:44Z</time>
      </trkpt>
      <trkpt lat="45.94508" lon="4.73785">
        <ele>186</ele>
        <time>2018-01-05T12:05:45Z</time>
      </trkpt>
      <trkpt lat="45.94504" lon="4.73781">
        <ele>186</ele>
        <time>2018-01-05T12:05:46Z</time>
      </trkpt>
      <trkpt lat="45.945" lon="4.73776">
        <ele>186</ele>
        <time>2018-01-05T12:05:47Z</time>
      </trkpt>
      <trkpt lat="45.94496" lon="4.73772">
        <ele>186</ele>
        <time>2018-01-05T12:05:48Z</time>
      </trkpt>
      <trkpt lat="45.94493" lon="4.73768">
        <ele>186</ele>
        <time>2018-01-05T12:05:49Z</time>
      </trkpt>
      <trkpt lat="45.9449" lon="4.73762">
        <ele>186</ele>
        <time>2018-01-05T12:05:50Z</time>
      </trkpt>
      <trkpt lat="45.94488" lon="4.73756">
        <ele>186</ele>
        <time>2018-01-05T12:05:51Z</time>
      </trkpt>
      <trkpt lat="45.94485" lon="4.73744">
        <ele>186</ele>
        <time>2018-01-05T12:05:53Z</time>
      </trkpt>
      <trkpt lat="45.94486" lon="4.73737">
        <ele>186</ele>
        <time>2018-01-05T12:05:54Z</time>
      </trkpt>
      <trkpt lat="45.94487" lon="4.7373">
        <ele>186</ele>
        <time>2018-01-05T12:05:55Z</time>
      </trkpt>
      <trkpt lat="45.94487" lon="4.73722">
        <ele>186</ele>
        <time>2018-01-05T12:05:56Z</time>
      </trkpt>
      <trkpt lat="45.94489" lon="4.73714">
        <ele>186</ele>
        <time>2018-01-05T12:05:57Z</time>
      </trkpt>
      <trkpt lat="45.94491" lon="4.73705">
        <ele>186</ele>
        <time>2018-01-05T12:05:58Z</time>
      </trkpt>
      <trkpt lat="45.94492" lon="4.73697">
        <ele>186</ele>
        <time>2018-01-05T12:05:59Z</time>
      </trkpt>
      <trkpt lat="45.94493" lon="4.73689">
        <ele>186</ele>
        <time>2018-01-05T12:06:00Z</time>
      </trkpt>
      <trkpt lat="45.94494" lon="4.73682">
        <ele>185</ele>
        <time>2018-01-05T12:06:01Z</time>
      </trkpt>
      <trkpt lat="45.94496" lon="4.73674">
        <ele>185</ele>
        <time>2018-01-05T12:06:02Z</time>
      </trkpt>
      <trkpt lat="45.94496" lon="4.73666">
        <ele>185</ele>
        <time>2018-01-05T12:06:03Z</time>
      </trkpt>
      <trkpt lat="45.94497" lon="4.7366">
        <ele>185</ele>
        <time>2018-01-05T12:06:04Z</time>
      </trkpt>
      <trkpt lat="45.94498" lon="4.73652">
        <ele>185</ele>
        <time>2018-01-05T12:06:05Z</time>
      </trkpt>
      <trkpt lat="45.94499" lon="4.73645">
        <ele>186</ele>
        <time>2018-01-05T12:06:06Z</time>
      </trkpt>
      <trkpt lat="45.945" lon="4.73639">
        <ele>184</ele>
        <time>2018-01-05T12:06:07Z</time>
      </trkpt>
      <trkpt lat="45.945" lon="4.73632">
        <ele>186</ele>
        <time>2018-01-05T12:06:08Z</time>
      </trkpt>
      <trkpt lat="45.94499" lon="4.73624">
        <ele>186</ele>
        <time>2018-01-05T12:06:09Z</time>
      </trkpt>
      <trkpt lat="45.945" lon="4.73615">
        <ele>184</ele>
        <time>2018-01-05T12:06:10Z</time>
      </trkpt>
      <trkpt lat="45.94501" lon="4.73607">
        <ele>184</ele>
        <time>2018-01-05T12:06:11Z</time>
      </trkpt>
      <trkpt lat="45.94502" lon="4.73598">
        <ele>184</ele>
        <time>2018-01-05T12:06:12Z</time>
      </trkpt>
      <trkpt lat="45.94503" lon="4.73591">
        <ele>185</ele>
        <time>2018-01-05T12:06:13Z</time>
      </trkpt>
      <trkpt lat="45.94503" lon="4.73582">
        <ele>185</ele>
        <time>2018-01-05T12:06:14Z</time>
      </trkpt>
      <trkpt lat="45.94503" lon="4.73573">
        <ele>184</ele>
        <time>2018-01-05T12:06:15Z</time>
      </trkpt>
      <trkpt lat="45.94503" lon="4.73565">
        <ele>184</ele>
        <time>2018-01-05T12:06:16Z</time>
      </trkpt>
      <trkpt lat="45.94503" lon="4.73556">
        <ele>184</ele>
        <time>2018-01-05T12:06:17Z</time>
      </trkpt>
      <trkpt lat="45.94503" lon="4.73547">
        <ele>183</ele>
        <time>2018-01-05T12:06:18Z</time>
      </trkpt>
      <trkpt lat="45.94503" lon="4.73538">
        <ele>183</ele>
        <time>2018-01-05T12:06:19Z</time>
      </trkpt>
      <trkpt lat="45.94503" lon="4.73529">
        <ele>183</ele>
        <time>2018-01-05T12:06:20Z</time>
      </trkpt>
      <trkpt lat="45.94503" lon="4.73519">
        <ele>183</ele>
        <time>2018-01-05T12:06:21Z</time>
      </trkpt>
      <trkpt lat="45.94502" lon="4.73511">
        <ele>183</ele>
        <time>2018-01-05T12:06:22Z</time>
      </trkpt>
      <trkpt lat="45.94503" lon="4.73502">
        <ele>183</ele>
        <time>2018-01-05T12:06:23Z</time>
      </trkpt>
      <trkpt lat="45.94503" lon="4.73492">
        <ele>182</ele>
        <time>2018-01-05T12:06:24Z</time>
      </trkpt>
      <trkpt lat="45.94504" lon="4.73483">
        <ele>182</ele>
        <time>2018-01-05T12:06:25Z</time>
      </trkpt>
      <trkpt lat="45.94503" lon="4.73474">
        <ele>182</ele>
        <time>2018-01-05T12:06:26Z</time>
      </trkpt>
      <trkpt lat="45.94504" lon="4.73464">
        <ele>181</ele>
        <time>2018-01-05T12:06:27Z</time>
      </trkpt>
      <trkpt lat="45.94504" lon="4.73455">
        <ele>181</ele>
        <time>2018-01-05T12:06:28Z</time>
      </trkpt>
      <trkpt lat="45.94504" lon="4.73445">
        <ele>181</ele>
        <time>2018-01-05T12:06:29Z</time>
      </trkpt>
      <trkpt lat="45.94504" lon="4.73435">
        <ele>181</ele>
        <time>2018-01-05T12:06:30Z</time>
      </trkpt>
      <trkpt lat="45.94504" lon="4.73426">
        <ele>180</ele>
        <time>2018-01-05T12:06:31Z</time>
      </trkpt>
      <trkpt lat="45.94503" lon="4.73416">
        <ele>180</ele>
        <time>2018-01-05T12:06:32Z</time>
      </trkpt>
      <trkpt lat="45.94503" lon="4.73406">
        <ele>179</ele>
        <time>2018-01-05T12:06:33Z</time>
      </trkpt>
      <trkpt lat="45.94502" lon="4.73396">
        <ele>179</ele>
        <time>2018-01-05T12:06:34Z</time>
      </trkpt>
      <trkpt lat="45.94502" lon="4.73387">
        <ele>179</ele>
        <time>2018-01-05T12:06:35Z</time>
      </trkpt>
      <trkpt lat="45.94501" lon="4.73377">
        <ele>178</ele>
        <time>2018-01-05T12:06:36Z</time>
      </trkpt>
      <trkpt lat="45.94501" lon="4.73367">
        <ele>178</ele>
        <time>2018-01-05T12:06:37Z</time>
      </trkpt>
      <trkpt lat="45.945" lon="4.73356">
        <ele>178</ele>
        <time>2018-01-05T12:06:38Z</time>
      </trkpt>
      <trkpt lat="45.94499" lon="4.73345">
        <ele>178</ele>
        <time>2018-01-05T12:06:39Z</time>
      </trkpt>
      <trkpt lat="45.94497" lon="4.73335">
        <ele>177</ele>
        <time>2018-01-05T12:06:40Z</time>
      </trkpt>
      <trkpt lat="45.94496" lon="4.73325">
        <ele>177</ele>
        <time>2018-01-05T12:06:41Z</time>
      </trkpt>
      <trkpt lat="45.94495" lon="4.73314">
        <ele>177</ele>
        <time>2018-01-05T12:06:42Z</time>
      </trkpt>
      <trkpt lat="45.94493" lon="4.73303">
        <ele>177</ele>
        <time>2018-01-05T12:06:43Z</time>
      </trkpt>
      <trkpt lat="45.94492" lon="4.73292">
        <ele>177</ele>
        <time>2018-01-05T12:06:44Z</time>
      </trkpt>
      <trkpt lat="45.94491" lon="4.73282">
        <ele>177</ele>
        <time>2018-01-05T12:06:45Z</time>
      </trkpt>
      <trkpt lat="45.9449" lon="4.7327">
        <ele>177</ele>
        <time>2018-01-05T12:06:46Z</time>
      </trkpt>
      <trkpt lat="45.94488" lon="4.73259">
        <ele>176</ele>
        <time>2018-01-05T12:06:47Z</time>
      </trkpt>
      <trkpt lat="45.94487" lon="4.73248">
        <ele>175</ele>
        <time>2018-01-05T12:06:48Z</time>
      </trkpt>
      <trkpt lat="45.94485" lon="4.73237">
        <ele>175</ele>
        <time>2018-01-05T12:06:49Z</time>
      </trkpt>
      <trkpt lat="45.94484" lon="4.73226">
        <ele>175</ele>
        <time>2018-01-05T12:06:50Z</time>
      </trkpt>
      <trkpt lat="45.94482" lon="4.73214">
        <ele>175</ele>
        <time>2018-01-05T12:06:51Z</time>
      </trkpt>
      <trkpt lat="45.9448" lon="4.73202">
        <ele>175</ele>
        <time>2018-01-05T12:06:52Z</time>
      </trkpt>
      <trkpt lat="45.94478" lon="4.73191">
        <ele>174</ele>
        <time>2018-01-05T12:06:53Z</time>
      </trkpt>
      <trkpt lat="45.94477" lon="4.7318">
        <ele>174</ele>
        <time>2018-01-05T12:06:54Z</time>
      </trkpt>
      <trkpt lat="45.94477" lon="4.73169">
        <ele>174</ele>
        <time>2018-01-05T12:06:55Z</time>
      </trkpt>
      <trkpt lat="45.94476" lon="4.73158">
        <ele>173</ele>
        <time>2018-01-05T12:06:56Z</time>
      </trkpt>
      <trkpt lat="45.94475" lon="4.73147">
        <ele>172</ele>
        <time>2018-01-05T12:06:57Z</time>
      </trkpt>
      <trkpt lat="45.94473" lon="4.73136">
        <ele>172</ele>
        <time>2018-01-05T12:06:58Z</time>
      </trkpt>
      <trkpt lat="45.94472" lon="4.73125">
        <ele>172</ele>
        <time>2018-01-05T12:06:59Z</time>
      </trkpt>
      <trkpt lat="45.9447" lon="4.73115">
        <ele>172</ele>
        <time>2018-01-05T12:07:00Z</time>
      </trkpt>
      <trkpt lat="45.94469" lon="4.73105">
        <ele>172</ele>
        <time>2018-01-05T12:07:01Z</time>
      </trkpt>
      <trkpt lat="45.94468" lon="4.73096">
        <ele>172</ele>
        <time>2018-01-05T12:07:02Z</time>
      </trkpt>
      <trkpt lat="45.94467" lon="4.73088">
        <ele>171</ele>
        <time>2018-01-05T12:07:03Z</time>
      </trkpt>
      <trkpt lat="45.94466" lon="4.73079">
        <ele>170</ele>
        <time>2018-01-05T12:07:04Z</time>
      </trkpt>
      <trkpt lat="45.94464" lon="4.73071">
        <ele>170</ele>
        <time>2018-01-05T12:07:05Z</time>
      </trkpt>
      <trkpt lat="45.94462" lon="4.73062">
        <ele>170</ele>
        <time>2018-01-05T12:07:06Z</time>
      </trkpt>
      <trkpt lat="45.94461" lon="4.73055">
        <ele>170</ele>
        <time>2018-01-05T12:07:07Z</time>
      </trkpt>
      <trkpt lat="45.9446" lon="4.73047">
        <ele>170</ele>
        <time>2018-01-05T12:07:08Z</time>
      </trkpt>
      <trkpt lat="45.94459" lon="4.73039">
        <ele>169</ele>
        <time>2018-01-05T12:07:09Z</time>
      </trkpt>
      <trkpt lat="45.94459" lon="4.73032">
        <ele>169</ele>
        <time>2018-01-05T12:07:10Z</time>
      </trkpt>
      <trkpt lat="45.94458" lon="4.73025">
        <ele>169</ele>
        <time>2018-01-05T12:07:11Z</time>
      </trkpt>
      <trkpt lat="45.94457" lon="4.73018">
        <ele>169</ele>
        <time>2018-01-05T12:07:12Z</time>
      </trkpt>
      <trkpt lat="45.94455" lon="4.73011">
        <ele>169</ele>
        <time>2018-01-05T12:07:13Z</time>
      </trkpt>
      <trkpt lat="45.94454" lon="4.73004">
        <ele>169</ele>
        <time>2018-01-05T12:07:14Z</time>
      </trkpt>
      <trkpt lat="45.94453" lon="4.72997">
        <ele>167</ele>
        <time>2018-01-05T12:07:15Z</time>
      </trkpt>
      <trkpt lat="45.94452" lon="4.7299">
        <ele>167</ele>
        <time>2018-01-05T12:07:16Z</time>
      </trkpt>
      <trkpt lat="45.94449" lon="4.72979">
        <ele>167</ele>
        <time>2018-01-05T12:07:18Z</time>
      </trkpt>
      <trkpt lat="45.94449" lon="4.72972">
        <ele>167</ele>
        <time>2018-01-05T12:07:19Z</time>
      </trkpt>
      <trkpt lat="45.94447" lon="4.72959">
        <ele>167</ele>
        <time>2018-01-05T12:07:21Z</time>
      </trkpt>
      <trkpt lat="45.94447" lon="4.72953">
        <ele>167</ele>
        <time>2018-01-05T12:07:22Z</time>
      </trkpt>
      <trkpt lat="45.94446" lon="4.72942">
        <ele>167</ele>
        <time>2018-01-05T12:07:24Z</time>
      </trkpt>
      <trkpt lat="45.94445" lon="4.72937">
        <ele>167</ele>
        <time>2018-01-05T12:07:25Z</time>
      </trkpt>
      <trkpt lat="45.94443" lon="4.72927">
        <ele>167</ele>
        <time>2018-01-05T12:07:27Z</time>
      </trkpt>
      <trkpt lat="45.94442" lon="4.72922">
        <ele>167</ele>
        <time>2018-01-05T12:07:28Z</time>
      </trkpt>
      <trkpt lat="45.94441" lon="4.72912">
        <ele>166</ele>
        <time>2018-01-05T12:07:30Z</time>
      </trkpt>
      <trkpt lat="45.94441" lon="4.72906">
        <ele>166</ele>
        <time>2018-01-05T12:07:31Z</time>
      </trkpt>
      <trkpt lat="45.94439" lon="4.72895">
        <ele>166</ele>
        <time>2018-01-05T12:07:33Z</time>
      </trkpt>
      <trkpt lat="45.94439" lon="4.72889">
        <ele>166</ele>
        <time>2018-01-05T12:07:34Z</time>
      </trkpt>
      <trkpt lat="45.94437" lon="4.72878">
        <ele>166</ele>
        <time>2018-01-05T12:07:36Z</time>
      </trkpt>
      <trkpt lat="45.94436" lon="4.72871">
        <ele>166</ele>
        <time>2018-01-05T12:07:37Z</time>
      </trkpt>
      <trkpt lat="45.94435" lon="4.72864">
        <ele>166</ele>
        <time>2018-01-05T12:07:38Z</time>
      </trkpt>
      <trkpt lat="45.94434" lon="4.72857">
        <ele>166</ele>
        <time>2018-01-05T12:07:39Z</time>
      </trkpt>
      <trkpt lat="45.94433" lon="4.7285">
        <ele>166</ele>
        <time>2018-01-05T12:07:40Z</time>
      </trkpt>
      <trkpt lat="45.94433" lon="4.72842">
        <ele>166</ele>
        <time>2018-01-05T12:07:41Z</time>
      </trkpt>
      <trkpt lat="45.94432" lon="4.72835">
        <ele>166</ele>
        <time>2018-01-05T12:07:42Z</time>
      </trkpt>
      <trkpt lat="45.94431" lon="4.72827">
        <ele>167</ele>
        <time>2018-01-05T12:07:43Z</time>
      </trkpt>
      <trkpt lat="45.9443" lon="4.72819">
        <ele>167</ele>
        <time>2018-01-05T12:07:44Z</time>
      </trkpt>
      <trkpt lat="45.94429" lon="4.7281">
        <ele>167</ele>
        <time>2018-01-05T12:07:45Z</time>
      </trkpt>
      <trkpt lat="45.94428" lon="4.72802">
        <ele>167</ele>
        <time>2018-01-05T12:07:46Z</time>
      </trkpt>
      <trkpt lat="45.94426" lon="4.72792">
        <ele>168</ele>
        <time>2018-01-05T12:07:47Z</time>
      </trkpt>
      <trkpt lat="45.94425" lon="4.72783">
        <ele>168</ele>
        <time>2018-01-05T12:07:48Z</time>
      </trkpt>
      <trkpt lat="45.94424" lon="4.72774">
        <ele>169</ele>
        <time>2018-01-05T12:07:49Z</time>
      </trkpt>
      <trkpt lat="45.94423" lon="4.72764">
        <ele>169</ele>
        <time>2018-01-05T12:07:50Z</time>
      </trkpt>
      <trkpt lat="45.94423" lon="4.72755">
        <ele>170</ele>
        <time>2018-01-05T12:07:51Z</time>
      </trkpt>
      <trkpt lat="45.94422" lon="4.72746">
        <ele>171</ele>
        <time>2018-01-05T12:07:52Z</time>
      </trkpt>
      <trkpt lat="45.94421" lon="4.72736">
        <ele>171</ele>
        <time>2018-01-05T12:07:53Z</time>
      </trkpt>
      <trkpt lat="45.9442" lon="4.72726">
        <ele>171</ele>
        <time>2018-01-05T12:07:54Z</time>
      </trkpt>
      <trkpt lat="45.94417" lon="4.72716">
        <ele>172</ele>
        <time>2018-01-05T12:07:55Z</time>
      </trkpt>
      <trkpt lat="45.94415" lon="4.72708">
        <ele>172</ele>
        <time>2018-01-05T12:07:56Z</time>
      </trkpt>
      <trkpt lat="45.94415" lon="4.72699">
        <ele>172</ele>
        <time>2018-01-05T12:07:57Z</time>
      </trkpt>
      <trkpt lat="45.94414" lon="4.7269">
        <ele>173</ele>
        <time>2018-01-05T12:07:58Z</time>
      </trkpt>
      <trkpt lat="45.94413" lon="4.72681">
        <ele>173</ele>
        <time>2018-01-05T12:07:59Z</time>
      </trkpt>
      <trkpt lat="45.94412" lon="4.72672">
        <ele>174</ele>
        <time>2018-01-05T12:08:00Z</time>
      </trkpt>
      <trkpt lat="45.94411" lon="4.72662">
        <ele>174</ele>
        <time>2018-01-05T12:08:01Z</time>
      </trkpt>
      <trkpt lat="45.94409" lon="4.72652">
        <ele>174</ele>
        <time>2018-01-05T12:08:02Z</time>
      </trkpt>
      <trkpt lat="45.94408" lon="4.72643">
        <ele>174</ele>
        <time>2018-01-05T12:08:03Z</time>
      </trkpt>
      <trkpt lat="45.94407" lon="4.72634">
        <ele>174</ele>
        <time>2018-01-05T12:08:04Z</time>
      </trkpt>
      <trkpt lat="45.94406" lon="4.72625">
        <ele>173</ele>
        <time>2018-01-05T12:08:05Z</time>
      </trkpt>
      <trkpt lat="45.94406" lon="4.72616">
        <ele>173</ele>
        <time>2018-01-05T12:08:06Z</time>
      </trkpt>
      <trkpt lat="45.94405" lon="4.72609">
        <ele>173</ele>
        <time>2018-01-05T12:08:07Z</time>
      </trkpt>
      <trkpt lat="45.94405" lon="4.72601">
        <ele>173</ele>
        <time>2018-01-05T12:08:08Z</time>
      </trkpt>
      <trkpt lat="45.94404" lon="4.72593">
        <ele>173</ele>
        <time>2018-01-05T12:08:09Z</time>
      </trkpt>
      <trkpt lat="45.94402" lon="4.72585">
        <ele>173</ele>
        <time>2018-01-05T12:08:10Z</time>
      </trkpt>
      <trkpt lat="45.94402" lon="4.72579">
        <ele>173</ele>
        <time>2018-01-05T12:08:11Z</time>
      </trkpt>
      <trkpt lat="45.94399" lon="4.72571">
        <ele>173</ele>
        <time>2018-01-05T12:08:12Z</time>
      </trkpt>
      <trkpt lat="45.94398" lon="4.72564">
        <ele>173</ele>
        <time>2018-01-05T12:08:13Z</time>
      </trkpt>
      <trkpt lat="45.94397" lon="4.72556">
        <ele>173</ele>
        <time>2018-01-05T12:08:14Z</time>
      </trkpt>
      <trkpt lat="45.94396" lon="4.72549">
        <ele>173</ele>
        <time>2018-01-05T12:08:15Z</time>
      </trkpt>
      <trkpt lat="45.94394" lon="4.72542">
        <ele>173</ele>
        <time>2018-01-05T12:08:16Z</time>
      </trkpt>
      <trkpt lat="45.94391" lon="4.72535">
        <ele>174</ele>
        <time>2018-01-05T12:08:17Z</time>
      </trkpt>
      <trkpt lat="45.9439" lon="4.72528">
        <ele>174</ele>
        <time>2018-01-05T12:08:18Z</time>
      </trkpt>
      <trkpt lat="45.94388" lon="4.7252">
        <ele>174</ele>
        <time>2018-01-05T12:08:19Z</time>
      </trkpt>
      <trkpt lat="45.94385" lon="4.72513">
        <ele>174</ele>
        <time>2018-01-05T12:08:20Z</time>
      </trkpt>
      <trkpt lat="45.94383" lon="4.72505">
        <ele>174</ele>
        <time>2018-01-05T12:08:21Z</time>
      </trkpt>
      <trkpt lat="45.94383" lon="4.72498">
        <ele>173</ele>
        <time>2018-01-05T12:08:22Z</time>
      </trkpt>
      <trkpt lat="45.9438" lon="4.72491">
        <ele>173</ele>
        <time>2018-01-05T12:08:23Z</time>
      </trkpt>
      <trkpt lat="45.94377" lon="4.72485">
        <ele>173</ele>
        <time>2018-01-05T12:08:24Z</time>
      </trkpt>
      <trkpt lat="45.94374" lon="4.72478">
        <ele>173</ele>
        <time>2018-01-05T12:08:25Z</time>
      </trkpt>
      <trkpt lat="45.94373" lon="4.72472">
        <ele>173</ele>
        <time>2018-01-05T12:08:26Z</time>
      </trkpt>
      <trkpt lat="45.9437" lon="4.72465">
        <ele>173</ele>
        <time>2018-01-05T12:08:27Z</time>
      </trkpt>
      <trkpt lat="45.94367" lon="4.72459">
        <ele>173</ele>
        <time>2018-01-05T12:08:28Z</time>
      </trkpt>
      <trkpt lat="45.94365" lon="4.72453">
        <ele>173</ele>
        <time>2018-01-05T12:08:29Z</time>
      </trkpt>
      <trkpt lat="45.94363" lon="4.72446">
        <ele>173</ele>
        <time>2018-01-05T12:08:30Z</time>
      </trkpt>
      <trkpt lat="45.94359" lon="4.7244">
        <ele>173</ele>
        <time>2018-01-05T12:08:31Z</time>
      </trkpt>
      <trkpt lat="45.94355" lon="4.72435">
        <ele>173</ele>
        <time>2018-01-05T12:08:32Z</time>
      </trkpt>
      <trkpt lat="45.94353" lon="4.72428">
        <ele>173</ele>
        <time>2018-01-05T12:08:33Z</time>
      </trkpt>
      <trkpt lat="45.9435" lon="4.7242">
        <ele>173</ele>
        <time>2018-01-05T12:08:34Z</time>
      </trkpt>
      <trkpt lat="45.94347" lon="4.72412">
        <ele>173</ele>
        <time>2018-01-05T12:08:35Z</time>
      </trkpt>
      <trkpt lat="45.94344" lon="4.72405">
        <ele>173</ele>
        <time>2018-01-05T12:08:36Z</time>
      </trkpt>
      <trkpt lat="45.94341" lon="4.72398">
        <ele>172</ele>
        <time>2018-01-05T12:08:37Z</time>
      </trkpt>
      <trkpt lat="45.94339" lon="4.72392">
        <ele>172</ele>
        <time>2018-01-05T12:08:38Z</time>
      </trkpt>
      <trkpt lat="45.94335" lon="4.72385">
        <ele>172</ele>
        <time>2018-01-05T12:08:39Z</time>
      </trkpt>
      <trkpt lat="45.94332" lon="4.72379">
        <ele>172</ele>
        <time>2018-01-05T12:08:40Z</time>
      </trkpt>
      <trkpt lat="45.94328" lon="4.72374">
        <ele>172</ele>
        <time>2018-01-05T12:08:41Z</time>
      </trkpt>
      <trkpt lat="45.94326" lon="4.72367">
        <ele>172</ele>
        <time>2018-01-05T12:08:42Z</time>
      </trkpt>
      <trkpt lat="45.94322" lon="4.72361">
        <ele>172</ele>
        <time>2018-01-05T12:08:43Z</time>
      </trkpt>
      <trkpt lat="45.94319" lon="4.72356">
        <ele>172</ele>
        <time>2018-01-05T12:08:44Z</time>
      </trkpt>
      <trkpt lat="45.94316" lon="4.72349">
        <ele>172</ele>
        <time>2018-01-05T12:08:45Z</time>
      </trkpt>
      <trkpt lat="45.94314" lon="4.72341">
        <ele>172</ele>
        <time>2018-01-05T12:08:46Z</time>
      </trkpt>
      <trkpt lat="45.94312" lon="4.72334">
        <ele>172</ele>
        <time>2018-01-05T12:08:47Z</time>
      </trkpt>
      <trkpt lat="45.94309" lon="4.72328">
        <ele>171</ele>
        <time>2018-01-05T12:08:48Z</time>
      </trkpt>
      <trkpt lat="45.94305" lon="4.72322">
        <ele>171</ele>
        <time>2018-01-05T12:08:49Z</time>
      </trkpt>
      <trkpt lat="45.94301" lon="4.72312">
        <ele>171</ele>
        <time>2018-01-05T12:08:50Z</time>
      </trkpt>
      <trkpt lat="45.94298" lon="4.72305">
        <ele>171</ele>
        <time>2018-01-05T12:08:51Z</time>
      </trkpt>
      <trkpt lat="45.94295" lon="4.72299">
        <ele>171</ele>
        <time>2018-01-05T12:08:52Z</time>
      </trkpt>
      <trkpt lat="45.94291" lon="4.72293">
        <ele>171</ele>
        <time>2018-01-05T12:08:53Z</time>
      </trkpt>
      <trkpt lat="45.94288" lon="4.72286">
        <ele>171</ele>
        <time>2018-01-05T12:08:54Z</time>
      </trkpt>
      <trkpt lat="45.94285" lon="4.72281">
        <ele>171</ele>
        <time>2018-01-05T12:08:55Z</time>
      </trkpt>
      <trkpt lat="45.94278" lon="4.72273">
        <ele>171</ele>
        <time>2018-01-05T12:08:57Z</time>
      </trkpt>
      <trkpt lat="45.94273" lon="4.72271">
        <ele>171</ele>
        <time>2018-01-05T12:08:58Z</time>
      </trkpt>
      <trkpt lat="45.94268" lon="4.72271">
        <ele>171</ele>
        <time>2018-01-05T12:08:59Z</time>
      </trkpt>
      <trkpt lat="45.94262" lon="4.72272">
        <ele>171</ele>
        <time>2018-01-05T12:09:00Z</time>
      </trkpt>
      <trkpt lat="45.94257" lon="4.72274">
        <ele>171</ele>
        <time>2018-01-05T12:09:01Z</time>
      </trkpt>
      <trkpt lat="45.94252" lon="4.72276">
        <ele>171</ele>
        <time>2018-01-05T12:09:02Z</time>
      </trkpt>
      <trkpt lat="45.94246" lon="4.72278">
        <ele>171</ele>
        <time>2018-01-05T12:09:03Z</time>
      </trkpt>
      <trkpt lat="45.9424" lon="4.7228">
        <ele>171</ele>
        <time>2018-01-05T12:09:04Z</time>
      </trkpt>
      <trkpt lat="45.94235" lon="4.72282">
        <ele>171</ele>
        <time>2018-01-05T12:09:05Z</time>
      </trkpt>
      <trkpt lat="45.94229" lon="4.72282">
        <ele>171</ele>
        <time>2018-01-05T12:09:06Z</time>
      </trkpt>
      <trkpt lat="45.94224" lon="4.72283">
        <ele>171</ele>
        <time>2018-01-05T12:09:07Z</time>
      </trkpt>
      <trkpt lat="45.94219" lon="4.72284">
        <ele>171</ele>
        <time>2018-01-05T12:09:08Z</time>
      </trkpt>
      <trkpt lat="45.94214" lon="4.72285">
        <ele>171</ele>
        <time>2018-01-05T12:09:09Z</time>
      </trkpt>
      <trkpt lat="45.94209" lon="4.72285">
        <ele>171</ele>
        <time>2018-01-05T12:09:10Z</time>
      </trkpt>
      <trkpt lat="45.94204" lon="4.72286">
        <ele>171</ele>
        <time>2018-01-05T12:09:11Z</time>
      </trkpt>
      <trkpt lat="45.94199" lon="4.72286">
        <ele>171</ele>
        <time>2018-01-05T12:09:12Z</time>
      </trkpt>
      <trkpt lat="45.94194" lon="4.72286">
        <ele>171</ele>
        <time>2018-01-05T12:09:13Z</time>
      </trkpt>
      <trkpt lat="45.9419" lon="4.72287">
        <ele>171</ele>
        <time>2018-01-05T12:09:14Z</time>
      </trkpt>
      <trkpt lat="45.94185" lon="4.72287">
        <ele>171</ele>
        <time>2018-01-05T12:09:15Z</time>
      </trkpt>
      <trkpt lat="45.94179" lon="4.72287">
        <ele>171</ele>
        <time>2018-01-05T12:09:16Z</time>
      </trkpt>
      <trkpt lat="45.94174" lon="4.72287">
        <ele>171</ele>
        <time>2018-01-05T12:09:17Z</time>
      </trkpt>
      <trkpt lat="45.94169" lon="4.72287">
        <ele>171</ele>
        <time>2018-01-05T12:09:18Z</time>
      </trkpt>
      <trkpt lat="45.94164" lon="4.72286">
        <ele>171</ele>
        <time>2018-01-05T12:09:19Z</time>
      </trkpt>
      <trkpt lat="45.94159" lon="4.72285">
        <ele>171</ele>
        <time>2018-01-05T12:09:20Z</time>
      </trkpt>
      <trkpt lat="45.94153" lon="4.72283">
        <ele>171</ele>
        <time>2018-01-05T12:09:21Z</time>
      </trkpt>
      <trkpt lat="45.94148" lon="4.72281">
        <ele>171</ele>
        <time>2018-01-05T12:09:22Z</time>
      </trkpt>
      <trkpt lat="45.94142" lon="4.72279">
        <ele>171</ele>
        <time>2018-01-05T12:09:23Z</time>
      </trkpt>
      <trkpt lat="45.94138" lon="4.72277">
        <ele>171</ele>
        <time>2018-01-05T12:09:24Z</time>
      </trkpt>
      <trkpt lat="45.94133" lon="4.72275">
        <ele>171</ele>
        <time>2018-01-05T12:09:25Z</time>
      </trkpt>
      <trkpt lat="45.94128" lon="4.72272">
        <ele>171</ele>
        <time>2018-01-05T12:09:26Z</time>
      </trkpt>
      <trkpt lat="45.94124" lon="4.7227">
        <ele>171</ele>
        <time>2018-01-05T12:09:27Z</time>
      </trkpt>
      <trkpt lat="45.9412" lon="4.72267">
        <ele>171</ele>
        <time>2018-01-05T12:09:28Z</time>
      </trkpt>
      <trkpt lat="45.94111" lon="4.72265">
        <ele>171</ele>
        <time>2018-01-05T12:09:30Z</time>
      </trkpt>
      <trkpt lat="45.94106" lon="4.72263">
        <ele>171</ele>
        <time>2018-01-05T12:09:31Z</time>
      </trkpt>
      <trkpt lat="45.94101" lon="4.72263">
        <ele>171</ele>
        <time>2018-01-05T12:09:32Z</time>
      </trkpt>
      <trkpt lat="45.94096" lon="4.72262">
        <ele>171</ele>
        <time>2018-01-05T12:09:33Z</time>
      </trkpt>
      <trkpt lat="45.9409" lon="4.72262">
        <ele>171</ele>
        <time>2018-01-05T12:09:34Z</time>
      </trkpt>
      <trkpt lat="45.94085" lon="4.72265">
        <ele>171</ele>
        <time>2018-01-05T12:09:35Z</time>
      </trkpt>
      <trkpt lat="45.94079" lon="4.72268">
        <ele>171</ele>
        <time>2018-01-05T12:09:36Z</time>
      </trkpt>
      <trkpt lat="45.94074" lon="4.72271">
        <ele>171</ele>
        <time>2018-01-05T12:09:37Z</time>
      </trkpt>
      <trkpt lat="45.94069" lon="4.72277">
        <ele>171</ele>
        <time>2018-01-05T12:09:38Z</time>
      </trkpt>
      <trkpt lat="45.94064" lon="4.72281">
        <ele>171</ele>
        <time>2018-01-05T12:09:39Z</time>
      </trkpt>
      <trkpt lat="45.94059" lon="4.72287">
        <ele>171</ele>
        <time>2018-01-05T12:09:40Z</time>
      </trkpt>
      <trkpt lat="45.94055" lon="4.72292">
        <ele>171</ele>
        <time>2018-01-05T12:09:41Z</time>
      </trkpt>
      <trkpt lat="45.94051" lon="4.72298">
        <ele>171</ele>
        <time>2018-01-05T12:09:42Z</time>
      </trkpt>
      <trkpt lat="45.94046" lon="4.72304">
        <ele>171</ele>
        <time>2018-01-05T12:09:43Z</time>
      </trkpt>
      <trkpt lat="45.94042" lon="4.7231">
        <ele>171</ele>
        <time>2018-01-05T12:09:44Z</time>
      </trkpt>
      <trkpt lat="45.94037" lon="4.72316">
        <ele>171</ele>
        <time>2018-01-05T12:09:45Z</time>
      </trkpt>
      <trkpt lat="45.94033" lon="4.72322">
        <ele>171</ele>
        <time>2018-01-05T12:09:46Z</time>
      </trkpt>
      <trkpt lat="45.94028" lon="4.72327">
        <ele>171</ele>
        <time>2018-01-05T12:09:47Z</time>
      </trkpt>
      <trkpt lat="45.94023" lon="4.72333">
        <ele>171</ele>
        <time>2018-01-05T12:09:48Z</time>
      </trkpt>
      <trkpt lat="45.94019" lon="4.72338">
        <ele>171</ele>
        <time>2018-01-05T12:09:49Z</time>
      </trkpt>
      <trkpt lat="45.94015" lon="4.72344">
        <ele>171</ele>
        <time>2018-01-05T12:09:50Z</time>
      </trkpt>
      <trkpt lat="45.94011" lon="4.72349">
        <ele>171</ele>
        <time>2018-01-05T12:09:51Z</time>
      </trkpt>
      <trkpt lat="45.94008" lon="4.72354">
        <ele>171</ele>
        <time>2018-01-05T12:09:52Z</time>
      </trkpt>
      <trkpt lat="45.94004" lon="4.72359">
        <ele>171</ele>
        <time>2018-01-05T12:09:53Z</time>
      </trkpt>
      <trkpt lat="45.94" lon="4.72365">
        <ele>171</ele>
        <time>2018-01-05T12:09:54Z</time>
      </trkpt>
      <trkpt lat="45.93996" lon="4.72369">
        <ele>171</ele>
        <time>2018-01-05T12:09:55Z</time>
      </trkpt>
      <trkpt lat="45.93992" lon="4.72374">
        <ele>171</ele>
        <time>2018-01-05T12:09:56Z</time>
      </trkpt>
      <trkpt lat="45.93989" lon="4.7238">
        <ele>171</ele>
        <time>2018-01-05T12:09:57Z</time>
      </trkpt>
      <trkpt lat="45.93985" lon="4.72385">
        <ele>171</ele>
        <time>2018-01-05T12:09:58Z</time>
      </trkpt>
      <trkpt lat="45.93981" lon="4.72389">
        <ele>171</ele>
        <time>2018-01-05T12:09:59Z</time>
      </trkpt>
      <trkpt lat="45.93977" lon="4.72394">
        <ele>171</ele>
        <time>2018-01-05T12:10:00Z</time>
      </trkpt>
      <trkpt lat="45.93973" lon="4.72397">
        <ele>171</ele>
        <time>2018-01-05T12:10:01Z</time>
      </trkpt>
      <trkpt lat="45.93968" lon="4.72402">
        <ele>171</ele>
        <time>2018-01-05T12:10:02Z</time>
      </trkpt>
      <trkpt lat="45.93964" lon="4.72406">
        <ele>171</ele>
        <time>2018-01-05T12:10:03Z</time>
      </trkpt>
      <trkpt lat="45.93959" lon="4.72411">
        <ele>171</ele>
        <time>2018-01-05T12:10:04Z</time>
      </trkpt>
      <trkpt lat="45.93955" lon="4.72416">
        <ele>171</ele>
        <time>2018-01-05T12:10:05Z</time>
      </trkpt>
      <trkpt lat="45.93951" lon="4.72421">
        <ele>171</ele>
        <time>2018-01-05T12:10:06Z</time>
      </trkpt>
      <trkpt lat="45.93948" lon="4.72426">
        <ele>171</ele>
        <time>2018-01-05T12:10:07Z</time>
      </trkpt>
      <trkpt lat="45.93944" lon="4.72431">
        <ele>171</ele>
        <time>2018-01-05T12:10:08Z</time>
      </trkpt>
      <trkpt lat="45.9394" lon="4.72435">
        <ele>171</ele>
        <time>2018-01-05T12:10:09Z</time>
      </trkpt>
      <trkpt lat="45.93936" lon="4.7244">
        <ele>171</ele>
        <time>2018-01-05T12:10:10Z</time>
      </trkpt>
      <trkpt lat="45.93933" lon="4.72445">
        <ele>171</ele>
        <time>2018-01-05T12:10:11Z</time>
      </trkpt>
      <trkpt lat="45.93929" lon="4.72449">
        <ele>171</ele>
        <time>2018-01-05T12:10:12Z</time>
      </trkpt>
      <trkpt lat="45.93925" lon="4.72454">
        <ele>171</ele>
        <time>2018-01-05T12:10:13Z</time>
      </trkpt>
      <trkpt lat="45.93922" lon="4.7246">
        <ele>171</ele>
        <time>2018-01-05T12:10:14Z</time>
      </trkpt>
      <trkpt lat="45.93919" lon="4.72465">
        <ele>171</ele>
        <time>2018-01-05T12:10:15Z</time>
      </trkpt>
      <trkpt lat="45.93915" lon="4.7247">
        <ele>172</ele>
        <time>2018-01-05T12:10:16Z</time>
      </trkpt>
      <trkpt lat="45.93911" lon="4.72474">
        <ele>172</ele>
        <time>2018-01-05T12:10:17Z</time>
      </trkpt>
      <trkpt lat="45.93907" lon="4.72479">
        <ele>172</ele>
        <time>2018-01-05T12:10:18Z</time>
      </trkpt>
      <trkpt lat="45.93903" lon="4.72484">
        <ele>172</ele>
        <time>2018-01-05T12:10:19Z</time>
      </trkpt>
      <trkpt lat="45.93899" lon="4.72488">
        <ele>172</ele>
        <time>2018-01-05T12:10:20Z</time>
      </trkpt>
      <trkpt lat="45.93895" lon="4.72494">
        <ele>172</ele>
        <time>2018-01-05T12:10:21Z</time>
      </trkpt>
      <trkpt lat="45.93891" lon="4.72499">
        <ele>172</ele>
        <time>2018-01-05T12:10:22Z</time>
      </trkpt>
      <trkpt lat="45.93887" lon="4.72504">
        <ele>173</ele>
        <time>2018-01-05T12:10:23Z</time>
      </trkpt>
      <trkpt lat="45.93881" lon="4.72509">
        <ele>173</ele>
        <time>2018-01-05T12:10:24Z</time>
      </trkpt>
      <trkpt lat="45.93876" lon="4.72513">
        <ele>173</ele>
        <time>2018-01-05T12:10:25Z</time>
      </trkpt>
      <trkpt lat="45.93871" lon="4.72515">
        <ele>173</ele>
        <time>2018-01-05T12:10:26Z</time>
      </trkpt>
      <trkpt lat="45.93866" lon="4.72515">
        <ele>173</ele>
        <time>2018-01-05T12:10:27Z</time>
      </trkpt>
      <trkpt lat="45.93861" lon="4.72513">
        <ele>173</ele>
        <time>2018-01-05T12:10:28Z</time>
      </trkpt>
      <trkpt lat="45.93858" lon="4.72509">
        <ele>173</ele>
        <time>2018-01-05T12:10:29Z</time>
      </trkpt>
      <trkpt lat="45.93854" lon="4.72505">
        <ele>173</ele>
        <time>2018-01-05T12:10:30Z</time>
      </trkpt>
      <trkpt lat="45.93847" lon="4.72499">
        <ele>173</ele>
        <time>2018-01-05T12:10:32Z</time>
      </trkpt>
      <trkpt lat="45.93824" lon="4.72476">
        <ele>173</ele>
        <time>2018-01-05T12:10:37Z</time>
      </trkpt>
      <trkpt lat="45.93819" lon="4.72472">
        <ele>172</ele>
        <time>2018-01-05T12:10:38Z</time>
      </trkpt>
      <trkpt lat="45.93815" lon="4.72467">
        <ele>172</ele>
        <time>2018-01-05T12:10:39Z</time>
      </trkpt>
      <trkpt lat="45.93811" lon="4.72462">
        <ele>172</ele>
        <time>2018-01-05T12:10:40Z</time>
      </trkpt>
      <trkpt lat="45.93806" lon="4.72459">
        <ele>172</ele>
        <time>2018-01-05T12:10:41Z</time>
      </trkpt>
      <trkpt lat="45.938" lon="4.72452">
        <ele>172</ele>
        <time>2018-01-05T12:10:43Z</time>
      </trkpt>
      <trkpt lat="45.93796" lon="4.72449">
        <ele>172</ele>
        <time>2018-01-05T12:10:44Z</time>
      </trkpt>
      <trkpt lat="45.93792" lon="4.72445">
        <ele>172</ele>
        <time>2018-01-05T12:10:45Z</time>
      </trkpt>
      <trkpt lat="45.93788" lon="4.72442">
        <ele>172</ele>
        <time>2018-01-05T12:10:46Z</time>
      </trkpt>
      <trkpt lat="45.93784" lon="4.72438">
        <ele>172</ele>
        <time>2018-01-05T12:10:47Z</time>
      </trkpt>
      <trkpt lat="45.93779" lon="4.72433">
        <ele>172</ele>
        <time>2018-01-05T12:10:48Z</time>
      </trkpt>
      <trkpt lat="45.93773" lon="4.72426">
        <ele>171</ele>
        <time>2018-01-05T12:10:50Z</time>
      </trkpt>
      <trkpt lat="45.93769" lon="4.72423">
        <ele>171</ele>
        <time>2018-01-05T12:10:51Z</time>
      </trkpt>
      <trkpt lat="45.93764" lon="4.72418">
        <ele>171</ele>
        <time>2018-01-05T12:10:52Z</time>
      </trkpt>
      <trkpt lat="45.93761" lon="4.72415">
        <ele>171</ele>
        <time>2018-01-05T12:10:53Z</time>
      </trkpt>
      <trkpt lat="45.93756" lon="4.72411">
        <ele>171</ele>
        <time>2018-01-05T12:10:54Z</time>
      </trkpt>
      <trkpt lat="45.93752" lon="4.72406">
        <ele>171</ele>
        <time>2018-01-05T12:10:55Z</time>
      </trkpt>
      <trkpt lat="45.93745" lon="4.72399">
        <ele>171</ele>
        <time>2018-01-05T12:10:57Z</time>
      </trkpt>
      <trkpt lat="45.93742" lon="4.72395">
        <ele>171</ele>
        <time>2018-01-05T12:10:58Z</time>
      </trkpt>
      <trkpt lat="45.93735" lon="4.72389">
        <ele>171</ele>
        <time>2018-01-05T12:11:00Z</time>
      </trkpt>
      <trkpt lat="45.93732" lon="4.72385">
        <ele>171</ele>
        <time>2018-01-05T12:11:01Z</time>
      </trkpt>
      <trkpt lat="45.93727" lon="4.72381">
        <ele>171</ele>
        <time>2018-01-05T12:11:02Z</time>
      </trkpt>
      <trkpt lat="45.93723" lon="4.72377">
        <ele>171</ele>
        <time>2018-01-05T12:11:03Z</time>
      </trkpt>
      <trkpt lat="45.9372" lon="4.72373">
        <ele>172</ele>
        <time>2018-01-05T12:11:04Z</time>
      </trkpt>
      <trkpt lat="45.93715" lon="4.72369">
        <ele>172</ele>
        <time>2018-01-05T12:11:05Z</time>
      </trkpt>
      <trkpt lat="45.9371" lon="4.72365">
        <ele>172</ele>
        <time>2018-01-05T12:11:06Z</time>
      </trkpt>
      <trkpt lat="45.93706" lon="4.7236">
        <ele>171</ele>
        <time>2018-01-05T12:11:07Z</time>
      </trkpt>
      <trkpt lat="45.93701" lon="4.72357">
        <ele>171</ele>
        <time>2018-01-05T12:11:08Z</time>
      </trkpt>
      <trkpt lat="45.93697" lon="4.72353">
        <ele>171</ele>
        <time>2018-01-05T12:11:09Z</time>
      </trkpt>
      <trkpt lat="45.93695" lon="4.72351">
        <ele>171</ele>
        <time>2018-01-05T12:11:10Z</time>
      </trkpt>
      <trkpt lat="45.9369" lon="4.72345">
        <ele>171</ele>
        <time>2018-01-05T12:11:11Z</time>
      </trkpt>
      <trkpt lat="45.93685" lon="4.72342">
        <ele>171</ele>
        <time>2018-01-05T12:11:12Z</time>
      </trkpt>
      <trkpt lat="45.93682" lon="4.72339">
        <ele>171</ele>
        <time>2018-01-05T12:11:13Z</time>
      </trkpt>
      <trkpt lat="45.93675" lon="4.72331">
        <ele>171</ele>
        <time>2018-01-05T12:11:15Z</time>
      </trkpt>
      <trkpt lat="45.93674" lon="4.72327">
        <ele>171</ele>
        <time>2018-01-05T12:11:16Z</time>
      </trkpt>
      <trkpt lat="45.93669" lon="4.72322">
        <ele>171</ele>
        <time>2018-01-05T12:11:17Z</time>
      </trkpt>
      <trkpt lat="45.93665" lon="4.72319">
        <ele>172</ele>
        <time>2018-01-05T12:11:18Z</time>
      </trkpt>
      <trkpt lat="45.93657" lon="4.72311">
        <ele>172</ele>
        <time>2018-01-05T12:11:20Z</time>
      </trkpt>
      <trkpt lat="45.93655" lon="4.72309">
        <ele>172</ele>
        <time>2018-01-05T12:11:21Z</time>
      </trkpt>
      <trkpt lat="45.93651" lon="4.72305">
        <ele>172</ele>
        <time>2018-01-05T12:11:22Z</time>
      </trkpt>
      <trkpt lat="45.93647" lon="4.72302">
        <ele>172</ele>
        <time>2018-01-05T12:11:23Z</time>
      </trkpt>
      <trkpt lat="45.93643" lon="4.72299">
        <ele>172</ele>
        <time>2018-01-05T12:11:24Z</time>
      </trkpt>
      <trkpt lat="45.93639" lon="4.72296">
        <ele>172</ele>
        <time>2018-01-05T12:11:25Z</time>
      </trkpt>
      <trkpt lat="45.93633" lon="4.72292">
        <ele>172</ele>
        <time>2018-01-05T12:11:26Z</time>
      </trkpt>
      <trkpt lat="45.93629" lon="4.72288">
        <ele>172</ele>
        <time>2018-01-05T12:11:27Z</time>
      </trkpt>
      <trkpt lat="45.93623" lon="4.7228">
        <ele>172</ele>
        <time>2018-01-05T12:11:29Z</time>
      </trkpt>
      <trkpt lat="45.9362" lon="4.72277">
        <ele>172</ele>
        <time>2018-01-05T12:11:30Z</time>
      </trkpt>
      <trkpt lat="45.93612" lon="4.72271">
        <ele>172</ele>
        <time>2018-01-05T12:11:32Z</time>
      </trkpt>
      <trkpt lat="45.9361" lon="4.72269">
        <ele>172</ele>
        <time>2018-01-05T12:11:33Z</time>
      </trkpt>
      <trkpt lat="45.93605" lon="4.72267">
        <ele>173</ele>
        <time>2018-01-05T12:11:34Z</time>
      </trkpt>
      <trkpt lat="45.936" lon="4.72264">
        <ele>173</ele>
        <time>2018-01-05T12:11:35Z</time>
      </trkpt>
      <trkpt lat="45.93596" lon="4.7226">
        <ele>173</ele>
        <time>2018-01-05T12:11:36Z</time>
      </trkpt>
      <trkpt lat="45.93595" lon="4.72253">
        <ele>173</ele>
        <time>2018-01-05T12:11:37Z</time>
      </trkpt>
      <trkpt lat="45.93589" lon="4.72247">
        <ele>173</ele>
        <time>2018-01-05T12:11:39Z</time>
      </trkpt>
      <trkpt lat="45.93586" lon="4.72245">
        <ele>173</ele>
        <time>2018-01-05T12:11:40Z</time>
      </trkpt>
      <trkpt lat="45.93581" lon="4.72238">
        <ele>173</ele>
        <time>2018-01-05T12:11:42Z</time>
      </trkpt>
      <trkpt lat="45.93578" lon="4.72234">
        <ele>173</ele>
        <time>2018-01-05T12:11:43Z</time>
      </trkpt>
      <trkpt lat="45.93572" lon="4.72228">
        <ele>173</ele>
        <time>2018-01-05T12:11:45Z</time>
      </trkpt>
      <trkpt lat="45.93569" lon="4.72225">
        <ele>173</ele>
        <time>2018-01-05T12:11:46Z</time>
      </trkpt>
      <trkpt lat="45.93562" lon="4.72221">
        <ele>173</ele>
        <time>2018-01-05T12:11:49Z</time>
      </trkpt>
      <trkpt lat="45.9356" lon="4.72219">
        <ele>173</ele>
        <time>2018-01-05T12:11:50Z</time>
      </trkpt>
      <trkpt lat="45.93551" lon="4.7222">
        <ele>173</ele>
        <time>2018-01-05T12:11:53Z</time>
      </trkpt>
      <trkpt lat="45.93548" lon="4.72224">
        <ele>172</ele>
        <time>2018-01-05T12:11:54Z</time>
      </trkpt>
      <trkpt lat="45.93544" lon="4.72234">
        <ele>172</ele>
        <time>2018-01-05T12:11:56Z</time>
      </trkpt>
      <trkpt lat="45.93542" lon="4.72239">
        <ele>172</ele>
        <time>2018-01-05T12:11:57Z</time>
      </trkpt>
      <trkpt lat="45.93537" lon="4.72249">
        <ele>172</ele>
        <time>2018-01-05T12:11:59Z</time>
      </trkpt>
      <trkpt lat="45.93535" lon="4.72255">
        <ele>172</ele>
        <time>2018-01-05T12:12:00Z</time>
      </trkpt>
      <trkpt lat="45.93533" lon="4.72261">
        <ele>172</ele>
        <time>2018-01-05T12:12:01Z</time>
      </trkpt>
      <trkpt lat="45.9353" lon="4.72266">
        <ele>172</ele>
        <time>2018-01-05T12:12:02Z</time>
      </trkpt>
      <trkpt lat="45.93528" lon="4.72272">
        <ele>172</ele>
        <time>2018-01-05T12:12:03Z</time>
      </trkpt>
      <trkpt lat="45.93525" lon="4.72278">
        <ele>172</ele>
        <time>2018-01-05T12:12:04Z</time>
      </trkpt>
      <trkpt lat="45.93522" lon="4.72286">
        <ele>172</ele>
        <time>2018-01-05T12:12:05Z</time>
      </trkpt>
      <trkpt lat="45.93519" lon="4.72292">
        <ele>172</ele>
        <time>2018-01-05T12:12:06Z</time>
      </trkpt>
      <trkpt lat="45.93516" lon="4.72299">
        <ele>172</ele>
        <time>2018-01-05T12:12:07Z</time>
      </trkpt>
      <trkpt lat="45.93512" lon="4.72305">
        <ele>173</ele>
        <time>2018-01-05T12:12:08Z</time>
      </trkpt>
      <trkpt lat="45.93508" lon="4.7231">
        <ele>173</ele>
        <time>2018-01-05T12:12:09Z</time>
      </trkpt>
      <trkpt lat="45.93504" lon="4.72317">
        <ele>173</ele>
        <time>2018-01-05T12:12:10Z</time>
      </trkpt>
      <trkpt lat="45.93499" lon="4.72323">
        <ele>173</ele>
        <time>2018-01-05T12:12:11Z</time>
      </trkpt>
      <trkpt lat="45.93494" lon="4.72329">
        <ele>173</ele>
        <time>2018-01-05T12:12:12Z</time>
      </trkpt>
      <trkpt lat="45.9349" lon="4.72335">
        <ele>173</ele>
        <time>2018-01-05T12:12:13Z</time>
      </trkpt>
      <trkpt lat="45.93486" lon="4.72341">
        <ele>173</ele>
        <time>2018-01-05T12:12:14Z</time>
      </trkpt>
      <trkpt lat="45.93482" lon="4.72347">
        <ele>173</ele>
        <time>2018-01-05T12:12:15Z</time>
      </trkpt>
      <trkpt lat="45.93477" lon="4.72353">
        <ele>173</ele>
        <time>2018-01-05T12:12:16Z</time>
      </trkpt>
      <trkpt lat="45.93473" lon="4.72359">
        <ele>173</ele>
        <time>2018-01-05T12:12:17Z</time>
      </trkpt>
      <trkpt lat="45.93468" lon="4.72365">
        <ele>173</ele>
        <time>2018-01-05T12:12:18Z</time>
      </trkpt>
      <trkpt lat="45.93464" lon="4.7237">
        <ele>173</ele>
        <time>2018-01-05T12:12:19Z</time>
      </trkpt>
      <trkpt lat="45.93461" lon="4.72376">
        <ele>173</ele>
        <time>2018-01-05T12:12:20Z</time>
      </trkpt>
      <trkpt lat="45.93457" lon="4.7238">
        <ele>173</ele>
        <time>2018-01-05T12:12:21Z</time>
      </trkpt>
      <trkpt lat="45.93453" lon="4.72384">
        <ele>173</ele>
        <time>2018-01-05T12:12:22Z</time>
      </trkpt>
      <trkpt lat="45.93449" lon="4.72389">
        <ele>173</ele>
        <time>2018-01-05T12:12:23Z</time>
      </trkpt>
      <trkpt lat="45.93444" lon="4.72393">
        <ele>173</ele>
        <time>2018-01-05T12:12:24Z</time>
      </trkpt>
      <trkpt lat="45.9344" lon="4.72396">
        <ele>173</ele>
        <time>2018-01-05T12:12:25Z</time>
      </trkpt>
      <trkpt lat="45.93435" lon="4.72398">
        <ele>173</ele>
        <time>2018-01-05T12:12:26Z</time>
      </trkpt>
      <trkpt lat="45.9343" lon="4.724">
        <ele>174</ele>
        <time>2018-01-05T12:12:27Z</time>
      </trkpt>
      <trkpt lat="45.93425" lon="4.72402">
        <ele>174</ele>
        <time>2018-01-05T12:12:28Z</time>
      </trkpt>
      <trkpt lat="45.93421" lon="4.72405">
        <ele>174</ele>
        <time>2018-01-05T12:12:29Z</time>
      </trkpt>
      <trkpt lat="45.93416" lon="4.72407">
        <ele>174</ele>
        <time>2018-01-05T12:12:30Z</time>
      </trkpt>
      <trkpt lat="45.93412" lon="4.72406">
        <ele>174</ele>
        <time>2018-01-05T12:12:31Z</time>
      </trkpt>
      <trkpt lat="45.93407" lon="4.72406">
        <ele>174</ele>
        <time>2018-01-05T12:12:32Z</time>
      </trkpt>
      <trkpt lat="45.93403" lon="4.72406">
        <ele>174</ele>
        <time>2018-01-05T12:12:33Z</time>
      </trkpt>
      <trkpt lat="45.93398" lon="4.72406">
        <ele>174</ele>
        <time>2018-01-05T12:12:34Z</time>
      </trkpt>
      <trkpt lat="45.9339" lon="4.72406">
        <ele>174</ele>
        <time>2018-01-05T12:12:36Z</time>
      </trkpt>
      <trkpt lat="45.93386" lon="4.72409">
        <ele>174</ele>
        <time>2018-01-05T12:12:37Z</time>
      </trkpt>
      <trkpt lat="45.93383" lon="4.72414">
        <ele>174</ele>
        <time>2018-01-05T12:12:38Z</time>
      </trkpt>
      <trkpt lat="45.93381" lon="4.72421">
        <ele>173</ele>
        <time>2018-01-05T12:12:39Z</time>
      </trkpt>
      <trkpt lat="45.93383" lon="4.72427">
        <ele>173</ele>
        <time>2018-01-05T12:12:40Z</time>
      </trkpt>
      <trkpt lat="45.93385" lon="4.72434">
        <ele>173</ele>
        <time>2018-01-05T12:12:41Z</time>
      </trkpt>
      <trkpt lat="45.93387" lon="4.7244">
        <ele>173</ele>
        <time>2018-01-05T12:12:42Z</time>
      </trkpt>
      <trkpt lat="45.93388" lon="4.72447">
        <ele>173</ele>
        <time>2018-01-05T12:12:43Z</time>
      </trkpt>
      <trkpt lat="45.93389" lon="4.72454">
        <ele>173</ele>
        <time>2018-01-05T12:12:44Z</time>
      </trkpt>
      <trkpt lat="45.93388" lon="4.7246">
        <ele>173</ele>
        <time>2018-01-05T12:12:45Z</time>
      </trkpt>
      <trkpt lat="45.93386" lon="4.72467">
        <ele>173</ele>
        <time>2018-01-05T12:12:46Z</time>
      </trkpt>
      <trkpt lat="45.93383" lon="4.72472">
        <ele>173</ele>
        <time>2018-01-05T12:12:47Z</time>
      </trkpt>
      <trkpt lat="45.93379" lon="4.72477">
        <ele>173</ele>
        <time>2018-01-05T12:12:48Z</time>
      </trkpt>
      <trkpt lat="45.93375" lon="4.72481">
        <ele>173</ele>
        <time>2018-01-05T12:12:49Z</time>
      </trkpt>
      <trkpt lat="45.93372" lon="4.72486">
        <ele>173</ele>
        <time>2018-01-05T12:12:50Z</time>
      </trkpt>
      <trkpt lat="45.93368" lon="4.7249">
        <ele>173</ele>
        <time>2018-01-05T12:12:51Z</time>
      </trkpt>
      <trkpt lat="45.93363" lon="4.72495">
        <ele>173</ele>
        <time>2018-01-05T12:12:52Z</time>
      </trkpt>
      <trkpt lat="45.93359" lon="4.72499">
        <ele>173</ele>
        <time>2018-01-05T12:12:53Z</time>
      </trkpt>
      <trkpt lat="45.93354" lon="4.72503">
        <ele>172</ele>
        <time>2018-01-05T12:12:54Z</time>
      </trkpt>
      <trkpt lat="45.9335" lon="4.72508">
        <ele>172</ele>
        <time>2018-01-05T12:12:55Z</time>
      </trkpt>
      <trkpt lat="45.93346" lon="4.72514">
        <ele>172</ele>
        <time>2018-01-05T12:12:56Z</time>
      </trkpt>
      <trkpt lat="45.93341" lon="4.72519">
        <ele>172</ele>
        <time>2018-01-05T12:12:57Z</time>
      </trkpt>
      <trkpt lat="45.93337" lon="4.72524">
        <ele>172</ele>
        <time>2018-01-05T12:12:58Z</time>
      </trkpt>
      <trkpt lat="45.93334" lon="4.72529">
        <ele>172</ele>
        <time>2018-01-05T12:12:59Z</time>
      </trkpt>
      <trkpt lat="45.93329" lon="4.72535">
        <ele>172</ele>
        <time>2018-01-05T12:13:00Z</time>
      </trkpt>
      <trkpt lat="45.93325" lon="4.7254">
        <ele>172</ele>
        <time>2018-01-05T12:13:01Z</time>
      </trkpt>
      <trkpt lat="45.93321" lon="4.72545">
        <ele>172</ele>
        <time>2018-01-05T12:13:02Z</time>
      </trkpt>
      <trkpt lat="45.93317" lon="4.72549">
        <ele>172</ele>
        <time>2018-01-05T12:13:03Z</time>
      </trkpt>
      <trkpt lat="45.93311" lon="4.72558">
        <ele>172</ele>
        <time>2018-01-05T12:13:05Z</time>
      </trkpt>
      <trkpt lat="45.93306" lon="4.72564">
        <ele>171</ele>
        <time>2018-01-05T12:13:06Z</time>
      </trkpt>
      <trkpt lat="45.93302" lon="4.72569">
        <ele>171</ele>
        <time>2018-01-05T12:13:07Z</time>
      </trkpt>
      <trkpt lat="45.93298" lon="4.72575">
        <ele>171</ele>
        <time>2018-01-05T12:13:08Z</time>
      </trkpt>
      <trkpt lat="45.93294" lon="4.72579">
        <ele>171</ele>
        <time>2018-01-05T12:13:09Z</time>
      </trkpt>
      <trkpt lat="45.9329" lon="4.72585">
        <ele>170</ele>
        <time>2018-01-05T12:13:10Z</time>
      </trkpt>
      <trkpt lat="45.93285" lon="4.7259">
        <ele>170</ele>
        <time>2018-01-05T12:13:11Z</time>
      </trkpt>
      <trkpt lat="45.9328" lon="4.72595">
        <ele>170</ele>
        <time>2018-01-05T12:13:12Z</time>
      </trkpt>
      <trkpt lat="45.93276" lon="4.726">
        <ele>170</ele>
        <time>2018-01-05T12:13:13Z</time>
      </trkpt>
      <trkpt lat="45.93271" lon="4.72605">
        <ele>170</ele>
        <time>2018-01-05T12:13:14Z</time>
      </trkpt>
      <trkpt lat="45.93266" lon="4.7261">
        <ele>170</ele>
        <time>2018-01-05T12:13:15Z</time>
      </trkpt>
      <trkpt lat="45.93261" lon="4.72615">
        <ele>170</ele>
        <time>2018-01-05T12:13:16Z</time>
      </trkpt>
      <trkpt lat="45.93257" lon="4.7262">
        <ele>170</ele>
        <time>2018-01-05T12:13:17Z</time>
      </trkpt>
      <trkpt lat="45.93253" lon="4.72625">
        <ele>170</ele>
        <time>2018-01-05T12:13:18Z</time>
      </trkpt>
      <trkpt lat="45.93249" lon="4.72629">
        <ele>170</ele>
        <time>2018-01-05T12:13:19Z</time>
      </trkpt>
      <trkpt lat="45.93245" lon="4.72634">
        <ele>170</ele>
        <time>2018-01-05T12:13:20Z</time>
      </trkpt>
      <trkpt lat="45.9324" lon="4.72636">
        <ele>170</ele>
        <time>2018-01-05T12:13:21Z</time>
      </trkpt>
      <trkpt lat="45.93236" lon="4.7264">
        <ele>170</ele>
        <time>2018-01-05T12:13:22Z</time>
      </trkpt>
      <trkpt lat="45.93232" lon="4.72644">
        <ele>170</ele>
        <time>2018-01-05T12:13:23Z</time>
      </trkpt>
      <trkpt lat="45.93228" lon="4.72649">
        <ele>170</ele>
        <time>2018-01-05T12:13:24Z</time>
      </trkpt>
      <trkpt lat="45.93224" lon="4.72653">
        <ele>170</ele>
        <time>2018-01-05T12:13:25Z</time>
      </trkpt>
      <trkpt lat="45.9322" lon="4.72658">
        <ele>170</ele>
        <time>2018-01-05T12:13:26Z</time>
      </trkpt>
      <trkpt lat="45.93217" lon="4.72663">
        <ele>170</ele>
        <time>2018-01-05T12:13:27Z</time>
      </trkpt>
      <trkpt lat="45.93213" lon="4.72669">
        <ele>169</ele>
        <time>2018-01-05T12:13:28Z</time>
      </trkpt>
      <trkpt lat="45.93209" lon="4.72674">
        <ele>169</ele>
        <time>2018-01-05T12:13:29Z</time>
      </trkpt>
      <trkpt lat="45.93205" lon="4.7268">
        <ele>169</ele>
        <time>2018-01-05T12:13:30Z</time>
      </trkpt>
      <trkpt lat="45.932" lon="4.72685">
        <ele>169</ele>
        <time>2018-01-05T12:13:31Z</time>
      </trkpt>
      <trkpt lat="45.93196" lon="4.7269">
        <ele>169</ele>
        <time>2018-01-05T12:13:32Z</time>
      </trkpt>
      <trkpt lat="45.93191" lon="4.72695">
        <ele>169</ele>
        <time>2018-01-05T12:13:33Z</time>
      </trkpt>
      <trkpt lat="45.93187" lon="4.727">
        <ele>169</ele>
        <time>2018-01-05T12:13:34Z</time>
      </trkpt>
      <trkpt lat="45.93183" lon="4.72706">
        <ele>169</ele>
        <time>2018-01-05T12:13:35Z</time>
      </trkpt>
      <trkpt lat="45.93179" lon="4.7271">
        <ele>169</ele>
        <time>2018-01-05T12:13:36Z</time>
      </trkpt>
      <trkpt lat="45.93175" lon="4.72716">
        <ele>170</ele>
        <time>2018-01-05T12:13:37Z</time>
      </trkpt>
      <trkpt lat="45.9317" lon="4.72721">
        <ele>170</ele>
        <time>2018-01-05T12:13:38Z</time>
      </trkpt>
      <trkpt lat="45.93167" lon="4.72725">
        <ele>170</ele>
        <time>2018-01-05T12:13:39Z</time>
      </trkpt>
      <trkpt lat="45.93162" lon="4.72729">
        <ele>170</ele>
        <time>2018-01-05T12:13:40Z</time>
      </trkpt>
      <trkpt lat="45.93158" lon="4.72734">
        <ele>170</ele>
        <time>2018-01-05T12:13:41Z</time>
      </trkpt>
      <trkpt lat="45.93154" lon="4.72738">
        <ele>170</ele>
        <time>2018-01-05T12:13:42Z</time>
      </trkpt>
      <trkpt lat="45.9315" lon="4.72744">
        <ele>170</ele>
        <time>2018-01-05T12:13:43Z</time>
      </trkpt>
      <trkpt lat="45.93146" lon="4.72748">
        <ele>170</ele>
        <time>2018-01-05T12:13:44Z</time>
      </trkpt>
      <trkpt lat="45.93143" lon="4.72752">
        <ele>171</ele>
        <time>2018-01-05T12:13:45Z</time>
      </trkpt>
      <trkpt lat="45.93138" lon="4.72756">
        <ele>171</ele>
        <time>2018-01-05T12:13:46Z</time>
      </trkpt>
      <trkpt lat="45.93135" lon="4.72762">
        <ele>171</ele>
        <time>2018-01-05T12:13:47Z</time>
      </trkpt>
      <trkpt lat="45.93132" lon="4.72767">
        <ele>171</ele>
        <time>2018-01-05T12:13:48Z</time>
      </trkpt>
      <trkpt lat="45.93128" lon="4.72772">
        <ele>171</ele>
        <time>2018-01-05T12:13:49Z</time>
      </trkpt>
      <trkpt lat="45.93124" lon="4.72777">
        <ele>171</ele>
        <time>2018-01-05T12:13:50Z</time>
      </trkpt>
      <trkpt lat="45.93119" lon="4.72783">
        <ele>171</ele>
        <time>2018-01-05T12:13:51Z</time>
      </trkpt>
      <trkpt lat="45.93114" lon="4.72788">
        <ele>171</ele>
        <time>2018-01-05T12:13:52Z</time>
      </trkpt>
      <trkpt lat="45.93111" lon="4.72794">
        <ele>171</ele>
        <time>2018-01-05T12:13:53Z</time>
      </trkpt>
      <trkpt lat="45.93106" lon="4.72798">
        <ele>171</ele>
        <time>2018-01-05T12:13:54Z</time>
      </trkpt>
      <trkpt lat="45.93101" lon="4.72804">
        <ele>171</ele>
        <time>2018-01-05T12:13:55Z</time>
      </trkpt>
      <trkpt lat="45.93097" lon="4.72809">
        <ele>172</ele>
        <time>2018-01-05T12:13:56Z</time>
      </trkpt>
      <trkpt lat="45.93092" lon="4.72813">
        <ele>172</ele>
        <time>2018-01-05T12:13:57Z</time>
      </trkpt>
      <trkpt lat="45.93088" lon="4.72817">
        <ele>172</ele>
        <time>2018-01-05T12:13:58Z</time>
      </trkpt>
      <trkpt lat="45.93084" lon="4.72821">
        <ele>172</ele>
        <time>2018-01-05T12:13:59Z</time>
      </trkpt>
      <trkpt lat="45.93058" lon="4.72849">
        <ele>172</ele>
        <time>2018-01-05T12:14:06Z</time>
      </trkpt>
      <trkpt lat="45.9305" lon="4.72852">
        <ele>172</ele>
        <time>2018-01-05T12:14:08Z</time>
      </trkpt>
      <trkpt lat="45.93047" lon="4.7286">
        <ele>172</ele>
        <time>2018-01-05T12:14:09Z</time>
      </trkpt>
      <trkpt lat="45.93043" lon="4.72866">
        <ele>172</ele>
        <time>2018-01-05T12:14:10Z</time>
      </trkpt>
      <trkpt lat="45.93038" lon="4.72873">
        <ele>172</ele>
        <time>2018-01-05T12:14:11Z</time>
      </trkpt>
      <trkpt lat="45.93035" lon="4.72878">
        <ele>172</ele>
        <time>2018-01-05T12:14:12Z</time>
      </trkpt>
      <trkpt lat="45.93031" lon="4.72883">
        <ele>172</ele>
        <time>2018-01-05T12:14:13Z</time>
      </trkpt>
      <trkpt lat="45.93027" lon="4.72888">
        <ele>172</ele>
        <time>2018-01-05T12:14:14Z</time>
      </trkpt>
      <trkpt lat="45.93023" lon="4.72892">
        <ele>172</ele>
        <time>2018-01-05T12:14:15Z</time>
      </trkpt>
      <trkpt lat="45.93016" lon="4.72899">
        <ele>172</ele>
        <time>2018-01-05T12:14:17Z</time>
      </trkpt>
      <trkpt lat="45.93012" lon="4.72903">
        <ele>172</ele>
        <time>2018-01-05T12:14:18Z</time>
      </trkpt>
      <trkpt lat="45.93009" lon="4.72907">
        <ele>171</ele>
        <time>2018-01-05T12:14:19Z</time>
      </trkpt>
      <trkpt lat="45.93005" lon="4.72911">
        <ele>171</ele>
        <time>2018-01-05T12:14:20Z</time>
      </trkpt>
      <trkpt lat="45.93001" lon="4.72916">
        <ele>171</ele>
        <time>2018-01-05T12:14:21Z</time>
      </trkpt>
      <trkpt lat="45.92997" lon="4.72921">
        <ele>171</ele>
        <time>2018-01-05T12:14:22Z</time>
      </trkpt>
      <trkpt lat="45.92993" lon="4.72926">
        <ele>171</ele>
        <time>2018-01-05T12:14:23Z</time>
      </trkpt>
      <trkpt lat="45.92989" lon="4.7293">
        <ele>171</ele>
        <time>2018-01-05T12:14:24Z</time>
      </trkpt>
      <trkpt lat="45.92985" lon="4.72934">
        <ele>171</ele>
        <time>2018-01-05T12:14:25Z</time>
      </trkpt>
      <trkpt lat="45.9298" lon="4.72939">
        <ele>171</ele>
        <time>2018-01-05T12:14:26Z</time>
      </trkpt>
      <trkpt lat="45.92976" lon="4.72944">
        <ele>171</ele>
        <time>2018-01-05T12:14:27Z</time>
      </trkpt>
      <trkpt lat="45.92972" lon="4.72948">
        <ele>171</ele>
        <time>2018-01-05T12:14:28Z</time>
      </trkpt>
      <trkpt lat="45.92969" lon="4.72953">
        <ele>171</ele>
        <time>2018-01-05T12:14:29Z</time>
      </trkpt>
      <trkpt lat="45.92965" lon="4.72958">
        <ele>171</ele>
        <time>2018-01-05T12:14:30Z</time>
      </trkpt>
      <trkpt lat="45.92962" lon="4.72962">
        <ele>171</ele>
        <time>2018-01-05T12:14:31Z</time>
      </trkpt>
      <trkpt lat="45.92958" lon="4.72967">
        <ele>171</ele>
        <time>2018-01-05T12:14:32Z</time>
      </trkpt>
      <trkpt lat="45.92954" lon="4.72971">
        <ele>171</ele>
        <time>2018-01-05T12:14:33Z</time>
      </trkpt>
      <trkpt lat="45.92951" lon="4.72976">
        <ele>171</ele>
        <time>2018-01-05T12:14:34Z</time>
      </trkpt>
      <trkpt lat="45.92947" lon="4.7298">
        <ele>171</ele>
        <time>2018-01-05T12:14:35Z</time>
      </trkpt>
      <trkpt lat="45.92944" lon="4.72984">
        <ele>171</ele>
        <time>2018-01-05T12:14:36Z</time>
      </trkpt>
      <trkpt lat="45.9294" lon="4.72988">
        <ele>171</ele>
        <time>2018-01-05T12:14:37Z</time>
      </trkpt>
      <trkpt lat="45.92936" lon="4.72993">
        <ele>171</ele>
        <time>2018-01-05T12:14:38Z</time>
      </trkpt>
      <trkpt lat="45.9293" lon="4.73">
        <ele>172</ele>
        <time>2018-01-05T12:14:40Z</time>
      </trkpt>
      <trkpt lat="45.92926" lon="4.73004">
        <ele>172</ele>
        <time>2018-01-05T12:14:41Z</time>
      </trkpt>
      <trkpt lat="45.92922" lon="4.73009">
        <ele>172</ele>
        <time>2018-01-05T12:14:42Z</time>
      </trkpt>
      <trkpt lat="45.92918" lon="4.73013">
        <ele>172</ele>
        <time>2018-01-05T12:14:43Z</time>
      </trkpt>
      <trkpt lat="45.92914" lon="4.73017">
        <ele>172</ele>
        <time>2018-01-05T12:14:44Z</time>
      </trkpt>
      <trkpt lat="45.92911" lon="4.73023">
        <ele>172</ele>
        <time>2018-01-05T12:14:45Z</time>
      </trkpt>
      <trkpt lat="45.92905" lon="4.73032">
        <ele>172</ele>
        <time>2018-01-05T12:14:47Z</time>
      </trkpt>
      <trkpt lat="45.92902" lon="4.73036">
        <ele>172</ele>
        <time>2018-01-05T12:14:48Z</time>
      </trkpt>
      <trkpt lat="45.92898" lon="4.73041">
        <ele>172</ele>
        <time>2018-01-05T12:14:49Z</time>
      </trkpt>
      <trkpt lat="45.92895" lon="4.73046">
        <ele>172</ele>
        <time>2018-01-05T12:14:50Z</time>
      </trkpt>
      <trkpt lat="45.92891" lon="4.73051">
        <ele>172</ele>
        <time>2018-01-05T12:14:51Z</time>
      </trkpt>
      <trkpt lat="45.92888" lon="4.73057">
        <ele>172</ele>
        <time>2018-01-05T12:14:52Z</time>
      </trkpt>
      <trkpt lat="45.92882" lon="4.73066">
        <ele>172</ele>
        <time>2018-01-05T12:14:54Z</time>
      </trkpt>
      <trkpt lat="45.9288" lon="4.73071">
        <ele>172</ele>
        <time>2018-01-05T12:14:55Z</time>
      </trkpt>
      <trkpt lat="45.92876" lon="4.73076">
        <ele>172</ele>
        <time>2018-01-05T12:14:56Z</time>
      </trkpt>
      <trkpt lat="45.92872" lon="4.73081">
        <ele>172</ele>
        <time>2018-01-05T12:14:57Z</time>
      </trkpt>
      <trkpt lat="45.92869" lon="4.73086">
        <ele>172</ele>
        <time>2018-01-05T12:14:58Z</time>
      </trkpt>
      <trkpt lat="45.92865" lon="4.73091">
        <ele>172</ele>
        <time>2018-01-05T12:14:59Z</time>
      </trkpt>
      <trkpt lat="45.92862" lon="4.73097">
        <ele>171</ele>
        <time>2018-01-05T12:15:00Z</time>
      </trkpt>
      <trkpt lat="45.92859" lon="4.73101">
        <ele>171</ele>
        <time>2018-01-05T12:15:01Z</time>
      </trkpt>
      <trkpt lat="45.92855" lon="4.73103">
        <ele>171</ele>
        <time>2018-01-05T12:15:02Z</time>
      </trkpt>
      <trkpt lat="45.9285" lon="4.73102">
        <ele>171</ele>
        <time>2018-01-05T12:15:03Z</time>
      </trkpt>
      <trkpt lat="45.92847" lon="4.73097">
        <ele>171</ele>
        <time>2018-01-05T12:15:04Z</time>
      </trkpt>
      <trkpt lat="45.92844" lon="4.7309">
        <ele>171</ele>
        <time>2018-01-05T12:15:05Z</time>
      </trkpt>
      <trkpt lat="45.92844" lon="4.73084">
        <ele>171</ele>
        <time>2018-01-05T12:15:06Z</time>
      </trkpt>
      <trkpt lat="45.92844" lon="4.73076">
        <ele>171</ele>
        <time>2018-01-05T12:15:07Z</time>
      </trkpt>
      <trkpt lat="45.92842" lon="4.73069">
        <ele>171</ele>
        <time>2018-01-05T12:15:08Z</time>
      </trkpt>
      <trkpt lat="45.92841" lon="4.73062">
        <ele>171</ele>
        <time>2018-01-05T12:15:09Z</time>
      </trkpt>
      <trkpt lat="45.92839" lon="4.73055">
        <ele>171</ele>
        <time>2018-01-05T12:15:10Z</time>
      </trkpt>
      <trkpt lat="45.92838" lon="4.73046">
        <ele>171</ele>
        <time>2018-01-05T12:15:11Z</time>
      </trkpt>
      <trkpt lat="45.92837" lon="4.73038">
        <ele>171</ele>
        <time>2018-01-05T12:15:12Z</time>
      </trkpt>
      <trkpt lat="45.92836" lon="4.7303">
        <ele>171</ele>
        <time>2018-01-05T12:15:13Z</time>
      </trkpt>
      <trkpt lat="45.92835" lon="4.73023">
        <ele>171</ele>
        <time>2018-01-05T12:15:14Z</time>
      </trkpt>
      <trkpt lat="45.92834" lon="4.73015">
        <ele>171</ele>
        <time>2018-01-05T12:15:15Z</time>
      </trkpt>
      <trkpt lat="45.92833" lon="4.73007">
        <ele>170</ele>
        <time>2018-01-05T12:15:16Z</time>
      </trkpt>
      <trkpt lat="45.92831" lon="4.73">
        <ele>170</ele>
        <time>2018-01-05T12:15:17Z</time>
      </trkpt>
      <trkpt lat="45.92831" lon="4.72994">
        <ele>170</ele>
        <time>2018-01-05T12:15:18Z</time>
      </trkpt>
      <trkpt lat="45.92829" lon="4.72986">
        <ele>170</ele>
        <time>2018-01-05T12:15:19Z</time>
      </trkpt>
      <trkpt lat="45.92829" lon="4.72979">
        <ele>170</ele>
        <time>2018-01-05T12:15:20Z</time>
      </trkpt>
      <trkpt lat="45.92829" lon="4.72973">
        <ele>170</ele>
        <time>2018-01-05T12:15:21Z</time>
      </trkpt>
      <trkpt lat="45.92828" lon="4.72966">
        <ele>170</ele>
        <time>2018-01-05T12:15:22Z</time>
      </trkpt>
      <trkpt lat="45.92827" lon="4.7296">
        <ele>170</ele>
        <time>2018-01-05T12:15:23Z</time>
      </trkpt>
      <trkpt lat="45.92825" lon="4.72953">
        <ele>170</ele>
        <time>2018-01-05T12:15:24Z</time>
      </trkpt>
      <trkpt lat="45.92824" lon="4.72945">
        <ele>170</ele>
        <time>2018-01-05T12:15:25Z</time>
      </trkpt>
      <trkpt lat="45.92824" lon="4.72938">
        <ele>170</ele>
        <time>2018-01-05T12:15:26Z</time>
      </trkpt>
      <trkpt lat="45.92823" lon="4.72931">
        <ele>170</ele>
        <time>2018-01-05T12:15:27Z</time>
      </trkpt>
      <trkpt lat="45.92823" lon="4.72923">
        <ele>170</ele>
        <time>2018-01-05T12:15:28Z</time>
      </trkpt>
      <trkpt lat="45.92823" lon="4.72917">
        <ele>170</ele>
        <time>2018-01-05T12:15:29Z</time>
      </trkpt>
      <trkpt lat="45.92822" lon="4.7291">
        <ele>170</ele>
        <time>2018-01-05T12:15:30Z</time>
      </trkpt>
      <trkpt lat="45.9282" lon="4.72904">
        <ele>170</ele>
        <time>2018-01-05T12:15:31Z</time>
      </trkpt>
      <trkpt lat="45.92818" lon="4.72893">
        <ele>170</ele>
        <time>2018-01-05T12:15:33Z</time>
      </trkpt>
      <trkpt lat="45.92818" lon="4.72887">
        <ele>170</ele>
        <time>2018-01-05T12:15:34Z</time>
      </trkpt>
      <trkpt lat="45.92816" lon="4.72875">
        <ele>170</ele>
        <time>2018-01-05T12:15:36Z</time>
      </trkpt>
      <trkpt lat="45.92814" lon="4.72869">
        <ele>170</ele>
        <time>2018-01-05T12:15:37Z</time>
      </trkpt>
      <trkpt lat="45.92814" lon="4.72862">
        <ele>170</ele>
        <time>2018-01-05T12:15:38Z</time>
      </trkpt>
      <trkpt lat="45.92813" lon="4.72856">
        <ele>170</ele>
        <time>2018-01-05T12:15:39Z</time>
      </trkpt>
      <trkpt lat="45.9281" lon="4.72844">
        <ele>170</ele>
        <time>2018-01-05T12:15:41Z</time>
      </trkpt>
      <trkpt lat="45.92809" lon="4.72839">
        <ele>170</ele>
        <time>2018-01-05T12:15:42Z</time>
      </trkpt>
      <trkpt lat="45.92807" lon="4.72827">
        <ele>171</ele>
        <time>2018-01-05T12:15:44Z</time>
      </trkpt>
      <trkpt lat="45.92806" lon="4.72822">
        <ele>171</ele>
        <time>2018-01-05T12:15:45Z</time>
      </trkpt>
      <trkpt lat="45.92804" lon="4.72809">
        <ele>171</ele>
        <time>2018-01-05T12:15:47Z</time>
      </trkpt>
      <trkpt lat="45.92803" lon="4.72803">
        <ele>171</ele>
        <time>2018-01-05T12:15:48Z</time>
      </trkpt>
      <trkpt lat="45.92802" lon="4.72797">
        <ele>171</ele>
        <time>2018-01-05T12:15:49Z</time>
      </trkpt>
      <trkpt lat="45.928" lon="4.72791">
        <ele>171</ele>
        <time>2018-01-05T12:15:50Z</time>
      </trkpt>
      <trkpt lat="45.92792" lon="4.72786">
        <ele>171</ele>
        <time>2018-01-05T12:15:53Z</time>
      </trkpt>
      <trkpt lat="45.92789" lon="4.72788">
        <ele>171</ele>
        <time>2018-01-05T12:15:54Z</time>
      </trkpt>
      <trkpt lat="45.92781" lon="4.72793">
        <ele>170</ele>
        <time>2018-01-05T12:15:56Z</time>
      </trkpt>
      <trkpt lat="45.92777" lon="4.72796">
        <ele>170</ele>
        <time>2018-01-05T12:15:57Z</time>
      </trkpt>
      <trkpt lat="45.92771" lon="4.72801">
        <ele>170</ele>
        <time>2018-01-05T12:15:59Z</time>
      </trkpt>
      <trkpt lat="45.92766" lon="4.72804">
        <ele>170</ele>
        <time>2018-01-05T12:16:00Z</time>
      </trkpt>
      <trkpt lat="45.92761" lon="4.72807">
        <ele>170</ele>
        <time>2018-01-05T12:16:01Z</time>
      </trkpt>
      <trkpt lat="45.92757" lon="4.72812">
        <ele>170</ele>
        <time>2018-01-05T12:16:02Z</time>
      </trkpt>
      <trkpt lat="45.92752" lon="4.72814">
        <ele>170</ele>
        <time>2018-01-05T12:16:03Z</time>
      </trkpt>
      <trkpt lat="45.92748" lon="4.72817">
        <ele>169</ele>
        <time>2018-01-05T12:16:04Z</time>
      </trkpt>
      <trkpt lat="45.92745" lon="4.72822">
        <ele>169</ele>
        <time>2018-01-05T12:16:05Z</time>
      </trkpt>
      <trkpt lat="45.9274" lon="4.72825">
        <ele>169</ele>
        <time>2018-01-05T12:16:06Z</time>
      </trkpt>
      <trkpt lat="45.92735" lon="4.72829">
        <ele>169</ele>
        <time>2018-01-05T12:16:07Z</time>
      </trkpt>
      <trkpt lat="45.92731" lon="4.72832">
        <ele>169</ele>
        <time>2018-01-05T12:16:08Z</time>
      </trkpt>
      <trkpt lat="45.92722" lon="4.72837">
        <ele>169</ele>
        <time>2018-01-05T12:16:10Z</time>
      </trkpt>
      <trkpt lat="45.92719" lon="4.7284">
        <ele>169</ele>
        <time>2018-01-05T12:16:11Z</time>
      </trkpt>
      <trkpt lat="45.92711" lon="4.72846">
        <ele>169</ele>
        <time>2018-01-05T12:16:13Z</time>
      </trkpt>
      <trkpt lat="45.92707" lon="4.72849">
        <ele>169</ele>
        <time>2018-01-05T12:16:14Z</time>
      </trkpt>
      <trkpt lat="45.92702" lon="4.72852">
        <ele>169</ele>
        <time>2018-01-05T12:16:15Z</time>
      </trkpt>
      <trkpt lat="45.92698" lon="4.72856">
        <ele>169</ele>
        <time>2018-01-05T12:16:16Z</time>
      </trkpt>
      <trkpt lat="45.92694" lon="4.72859">
        <ele>169</ele>
        <time>2018-01-05T12:16:17Z</time>
      </trkpt>
      <trkpt lat="45.9269" lon="4.72863">
        <ele>169</ele>
        <time>2018-01-05T12:16:18Z</time>
      </trkpt>
      <trkpt lat="45.92685" lon="4.72866">
        <ele>169</ele>
        <time>2018-01-05T12:16:19Z</time>
      </trkpt>
      <trkpt lat="45.92682" lon="4.72869">
        <ele>169</ele>
        <time>2018-01-05T12:16:20Z</time>
      </trkpt>
      <trkpt lat="45.92677" lon="4.72873">
        <ele>169</ele>
        <time>2018-01-05T12:16:21Z</time>
      </trkpt>
      <trkpt lat="45.92673" lon="4.72877">
        <ele>170</ele>
        <time>2018-01-05T12:16:22Z</time>
      </trkpt>
      <trkpt lat="45.92669" lon="4.72881">
        <ele>170</ele>
        <time>2018-01-05T12:16:23Z</time>
      </trkpt>
      <trkpt lat="45.92665" lon="4.72884">
        <ele>169</ele>
        <time>2018-01-05T12:16:24Z</time>
      </trkpt>
      <trkpt lat="45.92661" lon="4.72887">
        <ele>169</ele>
        <time>2018-01-05T12:16:25Z</time>
      </trkpt>
      <trkpt lat="45.92657" lon="4.7289">
        <ele>169</ele>
        <time>2018-01-05T12:16:26Z</time>
      </trkpt>
      <trkpt lat="45.92653" lon="4.72894">
        <ele>169</ele>
        <time>2018-01-05T12:16:27Z</time>
      </trkpt>
      <trkpt lat="45.92649" lon="4.72897">
        <ele>169</ele>
        <time>2018-01-05T12:16:28Z</time>
      </trkpt>
      <trkpt lat="45.92642" lon="4.72904">
        <ele>169</ele>
        <time>2018-01-05T12:16:30Z</time>
      </trkpt>
      <trkpt lat="45.92638" lon="4.72908">
        <ele>169</ele>
        <time>2018-01-05T12:16:31Z</time>
      </trkpt>
      <trkpt lat="45.92633" lon="4.72911">
        <ele>169</ele>
        <time>2018-01-05T12:16:32Z</time>
      </trkpt>
      <trkpt lat="45.92629" lon="4.72915">
        <ele>169</ele>
        <time>2018-01-05T12:16:33Z</time>
      </trkpt>
      <trkpt lat="45.92624" lon="4.72918">
        <ele>169</ele>
        <time>2018-01-05T12:16:34Z</time>
      </trkpt>
      <trkpt lat="45.92619" lon="4.72923">
        <ele>169</ele>
        <time>2018-01-05T12:16:35Z</time>
      </trkpt>
      <trkpt lat="45.92613" lon="4.72927">
        <ele>169</ele>
        <time>2018-01-05T12:16:36Z</time>
      </trkpt>
      <trkpt lat="45.92608" lon="4.72931">
        <ele>169</ele>
        <time>2018-01-05T12:16:37Z</time>
      </trkpt>
      <trkpt lat="45.92604" lon="4.72936">
        <ele>169</ele>
        <time>2018-01-05T12:16:38Z</time>
      </trkpt>
      <trkpt lat="45.92599" lon="4.72941">
        <ele>169</ele>
        <time>2018-01-05T12:16:39Z</time>
      </trkpt>
      <trkpt lat="45.92595" lon="4.72946">
        <ele>169</ele>
        <time>2018-01-05T12:16:40Z</time>
      </trkpt>
      <trkpt lat="45.92591" lon="4.72951">
        <ele>169</ele>
        <time>2018-01-05T12:16:41Z</time>
      </trkpt>
      <trkpt lat="45.92586" lon="4.72956">
        <ele>169</ele>
        <time>2018-01-05T12:16:42Z</time>
      </trkpt>
      <trkpt lat="45.92583" lon="4.72961">
        <ele>169</ele>
        <time>2018-01-05T12:16:43Z</time>
      </trkpt>
      <trkpt lat="45.92579" lon="4.72965">
        <ele>169</ele>
        <time>2018-01-05T12:16:44Z</time>
      </trkpt>
      <trkpt lat="45.92575" lon="4.7297">
        <ele>169</ele>
        <time>2018-01-05T12:16:45Z</time>
      </trkpt>
      <trkpt lat="45.92568" lon="4.72977">
        <ele>169</ele>
        <time>2018-01-05T12:16:47Z</time>
      </trkpt>
      <trkpt lat="45.92564" lon="4.7298">
        <ele>169</ele>
        <time>2018-01-05T12:16:48Z</time>
      </trkpt>
      <trkpt lat="45.92557" lon="4.72988">
        <ele>169</ele>
        <time>2018-01-05T12:16:50Z</time>
      </trkpt>
      <trkpt lat="45.92554" lon="4.72993">
        <ele>169</ele>
        <time>2018-01-05T12:16:51Z</time>
      </trkpt>
      <trkpt lat="45.9255" lon="4.72998">
        <ele>169</ele>
        <time>2018-01-05T12:16:52Z</time>
      </trkpt>
      <trkpt lat="45.92546" lon="4.73001">
        <ele>169</ele>
        <time>2018-01-05T12:16:53Z</time>
      </trkpt>
      <trkpt lat="45.92542" lon="4.73004">
        <ele>169</ele>
        <time>2018-01-05T12:16:54Z</time>
      </trkpt>
      <trkpt lat="45.92538" lon="4.73008">
        <ele>169</ele>
        <time>2018-01-05T12:16:55Z</time>
      </trkpt>
      <trkpt lat="45.92531" lon="4.73015">
        <ele>169</ele>
        <time>2018-01-05T12:16:57Z</time>
      </trkpt>
      <trkpt lat="45.92527" lon="4.73018">
        <ele>169</ele>
        <time>2018-01-05T12:16:58Z</time>
      </trkpt>
      <trkpt lat="45.92521" lon="4.73025">
        <ele>169</ele>
        <time>2018-01-05T12:17:00Z</time>
      </trkpt>
      <trkpt lat="45.92517" lon="4.73028">
        <ele>169</ele>
        <time>2018-01-05T12:17:01Z</time>
      </trkpt>
      <trkpt lat="45.92511" lon="4.73034">
        <ele>169</ele>
        <time>2018-01-05T12:17:03Z</time>
      </trkpt>
      <trkpt lat="45.92507" lon="4.73037">
        <ele>169</ele>
        <time>2018-01-05T12:17:04Z</time>
      </trkpt>
      <trkpt lat="45.925" lon="4.73043">
        <ele>170</ele>
        <time>2018-01-05T12:17:06Z</time>
      </trkpt>
      <trkpt lat="45.92497" lon="4.73045">
        <ele>170</ele>
        <time>2018-01-05T12:17:07Z</time>
      </trkpt>
      <trkpt lat="45.9249" lon="4.73052">
        <ele>170</ele>
        <time>2018-01-05T12:17:09Z</time>
      </trkpt>
      <trkpt lat="45.92486" lon="4.73055">
        <ele>170</ele>
        <time>2018-01-05T12:17:10Z</time>
      </trkpt>
      <trkpt lat="45.92478" lon="4.7306">
        <ele>170</ele>
        <time>2018-01-05T12:17:12Z</time>
      </trkpt>
      <trkpt lat="45.92475" lon="4.73063">
        <ele>170</ele>
        <time>2018-01-05T12:17:13Z</time>
      </trkpt>
      <trkpt lat="45.92471" lon="4.73067">
        <ele>170</ele>
        <time>2018-01-05T12:17:14Z</time>
      </trkpt>
      <trkpt lat="45.92467" lon="4.7307">
        <ele>170</ele>
        <time>2018-01-05T12:17:15Z</time>
      </trkpt>
      <trkpt lat="45.9246" lon="4.73076">
        <ele>170</ele>
        <time>2018-01-05T12:17:17Z</time>
      </trkpt>
      <trkpt lat="45.92456" lon="4.73078">
        <ele>170</ele>
        <time>2018-01-05T12:17:18Z</time>
      </trkpt>
      <trkpt lat="45.92449" lon="4.73084">
        <ele>170</ele>
        <time>2018-01-05T12:17:20Z</time>
      </trkpt>
      <trkpt lat="45.92445" lon="4.73087">
        <ele>170</ele>
        <time>2018-01-05T12:17:21Z</time>
      </trkpt>
      <trkpt lat="45.92438" lon="4.73093">
        <ele>171</ele>
        <time>2018-01-05T12:17:23Z</time>
      </trkpt>
      <trkpt lat="45.92434" lon="4.73096">
        <ele>171</ele>
        <time>2018-01-05T12:17:24Z</time>
      </trkpt>
      <trkpt lat="45.92427" lon="4.73101">
        <ele>171</ele>
        <time>2018-01-05T12:17:26Z</time>
      </trkpt>
      <trkpt lat="45.92423" lon="4.73104">
        <ele>171</ele>
        <time>2018-01-05T12:17:27Z</time>
      </trkpt>
      <trkpt lat="45.92417" lon="4.73111">
        <ele>171</ele>
        <time>2018-01-05T12:17:29Z</time>
      </trkpt>
      <trkpt lat="45.92413" lon="4.73114">
        <ele>171</ele>
        <time>2018-01-05T12:17:30Z</time>
      </trkpt>
      <trkpt lat="45.92408" lon="4.73123">
        <ele>171</ele>
        <time>2018-01-05T12:17:32Z</time>
      </trkpt>
      <trkpt lat="45.92408" lon="4.7313">
        <ele>171</ele>
        <time>2018-01-05T12:17:33Z</time>
      </trkpt>
      <trkpt lat="45.92407" lon="4.73137">
        <ele>171</ele>
        <time>2018-01-05T12:17:34Z</time>
      </trkpt>
      <trkpt lat="45.92407" lon="4.73143">
        <ele>171</ele>
        <time>2018-01-05T12:17:35Z</time>
      </trkpt>
      <trkpt lat="45.92407" lon="4.73155">
        <ele>171</ele>
        <time>2018-01-05T12:17:37Z</time>
      </trkpt>
      <trkpt lat="45.92407" lon="4.7316">
        <ele>170</ele>
        <time>2018-01-05T12:17:38Z</time>
      </trkpt>
      <trkpt lat="45.92407" lon="4.73173">
        <ele>170</ele>
        <time>2018-01-05T12:17:40Z</time>
      </trkpt>
      <trkpt lat="45.92407" lon="4.73179">
        <ele>171</ele>
        <time>2018-01-05T12:17:41Z</time>
      </trkpt>
      <trkpt lat="45.92407" lon="4.73191">
        <ele>171</ele>
        <time>2018-01-05T12:17:43Z</time>
      </trkpt>
      <trkpt lat="45.92407" lon="4.73197">
        <ele>171</ele>
        <time>2018-01-05T12:17:44Z</time>
      </trkpt>
      <trkpt lat="45.92408" lon="4.73209">
        <ele>171</ele>
        <time>2018-01-05T12:17:46Z</time>
      </trkpt>
      <trkpt lat="45.92408" lon="4.73215">
        <ele>171</ele>
        <time>2018-01-05T12:17:47Z</time>
      </trkpt>
      <trkpt lat="45.92409" lon="4.73227">
        <ele>171</ele>
        <time>2018-01-05T12:17:49Z</time>
      </trkpt>
      <trkpt lat="45.92409" lon="4.73234">
        <ele>171</ele>
        <time>2018-01-05T12:17:50Z</time>
      </trkpt>
      <trkpt lat="45.9241" lon="4.73246">
        <ele>171</ele>
        <time>2018-01-05T12:17:52Z</time>
      </trkpt>
      <trkpt lat="45.9241" lon="4.73252">
        <ele>171</ele>
        <time>2018-01-05T12:17:53Z</time>
      </trkpt>
      <trkpt lat="45.92411" lon="4.73264">
        <ele>171</ele>
        <time>2018-01-05T12:17:55Z</time>
      </trkpt>
      <trkpt lat="45.92411" lon="4.7327">
        <ele>171</ele>
        <time>2018-01-05T12:17:56Z</time>
      </trkpt>
      <trkpt lat="45.92412" lon="4.73281">
        <ele>171</ele>
        <time>2018-01-05T12:17:58Z</time>
      </trkpt>
      <trkpt lat="45.92412" lon="4.73287">
        <ele>171</ele>
        <time>2018-01-05T12:17:59Z</time>
      </trkpt>
      <trkpt lat="45.92413" lon="4.73298">
        <ele>171</ele>
        <time>2018-01-05T12:18:01Z</time>
      </trkpt>
      <trkpt lat="45.92414" lon="4.73304">
        <ele>171</ele>
        <time>2018-01-05T12:18:02Z</time>
      </trkpt>
      <trkpt lat="45.92415" lon="4.73316">
        <ele>171</ele>
        <time>2018-01-05T12:18:04Z</time>
      </trkpt>
      <trkpt lat="45.92415" lon="4.73322">
        <ele>171</ele>
        <time>2018-01-05T12:18:05Z</time>
      </trkpt>
      <trkpt lat="45.92416" lon="4.73334">
        <ele>171</ele>
        <time>2018-01-05T12:18:07Z</time>
      </trkpt>
      <trkpt lat="45.92417" lon="4.7334">
        <ele>171</ele>
        <time>2018-01-05T12:18:08Z</time>
      </trkpt>
      <trkpt lat="45.92417" lon="4.73347">
        <ele>171</ele>
        <time>2018-01-05T12:18:09Z</time>
      </trkpt>
      <trkpt lat="45.92419" lon="4.73353">
        <ele>171</ele>
        <time>2018-01-05T12:18:10Z</time>
      </trkpt>
      <trkpt lat="45.92419" lon="4.7336">
        <ele>171</ele>
        <time>2018-01-05T12:18:11Z</time>
      </trkpt>
      <trkpt lat="45.9242" lon="4.73366">
        <ele>172</ele>
        <time>2018-01-05T12:18:12Z</time>
      </trkpt>
      <trkpt lat="45.92422" lon="4.73378">
        <ele>172</ele>
        <time>2018-01-05T12:18:14Z</time>
      </trkpt>
      <trkpt lat="45.92423" lon="4.73384">
        <ele>172</ele>
        <time>2018-01-05T12:18:15Z</time>
      </trkpt>
      <trkpt lat="45.92426" lon="4.73395">
        <ele>172</ele>
        <time>2018-01-05T12:18:17Z</time>
      </trkpt>
      <trkpt lat="45.92427" lon="4.73401">
        <ele>172</ele>
        <time>2018-01-05T12:18:18Z</time>
      </trkpt>
      <trkpt lat="45.92431" lon="4.73406">
        <ele>172</ele>
        <time>2018-01-05T12:18:19Z</time>
      </trkpt>
      <trkpt lat="45.92434" lon="4.7341">
        <ele>172</ele>
        <time>2018-01-05T12:18:20Z</time>
      </trkpt>
      <trkpt lat="45.92438" lon="4.73414">
        <ele>172</ele>
        <time>2018-01-05T12:18:21Z</time>
      </trkpt>
      <trkpt lat="45.92442" lon="4.73418">
        <ele>173</ele>
        <time>2018-01-05T12:18:22Z</time>
      </trkpt>
      <trkpt lat="45.92449" lon="4.73425">
        <ele>173</ele>
        <time>2018-01-05T12:18:24Z</time>
      </trkpt>
      <trkpt lat="45.92453" lon="4.73428">
        <ele>173</ele>
        <time>2018-01-05T12:18:25Z</time>
      </trkpt>
      <trkpt lat="45.9246" lon="4.73436">
        <ele>173</ele>
        <time>2018-01-05T12:18:27Z</time>
      </trkpt>
      <trkpt lat="45.92463" lon="4.73442">
        <ele>173</ele>
        <time>2018-01-05T12:18:28Z</time>
      </trkpt>
      <trkpt lat="45.92465" lon="4.73449">
        <ele>173</ele>
        <time>2018-01-05T12:18:29Z</time>
      </trkpt>
      <trkpt lat="45.92467" lon="4.73456">
        <ele>173</ele>
        <time>2018-01-05T12:18:30Z</time>
      </trkpt>
      <trkpt lat="45.92468" lon="4.73468">
        <ele>173</ele>
        <time>2018-01-05T12:18:32Z</time>
      </trkpt>
      <trkpt lat="45.92468" lon="4.73473">
        <ele>173</ele>
        <time>2018-01-05T12:18:33Z</time>
      </trkpt>
      <trkpt lat="45.92469" lon="4.73485">
        <ele>173</ele>
        <time>2018-01-05T12:18:35Z</time>
      </trkpt>
      <trkpt lat="45.92469" lon="4.73491">
        <ele>173</ele>
        <time>2018-01-05T12:18:36Z</time>
      </trkpt>
      <trkpt lat="45.92469" lon="4.73503">
        <ele>174</ele>
        <time>2018-01-05T12:18:38Z</time>
      </trkpt>
      <trkpt lat="45.92468" lon="4.73508">
        <ele>174</ele>
        <time>2018-01-05T12:18:39Z</time>
      </trkpt>
      <trkpt lat="45.92468" lon="4.73515">
        <ele>174</ele>
        <time>2018-01-05T12:18:40Z</time>
      </trkpt>
      <trkpt lat="45.92468" lon="4.73522">
        <ele>174</ele>
        <time>2018-01-05T12:18:41Z</time>
      </trkpt>
      <trkpt lat="45.92468" lon="4.73534">
        <ele>174</ele>
        <time>2018-01-05T12:18:43Z</time>
      </trkpt>
      <trkpt lat="45.92468" lon="4.73538">
        <ele>174</ele>
        <time>2018-01-05T12:18:44Z</time>
      </trkpt>
      <trkpt lat="45.92467" lon="4.73548">
        <ele>173</ele>
        <time>2018-01-05T12:18:46Z</time>
      </trkpt>
      <trkpt lat="45.92467" lon="4.73553">
        <ele>173</ele>
        <time>2018-01-05T12:18:47Z</time>
      </trkpt>
      <trkpt lat="45.92467" lon="4.73565">
        <ele>173</ele>
        <time>2018-01-05T12:18:49Z</time>
      </trkpt>
      <trkpt lat="45.92468" lon="4.73571">
        <ele>173</ele>
        <time>2018-01-05T12:18:50Z</time>
      </trkpt>
      <trkpt lat="45.92469" lon="4.73577">
        <ele>173</ele>
        <time>2018-01-05T12:18:51Z</time>
      </trkpt>
      <trkpt lat="45.92469" lon="4.73584">
        <ele>174</ele>
        <time>2018-01-05T12:18:52Z</time>
      </trkpt>
      <trkpt lat="45.92469" lon="4.73591">
        <ele>174</ele>
        <time>2018-01-05T12:18:53Z</time>
      </trkpt>
      <trkpt lat="45.92471" lon="4.73597">
        <ele>174</ele>
        <time>2018-01-05T12:18:54Z</time>
      </trkpt>
      <trkpt lat="45.92471" lon="4.73604">
        <ele>174</ele>
        <time>2018-01-05T12:18:55Z</time>
      </trkpt>
      <trkpt lat="45.92471" lon="4.73611">
        <ele>174</ele>
        <time>2018-01-05T12:18:56Z</time>
      </trkpt>
      <trkpt lat="45.92472" lon="4.73618">
        <ele>174</ele>
        <time>2018-01-05T12:18:57Z</time>
      </trkpt>
      <trkpt lat="45.92472" lon="4.73625">
        <ele>174</ele>
        <time>2018-01-05T12:18:58Z</time>
      </trkpt>
      <trkpt lat="45.92472" lon="4.73638">
        <ele>174</ele>
        <time>2018-01-05T12:19:00Z</time>
      </trkpt>
      <trkpt lat="45.92472" lon="4.73644">
        <ele>174</ele>
        <time>2018-01-05T12:19:01Z</time>
      </trkpt>
      <trkpt lat="45.92473" lon="4.73653">
        <ele>174</ele>
        <time>2018-01-05T12:19:03Z</time>
      </trkpt>
      <trkpt lat="45.92472" lon="4.73658">
        <ele>174</ele>
        <time>2018-01-05T12:19:04Z</time>
      </trkpt>
      <trkpt lat="45.92471" lon="4.73668">
        <ele>174</ele>
        <time>2018-01-05T12:19:06Z</time>
      </trkpt>
      <trkpt lat="45.92471" lon="4.73674">
        <ele>174</ele>
        <time>2018-01-05T12:19:07Z</time>
      </trkpt>
      <trkpt lat="45.9247" lon="4.73683">
        <ele>174</ele>
        <time>2018-01-05T12:19:09Z</time>
      </trkpt>
      <trkpt lat="45.92469" lon="4.73688">
        <ele>174</ele>
        <time>2018-01-05T12:19:10Z</time>
      </trkpt>
      <trkpt lat="45.92467" lon="4.737">
        <ele>174</ele>
        <time>2018-01-05T12:19:13Z</time>
      </trkpt>
      <trkpt lat="45.92466" lon="4.73703">
        <ele>174</ele>
        <time>2018-01-05T12:19:14Z</time>
      </trkpt>
      <trkpt lat="45.92463" lon="4.73711">
        <ele>174</ele>
        <time>2018-01-05T12:20:02.666Z</time>
      </trkpt>
    </trkseg>
  </trk>
</gpx>